<?xml version='1.0' encoding='UTF-8'?><gpx version="1.1" creator="JPX - https://github.com/jenetics/jpx" xmlns="http://www.topografix.com/GPX/1/1"><trk><trkseg><trkpt lat="43.8692597" lon="6.4494157"><ele>1058.0</ele><time>2026-05-03T08:29:28.273Z</time></trkpt><trkpt lat="43.8692459" lon="6.4495306"><ele>1058.0</ele><time>2026-05-03T08:29:31.273Z</time></trkpt><trkpt lat="43.8692844" lon="6.4496241"><ele>1058.0</ele><time>2026-05-03T08:29:33.274Z</time></trkpt><trkpt lat="43.8693651" lon="6.4497078"><ele>1058.0</ele><time>2026-05-03T08:29:35.273Z</time></trkpt><trkpt lat="43.8694201" lon="6.4497533"><ele>1058.0</ele><time>2026-05-03T08:29:36.273Z</time></trkpt><trkpt lat="43.8694896" lon="6.4498184"><ele>1058.0</ele><time>2026-05-03T08:29:37.273Z</time></trkpt><trkpt lat="43.8695738" lon="6.4499277"><ele>1057.6666666666667</ele><time>2026-05-03T08:29:39.273Z</time></trkpt><trkpt lat="43.8696352" lon="6.4500131"><ele>1057.3333333333335</ele><time>2026-05-03T08:29:41.273Z</time></trkpt><trkpt lat="43.8696855" lon="6.4500804"><ele>1057.0</ele><time>2026-05-03T08:29:43.273Z</time></trkpt><trkpt lat="43.8697016" lon="6.4501905"><ele>1056.6666666666667</ele><time>2026-05-03T08:29:46.273Z</time></trkpt><trkpt lat="43.8696657" lon="6.4502906"><ele>1056.3333333333333</ele><time>2026-05-03T08:29:48.273Z</time></trkpt><trkpt lat="43.8695903" lon="6.4504181"><ele>1056.0</ele><time>2026-05-03T08:29:50.273Z</time></trkpt><trkpt lat="43.8695384" lon="6.4504993"><ele>1056.1666666666667</ele><time>2026-05-03T08:29:51.273Z</time></trkpt><trkpt lat="43.8694877" lon="6.4505814"><ele>1056.3333333333333</ele><time>2026-05-03T08:29:52.273Z</time></trkpt><trkpt lat="43.8694327" lon="6.45067"><ele>1056.5</ele><time>2026-05-03T08:29:53.273Z</time></trkpt><trkpt lat="43.8693806" lon="6.450758"><ele>1056.6666666666665</ele><time>2026-05-03T08:29:54.273Z</time></trkpt><trkpt lat="43.8693269" lon="6.4508545"><ele>1056.8333333333333</ele><time>2026-05-03T08:29:55.273Z</time></trkpt><trkpt lat="43.8692689" lon="6.4509551"><ele>1057.0</ele><time>2026-05-03T08:29:56.273Z</time></trkpt><trkpt lat="43.8692106" lon="6.4510567"><ele>1057.0</ele><time>2026-05-03T08:29:57.273Z</time></trkpt><trkpt lat="43.8691496" lon="6.4511545"><ele>1057.0</ele><time>2026-05-03T08:29:58.273Z</time></trkpt><trkpt lat="43.8690922" lon="6.4512556"><ele>1057.0</ele><time>2026-05-03T08:29:59.274Z</time></trkpt><trkpt lat="43.8690261" lon="6.4513688"><ele>1057.0</ele><time>2026-05-03T08:30:00.273Z</time></trkpt><trkpt lat="43.8689579" lon="6.4514811"><ele>1057.0</ele><time>2026-05-03T08:30:01.273Z</time></trkpt><trkpt lat="43.8688937" lon="6.4515944"><ele>1058.8</ele><time>2026-05-03T08:30:02.273Z</time></trkpt><trkpt lat="43.8688256" lon="6.4517078"><ele>1060.6</ele><time>2026-05-03T08:30:03.273Z</time></trkpt><trkpt lat="43.8687581" lon="6.4518225"><ele>1062.3999999999999</ele><time>2026-05-03T08:30:04.273Z</time></trkpt><trkpt lat="43.8686901" lon="6.4519397"><ele>1064.2</ele><time>2026-05-03T08:30:05.274Z</time></trkpt><trkpt lat="43.8686161" lon="6.4520665"><ele>1066.0</ele><time>2026-05-03T08:30:06.273Z</time></trkpt><trkpt lat="43.8685414" lon="6.4521914"><ele>1067.0</ele><time>2026-05-03T08:30:07.273Z</time></trkpt><trkpt lat="43.8684691" lon="6.4523152"><ele>1068.0</ele><time>2026-05-03T08:30:08.273Z</time></trkpt><trkpt lat="43.8684033" lon="6.4524422"><ele>1069.0</ele><time>2026-05-03T08:30:09.273Z</time></trkpt><trkpt lat="43.8683325" lon="6.4525869"><ele>1070.0</ele><time>2026-05-03T08:30:10.273Z</time></trkpt><trkpt lat="43.8682619" lon="6.452745"><ele>1070.0</ele><time>2026-05-03T08:30:11.273Z</time></trkpt><trkpt lat="43.8681938" lon="6.4529102"><ele>1070.0</ele><time>2026-05-03T08:30:12.273Z</time></trkpt><trkpt lat="43.8681245" lon="6.4530848"><ele>1070.0</ele><time>2026-05-03T08:30:13.273Z</time></trkpt><trkpt lat="43.8680629" lon="6.4532544"><ele>1070.0</ele><time>2026-05-03T08:30:14.273Z</time></trkpt><trkpt lat="43.8679996" lon="6.453414"><ele>1070.75</ele><time>2026-05-03T08:30:15.274Z</time></trkpt><trkpt lat="43.8679235" lon="6.4535677"><ele>1071.5</ele><time>2026-05-03T08:30:16.273Z</time></trkpt><trkpt lat="43.867837" lon="6.4537054"><ele>1072.25</ele><time>2026-05-03T08:30:17.273Z</time></trkpt><trkpt lat="43.8677356" lon="6.453839"><ele>1073.0</ele><time>2026-05-03T08:30:18.273Z</time></trkpt><trkpt lat="43.8676308" lon="6.4539629"><ele>1072.25</ele><time>2026-05-03T08:30:19.273Z</time></trkpt><trkpt lat="43.8675181" lon="6.4540794"><ele>1071.5</ele><time>2026-05-03T08:30:20.274Z</time></trkpt><trkpt lat="43.8674039" lon="6.4541734"><ele>1070.75</ele><time>2026-05-03T08:30:21.274Z</time></trkpt><trkpt lat="43.8672865" lon="6.4542503"><ele>1070.0</ele><time>2026-05-03T08:30:22.273Z</time></trkpt><trkpt lat="43.8671523" lon="6.4543002"><ele>1070.0</ele><time>2026-05-03T08:30:23.273Z</time></trkpt><trkpt lat="43.8670177" lon="6.4543324"><ele>1070.0</ele><time>2026-05-03T08:30:24.273Z</time></trkpt><trkpt lat="43.8668877" lon="6.4543807"><ele>1070.0</ele><time>2026-05-03T08:30:25.273Z</time></trkpt><trkpt lat="43.866757" lon="6.4544426"><ele>1070.0</ele><time>2026-05-03T08:30:26.273Z</time></trkpt><trkpt lat="43.8666276" lon="6.4545241"><ele>1072.25</ele><time>2026-05-03T08:30:27.273Z</time></trkpt><trkpt lat="43.8665123" lon="6.4546217"><ele>1074.5</ele><time>2026-05-03T08:30:28.273Z</time></trkpt><trkpt lat="43.8664028" lon="6.454738"><ele>1076.75</ele><time>2026-05-03T08:30:29.273Z</time></trkpt><trkpt lat="43.8663072" lon="6.4548749"><ele>1079.0</ele><time>2026-05-03T08:30:30.273Z</time></trkpt><trkpt lat="43.8662211" lon="6.4550288"><ele>1079.0</ele><time>2026-05-03T08:30:31.273Z</time></trkpt><trkpt lat="43.8661493" lon="6.4552003"><ele>1079.0</ele><time>2026-05-03T08:30:32.273Z</time></trkpt><trkpt lat="43.8660902" lon="6.4553849"><ele>1079.0</ele><time>2026-05-03T08:30:33.273Z</time></trkpt><trkpt lat="43.8660372" lon="6.4555768"><ele>1079.0</ele><time>2026-05-03T08:30:34.273Z</time></trkpt><trkpt lat="43.8659825" lon="6.4557685"><ele>1081.0</ele><time>2026-05-03T08:30:35.273Z</time></trkpt><trkpt lat="43.8659263" lon="6.4559682"><ele>1083.0</ele><time>2026-05-03T08:30:36.273Z</time></trkpt><trkpt lat="43.8658626" lon="6.4561687"><ele>1085.0</ele><time>2026-05-03T08:30:37.273Z</time></trkpt><trkpt lat="43.865798" lon="6.456368"><ele>1086.0</ele><time>2026-05-03T08:30:38.273Z</time></trkpt><trkpt lat="43.8657397" lon="6.4565664"><ele>1087.0</ele><time>2026-05-03T08:30:39.273Z</time></trkpt><trkpt lat="43.8657034" lon="6.4567729"><ele>1088.0</ele><time>2026-05-03T08:30:40.273Z</time></trkpt><trkpt lat="43.8656868" lon="6.4569893"><ele>1090.3333333333335</ele><time>2026-05-03T08:30:41.273Z</time></trkpt><trkpt lat="43.8656779" lon="6.4572053"><ele>1092.6666666666667</ele><time>2026-05-03T08:30:42.273Z</time></trkpt><trkpt lat="43.8656584" lon="6.4574218"><ele>1095.0</ele><time>2026-05-03T08:30:43.273Z</time></trkpt><trkpt lat="43.865611" lon="6.4576406"><ele>1095.0</ele><time>2026-05-03T08:30:44.273Z</time></trkpt><trkpt lat="43.8655506" lon="6.4578466"><ele>1095.0</ele><time>2026-05-03T08:30:45.273Z</time></trkpt><trkpt lat="43.8654939" lon="6.4580517"><ele>1095.0</ele><time>2026-05-03T08:30:46.273Z</time></trkpt><trkpt lat="43.8654332" lon="6.458259"><ele>1098.6666666666667</ele><time>2026-05-03T08:30:47.273Z</time></trkpt><trkpt lat="43.865372" lon="6.4584721"><ele>1102.3333333333335</ele><time>2026-05-03T08:30:48.273Z</time></trkpt><trkpt lat="43.865315" lon="6.4586899"><ele>1106.0</ele><time>2026-05-03T08:30:49.273Z</time></trkpt><trkpt lat="43.8652512" lon="6.4589083"><ele>1104.3333333333335</ele><time>2026-05-03T08:30:50.273Z</time></trkpt><trkpt lat="43.8651891" lon="6.4591354"><ele>1102.6666666666667</ele><time>2026-05-03T08:30:51.273Z</time></trkpt><trkpt lat="43.8651371" lon="6.4593675"><ele>1101.0</ele><time>2026-05-03T08:30:52.273Z</time></trkpt><trkpt lat="43.865095" lon="6.4596104"><ele>1103.3333333333333</ele><time>2026-05-03T08:30:53.273Z</time></trkpt><trkpt lat="43.8650644" lon="6.4598472"><ele>1105.6666666666665</ele><time>2026-05-03T08:30:54.273Z</time></trkpt><trkpt lat="43.8650411" lon="6.4600743"><ele>1108.0</ele><time>2026-05-03T08:30:55.273Z</time></trkpt><trkpt lat="43.8650224" lon="6.4602994"><ele>1109.3333333333333</ele><time>2026-05-03T08:30:56.273Z</time></trkpt><trkpt lat="43.8650022" lon="6.4605209"><ele>1110.6666666666667</ele><time>2026-05-03T08:30:57.273Z</time></trkpt><trkpt lat="43.8649716" lon="6.4607348"><ele>1112.0</ele><time>2026-05-03T08:30:58.273Z</time></trkpt><trkpt lat="43.8649423" lon="6.4609208"><ele>1112.0</ele><time>2026-05-03T08:30:59.273Z</time></trkpt><trkpt lat="43.8649173" lon="6.4610915"><ele>1112.0</ele><time>2026-05-03T08:31:00.274Z</time></trkpt><trkpt lat="43.8649104" lon="6.4612382"><ele>1112.0</ele><time>2026-05-03T08:31:01.273Z</time></trkpt><trkpt lat="43.864925" lon="6.4613606"><ele>1112.0</ele><time>2026-05-03T08:31:02.273Z</time></trkpt><trkpt lat="43.8649661" lon="6.4614419"><ele>1112.0</ele><time>2026-05-03T08:31:03.273Z</time></trkpt><trkpt lat="43.8650228" lon="6.4614934"><ele>1116.5</ele><time>2026-05-03T08:31:04.273Z</time></trkpt><trkpt lat="43.8651477" lon="6.4614533"><ele>1121.0</ele><time>2026-05-03T08:31:06.274Z</time></trkpt><trkpt lat="43.8652124" lon="6.4613317"><ele>1125.5</ele><time>2026-05-03T08:31:07.273Z</time></trkpt><trkpt lat="43.8652632" lon="6.4611608"><ele>1130.0</ele><time>2026-05-03T08:31:08.273Z</time></trkpt><trkpt lat="43.8653186" lon="6.4609598"><ele>1130.0</ele><time>2026-05-03T08:31:09.273Z</time></trkpt><trkpt lat="43.865371" lon="6.4607599"><ele>1130.0</ele><time>2026-05-03T08:31:10.274Z</time></trkpt><trkpt lat="43.8654295" lon="6.4605694"><ele>1130.0</ele><time>2026-05-03T08:31:11.273Z</time></trkpt><trkpt lat="43.8654893" lon="6.4603851"><ele>1130.0</ele><time>2026-05-03T08:31:12.273Z</time></trkpt><trkpt lat="43.8655536" lon="6.4602026"><ele>1128.5</ele><time>2026-05-03T08:31:13.273Z</time></trkpt><trkpt lat="43.8656201" lon="6.4600204"><ele>1127.0</ele><time>2026-05-03T08:31:14.273Z</time></trkpt><trkpt lat="43.86569" lon="6.4598456"><ele>1125.5</ele><time>2026-05-03T08:31:15.273Z</time></trkpt><trkpt lat="43.8657772" lon="6.4596859"><ele>1124.0</ele><time>2026-05-03T08:31:16.273Z</time></trkpt><trkpt lat="43.8658858" lon="6.4595474"><ele>1127.25</ele><time>2026-05-03T08:31:17.273Z</time></trkpt><trkpt lat="43.8659966" lon="6.4594402"><ele>1130.5</ele><time>2026-05-03T08:31:18.273Z</time></trkpt><trkpt lat="43.866099" lon="6.4593584"><ele>1133.75</ele><time>2026-05-03T08:31:19.273Z</time></trkpt><trkpt lat="43.8661933" lon="6.4592794"><ele>1137.0</ele><time>2026-05-03T08:31:20.273Z</time></trkpt><trkpt lat="43.8662707" lon="6.4592108"><ele>1137.0</ele><time>2026-05-03T08:31:21.273Z</time></trkpt><trkpt lat="43.86634" lon="6.4591649"><ele>1137.0</ele><time>2026-05-03T08:31:22.274Z</time></trkpt><trkpt lat="43.8664503" lon="6.4592084"><ele>1137.0</ele><time>2026-05-03T08:31:24.273Z</time></trkpt><trkpt lat="43.8664761" lon="6.4592967"><ele>1137.0</ele><time>2026-05-03T08:31:25.273Z</time></trkpt><trkpt lat="43.8664561" lon="6.4593983"><ele>1137.0</ele><time>2026-05-03T08:31:26.273Z</time></trkpt><trkpt lat="43.8663947" lon="6.4595047"><ele>1137.0</ele><time>2026-05-03T08:31:27.273Z</time></trkpt><trkpt lat="43.8663219" lon="6.4596341"><ele>1139.0</ele><time>2026-05-03T08:31:28.273Z</time></trkpt><trkpt lat="43.8662617" lon="6.4597912"><ele>1141.0</ele><time>2026-05-03T08:31:29.273Z</time></trkpt><trkpt lat="43.8662102" lon="6.4599611"><ele>1143.0</ele><time>2026-05-03T08:31:30.273Z</time></trkpt><trkpt lat="43.8661634" lon="6.4601272"><ele>1145.0</ele><time>2026-05-03T08:31:31.274Z</time></trkpt><trkpt lat="43.8661187" lon="6.460294"><ele>1145.25</ele><time>2026-05-03T08:31:32.273Z</time></trkpt><trkpt lat="43.8660556" lon="6.4604558"><ele>1145.5</ele><time>2026-05-03T08:31:33.273Z</time></trkpt><trkpt lat="43.8659996" lon="6.4606269"><ele>1145.75</ele><time>2026-05-03T08:31:34.273Z</time></trkpt><trkpt lat="43.8659374" lon="6.4608046"><ele>1146.0</ele><time>2026-05-03T08:31:35.273Z</time></trkpt><trkpt lat="43.8658736" lon="6.4609887"><ele>1143.6666666666667</ele><time>2026-05-03T08:31:36.273Z</time></trkpt><trkpt lat="43.8658099" lon="6.4611786"><ele>1141.3333333333335</ele><time>2026-05-03T08:31:37.273Z</time></trkpt><trkpt lat="43.8657447" lon="6.4613699"><ele>1139.0</ele><time>2026-05-03T08:31:38.273Z</time></trkpt><trkpt lat="43.865677" lon="6.4615652"><ele>1139.0</ele><time>2026-05-03T08:31:39.273Z</time></trkpt><trkpt lat="43.8656099" lon="6.4617668"><ele>1139.0</ele><time>2026-05-03T08:31:40.273Z</time></trkpt><trkpt lat="43.8655491" lon="6.4619686"><ele>1139.0</ele><time>2026-05-03T08:31:41.274Z</time></trkpt><trkpt lat="43.8655012" lon="6.4621702"><ele>1140.75</ele><time>2026-05-03T08:31:42.273Z</time></trkpt><trkpt lat="43.8654793" lon="6.462377"><ele>1142.5</ele><time>2026-05-03T08:31:43.273Z</time></trkpt><trkpt lat="43.8654768" lon="6.462584"><ele>1144.25</ele><time>2026-05-03T08:31:44.273Z</time></trkpt><trkpt lat="43.8654855" lon="6.4627908"><ele>1146.0</ele><time>2026-05-03T08:31:45.273Z</time></trkpt><trkpt lat="43.8654837" lon="6.4630002"><ele>1147.0</ele><time>2026-05-03T08:31:46.273Z</time></trkpt><trkpt lat="43.8654787" lon="6.4632097"><ele>1148.0</ele><time>2026-05-03T08:31:47.273Z</time></trkpt><trkpt lat="43.8654701" lon="6.4634153"><ele>1149.0</ele><time>2026-05-03T08:31:48.273Z</time></trkpt><trkpt lat="43.8654604" lon="6.4636234"><ele>1149.25</ele><time>2026-05-03T08:31:49.273Z</time></trkpt><trkpt lat="43.8654522" lon="6.4638257"><ele>1149.5</ele><time>2026-05-03T08:31:50.273Z</time></trkpt><trkpt lat="43.8654393" lon="6.4640296"><ele>1149.75</ele><time>2026-05-03T08:31:51.273Z</time></trkpt><trkpt lat="43.8654165" lon="6.4642242"><ele>1150.0</ele><time>2026-05-03T08:31:52.273Z</time></trkpt><trkpt lat="43.8653814" lon="6.4644174"><ele>1150.0</ele><time>2026-05-03T08:31:53.274Z</time></trkpt><trkpt lat="43.8653221" lon="6.4646087"><ele>1150.0</ele><time>2026-05-03T08:31:54.273Z</time></trkpt><trkpt lat="43.8652454" lon="6.4648034"><ele>1150.0</ele><time>2026-05-03T08:31:55.273Z</time></trkpt><trkpt lat="43.8651721" lon="6.4649899"><ele>1148.0</ele><time>2026-05-03T08:31:56.273Z</time></trkpt><trkpt lat="43.865112" lon="6.4651815"><ele>1146.0</ele><time>2026-05-03T08:31:57.274Z</time></trkpt><trkpt lat="43.8650669" lon="6.4653829"><ele>1144.0</ele><time>2026-05-03T08:31:58.273Z</time></trkpt><trkpt lat="43.8650279" lon="6.4655703"><ele>1142.0</ele><time>2026-05-03T08:31:59.274Z</time></trkpt><trkpt lat="43.8649892" lon="6.4657486"><ele>1141.75</ele><time>2026-05-03T08:32:00.273Z</time></trkpt><trkpt lat="43.8649503" lon="6.4659268"><ele>1141.5</ele><time>2026-05-03T08:32:01.273Z</time></trkpt><trkpt lat="43.8649253" lon="6.4660953"><ele>1141.25</ele><time>2026-05-03T08:32:02.273Z</time></trkpt><trkpt lat="43.8649273" lon="6.4662469"><ele>1141.0</ele><time>2026-05-03T08:32:03.273Z</time></trkpt><trkpt lat="43.8649665" lon="6.4663809"><ele>1139.5</ele><time>2026-05-03T08:32:04.274Z</time></trkpt><trkpt lat="43.865036" lon="6.4664842"><ele>1138.0</ele><time>2026-05-03T08:32:05.273Z</time></trkpt><trkpt lat="43.8651357" lon="6.4665677"><ele>1136.5</ele><time>2026-05-03T08:32:06.273Z</time></trkpt><trkpt lat="43.8652544" lon="6.4666316"><ele>1135.0</ele><time>2026-05-03T08:32:07.274Z</time></trkpt><trkpt lat="43.8653788" lon="6.4667055"><ele>1134.75</ele><time>2026-05-03T08:32:08.273Z</time></trkpt><trkpt lat="43.8655013" lon="6.4668047"><ele>1134.5</ele><time>2026-05-03T08:32:09.274Z</time></trkpt><trkpt lat="43.8656125" lon="6.4669203"><ele>1134.25</ele><time>2026-05-03T08:32:10.273Z</time></trkpt><trkpt lat="43.8657054" lon="6.4670592"><ele>1134.0</ele><time>2026-05-03T08:32:11.274Z</time></trkpt><trkpt lat="43.8657816" lon="6.4672241"><ele>1134.0</ele><time>2026-05-03T08:32:12.273Z</time></trkpt><trkpt lat="43.8658477" lon="6.4673955"><ele>1134.0</ele><time>2026-05-03T08:32:13.273Z</time></trkpt><trkpt lat="43.8659086" lon="6.4675597"><ele>1134.0</ele><time>2026-05-03T08:32:14.274Z</time></trkpt><trkpt lat="43.8659682" lon="6.4677163"><ele>1134.0</ele><time>2026-05-03T08:32:15.273Z</time></trkpt><trkpt lat="43.8660372" lon="6.4678482"><ele>1134.25</ele><time>2026-05-03T08:32:16.273Z</time></trkpt><trkpt lat="43.8661186" lon="6.4679371"><ele>1134.5</ele><time>2026-05-03T08:32:17.273Z</time></trkpt><trkpt lat="43.8662243" lon="6.4679869"><ele>1134.75</ele><time>2026-05-03T08:32:18.273Z</time></trkpt><trkpt lat="43.8663373" lon="6.4679806"><ele>1135.0</ele><time>2026-05-03T08:32:19.273Z</time></trkpt><trkpt lat="43.8664539" lon="6.4679333"><ele>1135.0</ele><time>2026-05-03T08:32:20.273Z</time></trkpt><trkpt lat="43.8665716" lon="6.467859"><ele>1135.0</ele><time>2026-05-03T08:32:21.273Z</time></trkpt><trkpt lat="43.8666924" lon="6.4677759"><ele>1135.0</ele><time>2026-05-03T08:32:22.273Z</time></trkpt><trkpt lat="43.866822" lon="6.4677023"><ele>1135.0</ele><time>2026-05-03T08:32:23.274Z</time></trkpt><trkpt lat="43.8669479" lon="6.4676437"><ele>1133.75</ele><time>2026-05-03T08:32:24.273Z</time></trkpt><trkpt lat="43.8670795" lon="6.4676148"><ele>1132.5</ele><time>2026-05-03T08:32:25.273Z</time></trkpt><trkpt lat="43.8672127" lon="6.4676078"><ele>1131.25</ele><time>2026-05-03T08:32:26.273Z</time></trkpt><trkpt lat="43.8673375" lon="6.46762"><ele>1130.0</ele><time>2026-05-03T08:32:27.274Z</time></trkpt><trkpt lat="43.8674585" lon="6.467642"><ele>1130.0</ele><time>2026-05-03T08:32:28.273Z</time></trkpt><trkpt lat="43.8675741" lon="6.4676669"><ele>1130.0</ele><time>2026-05-03T08:32:29.273Z</time></trkpt><trkpt lat="43.8676899" lon="6.4676745"><ele>1130.0</ele><time>2026-05-03T08:32:30.273Z</time></trkpt><trkpt lat="43.8678033" lon="6.4676604"><ele>1130.0</ele><time>2026-05-03T08:32:31.273Z</time></trkpt><trkpt lat="43.8679154" lon="6.4676145"><ele>1130.0</ele><time>2026-05-03T08:32:32.273Z</time></trkpt><trkpt lat="43.8680194" lon="6.4675378"><ele>1130.0</ele><time>2026-05-03T08:32:33.273Z</time></trkpt><trkpt lat="43.8681268" lon="6.4674556"><ele>1130.0</ele><time>2026-05-03T08:32:34.272Z</time></trkpt><trkpt lat="43.8682407" lon="6.4673892"><ele>1130.0</ele><time>2026-05-03T08:32:35.272Z</time></trkpt><trkpt lat="43.8683624" lon="6.4673526"><ele>1132.0</ele><time>2026-05-03T08:32:36.272Z</time></trkpt><trkpt lat="43.8684833" lon="6.4673664"><ele>1134.0</ele><time>2026-05-03T08:32:37.272Z</time></trkpt><trkpt lat="43.8685962" lon="6.4674326"><ele>1136.0</ele><time>2026-05-03T08:32:38.272Z</time></trkpt><trkpt lat="43.8686844" lon="6.4675578"><ele>1138.0</ele><time>2026-05-03T08:32:39.272Z</time></trkpt><trkpt lat="43.8687703" lon="6.4677008"><ele>1138.0</ele><time>2026-05-03T08:32:40.272Z</time></trkpt><trkpt lat="43.8688554" lon="6.4678512"><ele>1138.0</ele><time>2026-05-03T08:32:41.272Z</time></trkpt><trkpt lat="43.8689235" lon="6.4679879"><ele>1138.0</ele><time>2026-05-03T08:32:42.272Z</time></trkpt><trkpt lat="43.8689728" lon="6.4681386"><ele>1138.0</ele><time>2026-05-03T08:32:43.272Z</time></trkpt><trkpt lat="43.8689854" lon="6.4682968"><ele>1136.75</ele><time>2026-05-03T08:32:44.272Z</time></trkpt><trkpt lat="43.8689619" lon="6.4684636"><ele>1135.5</ele><time>2026-05-03T08:32:45.272Z</time></trkpt><trkpt lat="43.8689173" lon="6.4686315"><ele>1134.25</ele><time>2026-05-03T08:32:46.272Z</time></trkpt><trkpt lat="43.8688816" lon="6.4688038"><ele>1133.0</ele><time>2026-05-03T08:32:47.272Z</time></trkpt><trkpt lat="43.8688834" lon="6.4689859"><ele>1132.75</ele><time>2026-05-03T08:32:48.272Z</time></trkpt><trkpt lat="43.8689203" lon="6.4691625"><ele>1132.5</ele><time>2026-05-03T08:32:49.272Z</time></trkpt><trkpt lat="43.8689559" lon="6.4693251"><ele>1132.25</ele><time>2026-05-03T08:32:50.272Z</time></trkpt><trkpt lat="43.8689601" lon="6.4694767"><ele>1132.0</ele><time>2026-05-03T08:32:51.272Z</time></trkpt><trkpt lat="43.8689132" lon="6.4696148"><ele>1133.5</ele><time>2026-05-03T08:32:52.272Z</time></trkpt><trkpt lat="43.86884" lon="6.4697533"><ele>1135.0</ele><time>2026-05-03T08:32:53.272Z</time></trkpt><trkpt lat="43.8687733" lon="6.4699033"><ele>1136.5</ele><time>2026-05-03T08:32:54.272Z</time></trkpt><trkpt lat="43.8687217" lon="6.4700733"><ele>1138.0</ele><time>2026-05-03T08:32:55.272Z</time></trkpt><trkpt lat="43.868675" lon="6.47025"><ele>1138.0</ele><time>2026-05-03T08:32:56.273Z</time></trkpt><trkpt lat="43.8686383" lon="6.4704267"><ele>1138.0</ele><time>2026-05-03T08:32:57.273Z</time></trkpt><trkpt lat="43.8686133" lon="6.4706083"><ele>1138.0</ele><time>2026-05-03T08:32:58.272Z</time></trkpt><trkpt lat="43.8686033" lon="6.470795"><ele>1138.0</ele><time>2026-05-03T08:32:59.272Z</time></trkpt><trkpt lat="43.8686067" lon="6.4709833"><ele>1140.25</ele><time>2026-05-03T08:33:00.272Z</time></trkpt><trkpt lat="43.8686067" lon="6.471165"><ele>1142.5</ele><time>2026-05-03T08:33:01.272Z</time></trkpt><trkpt lat="43.868585" lon="6.4713117"><ele>1144.75</ele><time>2026-05-03T08:33:02.272Z</time></trkpt><trkpt lat="43.86852" lon="6.47143"><ele>1147.0</ele><time>2026-05-03T08:33:03.273Z</time></trkpt><trkpt lat="43.8684167" lon="6.471495"><ele>1139.25</ele><time>2026-05-03T08:33:04.272Z</time></trkpt><trkpt lat="43.8682983" lon="6.4715417"><ele>1131.5</ele><time>2026-05-03T08:33:05.273Z</time></trkpt><trkpt lat="43.8682017" lon="6.471605"><ele>1123.75</ele><time>2026-05-03T08:33:06.272Z</time></trkpt><trkpt lat="43.86813" lon="6.4717267"><ele>1116.0</ele><time>2026-05-03T08:33:07.272Z</time></trkpt><trkpt lat="43.8680733" lon="6.4718817"><ele>1116.0</ele><time>2026-05-03T08:33:08.272Z</time></trkpt><trkpt lat="43.8680133" lon="6.472045"><ele>1116.0</ele><time>2026-05-03T08:33:09.272Z</time></trkpt><trkpt lat="43.8679383" lon="6.4722133"><ele>1116.0</ele><time>2026-05-03T08:33:10.272Z</time></trkpt><trkpt lat="43.867855" lon="6.4723767"><ele>1116.0</ele><time>2026-05-03T08:33:11.272Z</time></trkpt><trkpt lat="43.8677717" lon="6.472525"><ele>1113.25</ele><time>2026-05-03T08:33:12.273Z</time></trkpt><trkpt lat="43.8676883" lon="6.4726867"><ele>1110.5</ele><time>2026-05-03T08:33:13.272Z</time></trkpt><trkpt lat="43.8676117" lon="6.4728317"><ele>1107.75</ele><time>2026-05-03T08:33:14.272Z</time></trkpt><trkpt lat="43.867535" lon="6.4729717"><ele>1105.0</ele><time>2026-05-03T08:33:15.272Z</time></trkpt><trkpt lat="43.8674583" lon="6.4731117"><ele>1105.0</ele><time>2026-05-03T08:33:16.272Z</time></trkpt><trkpt lat="43.8673883" lon="6.4732417"><ele>1105.0</ele><time>2026-05-03T08:33:17.272Z</time></trkpt><trkpt lat="43.8673167" lon="6.4733817"><ele>1105.0</ele><time>2026-05-03T08:33:18.272Z</time></trkpt><trkpt lat="43.8672733" lon="6.4735483"><ele>1105.0</ele><time>2026-05-03T08:33:19.272Z</time></trkpt><trkpt lat="43.86727" lon="6.47371"><ele>1106.0</ele><time>2026-05-03T08:33:20.272Z</time></trkpt><trkpt lat="43.8672817" lon="6.473875"><ele>1107.0</ele><time>2026-05-03T08:33:21.273Z</time></trkpt><trkpt lat="43.867285" lon="6.47404"><ele>1108.0</ele><time>2026-05-03T08:33:22.272Z</time></trkpt><trkpt lat="43.8672283" lon="6.4741933"><ele>1109.0</ele><time>2026-05-03T08:33:23.272Z</time></trkpt><trkpt lat="43.8671383" lon="6.4743367"><ele>1109.0</ele><time>2026-05-03T08:33:24.272Z</time></trkpt><trkpt lat="43.86705" lon="6.4744867"><ele>1109.0</ele><time>2026-05-03T08:33:25.272Z</time></trkpt><trkpt lat="43.86697" lon="6.47464"><ele>1109.0</ele><time>2026-05-03T08:33:26.272Z</time></trkpt><trkpt lat="43.866885" lon="6.4747883"><ele>1109.0</ele><time>2026-05-03T08:33:27.272Z</time></trkpt><trkpt lat="43.8667967" lon="6.4749417"><ele>1107.5</ele><time>2026-05-03T08:33:28.272Z</time></trkpt><trkpt lat="43.8667217" lon="6.4750933"><ele>1106.0</ele><time>2026-05-03T08:33:29.272Z</time></trkpt><trkpt lat="43.86667" lon="6.475265"><ele>1104.5</ele><time>2026-05-03T08:33:30.272Z</time></trkpt><trkpt lat="43.8666283" lon="6.4754467"><ele>1103.0</ele><time>2026-05-03T08:33:31.272Z</time></trkpt><trkpt lat="43.8666017" lon="6.4756417"><ele>1103.0</ele><time>2026-05-03T08:33:32.272Z</time></trkpt><trkpt lat="43.8665883" lon="6.475835"><ele>1103.0</ele><time>2026-05-03T08:33:33.272Z</time></trkpt><trkpt lat="43.86658" lon="6.4760217"><ele>1103.0</ele><time>2026-05-03T08:33:34.272Z</time></trkpt><trkpt lat="43.866565" lon="6.4762083"><ele>1103.0</ele><time>2026-05-03T08:33:35.272Z</time></trkpt><trkpt lat="43.8665417" lon="6.4763933"><ele>1104.0</ele><time>2026-05-03T08:33:36.273Z</time></trkpt><trkpt lat="43.8665017" lon="6.4765667"><ele>1105.0</ele><time>2026-05-03T08:33:37.272Z</time></trkpt><trkpt lat="43.86644" lon="6.4767433"><ele>1106.0</ele><time>2026-05-03T08:33:38.272Z</time></trkpt><trkpt lat="43.8663667" lon="6.4769033"><ele>1107.0</ele><time>2026-05-03T08:33:39.272Z</time></trkpt><trkpt lat="43.8662617" lon="6.4770483"><ele>1110.3333333333333</ele><time>2026-05-03T08:33:40.272Z</time></trkpt><trkpt lat="43.866155" lon="6.477195"><ele>1113.6666666666665</ele><time>2026-05-03T08:33:41.272Z</time></trkpt><trkpt lat="43.8660433" lon="6.4773467"><ele>1117.0</ele><time>2026-05-03T08:33:42.272Z</time></trkpt><trkpt lat="43.8659333" lon="6.4774933"><ele>1114.25</ele><time>2026-05-03T08:33:43.273Z</time></trkpt><trkpt lat="43.86582" lon="6.477625"><ele>1111.5</ele><time>2026-05-03T08:33:44.272Z</time></trkpt><trkpt lat="43.8657117" lon="6.4777417"><ele>1108.75</ele><time>2026-05-03T08:33:45.272Z</time></trkpt><trkpt lat="43.8656017" lon="6.4778517"><ele>1106.0</ele><time>2026-05-03T08:33:46.272Z</time></trkpt><trkpt lat="43.8655033" lon="6.4779633"><ele>1106.0</ele><time>2026-05-03T08:33:47.272Z</time></trkpt><trkpt lat="43.8654117" lon="6.4780817"><ele>1106.0</ele><time>2026-05-03T08:33:48.272Z</time></trkpt><trkpt lat="43.8653467" lon="6.478215"><ele>1106.0</ele><time>2026-05-03T08:33:49.272Z</time></trkpt><trkpt lat="43.8653" lon="6.47837"><ele>1106.0</ele><time>2026-05-03T08:33:50.272Z</time></trkpt><trkpt lat="43.8652817" lon="6.4785517"><ele>1106.0</ele><time>2026-05-03T08:33:51.272Z</time></trkpt><trkpt lat="43.8652767" lon="6.478745"><ele>1106.0</ele><time>2026-05-03T08:33:52.272Z</time></trkpt><trkpt lat="43.8652633" lon="6.4789417"><ele>1106.0</ele><time>2026-05-03T08:33:53.272Z</time></trkpt><trkpt lat="43.865245" lon="6.4791517"><ele>1106.0</ele><time>2026-05-03T08:33:54.272Z</time></trkpt><trkpt lat="43.8652167" lon="6.4793683"><ele>1108.3333333333335</ele><time>2026-05-03T08:33:55.272Z</time></trkpt><trkpt lat="43.865185" lon="6.47958"><ele>1110.6666666666667</ele><time>2026-05-03T08:33:56.272Z</time></trkpt><trkpt lat="43.8651583" lon="6.4797933"><ele>1113.0</ele><time>2026-05-03T08:33:57.272Z</time></trkpt><trkpt lat="43.8651167" lon="6.479995"><ele>1104.0</ele><time>2026-05-03T08:33:58.272Z</time></trkpt><trkpt lat="43.8650617" lon="6.4801983"><ele>1095.0</ele><time>2026-05-03T08:33:59.272Z</time></trkpt><trkpt lat="43.8650033" lon="6.4803983"><ele>1086.0</ele><time>2026-05-03T08:34:00.272Z</time></trkpt><trkpt lat="43.8649533" lon="6.4805983"><ele>1086.0</ele><time>2026-05-03T08:34:01.272Z</time></trkpt><trkpt lat="43.8649033" lon="6.48081"><ele>1086.0</ele><time>2026-05-03T08:34:02.272Z</time></trkpt><trkpt lat="43.8648383" lon="6.4810083"><ele>1086.0</ele><time>2026-05-03T08:34:03.272Z</time></trkpt><trkpt lat="43.8647567" lon="6.48119"><ele>1090.6666666666667</ele><time>2026-05-03T08:34:04.272Z</time></trkpt><trkpt lat="43.864665" lon="6.4813483"><ele>1095.3333333333335</ele><time>2026-05-03T08:34:05.272Z</time></trkpt><trkpt lat="43.86455" lon="6.4814933"><ele>1100.0</ele><time>2026-05-03T08:34:06.273Z</time></trkpt><trkpt lat="43.8644267" lon="6.4816233"><ele>1100.0</ele><time>2026-05-03T08:34:07.272Z</time></trkpt><trkpt lat="43.8643083" lon="6.481755"><ele>1100.0</ele><time>2026-05-03T08:34:08.272Z</time></trkpt><trkpt lat="43.8642067" lon="6.481895"><ele>1100.0</ele><time>2026-05-03T08:34:09.272Z</time></trkpt><trkpt lat="43.864125" lon="6.4820483"><ele>1100.0</ele><time>2026-05-03T08:34:10.272Z</time></trkpt><trkpt lat="43.86407" lon="6.4822167"><ele>1090.0</ele><time>2026-05-03T08:34:11.273Z</time></trkpt><trkpt lat="43.8640267" lon="6.4824167"><ele>1080.0</ele><time>2026-05-03T08:34:12.273Z</time></trkpt><trkpt lat="43.8639917" lon="6.482625"><ele>1070.0</ele><time>2026-05-03T08:34:13.273Z</time></trkpt><trkpt lat="43.8639617" lon="6.4828417"><ele>1070.5</ele><time>2026-05-03T08:34:14.272Z</time></trkpt><trkpt lat="43.8639417" lon="6.4830517"><ele>1071.0</ele><time>2026-05-03T08:34:15.272Z</time></trkpt><trkpt lat="43.8639283" lon="6.4832517"><ele>1071.5</ele><time>2026-05-03T08:34:16.272Z</time></trkpt><trkpt lat="43.86392" lon="6.483445"><ele>1072.0</ele><time>2026-05-03T08:34:17.272Z</time></trkpt><trkpt lat="43.86392" lon="6.4836417"><ele>1069.5</ele><time>2026-05-03T08:34:18.272Z</time></trkpt><trkpt lat="43.8639417" lon="6.4838333"><ele>1067.0</ele><time>2026-05-03T08:34:19.272Z</time></trkpt><trkpt lat="43.8640033" lon="6.48402"><ele>1064.5</ele><time>2026-05-03T08:34:20.272Z</time></trkpt><trkpt lat="43.8640717" lon="6.484215"><ele>1062.0</ele><time>2026-05-03T08:34:21.272Z</time></trkpt><trkpt lat="43.864115" lon="6.484405"><ele>1062.0</ele><time>2026-05-03T08:34:22.272Z</time></trkpt><trkpt lat="43.864125" lon="6.4845933"><ele>1062.0</ele><time>2026-05-03T08:34:23.272Z</time></trkpt><trkpt lat="43.8641267" lon="6.4847733"><ele>1062.0</ele><time>2026-05-03T08:34:24.272Z</time></trkpt><trkpt lat="43.8641433" lon="6.4849383"><ele>1062.0</ele><time>2026-05-03T08:34:25.272Z</time></trkpt><trkpt lat="43.86419" lon="6.4850683"><ele>1061.4</ele><time>2026-05-03T08:34:26.272Z</time></trkpt><trkpt lat="43.8642717" lon="6.4851633"><ele>1060.8000000000002</ele><time>2026-05-03T08:34:27.272Z</time></trkpt><trkpt lat="43.8643733" lon="6.485195"><ele>1060.2</ele><time>2026-05-03T08:34:28.272Z</time></trkpt><trkpt lat="43.8644817" lon="6.4851817"><ele>1059.6000000000001</ele><time>2026-05-03T08:34:29.272Z</time></trkpt><trkpt lat="43.8645983" lon="6.4851367"><ele>1059.0</ele><time>2026-05-03T08:34:30.272Z</time></trkpt><trkpt lat="43.8647117" lon="6.485085"><ele>1059.0</ele><time>2026-05-03T08:34:31.272Z</time></trkpt><trkpt lat="43.8648117" lon="6.4850333"><ele>1059.0</ele><time>2026-05-03T08:34:32.273Z</time></trkpt><trkpt lat="43.864895" lon="6.4850117"><ele>1059.0</ele><time>2026-05-03T08:34:33.272Z</time></trkpt><trkpt lat="43.8649667" lon="6.4850117"><ele>1059.0</ele><time>2026-05-03T08:34:34.272Z</time></trkpt><trkpt lat="43.8650417" lon="6.4851133"><ele>1059.0</ele><time>2026-05-03T08:34:36.272Z</time></trkpt><trkpt lat="43.864955" lon="6.4852517"><ele>1059.0</ele><time>2026-05-03T08:34:38.272Z</time></trkpt><trkpt lat="43.8648617" lon="6.4852967"><ele>1059.0</ele><time>2026-05-03T08:34:39.273Z</time></trkpt><trkpt lat="43.8647483" lon="6.4853433"><ele>1059.0</ele><time>2026-05-03T08:34:40.272Z</time></trkpt><trkpt lat="43.86463" lon="6.4854017"><ele>1059.0</ele><time>2026-05-03T08:34:41.272Z</time></trkpt><trkpt lat="43.8645117" lon="6.4854567"><ele>1056.75</ele><time>2026-05-03T08:34:42.272Z</time></trkpt><trkpt lat="43.864395" lon="6.485505"><ele>1054.5</ele><time>2026-05-03T08:34:43.272Z</time></trkpt><trkpt lat="43.8642817" lon="6.4855533"><ele>1052.25</ele><time>2026-05-03T08:34:44.272Z</time></trkpt><trkpt lat="43.8641667" lon="6.4855867"><ele>1050.0</ele><time>2026-05-03T08:34:45.273Z</time></trkpt><trkpt lat="43.8640517" lon="6.4855967"><ele>1050.0</ele><time>2026-05-03T08:34:46.272Z</time></trkpt><trkpt lat="43.8639333" lon="6.4855633"><ele>1050.0</ele><time>2026-05-03T08:34:47.272Z</time></trkpt><trkpt lat="43.863825" lon="6.4854917"><ele>1050.0</ele><time>2026-05-03T08:34:48.272Z</time></trkpt><trkpt lat="43.8637233" lon="6.4854133"><ele>1050.0</ele><time>2026-05-03T08:34:49.272Z</time></trkpt><trkpt lat="43.8636267" lon="6.485355"><ele>1050.0</ele><time>2026-05-03T08:34:50.272Z</time></trkpt><trkpt lat="43.8635383" lon="6.48534"><ele>1050.0</ele><time>2026-05-03T08:34:51.272Z</time></trkpt><trkpt lat="43.8634567" lon="6.48538"><ele>1050.0</ele><time>2026-05-03T08:34:52.273Z</time></trkpt><trkpt lat="43.8634067" lon="6.48545"><ele>1050.0</ele><time>2026-05-03T08:34:53.272Z</time></trkpt><trkpt lat="43.86338" lon="6.4855583"><ele>1050.0</ele><time>2026-05-03T08:34:54.272Z</time></trkpt><trkpt lat="43.8633983" lon="6.4856733"><ele>1050.0</ele><time>2026-05-03T08:34:55.273Z</time></trkpt><trkpt lat="43.8634667" lon="6.4857767"><ele>1050.0</ele><time>2026-05-03T08:34:56.272Z</time></trkpt><trkpt lat="43.86358" lon="6.4858533"><ele>1050.0</ele><time>2026-05-03T08:34:57.272Z</time></trkpt><trkpt lat="43.8637133" lon="6.48594"><ele>1050.0</ele><time>2026-05-03T08:34:58.272Z</time></trkpt><trkpt lat="43.8638233" lon="6.4860683"><ele>1050.0</ele><time>2026-05-03T08:34:59.273Z</time></trkpt><trkpt lat="43.8639267" lon="6.48621"><ele>1046.0</ele><time>2026-05-03T08:35:00.272Z</time></trkpt><trkpt lat="43.8640283" lon="6.486365"><ele>1042.0</ele><time>2026-05-03T08:35:01.272Z</time></trkpt><trkpt lat="43.86413" lon="6.486525"><ele>1038.0</ele><time>2026-05-03T08:35:02.272Z</time></trkpt><trkpt lat="43.8642317" lon="6.486685"><ele>1037.0</ele><time>2026-05-03T08:35:03.272Z</time></trkpt><trkpt lat="43.86434" lon="6.48682"><ele>1036.0</ele><time>2026-05-03T08:35:04.272Z</time></trkpt><trkpt lat="43.8644617" lon="6.4869317"><ele>1035.0</ele><time>2026-05-03T08:35:05.272Z</time></trkpt><trkpt lat="43.8645967" lon="6.4870117"><ele>1034.0</ele><time>2026-05-03T08:35:06.272Z</time></trkpt><trkpt lat="43.864735" lon="6.48704"><ele>1034.0</ele><time>2026-05-03T08:35:07.272Z</time></trkpt><trkpt lat="43.8648817" lon="6.4870467"><ele>1034.0</ele><time>2026-05-03T08:35:08.273Z</time></trkpt><trkpt lat="43.86502" lon="6.4870233"><ele>1034.0</ele><time>2026-05-03T08:35:09.273Z</time></trkpt><trkpt lat="43.86515" lon="6.4869667"><ele>1034.0</ele><time>2026-05-03T08:35:10.272Z</time></trkpt><trkpt lat="43.8652517" lon="6.4868633"><ele>1031.25</ele><time>2026-05-03T08:35:11.272Z</time></trkpt><trkpt lat="43.8653333" lon="6.4867317"><ele>1028.5</ele><time>2026-05-03T08:35:12.272Z</time></trkpt><trkpt lat="43.8653933" lon="6.48659"><ele>1025.75</ele><time>2026-05-03T08:35:13.272Z</time></trkpt><trkpt lat="43.8654733" lon="6.4864667"><ele>1023.0</ele><time>2026-05-03T08:35:14.272Z</time></trkpt><trkpt lat="43.865575" lon="6.4863933"><ele>1023.0</ele><time>2026-05-03T08:35:15.272Z</time></trkpt><trkpt lat="43.86569" lon="6.486375"><ele>1023.0</ele><time>2026-05-03T08:35:16.272Z</time></trkpt><trkpt lat="43.865815" lon="6.4863983"><ele>1023.0</ele><time>2026-05-03T08:35:17.272Z</time></trkpt><trkpt lat="43.86595" lon="6.4864483"><ele>1023.0</ele><time>2026-05-03T08:35:18.272Z</time></trkpt><trkpt lat="43.8660883" lon="6.4865017"><ele>1021.0</ele><time>2026-05-03T08:35:19.272Z</time></trkpt><trkpt lat="43.8662267" lon="6.4865517"><ele>1019.0</ele><time>2026-05-03T08:35:20.272Z</time></trkpt><trkpt lat="43.8663567" lon="6.4865717"><ele>1017.0</ele><time>2026-05-03T08:35:21.272Z</time></trkpt><trkpt lat="43.8664867" lon="6.4865717"><ele>1015.0</ele><time>2026-05-03T08:35:22.272Z</time></trkpt><trkpt lat="43.8666117" lon="6.4865333"><ele>1015.0</ele><time>2026-05-03T08:35:23.272Z</time></trkpt><trkpt lat="43.86673" lon="6.4864617"><ele>1015.0</ele><time>2026-05-03T08:35:24.272Z</time></trkpt><trkpt lat="43.8668433" lon="6.4863817"><ele>1015.0</ele><time>2026-05-03T08:35:25.272Z</time></trkpt><trkpt lat="43.86695" lon="6.486305"><ele>1015.0</ele><time>2026-05-03T08:35:26.272Z</time></trkpt><trkpt lat="43.86705" lon="6.4862283"><ele>1015.2</ele><time>2026-05-03T08:35:27.272Z</time></trkpt><trkpt lat="43.8671467" lon="6.4861617"><ele>1015.4</ele><time>2026-05-03T08:35:28.272Z</time></trkpt><trkpt lat="43.86725" lon="6.4861217"><ele>1015.5999999999999</ele><time>2026-05-03T08:35:29.272Z</time></trkpt><trkpt lat="43.8673433" lon="6.4861233"><ele>1015.8</ele><time>2026-05-03T08:35:30.272Z</time></trkpt><trkpt lat="43.867425" lon="6.4861733"><ele>1016.0</ele><time>2026-05-03T08:35:31.272Z</time></trkpt><trkpt lat="43.8674867" lon="6.4862867"><ele>1013.5999999999999</ele><time>2026-05-03T08:35:32.272Z</time></trkpt><trkpt lat="43.867515" lon="6.4864333"><ele>1011.1999999999999</ele><time>2026-05-03T08:35:33.272Z</time></trkpt><trkpt lat="43.8674883" lon="6.4865583"><ele>1008.8000000000001</ele><time>2026-05-03T08:35:34.272Z</time></trkpt><trkpt lat="43.86743" lon="6.4866767"><ele>1006.4000000000001</ele><time>2026-05-03T08:35:35.272Z</time></trkpt><trkpt lat="43.86733" lon="6.4867933"><ele>1004.0</ele><time>2026-05-03T08:35:36.273Z</time></trkpt><trkpt lat="43.8672067" lon="6.4869167"><ele>1004.0</ele><time>2026-05-03T08:35:37.272Z</time></trkpt><trkpt lat="43.8670883" lon="6.4870383"><ele>1004.0</ele><time>2026-05-03T08:35:38.272Z</time></trkpt><trkpt lat="43.8669733" lon="6.4871567"><ele>1004.0</ele><time>2026-05-03T08:35:39.272Z</time></trkpt><trkpt lat="43.866855" lon="6.48726"><ele>1004.0</ele><time>2026-05-03T08:35:40.272Z</time></trkpt><trkpt lat="43.8667283" lon="6.4873367"><ele>1002.0</ele><time>2026-05-03T08:35:41.272Z</time></trkpt><trkpt lat="43.8666" lon="6.4873633"><ele>1000.0</ele><time>2026-05-03T08:35:42.272Z</time></trkpt><trkpt lat="43.8664733" lon="6.4873717"><ele>998.0</ele><time>2026-05-03T08:35:43.272Z</time></trkpt><trkpt lat="43.86635" lon="6.4874017"><ele>996.0</ele><time>2026-05-03T08:35:44.272Z</time></trkpt><trkpt lat="43.8662467" lon="6.4874767"><ele>996.0</ele><time>2026-05-03T08:35:45.272Z</time></trkpt><trkpt lat="43.8661667" lon="6.4875983"><ele>996.0</ele><time>2026-05-03T08:35:46.272Z</time></trkpt><trkpt lat="43.8661167" lon="6.48774"><ele>996.0</ele><time>2026-05-03T08:35:47.272Z</time></trkpt><trkpt lat="43.8660867" lon="6.48791"><ele>996.0</ele><time>2026-05-03T08:35:48.272Z</time></trkpt><trkpt lat="43.866035" lon="6.488095"><ele>996.25</ele><time>2026-05-03T08:35:49.272Z</time></trkpt><trkpt lat="43.86597" lon="6.488265"><ele>996.5</ele><time>2026-05-03T08:35:50.273Z</time></trkpt><trkpt lat="43.8659" lon="6.488425"><ele>996.75</ele><time>2026-05-03T08:35:51.272Z</time></trkpt><trkpt lat="43.8658317" lon="6.4885767"><ele>997.0</ele><time>2026-05-03T08:35:52.272Z</time></trkpt><trkpt lat="43.8657483" lon="6.4887233"><ele>993.75</ele><time>2026-05-03T08:35:53.273Z</time></trkpt><trkpt lat="43.8656567" lon="6.4888533"><ele>990.5</ele><time>2026-05-03T08:35:54.272Z</time></trkpt><trkpt lat="43.865555" lon="6.4889633"><ele>987.25</ele><time>2026-05-03T08:35:55.272Z</time></trkpt><trkpt lat="43.8654383" lon="6.48906"><ele>984.0</ele><time>2026-05-03T08:35:56.272Z</time></trkpt><trkpt lat="43.8653183" lon="6.4891183"><ele>984.0</ele><time>2026-05-03T08:35:57.272Z</time></trkpt><trkpt lat="43.865195" lon="6.489155"><ele>984.0</ele><time>2026-05-03T08:35:58.272Z</time></trkpt><trkpt lat="43.8650717" lon="6.4891983"><ele>984.0</ele><time>2026-05-03T08:35:59.272Z</time></trkpt><trkpt lat="43.8649567" lon="6.48926"><ele>984.0</ele><time>2026-05-03T08:36:00.272Z</time></trkpt><trkpt lat="43.8648483" lon="6.48934"><ele>985.0</ele><time>2026-05-03T08:36:01.272Z</time></trkpt><trkpt lat="43.864735" lon="6.4894383"><ele>986.0</ele><time>2026-05-03T08:36:02.273Z</time></trkpt><trkpt lat="43.8646233" lon="6.489535"><ele>987.0</ele><time>2026-05-03T08:36:03.272Z</time></trkpt><trkpt lat="43.8644967" lon="6.4896133"><ele>988.0</ele><time>2026-05-03T08:36:04.272Z</time></trkpt><trkpt lat="43.8643617" lon="6.489665"><ele>980.6666666666666</ele><time>2026-05-03T08:36:05.272Z</time></trkpt><trkpt lat="43.8642167" lon="6.4896983"><ele>973.3333333333333</ele><time>2026-05-03T08:36:06.273Z</time></trkpt><trkpt lat="43.864065" lon="6.4897333"><ele>966.0</ele><time>2026-05-03T08:36:07.272Z</time></trkpt><trkpt lat="43.8639133" lon="6.4897817"><ele>966.0</ele><time>2026-05-03T08:36:08.272Z</time></trkpt><trkpt lat="43.8637633" lon="6.489835"><ele>966.0</ele><time>2026-05-03T08:36:09.272Z</time></trkpt><trkpt lat="43.8636183" lon="6.4898883"><ele>966.0</ele><time>2026-05-03T08:36:10.272Z</time></trkpt><trkpt lat="43.8634833" lon="6.4899417"><ele>966.0</ele><time>2026-05-03T08:36:11.272Z</time></trkpt><trkpt lat="43.86334" lon="6.4899917"><ele>967.25</ele><time>2026-05-03T08:36:12.272Z</time></trkpt><trkpt lat="43.8631917" lon="6.4900083"><ele>968.5</ele><time>2026-05-03T08:36:13.272Z</time></trkpt><trkpt lat="43.8630517" lon="6.48997"><ele>969.75</ele><time>2026-05-03T08:36:14.272Z</time></trkpt><trkpt lat="43.8629233" lon="6.4899083"><ele>971.0</ele><time>2026-05-03T08:36:15.272Z</time></trkpt><trkpt lat="43.862785" lon="6.48986"><ele>971.0</ele><time>2026-05-03T08:36:16.272Z</time></trkpt><trkpt lat="43.86264" lon="6.4898217"><ele>971.0</ele><time>2026-05-03T08:36:17.272Z</time></trkpt><trkpt lat="43.862495" lon="6.4897917"><ele>971.0</ele><time>2026-05-03T08:36:18.272Z</time></trkpt><trkpt lat="43.8623533" lon="6.4897667"><ele>971.0</ele><time>2026-05-03T08:36:19.273Z</time></trkpt><trkpt lat="43.8622267" lon="6.4897483"><ele>970.5999999999999</ele><time>2026-05-03T08:36:20.272Z</time></trkpt><trkpt lat="43.8621083" lon="6.4897567"><ele>970.1999999999999</ele><time>2026-05-03T08:36:21.272Z</time></trkpt><trkpt lat="43.8619917" lon="6.4897517"><ele>969.8000000000001</ele><time>2026-05-03T08:36:22.272Z</time></trkpt><trkpt lat="43.8618867" lon="6.4896933"><ele>969.4000000000001</ele><time>2026-05-03T08:36:23.272Z</time></trkpt><trkpt lat="43.86182" lon="6.489615"><ele>969.0</ele><time>2026-05-03T08:36:24.272Z</time></trkpt><trkpt lat="43.8617633" lon="6.4895017"><ele>968.1666666666666</ele><time>2026-05-03T08:36:25.272Z</time></trkpt><trkpt lat="43.8616967" lon="6.4894067"><ele>967.3333333333333</ele><time>2026-05-03T08:36:26.272Z</time></trkpt><trkpt lat="43.861625" lon="6.489355"><ele>966.5</ele><time>2026-05-03T08:36:27.272Z</time></trkpt><trkpt lat="43.8615583" lon="6.4893617"><ele>965.6666666666666</ele><time>2026-05-03T08:36:28.272Z</time></trkpt><trkpt lat="43.8615117" lon="6.4894333"><ele>964.8333333333333</ele><time>2026-05-03T08:36:29.272Z</time></trkpt><trkpt lat="43.8615083" lon="6.48955"><ele>964.0</ele><time>2026-05-03T08:36:30.273Z</time></trkpt><trkpt lat="43.861555" lon="6.4896883"><ele>965.25</ele><time>2026-05-03T08:36:31.272Z</time></trkpt><trkpt lat="43.8616367" lon="6.4898383"><ele>966.5</ele><time>2026-05-03T08:36:32.272Z</time></trkpt><trkpt lat="43.8617433" lon="6.489985"><ele>967.75</ele><time>2026-05-03T08:36:33.272Z</time></trkpt><trkpt lat="43.8618667" lon="6.490125"><ele>969.0</ele><time>2026-05-03T08:36:34.272Z</time></trkpt><trkpt lat="43.86198" lon="6.49025"><ele>969.0</ele><time>2026-05-03T08:36:35.272Z</time></trkpt><trkpt lat="43.862085" lon="6.49038"><ele>969.0</ele><time>2026-05-03T08:36:36.273Z</time></trkpt><trkpt lat="43.86219" lon="6.4905117"><ele>969.0</ele><time>2026-05-03T08:36:37.272Z</time></trkpt><trkpt lat="43.8622867" lon="6.4906267"><ele>969.0</ele><time>2026-05-03T08:36:38.272Z</time></trkpt><trkpt lat="43.8623983" lon="6.4907333"><ele>964.75</ele><time>2026-05-03T08:36:39.272Z</time></trkpt><trkpt lat="43.8625183" lon="6.4908067"><ele>960.5</ele><time>2026-05-03T08:36:40.273Z</time></trkpt><trkpt lat="43.8626417" lon="6.490855"><ele>956.25</ele><time>2026-05-03T08:36:41.272Z</time></trkpt><trkpt lat="43.862765" lon="6.4909017"><ele>952.0</ele><time>2026-05-03T08:36:42.272Z</time></trkpt><trkpt lat="43.8628883" lon="6.4909483"><ele>950.75</ele><time>2026-05-03T08:36:43.272Z</time></trkpt><trkpt lat="43.8629983" lon="6.4909717"><ele>949.5</ele><time>2026-05-03T08:36:44.272Z</time></trkpt><trkpt lat="43.8631133" lon="6.49096"><ele>948.25</ele><time>2026-05-03T08:36:45.272Z</time></trkpt><trkpt lat="43.86324" lon="6.4909167"><ele>947.0</ele><time>2026-05-03T08:36:46.272Z</time></trkpt><trkpt lat="43.86337" lon="6.4908433"><ele>942.6666666666667</ele><time>2026-05-03T08:36:47.272Z</time></trkpt><trkpt lat="43.86351" lon="6.4907667"><ele>938.3333333333333</ele><time>2026-05-03T08:36:48.273Z</time></trkpt><trkpt lat="43.8636533" lon="6.4907"><ele>934.0</ele><time>2026-05-03T08:36:49.272Z</time></trkpt><trkpt lat="43.8638" lon="6.490645"><ele>934.0</ele><time>2026-05-03T08:36:50.272Z</time></trkpt><trkpt lat="43.863945" lon="6.4906083"><ele>934.0</ele><time>2026-05-03T08:36:51.272Z</time></trkpt><trkpt lat="43.8640933" lon="6.490585"><ele>934.0</ele><time>2026-05-03T08:36:52.272Z</time></trkpt><trkpt lat="43.864245" lon="6.4905717"><ele>934.0</ele><time>2026-05-03T08:36:53.272Z</time></trkpt><trkpt lat="43.8643917" lon="6.4905683"><ele>933.0</ele><time>2026-05-03T08:36:54.272Z</time></trkpt><trkpt lat="43.86454" lon="6.4905733"><ele>932.0</ele><time>2026-05-03T08:36:55.272Z</time></trkpt><trkpt lat="43.8646867" lon="6.490565"><ele>931.0</ele><time>2026-05-03T08:36:56.272Z</time></trkpt><trkpt lat="43.864835" lon="6.4905717"><ele>930.0</ele><time>2026-05-03T08:36:57.272Z</time></trkpt><trkpt lat="43.864985" lon="6.4905833"><ele>931.75</ele><time>2026-05-03T08:36:58.272Z</time></trkpt><trkpt lat="43.8651317" lon="6.4906083"><ele>933.5</ele><time>2026-05-03T08:36:59.272Z</time></trkpt><trkpt lat="43.865275" lon="6.490645"><ele>935.25</ele><time>2026-05-03T08:37:00.273Z</time></trkpt><trkpt lat="43.865415" lon="6.4906983"><ele>937.0</ele><time>2026-05-03T08:37:01.272Z</time></trkpt><trkpt lat="43.86555" lon="6.4907683"><ele>937.0</ele><time>2026-05-03T08:37:02.273Z</time></trkpt><trkpt lat="43.8656817" lon="6.490855"><ele>937.0</ele><time>2026-05-03T08:37:03.272Z</time></trkpt><trkpt lat="43.865815" lon="6.4909433"><ele>937.0</ele><time>2026-05-03T08:37:04.273Z</time></trkpt><trkpt lat="43.8659567" lon="6.4910117"><ele>937.0</ele><time>2026-05-03T08:37:05.272Z</time></trkpt><trkpt lat="43.8661" lon="6.4910733"><ele>935.2</ele><time>2026-05-03T08:37:06.273Z</time></trkpt><trkpt lat="43.86623" lon="6.491115"><ele>933.4000000000001</ele><time>2026-05-03T08:37:07.272Z</time></trkpt><trkpt lat="43.8663467" lon="6.4911467"><ele>931.5999999999999</ele><time>2026-05-03T08:37:08.272Z</time></trkpt><trkpt lat="43.8664467" lon="6.4911683"><ele>929.8</ele><time>2026-05-03T08:37:09.272Z</time></trkpt><trkpt lat="43.8665267" lon="6.491205"><ele>928.0</ele><time>2026-05-03T08:37:10.272Z</time></trkpt><trkpt lat="43.86658" lon="6.4912667"><ele>922.5999999999999</ele><time>2026-05-03T08:37:11.272Z</time></trkpt><trkpt lat="43.8666067" lon="6.4913533"><ele>917.1999999999999</ele><time>2026-05-03T08:37:12.272Z</time></trkpt><trkpt lat="43.8665417" lon="6.4915083"><ele>911.8</ele><time>2026-05-03T08:37:14.272Z</time></trkpt><trkpt lat="43.8664433" lon="6.4915383"><ele>906.4</ele><time>2026-05-03T08:37:15.273Z</time></trkpt><trkpt lat="43.8663267" lon="6.4915"><ele>901.0</ele><time>2026-05-03T08:37:16.272Z</time></trkpt><trkpt lat="43.8661867" lon="6.4914183"><ele>901.0</ele><time>2026-05-03T08:37:17.272Z</time></trkpt><trkpt lat="43.866035" lon="6.4913167"><ele>901.0</ele><time>2026-05-03T08:37:18.272Z</time></trkpt><trkpt lat="43.86588" lon="6.4912333"><ele>901.0</ele><time>2026-05-03T08:37:19.272Z</time></trkpt><trkpt lat="43.8657233" lon="6.4911767"><ele>913.0</ele><time>2026-05-03T08:37:20.272Z</time></trkpt><trkpt lat="43.8655783" lon="6.4911317"><ele>925.0</ele><time>2026-05-03T08:37:21.272Z</time></trkpt><trkpt lat="43.8654267" lon="6.4910817"><ele>937.0</ele><time>2026-05-03T08:37:22.272Z</time></trkpt><trkpt lat="43.8652683" lon="6.4910517"><ele>937.0</ele><time>2026-05-03T08:37:23.273Z</time></trkpt><trkpt lat="43.865115" lon="6.4910417"><ele>937.0</ele><time>2026-05-03T08:37:24.272Z</time></trkpt><trkpt lat="43.8649633" lon="6.4910667"><ele>937.0</ele><time>2026-05-03T08:37:25.272Z</time></trkpt><trkpt lat="43.8648083" lon="6.491115"><ele>934.6666666666666</ele><time>2026-05-03T08:37:26.272Z</time></trkpt><trkpt lat="43.8646517" lon="6.491165"><ele>932.3333333333333</ele><time>2026-05-03T08:37:27.272Z</time></trkpt><trkpt lat="43.8644967" lon="6.49121"><ele>930.0</ele><time>2026-05-03T08:37:28.273Z</time></trkpt><trkpt lat="43.8643433" lon="6.49126"><ele>918.6666666666667</ele><time>2026-05-03T08:37:29.272Z</time></trkpt><trkpt lat="43.8641867" lon="6.4913267"><ele>907.3333333333334</ele><time>2026-05-03T08:37:30.272Z</time></trkpt><trkpt lat="43.8640383" lon="6.4914117"><ele>896.0</ele><time>2026-05-03T08:37:31.272Z</time></trkpt><trkpt lat="43.8639" lon="6.4915117"><ele>896.0</ele><time>2026-05-03T08:37:32.272Z</time></trkpt><trkpt lat="43.8637667" lon="6.4916367"><ele>896.0</ele><time>2026-05-03T08:37:33.272Z</time></trkpt><trkpt lat="43.8636333" lon="6.49176"><ele>896.0</ele><time>2026-05-03T08:37:34.273Z</time></trkpt><trkpt lat="43.863495" lon="6.4918817"><ele>890.3333333333334</ele><time>2026-05-03T08:37:35.272Z</time></trkpt><trkpt lat="43.8633583" lon="6.4919883"><ele>884.6666666666667</ele><time>2026-05-03T08:37:36.272Z</time></trkpt><trkpt lat="43.8632117" lon="6.492085"><ele>879.0</ele><time>2026-05-03T08:37:37.272Z</time></trkpt><trkpt lat="43.8630667" lon="6.49217"><ele>879.0</ele><time>2026-05-03T08:37:38.272Z</time></trkpt><trkpt lat="43.8629283" lon="6.4922517"><ele>879.0</ele><time>2026-05-03T08:37:39.272Z</time></trkpt><trkpt lat="43.8627817" lon="6.4923067"><ele>879.0</ele><time>2026-05-03T08:37:40.272Z</time></trkpt><trkpt lat="43.862635" lon="6.4923583"><ele>884.0</ele><time>2026-05-03T08:37:41.272Z</time></trkpt><trkpt lat="43.8624883" lon="6.4924233"><ele>889.0</ele><time>2026-05-03T08:37:42.273Z</time></trkpt><trkpt lat="43.8623483" lon="6.4925"><ele>894.0</ele><time>2026-05-03T08:37:43.272Z</time></trkpt><trkpt lat="43.862205" lon="6.4925833"><ele>894.0</ele><time>2026-05-03T08:37:44.272Z</time></trkpt><trkpt lat="43.86206" lon="6.4926517"><ele>894.0</ele><time>2026-05-03T08:37:45.272Z</time></trkpt><trkpt lat="43.861915" lon="6.4927117"><ele>894.0</ele><time>2026-05-03T08:37:46.272Z</time></trkpt><trkpt lat="43.8617817" lon="6.492755"><ele>894.0</ele><time>2026-05-03T08:37:47.272Z</time></trkpt><trkpt lat="43.86165" lon="6.4927783"><ele>897.0</ele><time>2026-05-03T08:37:48.272Z</time></trkpt><trkpt lat="43.86151" lon="6.4927467"><ele>900.0</ele><time>2026-05-03T08:37:49.272Z</time></trkpt><trkpt lat="43.8613567" lon="6.4927033"><ele>903.0</ele><time>2026-05-03T08:37:50.273Z</time></trkpt><trkpt lat="43.8612067" lon="6.4926767"><ele>903.0</ele><time>2026-05-03T08:37:51.272Z</time></trkpt><trkpt lat="43.8610517" lon="6.4926667"><ele>903.0</ele><time>2026-05-03T08:37:52.272Z</time></trkpt><trkpt lat="43.8608883" lon="6.4926383"><ele>903.0</ele><time>2026-05-03T08:37:53.272Z</time></trkpt><trkpt lat="43.8607267" lon="6.4926033"><ele>900.0</ele><time>2026-05-03T08:37:54.272Z</time></trkpt><trkpt lat="43.8605717" lon="6.4925817"><ele>897.0</ele><time>2026-05-03T08:37:55.272Z</time></trkpt><trkpt lat="43.8604267" lon="6.4925783"><ele>894.0</ele><time>2026-05-03T08:37:56.272Z</time></trkpt><trkpt lat="43.8602883" lon="6.4925933"><ele>891.0</ele><time>2026-05-03T08:37:57.272Z</time></trkpt><trkpt lat="43.8601617" lon="6.49265"><ele>887.4</ele><time>2026-05-03T08:37:58.272Z</time></trkpt><trkpt lat="43.8600417" lon="6.4927033"><ele>883.8</ele><time>2026-05-03T08:37:59.272Z</time></trkpt><trkpt lat="43.8599317" lon="6.4927533"><ele>880.1999999999999</ele><time>2026-05-03T08:38:00.272Z</time></trkpt><trkpt lat="43.8598367" lon="6.4927883"><ele>876.5999999999999</ele><time>2026-05-03T08:38:01.272Z</time></trkpt><trkpt lat="43.8597533" lon="6.4927817"><ele>873.0</ele><time>2026-05-03T08:38:02.272Z</time></trkpt><trkpt lat="43.8596967" lon="6.4927317"><ele>873.0</ele><time>2026-05-03T08:38:03.272Z</time></trkpt><trkpt lat="43.8596767" lon="6.49263"><ele>873.0</ele><time>2026-05-03T08:38:04.272Z</time></trkpt><trkpt lat="43.85969" lon="6.4925067"><ele>873.0</ele><time>2026-05-03T08:38:05.272Z</time></trkpt><trkpt lat="43.859725" lon="6.49237"><ele>873.0</ele><time>2026-05-03T08:38:06.272Z</time></trkpt><trkpt lat="43.8597983" lon="6.4922167"><ele>873.0</ele><time>2026-05-03T08:38:07.272Z</time></trkpt><trkpt lat="43.8598883" lon="6.4920317"><ele>869.75</ele><time>2026-05-03T08:38:08.272Z</time></trkpt><trkpt lat="43.8599783" lon="6.4918567"><ele>866.5</ele><time>2026-05-03T08:38:09.273Z</time></trkpt><trkpt lat="43.8600717" lon="6.4917067"><ele>863.25</ele><time>2026-05-03T08:38:10.272Z</time></trkpt><trkpt lat="43.86019" lon="6.4915917"><ele>860.0</ele><time>2026-05-03T08:38:11.272Z</time></trkpt><trkpt lat="43.8603067" lon="6.4914933"><ele>870.25</ele><time>2026-05-03T08:38:12.272Z</time></trkpt><trkpt lat="43.8603867" lon="6.491365"><ele>880.5</ele><time>2026-05-03T08:38:13.272Z</time></trkpt><trkpt lat="43.8604333" lon="6.4912217"><ele>890.75</ele><time>2026-05-03T08:38:14.273Z</time></trkpt><trkpt lat="43.8604383" lon="6.491045"><ele>901.0</ele><time>2026-05-03T08:38:15.272Z</time></trkpt><trkpt lat="43.8604117" lon="6.4908867"><ele>901.5</ele><time>2026-05-03T08:38:16.272Z</time></trkpt><trkpt lat="43.860345" lon="6.490735"><ele>902.0</ele><time>2026-05-03T08:38:17.272Z</time></trkpt><trkpt lat="43.8602633" lon="6.4906"><ele>902.5</ele><time>2026-05-03T08:38:18.272Z</time></trkpt><trkpt lat="43.8602033" lon="6.4904367"><ele>903.0</ele><time>2026-05-03T08:38:19.272Z</time></trkpt><trkpt lat="43.8601767" lon="6.4902683"><ele>904.0</ele><time>2026-05-03T08:38:20.272Z</time></trkpt><trkpt lat="43.86019" lon="6.4900783"><ele>905.0</ele><time>2026-05-03T08:38:21.272Z</time></trkpt><trkpt lat="43.8601867" lon="6.4898783"><ele>906.0</ele><time>2026-05-03T08:38:22.272Z</time></trkpt><trkpt lat="43.8601783" lon="6.4896883"><ele>907.0</ele><time>2026-05-03T08:38:23.272Z</time></trkpt><trkpt lat="43.8601617" lon="6.489515"><ele>908.6666666666666</ele><time>2026-05-03T08:38:24.273Z</time></trkpt><trkpt lat="43.860135" lon="6.4893733"><ele>910.3333333333333</ele><time>2026-05-03T08:38:25.272Z</time></trkpt><trkpt lat="43.860085" lon="6.4892683"><ele>912.0</ele><time>2026-05-03T08:38:26.272Z</time></trkpt><trkpt lat="43.860015" lon="6.489195"><ele>913.6666666666667</ele><time>2026-05-03T08:38:27.272Z</time></trkpt><trkpt lat="43.8599433" lon="6.4891767"><ele>915.3333333333334</ele><time>2026-05-03T08:38:28.272Z</time></trkpt><trkpt lat="43.8598667" lon="6.4892117"><ele>917.0</ele><time>2026-05-03T08:38:29.273Z</time></trkpt><trkpt lat="43.85981" lon="6.4893033"><ele>902.5</ele><time>2026-05-03T08:38:30.272Z</time></trkpt><trkpt lat="43.8597967" lon="6.48943"><ele>888.0</ele><time>2026-05-03T08:38:31.272Z</time></trkpt><trkpt lat="43.85983" lon="6.4895733"><ele>873.5</ele><time>2026-05-03T08:38:32.272Z</time></trkpt><trkpt lat="43.8599017" lon="6.4897417"><ele>859.0</ele><time>2026-05-03T08:38:33.272Z</time></trkpt><trkpt lat="43.8599567" lon="6.48993"><ele>858.5</ele><time>2026-05-03T08:38:34.272Z</time></trkpt><trkpt lat="43.8599833" lon="6.4901283"><ele>858.0</ele><time>2026-05-03T08:38:35.272Z</time></trkpt><trkpt lat="43.8599683" lon="6.4903283"><ele>857.5</ele><time>2026-05-03T08:38:36.272Z</time></trkpt><trkpt lat="43.8599517" lon="6.490505"><ele>857.0</ele><time>2026-05-03T08:38:37.273Z</time></trkpt><trkpt lat="43.8599617" lon="6.4906767"><ele>857.75</ele><time>2026-05-03T08:38:38.272Z</time></trkpt><trkpt lat="43.8600017" lon="6.4908267"><ele>858.5</ele><time>2026-05-03T08:38:39.272Z</time></trkpt><trkpt lat="43.8600267" lon="6.490985"><ele>859.25</ele><time>2026-05-03T08:38:40.272Z</time></trkpt><trkpt lat="43.8600167" lon="6.4911333"><ele>860.0</ele><time>2026-05-03T08:38:41.272Z</time></trkpt><trkpt lat="43.859965" lon="6.4912817"><ele>860.0</ele><time>2026-05-03T08:38:42.273Z</time></trkpt><trkpt lat="43.8598733" lon="6.4913983"><ele>860.0</ele><time>2026-05-03T08:38:43.273Z</time></trkpt><trkpt lat="43.85975" lon="6.4915183"><ele>860.0</ele><time>2026-05-03T08:38:44.272Z</time></trkpt><trkpt lat="43.859625" lon="6.4916383"><ele>860.0</ele><time>2026-05-03T08:38:45.272Z</time></trkpt><trkpt lat="43.8595067" lon="6.4917533"><ele>860.0</ele><time>2026-05-03T08:38:46.272Z</time></trkpt><trkpt lat="43.8593933" lon="6.491865"><ele>860.0</ele><time>2026-05-03T08:38:47.272Z</time></trkpt><trkpt lat="43.8592833" lon="6.4919867"><ele>860.0</ele><time>2026-05-03T08:38:48.272Z</time></trkpt><trkpt lat="43.859185" lon="6.4921233"><ele>860.0</ele><time>2026-05-03T08:38:49.272Z</time></trkpt><trkpt lat="43.8591017" lon="6.4922783"><ele>856.0</ele><time>2026-05-03T08:38:50.272Z</time></trkpt><trkpt lat="43.8590383" lon="6.4924633"><ele>852.0</ele><time>2026-05-03T08:38:51.272Z</time></trkpt><trkpt lat="43.8589783" lon="6.4926483"><ele>848.0</ele><time>2026-05-03T08:38:52.272Z</time></trkpt><trkpt lat="43.8589017" lon="6.4928167"><ele>844.0</ele><time>2026-05-03T08:38:53.272Z</time></trkpt><trkpt lat="43.8588183" lon="6.4929717"><ele>844.0</ele><time>2026-05-03T08:38:54.272Z</time></trkpt><trkpt lat="43.8587233" lon="6.4931183"><ele>844.0</ele><time>2026-05-03T08:38:55.272Z</time></trkpt><trkpt lat="43.85863" lon="6.4932583"><ele>844.0</ele><time>2026-05-03T08:38:56.272Z</time></trkpt><trkpt lat="43.8585567" lon="6.4934067"><ele>844.0</ele><time>2026-05-03T08:38:57.272Z</time></trkpt><trkpt lat="43.8584883" lon="6.493535"><ele>840.0</ele><time>2026-05-03T08:38:58.272Z</time></trkpt><trkpt lat="43.85845" lon="6.493665"><ele>836.0</ele><time>2026-05-03T08:38:59.272Z</time></trkpt><trkpt lat="43.85844" lon="6.4938067"><ele>832.0</ele><time>2026-05-03T08:39:00.272Z</time></trkpt><trkpt lat="43.8584733" lon="6.4939417"><ele>828.0</ele><time>2026-05-03T08:39:01.272Z</time></trkpt><trkpt lat="43.85855" lon="6.4940567"><ele>824.0</ele><time>2026-05-03T08:39:02.273Z</time></trkpt><trkpt lat="43.8586633" lon="6.49414"><ele>824.0</ele><time>2026-05-03T08:39:03.272Z</time></trkpt><trkpt lat="43.8588017" lon="6.4942"><ele>824.0</ele><time>2026-05-03T08:39:04.272Z</time></trkpt><trkpt lat="43.8589417" lon="6.494255"><ele>824.0</ele><time>2026-05-03T08:39:05.272Z</time></trkpt><trkpt lat="43.8590833" lon="6.4942867"><ele>824.0</ele><time>2026-05-03T08:39:06.272Z</time></trkpt><trkpt lat="43.8592267" lon="6.49431"><ele>825.75</ele><time>2026-05-03T08:39:07.272Z</time></trkpt><trkpt lat="43.8593683" lon="6.4943533"><ele>827.5</ele><time>2026-05-03T08:39:08.272Z</time></trkpt><trkpt lat="43.8595133" lon="6.4944133"><ele>829.25</ele><time>2026-05-03T08:39:09.272Z</time></trkpt><trkpt lat="43.85965" lon="6.49449"><ele>831.0</ele><time>2026-05-03T08:39:10.272Z</time></trkpt><trkpt lat="43.85979" lon="6.4945417"><ele>831.0</ele><time>2026-05-03T08:39:11.272Z</time></trkpt><trkpt lat="43.85993" lon="6.49455"><ele>831.0</ele><time>2026-05-03T08:39:12.272Z</time></trkpt><trkpt lat="43.8600733" lon="6.494535"><ele>831.0</ele><time>2026-05-03T08:39:13.272Z</time></trkpt><trkpt lat="43.8602117" lon="6.494525"><ele>831.0</ele><time>2026-05-03T08:39:14.272Z</time></trkpt><trkpt lat="43.8603417" lon="6.4945267"><ele>830.75</ele><time>2026-05-03T08:39:15.272Z</time></trkpt><trkpt lat="43.8604667" lon="6.49456"><ele>830.5</ele><time>2026-05-03T08:39:16.272Z</time></trkpt><trkpt lat="43.8605933" lon="6.4945917"><ele>830.25</ele><time>2026-05-03T08:39:17.272Z</time></trkpt><trkpt lat="43.86071" lon="6.4946317"><ele>830.0</ele><time>2026-05-03T08:39:18.273Z</time></trkpt><trkpt lat="43.86081" lon="6.4946767"><ele>824.6</ele><time>2026-05-03T08:39:19.272Z</time></trkpt><trkpt lat="43.86092" lon="6.4947383"><ele>819.2</ele><time>2026-05-03T08:39:20.273Z</time></trkpt><trkpt lat="43.860995" lon="6.4948317"><ele>813.8</ele><time>2026-05-03T08:39:21.272Z</time></trkpt><trkpt lat="43.86104" lon="6.4949633"><ele>808.4</ele><time>2026-05-03T08:39:22.272Z</time></trkpt><trkpt lat="43.861035" lon="6.4951167"><ele>803.0</ele><time>2026-05-03T08:39:23.273Z</time></trkpt><trkpt lat="43.8610017" lon="6.4952633"><ele>803.0</ele><time>2026-05-03T08:39:24.273Z</time></trkpt><trkpt lat="43.8609333" lon="6.495385"><ele>803.0</ele><time>2026-05-03T08:39:25.272Z</time></trkpt><trkpt lat="43.86082" lon="6.49548"><ele>803.0</ele><time>2026-05-03T08:39:26.272Z</time></trkpt><trkpt lat="43.8606917" lon="6.4955033"><ele>803.0</ele><time>2026-05-03T08:39:27.272Z</time></trkpt><trkpt lat="43.86055" lon="6.4954633"><ele>803.0</ele><time>2026-05-03T08:39:28.272Z</time></trkpt><trkpt lat="43.8604117" lon="6.4953583"><ele>803.0</ele><time>2026-05-03T08:39:29.272Z</time></trkpt><trkpt lat="43.8603067" lon="6.4952233"><ele>803.0</ele><time>2026-05-03T08:39:30.272Z</time></trkpt><trkpt lat="43.860185" lon="6.4951167"><ele>803.0</ele><time>2026-05-03T08:39:31.272Z</time></trkpt><trkpt lat="43.8600583" lon="6.495065"><ele>802.0</ele><time>2026-05-03T08:39:32.272Z</time></trkpt><trkpt lat="43.8599117" lon="6.4950333"><ele>801.0</ele><time>2026-05-03T08:39:33.272Z</time></trkpt><trkpt lat="43.8597683" lon="6.4950167"><ele>800.0</ele><time>2026-05-03T08:39:34.272Z</time></trkpt><trkpt lat="43.85962" lon="6.4949983"><ele>799.0</ele><time>2026-05-03T08:39:35.272Z</time></trkpt><trkpt lat="43.8594617" lon="6.4949767"><ele>799.0</ele><time>2026-05-03T08:39:36.272Z</time></trkpt><trkpt lat="43.8593067" lon="6.4949567"><ele>799.0</ele><time>2026-05-03T08:39:37.273Z</time></trkpt><trkpt lat="43.8591433" lon="6.4949433"><ele>799.0</ele><time>2026-05-03T08:39:38.273Z</time></trkpt><trkpt lat="43.85898" lon="6.4949517"><ele>796.3333333333333</ele><time>2026-05-03T08:39:39.272Z</time></trkpt><trkpt lat="43.8588183" lon="6.4949483"><ele>793.6666666666667</ele><time>2026-05-03T08:39:40.272Z</time></trkpt><trkpt lat="43.8586683" lon="6.49496"><ele>791.0</ele><time>2026-05-03T08:39:41.272Z</time></trkpt><trkpt lat="43.8585067" lon="6.4949883"><ele>789.3333333333334</ele><time>2026-05-03T08:39:42.272Z</time></trkpt><trkpt lat="43.8583467" lon="6.49503"><ele>787.6666666666667</ele><time>2026-05-03T08:39:43.272Z</time></trkpt><trkpt lat="43.8581983" lon="6.49507"><ele>786.0</ele><time>2026-05-03T08:39:44.272Z</time></trkpt><trkpt lat="43.8580433" lon="6.49511"><ele>786.0</ele><time>2026-05-03T08:39:45.272Z</time></trkpt><trkpt lat="43.8578933" lon="6.495115"><ele>786.0</ele><time>2026-05-03T08:39:46.272Z</time></trkpt><trkpt lat="43.8577467" lon="6.4951033"><ele>786.0</ele><time>2026-05-03T08:39:47.272Z</time></trkpt><trkpt lat="43.857615" lon="6.4951083"><ele>786.0</ele><time>2026-05-03T08:39:48.272Z</time></trkpt><trkpt lat="43.8574983" lon="6.4951483"><ele>785.5</ele><time>2026-05-03T08:39:49.272Z</time></trkpt><trkpt lat="43.8573867" lon="6.4952383"><ele>785.0</ele><time>2026-05-03T08:39:50.272Z</time></trkpt><trkpt lat="43.8572833" lon="6.49536"><ele>784.5</ele><time>2026-05-03T08:39:51.272Z</time></trkpt><trkpt lat="43.85719" lon="6.4954783"><ele>784.0</ele><time>2026-05-03T08:39:52.272Z</time></trkpt><trkpt lat="43.8570883" lon="6.49557"><ele>780.0</ele><time>2026-05-03T08:39:53.272Z</time></trkpt><trkpt lat="43.856975" lon="6.4956133"><ele>776.0</ele><time>2026-05-03T08:39:54.272Z</time></trkpt><trkpt lat="43.8568567" lon="6.49563"><ele>772.0</ele><time>2026-05-03T08:39:55.272Z</time></trkpt><trkpt lat="43.856715" lon="6.4956017"><ele>768.0</ele><time>2026-05-03T08:39:56.273Z</time></trkpt><trkpt lat="43.8565767" lon="6.4955833"><ele>768.0</ele><time>2026-05-03T08:39:57.272Z</time></trkpt><trkpt lat="43.8564383" lon="6.4955733"><ele>768.0</ele><time>2026-05-03T08:39:58.272Z</time></trkpt><trkpt lat="43.8563117" lon="6.49556"><ele>768.0</ele><time>2026-05-03T08:39:59.272Z</time></trkpt><trkpt lat="43.8561967" lon="6.4955833"><ele>768.0</ele><time>2026-05-03T08:40:00.272Z</time></trkpt><trkpt lat="43.8560933" lon="6.495645"><ele>768.0</ele><time>2026-05-03T08:40:01.272Z</time></trkpt><trkpt lat="43.856005" lon="6.495745"><ele>768.0</ele><time>2026-05-03T08:40:02.272Z</time></trkpt><trkpt lat="43.855925" lon="6.4958717"><ele>768.0</ele><time>2026-05-03T08:40:03.273Z</time></trkpt><trkpt lat="43.8558867" lon="6.4960317"><ele>768.0</ele><time>2026-05-03T08:40:04.272Z</time></trkpt><trkpt lat="43.85586" lon="6.4962167"><ele>766.0</ele><time>2026-05-03T08:40:05.272Z</time></trkpt><trkpt lat="43.8558617" lon="6.4964133"><ele>764.0</ele><time>2026-05-03T08:40:06.273Z</time></trkpt><trkpt lat="43.85587" lon="6.49662"><ele>762.0</ele><time>2026-05-03T08:40:07.272Z</time></trkpt><trkpt lat="43.8558717" lon="6.4968233"><ele>760.0</ele><time>2026-05-03T08:40:08.272Z</time></trkpt><trkpt lat="43.8558583" lon="6.497035"><ele>759.75</ele><time>2026-05-03T08:40:09.272Z</time></trkpt><trkpt lat="43.8558467" lon="6.49724"><ele>759.5</ele><time>2026-05-03T08:40:10.272Z</time></trkpt><trkpt lat="43.8558383" lon="6.4974417"><ele>759.25</ele><time>2026-05-03T08:40:11.272Z</time></trkpt><trkpt lat="43.8558317" lon="6.4976367"><ele>759.0</ele><time>2026-05-03T08:40:12.272Z</time></trkpt><trkpt lat="43.8558217" lon="6.4978317"><ele>758.3333333333334</ele><time>2026-05-03T08:40:13.272Z</time></trkpt><trkpt lat="43.8558117" lon="6.498035"><ele>757.6666666666667</ele><time>2026-05-03T08:40:14.273Z</time></trkpt><trkpt lat="43.8558" lon="6.498245"><ele>757.0</ele><time>2026-05-03T08:40:15.272Z</time></trkpt><trkpt lat="43.8557933" lon="6.498455"><ele>757.0</ele><time>2026-05-03T08:40:16.272Z</time></trkpt><trkpt lat="43.8557867" lon="6.4986717"><ele>757.0</ele><time>2026-05-03T08:40:17.272Z</time></trkpt><trkpt lat="43.8557783" lon="6.4988883"><ele>757.0</ele><time>2026-05-03T08:40:18.272Z</time></trkpt><trkpt lat="43.8557667" lon="6.4991017"><ele>756.6666666666667</ele><time>2026-05-03T08:40:19.272Z</time></trkpt><trkpt lat="43.8557617" lon="6.499315"><ele>756.3333333333334</ele><time>2026-05-03T08:40:20.273Z</time></trkpt><trkpt lat="43.8557517" lon="6.4995333"><ele>756.0</ele><time>2026-05-03T08:40:21.272Z</time></trkpt><trkpt lat="43.8557433" lon="6.4997467"><ele>755.5</ele><time>2026-05-03T08:40:22.272Z</time></trkpt><trkpt lat="43.8557317" lon="6.4999433"><ele>755.0</ele><time>2026-05-03T08:40:23.272Z</time></trkpt><trkpt lat="43.8557017" lon="6.5001283"><ele>754.5</ele><time>2026-05-03T08:40:24.273Z</time></trkpt><trkpt lat="43.855655" lon="6.50029"><ele>754.0</ele><time>2026-05-03T08:40:25.272Z</time></trkpt><trkpt lat="43.85558" lon="6.50045"><ele>753.0</ele><time>2026-05-03T08:40:26.272Z</time></trkpt><trkpt lat="43.855485" lon="6.5005983"><ele>752.0</ele><time>2026-05-03T08:40:27.273Z</time></trkpt><trkpt lat="43.85538" lon="6.5007433"><ele>751.0</ele><time>2026-05-03T08:40:28.272Z</time></trkpt><trkpt lat="43.855265" lon="6.5008983"><ele>751.0</ele><time>2026-05-03T08:40:29.272Z</time></trkpt><trkpt lat="43.8551483" lon="6.501055"><ele>751.0</ele><time>2026-05-03T08:40:30.272Z</time></trkpt><trkpt lat="43.855035" lon="6.5012167"><ele>751.0</ele><time>2026-05-03T08:40:31.272Z</time></trkpt><trkpt lat="43.854915" lon="6.50138"><ele>750.0</ele><time>2026-05-03T08:40:32.272Z</time></trkpt><trkpt lat="43.8547933" lon="6.5015317"><ele>749.0</ele><time>2026-05-03T08:40:33.272Z</time></trkpt><trkpt lat="43.85467" lon="6.501685"><ele>748.0</ele><time>2026-05-03T08:40:34.272Z</time></trkpt><trkpt lat="43.85456" lon="6.501845"><ele>748.0</ele><time>2026-05-03T08:40:35.272Z</time></trkpt><trkpt lat="43.8544417" lon="6.5020117"><ele>748.0</ele><time>2026-05-03T08:40:36.273Z</time></trkpt><trkpt lat="43.854325" lon="6.5021817"><ele>748.0</ele><time>2026-05-03T08:40:37.272Z</time></trkpt><trkpt lat="43.8542183" lon="6.5023567"><ele>747.0</ele><time>2026-05-03T08:40:38.272Z</time></trkpt><trkpt lat="43.85413" lon="6.5025417"><ele>746.0</ele><time>2026-05-03T08:40:39.272Z</time></trkpt><trkpt lat="43.85405" lon="6.502735"><ele>745.0</ele><time>2026-05-03T08:40:40.272Z</time></trkpt><trkpt lat="43.85397" lon="6.5029167"><ele>744.0</ele><time>2026-05-03T08:40:41.272Z</time></trkpt><trkpt lat="43.8538967" lon="6.503105"><ele>743.0</ele><time>2026-05-03T08:40:42.272Z</time></trkpt><trkpt lat="43.8538217" lon="6.503285"><ele>742.0</ele><time>2026-05-03T08:40:43.272Z</time></trkpt><trkpt lat="43.853745" lon="6.5034717"><ele>742.0</ele><time>2026-05-03T08:40:44.272Z</time></trkpt><trkpt lat="43.8536633" lon="6.5036467"><ele>742.0</ele><time>2026-05-03T08:40:45.272Z</time></trkpt><trkpt lat="43.8535833" lon="6.503825"><ele>742.0</ele><time>2026-05-03T08:40:46.272Z</time></trkpt><trkpt lat="43.8535017" lon="6.5040017"><ele>742.6666666666667</ele><time>2026-05-03T08:40:47.272Z</time></trkpt><trkpt lat="43.853415" lon="6.504185"><ele>743.3333333333334</ele><time>2026-05-03T08:40:48.272Z</time></trkpt><trkpt lat="43.8533283" lon="6.5043667"><ele>744.0</ele><time>2026-05-03T08:40:49.272Z</time></trkpt><trkpt lat="43.8532567" lon="6.5045483"><ele>743.0</ele><time>2026-05-03T08:40:50.272Z</time></trkpt><trkpt lat="43.8531717" lon="6.5047267"><ele>742.0</ele><time>2026-05-03T08:40:51.273Z</time></trkpt><trkpt lat="43.8530833" lon="6.5049183"><ele>741.0</ele><time>2026-05-03T08:40:52.272Z</time></trkpt><trkpt lat="43.8530033" lon="6.50509"><ele>741.0</ele><time>2026-05-03T08:40:53.272Z</time></trkpt><trkpt lat="43.8529267" lon="6.5052567"><ele>741.0</ele><time>2026-05-03T08:40:54.272Z</time></trkpt><trkpt lat="43.852855" lon="6.5054267"><ele>741.0</ele><time>2026-05-03T08:40:55.272Z</time></trkpt><trkpt lat="43.8527867" lon="6.5055983"><ele>741.0</ele><time>2026-05-03T08:40:56.273Z</time></trkpt><trkpt lat="43.8527217" lon="6.5057717"><ele>741.0</ele><time>2026-05-03T08:40:57.273Z</time></trkpt><trkpt lat="43.8526467" lon="6.5059417"><ele>741.0</ele><time>2026-05-03T08:40:58.272Z</time></trkpt><trkpt lat="43.8525717" lon="6.5061117"><ele>741.0</ele><time>2026-05-03T08:40:59.272Z</time></trkpt><trkpt lat="43.8525017" lon="6.5062733"><ele>741.0</ele><time>2026-05-03T08:41:00.272Z</time></trkpt><trkpt lat="43.852425" lon="6.50643"><ele>741.8</ele><time>2026-05-03T08:41:01.272Z</time></trkpt><trkpt lat="43.8523583" lon="6.5065733"><ele>742.5999999999999</ele><time>2026-05-03T08:41:02.272Z</time></trkpt><trkpt lat="43.8522967" lon="6.5067067"><ele>743.4</ele><time>2026-05-03T08:41:03.272Z</time></trkpt><trkpt lat="43.8522317" lon="6.506825"><ele>744.2</ele><time>2026-05-03T08:41:04.272Z</time></trkpt><trkpt lat="43.8521783" lon="6.50694"><ele>745.0</ele><time>2026-05-03T08:41:05.272Z</time></trkpt><trkpt lat="43.8521417" lon="6.5070317"><ele>745.0</ele><time>2026-05-03T08:41:06.272Z</time></trkpt><trkpt lat="43.8521217" lon="6.5071633"><ele>745.0</ele><time>2026-05-03T08:41:08.273Z</time></trkpt><trkpt lat="43.8521717" lon="6.5072383"><ele>745.0</ele><time>2026-05-03T08:41:11.272Z</time></trkpt><trkpt lat="43.8521683" lon="6.507365"><ele>745.0</ele><time>2026-05-03T08:41:14.272Z</time></trkpt><trkpt lat="43.8520883" lon="6.507475"><ele>745.0</ele><time>2026-05-03T08:41:16.272Z</time></trkpt><trkpt lat="43.852" lon="6.5075667"><ele>745.0</ele><time>2026-05-03T08:41:18.272Z</time></trkpt><trkpt lat="43.8519267" lon="6.50766"><ele>745.0</ele><time>2026-05-03T08:41:20.272Z</time></trkpt><trkpt lat="43.851885" lon="6.507755"><ele>745.0</ele><time>2026-05-03T08:41:22.272Z</time></trkpt><trkpt lat="43.8519217" lon="6.5078333"><ele>745.0</ele><time>2026-05-03T08:41:25.272Z</time></trkpt><trkpt lat="43.85198" lon="6.5078983"><ele>745.0</ele><time>2026-05-03T08:45:21.272Z</time></trkpt><trkpt lat="43.8520017" lon="6.5079967"><ele>745.0</ele><time>2026-05-03T08:45:25.272Z</time></trkpt><trkpt lat="43.852055" lon="6.5080783"><ele>745.3333333333334</ele><time>2026-05-03T08:46:35.272Z</time></trkpt><trkpt lat="43.852105" lon="6.5081567"><ele>745.6666666666667</ele><time>2026-05-03T08:46:45.272Z</time></trkpt><trkpt lat="43.8520283" lon="6.5082283"><ele>746.0</ele><time>2026-05-03T08:46:49.272Z</time></trkpt><trkpt lat="43.851965" lon="6.508215"><ele>746.3333333333334</ele><time>2026-05-03T08:46:50.272Z</time></trkpt><trkpt lat="43.8519" lon="6.5081783"><ele>746.6666666666666</ele><time>2026-05-03T08:46:51.272Z</time></trkpt><trkpt lat="43.8518367" lon="6.5081267"><ele>747.0</ele><time>2026-05-03T08:46:52.272Z</time></trkpt><trkpt lat="43.8517483" lon="6.5080183"><ele>747.0</ele><time>2026-05-03T08:46:54.272Z</time></trkpt><trkpt lat="43.851685" lon="6.5078633"><ele>747.0</ele><time>2026-05-03T08:46:56.272Z</time></trkpt><trkpt lat="43.8516467" lon="6.5077917"><ele>747.0</ele><time>2026-05-03T08:46:57.272Z</time></trkpt><trkpt lat="43.8515417" lon="6.5077217"><ele>747.0</ele><time>2026-05-03T08:46:59.272Z</time></trkpt><trkpt lat="43.85148" lon="6.5077417"><ele>747.0</ele><time>2026-05-03T08:47:00.272Z</time></trkpt><trkpt lat="43.85143" lon="6.507805"><ele>747.0</ele><time>2026-05-03T08:47:01.272Z</time></trkpt><trkpt lat="43.8513983" lon="6.507885"><ele>747.0</ele><time>2026-05-03T08:47:02.272Z</time></trkpt><trkpt lat="43.85144" lon="6.5080617"><ele>747.0</ele><time>2026-05-03T08:47:04.272Z</time></trkpt><trkpt lat="43.85151" lon="6.5081183"><ele>747.0</ele><time>2026-05-03T08:47:05.272Z</time></trkpt><trkpt lat="43.8515767" lon="6.5081467"><ele>747.0</ele><time>2026-05-03T08:47:06.272Z</time></trkpt><trkpt lat="43.8516617" lon="6.5081767"><ele>747.0</ele><time>2026-05-03T08:47:07.272Z</time></trkpt><trkpt lat="43.8517633" lon="6.508205"><ele>747.0</ele><time>2026-05-03T08:47:08.272Z</time></trkpt><trkpt lat="43.8518683" lon="6.508255"><ele>747.0</ele><time>2026-05-03T08:47:09.272Z</time></trkpt><trkpt lat="43.8519633" lon="6.5083183"><ele>747.0</ele><time>2026-05-03T08:47:10.272Z</time></trkpt><trkpt lat="43.8520567" lon="6.5083783"><ele>747.0</ele><time>2026-05-03T08:47:11.272Z</time></trkpt><trkpt lat="43.8521567" lon="6.5084333"><ele>747.0</ele><time>2026-05-03T08:47:12.272Z</time></trkpt><trkpt lat="43.85226" lon="6.5084767"><ele>747.0</ele><time>2026-05-03T08:47:13.272Z</time></trkpt><trkpt lat="43.8523633" lon="6.5085167"><ele>747.0</ele><time>2026-05-03T08:47:14.272Z</time></trkpt><trkpt lat="43.8524717" lon="6.50855"><ele>747.0</ele><time>2026-05-03T08:47:15.272Z</time></trkpt><trkpt lat="43.8525883" lon="6.5085767"><ele>747.0</ele><time>2026-05-03T08:47:16.272Z</time></trkpt><trkpt lat="43.8526983" lon="6.5086017"><ele>747.0</ele><time>2026-05-03T08:47:17.272Z</time></trkpt><trkpt lat="43.85281" lon="6.5086217"><ele>748.0</ele><time>2026-05-03T08:47:18.272Z</time></trkpt><trkpt lat="43.8529267" lon="6.5086367"><ele>749.0</ele><time>2026-05-03T08:47:19.272Z</time></trkpt><trkpt lat="43.8530467" lon="6.5086333"><ele>750.0</ele><time>2026-05-03T08:47:20.272Z</time></trkpt><trkpt lat="43.853165" lon="6.5086267"><ele>751.0</ele><time>2026-05-03T08:47:21.272Z</time></trkpt><trkpt lat="43.8532867" lon="6.5086117"><ele>751.0</ele><time>2026-05-03T08:47:22.272Z</time></trkpt><trkpt lat="43.8534117" lon="6.5085833"><ele>751.0</ele><time>2026-05-03T08:47:23.272Z</time></trkpt><trkpt lat="43.8535433" lon="6.5085367"><ele>751.0</ele><time>2026-05-03T08:47:24.273Z</time></trkpt><trkpt lat="43.853675" lon="6.5084783"><ele>751.0</ele><time>2026-05-03T08:47:25.272Z</time></trkpt><trkpt lat="43.8538083" lon="6.50841"><ele>753.5</ele><time>2026-05-03T08:47:26.272Z</time></trkpt><trkpt lat="43.8539433" lon="6.5083367"><ele>756.0</ele><time>2026-05-03T08:47:27.272Z</time></trkpt><trkpt lat="43.8540733" lon="6.508275"><ele>758.5</ele><time>2026-05-03T08:47:28.273Z</time></trkpt><trkpt lat="43.85421" lon="6.5082183"><ele>761.0</ele><time>2026-05-03T08:47:29.273Z</time></trkpt><trkpt lat="43.854345" lon="6.5081683"><ele>762.0</ele><time>2026-05-03T08:47:30.272Z</time></trkpt><trkpt lat="43.8544817" lon="6.5081083"><ele>763.0</ele><time>2026-05-03T08:47:31.272Z</time></trkpt><trkpt lat="43.8546133" lon="6.5080617"><ele>764.0</ele><time>2026-05-03T08:47:32.272Z</time></trkpt><trkpt lat="43.85474" lon="6.5080367"><ele>765.0</ele><time>2026-05-03T08:47:33.272Z</time></trkpt><trkpt lat="43.8548617" lon="6.508045"><ele>765.0</ele><time>2026-05-03T08:47:34.272Z</time></trkpt><trkpt lat="43.8549933" lon="6.5080967"><ele>765.0</ele><time>2026-05-03T08:47:35.272Z</time></trkpt><trkpt lat="43.85512" lon="6.508175"><ele>765.0</ele><time>2026-05-03T08:47:36.272Z</time></trkpt><trkpt lat="43.85525" lon="6.508265"><ele>765.0</ele><time>2026-05-03T08:47:37.272Z</time></trkpt><trkpt lat="43.8553783" lon="6.5083633"><ele>763.6666666666666</ele><time>2026-05-03T08:47:38.273Z</time></trkpt><trkpt lat="43.85551" lon="6.50846"><ele>762.3333333333333</ele><time>2026-05-03T08:47:39.272Z</time></trkpt><trkpt lat="43.855655" lon="6.50856"><ele>761.0</ele><time>2026-05-03T08:47:40.272Z</time></trkpt><trkpt lat="43.8558" lon="6.5086583"><ele>762.25</ele><time>2026-05-03T08:47:41.272Z</time></trkpt><trkpt lat="43.8559283" lon="6.5087633"><ele>763.5</ele><time>2026-05-03T08:47:42.272Z</time></trkpt><trkpt lat="43.8560483" lon="6.5088833"><ele>764.75</ele><time>2026-05-03T08:47:43.272Z</time></trkpt><trkpt lat="43.8561533" lon="6.50903"><ele>766.0</ele><time>2026-05-03T08:47:44.272Z</time></trkpt><trkpt lat="43.8562267" lon="6.5092"><ele>766.0</ele><time>2026-05-03T08:47:45.272Z</time></trkpt><trkpt lat="43.85628" lon="6.5093783"><ele>766.0</ele><time>2026-05-03T08:47:46.272Z</time></trkpt><trkpt lat="43.8563467" lon="6.5095467"><ele>766.0</ele><time>2026-05-03T08:47:47.273Z</time></trkpt><trkpt lat="43.8564417" lon="6.5096733"><ele>766.0</ele><time>2026-05-03T08:47:48.272Z</time></trkpt><trkpt lat="43.8565667" lon="6.509755"><ele>767.5</ele><time>2026-05-03T08:47:49.272Z</time></trkpt><trkpt lat="43.8567033" lon="6.5097583"><ele>769.0</ele><time>2026-05-03T08:47:50.272Z</time></trkpt><trkpt lat="43.8568417" lon="6.5096917"><ele>770.5</ele><time>2026-05-03T08:47:51.272Z</time></trkpt><trkpt lat="43.8569633" lon="6.509615"><ele>772.0</ele><time>2026-05-03T08:47:52.272Z</time></trkpt><trkpt lat="43.8570917" lon="6.509525"><ele>772.0</ele><time>2026-05-03T08:47:53.272Z</time></trkpt><trkpt lat="43.8572367" lon="6.5094617"><ele>772.0</ele><time>2026-05-03T08:47:54.273Z</time></trkpt><trkpt lat="43.8573867" lon="6.5094483"><ele>772.0</ele><time>2026-05-03T08:47:55.272Z</time></trkpt><trkpt lat="43.8575417" lon="6.5094683"><ele>772.0</ele><time>2026-05-03T08:47:56.272Z</time></trkpt><trkpt lat="43.8576783" lon="6.5095067"><ele>772.0</ele><time>2026-05-03T08:47:57.272Z</time></trkpt><trkpt lat="43.8578167" lon="6.509565"><ele>772.0</ele><time>2026-05-03T08:47:58.272Z</time></trkpt><trkpt lat="43.8579333" lon="6.5096617"><ele>772.0</ele><time>2026-05-03T08:47:59.272Z</time></trkpt><trkpt lat="43.8580183" lon="6.5098067"><ele>774.5</ele><time>2026-05-03T08:48:00.272Z</time></trkpt><trkpt lat="43.8580567" lon="6.5099717"><ele>777.0</ele><time>2026-05-03T08:48:01.273Z</time></trkpt><trkpt lat="43.8580483" lon="6.51015"><ele>779.5</ele><time>2026-05-03T08:48:02.272Z</time></trkpt><trkpt lat="43.8580233" lon="6.5103333"><ele>782.0</ele><time>2026-05-03T08:48:03.272Z</time></trkpt><trkpt lat="43.8580017" lon="6.510515"><ele>784.0</ele><time>2026-05-03T08:48:04.272Z</time></trkpt><trkpt lat="43.8580183" lon="6.5106967"><ele>786.0</ele><time>2026-05-03T08:48:05.272Z</time></trkpt><trkpt lat="43.8580917" lon="6.5108483"><ele>788.0</ele><time>2026-05-03T08:48:06.272Z</time></trkpt><trkpt lat="43.858185" lon="6.510975"><ele>790.0</ele><time>2026-05-03T08:48:07.272Z</time></trkpt><trkpt lat="43.8583233" lon="6.51103"><ele>789.25</ele><time>2026-05-03T08:48:08.272Z</time></trkpt><trkpt lat="43.8584683" lon="6.5110283"><ele>788.5</ele><time>2026-05-03T08:48:09.272Z</time></trkpt><trkpt lat="43.858615" lon="6.5110167"><ele>787.75</ele><time>2026-05-03T08:48:10.272Z</time></trkpt><trkpt lat="43.8587583" lon="6.510995"><ele>787.0</ele><time>2026-05-03T08:48:11.272Z</time></trkpt><trkpt lat="43.8588933" lon="6.5109883"><ele>787.0</ele><time>2026-05-03T08:48:12.272Z</time></trkpt><trkpt lat="43.8590233" lon="6.51096"><ele>787.0</ele><time>2026-05-03T08:48:13.272Z</time></trkpt><trkpt lat="43.8591517" lon="6.5109617"><ele>787.0</ele><time>2026-05-03T08:48:14.272Z</time></trkpt><trkpt lat="43.8592733" lon="6.5109983"><ele>787.0</ele><time>2026-05-03T08:48:15.272Z</time></trkpt><trkpt lat="43.8593967" lon="6.5110633"><ele>786.5</ele><time>2026-05-03T08:48:16.272Z</time></trkpt><trkpt lat="43.8595067" lon="6.5111667"><ele>786.0</ele><time>2026-05-03T08:48:17.272Z</time></trkpt><trkpt lat="43.8596183" lon="6.5113083"><ele>785.5</ele><time>2026-05-03T08:48:18.272Z</time></trkpt><trkpt lat="43.85973" lon="6.5114533"><ele>785.0</ele><time>2026-05-03T08:48:19.272Z</time></trkpt><trkpt lat="43.8598483" lon="6.5116"><ele>789.0</ele><time>2026-05-03T08:48:20.272Z</time></trkpt><trkpt lat="43.859965" lon="6.51175"><ele>793.0</ele><time>2026-05-03T08:48:21.272Z</time></trkpt><trkpt lat="43.8600767" lon="6.5119"><ele>797.0</ele><time>2026-05-03T08:48:22.272Z</time></trkpt><trkpt lat="43.86018" lon="6.512075"><ele>800.0</ele><time>2026-05-03T08:48:23.272Z</time></trkpt><trkpt lat="43.8602733" lon="6.512255"><ele>803.0</ele><time>2026-05-03T08:48:24.273Z</time></trkpt><trkpt lat="43.8603617" lon="6.5124233"><ele>806.0</ele><time>2026-05-03T08:48:25.272Z</time></trkpt><trkpt lat="43.8604717" lon="6.5125733"><ele>806.0</ele><time>2026-05-03T08:48:26.272Z</time></trkpt><trkpt lat="43.8606017" lon="6.5126917"><ele>806.0</ele><time>2026-05-03T08:48:27.272Z</time></trkpt><trkpt lat="43.8607367" lon="6.51274"><ele>806.0</ele><time>2026-05-03T08:48:28.272Z</time></trkpt><trkpt lat="43.8608767" lon="6.5127333"><ele>806.0</ele><time>2026-05-03T08:48:29.272Z</time></trkpt><trkpt lat="43.861005" lon="6.51267"><ele>808.0</ele><time>2026-05-03T08:48:30.272Z</time></trkpt><trkpt lat="43.8611483" lon="6.5125817"><ele>810.0</ele><time>2026-05-03T08:48:31.272Z</time></trkpt><trkpt lat="43.8612917" lon="6.512485"><ele>812.0</ele><time>2026-05-03T08:48:32.273Z</time></trkpt><trkpt lat="43.8614383" lon="6.5124183"><ele>812.0</ele><time>2026-05-03T08:48:33.272Z</time></trkpt><trkpt lat="43.8615833" lon="6.5123867"><ele>812.0</ele><time>2026-05-03T08:48:34.272Z</time></trkpt><trkpt lat="43.8617283" lon="6.5123717"><ele>812.0</ele><time>2026-05-03T08:48:35.272Z</time></trkpt><trkpt lat="43.86188" lon="6.5123683"><ele>812.0</ele><time>2026-05-03T08:48:36.272Z</time></trkpt><trkpt lat="43.8620467" lon="6.5123883"><ele>815.3333333333334</ele><time>2026-05-03T08:48:37.272Z</time></trkpt><trkpt lat="43.8622117" lon="6.5123833"><ele>818.6666666666667</ele><time>2026-05-03T08:48:38.272Z</time></trkpt><trkpt lat="43.8623883" lon="6.5123717"><ele>822.0</ele><time>2026-05-03T08:48:39.272Z</time></trkpt><trkpt lat="43.8625467" lon="6.5123117"><ele>823.6666666666667</ele><time>2026-05-03T08:48:40.272Z</time></trkpt><trkpt lat="43.8626933" lon="6.5122167"><ele>825.3333333333334</ele><time>2026-05-03T08:48:41.272Z</time></trkpt><trkpt lat="43.8628333" lon="6.5120883"><ele>827.0</ele><time>2026-05-03T08:48:42.273Z</time></trkpt><trkpt lat="43.862975" lon="6.5119433"><ele>827.0</ele><time>2026-05-03T08:48:43.272Z</time></trkpt><trkpt lat="43.8631167" lon="6.511815"><ele>827.0</ele><time>2026-05-03T08:48:44.272Z</time></trkpt><trkpt lat="43.8632517" lon="6.511675"><ele>827.0</ele><time>2026-05-03T08:48:45.272Z</time></trkpt><trkpt lat="43.8633917" lon="6.511535"><ele>827.3333333333334</ele><time>2026-05-03T08:48:46.272Z</time></trkpt><trkpt lat="43.863535" lon="6.511385"><ele>827.6666666666667</ele><time>2026-05-03T08:48:47.272Z</time></trkpt><trkpt lat="43.8636783" lon="6.5112283"><ele>828.0</ele><time>2026-05-03T08:48:48.272Z</time></trkpt><trkpt lat="43.8638167" lon="6.5110667"><ele>828.0</ele><time>2026-05-03T08:48:49.272Z</time></trkpt><trkpt lat="43.863955" lon="6.5108933"><ele>828.0</ele><time>2026-05-03T08:48:50.272Z</time></trkpt><trkpt lat="43.8640917" lon="6.5107267"><ele>828.0</ele><time>2026-05-03T08:48:51.272Z</time></trkpt><trkpt lat="43.8642267" lon="6.5105733"><ele>828.6666666666667</ele><time>2026-05-03T08:48:52.272Z</time></trkpt><trkpt lat="43.8643533" lon="6.51044"><ele>829.3333333333334</ele><time>2026-05-03T08:48:53.272Z</time></trkpt><trkpt lat="43.8644867" lon="6.510355"><ele>830.0</ele><time>2026-05-03T08:48:54.272Z</time></trkpt><trkpt lat="43.86462" lon="6.510275"><ele>830.0</ele><time>2026-05-03T08:48:55.272Z</time></trkpt><trkpt lat="43.8647567" lon="6.5101833"><ele>830.0</ele><time>2026-05-03T08:48:56.272Z</time></trkpt><trkpt lat="43.864875" lon="6.5100767"><ele>830.0</ele><time>2026-05-03T08:48:57.272Z</time></trkpt><trkpt lat="43.8649833" lon="6.5099417"><ele>830.0</ele><time>2026-05-03T08:48:58.273Z</time></trkpt><trkpt lat="43.8650667" lon="6.50977"><ele>832.0</ele><time>2026-05-03T08:48:59.272Z</time></trkpt><trkpt lat="43.86515" lon="6.5095833"><ele>834.0</ele><time>2026-05-03T08:49:00.272Z</time></trkpt><trkpt lat="43.8652367" lon="6.50939"><ele>836.0</ele><time>2026-05-03T08:49:01.272Z</time></trkpt><trkpt lat="43.8653417" lon="6.5091967"><ele>836.0</ele><time>2026-05-03T08:49:02.272Z</time></trkpt><trkpt lat="43.8654617" lon="6.50902"><ele>836.0</ele><time>2026-05-03T08:49:03.272Z</time></trkpt><trkpt lat="43.8655967" lon="6.50888"><ele>836.0</ele><time>2026-05-03T08:49:04.272Z</time></trkpt><trkpt lat="43.8657533" lon="6.5087633"><ele>837.3333333333334</ele><time>2026-05-03T08:49:05.272Z</time></trkpt><trkpt lat="43.8659117" lon="6.5086633"><ele>838.6666666666667</ele><time>2026-05-03T08:49:06.273Z</time></trkpt><trkpt lat="43.8660783" lon="6.50857"><ele>840.0</ele><time>2026-05-03T08:49:07.272Z</time></trkpt><trkpt lat="43.8662433" lon="6.5084867"><ele>840.0</ele><time>2026-05-03T08:49:08.272Z</time></trkpt><trkpt lat="43.8664017" lon="6.508405"><ele>840.0</ele><time>2026-05-03T08:49:09.272Z</time></trkpt><trkpt lat="43.866555" lon="6.508305"><ele>840.0</ele><time>2026-05-03T08:49:10.272Z</time></trkpt><trkpt lat="43.8666883" lon="6.5081817"><ele>844.6666666666667</ele><time>2026-05-03T08:49:11.273Z</time></trkpt><trkpt lat="43.8668017" lon="6.5080283"><ele>849.3333333333334</ele><time>2026-05-03T08:49:12.272Z</time></trkpt><trkpt lat="43.8668983" lon="6.50785"><ele>854.0</ele><time>2026-05-03T08:49:13.272Z</time></trkpt><trkpt lat="43.8669767" lon="6.5076517"><ele>854.3333333333334</ele><time>2026-05-03T08:49:14.272Z</time></trkpt><trkpt lat="43.8670433" lon="6.5074367"><ele>854.6666666666667</ele><time>2026-05-03T08:49:15.272Z</time></trkpt><trkpt lat="43.8670933" lon="6.507225"><ele>855.0</ele><time>2026-05-03T08:49:16.272Z</time></trkpt><trkpt lat="43.867145" lon="6.507005"><ele>854.3333333333333</ele><time>2026-05-03T08:49:17.272Z</time></trkpt><trkpt lat="43.8671883" lon="6.5067767"><ele>853.6666666666666</ele><time>2026-05-03T08:49:18.272Z</time></trkpt><trkpt lat="43.8672317" lon="6.5065433"><ele>853.0</ele><time>2026-05-03T08:49:19.272Z</time></trkpt><trkpt lat="43.8672883" lon="6.506315"><ele>852.6666666666666</ele><time>2026-05-03T08:49:20.272Z</time></trkpt><trkpt lat="43.8673517" lon="6.50609"><ele>852.3333333333333</ele><time>2026-05-03T08:49:21.272Z</time></trkpt><trkpt lat="43.8674133" lon="6.5058617"><ele>852.0</ele><time>2026-05-03T08:49:22.272Z</time></trkpt><trkpt lat="43.8674667" lon="6.5056267"><ele>852.3333333333333</ele><time>2026-05-03T08:49:23.272Z</time></trkpt><trkpt lat="43.8675117" lon="6.505395"><ele>852.6666666666666</ele><time>2026-05-03T08:49:24.272Z</time></trkpt><trkpt lat="43.8675583" lon="6.5051617"><ele>853.0</ele><time>2026-05-03T08:49:25.272Z</time></trkpt><trkpt lat="43.8675883" lon="6.5049267"><ele>853.0</ele><time>2026-05-03T08:49:26.272Z</time></trkpt><trkpt lat="43.8675983" lon="6.5046933"><ele>853.0</ele><time>2026-05-03T08:49:27.272Z</time></trkpt><trkpt lat="43.8675883" lon="6.5044617"><ele>853.0</ele><time>2026-05-03T08:49:28.272Z</time></trkpt><trkpt lat="43.8675617" lon="6.5042383"><ele>853.0</ele><time>2026-05-03T08:49:29.272Z</time></trkpt><trkpt lat="43.8675267" lon="6.5040283"><ele>853.0</ele><time>2026-05-03T08:49:30.272Z</time></trkpt><trkpt lat="43.86749" lon="6.503835"><ele>853.0</ele><time>2026-05-03T08:49:31.272Z</time></trkpt><trkpt lat="43.8674617" lon="6.5036533"><ele>853.0</ele><time>2026-05-03T08:49:32.273Z</time></trkpt><trkpt lat="43.8674583" lon="6.5034833"><ele>853.75</ele><time>2026-05-03T08:49:33.272Z</time></trkpt><trkpt lat="43.8674833" lon="6.50332"><ele>854.5</ele><time>2026-05-03T08:49:34.272Z</time></trkpt><trkpt lat="43.86755" lon="6.5031883"><ele>855.25</ele><time>2026-05-03T08:49:35.272Z</time></trkpt><trkpt lat="43.8676567" lon="6.5031183"><ele>856.0</ele><time>2026-05-03T08:49:36.273Z</time></trkpt><trkpt lat="43.867775" lon="6.5031333"><ele>860.0</ele><time>2026-05-03T08:49:37.273Z</time></trkpt><trkpt lat="43.8678733" lon="6.5032083"><ele>864.0</ele><time>2026-05-03T08:49:38.272Z</time></trkpt><trkpt lat="43.867955" lon="6.503355"><ele>868.0</ele><time>2026-05-03T08:49:39.272Z</time></trkpt><trkpt lat="43.8679783" lon="6.5035267"><ele>872.0</ele><time>2026-05-03T08:49:40.272Z</time></trkpt><trkpt lat="43.8679533" lon="6.5037067"><ele>872.5</ele><time>2026-05-03T08:49:41.272Z</time></trkpt><trkpt lat="43.86791" lon="6.50389"><ele>873.0</ele><time>2026-05-03T08:49:42.272Z</time></trkpt><trkpt lat="43.8678717" lon="6.5040817"><ele>873.5</ele><time>2026-05-03T08:49:43.272Z</time></trkpt><trkpt lat="43.8678667" lon="6.5042867"><ele>874.0</ele><time>2026-05-03T08:49:44.272Z</time></trkpt><trkpt lat="43.8678883" lon="6.5044817"><ele>874.5</ele><time>2026-05-03T08:49:45.272Z</time></trkpt><trkpt lat="43.8679333" lon="6.504675"><ele>875.0</ele><time>2026-05-03T08:49:46.272Z</time></trkpt><trkpt lat="43.8679883" lon="6.50487"><ele>875.5</ele><time>2026-05-03T08:49:47.272Z</time></trkpt><trkpt lat="43.8680117" lon="6.50507"><ele>876.0</ele><time>2026-05-03T08:49:48.272Z</time></trkpt><trkpt lat="43.8680183" lon="6.5052767"><ele>875.75</ele><time>2026-05-03T08:49:49.272Z</time></trkpt><trkpt lat="43.868" lon="6.505475"><ele>875.5</ele><time>2026-05-03T08:49:50.272Z</time></trkpt><trkpt lat="43.8679717" lon="6.5056667"><ele>875.25</ele><time>2026-05-03T08:49:51.272Z</time></trkpt><trkpt lat="43.8679717" lon="6.5058633"><ele>875.0</ele><time>2026-05-03T08:49:52.272Z</time></trkpt><trkpt lat="43.868005" lon="6.5060583"><ele>873.5</ele><time>2026-05-03T08:49:53.273Z</time></trkpt><trkpt lat="43.86806" lon="6.5062467"><ele>872.0</ele><time>2026-05-03T08:49:54.272Z</time></trkpt><trkpt lat="43.868135" lon="6.5064167"><ele>870.5</ele><time>2026-05-03T08:49:55.272Z</time></trkpt><trkpt lat="43.86824" lon="6.5065633"><ele>869.0</ele><time>2026-05-03T08:49:56.272Z</time></trkpt><trkpt lat="43.8683517" lon="6.50671"><ele>874.0</ele><time>2026-05-03T08:49:57.272Z</time></trkpt><trkpt lat="43.868465" lon="6.50685"><ele>879.0</ele><time>2026-05-03T08:49:58.272Z</time></trkpt><trkpt lat="43.86858" lon="6.5070033"><ele>884.0</ele><time>2026-05-03T08:49:59.272Z</time></trkpt><trkpt lat="43.8686833" lon="6.5071667"><ele>884.0</ele><time>2026-05-03T08:50:00.273Z</time></trkpt><trkpt lat="43.8687717" lon="6.507335"><ele>884.0</ele><time>2026-05-03T08:50:01.272Z</time></trkpt><trkpt lat="43.8688617" lon="6.5075133"><ele>884.0</ele><time>2026-05-03T08:50:02.272Z</time></trkpt><trkpt lat="43.86894" lon="6.5076967"><ele>884.0</ele><time>2026-05-03T08:50:03.272Z</time></trkpt><trkpt lat="43.86901" lon="6.5078867"><ele>884.0</ele><time>2026-05-03T08:50:04.272Z</time></trkpt><trkpt lat="43.8690717" lon="6.5080783"><ele>884.0</ele><time>2026-05-03T08:50:05.272Z</time></trkpt><trkpt lat="43.8691217" lon="6.50827"><ele>883.3333333333334</ele><time>2026-05-03T08:50:06.272Z</time></trkpt><trkpt lat="43.86917" lon="6.50847"><ele>882.6666666666667</ele><time>2026-05-03T08:50:07.272Z</time></trkpt><trkpt lat="43.8692133" lon="6.508675"><ele>882.0</ele><time>2026-05-03T08:50:08.273Z</time></trkpt><trkpt lat="43.86926" lon="6.5088833"><ele>889.3333333333333</ele><time>2026-05-03T08:50:09.272Z</time></trkpt><trkpt lat="43.869295" lon="6.5090967"><ele>896.6666666666666</ele><time>2026-05-03T08:50:10.272Z</time></trkpt><trkpt lat="43.8693183" lon="6.5093133"><ele>904.0</ele><time>2026-05-03T08:50:11.272Z</time></trkpt><trkpt lat="43.86934" lon="6.5095283"><ele>902.6666666666666</ele><time>2026-05-03T08:50:12.272Z</time></trkpt><trkpt lat="43.869365" lon="6.5097533"><ele>901.3333333333333</ele><time>2026-05-03T08:50:13.272Z</time></trkpt><trkpt lat="43.869385" lon="6.5099633"><ele>900.0</ele><time>2026-05-03T08:50:14.272Z</time></trkpt><trkpt lat="43.8694033" lon="6.5101733"><ele>900.0</ele><time>2026-05-03T08:50:15.273Z</time></trkpt><trkpt lat="43.8694283" lon="6.5103733"><ele>900.0</ele><time>2026-05-03T08:50:16.272Z</time></trkpt><trkpt lat="43.86948" lon="6.5105667"><ele>900.0</ele><time>2026-05-03T08:50:17.272Z</time></trkpt><trkpt lat="43.8695533" lon="6.51074"><ele>900.0</ele><time>2026-05-03T08:50:18.272Z</time></trkpt><trkpt lat="43.8696517" lon="6.5108983"><ele>898.0</ele><time>2026-05-03T08:50:19.272Z</time></trkpt><trkpt lat="43.8697783" lon="6.51103"><ele>896.0</ele><time>2026-05-03T08:50:20.272Z</time></trkpt><trkpt lat="43.8699117" lon="6.511155"><ele>894.0</ele><time>2026-05-03T08:50:21.272Z</time></trkpt><trkpt lat="43.870055" lon="6.5112883"><ele>894.6666666666667</ele><time>2026-05-03T08:50:22.272Z</time></trkpt><trkpt lat="43.8701917" lon="6.511415"><ele>895.3333333333334</ele><time>2026-05-03T08:50:23.272Z</time></trkpt><trkpt lat="43.87033" lon="6.5115483"><ele>896.0</ele><time>2026-05-03T08:50:24.272Z</time></trkpt><trkpt lat="43.87048" lon="6.5116817"><ele>896.0</ele><time>2026-05-03T08:50:25.272Z</time></trkpt><trkpt lat="43.87062" lon="6.51182"><ele>896.0</ele><time>2026-05-03T08:50:26.272Z</time></trkpt><trkpt lat="43.8707567" lon="6.5119667"><ele>896.0</ele><time>2026-05-03T08:50:27.272Z</time></trkpt><trkpt lat="43.87089" lon="6.512095"><ele>895.5</ele><time>2026-05-03T08:50:28.272Z</time></trkpt><trkpt lat="43.8710183" lon="6.5122117"><ele>895.0</ele><time>2026-05-03T08:50:29.272Z</time></trkpt><trkpt lat="43.8711367" lon="6.5123083"><ele>894.5</ele><time>2026-05-03T08:50:30.273Z</time></trkpt><trkpt lat="43.871255" lon="6.5123967"><ele>894.0</ele><time>2026-05-03T08:50:31.272Z</time></trkpt><trkpt lat="43.8713933" lon="6.5124667"><ele>894.0</ele><time>2026-05-03T08:50:32.272Z</time></trkpt><trkpt lat="43.8715483" lon="6.51253"><ele>894.0</ele><time>2026-05-03T08:50:33.272Z</time></trkpt><trkpt lat="43.8717033" lon="6.5125967"><ele>894.0</ele><time>2026-05-03T08:50:34.272Z</time></trkpt><trkpt lat="43.87185" lon="6.5126783"><ele>894.6666666666667</ele><time>2026-05-03T08:50:35.272Z</time></trkpt><trkpt lat="43.8719867" lon="6.5127717"><ele>895.3333333333334</ele><time>2026-05-03T08:50:36.272Z</time></trkpt><trkpt lat="43.87213" lon="6.5128867"><ele>896.0</ele><time>2026-05-03T08:50:37.273Z</time></trkpt><trkpt lat="43.87226" lon="6.51302"><ele>896.0</ele><time>2026-05-03T08:50:38.272Z</time></trkpt><trkpt lat="43.8723967" lon="6.513155"><ele>896.0</ele><time>2026-05-03T08:50:39.272Z</time></trkpt><trkpt lat="43.8725317" lon="6.5132783"><ele>896.0</ele><time>2026-05-03T08:50:40.272Z</time></trkpt><trkpt lat="43.872665" lon="6.5134083"><ele>896.6666666666667</ele><time>2026-05-03T08:50:41.272Z</time></trkpt><trkpt lat="43.8728033" lon="6.5135433"><ele>897.3333333333333</ele><time>2026-05-03T08:50:42.272Z</time></trkpt><trkpt lat="43.8729467" lon="6.5136883"><ele>898.0</ele><time>2026-05-03T08:50:43.272Z</time></trkpt><trkpt lat="43.873085" lon="6.5138183"><ele>897.0</ele><time>2026-05-03T08:50:44.272Z</time></trkpt><trkpt lat="43.8732167" lon="6.5139417"><ele>896.0</ele><time>2026-05-03T08:50:45.272Z</time></trkpt><trkpt lat="43.8733417" lon="6.5140817"><ele>895.0</ele><time>2026-05-03T08:50:46.273Z</time></trkpt><trkpt lat="43.8734433" lon="6.5142433"><ele>895.0</ele><time>2026-05-03T08:50:47.272Z</time></trkpt><trkpt lat="43.873525" lon="6.51442"><ele>895.0</ele><time>2026-05-03T08:50:48.272Z</time></trkpt><trkpt lat="43.8735783" lon="6.51462"><ele>895.0</ele><time>2026-05-03T08:50:49.272Z</time></trkpt><trkpt lat="43.8736083" lon="6.51484"><ele>894.3333333333333</ele><time>2026-05-03T08:50:50.273Z</time></trkpt><trkpt lat="43.8736283" lon="6.5150833"><ele>893.6666666666667</ele><time>2026-05-03T08:50:51.272Z</time></trkpt><trkpt lat="43.8736483" lon="6.515335"><ele>893.0</ele><time>2026-05-03T08:50:52.272Z</time></trkpt><trkpt lat="43.873675" lon="6.5156033"><ele>892.0</ele><time>2026-05-03T08:50:53.272Z</time></trkpt><trkpt lat="43.87369" lon="6.51587"><ele>891.0</ele><time>2026-05-03T08:50:54.272Z</time></trkpt><trkpt lat="43.873695" lon="6.5161483"><ele>890.0</ele><time>2026-05-03T08:50:55.273Z</time></trkpt><trkpt lat="43.8737083" lon="6.51643"><ele>889.0</ele><time>2026-05-03T08:50:56.272Z</time></trkpt><trkpt lat="43.8737283" lon="6.5167017"><ele>888.0</ele><time>2026-05-03T08:50:57.272Z</time></trkpt><trkpt lat="43.8737367" lon="6.516985"><ele>887.0</ele><time>2026-05-03T08:50:58.272Z</time></trkpt><trkpt lat="43.8737617" lon="6.5172617"><ele>886.6666666666667</ele><time>2026-05-03T08:50:59.272Z</time></trkpt><trkpt lat="43.87379" lon="6.51754"><ele>886.3333333333333</ele><time>2026-05-03T08:51:00.272Z</time></trkpt><trkpt lat="43.8738017" lon="6.51783"><ele>886.0</ele><time>2026-05-03T08:51:01.272Z</time></trkpt><trkpt lat="43.8738217" lon="6.518115"><ele>885.0</ele><time>2026-05-03T08:51:02.273Z</time></trkpt><trkpt lat="43.8738367" lon="6.5184133"><ele>884.0</ele><time>2026-05-03T08:51:03.272Z</time></trkpt><trkpt lat="43.8738467" lon="6.5187133"><ele>883.0</ele><time>2026-05-03T08:51:04.272Z</time></trkpt><trkpt lat="43.8738667" lon="6.5190083"><ele>882.6666666666666</ele><time>2026-05-03T08:51:05.272Z</time></trkpt><trkpt lat="43.8738817" lon="6.5193017"><ele>882.3333333333333</ele><time>2026-05-03T08:51:06.272Z</time></trkpt><trkpt lat="43.87389" lon="6.5195933"><ele>882.0</ele><time>2026-05-03T08:51:07.273Z</time></trkpt><trkpt lat="43.8738967" lon="6.519885"><ele>882.0</ele><time>2026-05-03T08:51:08.272Z</time></trkpt><trkpt lat="43.8738917" lon="6.5201733"><ele>882.0</ele><time>2026-05-03T08:51:09.272Z</time></trkpt><trkpt lat="43.8738767" lon="6.5204533"><ele>882.0</ele><time>2026-05-03T08:51:10.272Z</time></trkpt><trkpt lat="43.8738567" lon="6.52074"><ele>880.6666666666667</ele><time>2026-05-03T08:51:11.272Z</time></trkpt><trkpt lat="43.8738183" lon="6.521025"><ele>879.3333333333334</ele><time>2026-05-03T08:51:12.272Z</time></trkpt><trkpt lat="43.873785" lon="6.5213117"><ele>878.0</ele><time>2026-05-03T08:51:13.272Z</time></trkpt><trkpt lat="43.8737733" lon="6.5216033"><ele>878.0</ele><time>2026-05-03T08:51:14.272Z</time></trkpt><trkpt lat="43.8737783" lon="6.5219"><ele>878.0</ele><time>2026-05-03T08:51:15.272Z</time></trkpt><trkpt lat="43.8737967" lon="6.522195"><ele>878.0</ele><time>2026-05-03T08:51:16.272Z</time></trkpt><trkpt lat="43.8738217" lon="6.5224817"><ele>878.3333333333334</ele><time>2026-05-03T08:51:17.272Z</time></trkpt><trkpt lat="43.8738583" lon="6.5227617"><ele>878.6666666666667</ele><time>2026-05-03T08:51:18.272Z</time></trkpt><trkpt lat="43.8738883" lon="6.5230483"><ele>879.0</ele><time>2026-05-03T08:51:19.272Z</time></trkpt><trkpt lat="43.873915" lon="6.5233283"><ele>879.6666666666667</ele><time>2026-05-03T08:51:20.272Z</time></trkpt><trkpt lat="43.8739517" lon="6.52361"><ele>880.3333333333334</ele><time>2026-05-03T08:51:21.272Z</time></trkpt><trkpt lat="43.873995" lon="6.52389"><ele>881.0</ele><time>2026-05-03T08:51:22.272Z</time></trkpt><trkpt lat="43.87406" lon="6.52417"><ele>883.3333333333334</ele><time>2026-05-03T08:51:23.272Z</time></trkpt><trkpt lat="43.8741383" lon="6.5244383"><ele>885.6666666666667</ele><time>2026-05-03T08:51:24.272Z</time></trkpt><trkpt lat="43.87421" lon="6.52471"><ele>888.0</ele><time>2026-05-03T08:51:25.272Z</time></trkpt><trkpt lat="43.8742967" lon="6.5249683"><ele>884.3333333333333</ele><time>2026-05-03T08:51:26.272Z</time></trkpt><trkpt lat="43.874385" lon="6.5252217"><ele>880.6666666666666</ele><time>2026-05-03T08:51:27.272Z</time></trkpt><trkpt lat="43.8744633" lon="6.5254817"><ele>877.0</ele><time>2026-05-03T08:51:28.272Z</time></trkpt><trkpt lat="43.874545" lon="6.5257333"><ele>877.0</ele><time>2026-05-03T08:51:29.272Z</time></trkpt><trkpt lat="43.874625" lon="6.525985"><ele>877.0</ele><time>2026-05-03T08:51:30.272Z</time></trkpt><trkpt lat="43.8746983" lon="6.526235"><ele>877.0</ele><time>2026-05-03T08:51:31.273Z</time></trkpt><trkpt lat="43.87477" lon="6.5265"><ele>878.6666666666666</ele><time>2026-05-03T08:51:32.272Z</time></trkpt><trkpt lat="43.8748167" lon="6.5267667"><ele>880.3333333333333</ele><time>2026-05-03T08:51:33.272Z</time></trkpt><trkpt lat="43.8748433" lon="6.5270283"><ele>882.0</ele><time>2026-05-03T08:51:34.273Z</time></trkpt><trkpt lat="43.8748417" lon="6.5272967"><ele>884.0</ele><time>2026-05-03T08:51:35.272Z</time></trkpt><trkpt lat="43.8748533" lon="6.5275683"><ele>886.0</ele><time>2026-05-03T08:51:36.272Z</time></trkpt><trkpt lat="43.874905" lon="6.52785"><ele>888.0</ele><time>2026-05-03T08:51:37.272Z</time></trkpt><trkpt lat="43.8749733" lon="6.5281167"><ele>891.3333333333333</ele><time>2026-05-03T08:51:38.273Z</time></trkpt><trkpt lat="43.8750633" lon="6.5283833"><ele>894.6666666666666</ele><time>2026-05-03T08:51:39.272Z</time></trkpt><trkpt lat="43.875155" lon="6.5286417"><ele>898.0</ele><time>2026-05-03T08:51:40.272Z</time></trkpt><trkpt lat="43.8752333" lon="6.5288967"><ele>889.3333333333333</ele><time>2026-05-03T08:51:41.272Z</time></trkpt><trkpt lat="43.875305" lon="6.529155"><ele>880.6666666666667</ele><time>2026-05-03T08:51:42.272Z</time></trkpt><trkpt lat="43.87533" lon="6.52941"><ele>872.0</ele><time>2026-05-03T08:51:43.272Z</time></trkpt><trkpt lat="43.875325" lon="6.5296533"><ele>871.3333333333334</ele><time>2026-05-03T08:51:44.272Z</time></trkpt><trkpt lat="43.8752933" lon="6.529875"><ele>870.6666666666667</ele><time>2026-05-03T08:51:45.272Z</time></trkpt><trkpt lat="43.8752733" lon="6.5300833"><ele>870.0</ele><time>2026-05-03T08:51:46.272Z</time></trkpt><trkpt lat="43.875295" lon="6.530275"><ele>873.6666666666667</ele><time>2026-05-03T08:51:47.272Z</time></trkpt><trkpt lat="43.875385" lon="6.5304567"><ele>877.3333333333334</ele><time>2026-05-03T08:51:48.272Z</time></trkpt><trkpt lat="43.875485" lon="6.530625"><ele>881.0</ele><time>2026-05-03T08:51:49.272Z</time></trkpt><trkpt lat="43.87559" lon="6.530805"><ele>881.0</ele><time>2026-05-03T08:51:50.272Z</time></trkpt><trkpt lat="43.8756833" lon="6.5309917"><ele>881.0</ele><time>2026-05-03T08:51:51.272Z</time></trkpt><trkpt lat="43.8757683" lon="6.53119"><ele>881.0</ele><time>2026-05-03T08:51:52.272Z</time></trkpt><trkpt lat="43.8758217" lon="6.5313983"><ele>885.0</ele><time>2026-05-03T08:51:53.273Z</time></trkpt><trkpt lat="43.8758583" lon="6.5315933"><ele>889.0</ele><time>2026-05-03T08:51:54.272Z</time></trkpt><trkpt lat="43.8758517" lon="6.5318067"><ele>893.0</ele><time>2026-05-03T08:51:55.272Z</time></trkpt><trkpt lat="43.8757883" lon="6.53202"><ele>893.0</ele><time>2026-05-03T08:51:56.272Z</time></trkpt><trkpt lat="43.8757383" lon="6.532185"><ele>893.0</ele><time>2026-05-03T08:51:57.272Z</time></trkpt><trkpt lat="43.87572" lon="6.532335"><ele>893.0</ele><time>2026-05-03T08:51:58.272Z</time></trkpt><trkpt lat="43.8757367" lon="6.532475"><ele>893.0</ele><time>2026-05-03T08:51:59.272Z</time></trkpt><trkpt lat="43.8757817" lon="6.5325883"><ele>893.0</ele><time>2026-05-03T08:52:00.272Z</time></trkpt><trkpt lat="43.8758483" lon="6.5326767"><ele>889.5</ele><time>2026-05-03T08:52:01.273Z</time></trkpt><trkpt lat="43.8759533" lon="6.5327417"><ele>886.0</ele><time>2026-05-03T08:52:02.273Z</time></trkpt><trkpt lat="43.8760883" lon="6.5328017"><ele>882.5</ele><time>2026-05-03T08:52:03.273Z</time></trkpt><trkpt lat="43.8762317" lon="6.5328567"><ele>879.0</ele><time>2026-05-03T08:52:04.272Z</time></trkpt><trkpt lat="43.8763483" lon="6.5329567"><ele>879.0</ele><time>2026-05-03T08:52:05.272Z</time></trkpt><trkpt lat="43.8764433" lon="6.53309"><ele>879.0</ele><time>2026-05-03T08:52:06.272Z</time></trkpt><trkpt lat="43.8765133" lon="6.5332433"><ele>879.0</ele><time>2026-05-03T08:52:07.272Z</time></trkpt><trkpt lat="43.8765733" lon="6.5334217"><ele>879.0</ele><time>2026-05-03T08:52:08.272Z</time></trkpt><trkpt lat="43.87663" lon="6.5336017"><ele>882.3333333333333</ele><time>2026-05-03T08:52:09.272Z</time></trkpt><trkpt lat="43.8766883" lon="6.533795"><ele>885.6666666666666</ele><time>2026-05-03T08:52:10.272Z</time></trkpt><trkpt lat="43.8767467" lon="6.533985"><ele>889.0</ele><time>2026-05-03T08:52:11.273Z</time></trkpt><trkpt lat="43.8768033" lon="6.534185"><ele>884.0</ele><time>2026-05-03T08:52:12.272Z</time></trkpt><trkpt lat="43.8768583" lon="6.5343833"><ele>879.0</ele><time>2026-05-03T08:52:13.272Z</time></trkpt><trkpt lat="43.8768817" lon="6.5345783"><ele>874.0</ele><time>2026-05-03T08:52:14.272Z</time></trkpt><trkpt lat="43.8768867" lon="6.5347717"><ele>869.0</ele><time>2026-05-03T08:52:15.273Z</time></trkpt><trkpt lat="43.8768883" lon="6.534965"><ele>869.0</ele><time>2026-05-03T08:52:16.272Z</time></trkpt><trkpt lat="43.87691" lon="6.5351533"><ele>869.0</ele><time>2026-05-03T08:52:17.272Z</time></trkpt><trkpt lat="43.8769533" lon="6.5353333"><ele>869.0</ele><time>2026-05-03T08:52:18.272Z</time></trkpt><trkpt lat="43.8770167" lon="6.5355067"><ele>869.0</ele><time>2026-05-03T08:52:19.272Z</time></trkpt><trkpt lat="43.877095" lon="6.5356717"><ele>871.25</ele><time>2026-05-03T08:52:20.272Z</time></trkpt><trkpt lat="43.8771883" lon="6.535825"><ele>873.5</ele><time>2026-05-03T08:52:21.272Z</time></trkpt><trkpt lat="43.8772817" lon="6.5359683"><ele>875.75</ele><time>2026-05-03T08:52:22.272Z</time></trkpt><trkpt lat="43.8773583" lon="6.5361167"><ele>878.0</ele><time>2026-05-03T08:52:23.273Z</time></trkpt><trkpt lat="43.87744" lon="6.5362583"><ele>879.0</ele><time>2026-05-03T08:52:24.272Z</time></trkpt><trkpt lat="43.8775067" lon="6.5363867"><ele>880.0</ele><time>2026-05-03T08:52:25.273Z</time></trkpt><trkpt lat="43.8775667" lon="6.5365083"><ele>881.0</ele><time>2026-05-03T08:52:26.272Z</time></trkpt><trkpt lat="43.8776467" lon="6.5366017"><ele>882.0</ele><time>2026-05-03T08:52:27.273Z</time></trkpt><trkpt lat="43.87771" lon="6.5366517"><ele>883.0</ele><time>2026-05-03T08:52:28.272Z</time></trkpt><trkpt lat="43.87779" lon="6.53668"><ele>879.8</ele><time>2026-05-03T08:52:29.272Z</time></trkpt><trkpt lat="43.8779" lon="6.536695"><ele>876.5999999999999</ele><time>2026-05-03T08:52:30.272Z</time></trkpt><trkpt lat="43.878" lon="6.536705"><ele>873.4000000000001</ele><time>2026-05-03T08:52:31.272Z</time></trkpt><trkpt lat="43.8781083" lon="6.5367333"><ele>870.2</ele><time>2026-05-03T08:52:32.273Z</time></trkpt><trkpt lat="43.87821" lon="6.5367883"><ele>867.0</ele><time>2026-05-03T08:52:33.272Z</time></trkpt><trkpt lat="43.8783067" lon="6.53687"><ele>867.0</ele><time>2026-05-03T08:52:34.272Z</time></trkpt><trkpt lat="43.8783833" lon="6.53697"><ele>867.0</ele><time>2026-05-03T08:52:35.272Z</time></trkpt><trkpt lat="43.8784467" lon="6.5371017"><ele>867.0</ele><time>2026-05-03T08:52:36.273Z</time></trkpt><trkpt lat="43.878495" lon="6.5372517"><ele>867.0</ele><time>2026-05-03T08:52:37.272Z</time></trkpt><trkpt lat="43.878515" lon="6.5374083"><ele>867.0</ele><time>2026-05-03T08:52:38.272Z</time></trkpt><trkpt lat="43.87852" lon="6.5375733"><ele>867.0</ele><time>2026-05-03T08:52:39.272Z</time></trkpt><trkpt lat="43.8785083" lon="6.5377383"><ele>867.0</ele><time>2026-05-03T08:52:40.272Z</time></trkpt><trkpt lat="43.878475" lon="6.5378917"><ele>867.0</ele><time>2026-05-03T08:52:41.272Z</time></trkpt><trkpt lat="43.8784233" lon="6.5380267"><ele>867.4000000000001</ele><time>2026-05-03T08:52:42.272Z</time></trkpt><trkpt lat="43.8783433" lon="6.538145"><ele>867.8000000000001</ele><time>2026-05-03T08:52:43.272Z</time></trkpt><trkpt lat="43.878265" lon="6.5382467"><ele>868.2</ele><time>2026-05-03T08:52:44.272Z</time></trkpt><trkpt lat="43.87818" lon="6.5383417"><ele>868.6</ele><time>2026-05-03T08:52:45.272Z</time></trkpt><trkpt lat="43.8781" lon="6.5384433"><ele>869.0</ele><time>2026-05-03T08:52:46.272Z</time></trkpt><trkpt lat="43.8780417" lon="6.53855"><ele>869.0</ele><time>2026-05-03T08:52:47.272Z</time></trkpt><trkpt lat="43.8780117" lon="6.5386767"><ele>869.0000000000001</ele><time>2026-05-03T08:52:48.272Z</time></trkpt><trkpt lat="43.87802" lon="6.538805"><ele>869.0000000000001</ele><time>2026-05-03T08:52:49.272Z</time></trkpt><trkpt lat="43.8780583" lon="6.5389333"><ele>869.0</ele><time>2026-05-03T08:52:50.273Z</time></trkpt><trkpt lat="43.8781183" lon="6.539055"><ele>869.0</ele><time>2026-05-03T08:52:51.272Z</time></trkpt><trkpt lat="43.8782" lon="6.5391767"><ele>869.75</ele><time>2026-05-03T08:52:52.272Z</time></trkpt><trkpt lat="43.8782867" lon="6.5392967"><ele>870.5</ele><time>2026-05-03T08:52:53.272Z</time></trkpt><trkpt lat="43.8783667" lon="6.5394317"><ele>871.25</ele><time>2026-05-03T08:52:54.272Z</time></trkpt><trkpt lat="43.8784467" lon="6.5395683"><ele>872.0</ele><time>2026-05-03T08:52:55.272Z</time></trkpt><trkpt lat="43.8785083" lon="6.5397167"><ele>872.0</ele><time>2026-05-03T08:52:56.273Z</time></trkpt><trkpt lat="43.8785417" lon="6.5398633"><ele>872.0</ele><time>2026-05-03T08:52:57.273Z</time></trkpt><trkpt lat="43.8785517" lon="6.5400217"><ele>872.0</ele><time>2026-05-03T08:52:58.272Z</time></trkpt><trkpt lat="43.878535" lon="6.5401967"><ele>872.0</ele><time>2026-05-03T08:52:59.272Z</time></trkpt><trkpt lat="43.8785233" lon="6.5403817"><ele>874.25</ele><time>2026-05-03T08:53:00.272Z</time></trkpt><trkpt lat="43.8785233" lon="6.54057"><ele>876.5</ele><time>2026-05-03T08:53:01.272Z</time></trkpt><trkpt lat="43.87851" lon="6.540775"><ele>878.75</ele><time>2026-05-03T08:53:02.272Z</time></trkpt><trkpt lat="43.8784833" lon="6.5409717"><ele>881.0</ele><time>2026-05-03T08:53:03.272Z</time></trkpt><trkpt lat="43.8784333" lon="6.5411683"><ele>884.75</ele><time>2026-05-03T08:53:04.273Z</time></trkpt><trkpt lat="43.8783717" lon="6.5413567"><ele>888.5</ele><time>2026-05-03T08:53:05.272Z</time></trkpt><trkpt lat="43.878315" lon="6.541535"><ele>892.25</ele><time>2026-05-03T08:53:06.272Z</time></trkpt><trkpt lat="43.8782683" lon="6.5416933"><ele>896.0</ele><time>2026-05-03T08:53:07.272Z</time></trkpt><trkpt lat="43.878255" lon="6.5418483"><ele>896.0</ele><time>2026-05-03T08:53:08.272Z</time></trkpt><trkpt lat="43.87827" lon="6.5420033"><ele>895.9999999999999</ele><time>2026-05-03T08:53:09.272Z</time></trkpt><trkpt lat="43.8783167" lon="6.542115"><ele>895.9999999999999</ele><time>2026-05-03T08:53:10.272Z</time></trkpt><trkpt lat="43.8783983" lon="6.54219"><ele>896.0</ele><time>2026-05-03T08:53:11.272Z</time></trkpt><trkpt lat="43.8785" lon="6.542205"><ele>896.0</ele><time>2026-05-03T08:53:12.272Z</time></trkpt><trkpt lat="43.8786133" lon="6.542165"><ele>895.25</ele><time>2026-05-03T08:53:13.273Z</time></trkpt><trkpt lat="43.8787083" lon="6.54208"><ele>894.5</ele><time>2026-05-03T08:53:14.272Z</time></trkpt><trkpt lat="43.87879" lon="6.5419467"><ele>893.75</ele><time>2026-05-03T08:53:15.272Z</time></trkpt><trkpt lat="43.8788783" lon="6.5417983"><ele>893.0</ele><time>2026-05-03T08:53:16.272Z</time></trkpt><trkpt lat="43.8789667" lon="6.541665"><ele>893.0</ele><time>2026-05-03T08:53:17.272Z</time></trkpt><trkpt lat="43.8790583" lon="6.541545"><ele>893.0</ele><time>2026-05-03T08:53:18.272Z</time></trkpt><trkpt lat="43.879155" lon="6.541425"><ele>893.0</ele><time>2026-05-03T08:53:19.272Z</time></trkpt><trkpt lat="43.8792583" lon="6.5413033"><ele>893.0</ele><time>2026-05-03T08:53:20.272Z</time></trkpt><trkpt lat="43.8793617" lon="6.5411833"><ele>891.25</ele><time>2026-05-03T08:53:21.272Z</time></trkpt><trkpt lat="43.8794633" lon="6.5410683"><ele>889.5</ele><time>2026-05-03T08:53:22.272Z</time></trkpt><trkpt lat="43.87956" lon="6.5409517"><ele>887.75</ele><time>2026-05-03T08:53:23.272Z</time></trkpt><trkpt lat="43.87966" lon="6.540835"><ele>886.0</ele><time>2026-05-03T08:53:24.272Z</time></trkpt><trkpt lat="43.8797617" lon="6.5407517"><ele>886.0</ele><time>2026-05-03T08:53:25.272Z</time></trkpt><trkpt lat="43.8798817" lon="6.54071"><ele>886.0</ele><time>2026-05-03T08:53:26.272Z</time></trkpt><trkpt lat="43.8800133" lon="6.540715"><ele>886.0</ele><time>2026-05-03T08:53:27.272Z</time></trkpt><trkpt lat="43.880155" lon="6.5407733"><ele>886.0</ele><time>2026-05-03T08:53:28.272Z</time></trkpt><trkpt lat="43.88029" lon="6.540885"><ele>885.6666666666666</ele><time>2026-05-03T08:53:29.273Z</time></trkpt><trkpt lat="43.8804033" lon="6.5410383"><ele>885.3333333333333</ele><time>2026-05-03T08:53:30.272Z</time></trkpt><trkpt lat="43.8804867" lon="6.541215"><ele>885.0</ele><time>2026-05-03T08:53:31.272Z</time></trkpt><trkpt lat="43.8805333" lon="6.5414083"><ele>885.0</ele><time>2026-05-03T08:53:32.273Z</time></trkpt><trkpt lat="43.8805417" lon="6.5416183"><ele>885.0</ele><time>2026-05-03T08:53:33.272Z</time></trkpt><trkpt lat="43.8805417" lon="6.54183"><ele>885.0</ele><time>2026-05-03T08:53:34.272Z</time></trkpt><trkpt lat="43.880555" lon="6.542015"><ele>885.0</ele><time>2026-05-03T08:53:35.273Z</time></trkpt><trkpt lat="43.8805967" lon="6.5421633"><ele>888.25</ele><time>2026-05-03T08:53:36.273Z</time></trkpt><trkpt lat="43.8806817" lon="6.542285"><ele>891.5</ele><time>2026-05-03T08:53:37.272Z</time></trkpt><trkpt lat="43.88079" lon="6.542335"><ele>894.75</ele><time>2026-05-03T08:53:38.272Z</time></trkpt><trkpt lat="43.8809133" lon="6.54233"><ele>898.0</ele><time>2026-05-03T08:53:39.272Z</time></trkpt><trkpt lat="43.8810217" lon="6.5422617"><ele>898.25</ele><time>2026-05-03T08:53:40.272Z</time></trkpt><trkpt lat="43.8811183" lon="6.5421267"><ele>898.5</ele><time>2026-05-03T08:53:41.272Z</time></trkpt><trkpt lat="43.8811983" lon="6.541965"><ele>898.75</ele><time>2026-05-03T08:53:42.272Z</time></trkpt><trkpt lat="43.8812817" lon="6.5417933"><ele>899.0</ele><time>2026-05-03T08:53:43.272Z</time></trkpt><trkpt lat="43.881365" lon="6.5416333"><ele>899.0</ele><time>2026-05-03T08:53:44.273Z</time></trkpt><trkpt lat="43.8814433" lon="6.5414783"><ele>899.0</ele><time>2026-05-03T08:53:45.272Z</time></trkpt><trkpt lat="43.88152" lon="6.541335"><ele>899.0</ele><time>2026-05-03T08:53:46.272Z</time></trkpt><trkpt lat="43.8816067" lon="6.5412"><ele>899.0</ele><time>2026-05-03T08:53:47.272Z</time></trkpt><trkpt lat="43.881695" lon="6.541075"><ele>899.5</ele><time>2026-05-03T08:53:48.273Z</time></trkpt><trkpt lat="43.8817967" lon="6.54096"><ele>900.0</ele><time>2026-05-03T08:53:49.272Z</time></trkpt><trkpt lat="43.8819117" lon="6.540875"><ele>900.5</ele><time>2026-05-03T08:53:50.272Z</time></trkpt><trkpt lat="43.88204" lon="6.5407933"><ele>901.0</ele><time>2026-05-03T08:53:51.272Z</time></trkpt><trkpt lat="43.88215" lon="6.54069"><ele>901.0</ele><time>2026-05-03T08:53:52.272Z</time></trkpt><trkpt lat="43.882245" lon="6.540585"><ele>901.0</ele><time>2026-05-03T08:53:53.273Z</time></trkpt><trkpt lat="43.88233" lon="6.54048"><ele>901.0</ele><time>2026-05-03T08:53:54.272Z</time></trkpt><trkpt lat="43.8824167" lon="6.54039"><ele>901.0</ele><time>2026-05-03T08:53:55.273Z</time></trkpt><trkpt lat="43.8825167" lon="6.54034"><ele>900.5</ele><time>2026-05-03T08:53:56.272Z</time></trkpt><trkpt lat="43.8826233" lon="6.5403283"><ele>900.0</ele><time>2026-05-03T08:53:57.272Z</time></trkpt><trkpt lat="43.8827333" lon="6.5403517"><ele>899.5</ele><time>2026-05-03T08:53:58.272Z</time></trkpt><trkpt lat="43.88284" lon="6.5403917"><ele>899.0</ele><time>2026-05-03T08:53:59.272Z</time></trkpt><trkpt lat="43.88296" lon="6.5404517"><ele>899.0</ele><time>2026-05-03T08:54:00.272Z</time></trkpt><trkpt lat="43.8830567" lon="6.5405233"><ele>899.0</ele><time>2026-05-03T08:54:01.273Z</time></trkpt><trkpt lat="43.8831733" lon="6.54058"><ele>899.0</ele><time>2026-05-03T08:54:02.272Z</time></trkpt><trkpt lat="43.88329" lon="6.540615"><ele>899.0</ele><time>2026-05-03T08:54:03.272Z</time></trkpt><trkpt lat="43.8834017" lon="6.5406067"><ele>900.0</ele><time>2026-05-03T08:54:04.272Z</time></trkpt><trkpt lat="43.88351" lon="6.5405533"><ele>901.0000000000001</ele><time>2026-05-03T08:54:05.272Z</time></trkpt><trkpt lat="43.883595" lon="6.5404467"><ele>902.0000000000001</ele><time>2026-05-03T08:54:06.272Z</time></trkpt><trkpt lat="43.8836617" lon="6.5403117"><ele>903.0</ele><time>2026-05-03T08:54:07.272Z</time></trkpt><trkpt lat="43.883705" lon="6.540185"><ele>904.0</ele><time>2026-05-03T08:54:08.272Z</time></trkpt><trkpt lat="43.8837583" lon="6.54007"><ele>904.0</ele><time>2026-05-03T08:54:09.272Z</time></trkpt><trkpt lat="43.883835" lon="6.539975"><ele>904.0000000000001</ele><time>2026-05-03T08:54:10.272Z</time></trkpt><trkpt lat="43.8839333" lon="6.53991"><ele>904.0000000000001</ele><time>2026-05-03T08:54:11.272Z</time></trkpt><trkpt lat="43.88404" lon="6.5398717"><ele>904.0</ele><time>2026-05-03T08:54:12.272Z</time></trkpt><trkpt lat="43.88416" lon="6.53985"><ele>904.0</ele><time>2026-05-03T08:54:13.272Z</time></trkpt><trkpt lat="43.8842767" lon="6.53981"><ele>906.25</ele><time>2026-05-03T08:54:14.272Z</time></trkpt><trkpt lat="43.884375" lon="6.5397317"><ele>908.5</ele><time>2026-05-03T08:54:15.272Z</time></trkpt><trkpt lat="43.884465" lon="6.5396033"><ele>910.75</ele><time>2026-05-03T08:54:16.272Z</time></trkpt><trkpt lat="43.8845417" lon="6.539415"><ele>913.0</ele><time>2026-05-03T08:54:17.273Z</time></trkpt><trkpt lat="43.8846117" lon="6.5391667"><ele>913.0</ele><time>2026-05-03T08:54:18.272Z</time></trkpt><trkpt lat="43.8847083" lon="6.5389033"><ele>913.0</ele><time>2026-05-03T08:54:19.272Z</time></trkpt><trkpt lat="43.8848467" lon="6.5386583"><ele>913.0</ele><time>2026-05-03T08:54:20.272Z</time></trkpt><trkpt lat="43.8849917" lon="6.53842"><ele>916.6666666666666</ele><time>2026-05-03T08:54:21.272Z</time></trkpt><trkpt lat="43.8851333" lon="6.538185"><ele>920.3333333333333</ele><time>2026-05-03T08:54:22.273Z</time></trkpt><trkpt lat="43.8852767" lon="6.5379867"><ele>924.0</ele><time>2026-05-03T08:54:23.273Z</time></trkpt><trkpt lat="43.885415" lon="6.537815"><ele>913.0</ele><time>2026-05-03T08:54:24.273Z</time></trkpt><trkpt lat="43.8855467" lon="6.5376483"><ele>902.0</ele><time>2026-05-03T08:54:25.272Z</time></trkpt><trkpt lat="43.8856667" lon="6.5374833"><ele>891.0</ele><time>2026-05-03T08:54:26.272Z</time></trkpt><trkpt lat="43.8858" lon="6.5373717"><ele>895.3333333333333</ele><time>2026-05-03T08:54:27.272Z</time></trkpt><trkpt lat="43.8859483" lon="6.53729"><ele>899.6666666666666</ele><time>2026-05-03T08:54:28.272Z</time></trkpt><trkpt lat="43.8861117" lon="6.5372567"><ele>904.0</ele><time>2026-05-03T08:54:29.272Z</time></trkpt><trkpt lat="43.8862683" lon="6.537235"><ele>904.0</ele><time>2026-05-03T08:54:30.272Z</time></trkpt><trkpt lat="43.88643" lon="6.5372183"><ele>904.0</ele><time>2026-05-03T08:54:31.273Z</time></trkpt><trkpt lat="43.88659" lon="6.5371783"><ele>904.0</ele><time>2026-05-03T08:54:32.272Z</time></trkpt><trkpt lat="43.8867583" lon="6.53714"><ele>903.0</ele><time>2026-05-03T08:54:33.272Z</time></trkpt><trkpt lat="43.8869267" lon="6.537085"><ele>902.0</ele><time>2026-05-03T08:54:34.273Z</time></trkpt><trkpt lat="43.8870783" lon="6.5370233"><ele>901.0</ele><time>2026-05-03T08:54:35.272Z</time></trkpt><trkpt lat="43.8872167" lon="6.537"><ele>901.0</ele><time>2026-05-03T08:54:36.272Z</time></trkpt><trkpt lat="43.8873433" lon="6.5370083"><ele>901.0</ele><time>2026-05-03T08:54:37.272Z</time></trkpt><trkpt lat="43.8874383" lon="6.5370717"><ele>901.0</ele><time>2026-05-03T08:54:38.272Z</time></trkpt><trkpt lat="43.88754" lon="6.5372117"><ele>901.0</ele><time>2026-05-03T08:54:39.272Z</time></trkpt><trkpt lat="43.8876167" lon="6.5373883"><ele>898.75</ele><time>2026-05-03T08:54:40.273Z</time></trkpt><trkpt lat="43.8876617" lon="6.5375817"><ele>896.5</ele><time>2026-05-03T08:54:41.272Z</time></trkpt><trkpt lat="43.8877167" lon="6.5377733"><ele>894.25</ele><time>2026-05-03T08:54:42.272Z</time></trkpt><trkpt lat="43.8877683" lon="6.5379583"><ele>892.0</ele><time>2026-05-03T08:54:43.272Z</time></trkpt><trkpt lat="43.88783" lon="6.5381267"><ele>892.0</ele><time>2026-05-03T08:54:44.272Z</time></trkpt><trkpt lat="43.8878917" lon="6.5382783"><ele>892.0</ele><time>2026-05-03T08:54:45.272Z</time></trkpt><trkpt lat="43.8879583" lon="6.5384083"><ele>892.0</ele><time>2026-05-03T08:54:46.273Z</time></trkpt><trkpt lat="43.8880417" lon="6.5384883"><ele>892.0</ele><time>2026-05-03T08:54:47.272Z</time></trkpt><trkpt lat="43.888135" lon="6.5385217"><ele>892.0</ele><time>2026-05-03T08:54:48.272Z</time></trkpt><trkpt lat="43.8882417" lon="6.538485"><ele>892.0</ele><time>2026-05-03T08:54:49.272Z</time></trkpt><trkpt lat="43.888345" lon="6.5384017"><ele>892.0</ele><time>2026-05-03T08:54:50.272Z</time></trkpt><trkpt lat="43.8884317" lon="6.53828"><ele>892.0</ele><time>2026-05-03T08:54:51.272Z</time></trkpt><trkpt lat="43.8885267" lon="6.5381767"><ele>892.0</ele><time>2026-05-03T08:54:52.272Z</time></trkpt><trkpt lat="43.88863" lon="6.538115"><ele>894.5</ele><time>2026-05-03T08:54:53.272Z</time></trkpt><trkpt lat="43.8887483" lon="6.538075"><ele>897.0</ele><time>2026-05-03T08:54:54.272Z</time></trkpt><trkpt lat="43.8888667" lon="6.538065"><ele>899.5</ele><time>2026-05-03T08:54:55.272Z</time></trkpt><trkpt lat="43.8889967" lon="6.5380533"><ele>902.0</ele><time>2026-05-03T08:54:56.272Z</time></trkpt><trkpt lat="43.8891483" lon="6.538045"><ele>904.3333333333334</ele><time>2026-05-03T08:54:57.272Z</time></trkpt><trkpt lat="43.8893" lon="6.53803"><ele>906.6666666666667</ele><time>2026-05-03T08:54:58.272Z</time></trkpt><trkpt lat="43.8894567" lon="6.5380167"><ele>909.0</ele><time>2026-05-03T08:54:59.272Z</time></trkpt><trkpt lat="43.8896017" lon="6.5380133"><ele>909.0</ele><time>2026-05-03T08:55:00.272Z</time></trkpt><trkpt lat="43.8897467" lon="6.5380117"><ele>909.0</ele><time>2026-05-03T08:55:01.272Z</time></trkpt><trkpt lat="43.8898917" lon="6.53803"><ele>909.0</ele><time>2026-05-03T08:55:02.272Z</time></trkpt><trkpt lat="43.8900317" lon="6.5380517"><ele>909.0</ele><time>2026-05-03T08:55:03.272Z</time></trkpt><trkpt lat="43.89015" lon="6.53806"><ele>910.5</ele><time>2026-05-03T08:55:04.272Z</time></trkpt><trkpt lat="43.890275" lon="6.5380133"><ele>912.0</ele><time>2026-05-03T08:55:05.272Z</time></trkpt><trkpt lat="43.8903583" lon="6.5379383"><ele>913.5</ele><time>2026-05-03T08:55:06.272Z</time></trkpt><trkpt lat="43.8904517" lon="6.5377767"><ele>915.0</ele><time>2026-05-03T08:55:07.272Z</time></trkpt><trkpt lat="43.8905183" lon="6.5375917"><ele>915.0</ele><time>2026-05-03T08:55:08.272Z</time></trkpt><trkpt lat="43.8905817" lon="6.5373783"><ele>915.0</ele><time>2026-05-03T08:55:09.272Z</time></trkpt><trkpt lat="43.89062" lon="6.53717"><ele>915.0</ele><time>2026-05-03T08:55:10.272Z</time></trkpt><trkpt lat="43.8906767" lon="6.5369567"><ele>923.3333333333333</ele><time>2026-05-03T08:55:11.272Z</time></trkpt><trkpt lat="43.8907383" lon="6.53677"><ele>931.6666666666666</ele><time>2026-05-03T08:55:12.272Z</time></trkpt><trkpt lat="43.89084" lon="6.536585"><ele>940.0</ele><time>2026-05-03T08:55:13.272Z</time></trkpt><trkpt lat="43.8909367" lon="6.5364017"><ele>940.0</ele><time>2026-05-03T08:55:14.272Z</time></trkpt><trkpt lat="43.8910183" lon="6.5362217"><ele>940.0</ele><time>2026-05-03T08:55:15.273Z</time></trkpt><trkpt lat="43.8911067" lon="6.53605"><ele>940.0</ele><time>2026-05-03T08:55:16.273Z</time></trkpt><trkpt lat="43.8911967" lon="6.535905"><ele>940.0</ele><time>2026-05-03T08:55:17.272Z</time></trkpt><trkpt lat="43.891295" lon="6.5358017"><ele>930.5</ele><time>2026-05-03T08:55:18.272Z</time></trkpt><trkpt lat="43.8913983" lon="6.5357017"><ele>921.0</ele><time>2026-05-03T08:55:19.272Z</time></trkpt><trkpt lat="43.8915333" lon="6.5356783"><ele>911.5</ele><time>2026-05-03T08:55:20.272Z</time></trkpt><trkpt lat="43.8916417" lon="6.5356"><ele>902.0</ele><time>2026-05-03T08:55:21.272Z</time></trkpt><trkpt lat="43.8917517" lon="6.5355267"><ele>902.25</ele><time>2026-05-03T08:55:22.273Z</time></trkpt><trkpt lat="43.89186" lon="6.5354567"><ele>902.5</ele><time>2026-05-03T08:55:23.272Z</time></trkpt><trkpt lat="43.8919683" lon="6.535385"><ele>902.75</ele><time>2026-05-03T08:55:24.272Z</time></trkpt><trkpt lat="43.892085" lon="6.5353633"><ele>903.0</ele><time>2026-05-03T08:55:25.272Z</time></trkpt><trkpt lat="43.8922983" lon="6.5355383"><ele>903.0</ele><time>2026-05-03T08:55:26.272Z</time></trkpt><trkpt lat="43.8925783" lon="6.5357433"><ele>903.0</ele><time>2026-05-03T08:55:27.272Z</time></trkpt><trkpt lat="43.8926933" lon="6.5358267"><ele>903.0</ele><time>2026-05-03T08:55:28.272Z</time></trkpt><trkpt lat="43.892805" lon="6.53595"><ele>900.6666666666667</ele><time>2026-05-03T08:55:29.272Z</time></trkpt><trkpt lat="43.8929217" lon="6.53607"><ele>898.3333333333334</ele><time>2026-05-03T08:55:30.272Z</time></trkpt><trkpt lat="43.893035" lon="6.5362"><ele>896.0</ele><time>2026-05-03T08:55:31.272Z</time></trkpt><trkpt lat="43.8931583" lon="6.5363517"><ele>896.0</ele><time>2026-05-03T08:55:32.272Z</time></trkpt><trkpt lat="43.8932767" lon="6.5365167"><ele>896.0</ele><time>2026-05-03T08:55:33.272Z</time></trkpt><trkpt lat="43.893375" lon="6.536695"><ele>896.0</ele><time>2026-05-03T08:55:34.272Z</time></trkpt><trkpt lat="43.89346" lon="6.536885"><ele>888.0</ele><time>2026-05-03T08:55:35.272Z</time></trkpt><trkpt lat="43.89351" lon="6.5370967"><ele>880.0</ele><time>2026-05-03T08:55:36.272Z</time></trkpt><trkpt lat="43.89357" lon="6.5373083"><ele>872.0</ele><time>2026-05-03T08:55:37.272Z</time></trkpt><trkpt lat="43.893635" lon="6.5375217"><ele>872.0</ele><time>2026-05-03T08:55:38.272Z</time></trkpt><trkpt lat="43.8937067" lon="6.53772"><ele>872.0</ele><time>2026-05-03T08:55:39.272Z</time></trkpt><trkpt lat="43.89379" lon="6.537915"><ele>872.0</ele><time>2026-05-03T08:55:40.272Z</time></trkpt><trkpt lat="43.8938617" lon="6.5380917"><ele>881.0</ele><time>2026-05-03T08:55:41.272Z</time></trkpt><trkpt lat="43.893955" lon="6.5382517"><ele>890.0</ele><time>2026-05-03T08:55:42.272Z</time></trkpt><trkpt lat="43.894075" lon="6.5383883"><ele>899.0</ele><time>2026-05-03T08:55:43.272Z</time></trkpt><trkpt lat="43.8942" lon="6.5385317"><ele>895.6666666666667</ele><time>2026-05-03T08:55:44.272Z</time></trkpt><trkpt lat="43.8943267" lon="6.5386733"><ele>892.3333333333333</ele><time>2026-05-03T08:55:45.272Z</time></trkpt><trkpt lat="43.894445" lon="6.5388067"><ele>889.0</ele><time>2026-05-03T08:55:46.272Z</time></trkpt><trkpt lat="43.894565" lon="6.5389417"><ele>889.0</ele><time>2026-05-03T08:55:47.272Z</time></trkpt><trkpt lat="43.8946717" lon="6.5390917"><ele>889.0</ele><time>2026-05-03T08:55:48.272Z</time></trkpt><trkpt lat="43.8947683" lon="6.53926"><ele>889.0</ele><time>2026-05-03T08:55:49.272Z</time></trkpt><trkpt lat="43.8948633" lon="6.5394517"><ele>893.3333333333333</ele><time>2026-05-03T08:55:50.272Z</time></trkpt><trkpt lat="43.8949517" lon="6.5396533"><ele>897.6666666666667</ele><time>2026-05-03T08:55:51.272Z</time></trkpt><trkpt lat="43.895035" lon="6.5398633"><ele>902.0</ele><time>2026-05-03T08:55:52.272Z</time></trkpt><trkpt lat="43.895135" lon="6.5400517"><ele>902.0</ele><time>2026-05-03T08:55:53.273Z</time></trkpt><trkpt lat="43.89525" lon="6.54021"><ele>902.0</ele><time>2026-05-03T08:55:54.272Z</time></trkpt><trkpt lat="43.8953517" lon="6.5403417"><ele>902.0</ele><time>2026-05-03T08:55:55.272Z</time></trkpt><trkpt lat="43.895445" lon="6.54046"><ele>902.0</ele><time>2026-05-03T08:55:56.272Z</time></trkpt><trkpt lat="43.8955433" lon="6.5405383"><ele>902.0</ele><time>2026-05-03T08:55:57.272Z</time></trkpt><trkpt lat="43.8956433" lon="6.5405633"><ele>902.0</ele><time>2026-05-03T08:55:58.273Z</time></trkpt><trkpt lat="43.8957583" lon="6.5405233"><ele>902.0</ele><time>2026-05-03T08:55:59.272Z</time></trkpt><trkpt lat="43.8958483" lon="6.5404383"><ele>902.0</ele><time>2026-05-03T08:56:00.272Z</time></trkpt><trkpt lat="43.8959133" lon="6.5403033"><ele>902.0</ele><time>2026-05-03T08:56:01.272Z</time></trkpt><trkpt lat="43.895935" lon="6.54014"><ele>902.0</ele><time>2026-05-03T08:56:02.272Z</time></trkpt><trkpt lat="43.8959317" lon="6.539945"><ele>902.0</ele><time>2026-05-03T08:56:03.272Z</time></trkpt><trkpt lat="43.895895" lon="6.539755"><ele>902.0</ele><time>2026-05-03T08:56:04.272Z</time></trkpt><trkpt lat="43.8958483" lon="6.539555"><ele>902.0</ele><time>2026-05-03T08:56:05.273Z</time></trkpt><trkpt lat="43.895815" lon="6.5393517"><ele>901.3333333333334</ele><time>2026-05-03T08:56:06.272Z</time></trkpt><trkpt lat="43.8957783" lon="6.53915"><ele>900.6666666666667</ele><time>2026-05-03T08:56:07.272Z</time></trkpt><trkpt lat="43.8957367" lon="6.5389517"><ele>900.0</ele><time>2026-05-03T08:56:08.273Z</time></trkpt><trkpt lat="43.8957117" lon="6.53874"><ele>899.25</ele><time>2026-05-03T08:56:09.272Z</time></trkpt><trkpt lat="43.895675" lon="6.5385483"><ele>898.5</ele><time>2026-05-03T08:56:10.272Z</time></trkpt><trkpt lat="43.8956417" lon="6.538355"><ele>897.75</ele><time>2026-05-03T08:56:11.272Z</time></trkpt><trkpt lat="43.8956283" lon="6.538175"><ele>897.0</ele><time>2026-05-03T08:56:12.272Z</time></trkpt><trkpt lat="43.8956467" lon="6.53801"><ele>898.0</ele><time>2026-05-03T08:56:13.272Z</time></trkpt><trkpt lat="43.89571" lon="6.537875"><ele>899.0</ele><time>2026-05-03T08:56:14.273Z</time></trkpt><trkpt lat="43.8958167" lon="6.5377967"><ele>900.0</ele><time>2026-05-03T08:56:15.272Z</time></trkpt><trkpt lat="43.8959333" lon="6.5378133"><ele>901.0</ele><time>2026-05-03T08:56:16.273Z</time></trkpt><trkpt lat="43.89604" lon="6.5379117"><ele>901.0</ele><time>2026-05-03T08:56:17.272Z</time></trkpt><trkpt lat="43.89613" lon="6.5380517"><ele>901.0</ele><time>2026-05-03T08:56:18.272Z</time></trkpt><trkpt lat="43.8962117" lon="6.5382033"><ele>901.0</ele><time>2026-05-03T08:56:19.272Z</time></trkpt><trkpt lat="43.8963167" lon="6.53833"><ele>901.0</ele><time>2026-05-03T08:56:20.272Z</time></trkpt><trkpt lat="43.8964383" lon="6.5383967"><ele>901.0</ele><time>2026-05-03T08:56:21.272Z</time></trkpt><trkpt lat="43.8965667" lon="6.5383983"><ele>901.0</ele><time>2026-05-03T08:56:22.272Z</time></trkpt><trkpt lat="43.8967" lon="6.5383267"><ele>901.0</ele><time>2026-05-03T08:56:23.273Z</time></trkpt><trkpt lat="43.89682" lon="6.5382483"><ele>901.0</ele><time>2026-05-03T08:56:24.272Z</time></trkpt><trkpt lat="43.8969583" lon="6.5382017"><ele>900.75</ele><time>2026-05-03T08:56:25.273Z</time></trkpt><trkpt lat="43.8970883" lon="6.5382217"><ele>900.5</ele><time>2026-05-03T08:56:26.272Z</time></trkpt><trkpt lat="43.8972117" lon="6.5383133"><ele>900.25</ele><time>2026-05-03T08:56:27.272Z</time></trkpt><trkpt lat="43.8973383" lon="6.5384367"><ele>900.0</ele><time>2026-05-03T08:56:28.272Z</time></trkpt><trkpt lat="43.89747" lon="6.538545"><ele>895.6666666666667</ele><time>2026-05-03T08:56:29.272Z</time></trkpt><trkpt lat="43.8976183" lon="6.5386333"><ele>891.3333333333334</ele><time>2026-05-03T08:56:30.272Z</time></trkpt><trkpt lat="43.8977567" lon="6.538715"><ele>887.0</ele><time>2026-05-03T08:56:31.272Z</time></trkpt><trkpt lat="43.897895" lon="6.5387867"><ele>891.5</ele><time>2026-05-03T08:56:32.272Z</time></trkpt><trkpt lat="43.8980233" lon="6.5388533"><ele>896.0</ele><time>2026-05-03T08:56:33.272Z</time></trkpt><trkpt lat="43.8981583" lon="6.5389033"><ele>900.5</ele><time>2026-05-03T08:56:34.273Z</time></trkpt><trkpt lat="43.8983" lon="6.5389117"><ele>905.0</ele><time>2026-05-03T08:56:35.272Z</time></trkpt><trkpt lat="43.8984417" lon="6.5389133"><ele>905.0</ele><time>2026-05-03T08:56:36.272Z</time></trkpt><trkpt lat="43.8985683" lon="6.53897"><ele>905.0</ele><time>2026-05-03T08:56:37.272Z</time></trkpt><trkpt lat="43.8987033" lon="6.539065"><ele>905.0</ele><time>2026-05-03T08:56:38.272Z</time></trkpt><trkpt lat="43.8988433" lon="6.5391783"><ele>905.0</ele><time>2026-05-03T08:56:39.272Z</time></trkpt><trkpt lat="43.89899" lon="6.5392617"><ele>905.0</ele><time>2026-05-03T08:56:40.272Z</time></trkpt><trkpt lat="43.8991317" lon="6.5393383"><ele>905.0</ele><time>2026-05-03T08:56:41.272Z</time></trkpt><trkpt lat="43.8992667" lon="6.53942"><ele>905.0</ele><time>2026-05-03T08:56:42.272Z</time></trkpt><trkpt lat="43.8993983" lon="6.539515"><ele>905.0</ele><time>2026-05-03T08:56:43.272Z</time></trkpt><trkpt lat="43.8995117" lon="6.5396583"><ele>903.0</ele><time>2026-05-03T08:56:44.272Z</time></trkpt><trkpt lat="43.8996183" lon="6.53983"><ele>901.0</ele><time>2026-05-03T08:56:45.272Z</time></trkpt><trkpt lat="43.89971" lon="6.54003"><ele>899.0</ele><time>2026-05-03T08:56:46.272Z</time></trkpt><trkpt lat="43.8997933" lon="6.5402283"><ele>907.3333333333334</ele><time>2026-05-03T08:56:47.272Z</time></trkpt><trkpt lat="43.899895" lon="6.54041"><ele>915.6666666666667</ele><time>2026-05-03T08:56:48.272Z</time></trkpt><trkpt lat="43.9000017" lon="6.5405633"><ele>924.0</ele><time>2026-05-03T08:56:49.272Z</time></trkpt><trkpt lat="43.90012" lon="6.54068"><ele>924.0</ele><time>2026-05-03T08:56:50.272Z</time></trkpt><trkpt lat="43.9002483" lon="6.54074"><ele>924.0</ele><time>2026-05-03T08:56:51.272Z</time></trkpt><trkpt lat="43.9004017" lon="6.5407383"><ele>924.0</ele><time>2026-05-03T08:56:52.272Z</time></trkpt><trkpt lat="43.9005617" lon="6.5406967"><ele>924.0</ele><time>2026-05-03T08:56:53.272Z</time></trkpt><trkpt lat="43.900715" lon="6.54063"><ele>924.0</ele><time>2026-05-03T08:56:54.272Z</time></trkpt><trkpt lat="43.9008617" lon="6.5405833"><ele>924.0</ele><time>2026-05-03T08:56:55.272Z</time></trkpt><trkpt lat="43.9009917" lon="6.5405833"><ele>924.0</ele><time>2026-05-03T08:56:56.272Z</time></trkpt><trkpt lat="43.9010967" lon="6.5406483"><ele>919.75</ele><time>2026-05-03T08:56:57.272Z</time></trkpt><trkpt lat="43.9011833" lon="6.5407683"><ele>915.5</ele><time>2026-05-03T08:56:58.272Z</time></trkpt><trkpt lat="43.9012533" lon="6.5409517"><ele>911.25</ele><time>2026-05-03T08:56:59.272Z</time></trkpt><trkpt lat="43.9013067" lon="6.5411733"><ele>907.0</ele><time>2026-05-03T08:57:00.272Z</time></trkpt><trkpt lat="43.9013567" lon="6.5413933"><ele>907.0</ele><time>2026-05-03T08:57:01.272Z</time></trkpt><trkpt lat="43.9014183" lon="6.54161"><ele>907.0</ele><time>2026-05-03T08:57:02.272Z</time></trkpt><trkpt lat="43.901475" lon="6.5418183"><ele>907.0</ele><time>2026-05-03T08:57:03.272Z</time></trkpt><trkpt lat="43.9015417" lon="6.54202"><ele>910.25</ele><time>2026-05-03T08:57:04.272Z</time></trkpt><trkpt lat="43.9015983" lon="6.5422033"><ele>913.5</ele><time>2026-05-03T08:57:05.272Z</time></trkpt><trkpt lat="43.9016883" lon="6.5423717"><ele>916.75</ele><time>2026-05-03T08:57:06.272Z</time></trkpt><trkpt lat="43.9017917" lon="6.5425017"><ele>920.0</ele><time>2026-05-03T08:57:07.272Z</time></trkpt><trkpt lat="43.90191" lon="6.542615"><ele>920.0</ele><time>2026-05-03T08:57:08.272Z</time></trkpt><trkpt lat="43.90202" lon="6.5427"><ele>920.0</ele><time>2026-05-03T08:57:09.272Z</time></trkpt><trkpt lat="43.9021233" lon="6.5427533"><ele>920.0</ele><time>2026-05-03T08:57:10.272Z</time></trkpt><trkpt lat="43.9022233" lon="6.5427767"><ele>920.0</ele><time>2026-05-03T08:57:11.272Z</time></trkpt><trkpt lat="43.902335" lon="6.5427467"><ele>920.0</ele><time>2026-05-03T08:57:12.273Z</time></trkpt><trkpt lat="43.90243" lon="6.5426733"><ele>920.0</ele><time>2026-05-03T08:57:13.273Z</time></trkpt><trkpt lat="43.902505" lon="6.54255"><ele>920.0</ele><time>2026-05-03T08:57:14.272Z</time></trkpt><trkpt lat="43.9025517" lon="6.5424083"><ele>920.0</ele><time>2026-05-03T08:57:15.272Z</time></trkpt><trkpt lat="43.902575" lon="6.54223"><ele>921.25</ele><time>2026-05-03T08:57:16.272Z</time></trkpt><trkpt lat="43.9025917" lon="6.5420317"><ele>922.5</ele><time>2026-05-03T08:57:17.272Z</time></trkpt><trkpt lat="43.9026183" lon="6.5418467"><ele>923.75</ele><time>2026-05-03T08:57:18.272Z</time></trkpt><trkpt lat="43.9026867" lon="6.541695"><ele>925.0</ele><time>2026-05-03T08:57:19.272Z</time></trkpt><trkpt lat="43.90279" lon="6.54156"><ele>925.0</ele><time>2026-05-03T08:57:20.272Z</time></trkpt><trkpt lat="43.902915" lon="6.5414633"><ele>925.0</ele><time>2026-05-03T08:57:21.272Z</time></trkpt><trkpt lat="43.9030483" lon="6.5414133"><ele>925.0</ele><time>2026-05-03T08:57:22.272Z</time></trkpt><trkpt lat="43.9031967" lon="6.5413783"><ele>925.0</ele><time>2026-05-03T08:57:23.272Z</time></trkpt><trkpt lat="43.9033583" lon="6.5413583"><ele>921.6666666666666</ele><time>2026-05-03T08:57:24.272Z</time></trkpt><trkpt lat="43.9035083" lon="6.541375"><ele>918.3333333333333</ele><time>2026-05-03T08:57:25.272Z</time></trkpt><trkpt lat="43.9036533" lon="6.5414283"><ele>915.0</ele><time>2026-05-03T08:57:26.272Z</time></trkpt><trkpt lat="43.9037833" lon="6.54153"><ele>915.0</ele><time>2026-05-03T08:57:27.272Z</time></trkpt><trkpt lat="43.9039017" lon="6.5416683"><ele>915.0</ele><time>2026-05-03T08:57:28.272Z</time></trkpt><trkpt lat="43.9040333" lon="6.5417933"><ele>915.0</ele><time>2026-05-03T08:57:29.272Z</time></trkpt><trkpt lat="43.9041733" lon="6.5418783"><ele>918.3333333333333</ele><time>2026-05-03T08:57:30.272Z</time></trkpt><trkpt lat="43.90432" lon="6.5419483"><ele>921.6666666666666</ele><time>2026-05-03T08:57:31.272Z</time></trkpt><trkpt lat="43.90445" lon="6.5420267"><ele>925.0</ele><time>2026-05-03T08:57:32.272Z</time></trkpt><trkpt lat="43.9045883" lon="6.5421383"><ele>925.0</ele><time>2026-05-03T08:57:33.272Z</time></trkpt><trkpt lat="43.9047017" lon="6.54229"><ele>925.0</ele><time>2026-05-03T08:57:34.272Z</time></trkpt><trkpt lat="43.9047983" lon="6.5424467"><ele>925.0</ele><time>2026-05-03T08:57:35.272Z</time></trkpt><trkpt lat="43.9049" lon="6.5425933"><ele>925.0</ele><time>2026-05-03T08:57:36.272Z</time></trkpt><trkpt lat="43.9050233" lon="6.5426933"><ele>925.0</ele><time>2026-05-03T08:57:37.272Z</time></trkpt><trkpt lat="43.9051517" lon="6.54274"><ele>925.0</ele><time>2026-05-03T08:57:38.272Z</time></trkpt><trkpt lat="43.9052833" lon="6.5427283"><ele>925.0</ele><time>2026-05-03T08:57:39.272Z</time></trkpt><trkpt lat="43.9054267" lon="6.5426717"><ele>922.5</ele><time>2026-05-03T08:57:40.272Z</time></trkpt><trkpt lat="43.9055583" lon="6.542595"><ele>920.0</ele><time>2026-05-03T08:57:41.272Z</time></trkpt><trkpt lat="43.9056833" lon="6.5425733"><ele>917.5</ele><time>2026-05-03T08:57:42.272Z</time></trkpt><trkpt lat="43.90581" lon="6.5426"><ele>915.0</ele><time>2026-05-03T08:57:43.272Z</time></trkpt><trkpt lat="43.9059167" lon="6.542695"><ele>917.3333333333333</ele><time>2026-05-03T08:57:44.272Z</time></trkpt><trkpt lat="43.9060283" lon="6.5428383"><ele>919.6666666666666</ele><time>2026-05-03T08:57:45.272Z</time></trkpt><trkpt lat="43.9061317" lon="6.5429967"><ele>922.0</ele><time>2026-05-03T08:57:46.272Z</time></trkpt><trkpt lat="43.90624" lon="6.5431567"><ele>922.0</ele><time>2026-05-03T08:57:47.272Z</time></trkpt><trkpt lat="43.9063683" lon="6.5432867"><ele>922.0</ele><time>2026-05-03T08:57:48.272Z</time></trkpt><trkpt lat="43.9065083" lon="6.5434083"><ele>922.0</ele><time>2026-05-03T08:57:49.273Z</time></trkpt><trkpt lat="43.90665" lon="6.5435333"><ele>923.6666666666666</ele><time>2026-05-03T08:57:50.272Z</time></trkpt><trkpt lat="43.9068033" lon="6.5436533"><ele>925.3333333333333</ele><time>2026-05-03T08:57:51.272Z</time></trkpt><trkpt lat="43.9069583" lon="6.54378"><ele>927.0</ele><time>2026-05-03T08:57:52.273Z</time></trkpt><trkpt lat="43.9071017" lon="6.54391"><ele>927.0</ele><time>2026-05-03T08:57:53.272Z</time></trkpt><trkpt lat="43.90724" lon="6.5440517"><ele>927.0</ele><time>2026-05-03T08:57:54.272Z</time></trkpt><trkpt lat="43.907365" lon="6.544205"><ele>927.0</ele><time>2026-05-03T08:57:55.273Z</time></trkpt><trkpt lat="43.9074817" lon="6.54434"><ele>925.5</ele><time>2026-05-03T08:57:56.272Z</time></trkpt><trkpt lat="43.9076067" lon="6.5444517"><ele>924.0</ele><time>2026-05-03T08:57:57.272Z</time></trkpt><trkpt lat="43.90774" lon="6.544505"><ele>922.5</ele><time>2026-05-03T08:57:58.272Z</time></trkpt><trkpt lat="43.9078967" lon="6.5445233"><ele>921.0</ele><time>2026-05-03T08:57:59.272Z</time></trkpt><trkpt lat="43.9080667" lon="6.5445333"><ele>918.0</ele><time>2026-05-03T08:58:00.272Z</time></trkpt><trkpt lat="43.9082317" lon="6.5445717"><ele>915.0</ele><time>2026-05-03T08:58:01.272Z</time></trkpt><trkpt lat="43.908395" lon="6.544645"><ele>912.0</ele><time>2026-05-03T08:58:02.272Z</time></trkpt><trkpt lat="43.9085283" lon="6.5447683"><ele>912.0</ele><time>2026-05-03T08:58:03.272Z</time></trkpt><trkpt lat="43.908655" lon="6.5449267"><ele>912.0</ele><time>2026-05-03T08:58:04.272Z</time></trkpt><trkpt lat="43.908765" lon="6.54511"><ele>912.0</ele><time>2026-05-03T08:58:05.272Z</time></trkpt><trkpt lat="43.9088583" lon="6.545305"><ele>916.6666666666667</ele><time>2026-05-03T08:58:06.272Z</time></trkpt><trkpt lat="43.90894" lon="6.5455167"><ele>921.3333333333334</ele><time>2026-05-03T08:58:07.272Z</time></trkpt><trkpt lat="43.9090267" lon="6.54575"><ele>926.0</ele><time>2026-05-03T08:58:08.273Z</time></trkpt><trkpt lat="43.9091117" lon="6.5459617"><ele>926.0</ele><time>2026-05-03T08:58:09.272Z</time></trkpt><trkpt lat="43.9092067" lon="6.546175"><ele>926.0</ele><time>2026-05-03T08:58:10.272Z</time></trkpt><trkpt lat="43.9093033" lon="6.54638"><ele>926.0</ele><time>2026-05-03T08:58:11.273Z</time></trkpt><trkpt lat="43.909395" lon="6.5465917"><ele>922.6666666666667</ele><time>2026-05-03T08:58:12.272Z</time></trkpt><trkpt lat="43.909495" lon="6.5467883"><ele>919.3333333333333</ele><time>2026-05-03T08:58:13.272Z</time></trkpt><trkpt lat="43.9095967" lon="6.5469817"><ele>916.0</ele><time>2026-05-03T08:58:14.272Z</time></trkpt><trkpt lat="43.909705" lon="6.5471467"><ele>916.0</ele><time>2026-05-03T08:58:15.272Z</time></trkpt><trkpt lat="43.9098283" lon="6.547285"><ele>916.0</ele><time>2026-05-03T08:58:16.272Z</time></trkpt><trkpt lat="43.9099367" lon="6.5474183"><ele>916.0</ele><time>2026-05-03T08:58:17.273Z</time></trkpt><trkpt lat="43.9100483" lon="6.5475833"><ele>906.0</ele><time>2026-05-03T08:58:18.272Z</time></trkpt><trkpt lat="43.9101083" lon="6.547775"><ele>896.0</ele><time>2026-05-03T08:58:19.272Z</time></trkpt><trkpt lat="43.91013" lon="6.5479717"><ele>886.0</ele><time>2026-05-03T08:58:20.272Z</time></trkpt><trkpt lat="43.910155" lon="6.5482017"><ele>886.0</ele><time>2026-05-03T08:58:21.272Z</time></trkpt><trkpt lat="43.9101833" lon="6.5484283"><ele>886.0</ele><time>2026-05-03T08:58:22.272Z</time></trkpt><trkpt lat="43.9102533" lon="6.5486367"><ele>886.0</ele><time>2026-05-03T08:58:23.273Z</time></trkpt><trkpt lat="43.910355" lon="6.5488017"><ele>888.0</ele><time>2026-05-03T08:58:24.273Z</time></trkpt><trkpt lat="43.9104683" lon="6.5489433"><ele>890.0</ele><time>2026-05-03T08:58:25.272Z</time></trkpt><trkpt lat="43.910565" lon="6.5491017"><ele>892.0</ele><time>2026-05-03T08:58:26.272Z</time></trkpt><trkpt lat="43.910625" lon="6.549285"><ele>894.0</ele><time>2026-05-03T08:58:27.272Z</time></trkpt><trkpt lat="43.9106367" lon="6.5494683"><ele>895.25</ele><time>2026-05-03T08:58:28.272Z</time></trkpt><trkpt lat="43.91061" lon="6.5496667"><ele>896.5</ele><time>2026-05-03T08:58:29.273Z</time></trkpt><trkpt lat="43.9105683" lon="6.5498683"><ele>897.75</ele><time>2026-05-03T08:58:30.272Z</time></trkpt><trkpt lat="43.9105317" lon="6.55007"><ele>899.0</ele><time>2026-05-03T08:58:31.272Z</time></trkpt><trkpt lat="43.910535" lon="6.5502667"><ele>897.25</ele><time>2026-05-03T08:58:32.272Z</time></trkpt><trkpt lat="43.9105817" lon="6.5504433"><ele>895.5</ele><time>2026-05-03T08:58:33.272Z</time></trkpt><trkpt lat="43.9106733" lon="6.5505883"><ele>893.75</ele><time>2026-05-03T08:58:34.272Z</time></trkpt><trkpt lat="43.9108" lon="6.5507"><ele>892.0</ele><time>2026-05-03T08:58:35.273Z</time></trkpt><trkpt lat="43.9109483" lon="6.5507867"><ele>892.0</ele><time>2026-05-03T08:58:36.273Z</time></trkpt><trkpt lat="43.9111133" lon="6.5508883"><ele>892.0</ele><time>2026-05-03T08:58:37.273Z</time></trkpt><trkpt lat="43.9112633" lon="6.5510117"><ele>892.0</ele><time>2026-05-03T08:58:38.273Z</time></trkpt><trkpt lat="43.9114067" lon="6.5511217"><ele>892.0</ele><time>2026-05-03T08:58:39.272Z</time></trkpt><trkpt lat="43.9115567" lon="6.5512133"><ele>892.0</ele><time>2026-05-03T08:58:40.272Z</time></trkpt><trkpt lat="43.9116967" lon="6.5512917"><ele>892.0</ele><time>2026-05-03T08:58:41.272Z</time></trkpt><trkpt lat="43.9118367" lon="6.551365"><ele>892.0</ele><time>2026-05-03T08:58:42.273Z</time></trkpt><trkpt lat="43.911975" lon="6.5514683"><ele>892.0</ele><time>2026-05-03T08:58:43.272Z</time></trkpt><trkpt lat="43.9120967" lon="6.5515983"><ele>892.0</ele><time>2026-05-03T08:58:44.273Z</time></trkpt><trkpt lat="43.9122017" lon="6.5517483"><ele>892.0</ele><time>2026-05-03T08:58:45.272Z</time></trkpt><trkpt lat="43.912305" lon="6.5519"><ele>892.0</ele><time>2026-05-03T08:58:46.272Z</time></trkpt><trkpt lat="43.9124083" lon="6.552055"><ele>892.0</ele><time>2026-05-03T08:58:47.273Z</time></trkpt><trkpt lat="43.912505" lon="6.5521933"><ele>892.0</ele><time>2026-05-03T08:58:48.272Z</time></trkpt><trkpt lat="43.9125917" lon="6.5523267"><ele>898.0</ele><time>2026-05-03T08:58:49.273Z</time></trkpt><trkpt lat="43.9126683" lon="6.552435"><ele>904.0</ele><time>2026-05-03T08:58:50.272Z</time></trkpt><trkpt lat="43.912755" lon="6.552505"><ele>910.0</ele><time>2026-05-03T08:58:51.273Z</time></trkpt><trkpt lat="43.9128483" lon="6.5525133"><ele>916.0</ele><time>2026-05-03T08:58:52.272Z</time></trkpt><trkpt lat="43.9129367" lon="6.5524533"><ele>922.0</ele><time>2026-05-03T08:58:53.272Z</time></trkpt><trkpt lat="43.9130083" lon="6.5523417"><ele>922.0</ele><time>2026-05-03T08:58:54.273Z</time></trkpt><trkpt lat="43.9130483" lon="6.552195"><ele>922.0</ele><time>2026-05-03T08:58:55.272Z</time></trkpt><trkpt lat="43.9130717" lon="6.55202"><ele>922.0</ele><time>2026-05-03T08:58:56.272Z</time></trkpt><trkpt lat="43.9130883" lon="6.55184"><ele>922.0</ele><time>2026-05-03T08:58:57.272Z</time></trkpt><trkpt lat="43.9131033" lon="6.55167"><ele>922.5</ele><time>2026-05-03T08:58:58.272Z</time></trkpt><trkpt lat="43.91312" lon="6.551495"><ele>923.0</ele><time>2026-05-03T08:58:59.272Z</time></trkpt><trkpt lat="43.913135" lon="6.551315"><ele>923.5</ele><time>2026-05-03T08:59:00.272Z</time></trkpt><trkpt lat="43.91316" lon="6.5511283"><ele>924.0</ele><time>2026-05-03T08:59:01.273Z</time></trkpt><trkpt lat="43.9131667" lon="6.5509467"><ele>924.0</ele><time>2026-05-03T08:59:02.272Z</time></trkpt><trkpt lat="43.9131433" lon="6.5507633"><ele>924.0</ele><time>2026-05-03T08:59:03.272Z</time></trkpt><trkpt lat="43.9130883" lon="6.550605"><ele>924.0</ele><time>2026-05-03T08:59:04.272Z</time></trkpt><trkpt lat="43.9130033" lon="6.550465"><ele>924.0</ele><time>2026-05-03T08:59:05.272Z</time></trkpt><trkpt lat="43.912895" lon="6.5503583"><ele>928.5</ele><time>2026-05-03T08:59:06.272Z</time></trkpt><trkpt lat="43.9127733" lon="6.5502883"><ele>933.0</ele><time>2026-05-03T08:59:07.272Z</time></trkpt><trkpt lat="43.9126483" lon="6.5502267"><ele>937.5</ele><time>2026-05-03T08:59:08.272Z</time></trkpt><trkpt lat="43.9125383" lon="6.5501367"><ele>942.0</ele><time>2026-05-03T08:59:09.272Z</time></trkpt><trkpt lat="43.9124683" lon="6.5500117"><ele>933.0</ele><time>2026-05-03T08:59:10.272Z</time></trkpt><trkpt lat="43.9124433" lon="6.549845"><ele>924.0</ele><time>2026-05-03T08:59:11.272Z</time></trkpt><trkpt lat="43.9124367" lon="6.5496583"><ele>915.0</ele><time>2026-05-03T08:59:12.272Z</time></trkpt><trkpt lat="43.9124733" lon="6.5494633"><ele>906.0</ele><time>2026-05-03T08:59:13.272Z</time></trkpt><trkpt lat="43.9125133" lon="6.5492817"><ele>906.0</ele><time>2026-05-03T08:59:14.272Z</time></trkpt><trkpt lat="43.9125483" lon="6.5491017"><ele>906.0</ele><time>2026-05-03T08:59:15.272Z</time></trkpt><trkpt lat="43.9125917" lon="6.5489233"><ele>906.0</ele><time>2026-05-03T08:59:16.272Z</time></trkpt><trkpt lat="43.912645" lon="6.5487417"><ele>906.0</ele><time>2026-05-03T08:59:17.272Z</time></trkpt><trkpt lat="43.91272" lon="6.548575"><ele>913.5</ele><time>2026-05-03T08:59:18.272Z</time></trkpt><trkpt lat="43.9128017" lon="6.54842"><ele>921.0</ele><time>2026-05-03T08:59:19.272Z</time></trkpt><trkpt lat="43.9129017" lon="6.5482883"><ele>928.5</ele><time>2026-05-03T08:59:20.272Z</time></trkpt><trkpt lat="43.9130033" lon="6.548155"><ele>936.0</ele><time>2026-05-03T08:59:21.272Z</time></trkpt><trkpt lat="43.913095" lon="6.5480167"><ele>933.75</ele><time>2026-05-03T08:59:22.272Z</time></trkpt><trkpt lat="43.9131467" lon="6.5478567"><ele>931.5</ele><time>2026-05-03T08:59:23.272Z</time></trkpt><trkpt lat="43.9131517" lon="6.547685"><ele>929.25</ele><time>2026-05-03T08:59:24.272Z</time></trkpt><trkpt lat="43.91315" lon="6.5475167"><ele>927.0</ele><time>2026-05-03T08:59:25.272Z</time></trkpt><trkpt lat="43.91316" lon="6.54735"><ele>927.0</ele><time>2026-05-03T08:59:26.272Z</time></trkpt><trkpt lat="43.913185" lon="6.5471767"><ele>927.0</ele><time>2026-05-03T08:59:27.272Z</time></trkpt><trkpt lat="43.913235" lon="6.5470067"><ele>927.0</ele><time>2026-05-03T08:59:28.272Z</time></trkpt><trkpt lat="43.913305" lon="6.5468533"><ele>927.0</ele><time>2026-05-03T08:59:29.272Z</time></trkpt><trkpt lat="43.9133817" lon="6.5467083"><ele>929.25</ele><time>2026-05-03T08:59:30.272Z</time></trkpt><trkpt lat="43.9134567" lon="6.5465467"><ele>931.5</ele><time>2026-05-03T08:59:31.272Z</time></trkpt><trkpt lat="43.9135033" lon="6.5463683"><ele>933.75</ele><time>2026-05-03T08:59:32.272Z</time></trkpt><trkpt lat="43.913535" lon="6.54618"><ele>936.0</ele><time>2026-05-03T08:59:33.272Z</time></trkpt><trkpt lat="43.9135517" lon="6.545985"><ele>936.0</ele><time>2026-05-03T08:59:34.272Z</time></trkpt><trkpt lat="43.9135667" lon="6.5457883"><ele>936.0</ele><time>2026-05-03T08:59:35.272Z</time></trkpt><trkpt lat="43.9135783" lon="6.5455967"><ele>936.0</ele><time>2026-05-03T08:59:36.272Z</time></trkpt><trkpt lat="43.9136033" lon="6.5454117"><ele>936.0</ele><time>2026-05-03T08:59:37.272Z</time></trkpt><trkpt lat="43.9136417" lon="6.5452417"><ele>935.0</ele><time>2026-05-03T08:59:38.272Z</time></trkpt><trkpt lat="43.9136817" lon="6.5451083"><ele>934.0</ele><time>2026-05-03T08:59:39.272Z</time></trkpt><trkpt lat="43.9137233" lon="6.5450233"><ele>933.0</ele><time>2026-05-03T08:59:40.273Z</time></trkpt><trkpt lat="43.91377" lon="6.5449617"><ele>932.0</ele><time>2026-05-03T08:59:41.272Z</time></trkpt><trkpt lat="43.9138683" lon="6.544945"><ele>931.0</ele><time>2026-05-03T08:59:43.272Z</time></trkpt><trkpt lat="43.9139217" lon="6.5450717"><ele>930.0</ele><time>2026-05-03T08:59:45.272Z</time></trkpt><trkpt lat="43.913925" lon="6.5451867"><ele>930.0</ele><time>2026-05-03T08:59:46.272Z</time></trkpt><trkpt lat="43.9139117" lon="6.5453333"><ele>930.0</ele><time>2026-05-03T08:59:47.272Z</time></trkpt><trkpt lat="43.9138817" lon="6.545495"><ele>930.0</ele><time>2026-05-03T08:59:48.272Z</time></trkpt><trkpt lat="43.9138367" lon="6.5456733"><ele>930.0</ele><time>2026-05-03T08:59:49.272Z</time></trkpt><trkpt lat="43.9137833" lon="6.5458533"><ele>931.5</ele><time>2026-05-03T08:59:50.272Z</time></trkpt><trkpt lat="43.9137283" lon="6.546035"><ele>933.0</ele><time>2026-05-03T08:59:51.272Z</time></trkpt><trkpt lat="43.9136767" lon="6.5462283"><ele>934.5</ele><time>2026-05-03T08:59:52.273Z</time></trkpt><trkpt lat="43.9136367" lon="6.5464217"><ele>936.0</ele><time>2026-05-03T08:59:53.272Z</time></trkpt><trkpt lat="43.9135933" lon="6.5466167"><ele>938.75</ele><time>2026-05-03T08:59:54.272Z</time></trkpt><trkpt lat="43.913545" lon="6.5468067"><ele>941.5</ele><time>2026-05-03T08:59:55.272Z</time></trkpt><trkpt lat="43.9135" lon="6.546975"><ele>944.25</ele><time>2026-05-03T08:59:56.272Z</time></trkpt><trkpt lat="43.9134717" lon="6.5471533"><ele>947.0</ele><time>2026-05-03T08:59:57.272Z</time></trkpt><trkpt lat="43.9134633" lon="6.5473517"><ele>951.25</ele><time>2026-05-03T08:59:58.272Z</time></trkpt><trkpt lat="43.9134833" lon="6.5475367"><ele>955.5</ele><time>2026-05-03T08:59:59.273Z</time></trkpt><trkpt lat="43.9135017" lon="6.5477433"><ele>959.75</ele><time>2026-05-03T09:00:00.272Z</time></trkpt><trkpt lat="43.9134883" lon="6.54796"><ele>964.0</ele><time>2026-05-03T09:00:01.272Z</time></trkpt><trkpt lat="43.91346" lon="6.548165"><ele>968.6666666666666</ele><time>2026-05-03T09:00:02.272Z</time></trkpt><trkpt lat="43.913425" lon="6.5483617"><ele>973.3333333333333</ele><time>2026-05-03T09:00:03.272Z</time></trkpt><trkpt lat="43.913365" lon="6.5485683"><ele>978.0</ele><time>2026-05-03T09:00:04.272Z</time></trkpt><trkpt lat="43.9133133" lon="6.54876"><ele>967.6666666666667</ele><time>2026-05-03T09:00:05.272Z</time></trkpt><trkpt lat="43.9132767" lon="6.54897"><ele>957.3333333333334</ele><time>2026-05-03T09:00:06.272Z</time></trkpt><trkpt lat="43.9132717" lon="6.5491933"><ele>947.0</ele><time>2026-05-03T09:00:07.272Z</time></trkpt><trkpt lat="43.9132667" lon="6.5494133"><ele>945.75</ele><time>2026-05-03T09:00:08.272Z</time></trkpt><trkpt lat="43.9132733" lon="6.549615"><ele>944.5</ele><time>2026-05-03T09:00:09.272Z</time></trkpt><trkpt lat="43.913305" lon="6.5497967"><ele>943.25</ele><time>2026-05-03T09:00:10.273Z</time></trkpt><trkpt lat="43.9133817" lon="6.549955"><ele>942.0</ele><time>2026-05-03T09:00:11.272Z</time></trkpt><trkpt lat="43.913485" lon="6.5501067"><ele>953.0</ele><time>2026-05-03T09:00:12.272Z</time></trkpt><trkpt lat="43.9136" lon="6.5502717"><ele>964.0</ele><time>2026-05-03T09:00:13.272Z</time></trkpt><trkpt lat="43.9136983" lon="6.5504417"><ele>975.0</ele><time>2026-05-03T09:00:14.272Z</time></trkpt><trkpt lat="43.9137817" lon="6.5506333"><ele>975.0</ele><time>2026-05-03T09:00:15.272Z</time></trkpt><trkpt lat="43.9138517" lon="6.5508317"><ele>975.0</ele><time>2026-05-03T09:00:16.272Z</time></trkpt><trkpt lat="43.9139033" lon="6.55104"><ele>975.0</ele><time>2026-05-03T09:00:17.272Z</time></trkpt><trkpt lat="43.913935" lon="6.5512433"><ele>970.6666666666667</ele><time>2026-05-03T09:00:18.272Z</time></trkpt><trkpt lat="43.9139433" lon="6.5514567"><ele>966.3333333333334</ele><time>2026-05-03T09:00:19.272Z</time></trkpt><trkpt lat="43.91394" lon="6.5516767"><ele>962.0</ele><time>2026-05-03T09:00:20.272Z</time></trkpt><trkpt lat="43.91393" lon="6.5518867"><ele>964.6666666666667</ele><time>2026-05-03T09:00:21.273Z</time></trkpt><trkpt lat="43.9139217" lon="6.5521167"><ele>967.3333333333333</ele><time>2026-05-03T09:00:22.273Z</time></trkpt><trkpt lat="43.9139117" lon="6.552335"><ele>970.0</ele><time>2026-05-03T09:00:23.273Z</time></trkpt><trkpt lat="43.9139083" lon="6.5525617"><ele>970.0</ele><time>2026-05-03T09:00:24.273Z</time></trkpt><trkpt lat="43.9139133" lon="6.5527833"><ele>970.0</ele><time>2026-05-03T09:00:25.272Z</time></trkpt><trkpt lat="43.9139333" lon="6.5530133"><ele>970.0</ele><time>2026-05-03T09:00:26.272Z</time></trkpt><trkpt lat="43.9139583" lon="6.55324"><ele>974.0</ele><time>2026-05-03T09:00:27.272Z</time></trkpt><trkpt lat="43.9139817" lon="6.5534667"><ele>978.0</ele><time>2026-05-03T09:00:28.272Z</time></trkpt><trkpt lat="43.9140133" lon="6.5536933"><ele>982.0</ele><time>2026-05-03T09:00:29.272Z</time></trkpt><trkpt lat="43.914035" lon="6.5539317"><ele>983.0</ele><time>2026-05-03T09:00:30.272Z</time></trkpt><trkpt lat="43.91405" lon="6.5541867"><ele>984.0</ele><time>2026-05-03T09:00:31.272Z</time></trkpt><trkpt lat="43.91406" lon="6.554435"><ele>985.0</ele><time>2026-05-03T09:00:32.272Z</time></trkpt><trkpt lat="43.914065" lon="6.55468"><ele>990.3333333333333</ele><time>2026-05-03T09:00:33.272Z</time></trkpt><trkpt lat="43.914075" lon="6.5549367"><ele>995.6666666666667</ele><time>2026-05-03T09:00:34.272Z</time></trkpt><trkpt lat="43.9140817" lon="6.5551733"><ele>1001.0</ele><time>2026-05-03T09:00:35.272Z</time></trkpt><trkpt lat="43.9140567" lon="6.5553867"><ele>1001.0</ele><time>2026-05-03T09:00:36.272Z</time></trkpt><trkpt lat="43.9140133" lon="6.5556217"><ele>1001.0</ele><time>2026-05-03T09:00:37.272Z</time></trkpt><trkpt lat="43.913955" lon="6.5558417"><ele>1001.0</ele><time>2026-05-03T09:00:38.272Z</time></trkpt><trkpt lat="43.91389" lon="6.55606"><ele>998.75</ele><time>2026-05-03T09:00:39.272Z</time></trkpt><trkpt lat="43.9138333" lon="6.5562633"><ele>996.5</ele><time>2026-05-03T09:00:40.272Z</time></trkpt><trkpt lat="43.9137867" lon="6.556455"><ele>994.25</ele><time>2026-05-03T09:00:41.272Z</time></trkpt><trkpt lat="43.9137667" lon="6.5566567"><ele>992.0</ele><time>2026-05-03T09:00:42.272Z</time></trkpt><trkpt lat="43.9137667" lon="6.5568817"><ele>986.0</ele><time>2026-05-03T09:00:43.272Z</time></trkpt><trkpt lat="43.913805" lon="6.5570967"><ele>980.0</ele><time>2026-05-03T09:00:44.273Z</time></trkpt><trkpt lat="43.9138833" lon="6.557285"><ele>974.0</ele><time>2026-05-03T09:00:45.273Z</time></trkpt><trkpt lat="43.9140017" lon="6.55745"><ele>974.0</ele><time>2026-05-03T09:00:46.272Z</time></trkpt><trkpt lat="43.9141483" lon="6.557595"><ele>974.0</ele><time>2026-05-03T09:00:47.273Z</time></trkpt><trkpt lat="43.9142933" lon="6.55773"><ele>974.0</ele><time>2026-05-03T09:00:48.272Z</time></trkpt><trkpt lat="43.914445" lon="6.5578617"><ele>981.0</ele><time>2026-05-03T09:00:49.272Z</time></trkpt><trkpt lat="43.91458" lon="6.5580083"><ele>988.0</ele><time>2026-05-03T09:00:50.272Z</time></trkpt><trkpt lat="43.914695" lon="6.55819"><ele>995.0</ele><time>2026-05-03T09:00:51.272Z</time></trkpt><trkpt lat="43.9147833" lon="6.558395"><ele>995.0</ele><time>2026-05-03T09:00:52.272Z</time></trkpt><trkpt lat="43.9148417" lon="6.558625"><ele>995.0</ele><time>2026-05-03T09:00:53.272Z</time></trkpt><trkpt lat="43.9148717" lon="6.55887"><ele>995.0</ele><time>2026-05-03T09:00:54.272Z</time></trkpt><trkpt lat="43.9148917" lon="6.5591167"><ele>997.3333333333334</ele><time>2026-05-03T09:00:55.272Z</time></trkpt><trkpt lat="43.914895" lon="6.5593717"><ele>999.6666666666667</ele><time>2026-05-03T09:00:56.272Z</time></trkpt><trkpt lat="43.914895" lon="6.5596183"><ele>1002.0</ele><time>2026-05-03T09:00:57.272Z</time></trkpt><trkpt lat="43.9148433" lon="6.5598683"><ele>1003.6666666666667</ele><time>2026-05-03T09:00:58.272Z</time></trkpt><trkpt lat="43.914755" lon="6.5601183"><ele>1005.3333333333334</ele><time>2026-05-03T09:00:59.272Z</time></trkpt><trkpt lat="43.914665" lon="6.560355"><ele>1007.0</ele><time>2026-05-03T09:01:00.272Z</time></trkpt><trkpt lat="43.91458" lon="6.5605883"><ele>1008.3333333333334</ele><time>2026-05-03T09:01:01.272Z</time></trkpt><trkpt lat="43.9145033" lon="6.5608333"><ele>1009.6666666666667</ele><time>2026-05-03T09:01:02.272Z</time></trkpt><trkpt lat="43.9144567" lon="6.561075"><ele>1011.0</ele><time>2026-05-03T09:01:03.273Z</time></trkpt><trkpt lat="43.9144333" lon="6.5613117"><ele>1011.0</ele><time>2026-05-03T09:01:04.272Z</time></trkpt><trkpt lat="43.9144367" lon="6.5615467"><ele>1011.0</ele><time>2026-05-03T09:01:05.272Z</time></trkpt><trkpt lat="43.9144733" lon="6.5617717"><ele>1011.0</ele><time>2026-05-03T09:01:06.272Z</time></trkpt><trkpt lat="43.914545" lon="6.5619917"><ele>1007.0</ele><time>2026-05-03T09:01:07.273Z</time></trkpt><trkpt lat="43.9146683" lon="6.5621833"><ele>1003.0</ele><time>2026-05-03T09:01:08.273Z</time></trkpt><trkpt lat="43.9147733" lon="6.5623817"><ele>999.0</ele><time>2026-05-03T09:01:09.272Z</time></trkpt><trkpt lat="43.91486" lon="6.562605"><ele>999.0</ele><time>2026-05-03T09:01:10.272Z</time></trkpt><trkpt lat="43.9148783" lon="6.562855"><ele>999.0</ele><time>2026-05-03T09:01:11.272Z</time></trkpt><trkpt lat="43.9149017" lon="6.5630967"><ele>999.0</ele><time>2026-05-03T09:01:12.272Z</time></trkpt><trkpt lat="43.91492" lon="6.5633417"><ele>997.3333333333333</ele><time>2026-05-03T09:01:13.272Z</time></trkpt><trkpt lat="43.9149583" lon="6.5635933"><ele>995.6666666666666</ele><time>2026-05-03T09:01:14.273Z</time></trkpt><trkpt lat="43.9150017" lon="6.5638433"><ele>994.0</ele><time>2026-05-03T09:01:15.272Z</time></trkpt><trkpt lat="43.9150567" lon="6.5640983"><ele>994.6666666666666</ele><time>2026-05-03T09:01:16.272Z</time></trkpt><trkpt lat="43.915075" lon="6.564365"><ele>995.3333333333333</ele><time>2026-05-03T09:01:17.272Z</time></trkpt><trkpt lat="43.915065" lon="6.5646317"><ele>996.0</ele><time>2026-05-03T09:01:18.272Z</time></trkpt><trkpt lat="43.9150433" lon="6.5648883"><ele>996.0</ele><time>2026-05-03T09:01:19.272Z</time></trkpt><trkpt lat="43.91502" lon="6.565135"><ele>996.0</ele><time>2026-05-03T09:01:20.272Z</time></trkpt><trkpt lat="43.915" lon="6.5654017"><ele>996.0</ele><time>2026-05-03T09:01:21.272Z</time></trkpt><trkpt lat="43.9149783" lon="6.5656717"><ele>998.3333333333333</ele><time>2026-05-03T09:01:22.272Z</time></trkpt><trkpt lat="43.9149583" lon="6.5659383"><ele>1000.6666666666666</ele><time>2026-05-03T09:01:23.272Z</time></trkpt><trkpt lat="43.9149183" lon="6.566215"><ele>1003.0</ele><time>2026-05-03T09:01:24.272Z</time></trkpt><trkpt lat="43.9148783" lon="6.566475"><ele>1003.0</ele><time>2026-05-03T09:01:25.272Z</time></trkpt><trkpt lat="43.9148217" lon="6.56672"><ele>1003.0</ele><time>2026-05-03T09:01:26.272Z</time></trkpt><trkpt lat="43.9147633" lon="6.56696"><ele>1003.0</ele><time>2026-05-03T09:01:27.272Z</time></trkpt><trkpt lat="43.9147167" lon="6.5672"><ele>1005.6666666666666</ele><time>2026-05-03T09:01:28.272Z</time></trkpt><trkpt lat="43.9146667" lon="6.56744"><ele>1008.3333333333333</ele><time>2026-05-03T09:01:29.272Z</time></trkpt><trkpt lat="43.9146033" lon="6.5676667"><ele>1011.0</ele><time>2026-05-03T09:01:30.272Z</time></trkpt><trkpt lat="43.9145333" lon="6.5678783"><ele>1012.6666666666667</ele><time>2026-05-03T09:01:31.272Z</time></trkpt><trkpt lat="43.9144333" lon="6.56806"><ele>1014.3333333333334</ele><time>2026-05-03T09:01:32.272Z</time></trkpt><trkpt lat="43.9143167" lon="6.5682467"><ele>1016.0</ele><time>2026-05-03T09:01:33.272Z</time></trkpt><trkpt lat="43.9142117" lon="6.5684467"><ele>1011.3333333333334</ele><time>2026-05-03T09:01:34.272Z</time></trkpt><trkpt lat="43.914135" lon="6.5686633"><ele>1006.6666666666667</ele><time>2026-05-03T09:01:35.272Z</time></trkpt><trkpt lat="43.91409" lon="6.5688833"><ele>1002.0</ele><time>2026-05-03T09:01:36.272Z</time></trkpt><trkpt lat="43.9140517" lon="6.569125"><ele>1002.0</ele><time>2026-05-03T09:01:37.273Z</time></trkpt><trkpt lat="43.9140033" lon="6.5693667"><ele>1002.0</ele><time>2026-05-03T09:01:38.272Z</time></trkpt><trkpt lat="43.913945" lon="6.5696"><ele>1002.0</ele><time>2026-05-03T09:01:39.272Z</time></trkpt><trkpt lat="43.913875" lon="6.569815"><ele>1006.0</ele><time>2026-05-03T09:01:40.273Z</time></trkpt><trkpt lat="43.9137933" lon="6.5700233"><ele>1010.0</ele><time>2026-05-03T09:01:41.273Z</time></trkpt><trkpt lat="43.913705" lon="6.5702233"><ele>1014.0</ele><time>2026-05-03T09:01:42.272Z</time></trkpt><trkpt lat="43.913645" lon="6.5704183"><ele>1016.6666666666667</ele><time>2026-05-03T09:01:43.272Z</time></trkpt><trkpt lat="43.91363" lon="6.570635"><ele>1019.3333333333334</ele><time>2026-05-03T09:01:44.273Z</time></trkpt><trkpt lat="43.9136483" lon="6.5708633"><ele>1022.0</ele><time>2026-05-03T09:01:45.272Z</time></trkpt><trkpt lat="43.9137067" lon="6.571095"><ele>1022.6666666666667</ele><time>2026-05-03T09:01:46.272Z</time></trkpt><trkpt lat="43.913765" lon="6.5713267"><ele>1023.3333333333333</ele><time>2026-05-03T09:01:47.272Z</time></trkpt><trkpt lat="43.9137867" lon="6.5715867"><ele>1024.0</ele><time>2026-05-03T09:01:48.272Z</time></trkpt><trkpt lat="43.913805" lon="6.571845"><ele>1024.3333333333333</ele><time>2026-05-03T09:01:49.272Z</time></trkpt><trkpt lat="43.9138167" lon="6.5721217"><ele>1024.6666666666667</ele><time>2026-05-03T09:01:50.272Z</time></trkpt><trkpt lat="43.913835" lon="6.5724017"><ele>1025.0</ele><time>2026-05-03T09:01:51.272Z</time></trkpt><trkpt lat="43.9138483" lon="6.57269"><ele>1027.3333333333335</ele><time>2026-05-03T09:01:52.272Z</time></trkpt><trkpt lat="43.9138633" lon="6.5729717"><ele>1029.6666666666667</ele><time>2026-05-03T09:01:53.272Z</time></trkpt><trkpt lat="43.9138817" lon="6.5732533"><ele>1032.0</ele><time>2026-05-03T09:01:54.272Z</time></trkpt><trkpt lat="43.9138917" lon="6.5735383"><ele>1034.0</ele><time>2026-05-03T09:01:55.272Z</time></trkpt><trkpt lat="43.9138833" lon="6.5738133"><ele>1036.0</ele><time>2026-05-03T09:01:56.272Z</time></trkpt><trkpt lat="43.9138783" lon="6.57409"><ele>1038.0</ele><time>2026-05-03T09:01:57.272Z</time></trkpt><trkpt lat="43.9138733" lon="6.574365"><ele>1040.0</ele><time>2026-05-03T09:01:58.272Z</time></trkpt><trkpt lat="43.9138717" lon="6.574635"><ele>1042.0</ele><time>2026-05-03T09:01:59.272Z</time></trkpt><trkpt lat="43.9138667" lon="6.5748917"><ele>1044.0</ele><time>2026-05-03T09:02:00.272Z</time></trkpt><trkpt lat="43.913855" lon="6.5751483"><ele>1044.3333333333333</ele><time>2026-05-03T09:02:01.272Z</time></trkpt><trkpt lat="43.91382" lon="6.5754083"><ele>1044.6666666666665</ele><time>2026-05-03T09:02:02.272Z</time></trkpt><trkpt lat="43.91379" lon="6.5756583"><ele>1045.0</ele><time>2026-05-03T09:02:03.272Z</time></trkpt><trkpt lat="43.91378" lon="6.5759217"><ele>1046.0</ele><time>2026-05-03T09:02:04.272Z</time></trkpt><trkpt lat="43.9138" lon="6.5762033"><ele>1047.0</ele><time>2026-05-03T09:02:05.272Z</time></trkpt><trkpt lat="43.91381" lon="6.5764783"><ele>1048.0</ele><time>2026-05-03T09:02:06.272Z</time></trkpt><trkpt lat="43.9138133" lon="6.5767483"><ele>1048.0</ele><time>2026-05-03T09:02:07.272Z</time></trkpt><trkpt lat="43.9138167" lon="6.5770167"><ele>1048.0</ele><time>2026-05-03T09:02:08.272Z</time></trkpt><trkpt lat="43.913815" lon="6.5772633"><ele>1048.0</ele><time>2026-05-03T09:02:09.272Z</time></trkpt><trkpt lat="43.9138133" lon="6.57751"><ele>1047.0</ele><time>2026-05-03T09:02:10.273Z</time></trkpt><trkpt lat="43.9138217" lon="6.57775"><ele>1046.0</ele><time>2026-05-03T09:02:11.272Z</time></trkpt><trkpt lat="43.9138817" lon="6.5779717"><ele>1045.0</ele><time>2026-05-03T09:02:12.272Z</time></trkpt><trkpt lat="43.9139617" lon="6.578195"><ele>1040.6666666666665</ele><time>2026-05-03T09:02:13.272Z</time></trkpt><trkpt lat="43.91407" lon="6.5784067"><ele>1036.3333333333333</ele><time>2026-05-03T09:02:14.273Z</time></trkpt><trkpt lat="43.9141533" lon="6.5786433"><ele>1032.0</ele><time>2026-05-03T09:02:15.272Z</time></trkpt><trkpt lat="43.9142133" lon="6.578885"><ele>1044.6666666666667</ele><time>2026-05-03T09:02:16.272Z</time></trkpt><trkpt lat="43.9142783" lon="6.5791233"><ele>1057.3333333333335</ele><time>2026-05-03T09:02:17.272Z</time></trkpt><trkpt lat="43.914335" lon="6.57936"><ele>1070.0</ele><time>2026-05-03T09:02:18.272Z</time></trkpt><trkpt lat="43.9143817" lon="6.5796017"><ele>1070.0</ele><time>2026-05-03T09:02:19.272Z</time></trkpt><trkpt lat="43.9144017" lon="6.5798483"><ele>1070.0</ele><time>2026-05-03T09:02:20.272Z</time></trkpt><trkpt lat="43.9144" lon="6.5801167"><ele>1070.0</ele><time>2026-05-03T09:02:21.273Z</time></trkpt><trkpt lat="43.9143917" lon="6.5803917"><ele>1070.6666666666667</ele><time>2026-05-03T09:02:22.272Z</time></trkpt><trkpt lat="43.9143767" lon="6.58066"><ele>1071.3333333333333</ele><time>2026-05-03T09:02:23.272Z</time></trkpt><trkpt lat="43.9143683" lon="6.5809233"><ele>1072.0</ele><time>2026-05-03T09:02:24.272Z</time></trkpt><trkpt lat="43.914385" lon="6.5811967"><ele>1069.6666666666665</ele><time>2026-05-03T09:02:25.272Z</time></trkpt><trkpt lat="43.9144133" lon="6.5814567"><ele>1067.3333333333333</ele><time>2026-05-03T09:02:26.272Z</time></trkpt><trkpt lat="43.9144333" lon="6.5817083"><ele>1065.0</ele><time>2026-05-03T09:02:27.272Z</time></trkpt><trkpt lat="43.9144467" lon="6.58194"><ele>1061.0</ele><time>2026-05-03T09:02:28.273Z</time></trkpt><trkpt lat="43.9144317" lon="6.5821767"><ele>1057.0</ele><time>2026-05-03T09:02:29.273Z</time></trkpt><trkpt lat="43.9144033" lon="6.5824183"><ele>1053.0</ele><time>2026-05-03T09:02:30.273Z</time></trkpt><trkpt lat="43.9143533" lon="6.5826617"><ele>1047.0</ele><time>2026-05-03T09:02:31.272Z</time></trkpt><trkpt lat="43.91429" lon="6.58289"><ele>1041.0</ele><time>2026-05-03T09:02:32.272Z</time></trkpt><trkpt lat="43.9142033" lon="6.5831083"><ele>1035.0</ele><time>2026-05-03T09:02:33.272Z</time></trkpt><trkpt lat="43.9141067" lon="6.5833333"><ele>1032.0</ele><time>2026-05-03T09:02:34.272Z</time></trkpt><trkpt lat="43.9140067" lon="6.58356"><ele>1029.0</ele><time>2026-05-03T09:02:35.273Z</time></trkpt><trkpt lat="43.91391" lon="6.5837867"><ele>1026.0</ele><time>2026-05-03T09:02:36.273Z</time></trkpt><trkpt lat="43.9138317" lon="6.5840117"><ele>1032.3333333333333</ele><time>2026-05-03T09:02:37.272Z</time></trkpt><trkpt lat="43.9137683" lon="6.5842283"><ele>1038.6666666666665</ele><time>2026-05-03T09:02:38.272Z</time></trkpt><trkpt lat="43.91371" lon="6.5844283"><ele>1045.0</ele><time>2026-05-03T09:02:39.272Z</time></trkpt><trkpt lat="43.913665" lon="6.58461"><ele>1045.5</ele><time>2026-05-03T09:02:40.272Z</time></trkpt><trkpt lat="43.9136417" lon="6.5847767"><ele>1046.0</ele><time>2026-05-03T09:02:41.272Z</time></trkpt><trkpt lat="43.913625" lon="6.5849583"><ele>1046.5</ele><time>2026-05-03T09:02:42.272Z</time></trkpt><trkpt lat="43.9136183" lon="6.58514"><ele>1047.0</ele><time>2026-05-03T09:02:43.272Z</time></trkpt><trkpt lat="43.9136133" lon="6.5853183"><ele>1044.75</ele><time>2026-05-03T09:02:44.272Z</time></trkpt><trkpt lat="43.9136167" lon="6.5855083"><ele>1042.5</ele><time>2026-05-03T09:02:45.273Z</time></trkpt><trkpt lat="43.9136167" lon="6.5856967"><ele>1040.25</ele><time>2026-05-03T09:02:46.272Z</time></trkpt><trkpt lat="43.91362" lon="6.5858833"><ele>1038.0</ele><time>2026-05-03T09:02:47.272Z</time></trkpt><trkpt lat="43.9136217" lon="6.5860683"><ele>1037.5</ele><time>2026-05-03T09:02:48.272Z</time></trkpt><trkpt lat="43.913625" lon="6.5862517"><ele>1037.0</ele><time>2026-05-03T09:02:49.272Z</time></trkpt><trkpt lat="43.9136233" lon="6.5864283"><ele>1036.5</ele><time>2026-05-03T09:02:50.272Z</time></trkpt><trkpt lat="43.9136367" lon="6.5865967"><ele>1036.0</ele><time>2026-05-03T09:02:51.272Z</time></trkpt><trkpt lat="43.9136433" lon="6.5867733"><ele>1036.0</ele><time>2026-05-03T09:02:52.272Z</time></trkpt><trkpt lat="43.913675" lon="6.5869367"><ele>1036.0</ele><time>2026-05-03T09:02:53.272Z</time></trkpt><trkpt lat="43.913725" lon="6.5870967"><ele>1036.0</ele><time>2026-05-03T09:02:54.272Z</time></trkpt><trkpt lat="43.9137833" lon="6.5872533"><ele>1036.0</ele><time>2026-05-03T09:02:55.272Z</time></trkpt><trkpt lat="43.9138367" lon="6.5874067"><ele>1036.25</ele><time>2026-05-03T09:02:56.273Z</time></trkpt><trkpt lat="43.9138733" lon="6.58756"><ele>1036.5</ele><time>2026-05-03T09:02:57.272Z</time></trkpt><trkpt lat="43.9138933" lon="6.5877233"><ele>1036.75</ele><time>2026-05-03T09:02:58.273Z</time></trkpt><trkpt lat="43.9138667" lon="6.587895"><ele>1037.0</ele><time>2026-05-03T09:02:59.272Z</time></trkpt><trkpt lat="43.9138133" lon="6.5880517"><ele>1037.75</ele><time>2026-05-03T09:03:00.272Z</time></trkpt><trkpt lat="43.9137483" lon="6.5881983"><ele>1038.5</ele><time>2026-05-03T09:03:01.272Z</time></trkpt><trkpt lat="43.91368" lon="6.5883517"><ele>1039.25</ele><time>2026-05-03T09:03:02.273Z</time></trkpt><trkpt lat="43.913605" lon="6.5885133"><ele>1040.0</ele><time>2026-05-03T09:03:03.272Z</time></trkpt><trkpt lat="43.9135167" lon="6.5886667"><ele>1041.0</ele><time>2026-05-03T09:03:04.272Z</time></trkpt><trkpt lat="43.9134417" lon="6.5888167"><ele>1042.0</ele><time>2026-05-03T09:03:05.272Z</time></trkpt><trkpt lat="43.9133633" lon="6.5889683"><ele>1043.0</ele><time>2026-05-03T09:03:06.273Z</time></trkpt><trkpt lat="43.9132983" lon="6.5891183"><ele>1044.0</ele><time>2026-05-03T09:03:07.272Z</time></trkpt><trkpt lat="43.9132383" lon="6.5892733"><ele>1043.5</ele><time>2026-05-03T09:03:08.273Z</time></trkpt><trkpt lat="43.913195" lon="6.589425"><ele>1043.0</ele><time>2026-05-03T09:03:09.272Z</time></trkpt><trkpt lat="43.91315" lon="6.5895933"><ele>1042.5</ele><time>2026-05-03T09:03:10.272Z</time></trkpt><trkpt lat="43.9131167" lon="6.58976"><ele>1042.0</ele><time>2026-05-03T09:03:11.272Z</time></trkpt><trkpt lat="43.9130783" lon="6.5899283"><ele>1042.0</ele><time>2026-05-03T09:03:12.272Z</time></trkpt><trkpt lat="43.9130467" lon="6.5900967"><ele>1042.0</ele><time>2026-05-03T09:03:13.273Z</time></trkpt><trkpt lat="43.91301" lon="6.59027"><ele>1042.0</ele><time>2026-05-03T09:03:14.272Z</time></trkpt><trkpt lat="43.91296" lon="6.590425"><ele>1042.0</ele><time>2026-05-03T09:03:15.272Z</time></trkpt><trkpt lat="43.9129033" lon="6.59059"><ele>1043.5</ele><time>2026-05-03T09:03:16.273Z</time></trkpt><trkpt lat="43.9128383" lon="6.5907417"><ele>1045.0</ele><time>2026-05-03T09:03:17.273Z</time></trkpt><trkpt lat="43.9127767" lon="6.5908967"><ele>1046.5</ele><time>2026-05-03T09:03:18.272Z</time></trkpt><trkpt lat="43.91273" lon="6.5910617"><ele>1048.0</ele><time>2026-05-03T09:03:19.272Z</time></trkpt><trkpt lat="43.9126983" lon="6.5912417"><ele>1049.25</ele><time>2026-05-03T09:03:20.273Z</time></trkpt><trkpt lat="43.9126983" lon="6.5914283"><ele>1050.5</ele><time>2026-05-03T09:03:21.272Z</time></trkpt><trkpt lat="43.9127283" lon="6.5916083"><ele>1051.75</ele><time>2026-05-03T09:03:22.272Z</time></trkpt><trkpt lat="43.91277" lon="6.5917867"><ele>1053.0</ele><time>2026-05-03T09:03:23.272Z</time></trkpt><trkpt lat="43.9128" lon="6.5919717"><ele>1055.75</ele><time>2026-05-03T09:03:24.273Z</time></trkpt><trkpt lat="43.9128067" lon="6.5921683"><ele>1058.5</ele><time>2026-05-03T09:03:25.272Z</time></trkpt><trkpt lat="43.9127867" lon="6.5923783"><ele>1061.25</ele><time>2026-05-03T09:03:26.272Z</time></trkpt><trkpt lat="43.912745" lon="6.5925833"><ele>1064.0</ele><time>2026-05-03T09:03:27.272Z</time></trkpt><trkpt lat="43.912675" lon="6.5927967"><ele>1060.3333333333335</ele><time>2026-05-03T09:03:28.272Z</time></trkpt><trkpt lat="43.9125967" lon="6.5930133"><ele>1056.6666666666667</ele><time>2026-05-03T09:03:29.272Z</time></trkpt><trkpt lat="43.9125283" lon="6.593245"><ele>1053.0</ele><time>2026-05-03T09:03:30.272Z</time></trkpt><trkpt lat="43.9124833" lon="6.593475"><ele>1053.6666666666667</ele><time>2026-05-03T09:03:31.272Z</time></trkpt><trkpt lat="43.9124633" lon="6.5937133"><ele>1054.3333333333335</ele><time>2026-05-03T09:03:32.272Z</time></trkpt><trkpt lat="43.9124583" lon="6.5939617"><ele>1055.0</ele><time>2026-05-03T09:03:33.272Z</time></trkpt><trkpt lat="43.9124583" lon="6.594225"><ele>1055.0</ele><time>2026-05-03T09:03:34.273Z</time></trkpt><trkpt lat="43.9124583" lon="6.594485"><ele>1055.0</ele><time>2026-05-03T09:03:35.272Z</time></trkpt><trkpt lat="43.9124483" lon="6.5947617"><ele>1055.0</ele><time>2026-05-03T09:03:36.272Z</time></trkpt><trkpt lat="43.9124467" lon="6.5950283"><ele>1055.6666666666667</ele><time>2026-05-03T09:03:37.272Z</time></trkpt><trkpt lat="43.912435" lon="6.59529"><ele>1056.3333333333333</ele><time>2026-05-03T09:03:38.272Z</time></trkpt><trkpt lat="43.9124367" lon="6.5955533"><ele>1057.0</ele><time>2026-05-03T09:03:39.272Z</time></trkpt><trkpt lat="43.9124367" lon="6.5958133"><ele>1057.3333333333333</ele><time>2026-05-03T09:03:40.272Z</time></trkpt><trkpt lat="43.9124433" lon="6.596065"><ele>1057.6666666666667</ele><time>2026-05-03T09:03:41.272Z</time></trkpt><trkpt lat="43.9124617" lon="6.5963117"><ele>1058.0</ele><time>2026-05-03T09:03:42.272Z</time></trkpt><trkpt lat="43.9125117" lon="6.59653"><ele>1062.3333333333335</ele><time>2026-05-03T09:03:43.272Z</time></trkpt><trkpt lat="43.9125917" lon="6.5967367"><ele>1066.6666666666667</ele><time>2026-05-03T09:03:44.272Z</time></trkpt><trkpt lat="43.9126967" lon="6.596925"><ele>1071.0</ele><time>2026-05-03T09:03:45.272Z</time></trkpt><trkpt lat="43.9127983" lon="6.5971217"><ele>1071.0</ele><time>2026-05-03T09:03:46.272Z</time></trkpt><trkpt lat="43.9128733" lon="6.5973317"><ele>1071.0</ele><time>2026-05-03T09:03:47.272Z</time></trkpt><trkpt lat="43.9129183" lon="6.5975567"><ele>1071.0</ele><time>2026-05-03T09:03:48.272Z</time></trkpt><trkpt lat="43.9129317" lon="6.5977967"><ele>1071.6666666666667</ele><time>2026-05-03T09:03:49.272Z</time></trkpt><trkpt lat="43.9129367" lon="6.59804"><ele>1072.3333333333335</ele><time>2026-05-03T09:03:50.273Z</time></trkpt><trkpt lat="43.9129717" lon="6.5982817"><ele>1073.0</ele><time>2026-05-03T09:03:51.272Z</time></trkpt><trkpt lat="43.9130217" lon="6.59852"><ele>1073.3333333333335</ele><time>2026-05-03T09:03:52.272Z</time></trkpt><trkpt lat="43.9130567" lon="6.5987583"><ele>1073.6666666666667</ele><time>2026-05-03T09:03:53.272Z</time></trkpt><trkpt lat="43.9130767" lon="6.5990017"><ele>1074.0</ele><time>2026-05-03T09:03:54.272Z</time></trkpt><trkpt lat="43.9130533" lon="6.599235"><ele>1074.0</ele><time>2026-05-03T09:03:55.272Z</time></trkpt><trkpt lat="43.91299" lon="6.5994717"><ele>1074.0</ele><time>2026-05-03T09:03:56.272Z</time></trkpt><trkpt lat="43.9128933" lon="6.5997033"><ele>1074.0</ele><time>2026-05-03T09:03:57.273Z</time></trkpt><trkpt lat="43.9127967" lon="6.5999517"><ele>1075.0</ele><time>2026-05-03T09:03:58.272Z</time></trkpt><trkpt lat="43.9127067" lon="6.6002083"><ele>1076.0</ele><time>2026-05-03T09:03:59.272Z</time></trkpt><trkpt lat="43.9126283" lon="6.60046"><ele>1077.0</ele><time>2026-05-03T09:04:00.272Z</time></trkpt><trkpt lat="43.912555" lon="6.6007133"><ele>1075.3333333333333</ele><time>2026-05-03T09:04:01.272Z</time></trkpt><trkpt lat="43.9124833" lon="6.600965"><ele>1073.6666666666665</ele><time>2026-05-03T09:04:02.272Z</time></trkpt><trkpt lat="43.91242" lon="6.6012133"><ele>1072.0</ele><time>2026-05-03T09:04:03.272Z</time></trkpt><trkpt lat="43.9123617" lon="6.6014617"><ele>1072.0</ele><time>2026-05-03T09:04:04.272Z</time></trkpt><trkpt lat="43.912315" lon="6.6017133"><ele>1072.0</ele><time>2026-05-03T09:04:05.273Z</time></trkpt><trkpt lat="43.91227" lon="6.6019717"><ele>1072.0</ele><time>2026-05-03T09:04:06.272Z</time></trkpt><trkpt lat="43.9122667" lon="6.6022317"><ele>1072.6666666666665</ele><time>2026-05-03T09:04:07.273Z</time></trkpt><trkpt lat="43.912275" lon="6.6025017"><ele>1073.3333333333333</ele><time>2026-05-03T09:04:08.273Z</time></trkpt><trkpt lat="43.912295" lon="6.6027667"><ele>1074.0</ele><time>2026-05-03T09:04:09.272Z</time></trkpt><trkpt lat="43.9123167" lon="6.6030433"><ele>1074.0</ele><time>2026-05-03T09:04:10.272Z</time></trkpt><trkpt lat="43.91233" lon="6.603315"><ele>1074.0</ele><time>2026-05-03T09:04:11.272Z</time></trkpt><trkpt lat="43.9123483" lon="6.6035783"><ele>1074.0</ele><time>2026-05-03T09:04:12.272Z</time></trkpt><trkpt lat="43.9123667" lon="6.6038283"><ele>1074.3333333333333</ele><time>2026-05-03T09:04:13.272Z</time></trkpt><trkpt lat="43.9123867" lon="6.6040783"><ele>1074.6666666666665</ele><time>2026-05-03T09:04:14.272Z</time></trkpt><trkpt lat="43.912405" lon="6.6043217"><ele>1075.0</ele><time>2026-05-03T09:04:15.272Z</time></trkpt><trkpt lat="43.912405" lon="6.6045683"><ele>1075.3333333333333</ele><time>2026-05-03T09:04:16.272Z</time></trkpt><trkpt lat="43.9124167" lon="6.604795"><ele>1075.6666666666667</ele><time>2026-05-03T09:04:17.272Z</time></trkpt><trkpt lat="43.9124417" lon="6.6050233"><ele>1076.0</ele><time>2026-05-03T09:04:18.273Z</time></trkpt><trkpt lat="43.9124817" lon="6.6052533"><ele>1074.3333333333335</ele><time>2026-05-03T09:04:19.272Z</time></trkpt><trkpt lat="43.9125633" lon="6.605465"><ele>1072.6666666666667</ele><time>2026-05-03T09:04:20.272Z</time></trkpt><trkpt lat="43.9126783" lon="6.6056733"><ele>1071.0</ele><time>2026-05-03T09:04:21.272Z</time></trkpt><trkpt lat="43.91281" lon="6.6058617"><ele>1072.0</ele><time>2026-05-03T09:04:22.272Z</time></trkpt><trkpt lat="43.91295" lon="6.60603"><ele>1073.0</ele><time>2026-05-03T09:04:23.273Z</time></trkpt><trkpt lat="43.9131033" lon="6.60619"><ele>1074.0</ele><time>2026-05-03T09:04:24.273Z</time></trkpt><trkpt lat="43.91326" lon="6.6063233"><ele>1075.6666666666667</ele><time>2026-05-03T09:04:25.272Z</time></trkpt><trkpt lat="43.9134183" lon="6.6064433"><ele>1077.3333333333335</ele><time>2026-05-03T09:04:26.272Z</time></trkpt><trkpt lat="43.91358" lon="6.60657"><ele>1079.0</ele><time>2026-05-03T09:04:27.272Z</time></trkpt><trkpt lat="43.9137383" lon="6.606685"><ele>1079.0</ele><time>2026-05-03T09:04:28.273Z</time></trkpt><trkpt lat="43.9139117" lon="6.60677"><ele>1079.0</ele><time>2026-05-03T09:04:29.272Z</time></trkpt><trkpt lat="43.9140933" lon="6.60682"><ele>1079.0</ele><time>2026-05-03T09:04:30.272Z</time></trkpt><trkpt lat="43.914285" lon="6.6068433"><ele>1080.6666666666667</ele><time>2026-05-03T09:04:31.272Z</time></trkpt><trkpt lat="43.914475" lon="6.6068383"><ele>1082.3333333333333</ele><time>2026-05-03T09:04:32.272Z</time></trkpt><trkpt lat="43.914655" lon="6.6068167"><ele>1084.0</ele><time>2026-05-03T09:04:33.273Z</time></trkpt><trkpt lat="43.9148383" lon="6.6067733"><ele>1084.0</ele><time>2026-05-03T09:04:34.272Z</time></trkpt><trkpt lat="43.9150183" lon="6.606745"><ele>1084.0</ele><time>2026-05-03T09:04:35.272Z</time></trkpt><trkpt lat="43.9151983" lon="6.6067467"><ele>1084.0</ele><time>2026-05-03T09:04:36.272Z</time></trkpt><trkpt lat="43.9153683" lon="6.6067717"><ele>1086.0</ele><time>2026-05-03T09:04:37.272Z</time></trkpt><trkpt lat="43.9155233" lon="6.6068633"><ele>1088.0</ele><time>2026-05-03T09:04:38.272Z</time></trkpt><trkpt lat="43.915655" lon="6.607015"><ele>1090.0</ele><time>2026-05-03T09:04:39.272Z</time></trkpt><trkpt lat="43.9157733" lon="6.6072017"><ele>1090.0</ele><time>2026-05-03T09:04:40.272Z</time></trkpt><trkpt lat="43.91586" lon="6.6074183"><ele>1090.0</ele><time>2026-05-03T09:04:41.273Z</time></trkpt><trkpt lat="43.9159583" lon="6.607645"><ele>1090.0</ele><time>2026-05-03T09:04:42.272Z</time></trkpt><trkpt lat="43.9160617" lon="6.60788"><ele>1093.0</ele><time>2026-05-03T09:04:43.272Z</time></trkpt><trkpt lat="43.91617" lon="6.6081117"><ele>1096.0</ele><time>2026-05-03T09:04:44.272Z</time></trkpt><trkpt lat="43.9162833" lon="6.608345"><ele>1099.0</ele><time>2026-05-03T09:04:45.272Z</time></trkpt><trkpt lat="43.916405" lon="6.608575"><ele>1098.3333333333333</ele><time>2026-05-03T09:04:46.272Z</time></trkpt><trkpt lat="43.9165317" lon="6.6087867"><ele>1097.6666666666667</ele><time>2026-05-03T09:04:47.272Z</time></trkpt><trkpt lat="43.9166633" lon="6.6089683"><ele>1097.0</ele><time>2026-05-03T09:04:48.273Z</time></trkpt><trkpt lat="43.9168133" lon="6.6091117"><ele>1101.3333333333335</ele><time>2026-05-03T09:04:49.272Z</time></trkpt><trkpt lat="43.9169767" lon="6.6092283"><ele>1105.6666666666667</ele><time>2026-05-03T09:04:50.273Z</time></trkpt><trkpt lat="43.9171417" lon="6.6093267"><ele>1110.0</ele><time>2026-05-03T09:04:51.272Z</time></trkpt><trkpt lat="43.9172883" lon="6.609455"><ele>1109.0</ele><time>2026-05-03T09:04:52.273Z</time></trkpt><trkpt lat="43.91742" lon="6.6096233"><ele>1108.0</ele><time>2026-05-03T09:04:53.273Z</time></trkpt><trkpt lat="43.9174983" lon="6.6098483"><ele>1107.0</ele><time>2026-05-03T09:04:54.272Z</time></trkpt><trkpt lat="43.9175533" lon="6.6100883"><ele>1113.0</ele><time>2026-05-03T09:04:55.272Z</time></trkpt><trkpt lat="43.9176017" lon="6.6103433"><ele>1119.0</ele><time>2026-05-03T09:04:56.272Z</time></trkpt><trkpt lat="43.9176583" lon="6.61059"><ele>1125.0</ele><time>2026-05-03T09:04:57.272Z</time></trkpt><trkpt lat="43.9177183" lon="6.6108117"><ele>1125.0</ele><time>2026-05-03T09:04:58.272Z</time></trkpt><trkpt lat="43.9178083" lon="6.6110317"><ele>1125.0</ele><time>2026-05-03T09:04:59.272Z</time></trkpt><trkpt lat="43.9179117" lon="6.611215"><ele>1125.0</ele><time>2026-05-03T09:05:00.272Z</time></trkpt><trkpt lat="43.918035" lon="6.6114"><ele>1123.0</ele><time>2026-05-03T09:05:01.272Z</time></trkpt><trkpt lat="43.91814" lon="6.6115917"><ele>1121.0</ele><time>2026-05-03T09:05:02.272Z</time></trkpt><trkpt lat="43.918245" lon="6.6117867"><ele>1119.0</ele><time>2026-05-03T09:05:03.272Z</time></trkpt><trkpt lat="43.9183533" lon="6.6119733"><ele>1120.6666666666667</ele><time>2026-05-03T09:05:04.272Z</time></trkpt><trkpt lat="43.91847" lon="6.612155"><ele>1122.3333333333335</ele><time>2026-05-03T09:05:05.272Z</time></trkpt><trkpt lat="43.9185817" lon="6.612345"><ele>1124.0</ele><time>2026-05-03T09:05:06.272Z</time></trkpt><trkpt lat="43.9186767" lon="6.6125517"><ele>1124.0</ele><time>2026-05-03T09:05:07.272Z</time></trkpt><trkpt lat="43.9187683" lon="6.61276"><ele>1124.0</ele><time>2026-05-03T09:05:08.273Z</time></trkpt><trkpt lat="43.9188667" lon="6.6129717"><ele>1124.0</ele><time>2026-05-03T09:05:09.273Z</time></trkpt><trkpt lat="43.9189683" lon="6.6131717"><ele>1124.0</ele><time>2026-05-03T09:05:10.272Z</time></trkpt><trkpt lat="43.9190717" lon="6.6133467"><ele>1124.0</ele><time>2026-05-03T09:05:11.272Z</time></trkpt><trkpt lat="43.9191767" lon="6.6134967"><ele>1124.0</ele><time>2026-05-03T09:05:12.272Z</time></trkpt><trkpt lat="43.91928" lon="6.61364"><ele>1122.5</ele><time>2026-05-03T09:05:13.272Z</time></trkpt><trkpt lat="43.91936" lon="6.6137667"><ele>1121.0</ele><time>2026-05-03T09:05:14.272Z</time></trkpt><trkpt lat="43.9194483" lon="6.6138767"><ele>1119.5</ele><time>2026-05-03T09:05:15.272Z</time></trkpt><trkpt lat="43.9195567" lon="6.613965"><ele>1118.0</ele><time>2026-05-03T09:05:16.272Z</time></trkpt><trkpt lat="43.9196783" lon="6.6140133"><ele>1118.0</ele><time>2026-05-03T09:05:17.272Z</time></trkpt><trkpt lat="43.9198233" lon="6.6140333"><ele>1118.0</ele><time>2026-05-03T09:05:18.272Z</time></trkpt><trkpt lat="43.9199767" lon="6.61405"><ele>1118.0</ele><time>2026-05-03T09:05:19.272Z</time></trkpt><trkpt lat="43.920135" lon="6.6140667"><ele>1116.0</ele><time>2026-05-03T09:05:20.272Z</time></trkpt><trkpt lat="43.9202967" lon="6.61408"><ele>1114.0</ele><time>2026-05-03T09:05:21.273Z</time></trkpt><trkpt lat="43.92046" lon="6.6140767"><ele>1112.0</ele><time>2026-05-03T09:05:22.272Z</time></trkpt><trkpt lat="43.920615" lon="6.6140483"><ele>1112.0</ele><time>2026-05-03T09:05:23.272Z</time></trkpt><trkpt lat="43.920765" lon="6.6140033"><ele>1112.0</ele><time>2026-05-03T09:05:24.272Z</time></trkpt><trkpt lat="43.9208983" lon="6.6139367"><ele>1112.0</ele><time>2026-05-03T09:05:25.272Z</time></trkpt><trkpt lat="43.9210267" lon="6.6138667"><ele>1112.0</ele><time>2026-05-03T09:05:26.272Z</time></trkpt><trkpt lat="43.9211567" lon="6.6138"><ele>1111.25</ele><time>2026-05-03T09:05:27.272Z</time></trkpt><trkpt lat="43.921285" lon="6.6137583"><ele>1110.5</ele><time>2026-05-03T09:05:28.272Z</time></trkpt><trkpt lat="43.9214267" lon="6.6137417"><ele>1109.75</ele><time>2026-05-03T09:05:29.272Z</time></trkpt><trkpt lat="43.9215633" lon="6.6137533"><ele>1109.0</ele><time>2026-05-03T09:05:30.272Z</time></trkpt><trkpt lat="43.9216867" lon="6.61381"><ele>1110.25</ele><time>2026-05-03T09:05:31.272Z</time></trkpt><trkpt lat="43.9218017" lon="6.61392"><ele>1111.5</ele><time>2026-05-03T09:05:32.272Z</time></trkpt><trkpt lat="43.9219" lon="6.614035"><ele>1112.75</ele><time>2026-05-03T09:05:33.272Z</time></trkpt><trkpt lat="43.9219917" lon="6.6141367"><ele>1114.0</ele><time>2026-05-03T09:05:34.272Z</time></trkpt><trkpt lat="43.9221" lon="6.6142017"><ele>1114.0</ele><time>2026-05-03T09:05:35.272Z</time></trkpt><trkpt lat="43.922215" lon="6.6142467"><ele>1114.0</ele><time>2026-05-03T09:05:36.272Z</time></trkpt><trkpt lat="43.9223433" lon="6.614295"><ele>1114.0</ele><time>2026-05-03T09:05:37.272Z</time></trkpt><trkpt lat="43.922465" lon="6.6143467"><ele>1114.0</ele><time>2026-05-03T09:05:38.273Z</time></trkpt><trkpt lat="43.9225933" lon="6.6144"><ele>1116.25</ele><time>2026-05-03T09:05:39.272Z</time></trkpt><trkpt lat="43.9227167" lon="6.6144367"><ele>1118.5</ele><time>2026-05-03T09:05:40.272Z</time></trkpt><trkpt lat="43.9228317" lon="6.614445"><ele>1120.75</ele><time>2026-05-03T09:05:41.272Z</time></trkpt><trkpt lat="43.922955" lon="6.61444"><ele>1123.0</ele><time>2026-05-03T09:05:42.272Z</time></trkpt><trkpt lat="43.92307" lon="6.6144633"><ele>1118.0</ele><time>2026-05-03T09:05:43.272Z</time></trkpt><trkpt lat="43.9231617" lon="6.6145417"><ele>1113.0</ele><time>2026-05-03T09:05:44.272Z</time></trkpt><trkpt lat="43.9232317" lon="6.614685"><ele>1108.0</ele><time>2026-05-03T09:05:45.273Z</time></trkpt><trkpt lat="43.923275" lon="6.614865"><ele>1103.0</ele><time>2026-05-03T09:05:46.272Z</time></trkpt><trkpt lat="43.9232967" lon="6.6150533"><ele>1103.0</ele><time>2026-05-03T09:05:47.272Z</time></trkpt><trkpt lat="43.9232967" lon="6.615245"><ele>1103.0</ele><time>2026-05-03T09:05:48.273Z</time></trkpt><trkpt lat="43.9233067" lon="6.61543"><ele>1103.0</ele><time>2026-05-03T09:05:49.272Z</time></trkpt><trkpt lat="43.92333" lon="6.6156017"><ele>1103.0</ele><time>2026-05-03T09:05:50.272Z</time></trkpt><trkpt lat="43.9233767" lon="6.61577"><ele>1104.5</ele><time>2026-05-03T09:05:51.272Z</time></trkpt><trkpt lat="43.9234433" lon="6.61593"><ele>1106.0</ele><time>2026-05-03T09:05:52.272Z</time></trkpt><trkpt lat="43.92355" lon="6.6160567"><ele>1107.5</ele><time>2026-05-03T09:05:53.273Z</time></trkpt><trkpt lat="43.9236833" lon="6.6161633"><ele>1109.0</ele><time>2026-05-03T09:05:54.273Z</time></trkpt><trkpt lat="43.92382" lon="6.6162633"><ele>1104.0</ele><time>2026-05-03T09:05:55.272Z</time></trkpt><trkpt lat="43.9239633" lon="6.616365"><ele>1099.0</ele><time>2026-05-03T09:05:56.273Z</time></trkpt><trkpt lat="43.924105" lon="6.6164733"><ele>1094.0</ele><time>2026-05-03T09:05:57.273Z</time></trkpt><trkpt lat="43.9242433" lon="6.616585"><ele>1094.0</ele><time>2026-05-03T09:05:58.272Z</time></trkpt><trkpt lat="43.9243933" lon="6.6167033"><ele>1094.0</ele><time>2026-05-03T09:05:59.272Z</time></trkpt><trkpt lat="43.92453" lon="6.6168117"><ele>1094.0</ele><time>2026-05-03T09:06:00.273Z</time></trkpt><trkpt lat="43.9246733" lon="6.6169233"><ele>1089.6666666666667</ele><time>2026-05-03T09:06:01.272Z</time></trkpt><trkpt lat="43.92483" lon="6.6170083"><ele>1085.3333333333333</ele><time>2026-05-03T09:06:02.272Z</time></trkpt><trkpt lat="43.9249983" lon="6.6170833"><ele>1081.0</ele><time>2026-05-03T09:06:03.272Z</time></trkpt><trkpt lat="43.9251717" lon="6.6171417"><ele>1081.0</ele><time>2026-05-03T09:06:04.272Z</time></trkpt><trkpt lat="43.925345" lon="6.6172067"><ele>1081.0</ele><time>2026-05-03T09:06:05.273Z</time></trkpt><trkpt lat="43.9255133" lon="6.6172767"><ele>1081.0</ele><time>2026-05-03T09:06:06.272Z</time></trkpt><trkpt lat="43.92568" lon="6.61735"><ele>1081.0</ele><time>2026-05-03T09:06:07.273Z</time></trkpt><trkpt lat="43.9258483" lon="6.6174267"><ele>1081.0</ele><time>2026-05-03T09:06:08.272Z</time></trkpt><trkpt lat="43.9260217" lon="6.6174933"><ele>1081.0</ele><time>2026-05-03T09:06:09.273Z</time></trkpt><trkpt lat="43.9261733" lon="6.6175733"><ele>1079.3333333333333</ele><time>2026-05-03T09:06:10.272Z</time></trkpt><trkpt lat="43.9263317" lon="6.6176617"><ele>1077.6666666666667</ele><time>2026-05-03T09:06:11.272Z</time></trkpt><trkpt lat="43.9264867" lon="6.6177817"><ele>1076.0</ele><time>2026-05-03T09:06:12.272Z</time></trkpt><trkpt lat="43.9266233" lon="6.6179267"><ele>1080.0</ele><time>2026-05-03T09:06:13.272Z</time></trkpt><trkpt lat="43.9267333" lon="6.6181067"><ele>1084.0</ele><time>2026-05-03T09:06:14.273Z</time></trkpt><trkpt lat="43.92684" lon="6.6183067"><ele>1088.0</ele><time>2026-05-03T09:06:15.272Z</time></trkpt><trkpt lat="43.926935" lon="6.6185183"><ele>1085.0</ele><time>2026-05-03T09:06:16.272Z</time></trkpt><trkpt lat="43.9270233" lon="6.6187317"><ele>1082.0</ele><time>2026-05-03T09:06:17.272Z</time></trkpt><trkpt lat="43.9271183" lon="6.61895"><ele>1079.0</ele><time>2026-05-03T09:06:18.272Z</time></trkpt><trkpt lat="43.9272067" lon="6.6191817"><ele>1079.0</ele><time>2026-05-03T09:06:19.272Z</time></trkpt><trkpt lat="43.9273083" lon="6.619405"><ele>1079.0</ele><time>2026-05-03T09:06:20.272Z</time></trkpt><trkpt lat="43.927415" lon="6.6196267"><ele>1079.0</ele><time>2026-05-03T09:06:21.272Z</time></trkpt><trkpt lat="43.9275233" lon="6.61985"><ele>1079.6666666666667</ele><time>2026-05-03T09:06:22.272Z</time></trkpt><trkpt lat="43.9276317" lon="6.6200783"><ele>1080.3333333333333</ele><time>2026-05-03T09:06:23.272Z</time></trkpt><trkpt lat="43.9277383" lon="6.6203"><ele>1081.0</ele><time>2026-05-03T09:06:24.272Z</time></trkpt><trkpt lat="43.9278417" lon="6.62052"><ele>1077.3333333333333</ele><time>2026-05-03T09:06:25.272Z</time></trkpt><trkpt lat="43.9279533" lon="6.6207417"><ele>1073.6666666666667</ele><time>2026-05-03T09:06:26.273Z</time></trkpt><trkpt lat="43.9280567" lon="6.6209667"><ele>1070.0</ele><time>2026-05-03T09:06:27.272Z</time></trkpt><trkpt lat="43.928165" lon="6.6211917"><ele>1071.0</ele><time>2026-05-03T09:06:28.272Z</time></trkpt><trkpt lat="43.9282717" lon="6.6214233"><ele>1072.0</ele><time>2026-05-03T09:06:29.272Z</time></trkpt><trkpt lat="43.9283767" lon="6.621645"><ele>1073.0</ele><time>2026-05-03T09:06:30.272Z</time></trkpt><trkpt lat="43.9284817" lon="6.62187"><ele>1070.0</ele><time>2026-05-03T09:06:31.272Z</time></trkpt><trkpt lat="43.9285867" lon="6.6221"><ele>1067.0</ele><time>2026-05-03T09:06:32.272Z</time></trkpt><trkpt lat="43.9286967" lon="6.6223217"><ele>1064.0</ele><time>2026-05-03T09:06:33.272Z</time></trkpt><trkpt lat="43.9288067" lon="6.6225467"><ele>1064.0</ele><time>2026-05-03T09:06:34.272Z</time></trkpt><trkpt lat="43.92891" lon="6.6227533"><ele>1064.0</ele><time>2026-05-03T09:06:35.272Z</time></trkpt><trkpt lat="43.9290533" lon="6.6229667"><ele>1064.0</ele><time>2026-05-03T09:06:36.272Z</time></trkpt><trkpt lat="43.9291917" lon="6.6231767"><ele>1060.3333333333335</ele><time>2026-05-03T09:06:37.272Z</time></trkpt><trkpt lat="43.9293333" lon="6.6233767"><ele>1056.6666666666667</ele><time>2026-05-03T09:06:38.272Z</time></trkpt><trkpt lat="43.92947" lon="6.6235733"><ele>1053.0</ele><time>2026-05-03T09:06:39.272Z</time></trkpt><trkpt lat="43.9296183" lon="6.6237433"><ele>1049.3333333333333</ele><time>2026-05-03T09:06:40.272Z</time></trkpt><trkpt lat="43.9297583" lon="6.62392"><ele>1045.6666666666665</ele><time>2026-05-03T09:06:41.272Z</time></trkpt><trkpt lat="43.9298967" lon="6.6240883"><ele>1042.0</ele><time>2026-05-03T09:06:42.273Z</time></trkpt><trkpt lat="43.9300383" lon="6.6242533"><ele>1044.0</ele><time>2026-05-03T09:06:43.272Z</time></trkpt><trkpt lat="43.9301733" lon="6.6244067"><ele>1046.0</ele><time>2026-05-03T09:06:44.272Z</time></trkpt><trkpt lat="43.9303217" lon="6.624555"><ele>1048.0</ele><time>2026-05-03T09:06:45.272Z</time></trkpt><trkpt lat="43.9304667" lon="6.624675"><ele>1045.6666666666665</ele><time>2026-05-03T09:06:46.272Z</time></trkpt><trkpt lat="43.930625" lon="6.6247667"><ele>1043.3333333333333</ele><time>2026-05-03T09:06:47.272Z</time></trkpt><trkpt lat="43.930785" lon="6.6248283"><ele>1041.0</ele><time>2026-05-03T09:06:48.273Z</time></trkpt><trkpt lat="43.930945" lon="6.624895"><ele>1041.0</ele><time>2026-05-03T09:06:49.273Z</time></trkpt><trkpt lat="43.9311117" lon="6.624975"><ele>1041.0</ele><time>2026-05-03T09:06:50.272Z</time></trkpt><trkpt lat="43.9312733" lon="6.62509"><ele>1041.0</ele><time>2026-05-03T09:06:51.272Z</time></trkpt><trkpt lat="43.93143" lon="6.6252383"><ele>1038.3333333333333</ele><time>2026-05-03T09:06:52.272Z</time></trkpt><trkpt lat="43.931565" lon="6.625425"><ele>1035.6666666666665</ele><time>2026-05-03T09:06:53.272Z</time></trkpt><trkpt lat="43.93169" lon="6.6256467"><ele>1033.0</ele><time>2026-05-03T09:06:54.272Z</time></trkpt><trkpt lat="43.9317683" lon="6.6259067"><ele>1037.6666666666665</ele><time>2026-05-03T09:06:55.272Z</time></trkpt><trkpt lat="43.931835" lon="6.6261783"><ele>1042.3333333333333</ele><time>2026-05-03T09:06:56.273Z</time></trkpt><trkpt lat="43.9319067" lon="6.6264633"><ele>1047.0</ele><time>2026-05-03T09:06:57.272Z</time></trkpt><trkpt lat="43.9320033" lon="6.6267683"><ele>1042.0</ele><time>2026-05-03T09:06:58.272Z</time></trkpt><trkpt lat="43.9320983" lon="6.6270817"><ele>1037.0</ele><time>2026-05-03T09:06:59.272Z</time></trkpt><trkpt lat="43.9322" lon="6.6273817"><ele>1037.0</ele><time>2026-05-03T09:07:00.272Z</time></trkpt><trkpt lat="43.93228" lon="6.627695"><ele>1037.0</ele><time>2026-05-03T09:07:01.272Z</time></trkpt><trkpt lat="43.9323583" lon="6.628"><ele>1030.5</ele><time>2026-05-03T09:07:02.272Z</time></trkpt><trkpt lat="43.932455" lon="6.6282917"><ele>1024.0</ele><time>2026-05-03T09:07:03.273Z</time></trkpt><trkpt lat="43.93256" lon="6.628565"><ele>1028.3333333333333</ele><time>2026-05-03T09:07:04.272Z</time></trkpt><trkpt lat="43.9326767" lon="6.628825"><ele>1032.6666666666667</ele><time>2026-05-03T09:07:05.272Z</time></trkpt><trkpt lat="43.9327867" lon="6.6290933"><ele>1037.0</ele><time>2026-05-03T09:07:06.272Z</time></trkpt><trkpt lat="43.9328633" lon="6.6293617"><ele>1034.3333333333335</ele><time>2026-05-03T09:07:07.272Z</time></trkpt><trkpt lat="43.9329217" lon="6.6296317"><ele>1031.6666666666667</ele><time>2026-05-03T09:07:08.272Z</time></trkpt><trkpt lat="43.9329483" lon="6.629915"><ele>1029.0</ele><time>2026-05-03T09:07:09.272Z</time></trkpt><trkpt lat="43.9329717" lon="6.6302033"><ele>1025.0</ele><time>2026-05-03T09:07:10.272Z</time></trkpt><trkpt lat="43.9330133" lon="6.6304917"><ele>1021.0</ele><time>2026-05-03T09:07:11.272Z</time></trkpt><trkpt lat="43.9330633" lon="6.630775"><ele>1017.0</ele><time>2026-05-03T09:07:12.272Z</time></trkpt><trkpt lat="43.933115" lon="6.6310583"><ele>1013.6666666666667</ele><time>2026-05-03T09:07:13.272Z</time></trkpt><trkpt lat="43.93316" lon="6.6313483"><ele>1010.3333333333334</ele><time>2026-05-03T09:07:14.272Z</time></trkpt><trkpt lat="43.9332083" lon="6.6316383"><ele>1007.0</ele><time>2026-05-03T09:07:15.272Z</time></trkpt><trkpt lat="43.9332517" lon="6.63192"><ele>1003.6666666666667</ele><time>2026-05-03T09:07:16.272Z</time></trkpt><trkpt lat="43.933295" lon="6.6321867"><ele>1000.3333333333333</ele><time>2026-05-03T09:07:17.272Z</time></trkpt><trkpt lat="43.93334" lon="6.63244"><ele>997.0</ele><time>2026-05-03T09:07:18.272Z</time></trkpt><trkpt lat="43.9333933" lon="6.6326883"><ele>1005.0</ele><time>2026-05-03T09:07:19.272Z</time></trkpt><trkpt lat="43.9334467" lon="6.6329383"><ele>1013.0</ele><time>2026-05-03T09:07:20.273Z</time></trkpt><trkpt lat="43.9335283" lon="6.6331683"><ele>1021.0</ele><time>2026-05-03T09:07:21.272Z</time></trkpt><trkpt lat="43.93362" lon="6.6333983"><ele>1021.0</ele><time>2026-05-03T09:07:22.272Z</time></trkpt><trkpt lat="43.9336983" lon="6.6336067"><ele>1021.0</ele><time>2026-05-03T09:07:23.272Z</time></trkpt><trkpt lat="43.9337367" lon="6.6338167"><ele>1021.0</ele><time>2026-05-03T09:07:24.273Z</time></trkpt><trkpt lat="43.9337417" lon="6.6340083"><ele>1017.0</ele><time>2026-05-03T09:07:25.272Z</time></trkpt><trkpt lat="43.9337283" lon="6.6341867"><ele>1013.0</ele><time>2026-05-03T09:07:26.272Z</time></trkpt><trkpt lat="43.933725" lon="6.63435"><ele>1009.0</ele><time>2026-05-03T09:07:27.272Z</time></trkpt><trkpt lat="43.933765" lon="6.6344817"><ele>1005.0</ele><time>2026-05-03T09:07:28.272Z</time></trkpt><trkpt lat="43.9338383" lon="6.6345833"><ele>1001.75</ele><time>2026-05-03T09:07:29.272Z</time></trkpt><trkpt lat="43.93394" lon="6.6346467"><ele>998.5</ele><time>2026-05-03T09:07:30.272Z</time></trkpt><trkpt lat="43.934065" lon="6.6347083"><ele>995.25</ele><time>2026-05-03T09:07:31.272Z</time></trkpt><trkpt lat="43.934205" lon="6.6347817"><ele>992.0</ele><time>2026-05-03T09:07:32.272Z</time></trkpt><trkpt lat="43.93432" lon="6.6348933"><ele>992.0</ele><time>2026-05-03T09:07:33.272Z</time></trkpt><trkpt lat="43.9344267" lon="6.635015"><ele>992.0</ele><time>2026-05-03T09:07:34.272Z</time></trkpt><trkpt lat="43.9345283" lon="6.6351483"><ele>992.0</ele><time>2026-05-03T09:07:35.273Z</time></trkpt><trkpt lat="43.9346283" lon="6.6352533"><ele>992.0</ele><time>2026-05-03T09:07:36.272Z</time></trkpt><trkpt lat="43.9347283" lon="6.6353267"><ele>991.75</ele><time>2026-05-03T09:07:37.272Z</time></trkpt><trkpt lat="43.9348533" lon="6.63536"><ele>991.5</ele><time>2026-05-03T09:07:38.272Z</time></trkpt><trkpt lat="43.9349933" lon="6.635345"><ele>991.25</ele><time>2026-05-03T09:07:39.272Z</time></trkpt><trkpt lat="43.9351383" lon="6.6353133"><ele>991.0</ele><time>2026-05-03T09:07:40.272Z</time></trkpt><trkpt lat="43.93528" lon="6.6352933"><ele>985.5</ele><time>2026-05-03T09:07:41.272Z</time></trkpt><trkpt lat="43.9354217" lon="6.6353133"><ele>980.0</ele><time>2026-05-03T09:07:42.272Z</time></trkpt><trkpt lat="43.9355483" lon="6.6353683"><ele>974.5</ele><time>2026-05-03T09:07:43.272Z</time></trkpt><trkpt lat="43.93569" lon="6.635425"><ele>969.0</ele><time>2026-05-03T09:07:44.272Z</time></trkpt><trkpt lat="43.93583" lon="6.6354617"><ele>970.5</ele><time>2026-05-03T09:07:45.272Z</time></trkpt><trkpt lat="43.9359767" lon="6.6354683"><ele>972.0</ele><time>2026-05-03T09:07:46.272Z</time></trkpt><trkpt lat="43.9361183" lon="6.63542"><ele>973.5</ele><time>2026-05-03T09:07:47.272Z</time></trkpt><trkpt lat="43.93624" lon="6.6353483"><ele>975.0</ele><time>2026-05-03T09:07:48.272Z</time></trkpt><trkpt lat="43.93636" lon="6.63529"><ele>975.0</ele><time>2026-05-03T09:07:49.273Z</time></trkpt><trkpt lat="43.9364783" lon="6.6352717"><ele>975.0</ele><time>2026-05-03T09:07:50.272Z</time></trkpt><trkpt lat="43.936585" lon="6.63533"><ele>975.0</ele><time>2026-05-03T09:07:51.272Z</time></trkpt><trkpt lat="43.9366833" lon="6.6354583"><ele>975.0</ele><time>2026-05-03T09:07:52.272Z</time></trkpt><trkpt lat="43.936745" lon="6.63563"><ele>975.0</ele><time>2026-05-03T09:07:53.272Z</time></trkpt><trkpt lat="43.9367617" lon="6.6357983"><ele>975.0</ele><time>2026-05-03T09:07:54.272Z</time></trkpt><trkpt lat="43.93672" lon="6.6359617"><ele>975.0</ele><time>2026-05-03T09:07:55.272Z</time></trkpt><trkpt lat="43.93663" lon="6.6361117"><ele>975.0</ele><time>2026-05-03T09:07:56.272Z</time></trkpt><trkpt lat="43.9364967" lon="6.636235"><ele>981.3333333333333</ele><time>2026-05-03T09:07:57.272Z</time></trkpt><trkpt lat="43.9363483" lon="6.6363633"><ele>987.6666666666666</ele><time>2026-05-03T09:07:58.272Z</time></trkpt><trkpt lat="43.9361967" lon="6.63651"><ele>994.0</ele><time>2026-05-03T09:07:59.272Z</time></trkpt><trkpt lat="43.9360517" lon="6.6366367"><ele>994.0</ele><time>2026-05-03T09:08:00.272Z</time></trkpt><trkpt lat="43.93591" lon="6.6367817"><ele>994.0</ele><time>2026-05-03T09:08:01.272Z</time></trkpt><trkpt lat="43.9357533" lon="6.6369233"><ele>994.0</ele><time>2026-05-03T09:08:02.272Z</time></trkpt><trkpt lat="43.9355967" lon="6.6370633"><ele>996.6666666666666</ele><time>2026-05-03T09:08:03.272Z</time></trkpt><trkpt lat="43.9354233" lon="6.6371833"><ele>999.3333333333333</ele><time>2026-05-03T09:08:04.272Z</time></trkpt><trkpt lat="43.9352583" lon="6.6372967"><ele>1002.0</ele><time>2026-05-03T09:08:05.272Z</time></trkpt><trkpt lat="43.9350917" lon="6.6373983"><ele>991.3333333333333</ele><time>2026-05-03T09:08:06.272Z</time></trkpt><trkpt lat="43.934925" lon="6.63749"><ele>980.6666666666666</ele><time>2026-05-03T09:08:07.273Z</time></trkpt><trkpt lat="43.9347517" lon="6.6375717"><ele>970.0</ele><time>2026-05-03T09:08:08.272Z</time></trkpt><trkpt lat="43.93458" lon="6.63764"><ele>970.0</ele><time>2026-05-03T09:08:09.273Z</time></trkpt><trkpt lat="43.934405" lon="6.6377383"><ele>970.0</ele><time>2026-05-03T09:08:10.272Z</time></trkpt><trkpt lat="43.9342283" lon="6.63783"><ele>970.0</ele><time>2026-05-03T09:08:11.272Z</time></trkpt><trkpt lat="43.9340533" lon="6.6379417"><ele>972.3333333333333</ele><time>2026-05-03T09:08:12.272Z</time></trkpt><trkpt lat="43.9338817" lon="6.6380617"><ele>974.6666666666667</ele><time>2026-05-03T09:08:13.272Z</time></trkpt><trkpt lat="43.9337083" lon="6.6381983"><ele>977.0</ele><time>2026-05-03T09:08:14.272Z</time></trkpt><trkpt lat="43.9335317" lon="6.638335"><ele>975.3333333333334</ele><time>2026-05-03T09:08:15.272Z</time></trkpt><trkpt lat="43.9333683" lon="6.638495"><ele>973.6666666666667</ele><time>2026-05-03T09:08:16.272Z</time></trkpt><trkpt lat="43.9332133" lon="6.6386533"><ele>972.0</ele><time>2026-05-03T09:08:17.272Z</time></trkpt><trkpt lat="43.9330733" lon="6.6388367"><ele>972.0</ele><time>2026-05-03T09:08:18.272Z</time></trkpt><trkpt lat="43.93293" lon="6.639015"><ele>972.0</ele><time>2026-05-03T09:08:19.272Z</time></trkpt><trkpt lat="43.9327933" lon="6.6391867"><ele>972.0</ele><time>2026-05-03T09:08:20.272Z</time></trkpt><trkpt lat="43.9326517" lon="6.6393567"><ele>967.0</ele><time>2026-05-03T09:08:21.272Z</time></trkpt><trkpt lat="43.9325267" lon="6.6395"><ele>962.0</ele><time>2026-05-03T09:08:22.272Z</time></trkpt><trkpt lat="43.932395" lon="6.6396717"><ele>957.0</ele><time>2026-05-03T09:08:23.273Z</time></trkpt><trkpt lat="43.9322767" lon="6.63987"><ele>957.0</ele><time>2026-05-03T09:08:24.272Z</time></trkpt><trkpt lat="43.93216" lon="6.6400767"><ele>957.0</ele><time>2026-05-03T09:08:25.272Z</time></trkpt><trkpt lat="43.9320683" lon="6.64029"><ele>957.0</ele><time>2026-05-03T09:08:26.272Z</time></trkpt><trkpt lat="43.9319867" lon="6.6405033"><ele>966.3333333333333</ele><time>2026-05-03T09:08:27.272Z</time></trkpt><trkpt lat="43.9319067" lon="6.6407133"><ele>975.6666666666666</ele><time>2026-05-03T09:08:28.272Z</time></trkpt><trkpt lat="43.9318283" lon="6.6409083"><ele>985.0</ele><time>2026-05-03T09:08:29.272Z</time></trkpt><trkpt lat="43.9317333" lon="6.6410967"><ele>975.6666666666666</ele><time>2026-05-03T09:08:30.272Z</time></trkpt><trkpt lat="43.9316333" lon="6.6412683"><ele>966.3333333333333</ele><time>2026-05-03T09:08:31.272Z</time></trkpt><trkpt lat="43.9315183" lon="6.641425"><ele>957.0</ele><time>2026-05-03T09:08:32.272Z</time></trkpt><trkpt lat="43.9313983" lon="6.6415717"><ele>957.0</ele><time>2026-05-03T09:08:33.272Z</time></trkpt><trkpt lat="43.9312833" lon="6.641725"><ele>957.0</ele><time>2026-05-03T09:08:34.272Z</time></trkpt><trkpt lat="43.9311717" lon="6.6418783"><ele>957.0</ele><time>2026-05-03T09:08:35.272Z</time></trkpt><trkpt lat="43.93109" lon="6.6420533"><ele>964.3333333333333</ele><time>2026-05-03T09:08:36.272Z</time></trkpt><trkpt lat="43.931045" lon="6.642255"><ele>971.6666666666666</ele><time>2026-05-03T09:08:37.273Z</time></trkpt><trkpt lat="43.9309967" lon="6.6424667"><ele>979.0</ele><time>2026-05-03T09:08:38.272Z</time></trkpt><trkpt lat="43.93092" lon="6.64266"><ele>965.0</ele><time>2026-05-03T09:08:39.272Z</time></trkpt><trkpt lat="43.93082" lon="6.6428183"><ele>951.0</ele><time>2026-05-03T09:08:40.272Z</time></trkpt><trkpt lat="43.9306983" lon="6.6429583"><ele>937.0</ele><time>2026-05-03T09:08:41.272Z</time></trkpt><trkpt lat="43.9305633" lon="6.6430667"><ele>937.0</ele><time>2026-05-03T09:08:42.272Z</time></trkpt><trkpt lat="43.9304467" lon="6.64315"><ele>937.0</ele><time>2026-05-03T09:08:43.272Z</time></trkpt><trkpt lat="43.930345" lon="6.643255"><ele>937.0</ele><time>2026-05-03T09:08:44.272Z</time></trkpt><trkpt lat="43.9302717" lon="6.6433883"><ele>937.0</ele><time>2026-05-03T09:08:45.272Z</time></trkpt><trkpt lat="43.930245" lon="6.64354"><ele>932.8</ele><time>2026-05-03T09:08:46.272Z</time></trkpt><trkpt lat="43.9302467" lon="6.6436783"><ele>928.6</ele><time>2026-05-03T09:08:47.273Z</time></trkpt><trkpt lat="43.9303" lon="6.6437983"><ele>924.3999999999999</ele><time>2026-05-03T09:08:48.272Z</time></trkpt><trkpt lat="43.9303783" lon="6.6438833"><ele>920.1999999999999</ele><time>2026-05-03T09:08:49.272Z</time></trkpt><trkpt lat="43.930485" lon="6.6439267"><ele>916.0</ele><time>2026-05-03T09:08:50.272Z</time></trkpt><trkpt lat="43.930625" lon="6.643945"><ele>916.0</ele><time>2026-05-03T09:08:51.272Z</time></trkpt><trkpt lat="43.9307883" lon="6.6439467"><ele>916.0</ele><time>2026-05-03T09:08:52.272Z</time></trkpt><trkpt lat="43.9309633" lon="6.6439617"><ele>916.0</ele><time>2026-05-03T09:08:53.272Z</time></trkpt><trkpt lat="43.9311317" lon="6.6440017"><ele>922.0</ele><time>2026-05-03T09:08:54.273Z</time></trkpt><trkpt lat="43.9312883" lon="6.6440633"><ele>928.0</ele><time>2026-05-03T09:08:55.272Z</time></trkpt><trkpt lat="43.93143" lon="6.644155"><ele>934.0</ele><time>2026-05-03T09:08:56.272Z</time></trkpt><trkpt lat="43.9315767" lon="6.6442783"><ele>934.0</ele><time>2026-05-03T09:08:57.272Z</time></trkpt><trkpt lat="43.9317067" lon="6.6443783"><ele>934.0</ele><time>2026-05-03T09:08:58.273Z</time></trkpt><trkpt lat="43.9318233" lon="6.644515"><ele>934.0</ele><time>2026-05-03T09:08:59.272Z</time></trkpt><trkpt lat="43.9319133" lon="6.6446933"><ele>937.3333333333333</ele><time>2026-05-03T09:09:00.272Z</time></trkpt><trkpt lat="43.93198" lon="6.6448867"><ele>940.6666666666667</ele><time>2026-05-03T09:09:01.272Z</time></trkpt><trkpt lat="43.9320567" lon="6.6450767"><ele>944.0</ele><time>2026-05-03T09:09:02.273Z</time></trkpt><trkpt lat="43.932145" lon="6.645275"><ele>938.0</ele><time>2026-05-03T09:09:03.272Z</time></trkpt><trkpt lat="43.9322383" lon="6.6454583"><ele>932.0</ele><time>2026-05-03T09:09:04.272Z</time></trkpt><trkpt lat="43.9323333" lon="6.6456467"><ele>926.0</ele><time>2026-05-03T09:09:05.272Z</time></trkpt><trkpt lat="43.932415" lon="6.64583"><ele>926.0</ele><time>2026-05-03T09:09:06.273Z</time></trkpt><trkpt lat="43.9324867" lon="6.6460117"><ele>926.0</ele><time>2026-05-03T09:09:07.272Z</time></trkpt><trkpt lat="43.9325417" lon="6.64621"><ele>926.0</ele><time>2026-05-03T09:09:08.272Z</time></trkpt><trkpt lat="43.9325817" lon="6.646405"><ele>926.0</ele><time>2026-05-03T09:09:09.272Z</time></trkpt><trkpt lat="43.9326" lon="6.64661"><ele>924.3333333333334</ele><time>2026-05-03T09:09:10.272Z</time></trkpt><trkpt lat="43.93259" lon="6.646825"><ele>922.6666666666667</ele><time>2026-05-03T09:09:11.272Z</time></trkpt><trkpt lat="43.932555" lon="6.64705"><ele>921.0</ele><time>2026-05-03T09:09:12.272Z</time></trkpt><trkpt lat="43.9325" lon="6.6472917"><ele>921.0</ele><time>2026-05-03T09:09:13.272Z</time></trkpt><trkpt lat="43.932445" lon="6.6475233"><ele>921.0</ele><time>2026-05-03T09:09:14.273Z</time></trkpt><trkpt lat="43.9323983" lon="6.6477383"><ele>921.0</ele><time>2026-05-03T09:09:15.272Z</time></trkpt><trkpt lat="43.9323783" lon="6.6479483"><ele>918.0</ele><time>2026-05-03T09:09:16.272Z</time></trkpt><trkpt lat="43.9323817" lon="6.648175"><ele>915.0</ele><time>2026-05-03T09:09:17.272Z</time></trkpt><trkpt lat="43.9323883" lon="6.64839"><ele>912.0</ele><time>2026-05-03T09:09:18.272Z</time></trkpt><trkpt lat="43.932415" lon="6.64862"><ele>908.6666666666667</ele><time>2026-05-03T09:09:19.272Z</time></trkpt><trkpt lat="43.932455" lon="6.6488533"><ele>905.3333333333334</ele><time>2026-05-03T09:09:20.272Z</time></trkpt><trkpt lat="43.9324883" lon="6.64908"><ele>902.0</ele><time>2026-05-03T09:09:21.272Z</time></trkpt><trkpt lat="43.9325433" lon="6.6493067"><ele>907.6666666666667</ele><time>2026-05-03T09:09:22.272Z</time></trkpt><trkpt lat="43.9326167" lon="6.6495167"><ele>913.3333333333333</ele><time>2026-05-03T09:09:23.273Z</time></trkpt><trkpt lat="43.9327267" lon="6.6496883"><ele>919.0</ele><time>2026-05-03T09:09:24.272Z</time></trkpt><trkpt lat="43.932855" lon="6.649815"><ele>919.0</ele><time>2026-05-03T09:09:25.272Z</time></trkpt><trkpt lat="43.9329667" lon="6.64995"><ele>919.0</ele><time>2026-05-03T09:09:26.272Z</time></trkpt><trkpt lat="43.9330483" lon="6.6501117"><ele>919.0</ele><time>2026-05-03T09:09:27.272Z</time></trkpt><trkpt lat="43.9330967" lon="6.6502983"><ele>919.0</ele><time>2026-05-03T09:09:28.272Z</time></trkpt><trkpt lat="43.9330933" lon="6.6505017"><ele>915.6666666666666</ele><time>2026-05-03T09:09:29.273Z</time></trkpt><trkpt lat="43.933065" lon="6.6507133"><ele>912.3333333333333</ele><time>2026-05-03T09:09:30.273Z</time></trkpt><trkpt lat="43.9330033" lon="6.65094"><ele>909.0</ele><time>2026-05-03T09:09:31.272Z</time></trkpt><trkpt lat="43.9329267" lon="6.651165"><ele>915.6666666666667</ele><time>2026-05-03T09:09:32.272Z</time></trkpt><trkpt lat="43.9328233" lon="6.651395"><ele>922.3333333333334</ele><time>2026-05-03T09:09:33.272Z</time></trkpt><trkpt lat="43.9327133" lon="6.65161"><ele>929.0</ele><time>2026-05-03T09:09:34.272Z</time></trkpt><trkpt lat="43.9325967" lon="6.65182"><ele>923.3333333333334</ele><time>2026-05-03T09:09:35.272Z</time></trkpt><trkpt lat="43.9324517" lon="6.652025"><ele>917.6666666666667</ele><time>2026-05-03T09:09:36.272Z</time></trkpt><trkpt lat="43.9323" lon="6.6522283"><ele>912.0</ele><time>2026-05-03T09:09:37.273Z</time></trkpt><trkpt lat="43.9321567" lon="6.6524483"><ele>912.0</ele><time>2026-05-03T09:09:38.272Z</time></trkpt><trkpt lat="43.9320183" lon="6.6526683"><ele>912.0</ele><time>2026-05-03T09:09:39.273Z</time></trkpt><trkpt lat="43.9318867" lon="6.6528883"><ele>912.0</ele><time>2026-05-03T09:09:40.272Z</time></trkpt><trkpt lat="43.9317667" lon="6.65311"><ele>912.6666666666667</ele><time>2026-05-03T09:09:41.272Z</time></trkpt><trkpt lat="43.931655" lon="6.6533267"><ele>913.3333333333334</ele><time>2026-05-03T09:09:42.273Z</time></trkpt><trkpt lat="43.9315467" lon="6.6535467"><ele>914.0</ele><time>2026-05-03T09:09:43.272Z</time></trkpt><trkpt lat="43.9314617" lon="6.6537717"><ele>914.0</ele><time>2026-05-03T09:09:44.272Z</time></trkpt><trkpt lat="43.9314117" lon="6.654"><ele>914.0</ele><time>2026-05-03T09:09:45.272Z</time></trkpt><trkpt lat="43.9313533" lon="6.65421"><ele>914.0</ele><time>2026-05-03T09:09:46.272Z</time></trkpt><trkpt lat="43.9312633" lon="6.6543867"><ele>924.3333333333334</ele><time>2026-05-03T09:09:47.272Z</time></trkpt><trkpt lat="43.93115" lon="6.654535"><ele>934.6666666666667</ele><time>2026-05-03T09:09:48.272Z</time></trkpt><trkpt lat="43.931015" lon="6.6546833"><ele>945.0</ele><time>2026-05-03T09:09:49.272Z</time></trkpt><trkpt lat="43.9309183" lon="6.6548483"><ele>930.3333333333333</ele><time>2026-05-03T09:09:50.272Z</time></trkpt><trkpt lat="43.93085" lon="6.65504"><ele>915.6666666666666</ele><time>2026-05-03T09:09:51.273Z</time></trkpt><trkpt lat="43.9308067" lon="6.6552467"><ele>901.0</ele><time>2026-05-03T09:09:52.272Z</time></trkpt><trkpt lat="43.9308033" lon="6.655485"><ele>901.0</ele><time>2026-05-03T09:09:53.272Z</time></trkpt><trkpt lat="43.9308067" lon="6.6557133"><ele>901.0</ele><time>2026-05-03T09:09:54.272Z</time></trkpt><trkpt lat="43.930785" lon="6.6559483"><ele>901.0</ele><time>2026-05-03T09:09:55.272Z</time></trkpt><trkpt lat="43.930755" lon="6.656175"><ele>905.6666666666666</ele><time>2026-05-03T09:09:56.272Z</time></trkpt><trkpt lat="43.930715" lon="6.6563967"><ele>910.3333333333333</ele><time>2026-05-03T09:09:57.272Z</time></trkpt><trkpt lat="43.930675" lon="6.6565933"><ele>915.0</ele><time>2026-05-03T09:09:58.272Z</time></trkpt><trkpt lat="43.9306217" lon="6.656785"><ele>911.75</ele><time>2026-05-03T09:09:59.272Z</time></trkpt><trkpt lat="43.9305767" lon="6.65698"><ele>908.5</ele><time>2026-05-03T09:10:00.272Z</time></trkpt><trkpt lat="43.9305333" lon="6.65718"><ele>905.25</ele><time>2026-05-03T09:10:01.273Z</time></trkpt><trkpt lat="43.9305433" lon="6.657385"><ele>902.0</ele><time>2026-05-03T09:10:02.272Z</time></trkpt><trkpt lat="43.9306" lon="6.6575933"><ele>902.0</ele><time>2026-05-03T09:10:03.272Z</time></trkpt><trkpt lat="43.9306967" lon="6.65778"><ele>902.0</ele><time>2026-05-03T09:10:04.272Z</time></trkpt><trkpt lat="43.9308267" lon="6.6579383"><ele>902.0</ele><time>2026-05-03T09:10:05.272Z</time></trkpt><trkpt lat="43.93097" lon="6.658095"><ele>903.3333333333334</ele><time>2026-05-03T09:10:06.272Z</time></trkpt><trkpt lat="43.931105" lon="6.6582533"><ele>904.6666666666667</ele><time>2026-05-03T09:10:07.273Z</time></trkpt><trkpt lat="43.931235" lon="6.6583733"><ele>906.0</ele><time>2026-05-03T09:10:08.272Z</time></trkpt><trkpt lat="43.9313733" lon="6.658435"><ele>906.0</ele><time>2026-05-03T09:10:09.273Z</time></trkpt><trkpt lat="43.9315083" lon="6.65846"><ele>906.0</ele><time>2026-05-03T09:10:10.272Z</time></trkpt><trkpt lat="43.93162" lon="6.658495"><ele>906.0</ele><time>2026-05-03T09:10:11.272Z</time></trkpt><trkpt lat="43.9317067" lon="6.6585917"><ele>906.0</ele><time>2026-05-03T09:10:12.272Z</time></trkpt><trkpt lat="43.931765" lon="6.6587283"><ele>900.6666666666667</ele><time>2026-05-03T09:10:13.272Z</time></trkpt><trkpt lat="43.931775" lon="6.6589117"><ele>895.3333333333334</ele><time>2026-05-03T09:10:14.272Z</time></trkpt><trkpt lat="43.931725" lon="6.65912"><ele>890.0</ele><time>2026-05-03T09:10:15.272Z</time></trkpt><trkpt lat="43.9316383" lon="6.65935"><ele>890.3333333333334</ele><time>2026-05-03T09:10:16.272Z</time></trkpt><trkpt lat="43.9315667" lon="6.6595783"><ele>890.6666666666667</ele><time>2026-05-03T09:10:17.272Z</time></trkpt><trkpt lat="43.9315017" lon="6.6597767"><ele>891.0</ele><time>2026-05-03T09:10:18.273Z</time></trkpt><trkpt lat="43.9314333" lon="6.6599717"><ele>891.0</ele><time>2026-05-03T09:10:19.272Z</time></trkpt><trkpt lat="43.9313567" lon="6.6601517"><ele>891.0</ele><time>2026-05-03T09:10:20.272Z</time></trkpt><trkpt lat="43.9312967" lon="6.6603317"><ele>891.0</ele><time>2026-05-03T09:10:21.272Z</time></trkpt><trkpt lat="43.93126" lon="6.660505"><ele>891.0</ele><time>2026-05-03T09:10:22.272Z</time></trkpt><trkpt lat="43.9312533" lon="6.6606917"><ele>892.25</ele><time>2026-05-03T09:10:23.273Z</time></trkpt><trkpt lat="43.9312633" lon="6.6608767"><ele>893.5</ele><time>2026-05-03T09:10:24.272Z</time></trkpt><trkpt lat="43.9313317" lon="6.661045"><ele>894.75</ele><time>2026-05-03T09:10:25.272Z</time></trkpt><trkpt lat="43.9314" lon="6.661215"><ele>896.0</ele><time>2026-05-03T09:10:26.273Z</time></trkpt><trkpt lat="43.9314717" lon="6.6613933"><ele>892.5</ele><time>2026-05-03T09:10:27.272Z</time></trkpt><trkpt lat="43.9315283" lon="6.6615833"><ele>889.0</ele><time>2026-05-03T09:10:28.273Z</time></trkpt><trkpt lat="43.9315817" lon="6.6617683"><ele>885.5</ele><time>2026-05-03T09:10:29.272Z</time></trkpt><trkpt lat="43.9316333" lon="6.66195"><ele>882.0</ele><time>2026-05-03T09:10:30.272Z</time></trkpt><trkpt lat="43.9316767" lon="6.6621267"><ele>881.0</ele><time>2026-05-03T09:10:31.272Z</time></trkpt><trkpt lat="43.9317117" lon="6.6623083"><ele>880.0</ele><time>2026-05-03T09:10:32.272Z</time></trkpt><trkpt lat="43.9317183" lon="6.662495"><ele>879.0</ele><time>2026-05-03T09:10:33.272Z</time></trkpt><trkpt lat="43.93169" lon="6.6626717"><ele>878.0</ele><time>2026-05-03T09:10:34.272Z</time></trkpt><trkpt lat="43.9316483" lon="6.6628367"><ele>878.0</ele><time>2026-05-03T09:10:35.272Z</time></trkpt><trkpt lat="43.931615" lon="6.6629917"><ele>878.0</ele><time>2026-05-03T09:10:36.272Z</time></trkpt><trkpt lat="43.93159" lon="6.6631483"><ele>878.0</ele><time>2026-05-03T09:10:37.272Z</time></trkpt><trkpt lat="43.931575" lon="6.6633067"><ele>878.0</ele><time>2026-05-03T09:10:38.272Z</time></trkpt><trkpt lat="43.931575" lon="6.6634533"><ele>878.0</ele><time>2026-05-03T09:10:39.272Z</time></trkpt><trkpt lat="43.9315767" lon="6.6635983"><ele>878.0</ele><time>2026-05-03T09:10:40.273Z</time></trkpt><trkpt lat="43.93158" lon="6.6637417"><ele>878.0</ele><time>2026-05-03T09:10:41.273Z</time></trkpt><trkpt lat="43.93158" lon="6.66388"><ele>878.0</ele><time>2026-05-03T09:10:42.272Z</time></trkpt><trkpt lat="43.9315767" lon="6.6640217"><ele>878.0</ele><time>2026-05-03T09:10:43.272Z</time></trkpt><trkpt lat="43.9315767" lon="6.6641533"><ele>878.4</ele><time>2026-05-03T09:10:44.272Z</time></trkpt><trkpt lat="43.9315617" lon="6.6642867"><ele>878.8</ele><time>2026-05-03T09:10:45.272Z</time></trkpt><trkpt lat="43.9315333" lon="6.6644217"><ele>879.2</ele><time>2026-05-03T09:10:46.272Z</time></trkpt><trkpt lat="43.9314917" lon="6.6645533"><ele>879.6</ele><time>2026-05-03T09:10:47.272Z</time></trkpt><trkpt lat="43.9314383" lon="6.6646867"><ele>880.0</ele><time>2026-05-03T09:10:48.272Z</time></trkpt><trkpt lat="43.93138" lon="6.6648083"><ele>880.3333333333333</ele><time>2026-05-03T09:10:49.272Z</time></trkpt><trkpt lat="43.9313267" lon="6.6649233"><ele>880.6666666666666</ele><time>2026-05-03T09:10:50.273Z</time></trkpt><trkpt lat="43.931275" lon="6.66504"><ele>881.0</ele><time>2026-05-03T09:10:51.272Z</time></trkpt><trkpt lat="43.9312283" lon="6.6651433"><ele>881.3333333333333</ele><time>2026-05-03T09:10:52.272Z</time></trkpt><trkpt lat="43.9312" lon="6.6652417"><ele>881.6666666666666</ele><time>2026-05-03T09:10:53.273Z</time></trkpt><trkpt lat="43.93119" lon="6.665345"><ele>882.0</ele><time>2026-05-03T09:10:54.272Z</time></trkpt><trkpt lat="43.9311883" lon="6.6654483"><ele>880.3333333333334</ele><time>2026-05-03T09:10:55.273Z</time></trkpt><trkpt lat="43.9312117" lon="6.6655567"><ele>878.6666666666667</ele><time>2026-05-03T09:10:56.272Z</time></trkpt><trkpt lat="43.9312533" lon="6.6656583"><ele>877.0</ele><time>2026-05-03T09:10:57.272Z</time></trkpt><trkpt lat="43.93131" lon="6.6657483"><ele>875.3333333333334</ele><time>2026-05-03T09:10:58.272Z</time></trkpt><trkpt lat="43.9313833" lon="6.6658267"><ele>873.6666666666667</ele><time>2026-05-03T09:10:59.272Z</time></trkpt><trkpt lat="43.9314683" lon="6.6658733"><ele>872.0</ele><time>2026-05-03T09:11:00.272Z</time></trkpt><trkpt lat="43.9315617" lon="6.6658883"><ele>872.0</ele><time>2026-05-03T09:11:01.272Z</time></trkpt><trkpt lat="43.9316583" lon="6.665875"><ele>872.0</ele><time>2026-05-03T09:11:02.272Z</time></trkpt><trkpt lat="43.9317667" lon="6.665845"><ele>872.0</ele><time>2026-05-03T09:11:03.273Z</time></trkpt><trkpt lat="43.931875" lon="6.6658267"><ele>872.0</ele><time>2026-05-03T09:11:04.272Z</time></trkpt><trkpt lat="43.93198" lon="6.66581"><ele>872.0</ele><time>2026-05-03T09:11:05.272Z</time></trkpt><trkpt lat="43.9320817" lon="6.6658017"><ele>873.4000000000001</ele><time>2026-05-03T09:11:06.272Z</time></trkpt><trkpt lat="43.93217" lon="6.665815"><ele>874.8000000000001</ele><time>2026-05-03T09:11:07.272Z</time></trkpt><trkpt lat="43.9322533" lon="6.6659033"><ele>876.2</ele><time>2026-05-03T09:11:08.272Z</time></trkpt><trkpt lat="43.9323" lon="6.6660483"><ele>877.6</ele><time>2026-05-03T09:11:09.272Z</time></trkpt><trkpt lat="43.9323" lon="6.6662"><ele>879.0</ele><time>2026-05-03T09:11:10.272Z</time></trkpt><trkpt lat="43.9322533" lon="6.6663433"><ele>879.0</ele><time>2026-05-03T09:11:11.272Z</time></trkpt><trkpt lat="43.93219" lon="6.6665"><ele>879.0</ele><time>2026-05-03T09:11:12.272Z</time></trkpt><trkpt lat="43.9321383" lon="6.6666717"><ele>879.0</ele><time>2026-05-03T09:11:13.272Z</time></trkpt><trkpt lat="43.9321" lon="6.6668317"><ele>879.0</ele><time>2026-05-03T09:11:14.272Z</time></trkpt><trkpt lat="43.93208" lon="6.6669833"><ele>879.2</ele><time>2026-05-03T09:11:15.272Z</time></trkpt><trkpt lat="43.9320533" lon="6.667135"><ele>879.4000000000001</ele><time>2026-05-03T09:11:16.273Z</time></trkpt><trkpt lat="43.932035" lon="6.66729"><ele>879.6</ele><time>2026-05-03T09:11:17.272Z</time></trkpt><trkpt lat="43.9320167" lon="6.6674367"><ele>879.8</ele><time>2026-05-03T09:11:18.272Z</time></trkpt><trkpt lat="43.9320117" lon="6.6675933"><ele>880.0</ele><time>2026-05-03T09:11:19.272Z</time></trkpt><trkpt lat="43.932025" lon="6.6677517"><ele>876.0</ele><time>2026-05-03T09:11:20.272Z</time></trkpt><trkpt lat="43.93207" lon="6.667915"><ele>872.0</ele><time>2026-05-03T09:11:21.273Z</time></trkpt><trkpt lat="43.9321267" lon="6.6680667"><ele>868.0</ele><time>2026-05-03T09:11:22.272Z</time></trkpt><trkpt lat="43.93218" lon="6.668205"><ele>864.0</ele><time>2026-05-03T09:11:23.272Z</time></trkpt><trkpt lat="43.9322233" lon="6.668335"><ele>864.0</ele><time>2026-05-03T09:11:24.272Z</time></trkpt><trkpt lat="43.9322583" lon="6.6684483"><ele>864.0</ele><time>2026-05-03T09:11:25.272Z</time></trkpt><trkpt lat="43.9322817" lon="6.66853"><ele>864.0</ele><time>2026-05-03T09:11:26.272Z</time></trkpt><trkpt lat="43.932315" lon="6.6686317"><ele>864.0</ele><time>2026-05-03T09:11:28.272Z</time></trkpt><trkpt lat="43.932385" lon="6.6686917"><ele>864.0</ele><time>2026-05-03T09:12:06.273Z</time></trkpt><trkpt lat="43.9324417" lon="6.6687383"><ele>864.0</ele><time>2026-05-03T09:12:07.272Z</time></trkpt><trkpt lat="43.9325183" lon="6.6687933"><ele>863.75</ele><time>2026-05-03T09:12:08.272Z</time></trkpt><trkpt lat="43.9326167" lon="6.66884"><ele>863.5</ele><time>2026-05-03T09:12:09.272Z</time></trkpt><trkpt lat="43.9327217" lon="6.6689"><ele>863.25</ele><time>2026-05-03T09:12:10.273Z</time></trkpt><trkpt lat="43.9328383" lon="6.669005"><ele>863.0</ele><time>2026-05-03T09:12:11.273Z</time></trkpt><trkpt lat="43.932925" lon="6.6691517"><ele>863.0</ele><time>2026-05-03T09:12:12.272Z</time></trkpt><trkpt lat="43.932985" lon="6.6693167"><ele>863.0</ele><time>2026-05-03T09:12:13.272Z</time></trkpt><trkpt lat="43.9330167" lon="6.669485"><ele>863.0</ele><time>2026-05-03T09:12:14.272Z</time></trkpt><trkpt lat="43.9330533" lon="6.66964"><ele>863.0</ele><time>2026-05-03T09:12:15.272Z</time></trkpt><trkpt lat="43.93311" lon="6.6697717"><ele>865.5999999999999</ele><time>2026-05-03T09:12:16.272Z</time></trkpt><trkpt lat="43.9331883" lon="6.669855"><ele>868.1999999999999</ele><time>2026-05-03T09:12:17.272Z</time></trkpt><trkpt lat="43.9332867" lon="6.6698917"><ele>870.8</ele><time>2026-05-03T09:12:18.272Z</time></trkpt><trkpt lat="43.9334067" lon="6.6699283"><ele>873.4</ele><time>2026-05-03T09:12:19.272Z</time></trkpt><trkpt lat="43.9335183" lon="6.669995"><ele>876.0</ele><time>2026-05-03T09:12:20.272Z</time></trkpt><trkpt lat="43.9335983" lon="6.6700933"><ele>876.0</ele><time>2026-05-03T09:12:21.272Z</time></trkpt><trkpt lat="43.93363" lon="6.67025"><ele>876.0</ele><time>2026-05-03T09:12:22.272Z</time></trkpt><trkpt lat="43.9336233" lon="6.6704117"><ele>876.0</ele><time>2026-05-03T09:12:23.272Z</time></trkpt><trkpt lat="43.9335833" lon="6.670575"><ele>876.0</ele><time>2026-05-03T09:12:24.272Z</time></trkpt><trkpt lat="43.9335533" lon="6.6707383"><ele>871.5</ele><time>2026-05-03T09:12:25.272Z</time></trkpt><trkpt lat="43.9335567" lon="6.67091"><ele>867.0</ele><time>2026-05-03T09:12:26.273Z</time></trkpt><trkpt lat="43.9336033" lon="6.6710717"><ele>862.5</ele><time>2026-05-03T09:12:27.272Z</time></trkpt><trkpt lat="43.9336867" lon="6.67121"><ele>858.0</ele><time>2026-05-03T09:12:28.272Z</time></trkpt><trkpt lat="43.9337983" lon="6.6713083"><ele>852.75</ele><time>2026-05-03T09:12:29.272Z</time></trkpt><trkpt lat="43.9339183" lon="6.67137"><ele>847.5</ele><time>2026-05-03T09:12:30.272Z</time></trkpt><trkpt lat="43.9340367" lon="6.6714517"><ele>842.25</ele><time>2026-05-03T09:12:31.272Z</time></trkpt><trkpt lat="43.9341217" lon="6.6715767"><ele>837.0</ele><time>2026-05-03T09:12:32.272Z</time></trkpt><trkpt lat="43.93418" lon="6.67175"><ele>841.25</ele><time>2026-05-03T09:12:33.272Z</time></trkpt><trkpt lat="43.9342267" lon="6.6719183"><ele>845.5</ele><time>2026-05-03T09:12:34.273Z</time></trkpt><trkpt lat="43.9342983" lon="6.67209"><ele>849.75</ele><time>2026-05-03T09:12:35.273Z</time></trkpt><trkpt lat="43.9343867" lon="6.6722667"><ele>854.0</ele><time>2026-05-03T09:12:36.273Z</time></trkpt><trkpt lat="43.9344917" lon="6.6724383"><ele>854.0</ele><time>2026-05-03T09:12:37.272Z</time></trkpt><trkpt lat="43.934605" lon="6.6726217"><ele>854.0</ele><time>2026-05-03T09:12:38.272Z</time></trkpt><trkpt lat="43.9347067" lon="6.6728183"><ele>854.0</ele><time>2026-05-03T09:12:39.272Z</time></trkpt><trkpt lat="43.9347917" lon="6.6730217"><ele>849.6666666666667</ele><time>2026-05-03T09:12:40.272Z</time></trkpt><trkpt lat="43.9348567" lon="6.6732267"><ele>845.3333333333333</ele><time>2026-05-03T09:12:41.272Z</time></trkpt><trkpt lat="43.9349117" lon="6.6734367"><ele>841.0</ele><time>2026-05-03T09:12:42.273Z</time></trkpt><trkpt lat="43.93498" lon="6.67365"><ele>834.6666666666666</ele><time>2026-05-03T09:12:43.272Z</time></trkpt><trkpt lat="43.9350433" lon="6.6738767"><ele>828.3333333333333</ele><time>2026-05-03T09:12:44.272Z</time></trkpt><trkpt lat="43.9350983" lon="6.6741017"><ele>822.0</ele><time>2026-05-03T09:12:45.272Z</time></trkpt><trkpt lat="43.9351567" lon="6.6743183"><ele>837.3333333333333</ele><time>2026-05-03T09:12:46.272Z</time></trkpt><trkpt lat="43.935205" lon="6.674535"><ele>852.6666666666666</ele><time>2026-05-03T09:12:47.272Z</time></trkpt><trkpt lat="43.9352333" lon="6.6747617"><ele>868.0</ele><time>2026-05-03T09:12:48.272Z</time></trkpt><trkpt lat="43.935245" lon="6.67499"><ele>868.0</ele><time>2026-05-03T09:12:49.272Z</time></trkpt><trkpt lat="43.935245" lon="6.6752067"><ele>868.0</ele><time>2026-05-03T09:12:50.272Z</time></trkpt><trkpt lat="43.9352383" lon="6.6754183"><ele>868.0</ele><time>2026-05-03T09:12:51.272Z</time></trkpt><trkpt lat="43.93521" lon="6.675615"><ele>867.25</ele><time>2026-05-03T09:12:52.272Z</time></trkpt><trkpt lat="43.935195" lon="6.675805"><ele>866.5</ele><time>2026-05-03T09:12:53.272Z</time></trkpt><trkpt lat="43.9352117" lon="6.6759983"><ele>865.75</ele><time>2026-05-03T09:12:54.272Z</time></trkpt><trkpt lat="43.93526" lon="6.6761833"><ele>865.0</ele><time>2026-05-03T09:12:55.272Z</time></trkpt><trkpt lat="43.935335" lon="6.6763517"><ele>864.25</ele><time>2026-05-03T09:12:56.272Z</time></trkpt><trkpt lat="43.9353983" lon="6.6765217"><ele>863.5</ele><time>2026-05-03T09:12:57.272Z</time></trkpt><trkpt lat="43.9354417" lon="6.6766967"><ele>862.75</ele><time>2026-05-03T09:12:58.272Z</time></trkpt><trkpt lat="43.9354417" lon="6.6768833"><ele>862.0</ele><time>2026-05-03T09:12:59.272Z</time></trkpt><trkpt lat="43.9354483" lon="6.6770683"><ele>851.75</ele><time>2026-05-03T09:13:00.273Z</time></trkpt><trkpt lat="43.9354783" lon="6.67723"><ele>841.5</ele><time>2026-05-03T09:13:01.273Z</time></trkpt><trkpt lat="43.9355483" lon="6.6773733"><ele>831.25</ele><time>2026-05-03T09:13:02.272Z</time></trkpt><trkpt lat="43.9356467" lon="6.6774983"><ele>821.0</ele><time>2026-05-03T09:13:03.272Z</time></trkpt><trkpt lat="43.9357617" lon="6.67763"><ele>822.6666666666667</ele><time>2026-05-03T09:13:04.272Z</time></trkpt><trkpt lat="43.9358883" lon="6.6777683"><ele>824.3333333333333</ele><time>2026-05-03T09:13:05.272Z</time></trkpt><trkpt lat="43.9360333" lon="6.6778833"><ele>826.0</ele><time>2026-05-03T09:13:06.273Z</time></trkpt><trkpt lat="43.93619" lon="6.6780083"><ele>826.0</ele><time>2026-05-03T09:13:07.272Z</time></trkpt><trkpt lat="43.9363383" lon="6.67812"><ele>826.0</ele><time>2026-05-03T09:13:08.272Z</time></trkpt><trkpt lat="43.93648" lon="6.6782267"><ele>826.0</ele><time>2026-05-03T09:13:09.272Z</time></trkpt><trkpt lat="43.93661" lon="6.67831"><ele>826.0</ele><time>2026-05-03T09:13:10.272Z</time></trkpt><trkpt lat="43.9367167" lon="6.678405"><ele>826.0</ele><time>2026-05-03T09:13:11.272Z</time></trkpt><trkpt lat="43.93678" lon="6.6785267"><ele>826.0</ele><time>2026-05-03T09:13:12.272Z</time></trkpt><trkpt lat="43.9368067" lon="6.6786583"><ele>826.0</ele><time>2026-05-03T09:13:13.272Z</time></trkpt><trkpt lat="43.9368017" lon="6.6787967"><ele>826.0</ele><time>2026-05-03T09:13:14.272Z</time></trkpt><trkpt lat="43.9367817" lon="6.6789683"><ele>835.6666666666666</ele><time>2026-05-03T09:13:15.272Z</time></trkpt><trkpt lat="43.9367817" lon="6.6791633"><ele>845.3333333333333</ele><time>2026-05-03T09:13:16.273Z</time></trkpt><trkpt lat="43.9368" lon="6.67937"><ele>855.0</ele><time>2026-05-03T09:13:17.273Z</time></trkpt><trkpt lat="43.9368283" lon="6.6796017"><ele>855.0</ele><time>2026-05-03T09:13:18.272Z</time></trkpt><trkpt lat="43.9368583" lon="6.6798217"><ele>855.0</ele><time>2026-05-03T09:13:19.272Z</time></trkpt><trkpt lat="43.9368817" lon="6.6800383"><ele>855.0</ele><time>2026-05-03T09:13:20.272Z</time></trkpt><trkpt lat="43.9368983" lon="6.6802517"><ele>853.0</ele><time>2026-05-03T09:13:21.272Z</time></trkpt><trkpt lat="43.9369067" lon="6.6804733"><ele>851.0</ele><time>2026-05-03T09:13:22.272Z</time></trkpt><trkpt lat="43.9369183" lon="6.6807183"><ele>849.0</ele><time>2026-05-03T09:13:23.272Z</time></trkpt><trkpt lat="43.93694" lon="6.6809317"><ele>843.0</ele><time>2026-05-03T09:13:24.272Z</time></trkpt><trkpt lat="43.9369917" lon="6.6811233"><ele>837.0</ele><time>2026-05-03T09:13:25.272Z</time></trkpt><trkpt lat="43.9370567" lon="6.6813183"><ele>831.0</ele><time>2026-05-03T09:13:26.272Z</time></trkpt><trkpt lat="43.9371067" lon="6.6815"><ele>825.0</ele><time>2026-05-03T09:13:27.272Z</time></trkpt><trkpt lat="43.937125" lon="6.681685"><ele>825.0</ele><time>2026-05-03T09:13:28.273Z</time></trkpt><trkpt lat="43.9371433" lon="6.6818517"><ele>825.0</ele><time>2026-05-03T09:13:29.272Z</time></trkpt><trkpt lat="43.93719" lon="6.681985"><ele>825.0</ele><time>2026-05-03T09:13:30.272Z</time></trkpt><trkpt lat="43.937275" lon="6.682115"><ele>825.0</ele><time>2026-05-03T09:13:31.272Z</time></trkpt><trkpt lat="43.93736" lon="6.6822467"><ele>821.0</ele><time>2026-05-03T09:13:32.272Z</time></trkpt><trkpt lat="43.9374367" lon="6.682395"><ele>817.0</ele><time>2026-05-03T09:13:33.273Z</time></trkpt><trkpt lat="43.937485" lon="6.6825683"><ele>813.0</ele><time>2026-05-03T09:13:34.272Z</time></trkpt><trkpt lat="43.9375133" lon="6.6827517"><ele>809.0</ele><time>2026-05-03T09:13:35.272Z</time></trkpt><trkpt lat="43.9375083" lon="6.68296"><ele>808.0</ele><time>2026-05-03T09:13:36.273Z</time></trkpt><trkpt lat="43.93751" lon="6.6831667"><ele>807.0</ele><time>2026-05-03T09:13:37.273Z</time></trkpt><trkpt lat="43.9374967" lon="6.6833717"><ele>806.0</ele><time>2026-05-03T09:13:38.272Z</time></trkpt><trkpt lat="43.9374867" lon="6.6835717"><ele>805.0</ele><time>2026-05-03T09:13:39.272Z</time></trkpt><trkpt lat="43.9374783" lon="6.6837783"><ele>812.0</ele><time>2026-05-03T09:13:40.272Z</time></trkpt><trkpt lat="43.9374767" lon="6.68397"><ele>819.0</ele><time>2026-05-03T09:13:41.272Z</time></trkpt><trkpt lat="43.9374867" lon="6.684155"><ele>826.0</ele><time>2026-05-03T09:13:42.272Z</time></trkpt><trkpt lat="43.9375267" lon="6.6843233"><ele>833.0</ele><time>2026-05-03T09:13:43.272Z</time></trkpt><trkpt lat="43.9375783" lon="6.6844767"><ele>833.0</ele><time>2026-05-03T09:13:44.272Z</time></trkpt><trkpt lat="43.937605" lon="6.6846317"><ele>833.0</ele><time>2026-05-03T09:13:45.272Z</time></trkpt><trkpt lat="43.9376133" lon="6.6847667"><ele>833.0</ele><time>2026-05-03T09:13:46.273Z</time></trkpt><trkpt lat="43.9376117" lon="6.6849217"><ele>833.0</ele><time>2026-05-03T09:13:47.272Z</time></trkpt><trkpt lat="43.937615" lon="6.6850917"><ele>833.0</ele><time>2026-05-03T09:13:48.272Z</time></trkpt><trkpt lat="43.93768" lon="6.68527"><ele>827.75</ele><time>2026-05-03T09:13:49.272Z</time></trkpt><trkpt lat="43.9377583" lon="6.6854433"><ele>822.5</ele><time>2026-05-03T09:13:50.273Z</time></trkpt><trkpt lat="43.9378017" lon="6.68562"><ele>817.25</ele><time>2026-05-03T09:13:51.272Z</time></trkpt><trkpt lat="43.9377967" lon="6.6857867"><ele>812.0</ele><time>2026-05-03T09:13:52.272Z</time></trkpt><trkpt lat="43.9377517" lon="6.68595"><ele>806.75</ele><time>2026-05-03T09:13:53.272Z</time></trkpt><trkpt lat="43.937705" lon="6.6861167"><ele>801.5</ele><time>2026-05-03T09:13:54.272Z</time></trkpt><trkpt lat="43.9376567" lon="6.6863067"><ele>796.25</ele><time>2026-05-03T09:13:55.272Z</time></trkpt><trkpt lat="43.9376167" lon="6.6864817"><ele>791.0</ele><time>2026-05-03T09:13:56.272Z</time></trkpt><trkpt lat="43.93758" lon="6.6866333"><ele>791.0</ele><time>2026-05-03T09:13:57.272Z</time></trkpt><trkpt lat="43.937555" lon="6.686785"><ele>791.0</ele><time>2026-05-03T09:13:58.272Z</time></trkpt><trkpt lat="43.9375433" lon="6.6869367"><ele>791.0</ele><time>2026-05-03T09:13:59.272Z</time></trkpt><trkpt lat="43.9375917" lon="6.6870583"><ele>791.0</ele><time>2026-05-03T09:14:00.272Z</time></trkpt><trkpt lat="43.9376817" lon="6.687135"><ele>791.0</ele><time>2026-05-03T09:14:01.272Z</time></trkpt><trkpt lat="43.93779" lon="6.6871733"><ele>784.0</ele><time>2026-05-03T09:14:02.272Z</time></trkpt><trkpt lat="43.9379183" lon="6.6871833"><ele>777.0</ele><time>2026-05-03T09:14:03.272Z</time></trkpt><trkpt lat="43.938065" lon="6.6871867"><ele>770.0</ele><time>2026-05-03T09:14:04.272Z</time></trkpt><trkpt lat="43.9382017" lon="6.687205"><ele>763.0</ele><time>2026-05-03T09:14:05.272Z</time></trkpt><trkpt lat="43.9383633" lon="6.6872217"><ele>766.25</ele><time>2026-05-03T09:14:06.272Z</time></trkpt><trkpt lat="43.9385217" lon="6.6872583"><ele>769.5</ele><time>2026-05-03T09:14:07.272Z</time></trkpt><trkpt lat="43.9386667" lon="6.6873017"><ele>772.75</ele><time>2026-05-03T09:14:08.272Z</time></trkpt><trkpt lat="43.9388017" lon="6.6873517"><ele>776.0</ele><time>2026-05-03T09:14:09.272Z</time></trkpt><trkpt lat="43.9389317" lon="6.6874183"><ele>776.0</ele><time>2026-05-03T09:14:10.272Z</time></trkpt><trkpt lat="43.93905" lon="6.6875133"><ele>776.0</ele><time>2026-05-03T09:14:11.272Z</time></trkpt><trkpt lat="43.9391717" lon="6.68762"><ele>776.0</ele><time>2026-05-03T09:14:12.272Z</time></trkpt><trkpt lat="43.9392733" lon="6.68773"><ele>776.0</ele><time>2026-05-03T09:14:13.272Z</time></trkpt><trkpt lat="43.9393817" lon="6.687845"><ele>773.25</ele><time>2026-05-03T09:14:14.273Z</time></trkpt><trkpt lat="43.9394867" lon="6.6879567"><ele>770.5</ele><time>2026-05-03T09:14:15.273Z</time></trkpt><trkpt lat="43.9395833" lon="6.68807"><ele>767.75</ele><time>2026-05-03T09:14:16.272Z</time></trkpt><trkpt lat="43.9396567" lon="6.6881867"><ele>765.0</ele><time>2026-05-03T09:14:17.272Z</time></trkpt><trkpt lat="43.9397383" lon="6.688285"><ele>765.0</ele><time>2026-05-03T09:14:18.272Z</time></trkpt><trkpt lat="43.9398317" lon="6.688355"><ele>765.0</ele><time>2026-05-03T09:14:19.272Z</time></trkpt><trkpt lat="43.9399217" lon="6.688385"><ele>765.0</ele><time>2026-05-03T09:14:20.272Z</time></trkpt><trkpt lat="43.9399883" lon="6.6884467"><ele>765.0</ele><time>2026-05-03T09:14:21.272Z</time></trkpt><trkpt lat="43.94004" lon="6.688515"><ele>765.0</ele><time>2026-05-03T09:14:22.272Z</time></trkpt><trkpt lat="43.9400567" lon="6.6886083"><ele>765.0</ele><time>2026-05-03T09:14:23.272Z</time></trkpt><trkpt lat="43.94004" lon="6.68872"><ele>767.6</ele><time>2026-05-03T09:14:24.272Z</time></trkpt><trkpt lat="43.9400133" lon="6.68884"><ele>770.2</ele><time>2026-05-03T09:14:25.272Z</time></trkpt><trkpt lat="43.94" lon="6.6889533"><ele>772.8</ele><time>2026-05-03T09:14:26.272Z</time></trkpt><trkpt lat="43.9400067" lon="6.6890517"><ele>775.4</ele><time>2026-05-03T09:14:27.272Z</time></trkpt><trkpt lat="43.9400983" lon="6.6891933"><ele>778.0</ele><time>2026-05-03T09:14:29.272Z</time></trkpt><trkpt lat="43.94019" lon="6.68926"><ele>780.75</ele><time>2026-05-03T09:14:30.273Z</time></trkpt><trkpt lat="43.9402983" lon="6.6893283"><ele>783.5</ele><time>2026-05-03T09:14:31.272Z</time></trkpt><trkpt lat="43.940405" lon="6.689395"><ele>786.25</ele><time>2026-05-03T09:14:32.272Z</time></trkpt><trkpt lat="43.9405183" lon="6.689435"><ele>789.0</ele><time>2026-05-03T09:14:33.272Z</time></trkpt><trkpt lat="43.9406517" lon="6.68944"><ele>789.0</ele><time>2026-05-03T09:14:34.272Z</time></trkpt><trkpt lat="43.9407817" lon="6.6894317"><ele>789.0</ele><time>2026-05-03T09:14:35.272Z</time></trkpt><trkpt lat="43.9409117" lon="6.6894317"><ele>789.0</ele><time>2026-05-03T09:14:36.272Z</time></trkpt><trkpt lat="43.9410317" lon="6.6894617"><ele>789.0</ele><time>2026-05-03T09:14:37.273Z</time></trkpt><trkpt lat="43.9411367" lon="6.6895317"><ele>778.0</ele><time>2026-05-03T09:14:38.272Z</time></trkpt><trkpt lat="43.9412417" lon="6.6896183"><ele>767.0</ele><time>2026-05-03T09:14:39.272Z</time></trkpt><trkpt lat="43.9413517" lon="6.6897217"><ele>756.0</ele><time>2026-05-03T09:14:40.272Z</time></trkpt><trkpt lat="43.9414667" lon="6.68984"><ele>745.0</ele><time>2026-05-03T09:14:41.272Z</time></trkpt><trkpt lat="43.9415817" lon="6.68992"><ele>745.0</ele><time>2026-05-03T09:14:42.272Z</time></trkpt><trkpt lat="43.941705" lon="6.6899783"><ele>745.0</ele><time>2026-05-03T09:14:43.272Z</time></trkpt><trkpt lat="43.941825" lon="6.6899917"><ele>745.0</ele><time>2026-05-03T09:14:44.272Z</time></trkpt><trkpt lat="43.941955" lon="6.6899717"><ele>745.0</ele><time>2026-05-03T09:14:45.272Z</time></trkpt><trkpt lat="43.9420883" lon="6.6899167"><ele>745.5</ele><time>2026-05-03T09:14:46.272Z</time></trkpt><trkpt lat="43.94222" lon="6.689855"><ele>746.0</ele><time>2026-05-03T09:14:47.272Z</time></trkpt><trkpt lat="43.9423533" lon="6.6898017"><ele>746.5</ele><time>2026-05-03T09:14:48.272Z</time></trkpt><trkpt lat="43.9424933" lon="6.68979"><ele>747.0</ele><time>2026-05-03T09:14:49.272Z</time></trkpt><trkpt lat="43.9426383" lon="6.6898217"><ele>740.0</ele><time>2026-05-03T09:14:50.272Z</time></trkpt><trkpt lat="43.9427817" lon="6.6899083"><ele>733.0</ele><time>2026-05-03T09:14:51.272Z</time></trkpt><trkpt lat="43.94292" lon="6.6900417"><ele>726.0</ele><time>2026-05-03T09:14:52.272Z</time></trkpt><trkpt lat="43.9430633" lon="6.69017"><ele>728.3333333333334</ele><time>2026-05-03T09:14:53.272Z</time></trkpt><trkpt lat="43.94321" lon="6.6903"><ele>730.6666666666667</ele><time>2026-05-03T09:14:54.273Z</time></trkpt><trkpt lat="43.94336" lon="6.6904083"><ele>733.0</ele><time>2026-05-03T09:14:55.272Z</time></trkpt><trkpt lat="43.9435133" lon="6.6904683"><ele>733.0</ele><time>2026-05-03T09:14:56.272Z</time></trkpt><trkpt lat="43.943685" lon="6.690525"><ele>733.0</ele><time>2026-05-03T09:14:57.272Z</time></trkpt><trkpt lat="43.9438633" lon="6.6905467"><ele>733.0</ele><time>2026-05-03T09:14:58.272Z</time></trkpt><trkpt lat="43.9440283" lon="6.6905483"><ele>733.0</ele><time>2026-05-03T09:14:59.272Z</time></trkpt><trkpt lat="43.9441867" lon="6.69055"><ele>733.0</ele><time>2026-05-03T09:15:00.273Z</time></trkpt><trkpt lat="43.9443433" lon="6.6905233"><ele>733.0</ele><time>2026-05-03T09:15:01.273Z</time></trkpt><trkpt lat="43.9444917" lon="6.6904517"><ele>733.0</ele><time>2026-05-03T09:15:02.272Z</time></trkpt><trkpt lat="43.9446183" lon="6.690315"><ele>733.0</ele><time>2026-05-03T09:15:03.272Z</time></trkpt><trkpt lat="43.9447067" lon="6.6901417"><ele>733.0</ele><time>2026-05-03T09:15:04.273Z</time></trkpt><trkpt lat="43.9447833" lon="6.6899633"><ele>733.0</ele><time>2026-05-03T09:15:05.273Z</time></trkpt><trkpt lat="43.9448667" lon="6.6897817"><ele>733.0</ele><time>2026-05-03T09:15:06.272Z</time></trkpt><trkpt lat="43.9449717" lon="6.6896383"><ele>733.0</ele><time>2026-05-03T09:15:07.272Z</time></trkpt><trkpt lat="43.945105" lon="6.6895217"><ele>735.0</ele><time>2026-05-03T09:15:08.272Z</time></trkpt><trkpt lat="43.94525" lon="6.6894583"><ele>737.0</ele><time>2026-05-03T09:15:09.272Z</time></trkpt><trkpt lat="43.9454" lon="6.6894417"><ele>739.0</ele><time>2026-05-03T09:15:10.272Z</time></trkpt><trkpt lat="43.9455683" lon="6.6894783"><ele>739.0</ele><time>2026-05-03T09:15:11.272Z</time></trkpt><trkpt lat="43.9457467" lon="6.6895367"><ele>739.0</ele><time>2026-05-03T09:15:12.273Z</time></trkpt><trkpt lat="43.9459233" lon="6.6896033"><ele>739.0</ele><time>2026-05-03T09:15:13.272Z</time></trkpt><trkpt lat="43.9461017" lon="6.6896533"><ele>737.0</ele><time>2026-05-03T09:15:14.272Z</time></trkpt><trkpt lat="43.9462833" lon="6.6896783"><ele>735.0</ele><time>2026-05-03T09:15:15.272Z</time></trkpt><trkpt lat="43.946465" lon="6.689665"><ele>733.0</ele><time>2026-05-03T09:15:16.272Z</time></trkpt><trkpt lat="43.94664" lon="6.6896267"><ele>739.6666666666667</ele><time>2026-05-03T09:15:17.272Z</time></trkpt><trkpt lat="43.9468133" lon="6.6895583"><ele>746.3333333333334</ele><time>2026-05-03T09:15:18.272Z</time></trkpt><trkpt lat="43.946985" lon="6.689475"><ele>753.0</ele><time>2026-05-03T09:15:19.272Z</time></trkpt><trkpt lat="43.94716" lon="6.6893833"><ele>740.3333333333334</ele><time>2026-05-03T09:15:20.272Z</time></trkpt><trkpt lat="43.9473367" lon="6.6892817"><ele>727.6666666666667</ele><time>2026-05-03T09:15:21.272Z</time></trkpt><trkpt lat="43.947505" lon="6.689185"><ele>715.0</ele><time>2026-05-03T09:15:22.272Z</time></trkpt><trkpt lat="43.9476833" lon="6.6890967"><ele>715.0</ele><time>2026-05-03T09:15:23.272Z</time></trkpt><trkpt lat="43.9478633" lon="6.6889967"><ele>715.0</ele><time>2026-05-03T09:15:24.272Z</time></trkpt><trkpt lat="43.9480333" lon="6.688925"><ele>715.0</ele><time>2026-05-03T09:15:25.272Z</time></trkpt><trkpt lat="43.948225" lon="6.68888"><ele>719.3333333333334</ele><time>2026-05-03T09:15:26.272Z</time></trkpt><trkpt lat="43.94841" lon="6.6888583"><ele>723.6666666666666</ele><time>2026-05-03T09:15:27.272Z</time></trkpt><trkpt lat="43.9486017" lon="6.688855"><ele>728.0</ele><time>2026-05-03T09:15:28.272Z</time></trkpt><trkpt lat="43.9487867" lon="6.688825"><ele>728.0</ele><time>2026-05-03T09:15:29.272Z</time></trkpt><trkpt lat="43.9489467" lon="6.6887767"><ele>728.0</ele><time>2026-05-03T09:15:30.272Z</time></trkpt><trkpt lat="43.9491167" lon="6.688695"><ele>728.0</ele><time>2026-05-03T09:15:31.272Z</time></trkpt><trkpt lat="43.9492717" lon="6.6885617"><ele>730.0</ele><time>2026-05-03T09:15:32.273Z</time></trkpt><trkpt lat="43.9494033" lon="6.6883983"><ele>732.0</ele><time>2026-05-03T09:15:33.272Z</time></trkpt><trkpt lat="43.9495133" lon="6.6882017"><ele>734.0</ele><time>2026-05-03T09:15:34.273Z</time></trkpt><trkpt lat="43.949625" lon="6.68799"><ele>734.0</ele><time>2026-05-03T09:15:35.272Z</time></trkpt><trkpt lat="43.9497183" lon="6.6877933"><ele>734.0</ele><time>2026-05-03T09:15:36.272Z</time></trkpt><trkpt lat="43.949815" lon="6.6876133"><ele>734.0</ele><time>2026-05-03T09:15:37.272Z</time></trkpt><trkpt lat="43.949935" lon="6.6874617"><ele>725.6666666666666</ele><time>2026-05-03T09:15:38.272Z</time></trkpt><trkpt lat="43.9500717" lon="6.68736"><ele>717.3333333333334</ele><time>2026-05-03T09:15:39.272Z</time></trkpt><trkpt lat="43.9502383" lon="6.6873067"><ele>709.0</ele><time>2026-05-03T09:15:40.272Z</time></trkpt><trkpt lat="43.9504183" lon="6.68729"><ele>709.0</ele><time>2026-05-03T09:15:41.272Z</time></trkpt><trkpt lat="43.9506083" lon="6.6872883"><ele>709.0</ele><time>2026-05-03T09:15:42.273Z</time></trkpt><trkpt lat="43.9507867" lon="6.6872883"><ele>709.0</ele><time>2026-05-03T09:15:43.272Z</time></trkpt><trkpt lat="43.9509667" lon="6.6872733"><ele>716.0</ele><time>2026-05-03T09:15:44.272Z</time></trkpt><trkpt lat="43.9511383" lon="6.6872083"><ele>723.0</ele><time>2026-05-03T09:15:45.272Z</time></trkpt><trkpt lat="43.951305" lon="6.68715"><ele>730.0</ele><time>2026-05-03T09:15:46.272Z</time></trkpt><trkpt lat="43.9514617" lon="6.6870683"><ele>730.0</ele><time>2026-05-03T09:15:47.272Z</time></trkpt><trkpt lat="43.951605" lon="6.686965"><ele>730.0</ele><time>2026-05-03T09:15:48.272Z</time></trkpt><trkpt lat="43.951725" lon="6.6868383"><ele>730.0</ele><time>2026-05-03T09:15:49.272Z</time></trkpt><trkpt lat="43.95185" lon="6.6866733"><ele>732.0</ele><time>2026-05-03T09:15:50.272Z</time></trkpt><trkpt lat="43.9519617" lon="6.6864767"><ele>734.0</ele><time>2026-05-03T09:15:51.272Z</time></trkpt><trkpt lat="43.9520367" lon="6.6862733"><ele>736.0</ele><time>2026-05-03T09:15:52.273Z</time></trkpt><trkpt lat="43.9520783" lon="6.6860717"><ele>727.0</ele><time>2026-05-03T09:15:53.272Z</time></trkpt><trkpt lat="43.95213" lon="6.6858317"><ele>718.0</ele><time>2026-05-03T09:15:54.272Z</time></trkpt><trkpt lat="43.952165" lon="6.6856133"><ele>709.0</ele><time>2026-05-03T09:15:55.272Z</time></trkpt><trkpt lat="43.9522317" lon="6.6854483"><ele>709.0</ele><time>2026-05-03T09:15:56.273Z</time></trkpt><trkpt lat="43.9523383" lon="6.6853083"><ele>709.0</ele><time>2026-05-03T09:15:57.273Z</time></trkpt><trkpt lat="43.9524833" lon="6.685225"><ele>709.0</ele><time>2026-05-03T09:15:58.273Z</time></trkpt><trkpt lat="43.9526417" lon="6.685165"><ele>700.3333333333334</ele><time>2026-05-03T09:15:59.272Z</time></trkpt><trkpt lat="43.952785" lon="6.6850967"><ele>691.6666666666666</ele><time>2026-05-03T09:16:00.272Z</time></trkpt><trkpt lat="43.9529183" lon="6.68499"><ele>683.0</ele><time>2026-05-03T09:16:01.272Z</time></trkpt><trkpt lat="43.953035" lon="6.6848317"><ele>683.0</ele><time>2026-05-03T09:16:02.272Z</time></trkpt><trkpt lat="43.9531583" lon="6.6846867"><ele>683.0</ele><time>2026-05-03T09:16:03.272Z</time></trkpt><trkpt lat="43.9532783" lon="6.6845983"><ele>683.0</ele><time>2026-05-03T09:16:04.272Z</time></trkpt><trkpt lat="43.9534183" lon="6.6845733"><ele>683.0</ele><time>2026-05-03T09:16:05.272Z</time></trkpt><trkpt lat="43.95358" lon="6.6846117"><ele>680.0</ele><time>2026-05-03T09:16:06.272Z</time></trkpt><trkpt lat="43.9537517" lon="6.6846717"><ele>677.0</ele><time>2026-05-03T09:16:07.272Z</time></trkpt><trkpt lat="43.95392" lon="6.684725"><ele>674.0</ele><time>2026-05-03T09:16:08.272Z</time></trkpt><trkpt lat="43.9540817" lon="6.68474"><ele>671.0</ele><time>2026-05-03T09:16:09.273Z</time></trkpt><trkpt lat="43.9542283" lon="6.6847267"><ele>668.0</ele><time>2026-05-03T09:16:10.272Z</time></trkpt><trkpt lat="43.9543717" lon="6.6846867"><ele>665.0</ele><time>2026-05-03T09:16:11.272Z</time></trkpt><trkpt lat="43.9545067" lon="6.6846817"><ele>662.0</ele><time>2026-05-03T09:16:12.272Z</time></trkpt><trkpt lat="43.9546367" lon="6.68473"><ele>662.0</ele><time>2026-05-03T09:16:13.272Z</time></trkpt><trkpt lat="43.9547467" lon="6.684835"><ele>662.0</ele><time>2026-05-03T09:16:14.272Z</time></trkpt><trkpt lat="43.9548333" lon="6.6849883"><ele>662.0</ele><time>2026-05-03T09:16:15.272Z</time></trkpt><trkpt lat="43.95491" lon="6.6851617"><ele>662.0</ele><time>2026-05-03T09:16:16.272Z</time></trkpt><trkpt lat="43.9549917" lon="6.68535"><ele>660.3333333333333</ele><time>2026-05-03T09:16:17.272Z</time></trkpt><trkpt lat="43.9550767" lon="6.6855333"><ele>658.6666666666666</ele><time>2026-05-03T09:16:18.272Z</time></trkpt><trkpt lat="43.9551667" lon="6.6857017"><ele>657.0</ele><time>2026-05-03T09:16:19.272Z</time></trkpt><trkpt lat="43.955245" lon="6.685875"><ele>657.0</ele><time>2026-05-03T09:16:20.272Z</time></trkpt><trkpt lat="43.9553183" lon="6.686055"><ele>657.0</ele><time>2026-05-03T09:16:21.272Z</time></trkpt><trkpt lat="43.9553733" lon="6.6862167"><ele>657.0</ele><time>2026-05-03T09:16:22.272Z</time></trkpt><trkpt lat="43.9554333" lon="6.6863367"><ele>657.0</ele><time>2026-05-03T09:16:23.272Z</time></trkpt><trkpt lat="43.9555017" lon="6.6864267"><ele>657.4000000000001</ele><time>2026-05-03T09:16:24.272Z</time></trkpt><trkpt lat="43.955575" lon="6.6864617"><ele>657.8000000000001</ele><time>2026-05-03T09:16:25.272Z</time></trkpt><trkpt lat="43.955645" lon="6.6864733"><ele>658.2</ele><time>2026-05-03T09:16:26.272Z</time></trkpt><trkpt lat="43.9557117" lon="6.6864833"><ele>658.6</ele><time>2026-05-03T09:16:27.272Z</time></trkpt><trkpt lat="43.9558033" lon="6.68658"><ele>659.0</ele><time>2026-05-03T09:16:29.272Z</time></trkpt><trkpt lat="43.95584" lon="6.6867467"><ele>659.0</ele><time>2026-05-03T09:16:31.272Z</time></trkpt><trkpt lat="43.955845" lon="6.6868683"><ele>659.0</ele><time>2026-05-03T09:16:32.272Z</time></trkpt><trkpt lat="43.955845" lon="6.6869967"><ele>659.0</ele><time>2026-05-03T09:16:33.273Z</time></trkpt><trkpt lat="43.9558467" lon="6.6871217"><ele>659.0</ele><time>2026-05-03T09:16:34.273Z</time></trkpt><trkpt lat="43.9558467" lon="6.6872467"><ele>659.0</ele><time>2026-05-03T09:16:35.272Z</time></trkpt><trkpt lat="43.955855" lon="6.6873583"><ele>659.0</ele><time>2026-05-03T09:16:36.272Z</time></trkpt><trkpt lat="43.9558733" lon="6.687475"><ele>660.2</ele><time>2026-05-03T09:16:37.273Z</time></trkpt><trkpt lat="43.95591" lon="6.6875983"><ele>661.4000000000001</ele><time>2026-05-03T09:16:38.272Z</time></trkpt><trkpt lat="43.9559617" lon="6.6877167"><ele>662.6</ele><time>2026-05-03T09:16:39.272Z</time></trkpt><trkpt lat="43.9560283" lon="6.6878383"><ele>663.8</ele><time>2026-05-03T09:16:40.272Z</time></trkpt><trkpt lat="43.9561033" lon="6.68797"><ele>665.0</ele><time>2026-05-03T09:16:41.272Z</time></trkpt><trkpt lat="43.9561833" lon="6.688105"><ele>665.0</ele><time>2026-05-03T09:16:42.272Z</time></trkpt><trkpt lat="43.9562867" lon="6.68823"><ele>665.0</ele><time>2026-05-03T09:16:43.272Z</time></trkpt><trkpt lat="43.9563683" lon="6.68836"><ele>665.0</ele><time>2026-05-03T09:16:44.272Z</time></trkpt><trkpt lat="43.9564583" lon="6.6885267"><ele>665.0</ele><time>2026-05-03T09:16:45.272Z</time></trkpt><trkpt lat="43.9565683" lon="6.688715"><ele>663.3333333333333</ele><time>2026-05-03T09:16:46.272Z</time></trkpt><trkpt lat="43.9566783" lon="6.688925"><ele>661.6666666666666</ele><time>2026-05-03T09:16:47.272Z</time></trkpt><trkpt lat="43.9567617" lon="6.689175"><ele>660.0</ele><time>2026-05-03T09:16:48.272Z</time></trkpt><trkpt lat="43.956865" lon="6.6894283"><ele>665.3333333333334</ele><time>2026-05-03T09:16:49.272Z</time></trkpt><trkpt lat="43.9569767" lon="6.6896867"><ele>670.6666666666667</ele><time>2026-05-03T09:16:50.272Z</time></trkpt><trkpt lat="43.95709" lon="6.6899417"><ele>676.0</ele><time>2026-05-03T09:16:51.272Z</time></trkpt><trkpt lat="43.9571867" lon="6.6901883"><ele>673.0</ele><time>2026-05-03T09:16:52.273Z</time></trkpt><trkpt lat="43.9572867" lon="6.69042"><ele>670.0</ele><time>2026-05-03T09:16:53.272Z</time></trkpt><trkpt lat="43.9574" lon="6.6906583"><ele>667.0</ele><time>2026-05-03T09:16:54.272Z</time></trkpt><trkpt lat="43.957495" lon="6.69089"><ele>678.0</ele><time>2026-05-03T09:16:55.273Z</time></trkpt><trkpt lat="43.9575917" lon="6.691115"><ele>689.0</ele><time>2026-05-03T09:16:56.272Z</time></trkpt><trkpt lat="43.957675" lon="6.6913283"><ele>700.0</ele><time>2026-05-03T09:16:57.272Z</time></trkpt><trkpt lat="43.9577233" lon="6.6915533"><ele>700.0</ele><time>2026-05-03T09:16:58.272Z</time></trkpt><trkpt lat="43.9577517" lon="6.6918"><ele>700.0</ele><time>2026-05-03T09:16:59.272Z</time></trkpt><trkpt lat="43.957765" lon="6.6920583"><ele>700.0</ele><time>2026-05-03T09:17:00.272Z</time></trkpt><trkpt lat="43.9577817" lon="6.692315"><ele>694.0</ele><time>2026-05-03T09:17:01.272Z</time></trkpt><trkpt lat="43.9578133" lon="6.69256"><ele>688.0</ele><time>2026-05-03T09:17:02.272Z</time></trkpt><trkpt lat="43.9578433" lon="6.6928167"><ele>682.0</ele><time>2026-05-03T09:17:03.272Z</time></trkpt><trkpt lat="43.9578867" lon="6.6930733"><ele>676.3333333333334</ele><time>2026-05-03T09:17:04.272Z</time></trkpt><trkpt lat="43.9579417" lon="6.69333"><ele>670.6666666666666</ele><time>2026-05-03T09:17:05.272Z</time></trkpt><trkpt lat="43.9580167" lon="6.6935917"><ele>665.0</ele><time>2026-05-03T09:17:06.273Z</time></trkpt><trkpt lat="43.958085" lon="6.6938517"><ele>658.3333333333333</ele><time>2026-05-03T09:17:07.272Z</time></trkpt><trkpt lat="43.9581567" lon="6.6940983"><ele>651.6666666666666</ele><time>2026-05-03T09:17:08.272Z</time></trkpt><trkpt lat="43.9582233" lon="6.69434"><ele>645.0</ele><time>2026-05-03T09:17:09.273Z</time></trkpt><trkpt lat="43.9582933" lon="6.69458"><ele>641.3333333333334</ele><time>2026-05-03T09:17:10.273Z</time></trkpt><trkpt lat="43.9583417" lon="6.6948283"><ele>637.6666666666667</ele><time>2026-05-03T09:17:11.273Z</time></trkpt><trkpt lat="43.9583533" lon="6.6950633"><ele>634.0</ele><time>2026-05-03T09:17:12.273Z</time></trkpt><trkpt lat="43.9583017" lon="6.6953117"><ele>634.0</ele><time>2026-05-03T09:17:13.273Z</time></trkpt><trkpt lat="43.95821" lon="6.6955383"><ele>634.0</ele><time>2026-05-03T09:17:14.273Z</time></trkpt><trkpt lat="43.958105" lon="6.695775"><ele>634.0</ele><time>2026-05-03T09:17:15.273Z</time></trkpt><trkpt lat="43.9580083" lon="6.6960333"><ele>631.3333333333334</ele><time>2026-05-03T09:17:16.273Z</time></trkpt><trkpt lat="43.9579117" lon="6.6962967"><ele>628.6666666666666</ele><time>2026-05-03T09:17:17.273Z</time></trkpt><trkpt lat="43.9578133" lon="6.6965483"><ele>626.0</ele><time>2026-05-03T09:17:18.273Z</time></trkpt><trkpt lat="43.95773" lon="6.6968133"><ele>628.3333333333333</ele><time>2026-05-03T09:17:19.273Z</time></trkpt><trkpt lat="43.9576617" lon="6.6970767"><ele>630.6666666666666</ele><time>2026-05-03T09:17:20.273Z</time></trkpt><trkpt lat="43.9576067" lon="6.6973583"><ele>633.0</ele><time>2026-05-03T09:17:21.273Z</time></trkpt><trkpt lat="43.9575683" lon="6.6976467"><ele>627.6666666666666</ele><time>2026-05-03T09:17:22.273Z</time></trkpt><trkpt lat="43.9575217" lon="6.6979283"><ele>622.3333333333333</ele><time>2026-05-03T09:17:23.273Z</time></trkpt><trkpt lat="43.9574783" lon="6.6982033"><ele>617.0</ele><time>2026-05-03T09:17:24.273Z</time></trkpt><trkpt lat="43.9574333" lon="6.6984717"><ele>614.6666666666666</ele><time>2026-05-03T09:17:25.273Z</time></trkpt><trkpt lat="43.9574033" lon="6.6987283"><ele>612.3333333333334</ele><time>2026-05-03T09:17:26.273Z</time></trkpt><trkpt lat="43.9573783" lon="6.6989917"><ele>610.0</ele><time>2026-05-03T09:17:27.273Z</time></trkpt><trkpt lat="43.9573733" lon="6.6992867"><ele>611.0</ele><time>2026-05-03T09:17:28.273Z</time></trkpt><trkpt lat="43.957395" lon="6.6995767"><ele>612.0</ele><time>2026-05-03T09:17:29.273Z</time></trkpt><trkpt lat="43.9574233" lon="6.699865"><ele>613.0</ele><time>2026-05-03T09:17:30.273Z</time></trkpt><trkpt lat="43.95745" lon="6.7001617"><ele>613.3333333333334</ele><time>2026-05-03T09:17:31.273Z</time></trkpt><trkpt lat="43.9574617" lon="6.7004633"><ele>613.6666666666666</ele><time>2026-05-03T09:17:32.273Z</time></trkpt><trkpt lat="43.95748" lon="6.700765"><ele>614.0</ele><time>2026-05-03T09:17:33.273Z</time></trkpt><trkpt lat="43.9575017" lon="6.70107"><ele>612.6666666666666</ele><time>2026-05-03T09:17:34.273Z</time></trkpt><trkpt lat="43.9575217" lon="6.701375"><ele>611.3333333333334</ele><time>2026-05-03T09:17:35.273Z</time></trkpt><trkpt lat="43.957565" lon="6.7016667"><ele>610.0</ele><time>2026-05-03T09:17:36.273Z</time></trkpt><trkpt lat="43.957635" lon="6.70195"><ele>610.6666666666667</ele><time>2026-05-03T09:17:37.273Z</time></trkpt><trkpt lat="43.95773" lon="6.7022183"><ele>611.3333333333334</ele><time>2026-05-03T09:17:38.273Z</time></trkpt><trkpt lat="43.9578367" lon="6.7024833"><ele>612.0</ele><time>2026-05-03T09:17:39.273Z</time></trkpt><trkpt lat="43.9579417" lon="6.702755"><ele>612.0</ele><time>2026-05-03T09:17:40.273Z</time></trkpt><trkpt lat="43.9580517" lon="6.7030217"><ele>612.0</ele><time>2026-05-03T09:17:41.273Z</time></trkpt><trkpt lat="43.95816" lon="6.7032817"><ele>612.0</ele><time>2026-05-03T09:17:42.273Z</time></trkpt><trkpt lat="43.9582683" lon="6.7035417"><ele>615.6666666666666</ele><time>2026-05-03T09:17:43.273Z</time></trkpt><trkpt lat="43.9583683" lon="6.7038"><ele>619.3333333333333</ele><time>2026-05-03T09:17:44.273Z</time></trkpt><trkpt lat="43.9584483" lon="6.7040617"><ele>623.0</ele><time>2026-05-03T09:17:45.273Z</time></trkpt><trkpt lat="43.958505" lon="6.70433"><ele>619.6666666666666</ele><time>2026-05-03T09:17:46.273Z</time></trkpt><trkpt lat="43.95853" lon="6.7046117"><ele>616.3333333333334</ele><time>2026-05-03T09:17:47.273Z</time></trkpt><trkpt lat="43.9585483" lon="6.7049117"><ele>613.0</ele><time>2026-05-03T09:17:48.273Z</time></trkpt><trkpt lat="43.9585633" lon="6.7052017"><ele>613.3333333333334</ele><time>2026-05-03T09:17:49.273Z</time></trkpt><trkpt lat="43.9585967" lon="6.7054917"><ele>613.6666666666666</ele><time>2026-05-03T09:17:50.273Z</time></trkpt><trkpt lat="43.9586383" lon="6.7057883"><ele>614.0</ele><time>2026-05-03T09:17:51.273Z</time></trkpt><trkpt lat="43.9586917" lon="6.7060867"><ele>612.3333333333333</ele><time>2026-05-03T09:17:52.273Z</time></trkpt><trkpt lat="43.95875" lon="6.7063817"><ele>610.6666666666666</ele><time>2026-05-03T09:17:53.273Z</time></trkpt><trkpt lat="43.9588083" lon="6.7066783"><ele>609.0</ele><time>2026-05-03T09:17:54.273Z</time></trkpt><trkpt lat="43.9588683" lon="6.70697"><ele>608.3333333333334</ele><time>2026-05-03T09:17:55.273Z</time></trkpt><trkpt lat="43.9589317" lon="6.7072533"><ele>607.6666666666667</ele><time>2026-05-03T09:17:56.273Z</time></trkpt><trkpt lat="43.958995" lon="6.7075483"><ele>607.0</ele><time>2026-05-03T09:17:57.273Z</time></trkpt><trkpt lat="43.95906" lon="6.70783"><ele>608.0</ele><time>2026-05-03T09:17:58.273Z</time></trkpt><trkpt lat="43.9591167" lon="6.7081233"><ele>609.0</ele><time>2026-05-03T09:17:59.274Z</time></trkpt><trkpt lat="43.9591717" lon="6.7084133"><ele>610.0</ele><time>2026-05-03T09:18:00.273Z</time></trkpt><trkpt lat="43.9592283" lon="6.7087033"><ele>610.0</ele><time>2026-05-03T09:18:01.273Z</time></trkpt><trkpt lat="43.9592833" lon="6.7089883"><ele>610.0</ele><time>2026-05-03T09:18:02.273Z</time></trkpt><trkpt lat="43.9593483" lon="6.7092617"><ele>610.0</ele><time>2026-05-03T09:18:03.273Z</time></trkpt><trkpt lat="43.9594033" lon="6.70954"><ele>609.6666666666667</ele><time>2026-05-03T09:18:04.273Z</time></trkpt><trkpt lat="43.9594583" lon="6.7098183"><ele>609.3333333333334</ele><time>2026-05-03T09:18:05.273Z</time></trkpt><trkpt lat="43.9595283" lon="6.7100933"><ele>609.0</ele><time>2026-05-03T09:18:06.273Z</time></trkpt><trkpt lat="43.9595833" lon="6.7103617"><ele>608.0</ele><time>2026-05-03T09:18:07.273Z</time></trkpt><trkpt lat="43.9596167" lon="6.7106283"><ele>607.0</ele><time>2026-05-03T09:18:08.274Z</time></trkpt><trkpt lat="43.9596467" lon="6.710895"><ele>606.0</ele><time>2026-05-03T09:18:09.274Z</time></trkpt><trkpt lat="43.9596467" lon="6.7111567"><ele>606.0</ele><time>2026-05-03T09:18:10.273Z</time></trkpt><trkpt lat="43.9596067" lon="6.7114067"><ele>606.0</ele><time>2026-05-03T09:18:11.273Z</time></trkpt><trkpt lat="43.9595467" lon="6.71166"><ele>606.0</ele><time>2026-05-03T09:18:12.273Z</time></trkpt><trkpt lat="43.9594883" lon="6.7119367"><ele>607.3333333333334</ele><time>2026-05-03T09:18:13.273Z</time></trkpt><trkpt lat="43.9594317" lon="6.7122167"><ele>608.6666666666667</ele><time>2026-05-03T09:18:14.273Z</time></trkpt><trkpt lat="43.959375" lon="6.7125117"><ele>610.0</ele><time>2026-05-03T09:18:15.273Z</time></trkpt><trkpt lat="43.9593317" lon="6.7128183"><ele>610.3333333333334</ele><time>2026-05-03T09:18:16.274Z</time></trkpt><trkpt lat="43.9593133" lon="6.7131183"><ele>610.6666666666666</ele><time>2026-05-03T09:18:17.273Z</time></trkpt><trkpt lat="43.959305" lon="6.713405"><ele>611.0</ele><time>2026-05-03T09:18:18.273Z</time></trkpt><trkpt lat="43.9592867" lon="6.7136917"><ele>611.6666666666666</ele><time>2026-05-03T09:18:19.273Z</time></trkpt><trkpt lat="43.9592717" lon="6.7139783"><ele>612.3333333333334</ele><time>2026-05-03T09:18:20.274Z</time></trkpt><trkpt lat="43.9592783" lon="6.7142517"><ele>613.0</ele><time>2026-05-03T09:18:21.273Z</time></trkpt><trkpt lat="43.9593317" lon="6.7145233"><ele>611.6666666666667</ele><time>2026-05-03T09:18:22.273Z</time></trkpt><trkpt lat="43.95942" lon="6.7147967"><ele>610.3333333333334</ele><time>2026-05-03T09:18:23.273Z</time></trkpt><trkpt lat="43.9595" lon="6.71507"><ele>609.0</ele><time>2026-05-03T09:18:24.273Z</time></trkpt><trkpt lat="43.9595567" lon="6.7153533"><ele>607.0</ele><time>2026-05-03T09:18:25.274Z</time></trkpt><trkpt lat="43.9596017" lon="6.7156467"><ele>605.0</ele><time>2026-05-03T09:18:26.273Z</time></trkpt><trkpt lat="43.9596333" lon="6.71594"><ele>603.0</ele><time>2026-05-03T09:18:27.273Z</time></trkpt><trkpt lat="43.959645" lon="6.7162333"><ele>603.0</ele><time>2026-05-03T09:18:28.273Z</time></trkpt><trkpt lat="43.9596467" lon="6.7165233"><ele>603.0</ele><time>2026-05-03T09:18:29.273Z</time></trkpt><trkpt lat="43.9596433" lon="6.7168133"><ele>603.0</ele><time>2026-05-03T09:18:30.273Z</time></trkpt><trkpt lat="43.959655" lon="6.7171133"><ele>604.0</ele><time>2026-05-03T09:18:31.274Z</time></trkpt><trkpt lat="43.9596583" lon="6.717415"><ele>605.0</ele><time>2026-05-03T09:18:32.273Z</time></trkpt><trkpt lat="43.9596467" lon="6.717705"><ele>606.0</ele><time>2026-05-03T09:18:33.274Z</time></trkpt><trkpt lat="43.959625" lon="6.7179867"><ele>607.0</ele><time>2026-05-03T09:18:34.273Z</time></trkpt><trkpt lat="43.9595783" lon="6.71825"><ele>608.0</ele><time>2026-05-03T09:18:35.273Z</time></trkpt><trkpt lat="43.959525" lon="6.7185217"><ele>609.0</ele><time>2026-05-03T09:18:36.273Z</time></trkpt><trkpt lat="43.9594833" lon="6.7187817"><ele>609.0</ele><time>2026-05-03T09:18:37.273Z</time></trkpt><trkpt lat="43.9594367" lon="6.7190417"><ele>609.0</ele><time>2026-05-03T09:18:38.273Z</time></trkpt><trkpt lat="43.9594017" lon="6.7192983"><ele>609.0</ele><time>2026-05-03T09:18:39.273Z</time></trkpt><trkpt lat="43.95937" lon="6.7195733"><ele>607.0</ele><time>2026-05-03T09:18:40.273Z</time></trkpt><trkpt lat="43.9593633" lon="6.7198433"><ele>605.0</ele><time>2026-05-03T09:18:41.273Z</time></trkpt><trkpt lat="43.959375" lon="6.7201283"><ele>603.0</ele><time>2026-05-03T09:18:42.274Z</time></trkpt><trkpt lat="43.9593833" lon="6.7204183"><ele>601.6666666666666</ele><time>2026-05-03T09:18:43.273Z</time></trkpt><trkpt lat="43.959395" lon="6.7207083"><ele>600.3333333333333</ele><time>2026-05-03T09:18:44.274Z</time></trkpt><trkpt lat="43.95941" lon="6.720995"><ele>599.0</ele><time>2026-05-03T09:18:45.273Z</time></trkpt><trkpt lat="43.9594217" lon="6.7212883"><ele>598.0</ele><time>2026-05-03T09:18:46.274Z</time></trkpt><trkpt lat="43.95944" lon="6.72158"><ele>597.0</ele><time>2026-05-03T09:18:47.273Z</time></trkpt><trkpt lat="43.9594617" lon="6.7218833"><ele>596.0</ele><time>2026-05-03T09:18:48.273Z</time></trkpt><trkpt lat="43.9595067" lon="6.7221733"><ele>594.3333333333333</ele><time>2026-05-03T09:18:49.273Z</time></trkpt><trkpt lat="43.95957" lon="6.72247"><ele>592.6666666666666</ele><time>2026-05-03T09:18:50.274Z</time></trkpt><trkpt lat="43.959655" lon="6.7227433"><ele>591.0</ele><time>2026-05-03T09:18:51.273Z</time></trkpt><trkpt lat="43.95973" lon="6.7230217"><ele>589.3333333333334</ele><time>2026-05-03T09:18:52.273Z</time></trkpt><trkpt lat="43.9598067" lon="6.723295"><ele>587.6666666666667</ele><time>2026-05-03T09:18:53.273Z</time></trkpt><trkpt lat="43.95987" lon="6.7235667"><ele>586.0</ele><time>2026-05-03T09:18:54.273Z</time></trkpt><trkpt lat="43.959935" lon="6.723845"><ele>584.3333333333334</ele><time>2026-05-03T09:18:55.273Z</time></trkpt><trkpt lat="43.9599867" lon="6.724125"><ele>582.6666666666666</ele><time>2026-05-03T09:18:56.273Z</time></trkpt><trkpt lat="43.960015" lon="6.724415"><ele>581.0</ele><time>2026-05-03T09:18:57.273Z</time></trkpt><trkpt lat="43.960025" lon="6.7247033"><ele>580.3333333333333</ele><time>2026-05-03T09:18:58.273Z</time></trkpt><trkpt lat="43.9600217" lon="6.7249867"><ele>579.6666666666666</ele><time>2026-05-03T09:18:59.273Z</time></trkpt><trkpt lat="43.9600083" lon="6.72528"><ele>579.0</ele><time>2026-05-03T09:19:00.273Z</time></trkpt><trkpt lat="43.9599833" lon="6.7255817"><ele>578.6666666666666</ele><time>2026-05-03T09:19:01.273Z</time></trkpt><trkpt lat="43.959975" lon="6.725885"><ele>578.3333333333333</ele><time>2026-05-03T09:19:02.273Z</time></trkpt><trkpt lat="43.9599783" lon="6.7261783"><ele>578.0</ele><time>2026-05-03T09:19:03.273Z</time></trkpt><trkpt lat="43.959975" lon="6.7264733"><ele>577.6666666666666</ele><time>2026-05-03T09:19:04.273Z</time></trkpt><trkpt lat="43.9599717" lon="6.7267633"><ele>577.3333333333334</ele><time>2026-05-03T09:19:05.273Z</time></trkpt><trkpt lat="43.95996" lon="6.7270567"><ele>577.0</ele><time>2026-05-03T09:19:06.273Z</time></trkpt><trkpt lat="43.9599333" lon="6.727345"><ele>577.0</ele><time>2026-05-03T09:19:07.273Z</time></trkpt><trkpt lat="43.9598933" lon="6.727625"><ele>577.0</ele><time>2026-05-03T09:19:08.273Z</time></trkpt><trkpt lat="43.9598417" lon="6.72791"><ele>577.0</ele><time>2026-05-03T09:19:09.274Z</time></trkpt><trkpt lat="43.9597867" lon="6.7281967"><ele>577.3333333333334</ele><time>2026-05-03T09:19:10.273Z</time></trkpt><trkpt lat="43.95973" lon="6.7284867"><ele>577.6666666666666</ele><time>2026-05-03T09:19:11.273Z</time></trkpt><trkpt lat="43.9596867" lon="6.7287717"><ele>578.0</ele><time>2026-05-03T09:19:12.273Z</time></trkpt><trkpt lat="43.9596333" lon="6.72906"><ele>577.3333333333333</ele><time>2026-05-03T09:19:13.273Z</time></trkpt><trkpt lat="43.95957" lon="6.7293417"><ele>576.6666666666666</ele><time>2026-05-03T09:19:14.274Z</time></trkpt><trkpt lat="43.95951" lon="6.7296333"><ele>576.0</ele><time>2026-05-03T09:19:15.274Z</time></trkpt><trkpt lat="43.9594517" lon="6.7299183"><ele>576.0</ele><time>2026-05-03T09:19:16.273Z</time></trkpt><trkpt lat="43.9593917" lon="6.7302017"><ele>576.0</ele><time>2026-05-03T09:19:17.273Z</time></trkpt><trkpt lat="43.9593367" lon="6.7304783"><ele>576.0</ele><time>2026-05-03T09:19:18.273Z</time></trkpt><trkpt lat="43.9592917" lon="6.7307467"><ele>575.6666666666666</ele><time>2026-05-03T09:19:19.273Z</time></trkpt><trkpt lat="43.959255" lon="6.7310083"><ele>575.3333333333333</ele><time>2026-05-03T09:19:20.273Z</time></trkpt><trkpt lat="43.95922" lon="6.7312567"><ele>575.0</ele><time>2026-05-03T09:19:21.273Z</time></trkpt><trkpt lat="43.9591833" lon="6.7315083"><ele>575.0</ele><time>2026-05-03T09:19:22.273Z</time></trkpt><trkpt lat="43.9591433" lon="6.73175"><ele>575.0</ele><time>2026-05-03T09:19:23.273Z</time></trkpt><trkpt lat="43.9591083" lon="6.7319783"><ele>575.0</ele><time>2026-05-03T09:19:24.273Z</time></trkpt><trkpt lat="43.9590783" lon="6.7321983"><ele>575.0</ele><time>2026-05-03T09:19:25.273Z</time></trkpt><trkpt lat="43.95904" lon="6.7324133"><ele>575.0</ele><time>2026-05-03T09:19:26.274Z</time></trkpt><trkpt lat="43.9590083" lon="6.7326267"><ele>575.0</ele><time>2026-05-03T09:19:27.273Z</time></trkpt><trkpt lat="43.95898" lon="6.732825"><ele>576.75</ele><time>2026-05-03T09:19:28.273Z</time></trkpt><trkpt lat="43.9589467" lon="6.7330233"><ele>578.5</ele><time>2026-05-03T09:19:29.273Z</time></trkpt><trkpt lat="43.9589183" lon="6.7332267"><ele>580.25</ele><time>2026-05-03T09:19:30.273Z</time></trkpt><trkpt lat="43.9589067" lon="6.73343"><ele>582.0</ele><time>2026-05-03T09:19:31.273Z</time></trkpt><trkpt lat="43.9588817" lon="6.73363"><ele>582.0</ele><time>2026-05-03T09:19:32.273Z</time></trkpt><trkpt lat="43.9588567" lon="6.7338333"><ele>582.0</ele><time>2026-05-03T09:19:33.273Z</time></trkpt><trkpt lat="43.9588367" lon="6.7340317"><ele>582.0</ele><time>2026-05-03T09:19:34.273Z</time></trkpt><trkpt lat="43.9588233" lon="6.7342333"><ele>582.0</ele><time>2026-05-03T09:19:35.273Z</time></trkpt><trkpt lat="43.9588167" lon="6.7344367"><ele>578.25</ele><time>2026-05-03T09:19:36.273Z</time></trkpt><trkpt lat="43.958815" lon="6.7346483"><ele>574.5</ele><time>2026-05-03T09:19:37.274Z</time></trkpt><trkpt lat="43.9588717" lon="6.734825"><ele>570.75</ele><time>2026-05-03T09:19:38.273Z</time></trkpt><trkpt lat="43.9589583" lon="6.7349817"><ele>567.0</ele><time>2026-05-03T09:19:39.273Z</time></trkpt><trkpt lat="43.95905" lon="6.7350983"><ele>567.0</ele><time>2026-05-03T09:19:40.274Z</time></trkpt><trkpt lat="43.95918" lon="6.735155"><ele>567.0</ele><time>2026-05-03T09:19:41.273Z</time></trkpt><trkpt lat="43.95934" lon="6.735155"><ele>567.0</ele><time>2026-05-03T09:19:42.274Z</time></trkpt><trkpt lat="43.9594883" lon="6.73516"><ele>567.0</ele><time>2026-05-03T09:19:43.274Z</time></trkpt><trkpt lat="43.95965" lon="6.73516"><ele>572.3333333333334</ele><time>2026-05-03T09:19:44.273Z</time></trkpt><trkpt lat="43.9598217" lon="6.7351583"><ele>577.6666666666667</ele><time>2026-05-03T09:19:45.273Z</time></trkpt><trkpt lat="43.9599917" lon="6.7352033"><ele>583.0</ele><time>2026-05-03T09:19:46.273Z</time></trkpt><trkpt lat="43.9601467" lon="6.7352833"><ele>583.0</ele><time>2026-05-03T09:19:47.273Z</time></trkpt><trkpt lat="43.96029" lon="6.7354067"><ele>583.0</ele><time>2026-05-03T09:19:48.274Z</time></trkpt><trkpt lat="43.96042" lon="6.7355417"><ele>583.0</ele><time>2026-05-03T09:19:49.274Z</time></trkpt><trkpt lat="43.960555" lon="6.7356833"><ele>583.0</ele><time>2026-05-03T09:19:50.273Z</time></trkpt><trkpt lat="43.960685" lon="6.73582"><ele>583.0</ele><time>2026-05-03T09:19:51.273Z</time></trkpt><trkpt lat="43.9608183" lon="6.7359533"><ele>583.0</ele><time>2026-05-03T09:19:52.273Z</time></trkpt><trkpt lat="43.9609517" lon="6.736085"><ele>587.3333333333334</ele><time>2026-05-03T09:19:53.273Z</time></trkpt><trkpt lat="43.9610933" lon="6.736225"><ele>591.6666666666666</ele><time>2026-05-03T09:19:54.273Z</time></trkpt><trkpt lat="43.9612167" lon="6.7364017"><ele>596.0</ele><time>2026-05-03T09:19:55.273Z</time></trkpt><trkpt lat="43.9613333" lon="6.7365983"><ele>596.0</ele><time>2026-05-03T09:19:56.273Z</time></trkpt><trkpt lat="43.9614433" lon="6.736825"><ele>596.0</ele><time>2026-05-03T09:19:57.273Z</time></trkpt><trkpt lat="43.9615567" lon="6.737045"><ele>596.0</ele><time>2026-05-03T09:19:58.273Z</time></trkpt><trkpt lat="43.9616667" lon="6.737285"><ele>595.6666666666666</ele><time>2026-05-03T09:19:59.273Z</time></trkpt><trkpt lat="43.9617633" lon="6.7375433"><ele>595.3333333333334</ele><time>2026-05-03T09:20:00.273Z</time></trkpt><trkpt lat="43.96187" lon="6.7377983"><ele>595.0</ele><time>2026-05-03T09:20:01.273Z</time></trkpt><trkpt lat="43.96198" lon="6.7380533"><ele>595.0</ele><time>2026-05-03T09:20:02.273Z</time></trkpt><trkpt lat="43.9620933" lon="6.7383117"><ele>595.0</ele><time>2026-05-03T09:20:03.273Z</time></trkpt><trkpt lat="43.9622033" lon="6.73857"><ele>595.0</ele><time>2026-05-03T09:20:04.273Z</time></trkpt><trkpt lat="43.9623083" lon="6.7388417"><ele>589.3333333333334</ele><time>2026-05-03T09:20:05.273Z</time></trkpt><trkpt lat="43.9624083" lon="6.7391133"><ele>583.6666666666666</ele><time>2026-05-03T09:20:06.273Z</time></trkpt><trkpt lat="43.9625183" lon="6.73938"><ele>578.0</ele><time>2026-05-03T09:20:07.274Z</time></trkpt><trkpt lat="43.96262" lon="6.739635"><ele>578.0</ele><time>2026-05-03T09:20:08.273Z</time></trkpt><trkpt lat="43.9627183" lon="6.7398633"><ele>578.0</ele><time>2026-05-03T09:20:09.274Z</time></trkpt><trkpt lat="43.962815" lon="6.7400783"><ele>578.0</ele><time>2026-05-03T09:20:10.273Z</time></trkpt><trkpt lat="43.962905" lon="6.7403"><ele>574.3333333333333</ele><time>2026-05-03T09:20:11.273Z</time></trkpt><trkpt lat="43.9630033" lon="6.740525"><ele>570.6666666666666</ele><time>2026-05-03T09:20:12.273Z</time></trkpt><trkpt lat="43.9630967" lon="6.7407533"><ele>567.0</ele><time>2026-05-03T09:20:13.273Z</time></trkpt><trkpt lat="43.9631883" lon="6.7409917"><ele>563.6666666666666</ele><time>2026-05-03T09:20:14.273Z</time></trkpt><trkpt lat="43.9632883" lon="6.7412417"><ele>560.3333333333333</ele><time>2026-05-03T09:20:15.273Z</time></trkpt><trkpt lat="43.9633933" lon="6.7414967"><ele>557.0</ele><time>2026-05-03T09:20:16.273Z</time></trkpt><trkpt lat="43.963485" lon="6.7417333"><ele>563.0</ele><time>2026-05-03T09:20:17.273Z</time></trkpt><trkpt lat="43.9635967" lon="6.74196"><ele>569.0</ele><time>2026-05-03T09:20:18.273Z</time></trkpt><trkpt lat="43.9637033" lon="6.7422"><ele>575.0</ele><time>2026-05-03T09:20:19.273Z</time></trkpt><trkpt lat="43.9638017" lon="6.7424333"><ele>575.0</ele><time>2026-05-03T09:20:20.273Z</time></trkpt><trkpt lat="43.9639017" lon="6.74266"><ele>575.0</ele><time>2026-05-03T09:20:21.273Z</time></trkpt><trkpt lat="43.964" lon="6.7428883"><ele>575.0</ele><time>2026-05-03T09:20:22.274Z</time></trkpt><trkpt lat="43.9641067" lon="6.7431217"><ele>574.3333333333333</ele><time>2026-05-03T09:20:23.273Z</time></trkpt><trkpt lat="43.96421" lon="6.7433517"><ele>573.6666666666666</ele><time>2026-05-03T09:20:24.273Z</time></trkpt><trkpt lat="43.9643183" lon="6.7435833"><ele>573.0</ele><time>2026-05-03T09:20:25.273Z</time></trkpt><trkpt lat="43.9644317" lon="6.743815"><ele>573.0</ele><time>2026-05-03T09:20:26.274Z</time></trkpt><trkpt lat="43.9645617" lon="6.7440383"><ele>573.0</ele><time>2026-05-03T09:20:27.273Z</time></trkpt><trkpt lat="43.9646883" lon="6.7442733"><ele>573.0</ele><time>2026-05-03T09:20:28.273Z</time></trkpt><trkpt lat="43.9648033" lon="6.7445283"><ele>572.0</ele><time>2026-05-03T09:20:29.273Z</time></trkpt><trkpt lat="43.9649233" lon="6.7447683"><ele>571.0</ele><time>2026-05-03T09:20:30.273Z</time></trkpt><trkpt lat="43.965045" lon="6.7450183"><ele>570.0</ele><time>2026-05-03T09:20:31.273Z</time></trkpt><trkpt lat="43.9651767" lon="6.74526"><ele>570.0</ele><time>2026-05-03T09:20:32.273Z</time></trkpt><trkpt lat="43.9653117" lon="6.7454983"><ele>570.0</ele><time>2026-05-03T09:20:33.273Z</time></trkpt><trkpt lat="43.9654417" lon="6.7457483"><ele>570.0</ele><time>2026-05-03T09:20:34.274Z</time></trkpt><trkpt lat="43.96557" lon="6.74598"><ele>571.3333333333334</ele><time>2026-05-03T09:20:35.273Z</time></trkpt><trkpt lat="43.9657" lon="6.7462133"><ele>572.6666666666667</ele><time>2026-05-03T09:20:36.273Z</time></trkpt><trkpt lat="43.965825" lon="6.7464417"><ele>574.0</ele><time>2026-05-03T09:20:37.273Z</time></trkpt><trkpt lat="43.9659467" lon="6.7466783"><ele>570.3333333333334</ele><time>2026-05-03T09:20:38.273Z</time></trkpt><trkpt lat="43.96607" lon="6.7469083"><ele>566.6666666666666</ele><time>2026-05-03T09:20:39.273Z</time></trkpt><trkpt lat="43.96618" lon="6.74716"><ele>563.0</ele><time>2026-05-03T09:20:40.273Z</time></trkpt><trkpt lat="43.9662767" lon="6.7474117"><ele>563.0</ele><time>2026-05-03T09:20:41.273Z</time></trkpt><trkpt lat="43.9663633" lon="6.747665"><ele>563.0</ele><time>2026-05-03T09:20:42.273Z</time></trkpt><trkpt lat="43.96643" lon="6.7479283"><ele>563.0</ele><time>2026-05-03T09:20:43.273Z</time></trkpt><trkpt lat="43.96649" lon="6.7482167"><ele>560.3333333333333</ele><time>2026-05-03T09:20:44.273Z</time></trkpt><trkpt lat="43.9665283" lon="6.74851"><ele>557.6666666666666</ele><time>2026-05-03T09:20:45.273Z</time></trkpt><trkpt lat="43.966575" lon="6.7487883"><ele>555.0</ele><time>2026-05-03T09:20:46.273Z</time></trkpt><trkpt lat="43.9666267" lon="6.7490683"><ele>552.6666666666666</ele><time>2026-05-03T09:20:47.273Z</time></trkpt><trkpt lat="43.96669" lon="6.7493517"><ele>550.3333333333333</ele><time>2026-05-03T09:20:48.273Z</time></trkpt><trkpt lat="43.966775" lon="6.7496267"><ele>548.0</ele><time>2026-05-03T09:20:49.274Z</time></trkpt><trkpt lat="43.9668567" lon="6.74989"><ele>557.3333333333333</ele><time>2026-05-03T09:20:50.273Z</time></trkpt><trkpt lat="43.9669417" lon="6.750155"><ele>566.6666666666666</ele><time>2026-05-03T09:20:51.274Z</time></trkpt><trkpt lat="43.967025" lon="6.7504233"><ele>576.0</ele><time>2026-05-03T09:20:52.273Z</time></trkpt><trkpt lat="43.9670817" lon="6.7507083"><ele>575.0</ele><time>2026-05-03T09:20:53.273Z</time></trkpt><trkpt lat="43.967135" lon="6.750985"><ele>574.0</ele><time>2026-05-03T09:20:54.273Z</time></trkpt><trkpt lat="43.96717" lon="6.7512567"><ele>573.0</ele><time>2026-05-03T09:20:55.273Z</time></trkpt><trkpt lat="43.9671883" lon="6.751545"><ele>573.0</ele><time>2026-05-03T09:20:56.273Z</time></trkpt><trkpt lat="43.9672" lon="6.7518383"><ele>573.0</ele><time>2026-05-03T09:20:57.273Z</time></trkpt><trkpt lat="43.967205" lon="6.752135"><ele>573.0</ele><time>2026-05-03T09:20:58.274Z</time></trkpt><trkpt lat="43.9672083" lon="6.7524367"><ele>569.0</ele><time>2026-05-03T09:20:59.273Z</time></trkpt><trkpt lat="43.967215" lon="6.7527383"><ele>565.0</ele><time>2026-05-03T09:21:00.273Z</time></trkpt><trkpt lat="43.96722" lon="6.7530317"><ele>561.0</ele><time>2026-05-03T09:21:01.273Z</time></trkpt><trkpt lat="43.967225" lon="6.7533217"><ele>560.0</ele><time>2026-05-03T09:21:02.273Z</time></trkpt><trkpt lat="43.9672317" lon="6.7535883"><ele>559.0</ele><time>2026-05-03T09:21:03.273Z</time></trkpt><trkpt lat="43.9672383" lon="6.753855"><ele>558.0</ele><time>2026-05-03T09:21:04.274Z</time></trkpt><trkpt lat="43.9672383" lon="6.7541283"><ele>555.6666666666666</ele><time>2026-05-03T09:21:05.273Z</time></trkpt><trkpt lat="43.967245" lon="6.7543917"><ele>553.3333333333333</ele><time>2026-05-03T09:21:06.273Z</time></trkpt><trkpt lat="43.96725" lon="6.7546433"><ele>551.0</ele><time>2026-05-03T09:21:07.273Z</time></trkpt><trkpt lat="43.9672583" lon="6.754895"><ele>551.0</ele><time>2026-05-03T09:21:08.274Z</time></trkpt><trkpt lat="43.9672817" lon="6.75513"><ele>551.0</ele><time>2026-05-03T09:21:09.273Z</time></trkpt><trkpt lat="43.9673517" lon="6.7553817"><ele>551.0</ele><time>2026-05-03T09:21:10.273Z</time></trkpt><trkpt lat="43.96744" lon="6.7556183"><ele>551.6666666666666</ele><time>2026-05-03T09:21:11.273Z</time></trkpt><trkpt lat="43.967535" lon="6.7558517"><ele>552.3333333333334</ele><time>2026-05-03T09:21:12.273Z</time></trkpt><trkpt lat="43.9676333" lon="6.756075"><ele>553.0</ele><time>2026-05-03T09:21:13.273Z</time></trkpt><trkpt lat="43.9677367" lon="6.7562917"><ele>553.0</ele><time>2026-05-03T09:21:14.273Z</time></trkpt><trkpt lat="43.9678333" lon="6.75651"><ele>553.0</ele><time>2026-05-03T09:21:15.273Z</time></trkpt><trkpt lat="43.9679317" lon="6.7567233"><ele>553.0</ele><time>2026-05-03T09:21:16.274Z</time></trkpt><trkpt lat="43.9680233" lon="6.7569467"><ele>554.6666666666667</ele><time>2026-05-03T09:21:17.273Z</time></trkpt><trkpt lat="43.9681217" lon="6.7571417"><ele>556.3333333333334</ele><time>2026-05-03T09:21:18.274Z</time></trkpt><trkpt lat="43.968245" lon="6.7573333"><ele>558.0</ele><time>2026-05-03T09:21:19.273Z</time></trkpt><trkpt lat="43.96838" lon="6.7575033"><ele>558.0</ele><time>2026-05-03T09:21:20.273Z</time></trkpt><trkpt lat="43.9685083" lon="6.757665"><ele>558.0</ele><time>2026-05-03T09:21:21.273Z</time></trkpt><trkpt lat="43.96865" lon="6.75783"><ele>558.0</ele><time>2026-05-03T09:21:22.273Z</time></trkpt><trkpt lat="43.96879" lon="6.7579917"><ele>552.3333333333334</ele><time>2026-05-03T09:21:23.274Z</time></trkpt><trkpt lat="43.9689333" lon="6.7581533"><ele>546.6666666666667</ele><time>2026-05-03T09:21:24.273Z</time></trkpt><trkpt lat="43.9690633" lon="6.758305"><ele>541.0</ele><time>2026-05-03T09:21:25.273Z</time></trkpt><trkpt lat="43.969185" lon="6.7584767"><ele>542.0</ele><time>2026-05-03T09:21:26.273Z</time></trkpt><trkpt lat="43.969305" lon="6.7586267"><ele>543.0</ele><time>2026-05-03T09:21:27.273Z</time></trkpt><trkpt lat="43.9694167" lon="6.758775"><ele>544.0</ele><time>2026-05-03T09:21:28.273Z</time></trkpt><trkpt lat="43.96953" lon="6.7589167"><ele>544.0</ele><time>2026-05-03T09:21:29.273Z</time></trkpt><trkpt lat="43.9696367" lon="6.759045"><ele>544.0</ele><time>2026-05-03T09:21:30.273Z</time></trkpt><trkpt lat="43.9697417" lon="6.7591767"><ele>544.0</ele><time>2026-05-03T09:21:31.273Z</time></trkpt><trkpt lat="43.9698583" lon="6.7592983"><ele>544.0</ele><time>2026-05-03T09:21:32.273Z</time></trkpt><trkpt lat="43.9699683" lon="6.7594167"><ele>544.0</ele><time>2026-05-03T09:21:33.273Z</time></trkpt><trkpt lat="43.97008" lon="6.75954"><ele>544.0</ele><time>2026-05-03T09:21:34.273Z</time></trkpt><trkpt lat="43.970175" lon="6.7596567"><ele>544.0</ele><time>2026-05-03T09:21:35.273Z</time></trkpt><trkpt lat="43.97027" lon="6.7597717"><ele>544.0</ele><time>2026-05-03T09:21:36.273Z</time></trkpt><trkpt lat="43.9703767" lon="6.759855"><ele>544.0</ele><time>2026-05-03T09:21:37.274Z</time></trkpt><trkpt lat="43.9704817" lon="6.7599133"><ele>544.0</ele><time>2026-05-03T09:21:38.273Z</time></trkpt><trkpt lat="43.9705883" lon="6.75994"><ele>544.0</ele><time>2026-05-03T09:21:39.273Z</time></trkpt><trkpt lat="43.9706767" lon="6.7599533"><ele>544.0</ele><time>2026-05-03T09:21:40.273Z</time></trkpt><trkpt lat="43.9707583" lon="6.7599417"><ele>544.0</ele><time>2026-05-03T09:21:41.273Z</time></trkpt><trkpt lat="43.97082" lon="6.7599117"><ele>545.8</ele><time>2026-05-03T09:21:42.273Z</time></trkpt><trkpt lat="43.970875" lon="6.7598617"><ele>547.5999999999999</ele><time>2026-05-03T09:21:43.273Z</time></trkpt><trkpt lat="43.970965" lon="6.75971"><ele>549.4</ele><time>2026-05-03T09:21:45.273Z</time></trkpt><trkpt lat="43.971015" lon="6.7596167"><ele>551.1999999999999</ele><time>2026-05-03T09:21:46.273Z</time></trkpt><trkpt lat="43.9710583" lon="6.7595183"><ele>553.0</ele><time>2026-05-03T09:21:47.273Z</time></trkpt><trkpt lat="43.97111" lon="6.759415"><ele>549.6666666666667</ele><time>2026-05-03T09:21:48.273Z</time></trkpt><trkpt lat="43.9711433" lon="6.7592717"><ele>546.3333333333334</ele><time>2026-05-03T09:21:49.273Z</time></trkpt><trkpt lat="43.9712817" lon="6.7591133"><ele>543.0</ele><time>2026-05-03T09:21:50.273Z</time></trkpt><trkpt lat="43.97141" lon="6.7589533"><ele>543.0</ele><time>2026-05-03T09:21:51.273Z</time></trkpt><trkpt lat="43.9715283" lon="6.758835"><ele>543.0</ele><time>2026-05-03T09:21:52.274Z</time></trkpt><trkpt lat="43.9716683" lon="6.7587283"><ele>543.0</ele><time>2026-05-03T09:21:53.273Z</time></trkpt><trkpt lat="43.9718167" lon="6.7586083"><ele>548.5</ele><time>2026-05-03T09:21:54.273Z</time></trkpt><trkpt lat="43.971955" lon="6.7585133"><ele>554.0</ele><time>2026-05-03T09:21:55.273Z</time></trkpt><trkpt lat="43.9720867" lon="6.75844"><ele>559.5</ele><time>2026-05-03T09:21:56.273Z</time></trkpt><trkpt lat="43.9722133" lon="6.7584183"><ele>565.0</ele><time>2026-05-03T09:21:57.273Z</time></trkpt><trkpt lat="43.972355" lon="6.7584433"><ele>565.0</ele><time>2026-05-03T09:21:58.274Z</time></trkpt><trkpt lat="43.9724983" lon="6.7585"><ele>565.0</ele><time>2026-05-03T09:21:59.273Z</time></trkpt><trkpt lat="43.97266" lon="6.75856"><ele>565.0</ele><time>2026-05-03T09:22:00.273Z</time></trkpt><trkpt lat="43.9728267" lon="6.75864"><ele>555.0</ele><time>2026-05-03T09:22:01.273Z</time></trkpt><trkpt lat="43.9729817" lon="6.7587217"><ele>545.0</ele><time>2026-05-03T09:22:02.273Z</time></trkpt><trkpt lat="43.9731233" lon="6.758795"><ele>535.0</ele><time>2026-05-03T09:22:03.273Z</time></trkpt><trkpt lat="43.973265" lon="6.7588333"><ele>536.75</ele><time>2026-05-03T09:22:04.273Z</time></trkpt><trkpt lat="43.973395" lon="6.758885"><ele>538.5</ele><time>2026-05-03T09:22:05.273Z</time></trkpt><trkpt lat="43.9735233" lon="6.7589"><ele>540.25</ele><time>2026-05-03T09:22:06.273Z</time></trkpt><trkpt lat="43.9736667" lon="6.7589383"><ele>542.0</ele><time>2026-05-03T09:22:07.273Z</time></trkpt><trkpt lat="43.9738217" lon="6.759025"><ele>542.0</ele><time>2026-05-03T09:22:08.273Z</time></trkpt><trkpt lat="43.9739633" lon="6.7591"><ele>542.0</ele><time>2026-05-03T09:22:09.273Z</time></trkpt><trkpt lat="43.9741017" lon="6.7591617"><ele>542.0</ele><time>2026-05-03T09:22:10.273Z</time></trkpt><trkpt lat="43.9742433" lon="6.7592217"><ele>542.0</ele><time>2026-05-03T09:22:11.273Z</time></trkpt><trkpt lat="43.9743833" lon="6.7592633"><ele>544.0</ele><time>2026-05-03T09:22:12.273Z</time></trkpt><trkpt lat="43.974525" lon="6.7592983"><ele>546.0</ele><time>2026-05-03T09:22:13.273Z</time></trkpt><trkpt lat="43.9746683" lon="6.75932"><ele>548.0</ele><time>2026-05-03T09:22:14.273Z</time></trkpt><trkpt lat="43.9748117" lon="6.7593483"><ele>550.0</ele><time>2026-05-03T09:22:15.273Z</time></trkpt><trkpt lat="43.9749617" lon="6.759365"><ele>545.75</ele><time>2026-05-03T09:22:16.273Z</time></trkpt><trkpt lat="43.9750983" lon="6.75937"><ele>541.5</ele><time>2026-05-03T09:22:17.273Z</time></trkpt><trkpt lat="43.9752317" lon="6.759375"><ele>537.25</ele><time>2026-05-03T09:22:18.273Z</time></trkpt><trkpt lat="43.9753633" lon="6.759395"><ele>533.0</ele><time>2026-05-03T09:22:19.273Z</time></trkpt><trkpt lat="43.9754933" lon="6.75944"><ele>533.0</ele><time>2026-05-03T09:22:20.273Z</time></trkpt><trkpt lat="43.9756117" lon="6.7594467"><ele>533.0</ele><time>2026-05-03T09:22:21.273Z</time></trkpt><trkpt lat="43.9757267" lon="6.7593917"><ele>533.0</ele><time>2026-05-03T09:22:22.273Z</time></trkpt><trkpt lat="43.975835" lon="6.75931"><ele>533.0</ele><time>2026-05-03T09:22:23.273Z</time></trkpt><trkpt lat="43.9759333" lon="6.759195"><ele>534.0</ele><time>2026-05-03T09:22:24.273Z</time></trkpt><trkpt lat="43.976035" lon="6.759065"><ele>535.0</ele><time>2026-05-03T09:22:25.273Z</time></trkpt><trkpt lat="43.9761417" lon="6.7589283"><ele>536.0</ele><time>2026-05-03T09:22:26.273Z</time></trkpt><trkpt lat="43.9762333" lon="6.7588033"><ele>537.0</ele><time>2026-05-03T09:22:27.273Z</time></trkpt><trkpt lat="43.9763317" lon="6.7586817"><ele>537.0</ele><time>2026-05-03T09:22:28.273Z</time></trkpt><trkpt lat="43.9764483" lon="6.7585817"><ele>537.0</ele><time>2026-05-03T09:22:29.274Z</time></trkpt><trkpt lat="43.9765783" lon="6.7585167"><ele>537.0</ele><time>2026-05-03T09:22:30.273Z</time></trkpt><trkpt lat="43.976715" lon="6.758455"><ele>537.0</ele><time>2026-05-03T09:22:31.273Z</time></trkpt><trkpt lat="43.9768533" lon="6.7583933"><ele>538.75</ele><time>2026-05-03T09:22:32.273Z</time></trkpt><trkpt lat="43.9769917" lon="6.75834"><ele>540.5</ele><time>2026-05-03T09:22:33.274Z</time></trkpt><trkpt lat="43.977135" lon="6.758285"><ele>542.25</ele><time>2026-05-03T09:22:34.273Z</time></trkpt><trkpt lat="43.9772867" lon="6.7582317"><ele>544.0</ele><time>2026-05-03T09:22:35.274Z</time></trkpt><trkpt lat="43.9774433" lon="6.7581833"><ele>544.6666666666667</ele><time>2026-05-03T09:22:36.274Z</time></trkpt><trkpt lat="43.9776" lon="6.7581567"><ele>545.3333333333334</ele><time>2026-05-03T09:22:37.273Z</time></trkpt><trkpt lat="43.9777583" lon="6.7581383"><ele>546.0</ele><time>2026-05-03T09:22:38.273Z</time></trkpt><trkpt lat="43.9779267" lon="6.75814"><ele>546.0</ele><time>2026-05-03T09:22:39.273Z</time></trkpt><trkpt lat="43.9780883" lon="6.758135"><ele>546.0</ele><time>2026-05-03T09:22:40.273Z</time></trkpt><trkpt lat="43.9782483" lon="6.7581367"><ele>546.0</ele><time>2026-05-03T09:22:41.273Z</time></trkpt><trkpt lat="43.9784183" lon="6.7581417"><ele>547.0</ele><time>2026-05-03T09:22:42.273Z</time></trkpt><trkpt lat="43.9785883" lon="6.7581567"><ele>548.0</ele><time>2026-05-03T09:22:43.273Z</time></trkpt><trkpt lat="43.9787567" lon="6.7581817"><ele>549.0</ele><time>2026-05-03T09:22:44.273Z</time></trkpt><trkpt lat="43.9789167" lon="6.75821"><ele>549.0</ele><time>2026-05-03T09:22:45.274Z</time></trkpt><trkpt lat="43.9790733" lon="6.75824"><ele>549.0</ele><time>2026-05-03T09:22:46.273Z</time></trkpt><trkpt lat="43.97923" lon="6.7582633"><ele>549.0</ele><time>2026-05-03T09:22:47.273Z</time></trkpt><trkpt lat="43.97939" lon="6.7582783"><ele>550.0</ele><time>2026-05-03T09:22:48.273Z</time></trkpt><trkpt lat="43.97956" lon="6.7582967"><ele>551.0</ele><time>2026-05-03T09:22:49.273Z</time></trkpt><trkpt lat="43.9797183" lon="6.758315"><ele>552.0</ele><time>2026-05-03T09:22:50.273Z</time></trkpt><trkpt lat="43.9798733" lon="6.7583267"><ele>551.25</ele><time>2026-05-03T09:22:51.273Z</time></trkpt><trkpt lat="43.98002" lon="6.7583233"><ele>550.5</ele><time>2026-05-03T09:22:52.274Z</time></trkpt><trkpt lat="43.9801683" lon="6.7583017"><ele>549.75</ele><time>2026-05-03T09:22:53.274Z</time></trkpt><trkpt lat="43.98031" lon="6.7582733"><ele>549.0</ele><time>2026-05-03T09:22:54.273Z</time></trkpt><trkpt lat="43.9804483" lon="6.7582317"><ele>549.0</ele><time>2026-05-03T09:22:55.273Z</time></trkpt><trkpt lat="43.9805783" lon="6.7581867"><ele>549.0</ele><time>2026-05-03T09:22:56.273Z</time></trkpt><trkpt lat="43.980705" lon="6.7581383"><ele>549.0</ele><time>2026-05-03T09:22:57.273Z</time></trkpt><trkpt lat="43.9808367" lon="6.7580983"><ele>549.0</ele><time>2026-05-03T09:22:58.274Z</time></trkpt><trkpt lat="43.9809633" lon="6.7580667"><ele>550.0</ele><time>2026-05-03T09:22:59.274Z</time></trkpt><trkpt lat="43.98108" lon="6.7580633"><ele>551.0</ele><time>2026-05-03T09:23:00.273Z</time></trkpt><trkpt lat="43.981205" lon="6.7580817"><ele>552.0</ele><time>2026-05-03T09:23:01.273Z</time></trkpt><trkpt lat="43.9813183" lon="6.7581317"><ele>553.0</ele><time>2026-05-03T09:23:02.273Z</time></trkpt><trkpt lat="43.9814383" lon="6.7582133"><ele>553.0</ele><time>2026-05-03T09:23:03.273Z</time></trkpt><trkpt lat="43.981555" lon="6.75831"><ele>553.0</ele><time>2026-05-03T09:23:04.273Z</time></trkpt><trkpt lat="43.981655" lon="6.7584167"><ele>553.0</ele><time>2026-05-03T09:23:05.273Z</time></trkpt><trkpt lat="43.9817617" lon="6.7585383"><ele>553.0</ele><time>2026-05-03T09:23:06.273Z</time></trkpt><trkpt lat="43.9818783" lon="6.7586517"><ele>553.5</ele><time>2026-05-03T09:23:07.273Z</time></trkpt><trkpt lat="43.9820083" lon="6.7587667"><ele>554.0</ele><time>2026-05-03T09:23:08.273Z</time></trkpt><trkpt lat="43.9821217" lon="6.75888"><ele>554.5</ele><time>2026-05-03T09:23:09.273Z</time></trkpt><trkpt lat="43.9822433" lon="6.75897"><ele>555.0</ele><time>2026-05-03T09:23:10.274Z</time></trkpt><trkpt lat="43.98237" lon="6.759055"><ele>555.0</ele><time>2026-05-03T09:23:11.273Z</time></trkpt><trkpt lat="43.9824933" lon="6.75912"><ele>555.0</ele><time>2026-05-03T09:23:12.273Z</time></trkpt><trkpt lat="43.9826333" lon="6.759195"><ele>555.0</ele><time>2026-05-03T09:23:13.273Z</time></trkpt><trkpt lat="43.9827617" lon="6.75928"><ele>555.0</ele><time>2026-05-03T09:23:14.273Z</time></trkpt><trkpt lat="43.9828767" lon="6.7593667"><ele>554.75</ele><time>2026-05-03T09:23:15.274Z</time></trkpt><trkpt lat="43.9829967" lon="6.7594483"><ele>554.5</ele><time>2026-05-03T09:23:16.273Z</time></trkpt><trkpt lat="43.9831183" lon="6.759535"><ele>554.25</ele><time>2026-05-03T09:23:17.273Z</time></trkpt><trkpt lat="43.983225" lon="6.7596267"><ele>554.0</ele><time>2026-05-03T09:23:18.274Z</time></trkpt><trkpt lat="43.9833283" lon="6.7597417"><ele>556.0</ele><time>2026-05-03T09:23:19.274Z</time></trkpt><trkpt lat="43.9834217" lon="6.7598533"><ele>558.0</ele><time>2026-05-03T09:23:20.273Z</time></trkpt><trkpt lat="43.9835333" lon="6.7599533"><ele>560.0</ele><time>2026-05-03T09:23:21.273Z</time></trkpt><trkpt lat="43.98365" lon="6.76004"><ele>562.0</ele><time>2026-05-03T09:23:22.274Z</time></trkpt><trkpt lat="43.983765" lon="6.760105"><ele>561.25</ele><time>2026-05-03T09:23:23.273Z</time></trkpt><trkpt lat="43.983865" lon="6.7602033"><ele>560.5</ele><time>2026-05-03T09:23:24.273Z</time></trkpt><trkpt lat="43.9839433" lon="6.7603333"><ele>559.75</ele><time>2026-05-03T09:23:25.273Z</time></trkpt><trkpt lat="43.984005" lon="6.760485"><ele>559.0</ele><time>2026-05-03T09:23:26.273Z</time></trkpt><trkpt lat="43.9840517" lon="6.7606567"><ele>559.0</ele><time>2026-05-03T09:23:27.273Z</time></trkpt><trkpt lat="43.9841133" lon="6.7608067"><ele>559.0</ele><time>2026-05-03T09:23:28.273Z</time></trkpt><trkpt lat="43.9841933" lon="6.7609517"><ele>559.0</ele><time>2026-05-03T09:23:29.273Z</time></trkpt><trkpt lat="43.9842817" lon="6.7610883"><ele>559.0</ele><time>2026-05-03T09:23:30.273Z</time></trkpt><trkpt lat="43.9843683" lon="6.761225"><ele>561.5</ele><time>2026-05-03T09:23:31.274Z</time></trkpt><trkpt lat="43.9844417" lon="6.7613683"><ele>564.0</ele><time>2026-05-03T09:23:32.273Z</time></trkpt><trkpt lat="43.98451" lon="6.7615233"><ele>566.5</ele><time>2026-05-03T09:23:33.273Z</time></trkpt><trkpt lat="43.984575" lon="6.7616883"><ele>569.0</ele><time>2026-05-03T09:23:34.273Z</time></trkpt><trkpt lat="43.9846217" lon="6.7618633"><ele>567.75</ele><time>2026-05-03T09:23:35.273Z</time></trkpt><trkpt lat="43.9846633" lon="6.7620383"><ele>566.5</ele><time>2026-05-03T09:23:36.273Z</time></trkpt><trkpt lat="43.98468" lon="6.762215"><ele>565.25</ele><time>2026-05-03T09:23:37.273Z</time></trkpt><trkpt lat="43.9846917" lon="6.7623917"><ele>564.0</ele><time>2026-05-03T09:23:38.273Z</time></trkpt><trkpt lat="43.9847183" lon="6.7625617"><ele>562.5</ele><time>2026-05-03T09:23:39.273Z</time></trkpt><trkpt lat="43.9847817" lon="6.76271"><ele>561.0</ele><time>2026-05-03T09:23:40.273Z</time></trkpt><trkpt lat="43.984865" lon="6.7628467"><ele>559.5</ele><time>2026-05-03T09:23:41.273Z</time></trkpt><trkpt lat="43.984975" lon="6.7629583"><ele>558.0</ele><time>2026-05-03T09:23:42.274Z</time></trkpt><trkpt lat="43.9850767" lon="6.7630683"><ele>563.5</ele><time>2026-05-03T09:23:43.273Z</time></trkpt><trkpt lat="43.98517" lon="6.7631917"><ele>569.0</ele><time>2026-05-03T09:23:44.273Z</time></trkpt><trkpt lat="43.985265" lon="6.76331"><ele>574.5</ele><time>2026-05-03T09:23:45.273Z</time></trkpt><trkpt lat="43.9853767" lon="6.7634117"><ele>580.0</ele><time>2026-05-03T09:23:46.273Z</time></trkpt><trkpt lat="43.9855033" lon="6.7634967"><ele>575.25</ele><time>2026-05-03T09:23:47.273Z</time></trkpt><trkpt lat="43.9856383" lon="6.7635717"><ele>570.5</ele><time>2026-05-03T09:23:48.273Z</time></trkpt><trkpt lat="43.98577" lon="6.7636467"><ele>565.75</ele><time>2026-05-03T09:23:49.274Z</time></trkpt><trkpt lat="43.9858983" lon="6.7637283"><ele>561.0</ele><time>2026-05-03T09:23:50.273Z</time></trkpt><trkpt lat="43.98603" lon="6.7638067"><ele>561.0</ele><time>2026-05-03T09:23:51.274Z</time></trkpt><trkpt lat="43.9861483" lon="6.7638733"><ele>561.0</ele><time>2026-05-03T09:23:52.273Z</time></trkpt><trkpt lat="43.9862917" lon="6.7639117"><ele>561.0</ele><time>2026-05-03T09:23:53.273Z</time></trkpt><trkpt lat="43.9864417" lon="6.76392"><ele>561.0</ele><time>2026-05-03T09:23:54.273Z</time></trkpt><trkpt lat="43.9865867" lon="6.7639217"><ele>565.25</ele><time>2026-05-03T09:23:55.273Z</time></trkpt><trkpt lat="43.986735" lon="6.7639267"><ele>569.5</ele><time>2026-05-03T09:23:56.273Z</time></trkpt><trkpt lat="43.9868817" lon="6.76395"><ele>573.75</ele><time>2026-05-03T09:23:57.274Z</time></trkpt><trkpt lat="43.9870183" lon="6.764"><ele>578.0</ele><time>2026-05-03T09:23:58.273Z</time></trkpt><trkpt lat="43.987155" lon="6.76408"><ele>578.0</ele><time>2026-05-03T09:23:59.273Z</time></trkpt><trkpt lat="43.9872817" lon="6.7641967"><ele>578.0</ele><time>2026-05-03T09:24:00.273Z</time></trkpt><trkpt lat="43.9874" lon="6.7643217"><ele>578.0</ele><time>2026-05-03T09:24:01.273Z</time></trkpt><trkpt lat="43.987515" lon="6.76445"><ele>578.0</ele><time>2026-05-03T09:24:02.273Z</time></trkpt><trkpt lat="43.9876317" lon="6.764555"><ele>575.25</ele><time>2026-05-03T09:24:03.273Z</time></trkpt><trkpt lat="43.9877567" lon="6.7646333"><ele>572.5</ele><time>2026-05-03T09:24:04.273Z</time></trkpt><trkpt lat="43.9878967" lon="6.7646917"><ele>569.75</ele><time>2026-05-03T09:24:05.273Z</time></trkpt><trkpt lat="43.98805" lon="6.7647283"><ele>567.0</ele><time>2026-05-03T09:24:06.273Z</time></trkpt><trkpt lat="43.9882" lon="6.7647533"><ele>571.0</ele><time>2026-05-03T09:24:07.274Z</time></trkpt><trkpt lat="43.988345" lon="6.7647733"><ele>575.0</ele><time>2026-05-03T09:24:08.273Z</time></trkpt><trkpt lat="43.9884883" lon="6.7648017"><ele>579.0</ele><time>2026-05-03T09:24:09.273Z</time></trkpt><trkpt lat="43.9886383" lon="6.76484"><ele>583.0</ele><time>2026-05-03T09:24:10.273Z</time></trkpt><trkpt lat="43.9887683" lon="6.7649217"><ele>583.0</ele><time>2026-05-03T09:24:11.273Z</time></trkpt><trkpt lat="43.9888883" lon="6.7650233"><ele>583.0</ele><time>2026-05-03T09:24:12.273Z</time></trkpt><trkpt lat="43.988995" lon="6.7651567"><ele>583.0</ele><time>2026-05-03T09:24:13.274Z</time></trkpt><trkpt lat="43.9890983" lon="6.765305"><ele>583.0</ele><time>2026-05-03T09:24:14.273Z</time></trkpt><trkpt lat="43.9891867" lon="6.7654667"><ele>590.3333333333334</ele><time>2026-05-03T09:24:15.273Z</time></trkpt><trkpt lat="43.98929" lon="6.7656117"><ele>597.6666666666666</ele><time>2026-05-03T09:24:16.273Z</time></trkpt><trkpt lat="43.9894" lon="6.7657517"><ele>605.0</ele><time>2026-05-03T09:24:17.273Z</time></trkpt><trkpt lat="43.989515" lon="6.7659"><ele>593.3333333333333</ele><time>2026-05-03T09:24:18.273Z</time></trkpt><trkpt lat="43.98964" lon="6.7660367"><ele>581.6666666666666</ele><time>2026-05-03T09:24:19.274Z</time></trkpt><trkpt lat="43.9897667" lon="6.7661883"><ele>570.0</ele><time>2026-05-03T09:24:20.274Z</time></trkpt><trkpt lat="43.9898933" lon="6.7663333"><ele>579.3333333333334</ele><time>2026-05-03T09:24:21.273Z</time></trkpt><trkpt lat="43.9900133" lon="6.7664783"><ele>588.6666666666667</ele><time>2026-05-03T09:24:22.273Z</time></trkpt><trkpt lat="43.990135" lon="6.7666183"><ele>598.0</ele><time>2026-05-03T09:24:23.273Z</time></trkpt><trkpt lat="43.9902633" lon="6.766745"><ele>598.0</ele><time>2026-05-03T09:24:24.274Z</time></trkpt><trkpt lat="43.9903983" lon="6.7668583"><ele>598.0</ele><time>2026-05-03T09:24:25.273Z</time></trkpt><trkpt lat="43.9905533" lon="6.766945"><ele>598.0</ele><time>2026-05-03T09:24:26.273Z</time></trkpt><trkpt lat="43.9907083" lon="6.7670333"><ele>594.3333333333334</ele><time>2026-05-03T09:24:27.273Z</time></trkpt><trkpt lat="43.99086" lon="6.7671383"><ele>590.6666666666666</ele><time>2026-05-03T09:24:28.273Z</time></trkpt><trkpt lat="43.9910033" lon="6.76724"><ele>587.0</ele><time>2026-05-03T09:24:29.274Z</time></trkpt><trkpt lat="43.9911467" lon="6.767345"><ele>587.0</ele><time>2026-05-03T09:24:30.273Z</time></trkpt><trkpt lat="43.9912933" lon="6.7674467"><ele>587.0</ele><time>2026-05-03T09:24:31.273Z</time></trkpt><trkpt lat="43.9914417" lon="6.7675483"><ele>587.0</ele><time>2026-05-03T09:24:32.274Z</time></trkpt><trkpt lat="43.9915833" lon="6.76767"><ele>588.0</ele><time>2026-05-03T09:24:33.273Z</time></trkpt><trkpt lat="43.9917117" lon="6.76782"><ele>589.0</ele><time>2026-05-03T09:24:34.274Z</time></trkpt><trkpt lat="43.9918317" lon="6.76799"><ele>590.0</ele><time>2026-05-03T09:24:35.273Z</time></trkpt><trkpt lat="43.9919417" lon="6.7681583"><ele>590.0</ele><time>2026-05-03T09:24:36.273Z</time></trkpt><trkpt lat="43.9920533" lon="6.7683383"><ele>590.0</ele><time>2026-05-03T09:24:37.273Z</time></trkpt><trkpt lat="43.99216" lon="6.768505"><ele>590.0</ele><time>2026-05-03T09:24:38.273Z</time></trkpt><trkpt lat="43.9922717" lon="6.7686733"><ele>589.6666666666666</ele><time>2026-05-03T09:24:39.273Z</time></trkpt><trkpt lat="43.9924" lon="6.76883"><ele>589.3333333333334</ele><time>2026-05-03T09:24:40.274Z</time></trkpt><trkpt lat="43.9925367" lon="6.7689617"><ele>589.0</ele><time>2026-05-03T09:24:41.273Z</time></trkpt><trkpt lat="43.9926783" lon="6.7690867"><ele>589.0</ele><time>2026-05-03T09:24:42.273Z</time></trkpt><trkpt lat="43.992815" lon="6.7692167"><ele>589.0</ele><time>2026-05-03T09:24:43.273Z</time></trkpt><trkpt lat="43.9929517" lon="6.7693383"><ele>589.0</ele><time>2026-05-03T09:24:44.273Z</time></trkpt><trkpt lat="43.9930933" lon="6.7694517"><ele>586.0</ele><time>2026-05-03T09:24:45.274Z</time></trkpt><trkpt lat="43.99322" lon="6.7695867"><ele>583.0</ele><time>2026-05-03T09:24:46.274Z</time></trkpt><trkpt lat="43.9933333" lon="6.7697267"><ele>580.0</ele><time>2026-05-03T09:24:47.273Z</time></trkpt><trkpt lat="43.9934333" lon="6.7698883"><ele>580.0</ele><time>2026-05-03T09:24:48.273Z</time></trkpt><trkpt lat="43.99351" lon="6.770075"><ele>580.0</ele><time>2026-05-03T09:24:49.273Z</time></trkpt><trkpt lat="43.99358" lon="6.7702867"><ele>580.0</ele><time>2026-05-03T09:24:50.273Z</time></trkpt><trkpt lat="43.99366" lon="6.7705017"><ele>583.3333333333334</ele><time>2026-05-03T09:24:51.273Z</time></trkpt><trkpt lat="43.9937367" lon="6.7707183"><ele>586.6666666666666</ele><time>2026-05-03T09:24:52.273Z</time></trkpt><trkpt lat="43.9938133" lon="6.7709383"><ele>590.0</ele><time>2026-05-03T09:24:53.273Z</time></trkpt><trkpt lat="43.9938883" lon="6.7711517"><ele>590.0</ele><time>2026-05-03T09:24:54.273Z</time></trkpt><trkpt lat="43.993955" lon="6.7713667"><ele>590.0</ele><time>2026-05-03T09:24:55.274Z</time></trkpt><trkpt lat="43.994015" lon="6.7715883"><ele>590.0</ele><time>2026-05-03T09:24:56.273Z</time></trkpt><trkpt lat="43.994075" lon="6.77181"><ele>585.3333333333333</ele><time>2026-05-03T09:24:57.273Z</time></trkpt><trkpt lat="43.99414" lon="6.7720433"><ele>580.6666666666666</ele><time>2026-05-03T09:24:58.273Z</time></trkpt><trkpt lat="43.9942167" lon="6.7722683"><ele>576.0</ele><time>2026-05-03T09:24:59.273Z</time></trkpt><trkpt lat="43.994295" lon="6.77249"><ele>582.6666666666666</ele><time>2026-05-03T09:25:00.273Z</time></trkpt><trkpt lat="43.9943783" lon="6.772705"><ele>589.3333333333333</ele><time>2026-05-03T09:25:01.273Z</time></trkpt><trkpt lat="43.994455" lon="6.7729033"><ele>596.0</ele><time>2026-05-03T09:25:02.273Z</time></trkpt><trkpt lat="43.9945517" lon="6.7730933"><ele>596.0</ele><time>2026-05-03T09:25:03.273Z</time></trkpt><trkpt lat="43.9946667" lon="6.77328"><ele>596.0</ele><time>2026-05-03T09:25:04.274Z</time></trkpt><trkpt lat="43.9947883" lon="6.7734567"><ele>596.0</ele><time>2026-05-03T09:25:05.273Z</time></trkpt><trkpt lat="43.99492" lon="6.7736183"><ele>596.6666666666666</ele><time>2026-05-03T09:25:06.273Z</time></trkpt><trkpt lat="43.9950667" lon="6.77376"><ele>597.3333333333334</ele><time>2026-05-03T09:25:07.274Z</time></trkpt><trkpt lat="43.9952317" lon="6.7738717"><ele>598.0</ele><time>2026-05-03T09:25:08.273Z</time></trkpt><trkpt lat="43.9953917" lon="6.7739783"><ele>598.0</ele><time>2026-05-03T09:25:09.273Z</time></trkpt><trkpt lat="43.9955467" lon="6.774115"><ele>598.0</ele><time>2026-05-03T09:25:10.273Z</time></trkpt><trkpt lat="43.9956967" lon="6.7742633"><ele>598.0</ele><time>2026-05-03T09:25:11.273Z</time></trkpt><trkpt lat="43.995835" lon="6.7744217"><ele>599.0</ele><time>2026-05-03T09:25:12.273Z</time></trkpt><trkpt lat="43.9959783" lon="6.7745917"><ele>600.0</ele><time>2026-05-03T09:25:13.273Z</time></trkpt><trkpt lat="43.9961233" lon="6.774745"><ele>601.0</ele><time>2026-05-03T09:25:14.273Z</time></trkpt><trkpt lat="43.996255" lon="6.7749133"><ele>601.0</ele><time>2026-05-03T09:25:15.273Z</time></trkpt><trkpt lat="43.996385" lon="6.7750617"><ele>601.0</ele><time>2026-05-03T09:25:16.273Z</time></trkpt><trkpt lat="43.9965167" lon="6.7752117"><ele>601.0</ele><time>2026-05-03T09:25:17.273Z</time></trkpt><trkpt lat="43.9966433" lon="6.7753583"><ele>601.0</ele><time>2026-05-03T09:25:18.273Z</time></trkpt><trkpt lat="43.9967567" lon="6.7754983"><ele>601.0</ele><time>2026-05-03T09:25:19.273Z</time></trkpt><trkpt lat="43.99686" lon="6.7756183"><ele>601.0</ele><time>2026-05-03T09:25:20.273Z</time></trkpt><trkpt lat="43.9969667" lon="6.7757417"><ele>601.0</ele><time>2026-05-03T09:25:21.273Z</time></trkpt><trkpt lat="43.99708" lon="6.7758617"><ele>601.0</ele><time>2026-05-03T09:25:22.273Z</time></trkpt><trkpt lat="43.9971783" lon="6.7759833"><ele>601.0</ele><time>2026-05-03T09:25:23.273Z</time></trkpt><trkpt lat="43.9972583" lon="6.7761133"><ele>601.0</ele><time>2026-05-03T09:25:24.273Z</time></trkpt><trkpt lat="43.9973367" lon="6.7762683"><ele>601.0</ele><time>2026-05-03T09:25:25.273Z</time></trkpt><trkpt lat="43.99742" lon="6.7764133"><ele>599.0</ele><time>2026-05-03T09:25:26.273Z</time></trkpt><trkpt lat="43.9975167" lon="6.7765583"><ele>597.0</ele><time>2026-05-03T09:25:27.273Z</time></trkpt><trkpt lat="43.997615" lon="6.77668"><ele>595.0</ele><time>2026-05-03T09:25:28.273Z</time></trkpt><trkpt lat="43.9977017" lon="6.7767967"><ele>593.0</ele><time>2026-05-03T09:25:29.273Z</time></trkpt><trkpt lat="43.9977783" lon="6.7769333"><ele>592.5</ele><time>2026-05-03T09:25:30.273Z</time></trkpt><trkpt lat="43.997835" lon="6.7770767"><ele>592.0</ele><time>2026-05-03T09:25:31.273Z</time></trkpt><trkpt lat="43.9978967" lon="6.7772117"><ele>591.5</ele><time>2026-05-03T09:25:32.274Z</time></trkpt><trkpt lat="43.99798" lon="6.7773317"><ele>591.0</ele><time>2026-05-03T09:25:33.273Z</time></trkpt><trkpt lat="43.9980833" lon="6.7774383"><ele>591.0</ele><time>2026-05-03T09:25:34.273Z</time></trkpt><trkpt lat="43.9982017" lon="6.7775183"><ele>591.0</ele><time>2026-05-03T09:25:35.273Z</time></trkpt><trkpt lat="43.998325" lon="6.777605"><ele>591.0</ele><time>2026-05-03T09:25:36.273Z</time></trkpt><trkpt lat="43.9984517" lon="6.7777083"><ele>591.0</ele><time>2026-05-03T09:25:37.273Z</time></trkpt><trkpt lat="43.9985583" lon="6.7778117"><ele>597.0</ele><time>2026-05-03T09:25:38.273Z</time></trkpt><trkpt lat="43.9986683" lon="6.7779483"><ele>603.0</ele><time>2026-05-03T09:25:39.273Z</time></trkpt><trkpt lat="43.9987667" lon="6.7781217"><ele>609.0</ele><time>2026-05-03T09:25:40.273Z</time></trkpt><trkpt lat="43.9988667" lon="6.7783"><ele>609.0</ele><time>2026-05-03T09:25:41.273Z</time></trkpt><trkpt lat="43.99896" lon="6.7784917"><ele>609.0</ele><time>2026-05-03T09:25:42.273Z</time></trkpt><trkpt lat="43.9990517" lon="6.7786817"><ele>609.0</ele><time>2026-05-03T09:25:43.273Z</time></trkpt><trkpt lat="43.9991417" lon="6.77889"><ele>612.6666666666666</ele><time>2026-05-03T09:25:44.273Z</time></trkpt><trkpt lat="43.9992283" lon="6.7791"><ele>616.3333333333333</ele><time>2026-05-03T09:25:45.273Z</time></trkpt><trkpt lat="43.9993283" lon="6.77931"><ele>620.0</ele><time>2026-05-03T09:25:46.273Z</time></trkpt><trkpt lat="43.9994267" lon="6.77951"><ele>620.0</ele><time>2026-05-03T09:25:47.273Z</time></trkpt><trkpt lat="43.9995333" lon="6.7797183"><ele>620.0</ele><time>2026-05-03T09:25:48.273Z</time></trkpt><trkpt lat="43.9996467" lon="6.779925"><ele>620.0</ele><time>2026-05-03T09:25:49.273Z</time></trkpt><trkpt lat="43.99975" lon="6.7801283"><ele>614.0</ele><time>2026-05-03T09:25:50.273Z</time></trkpt><trkpt lat="43.9998433" lon="6.7803267"><ele>608.0</ele><time>2026-05-03T09:25:51.273Z</time></trkpt><trkpt lat="43.99993" lon="6.7805233"><ele>602.0</ele><time>2026-05-03T09:25:52.273Z</time></trkpt><trkpt lat="44.0000117" lon="6.7807267"><ele>602.0</ele><time>2026-05-03T09:25:53.273Z</time></trkpt><trkpt lat="44.00008" lon="6.7809383"><ele>602.0</ele><time>2026-05-03T09:25:54.274Z</time></trkpt><trkpt lat="44.00014" lon="6.7811467"><ele>602.0</ele><time>2026-05-03T09:25:55.273Z</time></trkpt><trkpt lat="44.0002033" lon="6.781345"><ele>597.6666666666666</ele><time>2026-05-03T09:25:56.273Z</time></trkpt><trkpt lat="44.0002683" lon="6.7815583"><ele>593.3333333333334</ele><time>2026-05-03T09:25:57.273Z</time></trkpt><trkpt lat="44.000325" lon="6.781765"><ele>589.0</ele><time>2026-05-03T09:25:58.273Z</time></trkpt><trkpt lat="44.0004067" lon="6.7819667"><ele>587.0</ele><time>2026-05-03T09:25:59.273Z</time></trkpt><trkpt lat="44.0004983" lon="6.7821417"><ele>585.0</ele><time>2026-05-03T09:26:00.273Z</time></trkpt><trkpt lat="44.0006" lon="6.7823117"><ele>583.0</ele><time>2026-05-03T09:26:01.273Z</time></trkpt><trkpt lat="44.000715" lon="6.7824467"><ele>582.0</ele><time>2026-05-03T09:26:02.273Z</time></trkpt><trkpt lat="44.0008633" lon="6.782555"><ele>581.0</ele><time>2026-05-03T09:26:03.273Z</time></trkpt><trkpt lat="44.001015" lon="6.7826367"><ele>580.0</ele><time>2026-05-03T09:26:04.273Z</time></trkpt><trkpt lat="44.0011767" lon="6.7827033"><ele>580.0</ele><time>2026-05-03T09:26:05.273Z</time></trkpt><trkpt lat="44.0013367" lon="6.7827583"><ele>580.0</ele><time>2026-05-03T09:26:06.273Z</time></trkpt><trkpt lat="44.001495" lon="6.7828183"><ele>580.0</ele><time>2026-05-03T09:26:07.273Z</time></trkpt><trkpt lat="44.00166" lon="6.78291"><ele>584.0</ele><time>2026-05-03T09:26:08.273Z</time></trkpt><trkpt lat="44.0018233" lon="6.7830233"><ele>588.0</ele><time>2026-05-03T09:26:09.273Z</time></trkpt><trkpt lat="44.0019617" lon="6.78316"><ele>592.0</ele><time>2026-05-03T09:26:10.273Z</time></trkpt><trkpt lat="44.002085" lon="6.7833117"><ele>592.0</ele><time>2026-05-03T09:26:11.273Z</time></trkpt><trkpt lat="44.00221" lon="6.783485"><ele>592.0</ele><time>2026-05-03T09:26:12.273Z</time></trkpt><trkpt lat="44.0022967" lon="6.7836783"><ele>592.0</ele><time>2026-05-03T09:26:13.273Z</time></trkpt><trkpt lat="44.0023767" lon="6.7838867"><ele>593.0</ele><time>2026-05-03T09:26:14.273Z</time></trkpt><trkpt lat="44.0024517" lon="6.78411"><ele>594.0</ele><time>2026-05-03T09:26:15.273Z</time></trkpt><trkpt lat="44.00252" lon="6.7843217"><ele>595.0</ele><time>2026-05-03T09:26:16.274Z</time></trkpt><trkpt lat="44.0025867" lon="6.7845417"><ele>595.0</ele><time>2026-05-03T09:26:17.273Z</time></trkpt><trkpt lat="44.0026533" lon="6.78476"><ele>595.0</ele><time>2026-05-03T09:26:18.273Z</time></trkpt><trkpt lat="44.0027267" lon="6.784965"><ele>595.0</ele><time>2026-05-03T09:26:19.273Z</time></trkpt><trkpt lat="44.0028133" lon="6.785155"><ele>593.0</ele><time>2026-05-03T09:26:20.273Z</time></trkpt><trkpt lat="44.0029133" lon="6.785325"><ele>591.0</ele><time>2026-05-03T09:26:21.273Z</time></trkpt><trkpt lat="44.003025" lon="6.7854717"><ele>589.0</ele><time>2026-05-03T09:26:22.273Z</time></trkpt><trkpt lat="44.0031717" lon="6.785605"><ele>589.0</ele><time>2026-05-03T09:26:23.273Z</time></trkpt><trkpt lat="44.0033267" lon="6.7857083"><ele>589.0</ele><time>2026-05-03T09:26:24.273Z</time></trkpt><trkpt lat="44.0034933" lon="6.7858033"><ele>589.0</ele><time>2026-05-03T09:26:25.273Z</time></trkpt><trkpt lat="44.0036583" lon="6.7859017"><ele>589.3333333333334</ele><time>2026-05-03T09:26:26.273Z</time></trkpt><trkpt lat="44.00382" lon="6.786005"><ele>589.6666666666666</ele><time>2026-05-03T09:26:27.273Z</time></trkpt><trkpt lat="44.0039867" lon="6.786135"><ele>590.0</ele><time>2026-05-03T09:26:28.274Z</time></trkpt><trkpt lat="44.0041433" lon="6.78629"><ele>594.6666666666666</ele><time>2026-05-03T09:26:29.273Z</time></trkpt><trkpt lat="44.004285" lon="6.78644"><ele>599.3333333333334</ele><time>2026-05-03T09:26:30.273Z</time></trkpt><trkpt lat="44.00443" lon="6.786595"><ele>604.0</ele><time>2026-05-03T09:26:31.273Z</time></trkpt><trkpt lat="44.00457" lon="6.78676"><ele>600.0</ele><time>2026-05-03T09:26:32.273Z</time></trkpt><trkpt lat="44.0047" lon="6.7869167"><ele>596.0</ele><time>2026-05-03T09:26:33.273Z</time></trkpt><trkpt lat="44.0048367" lon="6.7870817"><ele>592.0</ele><time>2026-05-03T09:26:34.273Z</time></trkpt><trkpt lat="44.0049717" lon="6.7872517"><ele>594.3333333333334</ele><time>2026-05-03T09:26:35.273Z</time></trkpt><trkpt lat="44.0050933" lon="6.7874417"><ele>596.6666666666666</ele><time>2026-05-03T09:26:36.273Z</time></trkpt><trkpt lat="44.0052083" lon="6.787635"><ele>599.0</ele><time>2026-05-03T09:26:37.273Z</time></trkpt><trkpt lat="44.0053067" lon="6.7878383"><ele>599.0</ele><time>2026-05-03T09:26:38.273Z</time></trkpt><trkpt lat="44.0054017" lon="6.78804"><ele>599.0</ele><time>2026-05-03T09:26:39.273Z</time></trkpt><trkpt lat="44.0054917" lon="6.78825"><ele>599.0</ele><time>2026-05-03T09:26:40.273Z</time></trkpt><trkpt lat="44.00558" lon="6.7884633"><ele>597.3333333333333</ele><time>2026-05-03T09:26:41.273Z</time></trkpt><trkpt lat="44.0056733" lon="6.78869"><ele>595.6666666666666</ele><time>2026-05-03T09:26:42.273Z</time></trkpt><trkpt lat="44.0057683" lon="6.7889183"><ele>594.0</ele><time>2026-05-03T09:26:43.274Z</time></trkpt><trkpt lat="44.0058583" lon="6.7891417"><ele>597.6666666666666</ele><time>2026-05-03T09:26:44.273Z</time></trkpt><trkpt lat="44.00595" lon="6.7893583"><ele>601.3333333333333</ele><time>2026-05-03T09:26:45.273Z</time></trkpt><trkpt lat="44.00604" lon="6.789575"><ele>605.0</ele><time>2026-05-03T09:26:46.273Z</time></trkpt><trkpt lat="44.0061367" lon="6.789785"><ele>605.0</ele><time>2026-05-03T09:26:47.273Z</time></trkpt><trkpt lat="44.00622" lon="6.7900017"><ele>605.0</ele><time>2026-05-03T09:26:48.273Z</time></trkpt><trkpt lat="44.0062883" lon="6.7902267"><ele>605.0</ele><time>2026-05-03T09:26:49.273Z</time></trkpt><trkpt lat="44.00634" lon="6.7904483"><ele>603.6666666666666</ele><time>2026-05-03T09:26:50.273Z</time></trkpt><trkpt lat="44.0063817" lon="6.7906783"><ele>602.3333333333334</ele><time>2026-05-03T09:26:51.273Z</time></trkpt><trkpt lat="44.0064133" lon="6.79092"><ele>601.0</ele><time>2026-05-03T09:26:52.273Z</time></trkpt><trkpt lat="44.00646" lon="6.7911617"><ele>599.3333333333334</ele><time>2026-05-03T09:26:53.273Z</time></trkpt><trkpt lat="44.0065367" lon="6.791375"><ele>597.6666666666666</ele><time>2026-05-03T09:26:54.273Z</time></trkpt><trkpt lat="44.0066317" lon="6.7916"><ele>596.0</ele><time>2026-05-03T09:26:55.273Z</time></trkpt><trkpt lat="44.006745" lon="6.7917883"><ele>597.3333333333333</ele><time>2026-05-03T09:26:56.273Z</time></trkpt><trkpt lat="44.006875" lon="6.79198"><ele>598.6666666666666</ele><time>2026-05-03T09:26:57.273Z</time></trkpt><trkpt lat="44.0069733" lon="6.7921567"><ele>600.0</ele><time>2026-05-03T09:26:58.273Z</time></trkpt><trkpt lat="44.0070867" lon="6.7923233"><ele>600.0</ele><time>2026-05-03T09:26:59.273Z</time></trkpt><trkpt lat="44.0072183" lon="6.7924667"><ele>600.0</ele><time>2026-05-03T09:27:00.273Z</time></trkpt><trkpt lat="44.0073417" lon="6.7926183"><ele>600.0</ele><time>2026-05-03T09:27:01.273Z</time></trkpt><trkpt lat="44.0074433" lon="6.7927767"><ele>606.3333333333334</ele><time>2026-05-03T09:27:02.273Z</time></trkpt><trkpt lat="44.0075217" lon="6.7929717"><ele>612.6666666666667</ele><time>2026-05-03T09:27:03.274Z</time></trkpt><trkpt lat="44.00759" lon="6.793175"><ele>619.0</ele><time>2026-05-03T09:27:04.273Z</time></trkpt><trkpt lat="44.0076733" lon="6.79338"><ele>614.3333333333334</ele><time>2026-05-03T09:27:05.273Z</time></trkpt><trkpt lat="44.00777" lon="6.793585"><ele>609.6666666666666</ele><time>2026-05-03T09:27:06.273Z</time></trkpt><trkpt lat="44.00788" lon="6.7937867"><ele>605.0</ele><time>2026-05-03T09:27:07.273Z</time></trkpt><trkpt lat="44.00797" lon="6.7939967"><ele>605.0</ele><time>2026-05-03T09:27:08.273Z</time></trkpt><trkpt lat="44.008075" lon="6.7942067"><ele>605.0</ele><time>2026-05-03T09:27:09.273Z</time></trkpt><trkpt lat="44.008185" lon="6.7944083"><ele>605.0</ele><time>2026-05-03T09:27:10.273Z</time></trkpt><trkpt lat="44.0083083" lon="6.7945967"><ele>609.6666666666666</ele><time>2026-05-03T09:27:11.273Z</time></trkpt><trkpt lat="44.0084317" lon="6.7947833"><ele>614.3333333333334</ele><time>2026-05-03T09:27:12.273Z</time></trkpt><trkpt lat="44.00855" lon="6.79497"><ele>619.0</ele><time>2026-05-03T09:27:13.273Z</time></trkpt><trkpt lat="44.0086567" lon="6.795165"><ele>613.6666666666667</ele><time>2026-05-03T09:27:14.273Z</time></trkpt><trkpt lat="44.0087783" lon="6.7953367"><ele>608.3333333333334</ele><time>2026-05-03T09:27:15.273Z</time></trkpt><trkpt lat="44.0088967" lon="6.7955067"><ele>603.0</ele><time>2026-05-03T09:27:16.273Z</time></trkpt><trkpt lat="44.0090233" lon="6.795665"><ele>603.0</ele><time>2026-05-03T09:27:17.273Z</time></trkpt><trkpt lat="44.0091517" lon="6.79583"><ele>603.0</ele><time>2026-05-03T09:27:18.273Z</time></trkpt><trkpt lat="44.0092683" lon="6.796"><ele>603.0</ele><time>2026-05-03T09:27:19.273Z</time></trkpt><trkpt lat="44.0093783" lon="6.7961717"><ele>605.0</ele><time>2026-05-03T09:27:20.273Z</time></trkpt><trkpt lat="44.0094783" lon="6.7963633"><ele>607.0</ele><time>2026-05-03T09:27:21.273Z</time></trkpt><trkpt lat="44.0095833" lon="6.7965467"><ele>609.0</ele><time>2026-05-03T09:27:22.273Z</time></trkpt><trkpt lat="44.0097" lon="6.7967267"><ele>607.3333333333334</ele><time>2026-05-03T09:27:23.273Z</time></trkpt><trkpt lat="44.0098117" lon="6.7968967"><ele>605.6666666666667</ele><time>2026-05-03T09:27:24.273Z</time></trkpt><trkpt lat="44.0099333" lon="6.797085"><ele>604.0</ele><time>2026-05-03T09:27:25.273Z</time></trkpt><trkpt lat="44.0100583" lon="6.7972617"><ele>604.6666666666667</ele><time>2026-05-03T09:27:26.273Z</time></trkpt><trkpt lat="44.0101933" lon="6.79743"><ele>605.3333333333334</ele><time>2026-05-03T09:27:27.273Z</time></trkpt><trkpt lat="44.01033" lon="6.7976133"><ele>606.0</ele><time>2026-05-03T09:27:28.273Z</time></trkpt><trkpt lat="44.01047" lon="6.7977767"><ele>606.0</ele><time>2026-05-03T09:27:29.274Z</time></trkpt><trkpt lat="44.0106033" lon="6.7979383"><ele>606.0</ele><time>2026-05-03T09:27:30.273Z</time></trkpt><trkpt lat="44.01073" lon="6.7980817"><ele>606.0</ele><time>2026-05-03T09:27:31.273Z</time></trkpt><trkpt lat="44.0108733" lon="6.7982167"><ele>606.6666666666666</ele><time>2026-05-03T09:27:32.273Z</time></trkpt><trkpt lat="44.0110167" lon="6.7983417"><ele>607.3333333333333</ele><time>2026-05-03T09:27:33.273Z</time></trkpt><trkpt lat="44.0111717" lon="6.79846"><ele>608.0</ele><time>2026-05-03T09:27:34.274Z</time></trkpt><trkpt lat="44.0113267" lon="6.7985683"><ele>608.0</ele><time>2026-05-03T09:27:35.273Z</time></trkpt><trkpt lat="44.0114717" lon="6.7986967"><ele>608.0</ele><time>2026-05-03T09:27:36.273Z</time></trkpt><trkpt lat="44.0116233" lon="6.7988233"><ele>608.0</ele><time>2026-05-03T09:27:37.273Z</time></trkpt><trkpt lat="44.011765" lon="6.7989617"><ele>608.0</ele><time>2026-05-03T09:27:38.274Z</time></trkpt><trkpt lat="44.01188" lon="6.7991383"><ele>608.0</ele><time>2026-05-03T09:27:39.273Z</time></trkpt><trkpt lat="44.0119967" lon="6.7993217"><ele>608.0</ele><time>2026-05-03T09:27:40.273Z</time></trkpt><trkpt lat="44.0121117" lon="6.799505"><ele>608.0</ele><time>2026-05-03T09:27:41.273Z</time></trkpt><trkpt lat="44.0122133" lon="6.799705"><ele>608.0</ele><time>2026-05-03T09:27:42.273Z</time></trkpt><trkpt lat="44.0123033" lon="6.7999067"><ele>608.0</ele><time>2026-05-03T09:27:43.273Z</time></trkpt><trkpt lat="44.0123867" lon="6.8001067"><ele>608.3333333333333</ele><time>2026-05-03T09:27:44.274Z</time></trkpt><trkpt lat="44.0124433" lon="6.8003033"><ele>608.6666666666666</ele><time>2026-05-03T09:27:45.273Z</time></trkpt><trkpt lat="44.0125183" lon="6.8004983"><ele>609.0</ele><time>2026-05-03T09:27:46.273Z</time></trkpt><trkpt lat="44.0126083" lon="6.8006733"><ele>611.0</ele><time>2026-05-03T09:27:47.273Z</time></trkpt><trkpt lat="44.012685" lon="6.800845"><ele>613.0</ele><time>2026-05-03T09:27:48.273Z</time></trkpt><trkpt lat="44.012745" lon="6.8010367"><ele>615.0</ele><time>2026-05-03T09:27:49.273Z</time></trkpt><trkpt lat="44.012805" lon="6.80123"><ele>617.0</ele><time>2026-05-03T09:27:50.274Z</time></trkpt><trkpt lat="44.0128767" lon="6.8014183"><ele>617.0</ele><time>2026-05-03T09:27:51.273Z</time></trkpt><trkpt lat="44.0129483" lon="6.8016"><ele>617.0</ele><time>2026-05-03T09:27:52.273Z</time></trkpt><trkpt lat="44.0130033" lon="6.8017783"><ele>617.0</ele><time>2026-05-03T09:27:53.273Z</time></trkpt><trkpt lat="44.0130483" lon="6.801945"><ele>617.0</ele><time>2026-05-03T09:27:54.273Z</time></trkpt><trkpt lat="44.0131267" lon="6.8020883"><ele>615.3333333333333</ele><time>2026-05-03T09:27:55.273Z</time></trkpt><trkpt lat="44.0132383" lon="6.8022183"><ele>613.6666666666666</ele><time>2026-05-03T09:27:56.273Z</time></trkpt><trkpt lat="44.01337" lon="6.8023367"><ele>612.0</ele><time>2026-05-03T09:27:57.273Z</time></trkpt><trkpt lat="44.0135267" lon="6.8024433"><ele>612.3333333333334</ele><time>2026-05-03T09:27:58.274Z</time></trkpt><trkpt lat="44.0136867" lon="6.80255"><ele>612.6666666666667</ele><time>2026-05-03T09:27:59.273Z</time></trkpt><trkpt lat="44.0138467" lon="6.80264"><ele>613.0</ele><time>2026-05-03T09:28:00.273Z</time></trkpt><trkpt lat="44.01401" lon="6.8027183"><ele>615.3333333333334</ele><time>2026-05-03T09:28:01.274Z</time></trkpt><trkpt lat="44.0141633" lon="6.8027967"><ele>617.6666666666666</ele><time>2026-05-03T09:28:02.273Z</time></trkpt><trkpt lat="44.0143067" lon="6.8028867"><ele>620.0</ele><time>2026-05-03T09:28:03.273Z</time></trkpt><trkpt lat="44.01444" lon="6.8029983"><ele>620.0</ele><time>2026-05-03T09:28:04.273Z</time></trkpt><trkpt lat="44.0145483" lon="6.8031167"><ele>620.0</ele><time>2026-05-03T09:28:05.273Z</time></trkpt><trkpt lat="44.01463" lon="6.8032583"><ele>620.0</ele><time>2026-05-03T09:28:06.273Z</time></trkpt><trkpt lat="44.01469" lon="6.803415"><ele>620.0</ele><time>2026-05-03T09:28:07.273Z</time></trkpt><trkpt lat="44.0147467" lon="6.8035633"><ele>620.75</ele><time>2026-05-03T09:28:08.273Z</time></trkpt><trkpt lat="44.014835" lon="6.8036867"><ele>621.5</ele><time>2026-05-03T09:28:09.273Z</time></trkpt><trkpt lat="44.0149667" lon="6.80377"><ele>622.25</ele><time>2026-05-03T09:28:10.274Z</time></trkpt><trkpt lat="44.0151017" lon="6.8038367"><ele>623.0</ele><time>2026-05-03T09:28:11.274Z</time></trkpt><trkpt lat="44.0152483" lon="6.8039333"><ele>623.0</ele><time>2026-05-03T09:28:12.273Z</time></trkpt><trkpt lat="44.0153817" lon="6.8040583"><ele>623.0</ele><time>2026-05-03T09:28:13.273Z</time></trkpt><trkpt lat="44.0155017" lon="6.8042217"><ele>623.0</ele><time>2026-05-03T09:28:14.273Z</time></trkpt><trkpt lat="44.0156133" lon="6.8043883"><ele>624.3333333333333</ele><time>2026-05-03T09:28:15.273Z</time></trkpt><trkpt lat="44.015715" lon="6.8045517"><ele>625.6666666666666</ele><time>2026-05-03T09:28:16.273Z</time></trkpt><trkpt lat="44.015835" lon="6.8046817"><ele>627.0</ele><time>2026-05-03T09:28:17.273Z</time></trkpt><trkpt lat="44.0159717" lon="6.804795"><ele>627.0</ele><time>2026-05-03T09:28:18.274Z</time></trkpt><trkpt lat="44.0161017" lon="6.8048967"><ele>627.0</ele><time>2026-05-03T09:28:19.273Z</time></trkpt><trkpt lat="44.0162317" lon="6.8050083"><ele>627.0</ele><time>2026-05-03T09:28:20.273Z</time></trkpt><trkpt lat="44.01636" lon="6.805145"><ele>624.0</ele><time>2026-05-03T09:28:21.273Z</time></trkpt><trkpt lat="44.01648" lon="6.8052917"><ele>621.0</ele><time>2026-05-03T09:28:22.274Z</time></trkpt><trkpt lat="44.0165883" lon="6.805435"><ele>618.0</ele><time>2026-05-03T09:28:23.273Z</time></trkpt><trkpt lat="44.01668" lon="6.8055867"><ele>620.75</ele><time>2026-05-03T09:28:24.274Z</time></trkpt><trkpt lat="44.0167367" lon="6.80576"><ele>623.5</ele><time>2026-05-03T09:28:25.273Z</time></trkpt><trkpt lat="44.01677" lon="6.8059533"><ele>626.25</ele><time>2026-05-03T09:28:26.273Z</time></trkpt><trkpt lat="44.0168" lon="6.80615"><ele>629.0</ele><time>2026-05-03T09:28:27.273Z</time></trkpt><trkpt lat="44.01686" lon="6.80636"><ele>629.0</ele><time>2026-05-03T09:28:28.273Z</time></trkpt><trkpt lat="44.016935" lon="6.8065533"><ele>629.0</ele><time>2026-05-03T09:28:29.273Z</time></trkpt><trkpt lat="44.0170133" lon="6.8067367"><ele>629.0</ele><time>2026-05-03T09:28:30.273Z</time></trkpt><trkpt lat="44.01708" lon="6.8069267"><ele>627.5</ele><time>2026-05-03T09:28:31.273Z</time></trkpt><trkpt lat="44.0171383" lon="6.807105"><ele>626.0</ele><time>2026-05-03T09:28:32.273Z</time></trkpt><trkpt lat="44.0172083" lon="6.8072733"><ele>624.5</ele><time>2026-05-03T09:28:33.273Z</time></trkpt><trkpt lat="44.0173" lon="6.8074067"><ele>623.0</ele><time>2026-05-03T09:28:34.273Z</time></trkpt><trkpt lat="44.0174033" lon="6.8074967"><ele>624.75</ele><time>2026-05-03T09:28:35.273Z</time></trkpt><trkpt lat="44.01752" lon="6.8075567"><ele>626.5</ele><time>2026-05-03T09:28:36.273Z</time></trkpt><trkpt lat="44.0176317" lon="6.8076417"><ele>628.25</ele><time>2026-05-03T09:28:37.273Z</time></trkpt><trkpt lat="44.0177167" lon="6.8077333"><ele>630.0</ele><time>2026-05-03T09:28:38.273Z</time></trkpt><trkpt lat="44.0177817" lon="6.8078483"><ele>630.0</ele><time>2026-05-03T09:28:39.273Z</time></trkpt><trkpt lat="44.01784" lon="6.8079783"><ele>630.0</ele><time>2026-05-03T09:28:40.274Z</time></trkpt><trkpt lat="44.0178917" lon="6.808095"><ele>630.0</ele><time>2026-05-03T09:28:41.274Z</time></trkpt><trkpt lat="44.01795" lon="6.8082283"><ele>630.0</ele><time>2026-05-03T09:28:42.273Z</time></trkpt><trkpt lat="44.0179983" lon="6.8083267"><ele>630.0</ele><time>2026-05-03T09:28:43.273Z</time></trkpt><trkpt lat="44.0180633" lon="6.8084033"><ele>630.0</ele><time>2026-05-03T09:28:44.273Z</time></trkpt><trkpt lat="44.0181383" lon="6.8084583"><ele>630.0</ele><time>2026-05-03T09:28:45.273Z</time></trkpt><trkpt lat="44.0182283" lon="6.8084833"><ele>630.0</ele><time>2026-05-03T09:28:46.273Z</time></trkpt><trkpt lat="44.01833" lon="6.808495"><ele>630.0</ele><time>2026-05-03T09:28:47.274Z</time></trkpt><trkpt lat="44.0184333" lon="6.80846"><ele>630.0</ele><time>2026-05-03T09:28:48.273Z</time></trkpt><trkpt lat="44.018525" lon="6.8083967"><ele>633.75</ele><time>2026-05-03T09:28:49.273Z</time></trkpt><trkpt lat="44.0186183" lon="6.80829"><ele>637.5</ele><time>2026-05-03T09:28:50.273Z</time></trkpt><trkpt lat="44.0187167" lon="6.808185"><ele>641.25</ele><time>2026-05-03T09:28:51.273Z</time></trkpt><trkpt lat="44.0188417" lon="6.80812"><ele>645.0</ele><time>2026-05-03T09:28:52.273Z</time></trkpt><trkpt lat="44.0189783" lon="6.8080883"><ele>645.0</ele><time>2026-05-03T09:28:53.273Z</time></trkpt><trkpt lat="44.0191183" lon="6.8080733"><ele>645.0</ele><time>2026-05-03T09:28:54.273Z</time></trkpt><trkpt lat="44.0192617" lon="6.80811"><ele>645.0</ele><time>2026-05-03T09:28:55.273Z</time></trkpt><trkpt lat="44.0194033" lon="6.808155"><ele>645.0</ele><time>2026-05-03T09:28:56.273Z</time></trkpt><trkpt lat="44.019545" lon="6.8082117"><ele>643.75</ele><time>2026-05-03T09:28:57.274Z</time></trkpt><trkpt lat="44.0196717" lon="6.8082733"><ele>642.5</ele><time>2026-05-03T09:28:58.273Z</time></trkpt><trkpt lat="44.0198" lon="6.80836"><ele>641.25</ele><time>2026-05-03T09:28:59.273Z</time></trkpt><trkpt lat="44.0199183" lon="6.8084483"><ele>640.0</ele><time>2026-05-03T09:29:00.274Z</time></trkpt><trkpt lat="44.0200317" lon="6.8085317"><ele>637.75</ele><time>2026-05-03T09:29:01.273Z</time></trkpt><trkpt lat="44.0201583" lon="6.80859"><ele>635.5</ele><time>2026-05-03T09:29:02.274Z</time></trkpt><trkpt lat="44.0203017" lon="6.80861"><ele>633.25</ele><time>2026-05-03T09:29:03.273Z</time></trkpt><trkpt lat="44.02045" lon="6.8086217"><ele>631.0</ele><time>2026-05-03T09:29:04.274Z</time></trkpt><trkpt lat="44.02059" lon="6.80863"><ele>631.0</ele><time>2026-05-03T09:29:05.273Z</time></trkpt><trkpt lat="44.0207233" lon="6.8086333"><ele>631.0</ele><time>2026-05-03T09:29:06.273Z</time></trkpt><trkpt lat="44.020845" lon="6.808635"><ele>631.0</ele><time>2026-05-03T09:29:07.273Z</time></trkpt><trkpt lat="44.0209633" lon="6.80865"><ele>631.0</ele><time>2026-05-03T09:29:08.273Z</time></trkpt><trkpt lat="44.0210733" lon="6.8086933"><ele>632.5</ele><time>2026-05-03T09:29:09.273Z</time></trkpt><trkpt lat="44.0211733" lon="6.8087717"><ele>634.0</ele><time>2026-05-03T09:29:10.273Z</time></trkpt><trkpt lat="44.021275" lon="6.8088867"><ele>635.5</ele><time>2026-05-03T09:29:11.273Z</time></trkpt><trkpt lat="44.0213817" lon="6.8090067"><ele>637.0</ele><time>2026-05-03T09:29:12.274Z</time></trkpt><trkpt lat="44.0214867" lon="6.8091333"><ele>637.0</ele><time>2026-05-03T09:29:13.273Z</time></trkpt><trkpt lat="44.0215867" lon="6.8092517"><ele>637.0</ele><time>2026-05-03T09:29:14.273Z</time></trkpt><trkpt lat="44.0216883" lon="6.809355"><ele>637.0</ele><time>2026-05-03T09:29:15.273Z</time></trkpt><trkpt lat="44.0217767" lon="6.809465"><ele>637.0</ele><time>2026-05-03T09:29:16.273Z</time></trkpt><trkpt lat="44.0218533" lon="6.8095883"><ele>636.5</ele><time>2026-05-03T09:29:17.273Z</time></trkpt><trkpt lat="44.0218967" lon="6.8097283"><ele>636.0</ele><time>2026-05-03T09:29:18.273Z</time></trkpt><trkpt lat="44.0219117" lon="6.8098817"><ele>635.5</ele><time>2026-05-03T09:29:19.273Z</time></trkpt><trkpt lat="44.021925" lon="6.8100417"><ele>635.0</ele><time>2026-05-03T09:29:20.273Z</time></trkpt><trkpt lat="44.0219683" lon="6.8101867"><ele>635.0</ele><time>2026-05-03T09:29:21.273Z</time></trkpt><trkpt lat="44.0220483" lon="6.8103017"><ele>635.0</ele><time>2026-05-03T09:29:22.273Z</time></trkpt><trkpt lat="44.022155" lon="6.81039"><ele>635.0</ele><time>2026-05-03T09:29:23.273Z</time></trkpt><trkpt lat="44.022275" lon="6.8104083"><ele>635.0</ele><time>2026-05-03T09:29:24.274Z</time></trkpt><trkpt lat="44.0224083" lon="6.81042"><ele>638.5</ele><time>2026-05-03T09:29:25.273Z</time></trkpt><trkpt lat="44.022535" lon="6.810455"><ele>642.0</ele><time>2026-05-03T09:29:26.273Z</time></trkpt><trkpt lat="44.0226533" lon="6.810525"><ele>645.5</ele><time>2026-05-03T09:29:27.274Z</time></trkpt><trkpt lat="44.022775" lon="6.810625"><ele>649.0</ele><time>2026-05-03T09:29:28.273Z</time></trkpt><trkpt lat="44.0228883" lon="6.8107333"><ele>649.0</ele><time>2026-05-03T09:29:29.273Z</time></trkpt><trkpt lat="44.02301" lon="6.81082"><ele>649.0</ele><time>2026-05-03T09:29:30.273Z</time></trkpt><trkpt lat="44.02314" lon="6.8108983"><ele>649.0</ele><time>2026-05-03T09:29:31.273Z</time></trkpt><trkpt lat="44.0232783" lon="6.81097"><ele>649.0</ele><time>2026-05-03T09:29:32.273Z</time></trkpt><trkpt lat="44.0234183" lon="6.8110383"><ele>647.75</ele><time>2026-05-03T09:29:33.273Z</time></trkpt><trkpt lat="44.0235567" lon="6.8111117"><ele>646.5</ele><time>2026-05-03T09:29:34.273Z</time></trkpt><trkpt lat="44.0236967" lon="6.811175"><ele>645.25</ele><time>2026-05-03T09:29:35.273Z</time></trkpt><trkpt lat="44.0238283" lon="6.8112417"><ele>644.0</ele><time>2026-05-03T09:29:36.273Z</time></trkpt><trkpt lat="44.0239583" lon="6.8113217"><ele>644.0</ele><time>2026-05-03T09:29:37.273Z</time></trkpt><trkpt lat="44.0240917" lon="6.8114083"><ele>644.0</ele><time>2026-05-03T09:29:38.273Z</time></trkpt><trkpt lat="44.0242183" lon="6.8115067"><ele>644.0</ele><time>2026-05-03T09:29:39.274Z</time></trkpt><trkpt lat="44.0243533" lon="6.811615"><ele>644.0</ele><time>2026-05-03T09:29:40.273Z</time></trkpt><trkpt lat="44.02448" lon="6.8117233"><ele>644.5</ele><time>2026-05-03T09:29:41.273Z</time></trkpt><trkpt lat="44.024595" lon="6.8118333"><ele>645.0</ele><time>2026-05-03T09:29:42.273Z</time></trkpt><trkpt lat="44.0247167" lon="6.8119383"><ele>645.5</ele><time>2026-05-03T09:29:43.273Z</time></trkpt><trkpt lat="44.02485" lon="6.8120417"><ele>646.0</ele><time>2026-05-03T09:29:44.273Z</time></trkpt><trkpt lat="44.02497" lon="6.8121483"><ele>650.25</ele><time>2026-05-03T09:29:45.273Z</time></trkpt><trkpt lat="44.0250783" lon="6.8122517"><ele>654.5</ele><time>2026-05-03T09:29:46.273Z</time></trkpt><trkpt lat="44.0251783" lon="6.812345"><ele>658.75</ele><time>2026-05-03T09:29:47.273Z</time></trkpt><trkpt lat="44.0252733" lon="6.8124317"><ele>663.0</ele><time>2026-05-03T09:29:48.273Z</time></trkpt><trkpt lat="44.0253483" lon="6.81249"><ele>663.0</ele><time>2026-05-03T09:29:49.273Z</time></trkpt><trkpt lat="44.0254317" lon="6.8125583"><ele>663.0</ele><time>2026-05-03T09:29:50.273Z</time></trkpt><trkpt lat="44.0255233" lon="6.812615"><ele>663.0</ele><time>2026-05-03T09:29:51.273Z</time></trkpt><trkpt lat="44.0256267" lon="6.8126867"><ele>663.0</ele><time>2026-05-03T09:29:52.274Z</time></trkpt><trkpt lat="44.0257217" lon="6.812765"><ele>663.0</ele><time>2026-05-03T09:29:53.273Z</time></trkpt><trkpt lat="44.0258183" lon="6.8128383"><ele>662.4</ele><time>2026-05-03T09:29:54.273Z</time></trkpt><trkpt lat="44.0259183" lon="6.8129133"><ele>661.8</ele><time>2026-05-03T09:29:55.274Z</time></trkpt><trkpt lat="44.0260267" lon="6.8129833"><ele>661.2</ele><time>2026-05-03T09:29:56.273Z</time></trkpt><trkpt lat="44.0261183" lon="6.8130583"><ele>660.6</ele><time>2026-05-03T09:29:57.273Z</time></trkpt><trkpt lat="44.0262" lon="6.8131233"><ele>660.0</ele><time>2026-05-03T09:29:58.273Z</time></trkpt><trkpt lat="44.0262867" lon="6.8131833"><ele>660.0</ele><time>2026-05-03T09:29:59.273Z</time></trkpt><trkpt lat="44.0263617" lon="6.8132567"><ele>660.0</ele><time>2026-05-03T09:30:00.274Z</time></trkpt><trkpt lat="44.0264367" lon="6.8133367"><ele>660.0</ele><time>2026-05-03T09:30:01.274Z</time></trkpt><trkpt lat="44.02651" lon="6.8134233"><ele>660.0</ele><time>2026-05-03T09:30:02.273Z</time></trkpt><trkpt lat="44.0265817" lon="6.81352"><ele>660.0</ele><time>2026-05-03T09:30:03.274Z</time></trkpt><trkpt lat="44.0266567" lon="6.8136183"><ele>662.75</ele><time>2026-05-03T09:30:04.273Z</time></trkpt><trkpt lat="44.0267317" lon="6.8137217"><ele>665.5</ele><time>2026-05-03T09:30:05.273Z</time></trkpt><trkpt lat="44.0268133" lon="6.813835"><ele>668.25</ele><time>2026-05-03T09:30:06.273Z</time></trkpt><trkpt lat="44.0268983" lon="6.813955"><ele>671.0</ele><time>2026-05-03T09:30:07.273Z</time></trkpt><trkpt lat="44.0269767" lon="6.8140667"><ele>671.0</ele><time>2026-05-03T09:30:08.273Z</time></trkpt><trkpt lat="44.02705" lon="6.8141767"><ele>671.0</ele><time>2026-05-03T09:30:09.273Z</time></trkpt><trkpt lat="44.0271233" lon="6.8143"><ele>671.0</ele><time>2026-05-03T09:30:10.273Z</time></trkpt><trkpt lat="44.027185" lon="6.8144267"><ele>671.0</ele><time>2026-05-03T09:30:11.273Z</time></trkpt><trkpt lat="44.0272467" lon="6.814555"><ele>671.0</ele><time>2026-05-03T09:30:12.273Z</time></trkpt><trkpt lat="44.027305" lon="6.81471"><ele>671.25</ele><time>2026-05-03T09:30:13.273Z</time></trkpt><trkpt lat="44.0273567" lon="6.8148617"><ele>671.5</ele><time>2026-05-03T09:30:14.273Z</time></trkpt><trkpt lat="44.0274083" lon="6.815005"><ele>671.75</ele><time>2026-05-03T09:30:15.273Z</time></trkpt><trkpt lat="44.0274617" lon="6.8151617"><ele>672.0</ele><time>2026-05-03T09:30:16.273Z</time></trkpt><trkpt lat="44.0275167" lon="6.815315"><ele>672.0</ele><time>2026-05-03T09:30:17.273Z</time></trkpt><trkpt lat="44.0275733" lon="6.81547"><ele>672.0</ele><time>2026-05-03T09:30:18.273Z</time></trkpt><trkpt lat="44.0276333" lon="6.8156317"><ele>672.0</ele><time>2026-05-03T09:30:19.274Z</time></trkpt><trkpt lat="44.0277" lon="6.815785"><ele>672.0</ele><time>2026-05-03T09:30:20.273Z</time></trkpt><trkpt lat="44.0277683" lon="6.8159367"><ele>669.5</ele><time>2026-05-03T09:30:21.273Z</time></trkpt><trkpt lat="44.02783" lon="6.8161"><ele>667.0</ele><time>2026-05-03T09:30:22.273Z</time></trkpt><trkpt lat="44.027895" lon="6.8162667"><ele>664.5</ele><time>2026-05-03T09:30:23.273Z</time></trkpt><trkpt lat="44.0279667" lon="6.81644"><ele>662.0</ele><time>2026-05-03T09:30:24.273Z</time></trkpt><trkpt lat="44.0280367" lon="6.8166133"><ele>662.0</ele><time>2026-05-03T09:30:25.273Z</time></trkpt><trkpt lat="44.0281117" lon="6.8168033"><ele>662.0</ele><time>2026-05-03T09:30:26.273Z</time></trkpt><trkpt lat="44.0281883" lon="6.816965"><ele>662.0</ele><time>2026-05-03T09:30:27.273Z</time></trkpt><trkpt lat="44.028275" lon="6.817115"><ele>662.0</ele><time>2026-05-03T09:30:28.273Z</time></trkpt><trkpt lat="44.028365" lon="6.81727"><ele>664.5</ele><time>2026-05-03T09:30:29.273Z</time></trkpt><trkpt lat="44.02843" lon="6.8174333"><ele>667.0</ele><time>2026-05-03T09:30:30.273Z</time></trkpt><trkpt lat="44.028485" lon="6.8176117"><ele>669.5</ele><time>2026-05-03T09:30:31.274Z</time></trkpt><trkpt lat="44.0285367" lon="6.8177983"><ele>672.0</ele><time>2026-05-03T09:30:32.273Z</time></trkpt><trkpt lat="44.028585" lon="6.8179883"><ele>672.0</ele><time>2026-05-03T09:30:33.274Z</time></trkpt><trkpt lat="44.028615" lon="6.818165"><ele>672.0</ele><time>2026-05-03T09:30:34.273Z</time></trkpt><trkpt lat="44.0286433" lon="6.818355"><ele>672.0</ele><time>2026-05-03T09:30:35.273Z</time></trkpt><trkpt lat="44.02869" lon="6.81853"><ele>672.0</ele><time>2026-05-03T09:30:36.273Z</time></trkpt><trkpt lat="44.028755" lon="6.8187067"><ele>669.25</ele><time>2026-05-03T09:30:37.273Z</time></trkpt><trkpt lat="44.0288133" lon="6.8188767"><ele>666.5</ele><time>2026-05-03T09:30:38.273Z</time></trkpt><trkpt lat="44.02889" lon="6.8190183"><ele>663.75</ele><time>2026-05-03T09:30:39.273Z</time></trkpt><trkpt lat="44.02898" lon="6.8191467"><ele>661.0</ele><time>2026-05-03T09:30:40.273Z</time></trkpt><trkpt lat="44.0290733" lon="6.8192633"><ele>660.0</ele><time>2026-05-03T09:30:41.274Z</time></trkpt><trkpt lat="44.0291367" lon="6.81938"><ele>659.0</ele><time>2026-05-03T09:30:42.273Z</time></trkpt><trkpt lat="44.0291717" lon="6.8194783"><ele>658.0</ele><time>2026-05-03T09:30:43.273Z</time></trkpt><trkpt lat="44.0291767" lon="6.8195733"><ele>657.0</ele><time>2026-05-03T09:30:44.273Z</time></trkpt><trkpt lat="44.029165" lon="6.8196883"><ele>656.0</ele><time>2026-05-03T09:30:46.273Z</time></trkpt><trkpt lat="44.0291233" lon="6.8197783"><ele>655.0</ele><time>2026-05-03T09:41:20.272Z</time></trkpt><trkpt lat="44.0291967" lon="6.8198483"><ele>661.0</ele><time>2026-05-03T09:41:22.272Z</time></trkpt><trkpt lat="44.0292717" lon="6.8199317"><ele>667.0</ele><time>2026-05-03T09:41:24.272Z</time></trkpt><trkpt lat="44.0293283" lon="6.81999"><ele>673.0</ele><time>2026-05-03T09:41:26.272Z</time></trkpt><trkpt lat="44.02939" lon="6.820045"><ele>679.0</ele><time>2026-05-03T09:41:29.272Z</time></trkpt><trkpt lat="44.0294267" lon="6.8201583"><ele>685.0</ele><time>2026-05-03T09:41:31.273Z</time></trkpt><trkpt lat="44.0294383" lon="6.82034"><ele>685.0</ele><time>2026-05-03T09:41:33.272Z</time></trkpt><trkpt lat="44.0294317" lon="6.82045"><ele>685.0</ele><time>2026-05-03T09:41:34.272Z</time></trkpt><trkpt lat="44.0294233" lon="6.8205683"><ele>685.0</ele><time>2026-05-03T09:41:35.272Z</time></trkpt><trkpt lat="44.029405" lon="6.8206917"><ele>685.0</ele><time>2026-05-03T09:41:36.272Z</time></trkpt><trkpt lat="44.0294083" lon="6.8208383"><ele>685.0</ele><time>2026-05-03T09:41:37.272Z</time></trkpt><trkpt lat="44.0294283" lon="6.82099"><ele>682.6</ele><time>2026-05-03T09:41:38.272Z</time></trkpt><trkpt lat="44.0294617" lon="6.821135"><ele>680.2</ele><time>2026-05-03T09:41:39.272Z</time></trkpt><trkpt lat="44.0295017" lon="6.8212867"><ele>677.8</ele><time>2026-05-03T09:41:40.272Z</time></trkpt><trkpt lat="44.0295517" lon="6.8214117"><ele>675.4</ele><time>2026-05-03T09:41:41.272Z</time></trkpt><trkpt lat="44.0295967" lon="6.8215183"><ele>673.0</ele><time>2026-05-03T09:41:42.272Z</time></trkpt><trkpt lat="44.0296583" lon="6.8216083"><ele>673.0</ele><time>2026-05-03T09:41:43.272Z</time></trkpt><trkpt lat="44.029735" lon="6.8216833"><ele>673.0</ele><time>2026-05-03T09:41:44.272Z</time></trkpt><trkpt lat="44.029835" lon="6.8217467"><ele>673.0</ele><time>2026-05-03T09:41:45.272Z</time></trkpt><trkpt lat="44.0299383" lon="6.821825"><ele>673.0</ele><time>2026-05-03T09:41:46.272Z</time></trkpt><trkpt lat="44.0300333" lon="6.821925"><ele>673.0</ele><time>2026-05-03T09:41:47.272Z</time></trkpt><trkpt lat="44.03012" lon="6.82204"><ele>677.0</ele><time>2026-05-03T09:41:48.273Z</time></trkpt><trkpt lat="44.0302067" lon="6.82216"><ele>681.0</ele><time>2026-05-03T09:41:49.272Z</time></trkpt><trkpt lat="44.03029" lon="6.8222783"><ele>685.0</ele><time>2026-05-03T09:41:50.272Z</time></trkpt><trkpt lat="44.0303717" lon="6.82241"><ele>689.0</ele><time>2026-05-03T09:41:51.272Z</time></trkpt><trkpt lat="44.0304383" lon="6.82256"><ele>682.75</ele><time>2026-05-03T09:41:52.272Z</time></trkpt><trkpt lat="44.0304917" lon="6.822715"><ele>676.5</ele><time>2026-05-03T09:41:53.272Z</time></trkpt><trkpt lat="44.0305567" lon="6.8228683"><ele>670.25</ele><time>2026-05-03T09:41:54.273Z</time></trkpt><trkpt lat="44.03064" lon="6.8230133"><ele>664.0</ele><time>2026-05-03T09:41:55.272Z</time></trkpt><trkpt lat="44.0307367" lon="6.8231533"><ele>670.75</ele><time>2026-05-03T09:41:56.272Z</time></trkpt><trkpt lat="44.0308383" lon="6.823295"><ele>677.5</ele><time>2026-05-03T09:41:57.272Z</time></trkpt><trkpt lat="44.0309383" lon="6.82343"><ele>684.25</ele><time>2026-05-03T09:41:58.272Z</time></trkpt><trkpt lat="44.0310283" lon="6.8235583"><ele>691.0</ele><time>2026-05-03T09:41:59.272Z</time></trkpt><trkpt lat="44.0311083" lon="6.8236783"><ele>691.0</ele><time>2026-05-03T09:42:00.273Z</time></trkpt><trkpt lat="44.031195" lon="6.823795"><ele>691.0</ele><time>2026-05-03T09:42:01.273Z</time></trkpt><trkpt lat="44.0312767" lon="6.8239183"><ele>691.0</ele><time>2026-05-03T09:42:02.272Z</time></trkpt><trkpt lat="44.0313383" lon="6.82407"><ele>691.0</ele><time>2026-05-03T09:42:03.272Z</time></trkpt><trkpt lat="44.0313667" lon="6.8242333"><ele>686.75</ele><time>2026-05-03T09:42:04.272Z</time></trkpt><trkpt lat="44.0313983" lon="6.8244033"><ele>682.5</ele><time>2026-05-03T09:42:05.272Z</time></trkpt><trkpt lat="44.0314267" lon="6.8245633"><ele>678.25</ele><time>2026-05-03T09:42:06.272Z</time></trkpt><trkpt lat="44.0314517" lon="6.82472"><ele>674.0</ele><time>2026-05-03T09:42:07.272Z</time></trkpt><trkpt lat="44.0314967" lon="6.8248633"><ele>674.0</ele><time>2026-05-03T09:42:08.273Z</time></trkpt><trkpt lat="44.031575" lon="6.8249867"><ele>674.0</ele><time>2026-05-03T09:42:09.273Z</time></trkpt><trkpt lat="44.0316583" lon="6.8251033"><ele>674.0</ele><time>2026-05-03T09:42:10.272Z</time></trkpt><trkpt lat="44.03173" lon="6.825225"><ele>674.0</ele><time>2026-05-03T09:42:11.272Z</time></trkpt><trkpt lat="44.0317917" lon="6.8253567"><ele>677.4000000000001</ele><time>2026-05-03T09:42:12.272Z</time></trkpt><trkpt lat="44.031845" lon="6.8254783"><ele>680.8</ele><time>2026-05-03T09:42:13.272Z</time></trkpt><trkpt lat="44.0319033" lon="6.8255733"><ele>684.2</ele><time>2026-05-03T09:42:14.272Z</time></trkpt><trkpt lat="44.0319833" lon="6.8256383"><ele>687.5999999999999</ele><time>2026-05-03T09:42:15.272Z</time></trkpt><trkpt lat="44.0320783" lon="6.8256733"><ele>691.0</ele><time>2026-05-03T09:42:16.273Z</time></trkpt><trkpt lat="44.0321683" lon="6.8256867"><ele>691.0</ele><time>2026-05-03T09:42:17.272Z</time></trkpt><trkpt lat="44.0322717" lon="6.8256617"><ele>691.0</ele><time>2026-05-03T09:42:18.272Z</time></trkpt><trkpt lat="44.0323883" lon="6.8256033"><ele>691.0</ele><time>2026-05-03T09:42:19.272Z</time></trkpt><trkpt lat="44.03251" lon="6.8255867"><ele>691.0</ele><time>2026-05-03T09:42:20.272Z</time></trkpt><trkpt lat="44.032635" lon="6.8256083"><ele>694.25</ele><time>2026-05-03T09:42:21.272Z</time></trkpt><trkpt lat="44.032765" lon="6.825665"><ele>697.5</ele><time>2026-05-03T09:42:22.272Z</time></trkpt><trkpt lat="44.0328867" lon="6.8257267"><ele>700.75</ele><time>2026-05-03T09:42:23.272Z</time></trkpt><trkpt lat="44.0330117" lon="6.825805"><ele>704.0</ele><time>2026-05-03T09:42:24.272Z</time></trkpt><trkpt lat="44.033135" lon="6.8258833"><ele>704.0</ele><time>2026-05-03T09:42:25.272Z</time></trkpt><trkpt lat="44.0332633" lon="6.8259733"><ele>704.0</ele><time>2026-05-03T09:42:26.273Z</time></trkpt><trkpt lat="44.0333833" lon="6.82606"><ele>704.0</ele><time>2026-05-03T09:42:27.273Z</time></trkpt><trkpt lat="44.0335117" lon="6.8261283"><ele>704.0</ele><time>2026-05-03T09:42:28.273Z</time></trkpt><trkpt lat="44.0336433" lon="6.8261917"><ele>705.75</ele><time>2026-05-03T09:42:29.272Z</time></trkpt><trkpt lat="44.0337767" lon="6.82624"><ele>707.5</ele><time>2026-05-03T09:42:30.272Z</time></trkpt><trkpt lat="44.0339033" lon="6.8263117"><ele>709.25</ele><time>2026-05-03T09:42:31.272Z</time></trkpt><trkpt lat="44.0340133" lon="6.8264183"><ele>711.0</ele><time>2026-05-03T09:42:32.272Z</time></trkpt><trkpt lat="44.0341033" lon="6.826565"><ele>710.75</ele><time>2026-05-03T09:42:33.272Z</time></trkpt><trkpt lat="44.0341833" lon="6.8266983"><ele>710.5</ele><time>2026-05-03T09:42:34.272Z</time></trkpt><trkpt lat="44.0342783" lon="6.826805"><ele>710.25</ele><time>2026-05-03T09:42:35.272Z</time></trkpt><trkpt lat="44.0343967" lon="6.8268733"><ele>710.0</ele><time>2026-05-03T09:42:36.272Z</time></trkpt><trkpt lat="44.0345167" lon="6.8269183"><ele>710.0</ele><time>2026-05-03T09:42:37.272Z</time></trkpt><trkpt lat="44.0346517" lon="6.82694"><ele>710.0</ele><time>2026-05-03T09:42:38.272Z</time></trkpt><trkpt lat="44.03479" lon="6.8269533"><ele>710.0</ele><time>2026-05-03T09:42:39.272Z</time></trkpt><trkpt lat="44.0349217" lon="6.82695"><ele>710.0</ele><time>2026-05-03T09:42:40.272Z</time></trkpt><trkpt lat="44.0350617" lon="6.8269467"><ele>715.25</ele><time>2026-05-03T09:42:41.273Z</time></trkpt><trkpt lat="44.0351833" lon="6.82699"><ele>720.5</ele><time>2026-05-03T09:42:42.272Z</time></trkpt><trkpt lat="44.0352833" lon="6.82709"><ele>725.75</ele><time>2026-05-03T09:42:43.272Z</time></trkpt><trkpt lat="44.0353683" lon="6.8272383"><ele>731.0</ele><time>2026-05-03T09:42:44.272Z</time></trkpt><trkpt lat="44.0354233" lon="6.8273967"><ele>731.0</ele><time>2026-05-03T09:42:45.272Z</time></trkpt><trkpt lat="44.0354667" lon="6.8275583"><ele>731.0</ele><time>2026-05-03T09:42:46.272Z</time></trkpt><trkpt lat="44.0355267" lon="6.82772"><ele>731.0</ele><time>2026-05-03T09:42:47.272Z</time></trkpt><trkpt lat="44.0356033" lon="6.827845"><ele>731.0</ele><time>2026-05-03T09:42:48.273Z</time></trkpt><trkpt lat="44.0357133" lon="6.8279517"><ele>731.5</ele><time>2026-05-03T09:42:49.272Z</time></trkpt><trkpt lat="44.0358383" lon="6.8280367"><ele>732.0</ele><time>2026-05-03T09:42:50.272Z</time></trkpt><trkpt lat="44.035965" lon="6.828125"><ele>732.5</ele><time>2026-05-03T09:42:51.272Z</time></trkpt><trkpt lat="44.0361017" lon="6.82822"><ele>733.0</ele><time>2026-05-03T09:42:52.273Z</time></trkpt><trkpt lat="44.0362383" lon="6.8283083"><ele>733.0</ele><time>2026-05-03T09:42:53.272Z</time></trkpt><trkpt lat="44.0363767" lon="6.8283867"><ele>733.0</ele><time>2026-05-03T09:42:54.272Z</time></trkpt><trkpt lat="44.0365217" lon="6.8284567"><ele>733.0</ele><time>2026-05-03T09:42:55.272Z</time></trkpt><trkpt lat="44.0366667" lon="6.82852"><ele>732.25</ele><time>2026-05-03T09:42:56.272Z</time></trkpt><trkpt lat="44.0368183" lon="6.8285717"><ele>731.5</ele><time>2026-05-03T09:42:57.273Z</time></trkpt><trkpt lat="44.036955" lon="6.8286267"><ele>730.75</ele><time>2026-05-03T09:42:58.272Z</time></trkpt><trkpt lat="44.0370833" lon="6.8286783"><ele>730.0</ele><time>2026-05-03T09:42:59.272Z</time></trkpt><trkpt lat="44.0371917" lon="6.8287383"><ele>730.0</ele><time>2026-05-03T09:43:00.272Z</time></trkpt><trkpt lat="44.0372717" lon="6.8288383"><ele>730.0</ele><time>2026-05-03T09:43:01.272Z</time></trkpt><trkpt lat="44.0373417" lon="6.828965"><ele>730.0</ele><time>2026-05-03T09:43:02.273Z</time></trkpt><trkpt lat="44.03739" lon="6.8291133"><ele>730.0</ele><time>2026-05-03T09:43:03.272Z</time></trkpt><trkpt lat="44.03743" lon="6.8292883"><ele>735.25</ele><time>2026-05-03T09:43:04.272Z</time></trkpt><trkpt lat="44.037475" lon="6.8294867"><ele>740.5</ele><time>2026-05-03T09:43:05.273Z</time></trkpt><trkpt lat="44.0375183" lon="6.8296867"><ele>745.75</ele><time>2026-05-03T09:43:06.273Z</time></trkpt><trkpt lat="44.0375683" lon="6.8298717"><ele>751.0</ele><time>2026-05-03T09:43:07.273Z</time></trkpt><trkpt lat="44.037615" lon="6.8300533"><ele>747.5</ele><time>2026-05-03T09:43:08.273Z</time></trkpt><trkpt lat="44.03766" lon="6.8302383"><ele>744.0</ele><time>2026-05-03T09:43:09.272Z</time></trkpt><trkpt lat="44.0376967" lon="6.8304133"><ele>740.5</ele><time>2026-05-03T09:43:10.272Z</time></trkpt><trkpt lat="44.0377383" lon="6.83056"><ele>737.0</ele><time>2026-05-03T09:43:11.272Z</time></trkpt><trkpt lat="44.0378033" lon="6.8306967"><ele>737.0</ele><time>2026-05-03T09:43:12.272Z</time></trkpt><trkpt lat="44.0378883" lon="6.8308033"><ele>737.0</ele><time>2026-05-03T09:43:13.272Z</time></trkpt><trkpt lat="44.0380067" lon="6.8308683"><ele>737.0</ele><time>2026-05-03T09:43:14.272Z</time></trkpt><trkpt lat="44.0381417" lon="6.8308833"><ele>737.0</ele><time>2026-05-03T09:43:15.272Z</time></trkpt><trkpt lat="44.0382733" lon="6.8309067"><ele>740.25</ele><time>2026-05-03T09:43:16.272Z</time></trkpt><trkpt lat="44.0383883" lon="6.8309717"><ele>743.5</ele><time>2026-05-03T09:43:17.272Z</time></trkpt><trkpt lat="44.038495" lon="6.83108"><ele>746.75</ele><time>2026-05-03T09:43:18.272Z</time></trkpt><trkpt lat="44.038585" lon="6.83123"><ele>750.0</ele><time>2026-05-03T09:43:19.273Z</time></trkpt><trkpt lat="44.0386517" lon="6.8314"><ele>750.0</ele><time>2026-05-03T09:43:20.272Z</time></trkpt><trkpt lat="44.0386967" lon="6.8315817"><ele>750.0</ele><time>2026-05-03T09:43:21.272Z</time></trkpt><trkpt lat="44.0387583" lon="6.8317633"><ele>750.0</ele><time>2026-05-03T09:43:22.272Z</time></trkpt><trkpt lat="44.03882" lon="6.8319417"><ele>750.0</ele><time>2026-05-03T09:43:23.272Z</time></trkpt><trkpt lat="44.0388683" lon="6.8321167"><ele>746.75</ele><time>2026-05-03T09:43:24.272Z</time></trkpt><trkpt lat="44.0389133" lon="6.8323"><ele>743.5</ele><time>2026-05-03T09:43:25.272Z</time></trkpt><trkpt lat="44.0389667" lon="6.8324833"><ele>740.25</ele><time>2026-05-03T09:43:26.272Z</time></trkpt><trkpt lat="44.039025" lon="6.8326633"><ele>737.0</ele><time>2026-05-03T09:43:27.272Z</time></trkpt><trkpt lat="44.03907" lon="6.832835"><ele>735.5</ele><time>2026-05-03T09:43:28.272Z</time></trkpt><trkpt lat="44.039115" lon="6.833015"><ele>734.0</ele><time>2026-05-03T09:43:29.272Z</time></trkpt><trkpt lat="44.0391433" lon="6.8331983"><ele>732.5</ele><time>2026-05-03T09:43:30.272Z</time></trkpt><trkpt lat="44.0391633" lon="6.8333783"><ele>731.0</ele><time>2026-05-03T09:43:31.273Z</time></trkpt><trkpt lat="44.03918" lon="6.83356"><ele>730.25</ele><time>2026-05-03T09:43:32.272Z</time></trkpt><trkpt lat="44.0391867" lon="6.833735"><ele>729.5</ele><time>2026-05-03T09:43:33.272Z</time></trkpt><trkpt lat="44.0391633" lon="6.8339067"><ele>728.75</ele><time>2026-05-03T09:43:34.272Z</time></trkpt><trkpt lat="44.0391183" lon="6.83406"><ele>728.0</ele><time>2026-05-03T09:43:35.272Z</time></trkpt><trkpt lat="44.039055" lon="6.8341917"><ele>729.25</ele><time>2026-05-03T09:43:36.272Z</time></trkpt><trkpt lat="44.0389967" lon="6.8343183"><ele>730.5</ele><time>2026-05-03T09:43:37.273Z</time></trkpt><trkpt lat="44.0389617" lon="6.83447"><ele>731.75</ele><time>2026-05-03T09:43:38.272Z</time></trkpt><trkpt lat="44.0389433" lon="6.834635"><ele>733.0</ele><time>2026-05-03T09:43:39.272Z</time></trkpt><trkpt lat="44.0389617" lon="6.8348067"><ele>733.0</ele><time>2026-05-03T09:43:40.272Z</time></trkpt><trkpt lat="44.0390083" lon="6.83497"><ele>733.0</ele><time>2026-05-03T09:43:41.272Z</time></trkpt><trkpt lat="44.0390733" lon="6.8351167"><ele>733.0</ele><time>2026-05-03T09:43:42.273Z</time></trkpt><trkpt lat="44.0391567" lon="6.8352417"><ele>733.0</ele><time>2026-05-03T09:43:43.272Z</time></trkpt><trkpt lat="44.0392417" lon="6.83533"><ele>736.8</ele><time>2026-05-03T09:43:44.272Z</time></trkpt><trkpt lat="44.03934" lon="6.8353917"><ele>740.5999999999999</ele><time>2026-05-03T09:43:45.272Z</time></trkpt><trkpt lat="44.03945" lon="6.8354183"><ele>744.4000000000001</ele><time>2026-05-03T09:43:46.272Z</time></trkpt><trkpt lat="44.0395483" lon="6.8353983"><ele>748.2</ele><time>2026-05-03T09:43:47.272Z</time></trkpt><trkpt lat="44.0396433" lon="6.83534"><ele>752.0</ele><time>2026-05-03T09:43:48.272Z</time></trkpt><trkpt lat="44.0397383" lon="6.8352383"><ele>756.25</ele><time>2026-05-03T09:43:49.272Z</time></trkpt><trkpt lat="44.039825" lon="6.8351133"><ele>760.5</ele><time>2026-05-03T09:43:50.272Z</time></trkpt><trkpt lat="44.0399217" lon="6.8349833"><ele>764.75</ele><time>2026-05-03T09:43:51.272Z</time></trkpt><trkpt lat="44.0400233" lon="6.834865"><ele>769.0</ele><time>2026-05-03T09:43:52.272Z</time></trkpt><trkpt lat="44.040135" lon="6.8347467"><ele>769.0</ele><time>2026-05-03T09:43:53.272Z</time></trkpt><trkpt lat="44.0402467" lon="6.8346033"><ele>769.0</ele><time>2026-05-03T09:43:54.272Z</time></trkpt><trkpt lat="44.0403433" lon="6.8344617"><ele>769.0</ele><time>2026-05-03T09:43:55.272Z</time></trkpt><trkpt lat="44.040425" lon="6.8343233"><ele>769.0</ele><time>2026-05-03T09:43:56.272Z</time></trkpt><trkpt lat="44.04048" lon="6.8341667"><ele>774.75</ele><time>2026-05-03T09:43:57.273Z</time></trkpt><trkpt lat="44.0405017" lon="6.834005"><ele>780.5</ele><time>2026-05-03T09:43:58.272Z</time></trkpt><trkpt lat="44.040515" lon="6.8338333"><ele>786.25</ele><time>2026-05-03T09:43:59.272Z</time></trkpt><trkpt lat="44.0405383" lon="6.83365"><ele>792.0</ele><time>2026-05-03T09:44:00.272Z</time></trkpt><trkpt lat="44.04057" lon="6.8334633"><ele>794.75</ele><time>2026-05-03T09:44:01.272Z</time></trkpt><trkpt lat="44.0406133" lon="6.83329"><ele>797.5</ele><time>2026-05-03T09:44:02.273Z</time></trkpt><trkpt lat="44.0406717" lon="6.8331217"><ele>800.25</ele><time>2026-05-03T09:44:03.272Z</time></trkpt><trkpt lat="44.0407383" lon="6.8329683"><ele>803.0</ele><time>2026-05-03T09:44:04.272Z</time></trkpt><trkpt lat="44.0408283" lon="6.832825"><ele>802.25</ele><time>2026-05-03T09:44:05.272Z</time></trkpt><trkpt lat="44.0409333" lon="6.832685"><ele>801.5</ele><time>2026-05-03T09:44:06.272Z</time></trkpt><trkpt lat="44.04104" lon="6.8325567"><ele>800.75</ele><time>2026-05-03T09:44:07.272Z</time></trkpt><trkpt lat="44.0411417" lon="6.8324383"><ele>800.0</ele><time>2026-05-03T09:44:08.272Z</time></trkpt><trkpt lat="44.0412433" lon="6.83232"><ele>800.0</ele><time>2026-05-03T09:44:09.272Z</time></trkpt><trkpt lat="44.041335" lon="6.8321867"><ele>800.0</ele><time>2026-05-03T09:44:10.272Z</time></trkpt><trkpt lat="44.0414117" lon="6.83206"><ele>800.0</ele><time>2026-05-03T09:44:11.272Z</time></trkpt><trkpt lat="44.0414817" lon="6.831925"><ele>800.0</ele><time>2026-05-03T09:44:12.272Z</time></trkpt><trkpt lat="44.04155" lon="6.831805"><ele>800.4</ele><time>2026-05-03T09:44:13.272Z</time></trkpt><trkpt lat="44.0416367" lon="6.8317017"><ele>800.8</ele><time>2026-05-03T09:44:14.272Z</time></trkpt><trkpt lat="44.0417317" lon="6.8316233"><ele>801.2</ele><time>2026-05-03T09:44:15.272Z</time></trkpt><trkpt lat="44.041835" lon="6.8315817"><ele>801.6</ele><time>2026-05-03T09:44:16.272Z</time></trkpt><trkpt lat="44.04193" lon="6.83159"><ele>802.0</ele><time>2026-05-03T09:44:17.273Z</time></trkpt><trkpt lat="44.042015" lon="6.8316517"><ele>802.0</ele><time>2026-05-03T09:44:18.272Z</time></trkpt><trkpt lat="44.0420867" lon="6.8317583"><ele>802.0</ele><time>2026-05-03T09:44:19.272Z</time></trkpt><trkpt lat="44.0421317" lon="6.8318917"><ele>802.0</ele><time>2026-05-03T09:44:20.272Z</time></trkpt><trkpt lat="44.042145" lon="6.8320517"><ele>802.0</ele><time>2026-05-03T09:44:21.272Z</time></trkpt><trkpt lat="44.0421467" lon="6.8322283"><ele>796.25</ele><time>2026-05-03T09:44:22.272Z</time></trkpt><trkpt lat="44.0421517" lon="6.8324067"><ele>790.5</ele><time>2026-05-03T09:44:23.272Z</time></trkpt><trkpt lat="44.04216" lon="6.8325717"><ele>784.75</ele><time>2026-05-03T09:44:24.272Z</time></trkpt><trkpt lat="44.0421483" lon="6.8327317"><ele>779.0</ele><time>2026-05-03T09:44:25.272Z</time></trkpt><trkpt lat="44.0421133" lon="6.8328717"><ele>779.0</ele><time>2026-05-03T09:44:26.272Z</time></trkpt><trkpt lat="44.04206" lon="6.8330267"><ele>779.0</ele><time>2026-05-03T09:44:27.272Z</time></trkpt><trkpt lat="44.0419917" lon="6.8331833"><ele>779.0</ele><time>2026-05-03T09:44:28.272Z</time></trkpt><trkpt lat="44.04193" lon="6.83334"><ele>779.0</ele><time>2026-05-03T09:44:29.273Z</time></trkpt><trkpt lat="44.0418683" lon="6.8334917"><ele>781.75</ele><time>2026-05-03T09:44:30.272Z</time></trkpt><trkpt lat="44.0418117" lon="6.8336583"><ele>784.5</ele><time>2026-05-03T09:44:31.272Z</time></trkpt><trkpt lat="44.0417633" lon="6.8338033"><ele>787.25</ele><time>2026-05-03T09:44:32.272Z</time></trkpt><trkpt lat="44.04173" lon="6.833965"><ele>790.0</ele><time>2026-05-03T09:44:33.272Z</time></trkpt><trkpt lat="44.0417283" lon="6.8341333"><ele>790.0</ele><time>2026-05-03T09:44:34.273Z</time></trkpt><trkpt lat="44.0417683" lon="6.8342917"><ele>790.0</ele><time>2026-05-03T09:44:35.272Z</time></trkpt><trkpt lat="44.041825" lon="6.83444"><ele>790.0</ele><time>2026-05-03T09:44:36.272Z</time></trkpt><trkpt lat="44.041865" lon="6.8345817"><ele>790.0</ele><time>2026-05-03T09:44:37.272Z</time></trkpt><trkpt lat="44.04188" lon="6.834725"><ele>791.4</ele><time>2026-05-03T09:44:38.272Z</time></trkpt><trkpt lat="44.04186" lon="6.8348517"><ele>792.8</ele><time>2026-05-03T09:44:39.272Z</time></trkpt><trkpt lat="44.0417967" lon="6.83497"><ele>794.2</ele><time>2026-05-03T09:44:40.272Z</time></trkpt><trkpt lat="44.041715" lon="6.83507"><ele>795.6</ele><time>2026-05-03T09:44:41.272Z</time></trkpt><trkpt lat="44.041605" lon="6.8351517"><ele>797.0</ele><time>2026-05-03T09:44:42.272Z</time></trkpt><trkpt lat="44.0415067" lon="6.835255"><ele>791.75</ele><time>2026-05-03T09:44:43.272Z</time></trkpt><trkpt lat="44.04142" lon="6.8353817"><ele>786.5</ele><time>2026-05-03T09:44:44.272Z</time></trkpt><trkpt lat="44.0413633" lon="6.8355167"><ele>781.25</ele><time>2026-05-03T09:44:45.272Z</time></trkpt><trkpt lat="44.0413233" lon="6.8356717"><ele>776.0</ele><time>2026-05-03T09:44:46.272Z</time></trkpt><trkpt lat="44.0413083" lon="6.83583"><ele>782.0</ele><time>2026-05-03T09:44:47.273Z</time></trkpt><trkpt lat="44.041295" lon="6.8359867"><ele>788.0</ele><time>2026-05-03T09:44:48.272Z</time></trkpt><trkpt lat="44.041255" lon="6.83613"><ele>794.0</ele><time>2026-05-03T09:44:49.272Z</time></trkpt><trkpt lat="44.041185" lon="6.83624"><ele>800.0</ele><time>2026-05-03T09:44:50.272Z</time></trkpt><trkpt lat="44.0411017" lon="6.8363433"><ele>806.0</ele><time>2026-05-03T09:44:51.272Z</time></trkpt><trkpt lat="44.041015" lon="6.836425"><ele>806.0</ele><time>2026-05-03T09:44:52.272Z</time></trkpt><trkpt lat="44.0409217" lon="6.8365117"><ele>806.0</ele><time>2026-05-03T09:44:53.273Z</time></trkpt><trkpt lat="44.0408233" lon="6.8366033"><ele>806.0</ele><time>2026-05-03T09:44:54.272Z</time></trkpt><trkpt lat="44.0407267" lon="6.836685"><ele>806.0</ele><time>2026-05-03T09:44:55.272Z</time></trkpt><trkpt lat="44.0406317" lon="6.8367767"><ele>800.75</ele><time>2026-05-03T09:44:56.272Z</time></trkpt><trkpt lat="44.04054" lon="6.836875"><ele>795.5</ele><time>2026-05-03T09:44:57.272Z</time></trkpt><trkpt lat="44.0404483" lon="6.8369817"><ele>790.25</ele><time>2026-05-03T09:44:58.273Z</time></trkpt><trkpt lat="44.04036" lon="6.837105"><ele>785.0</ele><time>2026-05-03T09:44:59.272Z</time></trkpt><trkpt lat="44.0402933" lon="6.8372333"><ele>785.0</ele><time>2026-05-03T09:45:00.272Z</time></trkpt><trkpt lat="44.0402433" lon="6.83737"><ele>785.0</ele><time>2026-05-03T09:45:01.272Z</time></trkpt><trkpt lat="44.0402383" lon="6.8375233"><ele>785.0</ele><time>2026-05-03T09:45:02.272Z</time></trkpt><trkpt lat="44.040265" lon="6.8376567"><ele>785.0</ele><time>2026-05-03T09:45:03.272Z</time></trkpt><trkpt lat="44.0403217" lon="6.8377617"><ele>785.0</ele><time>2026-05-03T09:45:04.272Z</time></trkpt><trkpt lat="44.0403933" lon="6.8378633"><ele>777.6</ele><time>2026-05-03T09:45:05.272Z</time></trkpt><trkpt lat="44.0404767" lon="6.8379483"><ele>770.2</ele><time>2026-05-03T09:45:06.272Z</time></trkpt><trkpt lat="44.040565" lon="6.8380333"><ele>762.8</ele><time>2026-05-03T09:45:07.272Z</time></trkpt><trkpt lat="44.0406383" lon="6.838125"><ele>755.4</ele><time>2026-05-03T09:45:08.273Z</time></trkpt><trkpt lat="44.0407217" lon="6.83823"><ele>748.0</ele><time>2026-05-03T09:45:09.272Z</time></trkpt><trkpt lat="44.04079" lon="6.8383433"><ele>755.5999999999999</ele><time>2026-05-03T09:45:10.272Z</time></trkpt><trkpt lat="44.0408483" lon="6.838455"><ele>763.1999999999999</ele><time>2026-05-03T09:45:11.272Z</time></trkpt><trkpt lat="44.0409033" lon="6.8385567"><ele>770.8</ele><time>2026-05-03T09:45:12.272Z</time></trkpt><trkpt lat="44.0410017" lon="6.83861"><ele>778.4</ele><time>2026-05-03T09:45:13.273Z</time></trkpt><trkpt lat="44.0411067" lon="6.8386533"><ele>786.0</ele><time>2026-05-03T09:45:14.272Z</time></trkpt><trkpt lat="44.0412217" lon="6.8386717"><ele>786.0</ele><time>2026-05-03T09:45:15.273Z</time></trkpt><trkpt lat="44.0413317" lon="6.8387167"><ele>786.0</ele><time>2026-05-03T09:45:16.272Z</time></trkpt><trkpt lat="44.0414267" lon="6.8387867"><ele>786.0</ele><time>2026-05-03T09:45:17.273Z</time></trkpt><trkpt lat="44.0414983" lon="6.83889"><ele>786.0</ele><time>2026-05-03T09:45:18.272Z</time></trkpt><trkpt lat="44.0415567" lon="6.8390083"><ele>786.0</ele><time>2026-05-03T09:45:19.272Z</time></trkpt><trkpt lat="44.0415883" lon="6.839145"><ele>786.0</ele><time>2026-05-03T09:45:20.273Z</time></trkpt><trkpt lat="44.04163" lon="6.8392733"><ele>786.0</ele><time>2026-05-03T09:45:21.272Z</time></trkpt><trkpt lat="44.0416883" lon="6.8393867"><ele>786.0</ele><time>2026-05-03T09:45:22.272Z</time></trkpt><trkpt lat="44.04175" lon="6.8395033"><ele>786.0</ele><time>2026-05-03T09:45:23.272Z</time></trkpt><trkpt lat="44.041815" lon="6.8396233"><ele>786.0</ele><time>2026-05-03T09:45:24.272Z</time></trkpt><trkpt lat="44.0418883" lon="6.8397483"><ele>791.0</ele><time>2026-05-03T09:45:25.272Z</time></trkpt><trkpt lat="44.04197" lon="6.8398817"><ele>796.0</ele><time>2026-05-03T09:45:26.272Z</time></trkpt><trkpt lat="44.0420383" lon="6.8400017"><ele>801.0</ele><time>2026-05-03T09:45:27.272Z</time></trkpt><trkpt lat="44.04211" lon="6.8401217"><ele>806.0</ele><time>2026-05-03T09:45:28.272Z</time></trkpt><trkpt lat="44.0421817" lon="6.840245"><ele>802.0</ele><time>2026-05-03T09:45:29.272Z</time></trkpt><trkpt lat="44.0422517" lon="6.84037"><ele>798.0</ele><time>2026-05-03T09:45:30.272Z</time></trkpt><trkpt lat="44.0423467" lon="6.84051"><ele>794.0</ele><time>2026-05-03T09:45:31.272Z</time></trkpt><trkpt lat="44.042445" lon="6.8406433"><ele>790.0</ele><time>2026-05-03T09:45:32.273Z</time></trkpt><trkpt lat="44.0425583" lon="6.840745"><ele>790.0</ele><time>2026-05-03T09:45:33.272Z</time></trkpt><trkpt lat="44.0429017" lon="6.84048"><ele>790.0</ele><time>2026-05-03T09:45:34.272Z</time></trkpt><trkpt lat="44.0430067" lon="6.8404883"><ele>790.0</ele><time>2026-05-03T09:45:35.272Z</time></trkpt><trkpt lat="44.04313" lon="6.840515"><ele>790.0</ele><time>2026-05-03T09:45:36.273Z</time></trkpt><trkpt lat="44.0432417" lon="6.840555"><ele>790.0</ele><time>2026-05-03T09:45:37.272Z</time></trkpt><trkpt lat="44.04334" lon="6.8405667"><ele>790.0</ele><time>2026-05-03T09:45:38.272Z</time></trkpt><trkpt lat="44.043415" lon="6.8405917"><ele>790.0</ele><time>2026-05-03T09:45:39.272Z</time></trkpt><trkpt lat="44.0434767" lon="6.8406483"><ele>794.8333333333333</ele><time>2026-05-03T09:45:40.272Z</time></trkpt><trkpt lat="44.0435367" lon="6.8407183"><ele>799.6666666666666</ele><time>2026-05-03T09:45:41.272Z</time></trkpt><trkpt lat="44.0436" lon="6.840765"><ele>804.5</ele><time>2026-05-03T09:45:42.272Z</time></trkpt><trkpt lat="44.043675" lon="6.8407833"><ele>809.3333333333333</ele><time>2026-05-03T09:45:43.272Z</time></trkpt><trkpt lat="44.0437533" lon="6.840765"><ele>814.1666666666666</ele><time>2026-05-03T09:45:44.272Z</time></trkpt><trkpt lat="44.0438283" lon="6.84073"><ele>819.0</ele><time>2026-05-03T09:45:45.272Z</time></trkpt><trkpt lat="44.043895" lon="6.8406533"><ele>819.0</ele><time>2026-05-03T09:45:46.273Z</time></trkpt><trkpt lat="44.0439517" lon="6.840555"><ele>819.0</ele><time>2026-05-03T09:45:47.272Z</time></trkpt><trkpt lat="44.0439983" lon="6.8404433"><ele>819.0</ele><time>2026-05-03T09:45:48.272Z</time></trkpt><trkpt lat="44.044045" lon="6.8403117"><ele>819.0</ele><time>2026-05-03T09:45:49.272Z</time></trkpt><trkpt lat="44.0440867" lon="6.8401967"><ele>819.0</ele><time>2026-05-03T09:45:50.273Z</time></trkpt><trkpt lat="44.0441317" lon="6.840115"><ele>819.8000000000001</ele><time>2026-05-03T09:45:51.272Z</time></trkpt><trkpt lat="44.0441983" lon="6.84007"><ele>820.6</ele><time>2026-05-03T09:45:52.272Z</time></trkpt><trkpt lat="44.044275" lon="6.8400567"><ele>821.4</ele><time>2026-05-03T09:45:53.272Z</time></trkpt><trkpt lat="44.0443533" lon="6.8400967"><ele>822.2</ele><time>2026-05-03T09:45:54.272Z</time></trkpt><trkpt lat="44.0444367" lon="6.8401983"><ele>823.0</ele><time>2026-05-03T09:45:55.272Z</time></trkpt><trkpt lat="44.0445133" lon="6.8403333"><ele>823.0</ele><time>2026-05-03T09:45:56.272Z</time></trkpt><trkpt lat="44.0445783" lon="6.8405033"><ele>823.0</ele><time>2026-05-03T09:45:57.272Z</time></trkpt><trkpt lat="44.044625" lon="6.84066"><ele>823.0</ele><time>2026-05-03T09:45:58.272Z</time></trkpt><trkpt lat="44.0446333" lon="6.8408167"><ele>823.0</ele><time>2026-05-03T09:45:59.272Z</time></trkpt><trkpt lat="44.044635" lon="6.8409617"><ele>819.8</ele><time>2026-05-03T09:46:00.272Z</time></trkpt><trkpt lat="44.0446417" lon="6.841105"><ele>816.5999999999999</ele><time>2026-05-03T09:46:01.272Z</time></trkpt><trkpt lat="44.0446683" lon="6.8412333"><ele>813.4000000000001</ele><time>2026-05-03T09:46:02.272Z</time></trkpt><trkpt lat="44.0447083" lon="6.841345"><ele>810.2</ele><time>2026-05-03T09:46:03.272Z</time></trkpt><trkpt lat="44.04475" lon="6.84145"><ele>807.0</ele><time>2026-05-03T09:46:04.273Z</time></trkpt><trkpt lat="44.0447933" lon="6.8415567"><ele>807.0</ele><time>2026-05-03T09:46:05.272Z</time></trkpt><trkpt lat="44.0448433" lon="6.8416633"><ele>807.0</ele><time>2026-05-03T09:46:06.272Z</time></trkpt><trkpt lat="44.04489" lon="6.8417667"><ele>807.0</ele><time>2026-05-03T09:46:07.273Z</time></trkpt><trkpt lat="44.0449367" lon="6.8418717"><ele>807.0</ele><time>2026-05-03T09:46:08.272Z</time></trkpt><trkpt lat="44.0449817" lon="6.8419783"><ele>807.0</ele><time>2026-05-03T09:46:09.272Z</time></trkpt><trkpt lat="44.04503" lon="6.8420833"><ele>807.0</ele><time>2026-05-03T09:46:10.272Z</time></trkpt><trkpt lat="44.0451233" lon="6.8422933"><ele>829.75</ele><time>2026-05-03T09:46:12.278Z</time></trkpt><trkpt lat="44.0451717" lon="6.8423983"><ele>852.5</ele><time>2026-05-03T09:46:13.277Z</time></trkpt><trkpt lat="44.04522" lon="6.8425033"><ele>875.25</ele><time>2026-05-03T09:46:14.278Z</time></trkpt><trkpt lat="44.0452667" lon="6.8426083"><ele>898.0</ele><time>2026-05-03T09:46:15.278Z</time></trkpt><trkpt lat="44.0455183" lon="6.843105"><ele>885.0</ele><time>2026-05-03T09:46:18.274Z</time></trkpt><trkpt lat="44.04581" lon="6.8432117"><ele>872.0</ele><time>2026-05-03T09:46:19.274Z</time></trkpt><trkpt lat="44.046445" lon="6.8429667"><ele>858.0</ele><time>2026-05-03T09:46:20.274Z</time></trkpt><trkpt lat="44.0467367" lon="6.842985"><ele>844.0</ele><time>2026-05-03T09:46:21.274Z</time></trkpt><trkpt lat="44.0468733" lon="6.843035"><ele>830.0</ele><time>2026-05-03T09:46:22.274Z</time></trkpt><trkpt lat="44.0470117" lon="6.8430717"><ele>830.0</ele><time>2026-05-03T09:46:23.275Z</time></trkpt><trkpt lat="44.0471033" lon="6.843095"><ele>830.0</ele><time>2026-05-03T09:46:24.274Z</time></trkpt><trkpt lat="44.04721" lon="6.8430817"><ele>830.0</ele><time>2026-05-03T09:46:25.274Z</time></trkpt><trkpt lat="44.0473183" lon="6.8430517"><ele>830.0</ele><time>2026-05-03T09:46:26.274Z</time></trkpt><trkpt lat="44.0474167" lon="6.8430383"><ele>830.0</ele><time>2026-05-03T09:46:27.274Z</time></trkpt><trkpt lat="44.0474817" lon="6.8430883"><ele>830.0</ele><time>2026-05-03T09:46:28.274Z</time></trkpt><trkpt lat="44.04752" lon="6.8431617"><ele>830.0</ele><time>2026-05-03T09:46:29.274Z</time></trkpt><trkpt lat="44.04754" lon="6.8432583"><ele>830.0</ele><time>2026-05-03T09:46:30.275Z</time></trkpt><trkpt lat="44.0475367" lon="6.84337"><ele>830.0</ele><time>2026-05-03T09:46:31.274Z</time></trkpt><trkpt lat="44.0475467" lon="6.843485"><ele>830.0</ele><time>2026-05-03T09:46:32.275Z</time></trkpt><trkpt lat="44.0475833" lon="6.843575"><ele>830.0</ele><time>2026-05-03T09:46:33.275Z</time></trkpt><trkpt lat="44.0476267" lon="6.843655"><ele>830.0</ele><time>2026-05-03T09:46:34.274Z</time></trkpt><trkpt lat="44.0476833" lon="6.8437267"><ele>830.0000000000001</ele><time>2026-05-03T09:46:35.274Z</time></trkpt><trkpt lat="44.0477567" lon="6.843785"><ele>830.0</ele><time>2026-05-03T09:46:36.274Z</time></trkpt><trkpt lat="44.047825" lon="6.8438383"><ele>830.0</ele><time>2026-05-03T09:46:37.274Z</time></trkpt><trkpt lat="44.0478917" lon="6.8438917"><ele>830.0</ele><time>2026-05-03T09:46:38.274Z</time></trkpt><trkpt lat="44.0479567" lon="6.8439467"><ele>830.0000000000001</ele><time>2026-05-03T09:46:39.274Z</time></trkpt><trkpt lat="44.04802" lon="6.8439967"><ele>830.0</ele><time>2026-05-03T09:46:40.275Z</time></trkpt><trkpt lat="44.048085" lon="6.84405"><ele>830.0</ele><time>2026-05-03T09:46:41.274Z</time></trkpt><trkpt lat="44.04815" lon="6.8441017"><ele>830.0</ele><time>2026-05-03T09:46:42.274Z</time></trkpt><trkpt lat="44.0482833" lon="6.84421"><ele>830.0</ele><time>2026-05-03T09:46:44.276Z</time></trkpt><trkpt lat="44.04837" lon="6.8442433"><ele>830.0</ele><time>2026-05-03T09:46:45.276Z</time></trkpt><trkpt lat="44.04854" lon="6.8442467"><ele>837.25</ele><time>2026-05-03T09:46:46.276Z</time></trkpt><trkpt lat="44.0487183" lon="6.8442917"><ele>844.5</ele><time>2026-05-03T09:46:47.276Z</time></trkpt><trkpt lat="44.048815" lon="6.84428"><ele>851.75</ele><time>2026-05-03T09:46:48.276Z</time></trkpt><trkpt lat="44.0488783" lon="6.8441933"><ele>859.0</ele><time>2026-05-03T09:46:49.276Z</time></trkpt><trkpt lat="44.0489133" lon="6.8440567"><ele>859.0</ele><time>2026-05-03T09:46:50.276Z</time></trkpt><trkpt lat="44.0489517" lon="6.8438867"><ele>859.0</ele><time>2026-05-03T09:46:51.276Z</time></trkpt><trkpt lat="44.0490117" lon="6.84369"><ele>859.0</ele><time>2026-05-03T09:46:52.276Z</time></trkpt><trkpt lat="44.0490683" lon="6.8435067"><ele>859.0</ele><time>2026-05-03T09:46:53.276Z</time></trkpt><trkpt lat="44.049115" lon="6.8433317"><ele>854.5</ele><time>2026-05-03T09:46:54.276Z</time></trkpt><trkpt lat="44.049185" lon="6.8431683"><ele>850.0</ele><time>2026-05-03T09:46:55.276Z</time></trkpt><trkpt lat="44.04925" lon="6.8430183"><ele>845.5</ele><time>2026-05-03T09:46:56.276Z</time></trkpt><trkpt lat="44.0493117" lon="6.84287"><ele>841.0</ele><time>2026-05-03T09:46:57.276Z</time></trkpt><trkpt lat="44.04937" lon="6.8427333"><ele>846.5999999999999</ele><time>2026-05-03T09:46:58.276Z</time></trkpt><trkpt lat="44.0494283" lon="6.842605"><ele>852.2</ele><time>2026-05-03T09:46:59.277Z</time></trkpt><trkpt lat="44.0494867" lon="6.8424733"><ele>857.8000000000001</ele><time>2026-05-03T09:47:00.276Z</time></trkpt><trkpt lat="44.0495367" lon="6.84237"><ele>863.4000000000001</ele><time>2026-05-03T09:47:01.276Z</time></trkpt><trkpt lat="44.0496017" lon="6.8422933"><ele>869.0</ele><time>2026-05-03T09:47:02.276Z</time></trkpt><trkpt lat="44.0496817" lon="6.8422417"><ele>869.0</ele><time>2026-05-03T09:47:03.277Z</time></trkpt><trkpt lat="44.0497683" lon="6.8422333"><ele>869.0000000000001</ele><time>2026-05-03T09:47:04.276Z</time></trkpt><trkpt lat="44.04985" lon="6.8422633"><ele>869.0000000000001</ele><time>2026-05-03T09:47:05.276Z</time></trkpt><trkpt lat="44.049935" lon="6.842325"><ele>869.0</ele><time>2026-05-03T09:47:06.276Z</time></trkpt><trkpt lat="44.0500183" lon="6.84241"><ele>869.0</ele><time>2026-05-03T09:47:07.276Z</time></trkpt><trkpt lat="44.0500967" lon="6.84253"><ele>860.6</ele><time>2026-05-03T09:47:08.276Z</time></trkpt><trkpt lat="44.050155" lon="6.8426583"><ele>852.2</ele><time>2026-05-03T09:47:09.277Z</time></trkpt><trkpt lat="44.0502117" lon="6.8427683"><ele>843.8000000000001</ele><time>2026-05-03T09:47:10.277Z</time></trkpt><trkpt lat="44.0502317" lon="6.8428867"><ele>835.4000000000001</ele><time>2026-05-03T09:47:11.276Z</time></trkpt><trkpt lat="44.0502417" lon="6.843"><ele>827.0</ele><time>2026-05-03T09:47:12.276Z</time></trkpt><trkpt lat="44.0502633" lon="6.84313"><ele>827.0</ele><time>2026-05-03T09:47:13.276Z</time></trkpt><trkpt lat="44.0502883" lon="6.8432617"><ele>827.0</ele><time>2026-05-03T09:47:14.276Z</time></trkpt><trkpt lat="44.0503033" lon="6.8433933"><ele>827.0</ele><time>2026-05-03T09:47:15.276Z</time></trkpt><trkpt lat="44.0503033" lon="6.8435133"><ele>827.0</ele><time>2026-05-03T09:47:16.276Z</time></trkpt><trkpt lat="44.0502917" lon="6.84363"><ele>827.0</ele><time>2026-05-03T09:47:17.276Z</time></trkpt><trkpt lat="44.0502717" lon="6.8437617"><ele>823.6666666666667</ele><time>2026-05-03T09:47:18.276Z</time></trkpt><trkpt lat="44.05023" lon="6.8438833"><ele>820.3333333333334</ele><time>2026-05-03T09:47:19.276Z</time></trkpt><trkpt lat="44.0502017" lon="6.8440083"><ele>817.0</ele><time>2026-05-03T09:47:20.276Z</time></trkpt><trkpt lat="44.0501767" lon="6.8441183"><ele>813.6666666666667</ele><time>2026-05-03T09:47:21.276Z</time></trkpt><trkpt lat="44.0501683" lon="6.844245"><ele>810.3333333333334</ele><time>2026-05-03T09:47:22.276Z</time></trkpt><trkpt lat="44.050175" lon="6.84436"><ele>807.0</ele><time>2026-05-03T09:47:23.276Z</time></trkpt><trkpt lat="44.050225" lon="6.8444633"><ele>802.8333333333334</ele><time>2026-05-03T09:47:24.276Z</time></trkpt><trkpt lat="44.05029" lon="6.8445483"><ele>798.6666666666667</ele><time>2026-05-03T09:47:25.276Z</time></trkpt><trkpt lat="44.05036" lon="6.8445883"><ele>794.5</ele><time>2026-05-03T09:47:26.276Z</time></trkpt><trkpt lat="44.0504433" lon="6.8446"><ele>790.3333333333334</ele><time>2026-05-03T09:47:27.276Z</time></trkpt><trkpt lat="44.0505217" lon="6.84457"><ele>786.1666666666667</ele><time>2026-05-03T09:47:28.276Z</time></trkpt><trkpt lat="44.0506067" lon="6.84451"><ele>782.0</ele><time>2026-05-03T09:47:29.276Z</time></trkpt><trkpt lat="44.0506883" lon="6.8444133"><ele>782.0</ele><time>2026-05-03T09:47:30.276Z</time></trkpt><trkpt lat="44.0507633" lon="6.844315"><ele>782.0</ele><time>2026-05-03T09:47:31.276Z</time></trkpt><trkpt lat="44.0508367" lon="6.8442167"><ele>782.0</ele><time>2026-05-03T09:47:32.276Z</time></trkpt><trkpt lat="44.0509033" lon="6.84414"><ele>782.0</ele><time>2026-05-03T09:47:33.276Z</time></trkpt><trkpt lat="44.0510167" lon="6.84411"><ele>782.0</ele><time>2026-05-03T09:47:35.276Z</time></trkpt><trkpt lat="44.0511317" lon="6.8440917"><ele>789.8</ele><time>2026-05-03T09:47:37.276Z</time></trkpt><trkpt lat="44.051235" lon="6.84411"><ele>797.6</ele><time>2026-05-03T09:47:39.276Z</time></trkpt><trkpt lat="44.0513" lon="6.8441933"><ele>805.4</ele><time>2026-05-03T09:47:41.276Z</time></trkpt><trkpt lat="44.05135" lon="6.8442883"><ele>813.1999999999999</ele><time>2026-05-03T09:47:42.276Z</time></trkpt><trkpt lat="44.0514383" lon="6.8444517"><ele>821.0</ele><time>2026-05-03T09:47:43.277Z</time></trkpt><trkpt lat="44.0515717" lon="6.8446733"><ele>818.3333333333334</ele><time>2026-05-03T09:47:44.276Z</time></trkpt><trkpt lat="44.0517383" lon="6.8449633"><ele>815.6666666666667</ele><time>2026-05-03T09:47:45.276Z</time></trkpt><trkpt lat="44.0518483" lon="6.84511"><ele>813.0</ele><time>2026-05-03T09:47:46.276Z</time></trkpt><trkpt lat="44.05195" lon="6.8452583"><ele>813.0</ele><time>2026-05-03T09:47:47.276Z</time></trkpt><trkpt lat="44.05209" lon="6.8453"><ele>813.0</ele><time>2026-05-03T09:47:48.277Z</time></trkpt><trkpt lat="44.05221" lon="6.8452983"><ele>813.0</ele><time>2026-05-03T09:47:49.276Z</time></trkpt><trkpt lat="44.0523217" lon="6.84526"><ele>813.0</ele><time>2026-05-03T09:47:50.276Z</time></trkpt><trkpt lat="44.0524433" lon="6.8451833"><ele>813.25</ele><time>2026-05-03T09:47:51.276Z</time></trkpt><trkpt lat="44.0525483" lon="6.8451167"><ele>813.5</ele><time>2026-05-03T09:47:52.276Z</time></trkpt><trkpt lat="44.0526617" lon="6.8451033"><ele>813.75</ele><time>2026-05-03T09:47:53.276Z</time></trkpt><trkpt lat="44.0527917" lon="6.8451117"><ele>814.0</ele><time>2026-05-03T09:47:54.276Z</time></trkpt><trkpt lat="44.0528967" lon="6.8451433"><ele>813.9999999999999</ele><time>2026-05-03T09:47:55.277Z</time></trkpt><trkpt lat="44.0529817" lon="6.845195"><ele>814.0</ele><time>2026-05-03T09:47:56.276Z</time></trkpt><trkpt lat="44.053045" lon="6.845245"><ele>814.0</ele><time>2026-05-03T09:47:57.276Z</time></trkpt><trkpt lat="44.0531067" lon="6.8453233"><ele>814.0</ele><time>2026-05-03T09:47:58.276Z</time></trkpt><trkpt lat="44.0531433" lon="6.84543"><ele>813.9999999999999</ele><time>2026-05-03T09:47:59.277Z</time></trkpt><trkpt lat="44.05316" lon="6.8455583"><ele>814.0</ele><time>2026-05-03T09:48:00.276Z</time></trkpt><trkpt lat="44.0531833" lon="6.8456717"><ele>813.9999999999999</ele><time>2026-05-03T09:48:01.276Z</time></trkpt><trkpt lat="44.0532217" lon="6.8457633"><ele>814.0</ele><time>2026-05-03T09:48:02.277Z</time></trkpt><trkpt lat="44.0532883" lon="6.84582"><ele>814.0</ele><time>2026-05-03T09:48:03.276Z</time></trkpt><trkpt lat="44.0533583" lon="6.84584"><ele>814.0</ele><time>2026-05-03T09:48:04.276Z</time></trkpt><trkpt lat="44.053425" lon="6.8458083"><ele>813.9999999999999</ele><time>2026-05-03T09:48:05.276Z</time></trkpt><trkpt lat="44.053485" lon="6.8457533"><ele>814.0</ele><time>2026-05-03T09:48:06.276Z</time></trkpt><trkpt lat="44.0535383" lon="6.8456383"><ele>816.0</ele><time>2026-05-03T09:48:07.276Z</time></trkpt><trkpt lat="44.0535767" lon="6.845475"><ele>818.0</ele><time>2026-05-03T09:48:08.277Z</time></trkpt><trkpt lat="44.0536033" lon="6.8452867"><ele>820.0</ele><time>2026-05-03T09:48:09.277Z</time></trkpt><trkpt lat="44.0536483" lon="6.8451367"><ele>822.0</ele><time>2026-05-03T09:48:10.276Z</time></trkpt><trkpt lat="44.05371" lon="6.8450383"><ele>820.0</ele><time>2026-05-03T09:48:11.276Z</time></trkpt><trkpt lat="44.0537667" lon="6.8449833"><ele>818.0</ele><time>2026-05-03T09:48:12.276Z</time></trkpt><trkpt lat="44.0538333" lon="6.8449533"><ele>816.0</ele><time>2026-05-03T09:48:13.276Z</time></trkpt><trkpt lat="44.0539167" lon="6.844965"><ele>814.0</ele><time>2026-05-03T09:48:14.276Z</time></trkpt><trkpt lat="44.0540117" lon="6.84501"><ele>812.0</ele><time>2026-05-03T09:48:15.276Z</time></trkpt><trkpt lat="44.054105" lon="6.8450683"><ele>810.0</ele><time>2026-05-03T09:48:16.276Z</time></trkpt><trkpt lat="44.054205" lon="6.8451383"><ele>810.0</ele><time>2026-05-03T09:48:17.277Z</time></trkpt><trkpt lat="44.0543033" lon="6.8452"><ele>810.0</ele><time>2026-05-03T09:48:18.276Z</time></trkpt><trkpt lat="44.054395" lon="6.8452617"><ele>810.0</ele><time>2026-05-03T09:48:19.276Z</time></trkpt><trkpt lat="44.0545" lon="6.8453117"><ele>810.0</ele><time>2026-05-03T09:48:20.276Z</time></trkpt><trkpt lat="44.0546083" lon="6.8453383"><ele>810.0</ele><time>2026-05-03T09:48:21.276Z</time></trkpt><trkpt lat="44.0547217" lon="6.8453383"><ele>810.0</ele><time>2026-05-03T09:48:22.276Z</time></trkpt><trkpt lat="44.0548233" lon="6.845315"><ele>810.0</ele><time>2026-05-03T09:48:23.276Z</time></trkpt><trkpt lat="44.05493" lon="6.845285"><ele>810.0</ele><time>2026-05-03T09:48:24.276Z</time></trkpt><trkpt lat="44.0550333" lon="6.8452517"><ele>810.0</ele><time>2026-05-03T09:48:25.276Z</time></trkpt><trkpt lat="44.0551267" lon="6.8452217"><ele>810.0</ele><time>2026-05-03T09:48:26.276Z</time></trkpt><trkpt lat="44.055205" lon="6.845245"><ele>811.2</ele><time>2026-05-03T09:48:27.276Z</time></trkpt><trkpt lat="44.05528" lon="6.84531"><ele>812.4</ele><time>2026-05-03T09:48:28.276Z</time></trkpt><trkpt lat="44.0553483" lon="6.8453967"><ele>813.5999999999999</ele><time>2026-05-03T09:48:29.276Z</time></trkpt><trkpt lat="44.0553983" lon="6.845525"><ele>814.8</ele><time>2026-05-03T09:48:30.276Z</time></trkpt><trkpt lat="44.0554367" lon="6.845685"><ele>816.0</ele><time>2026-05-03T09:48:31.276Z</time></trkpt><trkpt lat="44.0554583" lon="6.84586"><ele>813.1999999999999</ele><time>2026-05-03T09:48:32.276Z</time></trkpt><trkpt lat="44.0554983" lon="6.84602"><ele>810.4</ele><time>2026-05-03T09:48:33.276Z</time></trkpt><trkpt lat="44.055545" lon="6.84614"><ele>807.6</ele><time>2026-05-03T09:48:34.276Z</time></trkpt><trkpt lat="44.055575" lon="6.8462583"><ele>804.8</ele><time>2026-05-03T09:48:35.276Z</time></trkpt><trkpt lat="44.0555767" lon="6.846385"><ele>802.0</ele><time>2026-05-03T09:48:36.276Z</time></trkpt><trkpt lat="44.05556" lon="6.8465167"><ele>802.0</ele><time>2026-05-03T09:48:37.276Z</time></trkpt><trkpt lat="44.0555117" lon="6.8466417"><ele>802.0</ele><time>2026-05-03T09:48:38.276Z</time></trkpt><trkpt lat="44.0554283" lon="6.8467617"><ele>802.0</ele><time>2026-05-03T09:48:39.277Z</time></trkpt><trkpt lat="44.055355" lon="6.846895"><ele>802.0</ele><time>2026-05-03T09:48:40.276Z</time></trkpt><trkpt lat="44.0552833" lon="6.8470417"><ele>803.0</ele><time>2026-05-03T09:48:41.276Z</time></trkpt><trkpt lat="44.0552083" lon="6.8471983"><ele>804.0</ele><time>2026-05-03T09:48:42.276Z</time></trkpt><trkpt lat="44.0551417" lon="6.847355"><ele>805.0</ele><time>2026-05-03T09:48:43.276Z</time></trkpt><trkpt lat="44.0550867" lon="6.8475067"><ele>806.0</ele><time>2026-05-03T09:48:44.276Z</time></trkpt><trkpt lat="44.0550333" lon="6.8476483"><ele>807.25</ele><time>2026-05-03T09:48:45.276Z</time></trkpt><trkpt lat="44.0549883" lon="6.8477833"><ele>808.5</ele><time>2026-05-03T09:48:46.277Z</time></trkpt><trkpt lat="44.05494" lon="6.8479233"><ele>809.75</ele><time>2026-05-03T09:48:47.276Z</time></trkpt><trkpt lat="44.054895" lon="6.8480667"><ele>811.0</ele><time>2026-05-03T09:48:48.276Z</time></trkpt><trkpt lat="44.0548567" lon="6.84823"><ele>799.25</ele><time>2026-05-03T09:48:49.276Z</time></trkpt><trkpt lat="44.0548083" lon="6.8483867"><ele>787.5</ele><time>2026-05-03T09:48:50.276Z</time></trkpt><trkpt lat="44.0547567" lon="6.8485433"><ele>775.75</ele><time>2026-05-03T09:48:51.276Z</time></trkpt><trkpt lat="44.054695" lon="6.84868"><ele>764.0</ele><time>2026-05-03T09:48:52.276Z</time></trkpt><trkpt lat="44.0546533" lon="6.8488167"><ele>764.0</ele><time>2026-05-03T09:48:53.276Z</time></trkpt><trkpt lat="44.054615" lon="6.8489383"><ele>764.0</ele><time>2026-05-03T09:48:54.276Z</time></trkpt><trkpt lat="44.054585" lon="6.849065"><ele>764.0</ele><time>2026-05-03T09:48:55.276Z</time></trkpt><trkpt lat="44.0545683" lon="6.84918"><ele>764.0</ele><time>2026-05-03T09:48:56.276Z</time></trkpt><trkpt lat="44.054575" lon="6.8492983"><ele>764.0</ele><time>2026-05-03T09:48:57.276Z</time></trkpt><trkpt lat="44.0546167" lon="6.849405"><ele>764.0</ele><time>2026-05-03T09:48:58.276Z</time></trkpt><trkpt lat="44.0546817" lon="6.8495033"><ele>767.5</ele><time>2026-05-03T09:48:59.276Z</time></trkpt><trkpt lat="44.0547533" lon="6.8496"><ele>771.0</ele><time>2026-05-03T09:49:00.276Z</time></trkpt><trkpt lat="44.054825" lon="6.84969"><ele>774.5</ele><time>2026-05-03T09:49:01.276Z</time></trkpt><trkpt lat="44.0548967" lon="6.8497517"><ele>778.0</ele><time>2026-05-03T09:49:02.276Z</time></trkpt><trkpt lat="44.0549717" lon="6.8497917"><ele>781.5000000000001</ele><time>2026-05-03T09:49:03.276Z</time></trkpt><trkpt lat="44.0550367" lon="6.8497983"><ele>785.0</ele><time>2026-05-03T09:49:04.276Z</time></trkpt><trkpt lat="44.0551167" lon="6.84981"><ele>787.0000000000001</ele><time>2026-05-03T09:49:05.276Z</time></trkpt><trkpt lat="44.0551783" lon="6.8498583"><ele>789.0</ele><time>2026-05-03T09:49:06.276Z</time></trkpt><trkpt lat="44.05522" lon="6.84995"><ele>791.0</ele><time>2026-05-03T09:49:07.277Z</time></trkpt><trkpt lat="44.0552467" lon="6.8500683"><ele>793.0</ele><time>2026-05-03T09:49:08.276Z</time></trkpt><trkpt lat="44.0552567" lon="6.850185"><ele>795.0000000000001</ele><time>2026-05-03T09:49:09.276Z</time></trkpt><trkpt lat="44.0552733" lon="6.850295"><ele>797.0</ele><time>2026-05-03T09:49:10.276Z</time></trkpt><trkpt lat="44.0553083" lon="6.8504017"><ele>797.6</ele><time>2026-05-03T09:49:11.276Z</time></trkpt><trkpt lat="44.055355" lon="6.8505"><ele>798.2</ele><time>2026-05-03T09:49:12.276Z</time></trkpt><trkpt lat="44.055425" lon="6.8505767"><ele>798.8</ele><time>2026-05-03T09:49:13.276Z</time></trkpt><trkpt lat="44.0555183" lon="6.8506267"><ele>799.4</ele><time>2026-05-03T09:49:14.277Z</time></trkpt><trkpt lat="44.05563" lon="6.85067"><ele>800.0</ele><time>2026-05-03T09:49:15.276Z</time></trkpt><trkpt lat="44.055725" lon="6.8507133"><ele>801.6666666666667</ele><time>2026-05-03T09:49:16.276Z</time></trkpt><trkpt lat="44.05581" lon="6.8507767"><ele>803.3333333333334</ele><time>2026-05-03T09:49:17.276Z</time></trkpt><trkpt lat="44.0558917" lon="6.8508367"><ele>805.0</ele><time>2026-05-03T09:49:18.276Z</time></trkpt><trkpt lat="44.0559783" lon="6.8509017"><ele>806.6666666666667</ele><time>2026-05-03T09:49:19.276Z</time></trkpt><trkpt lat="44.0560467" lon="6.8508917"><ele>808.3333333333334</ele><time>2026-05-03T09:49:20.276Z</time></trkpt><trkpt lat="44.0561383" lon="6.8508833"><ele>810.0</ele><time>2026-05-03T09:49:21.276Z</time></trkpt><trkpt lat="44.0562717" lon="6.850825"><ele>809.9999999999999</ele><time>2026-05-03T09:49:23.276Z</time></trkpt><trkpt lat="44.0563383" lon="6.850855"><ele>810.0</ele><time>2026-05-03T09:49:24.276Z</time></trkpt><trkpt lat="44.0563983" lon="6.8509333"><ele>810.0</ele><time>2026-05-03T09:49:25.276Z</time></trkpt><trkpt lat="44.056445" lon="6.8510217"><ele>810.0</ele><time>2026-05-03T09:49:26.277Z</time></trkpt><trkpt lat="44.0565083" lon="6.85109"><ele>810.0</ele><time>2026-05-03T09:49:27.276Z</time></trkpt><trkpt lat="44.0565717" lon="6.8511367"><ele>809.9999999999999</ele><time>2026-05-03T09:49:28.276Z</time></trkpt><trkpt lat="44.056635" lon="6.85116"><ele>810.0</ele><time>2026-05-03T09:49:29.276Z</time></trkpt><trkpt lat="44.0567017" lon="6.851155"><ele>811.6666666666666</ele><time>2026-05-03T09:49:30.276Z</time></trkpt><trkpt lat="44.0567667" lon="6.8511033"><ele>813.3333333333333</ele><time>2026-05-03T09:49:31.276Z</time></trkpt><trkpt lat="44.0568433" lon="6.851015"><ele>815.0</ele><time>2026-05-03T09:49:32.277Z</time></trkpt><trkpt lat="44.0569167" lon="6.8509633"><ele>816.6666666666666</ele><time>2026-05-03T09:49:33.276Z</time></trkpt><trkpt lat="44.0569967" lon="6.8509417"><ele>818.3333333333333</ele><time>2026-05-03T09:49:34.276Z</time></trkpt><trkpt lat="44.0570683" lon="6.8509667"><ele>820.0</ele><time>2026-05-03T09:49:35.276Z</time></trkpt><trkpt lat="44.05713" lon="6.8510533"><ele>812.75</ele><time>2026-05-03T09:49:36.276Z</time></trkpt><trkpt lat="44.0571783" lon="6.851175"><ele>805.5</ele><time>2026-05-03T09:49:37.276Z</time></trkpt><trkpt lat="44.05722" lon="6.8513317"><ele>798.25</ele><time>2026-05-03T09:49:38.276Z</time></trkpt><trkpt lat="44.0572683" lon="6.8514933"><ele>791.0</ele><time>2026-05-03T09:49:39.276Z</time></trkpt><trkpt lat="44.05729" lon="6.8516567"><ele>786.4</ele><time>2026-05-03T09:49:40.276Z</time></trkpt><trkpt lat="44.0572983" lon="6.8518"><ele>781.8</ele><time>2026-05-03T09:49:41.276Z</time></trkpt><trkpt lat="44.0573067" lon="6.8519367"><ele>777.1999999999999</ele><time>2026-05-03T09:49:42.276Z</time></trkpt><trkpt lat="44.0573183" lon="6.85207"><ele>772.5999999999999</ele><time>2026-05-03T09:49:43.276Z</time></trkpt><trkpt lat="44.0573433" lon="6.8521867"><ele>768.0</ele><time>2026-05-03T09:49:44.276Z</time></trkpt><trkpt lat="44.0573867" lon="6.852285"><ele>768.0</ele><time>2026-05-03T09:49:45.276Z</time></trkpt><trkpt lat="44.05745" lon="6.8523833"><ele>768.0</ele><time>2026-05-03T09:49:46.277Z</time></trkpt><trkpt lat="44.0575117" lon="6.8524767"><ele>768.0</ele><time>2026-05-03T09:49:47.276Z</time></trkpt><trkpt lat="44.05758" lon="6.852565"><ele>768.0</ele><time>2026-05-03T09:49:48.276Z</time></trkpt><trkpt lat="44.057655" lon="6.8526183"><ele>768.0</ele><time>2026-05-03T09:49:49.277Z</time></trkpt><trkpt lat="44.057735" lon="6.85265"><ele>768.0</ele><time>2026-05-03T09:49:50.276Z</time></trkpt><trkpt lat="44.057805" lon="6.8526533"><ele>767.8333333333334</ele><time>2026-05-03T09:49:51.276Z</time></trkpt><trkpt lat="44.0578783" lon="6.85261"><ele>767.6666666666666</ele><time>2026-05-03T09:49:52.276Z</time></trkpt><trkpt lat="44.057965" lon="6.8525583"><ele>767.5</ele><time>2026-05-03T09:49:53.276Z</time></trkpt><trkpt lat="44.058055" lon="6.8525283"><ele>767.3333333333333</ele><time>2026-05-03T09:49:54.276Z</time></trkpt><trkpt lat="44.058145" lon="6.8525367"><ele>767.1666666666666</ele><time>2026-05-03T09:49:55.276Z</time></trkpt><trkpt lat="44.0582217" lon="6.8525867"><ele>767.0</ele><time>2026-05-03T09:49:56.276Z</time></trkpt><trkpt lat="44.0582833" lon="6.85263"><ele>767.2</ele><time>2026-05-03T09:49:57.276Z</time></trkpt><trkpt lat="44.0583533" lon="6.8526433"><ele>767.4000000000001</ele><time>2026-05-03T09:49:58.277Z</time></trkpt><trkpt lat="44.0584767" lon="6.85261"><ele>767.5999999999999</ele><time>2026-05-03T09:50:00.276Z</time></trkpt><trkpt lat="44.058535" lon="6.852535"><ele>767.8</ele><time>2026-05-03T09:50:01.276Z</time></trkpt><trkpt lat="44.0586067" lon="6.852415"><ele>768.0</ele><time>2026-05-03T09:50:02.276Z</time></trkpt><trkpt lat="44.0586833" lon="6.8522967"><ele>770.5999999999999</ele><time>2026-05-03T09:50:03.276Z</time></trkpt><trkpt lat="44.0587683" lon="6.85219"><ele>773.1999999999999</ele><time>2026-05-03T09:50:04.276Z</time></trkpt><trkpt lat="44.058845" lon="6.852085"><ele>775.8</ele><time>2026-05-03T09:50:05.276Z</time></trkpt><trkpt lat="44.058935" lon="6.8519967"><ele>778.4</ele><time>2026-05-03T09:50:06.276Z</time></trkpt><trkpt lat="44.0590317" lon="6.851925"><ele>781.0</ele><time>2026-05-03T09:50:07.276Z</time></trkpt><trkpt lat="44.0591333" lon="6.8518883"><ele>781.0</ele><time>2026-05-03T09:50:08.276Z</time></trkpt><trkpt lat="44.0592383" lon="6.851885"><ele>781.0</ele><time>2026-05-03T09:50:09.276Z</time></trkpt><trkpt lat="44.05934" lon="6.8519183"><ele>781.0</ele><time>2026-05-03T09:50:10.276Z</time></trkpt><trkpt lat="44.0594467" lon="6.8519667"><ele>781.0</ele><time>2026-05-03T09:50:11.276Z</time></trkpt><trkpt lat="44.0595533" lon="6.8520167"><ele>781.0</ele><time>2026-05-03T09:50:12.276Z</time></trkpt><trkpt lat="44.0596483" lon="6.8520733"><ele>781.0</ele><time>2026-05-03T09:50:13.276Z</time></trkpt><trkpt lat="44.0597167" lon="6.8521617"><ele>781.0</ele><time>2026-05-03T09:50:14.276Z</time></trkpt><trkpt lat="44.0597733" lon="6.8522883"><ele>781.0</ele><time>2026-05-03T09:50:15.276Z</time></trkpt><trkpt lat="44.0598033" lon="6.85242"><ele>781.0</ele><time>2026-05-03T09:50:16.276Z</time></trkpt><trkpt lat="44.0598217" lon="6.85253"><ele>781.0</ele><time>2026-05-03T09:50:17.276Z</time></trkpt><trkpt lat="44.05981" lon="6.8526583"><ele>782.1666666666666</ele><time>2026-05-03T09:50:18.276Z</time></trkpt><trkpt lat="44.059805" lon="6.852775"><ele>783.3333333333333</ele><time>2026-05-03T09:50:19.276Z</time></trkpt><trkpt lat="44.059825" lon="6.85287"><ele>784.5</ele><time>2026-05-03T09:50:20.276Z</time></trkpt><trkpt lat="44.059865" lon="6.852975"><ele>785.6666666666667</ele><time>2026-05-03T09:50:21.276Z</time></trkpt><trkpt lat="44.059925" lon="6.8530633"><ele>786.8333333333334</ele><time>2026-05-03T09:50:22.276Z</time></trkpt><trkpt lat="44.0600033" lon="6.8531167"><ele>788.0</ele><time>2026-05-03T09:50:23.276Z</time></trkpt><trkpt lat="44.060085" lon="6.85314"><ele>788.0</ele><time>2026-05-03T09:50:24.276Z</time></trkpt><trkpt lat="44.06015" lon="6.8531967"><ele>788.0</ele><time>2026-05-03T09:50:25.276Z</time></trkpt><trkpt lat="44.0601967" lon="6.8532667"><ele>788.0</ele><time>2026-05-03T09:50:26.277Z</time></trkpt><trkpt lat="44.0602233" lon="6.853355"><ele>788.0</ele><time>2026-05-03T09:50:27.276Z</time></trkpt><trkpt lat="44.0602267" lon="6.8534617"><ele>788.0</ele><time>2026-05-03T09:50:28.276Z</time></trkpt><trkpt lat="44.06019" lon="6.853555"><ele>788.0</ele><time>2026-05-03T09:50:29.276Z</time></trkpt><trkpt lat="44.0601617" lon="6.8536467"><ele>788.0</ele><time>2026-05-03T09:50:30.276Z</time></trkpt><trkpt lat="44.0601833" lon="6.8538083"><ele>784.0000000000001</ele><time>2026-05-03T09:50:32.276Z</time></trkpt><trkpt lat="44.0602333" lon="6.8538633"><ele>780.0</ele><time>2026-05-03T09:50:33.276Z</time></trkpt><trkpt lat="44.060295" lon="6.8539083"><ele>776.0</ele><time>2026-05-03T09:50:34.276Z</time></trkpt><trkpt lat="44.060375" lon="6.853925"><ele>772.0</ele><time>2026-05-03T09:50:35.277Z</time></trkpt><trkpt lat="44.0604667" lon="6.8539483"><ele>768.0</ele><time>2026-05-03T09:50:36.276Z</time></trkpt><trkpt lat="44.0605433" lon="6.853995"><ele>764.0</ele><time>2026-05-03T09:50:37.276Z</time></trkpt><trkpt lat="44.0606117" lon="6.8540767"><ele>764.0</ele><time>2026-05-03T09:50:38.276Z</time></trkpt><trkpt lat="44.060675" lon="6.85415"><ele>764.0</ele><time>2026-05-03T09:50:39.276Z</time></trkpt><trkpt lat="44.06074" lon="6.85422"><ele>764.0</ele><time>2026-05-03T09:50:40.276Z</time></trkpt><trkpt lat="44.0608017" lon="6.854275"><ele>764.0</ele><time>2026-05-03T09:50:41.276Z</time></trkpt><trkpt lat="44.0608517" lon="6.854335"><ele>764.0</ele><time>2026-05-03T09:50:42.276Z</time></trkpt><trkpt lat="44.0609617" lon="6.8544017"><ele>764.0</ele><time>2026-05-03T09:50:44.276Z</time></trkpt><trkpt lat="44.06107" lon="6.8544633"><ele>764.0</ele><time>2026-05-03T09:50:46.276Z</time></trkpt><trkpt lat="44.0611817" lon="6.8544817"><ele>764.0</ele><time>2026-05-03T09:50:48.276Z</time></trkpt><trkpt lat="44.061315" lon="6.8545"><ele>764.0</ele><time>2026-05-03T09:50:50.277Z</time></trkpt><trkpt lat="44.0614733" lon="6.8542567"><ele>773.5</ele><time>2026-05-03T09:50:51.276Z</time></trkpt><trkpt lat="44.0617367" lon="6.85395"><ele>783.0</ele><time>2026-05-03T09:50:52.276Z</time></trkpt><trkpt lat="44.061915" lon="6.853765"><ele>783.0</ele><time>2026-05-03T09:50:53.276Z</time></trkpt><trkpt lat="44.06204" lon="6.8536267"><ele>783.0</ele><time>2026-05-03T09:50:54.276Z</time></trkpt><trkpt lat="44.0621217" lon="6.85349"><ele>783.0</ele><time>2026-05-03T09:50:55.276Z</time></trkpt><trkpt lat="44.0621733" lon="6.8533533"><ele>783.0</ele><time>2026-05-03T09:50:56.276Z</time></trkpt><trkpt lat="44.06221" lon="6.8531983"><ele>788.25</ele><time>2026-05-03T09:50:57.276Z</time></trkpt><trkpt lat="44.0622133" lon="6.8530367"><ele>793.5</ele><time>2026-05-03T09:50:58.276Z</time></trkpt><trkpt lat="44.062205" lon="6.8528617"><ele>798.75</ele><time>2026-05-03T09:50:59.276Z</time></trkpt><trkpt lat="44.0621717" lon="6.8526917"><ele>804.0</ele><time>2026-05-03T09:51:00.276Z</time></trkpt><trkpt lat="44.0621217" lon="6.852515"><ele>805.25</ele><time>2026-05-03T09:51:01.276Z</time></trkpt><trkpt lat="44.0620817" lon="6.8523183"><ele>806.5</ele><time>2026-05-03T09:51:02.276Z</time></trkpt><trkpt lat="44.0620533" lon="6.8521133"><ele>807.75</ele><time>2026-05-03T09:51:03.276Z</time></trkpt><trkpt lat="44.06203" lon="6.85192"><ele>809.0</ele><time>2026-05-03T09:51:04.276Z</time></trkpt><trkpt lat="44.0620167" lon="6.85173"><ele>809.0</ele><time>2026-05-03T09:51:05.276Z</time></trkpt><trkpt lat="44.0620417" lon="6.851535"><ele>809.0</ele><time>2026-05-03T09:51:06.277Z</time></trkpt><trkpt lat="44.0620467" lon="6.8513467"><ele>809.0</ele><time>2026-05-03T09:51:07.276Z</time></trkpt><trkpt lat="44.0620583" lon="6.8511533"><ele>809.0</ele><time>2026-05-03T09:51:08.276Z</time></trkpt><trkpt lat="44.0620917" lon="6.8509467"><ele>809.0</ele><time>2026-05-03T09:51:09.276Z</time></trkpt><trkpt lat="44.06212" lon="6.8507433"><ele>809.0</ele><time>2026-05-03T09:51:10.276Z</time></trkpt><trkpt lat="44.06214" lon="6.8505583"><ele>809.0</ele><time>2026-05-03T09:51:11.276Z</time></trkpt><trkpt lat="44.0621583" lon="6.85039"><ele>809.0</ele><time>2026-05-03T09:51:12.277Z</time></trkpt><trkpt lat="44.0621933" lon="6.8502167"><ele>810.5</ele><time>2026-05-03T09:51:13.276Z</time></trkpt><trkpt lat="44.0622317" lon="6.8500417"><ele>812.0</ele><time>2026-05-03T09:51:14.276Z</time></trkpt><trkpt lat="44.0622867" lon="6.8498667"><ele>813.5</ele><time>2026-05-03T09:51:15.276Z</time></trkpt><trkpt lat="44.0623167" lon="6.8497233"><ele>815.0</ele><time>2026-05-03T09:51:16.277Z</time></trkpt><trkpt lat="44.0623283" lon="6.84958"><ele>815.0000000000001</ele><time>2026-05-03T09:51:17.277Z</time></trkpt><trkpt lat="44.062295" lon="6.8494483"><ele>815.0</ele><time>2026-05-03T09:51:18.276Z</time></trkpt><trkpt lat="44.062265" lon="6.8493217"><ele>815.0</ele><time>2026-05-03T09:51:19.276Z</time></trkpt><trkpt lat="44.06224" lon="6.8491967"><ele>815.0</ele><time>2026-05-03T09:51:20.277Z</time></trkpt><trkpt lat="44.0622217" lon="6.8490883"><ele>815.0000000000001</ele><time>2026-05-03T09:51:21.276Z</time></trkpt><trkpt lat="44.0622133" lon="6.84898"><ele>815.0</ele><time>2026-05-03T09:51:22.277Z</time></trkpt><trkpt lat="44.0622083" lon="6.8488883"><ele>814.8</ele><time>2026-05-03T09:51:23.276Z</time></trkpt><trkpt lat="44.0622217" lon="6.8487583"><ele>814.6</ele><time>2026-05-03T09:51:25.276Z</time></trkpt><trkpt lat="44.0621767" lon="6.8486883"><ele>814.4000000000001</ele><time>2026-05-03T09:51:28.276Z</time></trkpt><trkpt lat="44.0621567" lon="6.848825"><ele>814.2</ele><time>2026-05-03T09:51:31.276Z</time></trkpt><trkpt lat="44.06218" lon="6.8490033"><ele>814.0</ele><time>2026-05-03T09:51:33.276Z</time></trkpt><trkpt lat="44.0621917" lon="6.84912"><ele>814.0</ele><time>2026-05-03T09:51:34.276Z</time></trkpt><trkpt lat="44.062215" lon="6.8492567"><ele>814.0</ele><time>2026-05-03T09:51:35.276Z</time></trkpt><trkpt lat="44.0622417" lon="6.8494083"><ele>814.0</ele><time>2026-05-03T09:51:36.276Z</time></trkpt><trkpt lat="44.0622533" lon="6.8495633"><ele>814.0</ele><time>2026-05-03T09:51:37.276Z</time></trkpt><trkpt lat="44.0622517" lon="6.8497317"><ele>814.0</ele><time>2026-05-03T09:51:38.276Z</time></trkpt><trkpt lat="44.062225" lon="6.8499133"><ele>814.25</ele><time>2026-05-03T09:51:39.277Z</time></trkpt><trkpt lat="44.062185" lon="6.8500983"><ele>814.5</ele><time>2026-05-03T09:51:40.276Z</time></trkpt><trkpt lat="44.06214" lon="6.8502883"><ele>814.75</ele><time>2026-05-03T09:51:41.276Z</time></trkpt><trkpt lat="44.0620967" lon="6.8504767"><ele>815.0</ele><time>2026-05-03T09:51:42.276Z</time></trkpt><trkpt lat="44.0620633" lon="6.8506667"><ele>813.5</ele><time>2026-05-03T09:51:43.276Z</time></trkpt><trkpt lat="44.0620383" lon="6.8508583"><ele>812.0</ele><time>2026-05-03T09:51:44.276Z</time></trkpt><trkpt lat="44.0620067" lon="6.8510333"><ele>810.5</ele><time>2026-05-03T09:51:45.277Z</time></trkpt><trkpt lat="44.0619833" lon="6.8512017"><ele>809.0</ele><time>2026-05-03T09:51:46.276Z</time></trkpt><trkpt lat="44.0619767" lon="6.85138"><ele>809.0</ele><time>2026-05-03T09:51:47.276Z</time></trkpt><trkpt lat="44.0619667" lon="6.8515583"><ele>809.0</ele><time>2026-05-03T09:51:48.276Z</time></trkpt><trkpt lat="44.061975" lon="6.8517317"><ele>809.0</ele><time>2026-05-03T09:51:49.276Z</time></trkpt><trkpt lat="44.0619767" lon="6.8519183"><ele>809.0</ele><time>2026-05-03T09:51:50.276Z</time></trkpt><trkpt lat="44.061985" lon="6.8521067"><ele>809.25</ele><time>2026-05-03T09:51:51.276Z</time></trkpt><trkpt lat="44.0619767" lon="6.8522917"><ele>809.5</ele><time>2026-05-03T09:51:52.277Z</time></trkpt><trkpt lat="44.0620017" lon="6.8524617"><ele>809.75</ele><time>2026-05-03T09:51:53.276Z</time></trkpt><trkpt lat="44.0620317" lon="6.8526233"><ele>810.0</ele><time>2026-05-03T09:51:54.276Z</time></trkpt><trkpt lat="44.0620717" lon="6.85278"><ele>808.5</ele><time>2026-05-03T09:51:55.276Z</time></trkpt><trkpt lat="44.0621133" lon="6.8529383"><ele>807.0</ele><time>2026-05-03T09:51:56.277Z</time></trkpt><trkpt lat="44.0621217" lon="6.8530917"><ele>805.5</ele><time>2026-05-03T09:51:57.276Z</time></trkpt><trkpt lat="44.0621167" lon="6.85325"><ele>804.0</ele><time>2026-05-03T09:51:58.276Z</time></trkpt><trkpt lat="44.0620633" lon="6.8534183"><ele>798.75</ele><time>2026-05-03T09:51:59.276Z</time></trkpt><trkpt lat="44.0620133" lon="6.85355"><ele>793.5</ele><time>2026-05-03T09:52:00.276Z</time></trkpt><trkpt lat="44.0619167" lon="6.853635"><ele>788.25</ele><time>2026-05-03T09:52:01.276Z</time></trkpt><trkpt lat="44.0617983" lon="6.8536983"><ele>783.0</ele><time>2026-05-03T09:52:02.276Z</time></trkpt><trkpt lat="44.06167" lon="6.8537617"><ele>787.4</ele><time>2026-05-03T09:52:03.276Z</time></trkpt><trkpt lat="44.06156" lon="6.8538317"><ele>791.8</ele><time>2026-05-03T09:52:04.276Z</time></trkpt><trkpt lat="44.0614583" lon="6.8539067"><ele>796.2</ele><time>2026-05-03T09:52:05.276Z</time></trkpt><trkpt lat="44.0613583" lon="6.853955"><ele>800.6</ele><time>2026-05-03T09:52:06.277Z</time></trkpt><trkpt lat="44.061265" lon="6.8540117"><ele>805.0</ele><time>2026-05-03T09:52:07.276Z</time></trkpt><trkpt lat="44.0611633" lon="6.8540717"><ele>805.0</ele><time>2026-05-03T09:52:08.276Z</time></trkpt><trkpt lat="44.0610567" lon="6.854135"><ele>805.0</ele><time>2026-05-03T09:52:09.277Z</time></trkpt><trkpt lat="44.060955" lon="6.8541967"><ele>805.0</ele><time>2026-05-03T09:52:10.276Z</time></trkpt><trkpt lat="44.060865" lon="6.8541783"><ele>805.0</ele><time>2026-05-03T09:52:11.276Z</time></trkpt><trkpt lat="44.0607317" lon="6.8542017"><ele>796.8</ele><time>2026-05-03T09:52:12.276Z</time></trkpt><trkpt lat="44.0606517" lon="6.85418"><ele>788.6</ele><time>2026-05-03T09:52:13.276Z</time></trkpt><trkpt lat="44.0605633" lon="6.8541333"><ele>780.4000000000001</ele><time>2026-05-03T09:52:14.276Z</time></trkpt><trkpt lat="44.0605117" lon="6.8540383"><ele>772.2</ele><time>2026-05-03T09:52:15.276Z</time></trkpt><trkpt lat="44.060445" lon="6.8538933"><ele>764.0</ele><time>2026-05-03T09:52:16.276Z</time></trkpt><trkpt lat="44.0603683" lon="6.853755"><ele>764.0</ele><time>2026-05-03T09:52:17.276Z</time></trkpt><trkpt lat="44.06029" lon="6.8536383"><ele>764.0</ele><time>2026-05-03T09:52:18.276Z</time></trkpt><trkpt lat="44.0602217" lon="6.8535117"><ele>764.0</ele><time>2026-05-03T09:52:19.276Z</time></trkpt><trkpt lat="44.06017" lon="6.8533167"><ele>764.0</ele><time>2026-05-03T09:52:20.276Z</time></trkpt><trkpt lat="44.06012" lon="6.8531467"><ele>763.0</ele><time>2026-05-03T09:52:21.276Z</time></trkpt><trkpt lat="44.0600467" lon="6.8529983"><ele>762.0</ele><time>2026-05-03T09:52:22.277Z</time></trkpt><trkpt lat="44.0599717" lon="6.852855"><ele>761.0</ele><time>2026-05-03T09:52:23.276Z</time></trkpt><trkpt lat="44.0598933" lon="6.8527217"><ele>760.0</ele><time>2026-05-03T09:52:24.276Z</time></trkpt><trkpt lat="44.059815" lon="6.8525667"><ele>765.25</ele><time>2026-05-03T09:52:25.276Z</time></trkpt><trkpt lat="44.059765" lon="6.85239"><ele>770.5</ele><time>2026-05-03T09:52:26.276Z</time></trkpt><trkpt lat="44.0597183" lon="6.8522367"><ele>775.75</ele><time>2026-05-03T09:52:27.276Z</time></trkpt><trkpt lat="44.05967" lon="6.8520883"><ele>781.0</ele><time>2026-05-03T09:52:28.276Z</time></trkpt><trkpt lat="44.0595967" lon="6.851975"><ele>781.0</ele><time>2026-05-03T09:52:29.276Z</time></trkpt><trkpt lat="44.0595067" lon="6.851885"><ele>781.0</ele><time>2026-05-03T09:52:30.276Z</time></trkpt><trkpt lat="44.0593783" lon="6.8518267"><ele>781.0</ele><time>2026-05-03T09:52:31.276Z</time></trkpt><trkpt lat="44.0592517" lon="6.851795"><ele>781.0</ele><time>2026-05-03T09:52:32.276Z</time></trkpt><trkpt lat="44.0591433" lon="6.85179"><ele>784.25</ele><time>2026-05-03T09:52:33.276Z</time></trkpt><trkpt lat="44.0590217" lon="6.851825"><ele>787.5</ele><time>2026-05-03T09:52:34.276Z</time></trkpt><trkpt lat="44.0589017" lon="6.8518983"><ele>790.75</ele><time>2026-05-03T09:52:35.276Z</time></trkpt><trkpt lat="44.0588017" lon="6.852005"><ele>794.0</ele><time>2026-05-03T09:52:36.276Z</time></trkpt><trkpt lat="44.0587083" lon="6.852125"><ele>794.0</ele><time>2026-05-03T09:52:37.276Z</time></trkpt><trkpt lat="44.0586283" lon="6.8522367"><ele>794.0</ele><time>2026-05-03T09:52:38.276Z</time></trkpt><trkpt lat="44.0585483" lon="6.8523333"><ele>794.0</ele><time>2026-05-03T09:52:39.276Z</time></trkpt><trkpt lat="44.0584583" lon="6.8524"><ele>794.0</ele><time>2026-05-03T09:52:40.276Z</time></trkpt><trkpt lat="44.0583583" lon="6.8524433"><ele>794.0</ele><time>2026-05-03T09:52:41.276Z</time></trkpt><trkpt lat="44.0582483" lon="6.852465"><ele>795.25</ele><time>2026-05-03T09:52:42.276Z</time></trkpt><trkpt lat="44.05811" lon="6.852465"><ele>796.5</ele><time>2026-05-03T09:52:43.276Z</time></trkpt><trkpt lat="44.0579817" lon="6.8524783"><ele>797.75</ele><time>2026-05-03T09:52:44.276Z</time></trkpt><trkpt lat="44.0578633" lon="6.8524883"><ele>799.0</ele><time>2026-05-03T09:52:45.276Z</time></trkpt><trkpt lat="44.057745" lon="6.852505"><ele>799.0</ele><time>2026-05-03T09:52:46.276Z</time></trkpt><trkpt lat="44.05764" lon="6.8524983"><ele>799.0</ele><time>2026-05-03T09:52:47.276Z</time></trkpt><trkpt lat="44.057555" lon="6.8524817"><ele>799.0</ele><time>2026-05-03T09:52:48.276Z</time></trkpt><trkpt lat="44.0574583" lon="6.8524067"><ele>799.0</ele><time>2026-05-03T09:52:49.276Z</time></trkpt><trkpt lat="44.0573767" lon="6.8522983"><ele>799.0</ele><time>2026-05-03T09:52:50.276Z</time></trkpt><trkpt lat="44.0573233" lon="6.8521567"><ele>797.0</ele><time>2026-05-03T09:52:51.276Z</time></trkpt><trkpt lat="44.0572933" lon="6.8519833"><ele>795.0</ele><time>2026-05-03T09:52:52.276Z</time></trkpt><trkpt lat="44.0572933" lon="6.8518067"><ele>793.0</ele><time>2026-05-03T09:52:53.277Z</time></trkpt><trkpt lat="44.0573067" lon="6.8516417"><ele>791.0</ele><time>2026-05-03T09:52:54.276Z</time></trkpt><trkpt lat="44.0572983" lon="6.85146"><ele>791.0</ele><time>2026-05-03T09:52:55.277Z</time></trkpt><trkpt lat="44.057275" lon="6.8513"><ele>791.0</ele><time>2026-05-03T09:52:56.276Z</time></trkpt><trkpt lat="44.05723" lon="6.8511533"><ele>791.0</ele><time>2026-05-03T09:52:57.276Z</time></trkpt><trkpt lat="44.0571633" lon="6.8510317"><ele>791.0</ele><time>2026-05-03T09:52:58.276Z</time></trkpt><trkpt lat="44.0571" lon="6.85093"><ele>791.0</ele><time>2026-05-03T09:52:59.276Z</time></trkpt><trkpt lat="44.0570083" lon="6.8508667"><ele>794.8</ele><time>2026-05-03T09:53:00.276Z</time></trkpt><trkpt lat="44.0569017" lon="6.8508383"><ele>798.5999999999999</ele><time>2026-05-03T09:53:01.276Z</time></trkpt><trkpt lat="44.0567917" lon="6.8508217"><ele>802.4</ele><time>2026-05-03T09:53:02.276Z</time></trkpt><trkpt lat="44.05669" lon="6.8507967"><ele>806.2</ele><time>2026-05-03T09:53:03.276Z</time></trkpt><trkpt lat="44.0565917" lon="6.8507583"><ele>810.0</ele><time>2026-05-03T09:53:04.276Z</time></trkpt><trkpt lat="44.056425" lon="6.8507383"><ele>810.0</ele><time>2026-05-03T09:53:05.276Z</time></trkpt><trkpt lat="44.0563167" lon="6.850695"><ele>810.0</ele><time>2026-05-03T09:53:06.276Z</time></trkpt><trkpt lat="44.0562117" lon="6.850695"><ele>810.0</ele><time>2026-05-03T09:53:07.276Z</time></trkpt><trkpt lat="44.0561133" lon="6.85073"><ele>810.0</ele><time>2026-05-03T09:53:08.276Z</time></trkpt><trkpt lat="44.0560317" lon="6.8507667"><ele>810.0</ele><time>2026-05-03T09:53:09.277Z</time></trkpt><trkpt lat="44.0559533" lon="6.8508033"><ele>810.0</ele><time>2026-05-03T09:53:10.276Z</time></trkpt><trkpt lat="44.0558633" lon="6.8508233"><ele>810.0</ele><time>2026-05-03T09:53:11.276Z</time></trkpt><trkpt lat="44.0557783" lon="6.8508083"><ele>810.0</ele><time>2026-05-03T09:53:12.276Z</time></trkpt><trkpt lat="44.0556883" lon="6.8507533"><ele>810.0</ele><time>2026-05-03T09:53:13.276Z</time></trkpt><trkpt lat="44.055595" lon="6.8506667"><ele>810.0</ele><time>2026-05-03T09:53:14.276Z</time></trkpt><trkpt lat="44.0554767" lon="6.8505817"><ele>807.5</ele><time>2026-05-03T09:53:15.276Z</time></trkpt><trkpt lat="44.0553733" lon="6.850485"><ele>805.0</ele><time>2026-05-03T09:53:16.277Z</time></trkpt><trkpt lat="44.0552867" lon="6.850375"><ele>802.5</ele><time>2026-05-03T09:53:17.276Z</time></trkpt><trkpt lat="44.0552333" lon="6.8502267"><ele>800.0</ele><time>2026-05-03T09:53:18.276Z</time></trkpt><trkpt lat="44.0552017" lon="6.850065"><ele>799.25</ele><time>2026-05-03T09:53:19.276Z</time></trkpt><trkpt lat="44.0552" lon="6.8498917"><ele>798.5</ele><time>2026-05-03T09:53:20.276Z</time></trkpt><trkpt lat="44.0551783" lon="6.8497367"><ele>797.75</ele><time>2026-05-03T09:53:21.276Z</time></trkpt><trkpt lat="44.0551367" lon="6.8496"><ele>797.0</ele><time>2026-05-03T09:53:22.277Z</time></trkpt><trkpt lat="44.0550967" lon="6.8494517"><ele>797.0</ele><time>2026-05-03T09:53:23.276Z</time></trkpt><trkpt lat="44.055055" lon="6.8493"><ele>797.0</ele><time>2026-05-03T09:53:24.276Z</time></trkpt><trkpt lat="44.0550117" lon="6.8491433"><ele>797.0</ele><time>2026-05-03T09:53:25.277Z</time></trkpt><trkpt lat="44.0549667" lon="6.848975"><ele>797.0</ele><time>2026-05-03T09:53:26.276Z</time></trkpt><trkpt lat="44.054905" lon="6.8488217"><ele>790.4000000000001</ele><time>2026-05-03T09:53:27.276Z</time></trkpt><trkpt lat="44.05482" lon="6.8486983"><ele>783.8000000000001</ele><time>2026-05-03T09:53:28.277Z</time></trkpt><trkpt lat="44.0547883" lon="6.848585"><ele>777.2</ele><time>2026-05-03T09:53:29.276Z</time></trkpt><trkpt lat="44.0547917" lon="6.8484483"><ele>770.6</ele><time>2026-05-03T09:53:30.276Z</time></trkpt><trkpt lat="44.05482" lon="6.8482933"><ele>764.0</ele><time>2026-05-03T09:53:31.276Z</time></trkpt><trkpt lat="44.0548733" lon="6.848155"><ele>762.75</ele><time>2026-05-03T09:53:32.276Z</time></trkpt><trkpt lat="44.0549233" lon="6.8479967"><ele>761.5</ele><time>2026-05-03T09:53:33.276Z</time></trkpt><trkpt lat="44.0549767" lon="6.8478333"><ele>760.25</ele><time>2026-05-03T09:53:34.276Z</time></trkpt><trkpt lat="44.0550383" lon="6.8476633"><ele>759.0</ele><time>2026-05-03T09:53:35.276Z</time></trkpt><trkpt lat="44.0550967" lon="6.8474933"><ele>770.75</ele><time>2026-05-03T09:53:36.276Z</time></trkpt><trkpt lat="44.0551667" lon="6.8473167"><ele>782.5</ele><time>2026-05-03T09:53:37.276Z</time></trkpt><trkpt lat="44.0552383" lon="6.8471367"><ele>794.25</ele><time>2026-05-03T09:53:38.276Z</time></trkpt><trkpt lat="44.055325" lon="6.8469817"><ele>806.0</ele><time>2026-05-03T09:53:39.276Z</time></trkpt><trkpt lat="44.0554017" lon="6.846825"><ele>805.0</ele><time>2026-05-03T09:53:40.276Z</time></trkpt><trkpt lat="44.05547" lon="6.8466767"><ele>804.0</ele><time>2026-05-03T09:53:41.276Z</time></trkpt><trkpt lat="44.0555417" lon="6.8465533"><ele>803.0</ele><time>2026-05-03T09:53:42.276Z</time></trkpt><trkpt lat="44.0556033" lon="6.846415"><ele>802.0</ele><time>2026-05-03T09:53:43.277Z</time></trkpt><trkpt lat="44.055615" lon="6.8462533"><ele>802.0</ele><time>2026-05-03T09:53:44.276Z</time></trkpt><trkpt lat="44.0555833" lon="6.8460883"><ele>802.0</ele><time>2026-05-03T09:53:45.276Z</time></trkpt><trkpt lat="44.0555217" lon="6.8459183"><ele>802.0</ele><time>2026-05-03T09:53:46.277Z</time></trkpt><trkpt lat="44.0554717" lon="6.8457483"><ele>802.0</ele><time>2026-05-03T09:53:47.277Z</time></trkpt><trkpt lat="44.0554217" lon="6.8455917"><ele>804.8</ele><time>2026-05-03T09:53:48.276Z</time></trkpt><trkpt lat="44.0553817" lon="6.845445"><ele>807.6</ele><time>2026-05-03T09:53:49.276Z</time></trkpt><trkpt lat="44.0553317" lon="6.8453183"><ele>810.4</ele><time>2026-05-03T09:53:50.276Z</time></trkpt><trkpt lat="44.05528" lon="6.8452317"><ele>813.1999999999999</ele><time>2026-05-03T09:53:51.277Z</time></trkpt><trkpt lat="44.0552067" lon="6.8451633"><ele>816.0</ele><time>2026-05-03T09:53:52.276Z</time></trkpt><trkpt lat="44.0551233" lon="6.8451283"><ele>816.0</ele><time>2026-05-03T09:53:53.276Z</time></trkpt><trkpt lat="44.0550233" lon="6.8451417"><ele>816.0</ele><time>2026-05-03T09:53:54.276Z</time></trkpt><trkpt lat="44.0549117" lon="6.845185"><ele>816.0</ele><time>2026-05-03T09:53:55.276Z</time></trkpt><trkpt lat="44.0547983" lon="6.8452333"><ele>816.0</ele><time>2026-05-03T09:53:56.277Z</time></trkpt><trkpt lat="44.0546817" lon="6.8452667"><ele>814.8</ele><time>2026-05-03T09:53:57.276Z</time></trkpt><trkpt lat="44.0545667" lon="6.8452783"><ele>813.5999999999999</ele><time>2026-05-03T09:53:58.277Z</time></trkpt><trkpt lat="44.05446" lon="6.8452567"><ele>812.4</ele><time>2026-05-03T09:53:59.276Z</time></trkpt><trkpt lat="44.0543533" lon="6.8452067"><ele>811.2</ele><time>2026-05-03T09:54:00.276Z</time></trkpt><trkpt lat="44.0542533" lon="6.8451333"><ele>810.0</ele><time>2026-05-03T09:54:01.277Z</time></trkpt><trkpt lat="44.05415" lon="6.84505"><ele>817.6</ele><time>2026-05-03T09:54:02.277Z</time></trkpt><trkpt lat="44.0540483" lon="6.8449717"><ele>825.2</ele><time>2026-05-03T09:54:03.276Z</time></trkpt><trkpt lat="44.0539467" lon="6.84492"><ele>832.8</ele><time>2026-05-03T09:54:04.276Z</time></trkpt><trkpt lat="44.0538417" lon="6.8449183"><ele>840.4</ele><time>2026-05-03T09:54:05.276Z</time></trkpt><trkpt lat="44.0537383" lon="6.84494"><ele>848.0</ele><time>2026-05-03T09:54:06.276Z</time></trkpt><trkpt lat="44.0536267" lon="6.84498"><ele>848.0</ele><time>2026-05-03T09:54:07.276Z</time></trkpt><trkpt lat="44.0535183" lon="6.8450267"><ele>848.0</ele><time>2026-05-03T09:54:08.276Z</time></trkpt><trkpt lat="44.0534133" lon="6.8450633"><ele>848.0</ele><time>2026-05-03T09:54:09.276Z</time></trkpt><trkpt lat="44.053305" lon="6.8451017"><ele>848.0</ele><time>2026-05-03T09:54:10.276Z</time></trkpt><trkpt lat="44.0532033" lon="6.8451383"><ele>848.0</ele><time>2026-05-03T09:54:11.276Z</time></trkpt><trkpt lat="44.0531067" lon="6.8452133"><ele>848.2</ele><time>2026-05-03T09:54:12.276Z</time></trkpt><trkpt lat="44.0530033" lon="6.8452317"><ele>848.4</ele><time>2026-05-03T09:54:13.276Z</time></trkpt><trkpt lat="44.052905" lon="6.84522"><ele>848.6</ele><time>2026-05-03T09:54:14.276Z</time></trkpt><trkpt lat="44.0527933" lon="6.8451783"><ele>848.8000000000001</ele><time>2026-05-03T09:54:15.276Z</time></trkpt><trkpt lat="44.052675" lon="6.8451567"><ele>849.0</ele><time>2026-05-03T09:54:16.276Z</time></trkpt><trkpt lat="44.052565" lon="6.8450783"><ele>849.0</ele><time>2026-05-03T09:54:17.276Z</time></trkpt><trkpt lat="44.052465" lon="6.845065"><ele>849.0</ele><time>2026-05-03T09:54:18.276Z</time></trkpt><trkpt lat="44.0523617" lon="6.845095"><ele>849.0</ele><time>2026-05-03T09:54:19.276Z</time></trkpt><trkpt lat="44.0522633" lon="6.8451717"><ele>849.0</ele><time>2026-05-03T09:54:20.276Z</time></trkpt><trkpt lat="44.0521567" lon="6.845225"><ele>849.0</ele><time>2026-05-03T09:54:21.276Z</time></trkpt><trkpt lat="44.0520583" lon="6.845225"><ele>846.5</ele><time>2026-05-03T09:54:22.276Z</time></trkpt><trkpt lat="44.051945" lon="6.8452033"><ele>844.0</ele><time>2026-05-03T09:54:23.276Z</time></trkpt><trkpt lat="44.051845" lon="6.8451367"><ele>841.5</ele><time>2026-05-03T09:54:24.276Z</time></trkpt><trkpt lat="44.0517683" lon="6.8449567"><ele>839.0</ele><time>2026-05-03T09:54:25.276Z</time></trkpt><trkpt lat="44.0516817" lon="6.8448367"><ele>834.5</ele><time>2026-05-03T09:54:26.277Z</time></trkpt><trkpt lat="44.0515867" lon="6.8447183"><ele>830.0</ele><time>2026-05-03T09:54:27.276Z</time></trkpt><trkpt lat="44.05149" lon="6.844605"><ele>825.5</ele><time>2026-05-03T09:54:28.276Z</time></trkpt><trkpt lat="44.051395" lon="6.84449"><ele>821.0</ele><time>2026-05-03T09:54:29.276Z</time></trkpt><trkpt lat="44.0512983" lon="6.8443833"><ele>826.0</ele><time>2026-05-03T09:54:30.276Z</time></trkpt><trkpt lat="44.051195" lon="6.8442917"><ele>831.0</ele><time>2026-05-03T09:54:31.276Z</time></trkpt><trkpt lat="44.0511183" lon="6.8442367"><ele>836.0</ele><time>2026-05-03T09:54:32.277Z</time></trkpt><trkpt lat="44.0510133" lon="6.844115"><ele>841.0</ele><time>2026-05-03T09:54:33.276Z</time></trkpt><trkpt lat="44.05094" lon="6.844025"><ele>846.0</ele><time>2026-05-03T09:54:34.276Z</time></trkpt><trkpt lat="44.0508483" lon="6.8439233"><ele>836.25</ele><time>2026-05-03T09:54:35.276Z</time></trkpt><trkpt lat="44.0507533" lon="6.8438267"><ele>826.5</ele><time>2026-05-03T09:54:36.276Z</time></trkpt><trkpt lat="44.05065" lon="6.8437267"><ele>816.75</ele><time>2026-05-03T09:54:37.276Z</time></trkpt><trkpt lat="44.0505383" lon="6.843625"><ele>807.0</ele><time>2026-05-03T09:54:38.276Z</time></trkpt><trkpt lat="44.0504367" lon="6.8435267"><ele>812.0</ele><time>2026-05-03T09:54:39.276Z</time></trkpt><trkpt lat="44.0503467" lon="6.8433867"><ele>817.0</ele><time>2026-05-03T09:54:40.276Z</time></trkpt><trkpt lat="44.050295" lon="6.8432433"><ele>822.0</ele><time>2026-05-03T09:54:41.276Z</time></trkpt><trkpt lat="44.050275" lon="6.8430833"><ele>827.0</ele><time>2026-05-03T09:54:42.277Z</time></trkpt><trkpt lat="44.0502583" lon="6.8429383"><ele>827.0</ele><time>2026-05-03T09:54:43.276Z</time></trkpt><trkpt lat="44.0502467" lon="6.8427767"><ele>827.0</ele><time>2026-05-03T09:54:44.276Z</time></trkpt><trkpt lat="44.0502033" lon="6.8426433"><ele>827.0</ele><time>2026-05-03T09:54:45.276Z</time></trkpt><trkpt lat="44.0501383" lon="6.84253"><ele>827.0</ele><time>2026-05-03T09:54:46.276Z</time></trkpt><trkpt lat="44.0500667" lon="6.8424067"><ele>827.0</ele><time>2026-05-03T09:54:47.276Z</time></trkpt><trkpt lat="44.049995" lon="6.842305"><ele>835.4000000000001</ele><time>2026-05-03T09:54:48.277Z</time></trkpt><trkpt lat="44.0499167" lon="6.84221"><ele>843.8000000000001</ele><time>2026-05-03T09:54:49.276Z</time></trkpt><trkpt lat="44.0498217" lon="6.8421433"><ele>852.2</ele><time>2026-05-03T09:54:50.276Z</time></trkpt><trkpt lat="44.0497217" lon="6.8421317"><ele>860.6</ele><time>2026-05-03T09:54:51.276Z</time></trkpt><trkpt lat="44.049625" lon="6.84215"><ele>869.0</ele><time>2026-05-03T09:54:52.276Z</time></trkpt><trkpt lat="44.0495283" lon="6.8421683"><ele>869.0</ele><time>2026-05-03T09:54:53.276Z</time></trkpt><trkpt lat="44.049435" lon="6.84219"><ele>869.0000000000001</ele><time>2026-05-03T09:54:54.276Z</time></trkpt><trkpt lat="44.0493367" lon="6.8422083"><ele>869.0000000000001</ele><time>2026-05-03T09:54:55.277Z</time></trkpt><trkpt lat="44.0492317" lon="6.842225"><ele>869.0</ele><time>2026-05-03T09:54:56.276Z</time></trkpt><trkpt lat="44.04912" lon="6.8422383"><ele>869.0</ele><time>2026-05-03T09:54:57.276Z</time></trkpt><trkpt lat="44.0489933" lon="6.8422717"><ele>885.5</ele><time>2026-05-03T09:54:58.276Z</time></trkpt><trkpt lat="44.0487767" lon="6.8423117"><ele>902.0</ele><time>2026-05-03T09:55:00.276Z</time></trkpt><trkpt lat="44.04711" lon="6.8431183"><ele>884.0</ele><time>2026-05-03T09:55:14.274Z</time></trkpt><trkpt lat="44.046955" lon="6.8430833"><ele>866.0</ele><time>2026-05-03T09:55:16.274Z</time></trkpt><trkpt lat="44.04686" lon="6.84304"><ele>848.0</ele><time>2026-05-03T09:55:17.274Z</time></trkpt><trkpt lat="44.046755" lon="6.8429733"><ele>830.0</ele><time>2026-05-03T09:55:18.274Z</time></trkpt><trkpt lat="44.046635" lon="6.84294"><ele>840.5</ele><time>2026-05-03T09:55:19.274Z</time></trkpt><trkpt lat="44.0465217" lon="6.8428917"><ele>851.0</ele><time>2026-05-03T09:55:20.274Z</time></trkpt><trkpt lat="44.0464" lon="6.842835"><ele>861.5</ele><time>2026-05-03T09:55:21.274Z</time></trkpt><trkpt lat="44.0462883" lon="6.8427833"><ele>872.0</ele><time>2026-05-03T09:55:22.274Z</time></trkpt><trkpt lat="44.0461817" lon="6.8427317"><ele>872.0</ele><time>2026-05-03T09:55:23.274Z</time></trkpt><trkpt lat="44.0460833" lon="6.8426833"><ele>872.0</ele><time>2026-05-03T09:55:24.274Z</time></trkpt><trkpt lat="44.045975" lon="6.8426333"><ele>872.0</ele><time>2026-05-03T09:55:25.274Z</time></trkpt><trkpt lat="44.045865" lon="6.8425833"><ele>872.0</ele><time>2026-05-03T09:55:26.274Z</time></trkpt><trkpt lat="44.04576" lon="6.8425367"><ele>872.0</ele><time>2026-05-03T09:55:27.274Z</time></trkpt><trkpt lat="44.0456467" lon="6.84249"><ele>886.5</ele><time>2026-05-03T09:55:28.274Z</time></trkpt><trkpt lat="44.0455433" lon="6.8424433"><ele>901.0</ele><time>2026-05-03T09:55:29.274Z</time></trkpt><trkpt lat="44.0449283" lon="6.8410983"><ele>875.0</ele><time>2026-05-03T09:55:36.274Z</time></trkpt><trkpt lat="44.0446917" lon="6.8408817"><ele>849.0</ele><time>2026-05-03T09:55:37.275Z</time></trkpt><trkpt lat="44.044625" lon="6.8407367"><ele>823.0</ele><time>2026-05-03T09:55:38.275Z</time></trkpt><trkpt lat="44.0445917" lon="6.8405617"><ele>823.0</ele><time>2026-05-03T09:55:39.274Z</time></trkpt><trkpt lat="44.0445383" lon="6.84039"><ele>823.0</ele><time>2026-05-03T09:55:40.274Z</time></trkpt><trkpt lat="44.0444667" lon="6.8402283"><ele>823.0</ele><time>2026-05-03T09:55:41.274Z</time></trkpt><trkpt lat="44.0443917" lon="6.8401033"><ele>823.0</ele><time>2026-05-03T09:55:42.274Z</time></trkpt><trkpt lat="44.0443067" lon="6.840035"><ele>826.4</ele><time>2026-05-03T09:55:43.274Z</time></trkpt><trkpt lat="44.0442067" lon="6.8400083"><ele>829.8</ele><time>2026-05-03T09:55:44.274Z</time></trkpt><trkpt lat="44.0441" lon="6.84001"><ele>833.2</ele><time>2026-05-03T09:55:45.274Z</time></trkpt><trkpt lat="44.0439967" lon="6.8400383"><ele>836.6</ele><time>2026-05-03T09:55:46.274Z</time></trkpt><trkpt lat="44.043895" lon="6.8400767"><ele>840.0</ele><time>2026-05-03T09:55:47.274Z</time></trkpt><trkpt lat="44.0437883" lon="6.8401167"><ele>834.75</ele><time>2026-05-03T09:55:48.274Z</time></trkpt><trkpt lat="44.0436767" lon="6.8401633"><ele>829.5</ele><time>2026-05-03T09:55:49.274Z</time></trkpt><trkpt lat="44.043555" lon="6.8402267"><ele>824.25</ele><time>2026-05-03T09:55:50.274Z</time></trkpt><trkpt lat="44.0434617" lon="6.8402883"><ele>819.0</ele><time>2026-05-03T09:55:51.274Z</time></trkpt><trkpt lat="44.0433567" lon="6.8403467"><ele>813.2</ele><time>2026-05-03T09:55:52.275Z</time></trkpt><trkpt lat="44.043275" lon="6.8404017"><ele>807.4000000000001</ele><time>2026-05-03T09:55:53.274Z</time></trkpt><trkpt lat="44.0431783" lon="6.8404117"><ele>801.6</ele><time>2026-05-03T09:55:54.275Z</time></trkpt><trkpt lat="44.0430733" lon="6.8403733"><ele>795.8</ele><time>2026-05-03T09:55:55.274Z</time></trkpt><trkpt lat="44.042955" lon="6.8403433"><ele>790.0</ele><time>2026-05-03T09:55:56.274Z</time></trkpt><trkpt lat="44.0428433" lon="6.8403033"><ele>790.0</ele><time>2026-05-03T09:55:57.274Z</time></trkpt><trkpt lat="44.0427367" lon="6.8402567"><ele>790.0</ele><time>2026-05-03T09:55:58.274Z</time></trkpt><trkpt lat="44.0426183" lon="6.8402083"><ele>790.0</ele><time>2026-05-03T09:55:59.275Z</time></trkpt><trkpt lat="44.0425017" lon="6.84015"><ele>790.0</ele><time>2026-05-03T09:56:00.274Z</time></trkpt><trkpt lat="44.042385" lon="6.8400983"><ele>794.0</ele><time>2026-05-03T09:56:01.275Z</time></trkpt><trkpt lat="44.0422617" lon="6.8400433"><ele>798.0</ele><time>2026-05-03T09:56:02.274Z</time></trkpt><trkpt lat="44.0421367" lon="6.83999"><ele>802.0</ele><time>2026-05-03T09:56:03.274Z</time></trkpt><trkpt lat="44.0420167" lon="6.8399367"><ele>806.0</ele><time>2026-05-03T09:56:04.274Z</time></trkpt><trkpt lat="44.0418983" lon="6.8398883"><ele>806.0</ele><time>2026-05-03T09:56:05.274Z</time></trkpt><trkpt lat="44.0417817" lon="6.83984"><ele>806.0</ele><time>2026-05-03T09:56:06.274Z</time></trkpt><trkpt lat="44.04167" lon="6.83979"><ele>806.0</ele><time>2026-05-03T09:56:07.274Z</time></trkpt><trkpt lat="44.0416483" lon="6.839595"><ele>806.0</ele><time>2026-05-03T09:56:08.274Z</time></trkpt><trkpt lat="44.0416217" lon="6.8393383"><ele>799.3333333333334</ele><time>2026-05-03T09:56:09.274Z</time></trkpt><trkpt lat="44.0415667" lon="6.8391533"><ele>792.6666666666667</ele><time>2026-05-03T09:56:10.274Z</time></trkpt><trkpt lat="44.0415083" lon="6.8389317"><ele>786.0</ele><time>2026-05-03T09:56:11.274Z</time></trkpt><trkpt lat="44.0414417" lon="6.8387633"><ele>786.0</ele><time>2026-05-03T09:56:12.274Z</time></trkpt><trkpt lat="44.0413417" lon="6.838635"><ele>786.0</ele><time>2026-05-03T09:56:13.274Z</time></trkpt><trkpt lat="44.0412383" lon="6.8385483"><ele>786.0</ele><time>2026-05-03T09:56:14.274Z</time></trkpt><trkpt lat="44.0411217" lon="6.8384617"><ele>786.0</ele><time>2026-05-03T09:56:15.274Z</time></trkpt><trkpt lat="44.0410067" lon="6.83839"><ele>776.5</ele><time>2026-05-03T09:56:16.274Z</time></trkpt><trkpt lat="44.0409" lon="6.8383317"><ele>767.0</ele><time>2026-05-03T09:56:17.274Z</time></trkpt><trkpt lat="44.0407833" lon="6.83824"><ele>757.5</ele><time>2026-05-03T09:56:18.274Z</time></trkpt><trkpt lat="44.0406967" lon="6.8381117"><ele>748.0</ele><time>2026-05-03T09:56:19.274Z</time></trkpt><trkpt lat="44.040615" lon="6.8380033"><ele>748.0</ele><time>2026-05-03T09:56:20.274Z</time></trkpt><trkpt lat="44.0405333" lon="6.8378917"><ele>748.0</ele><time>2026-05-03T09:56:21.275Z</time></trkpt><trkpt lat="44.0404417" lon="6.8378017"><ele>748.0</ele><time>2026-05-03T09:56:22.275Z</time></trkpt><trkpt lat="44.0403683" lon="6.8376983"><ele>748.0</ele><time>2026-05-03T09:56:23.274Z</time></trkpt><trkpt lat="44.0403133" lon="6.837575"><ele>748.0</ele><time>2026-05-03T09:56:24.274Z</time></trkpt><trkpt lat="44.0402917" lon="6.8374283"><ele>757.25</ele><time>2026-05-03T09:56:25.274Z</time></trkpt><trkpt lat="44.0402933" lon="6.83727"><ele>766.5</ele><time>2026-05-03T09:56:26.274Z</time></trkpt><trkpt lat="44.0403233" lon="6.8371167"><ele>775.75</ele><time>2026-05-03T09:56:27.274Z</time></trkpt><trkpt lat="44.04039" lon="6.8369733"><ele>785.0</ele><time>2026-05-03T09:56:28.274Z</time></trkpt><trkpt lat="44.0404967" lon="6.8368433"><ele>780.75</ele><time>2026-05-03T09:56:29.274Z</time></trkpt><trkpt lat="44.0406067" lon="6.8367117"><ele>776.5</ele><time>2026-05-03T09:56:30.274Z</time></trkpt><trkpt lat="44.04073" lon="6.8366133"><ele>772.25</ele><time>2026-05-03T09:56:31.274Z</time></trkpt><trkpt lat="44.04085" lon="6.8365117"><ele>768.0</ele><time>2026-05-03T09:56:32.274Z</time></trkpt><trkpt lat="44.04097" lon="6.836415"><ele>770.0</ele><time>2026-05-03T09:56:33.274Z</time></trkpt><trkpt lat="44.04109" lon="6.836315"><ele>772.0</ele><time>2026-05-03T09:56:34.274Z</time></trkpt><trkpt lat="44.04121" lon="6.8362367"><ele>774.0</ele><time>2026-05-03T09:56:35.274Z</time></trkpt><trkpt lat="44.0412883" lon="6.8361083"><ele>776.0</ele><time>2026-05-03T09:56:36.274Z</time></trkpt><trkpt lat="44.0413383" lon="6.8359567"><ele>776.0</ele><time>2026-05-03T09:56:37.274Z</time></trkpt><trkpt lat="44.0413733" lon="6.83577"><ele>776.0</ele><time>2026-05-03T09:56:38.274Z</time></trkpt><trkpt lat="44.0414117" lon="6.8355783"><ele>776.0</ele><time>2026-05-03T09:56:39.275Z</time></trkpt><trkpt lat="44.04147" lon="6.8354167"><ele>776.0</ele><time>2026-05-03T09:56:40.274Z</time></trkpt><trkpt lat="44.04156" lon="6.8352833"><ele>781.25</ele><time>2026-05-03T09:56:41.275Z</time></trkpt><trkpt lat="44.0416533" lon="6.8351617"><ele>786.5</ele><time>2026-05-03T09:56:42.275Z</time></trkpt><trkpt lat="44.0417633" lon="6.8350633"><ele>791.75</ele><time>2026-05-03T09:56:43.274Z</time></trkpt><trkpt lat="44.0418417" lon="6.8349667"><ele>797.0</ele><time>2026-05-03T09:56:44.274Z</time></trkpt><trkpt lat="44.0418983" lon="6.834835"><ele>797.0</ele><time>2026-05-03T09:56:45.274Z</time></trkpt><trkpt lat="44.0419233" lon="6.8346883"><ele>797.0</ele><time>2026-05-03T09:56:46.274Z</time></trkpt><trkpt lat="44.041905" lon="6.8345333"><ele>797.0</ele><time>2026-05-03T09:56:47.274Z</time></trkpt><trkpt lat="44.0418567" lon="6.8343733"><ele>797.0</ele><time>2026-05-03T09:56:48.274Z</time></trkpt><trkpt lat="44.0417983" lon="6.8342283"><ele>795.6</ele><time>2026-05-03T09:56:49.274Z</time></trkpt><trkpt lat="44.0417433" lon="6.834085"><ele>794.2</ele><time>2026-05-03T09:56:50.275Z</time></trkpt><trkpt lat="44.04173" lon="6.8339333"><ele>792.8</ele><time>2026-05-03T09:56:51.275Z</time></trkpt><trkpt lat="44.0417417" lon="6.8337933"><ele>791.4</ele><time>2026-05-03T09:56:52.274Z</time></trkpt><trkpt lat="44.0417817" lon="6.8336667"><ele>790.0</ele><time>2026-05-03T09:56:53.274Z</time></trkpt><trkpt lat="44.0418333" lon="6.83356"><ele>787.8</ele><time>2026-05-03T09:56:54.274Z</time></trkpt><trkpt lat="44.04188" lon="6.833465"><ele>785.6</ele><time>2026-05-03T09:56:55.274Z</time></trkpt><trkpt lat="44.041935" lon="6.83337"><ele>783.4000000000001</ele><time>2026-05-03T09:56:56.274Z</time></trkpt><trkpt lat="44.041985" lon="6.8332567"><ele>781.2</ele><time>2026-05-03T09:56:57.274Z</time></trkpt><trkpt lat="44.0420333" lon="6.8331383"><ele>779.0</ele><time>2026-05-03T09:56:58.274Z</time></trkpt><trkpt lat="44.0420883" lon="6.8330367"><ele>779.0000000000001</ele><time>2026-05-03T09:56:59.275Z</time></trkpt><trkpt lat="44.04213" lon="6.8329567"><ele>779.0</ele><time>2026-05-03T09:57:00.275Z</time></trkpt><trkpt lat="44.0421933" lon="6.8328417"><ele>779.0</ele><time>2026-05-03T09:57:02.274Z</time></trkpt><trkpt lat="44.0422367" lon="6.83277"><ele>779.0</ele><time>2026-05-03T09:57:04.274Z</time></trkpt><trkpt lat="44.0421617" lon="6.8328217"><ele>779.0000000000001</ele><time>2026-05-03T09:57:32.274Z</time></trkpt><trkpt lat="44.0421267" lon="6.8329067"><ele>779.0</ele><time>2026-05-03T09:57:33.274Z</time></trkpt><trkpt lat="44.0420833" lon="6.8330133"><ele>779.0</ele><time>2026-05-03T09:57:34.275Z</time></trkpt><trkpt lat="44.042035" lon="6.8331333"><ele>779.0</ele><time>2026-05-03T09:57:35.274Z</time></trkpt><trkpt lat="44.0419817" lon="6.8332617"><ele>779.0</ele><time>2026-05-03T09:57:36.275Z</time></trkpt><trkpt lat="44.041925" lon="6.8333917"><ele>779.0</ele><time>2026-05-03T09:57:37.274Z</time></trkpt><trkpt lat="44.0418683" lon="6.8335317"><ele>779.0</ele><time>2026-05-03T09:57:38.274Z</time></trkpt><trkpt lat="44.041815" lon="6.833665"><ele>781.2</ele><time>2026-05-03T09:57:39.274Z</time></trkpt><trkpt lat="44.0417733" lon="6.8337983"><ele>783.4000000000001</ele><time>2026-05-03T09:57:40.274Z</time></trkpt><trkpt lat="44.04174" lon="6.833935"><ele>785.6</ele><time>2026-05-03T09:57:41.274Z</time></trkpt><trkpt lat="44.0417333" lon="6.8340933"><ele>787.8</ele><time>2026-05-03T09:57:42.274Z</time></trkpt><trkpt lat="44.041755" lon="6.834245"><ele>790.0</ele><time>2026-05-03T09:57:43.274Z</time></trkpt><trkpt lat="44.0418017" lon="6.83438"><ele>791.4</ele><time>2026-05-03T09:57:44.274Z</time></trkpt><trkpt lat="44.041855" lon="6.8345217"><ele>792.8</ele><time>2026-05-03T09:57:45.274Z</time></trkpt><trkpt lat="44.041885" lon="6.8346767"><ele>794.2</ele><time>2026-05-03T09:57:46.275Z</time></trkpt><trkpt lat="44.0418717" lon="6.834805"><ele>795.6</ele><time>2026-05-03T09:57:47.274Z</time></trkpt><trkpt lat="44.0418283" lon="6.834935"><ele>797.0</ele><time>2026-05-03T09:57:48.274Z</time></trkpt><trkpt lat="44.0417533" lon="6.835035"><ele>797.0</ele><time>2026-05-03T09:57:49.275Z</time></trkpt><trkpt lat="44.0416567" lon="6.8351233"><ele>797.0</ele><time>2026-05-03T09:57:50.274Z</time></trkpt><trkpt lat="44.0415533" lon="6.8352233"><ele>797.0</ele><time>2026-05-03T09:57:51.274Z</time></trkpt><trkpt lat="44.04145" lon="6.8353317"><ele>797.0</ele><time>2026-05-03T09:57:52.274Z</time></trkpt><trkpt lat="44.0413833" lon="6.83546"><ele>799.25</ele><time>2026-05-03T09:57:53.274Z</time></trkpt><trkpt lat="44.04133" lon="6.8356"><ele>801.5</ele><time>2026-05-03T09:57:54.274Z</time></trkpt><trkpt lat="44.0412933" lon="6.835755"><ele>803.75</ele><time>2026-05-03T09:57:55.275Z</time></trkpt><trkpt lat="44.041275" lon="6.835915"><ele>806.0</ele><time>2026-05-03T09:57:56.275Z</time></trkpt><trkpt lat="44.0412417" lon="6.83607"><ele>806.0</ele><time>2026-05-03T09:57:57.274Z</time></trkpt><trkpt lat="44.0412" lon="6.8362067"><ele>806.0</ele><time>2026-05-03T09:57:58.275Z</time></trkpt><trkpt lat="44.04113" lon="6.836315"><ele>806.0</ele><time>2026-05-03T09:57:59.274Z</time></trkpt><trkpt lat="44.0410283" lon="6.8364167"><ele>806.0</ele><time>2026-05-03T09:58:00.274Z</time></trkpt><trkpt lat="44.040915" lon="6.83651"><ele>806.0</ele><time>2026-05-03T09:58:01.275Z</time></trkpt><trkpt lat="44.04081" lon="6.8366"><ele>806.0</ele><time>2026-05-03T09:58:02.274Z</time></trkpt><trkpt lat="44.0406933" lon="6.8366833"><ele>806.0</ele><time>2026-05-03T09:58:03.274Z</time></trkpt><trkpt lat="44.0405817" lon="6.836775"><ele>806.0</ele><time>2026-05-03T09:58:04.275Z</time></trkpt><trkpt lat="44.0404967" lon="6.83689"><ele>801.8</ele><time>2026-05-03T09:58:05.274Z</time></trkpt><trkpt lat="44.0404233" lon="6.83699"><ele>797.5999999999999</ele><time>2026-05-03T09:58:06.274Z</time></trkpt><trkpt lat="44.0403533" lon="6.8371017"><ele>793.4</ele><time>2026-05-03T09:58:07.274Z</time></trkpt><trkpt lat="44.0402967" lon="6.8372117"><ele>789.2</ele><time>2026-05-03T09:58:08.274Z</time></trkpt><trkpt lat="44.0402517" lon="6.8373283"><ele>785.0</ele><time>2026-05-03T09:58:09.274Z</time></trkpt><trkpt lat="44.04024" lon="6.8374333"><ele>785.0</ele><time>2026-05-03T09:58:10.274Z</time></trkpt><trkpt lat="44.0402433" lon="6.8375917"><ele>785.0</ele><time>2026-05-03T09:58:12.274Z</time></trkpt><trkpt lat="44.0402767" lon="6.8377133"><ele>785.0</ele><time>2026-05-03T09:58:14.274Z</time></trkpt><trkpt lat="44.040295" lon="6.8377983"><ele>785.0</ele><time>2026-05-03T09:58:16.274Z</time></trkpt><trkpt lat="44.040395" lon="6.837855"><ele>785.0</ele><time>2026-05-03T10:07:57.273Z</time></trkpt><trkpt lat="44.04049" lon="6.8379517"><ele>778.8333333333334</ele><time>2026-05-03T10:07:59.273Z</time></trkpt><trkpt lat="44.0405533" lon="6.8380017"><ele>772.6666666666667</ele><time>2026-05-03T10:08:00.273Z</time></trkpt><trkpt lat="44.0406133" lon="6.83807"><ele>766.5</ele><time>2026-05-03T10:08:01.273Z</time></trkpt><trkpt lat="44.0406917" lon="6.838155"><ele>760.3333333333334</ele><time>2026-05-03T10:08:02.274Z</time></trkpt><trkpt lat="44.0407667" lon="6.8382533"><ele>754.1666666666667</ele><time>2026-05-03T10:08:03.273Z</time></trkpt><trkpt lat="44.04083" lon="6.83835"><ele>748.0</ele><time>2026-05-03T10:08:04.273Z</time></trkpt><trkpt lat="44.0408933" lon="6.83844"><ele>755.5999999999999</ele><time>2026-05-03T10:08:05.273Z</time></trkpt><trkpt lat="44.0409533" lon="6.8385167"><ele>763.1999999999999</ele><time>2026-05-03T10:08:06.273Z</time></trkpt><trkpt lat="44.04103" lon="6.8385567"><ele>770.8</ele><time>2026-05-03T10:08:07.273Z</time></trkpt><trkpt lat="44.0411217" lon="6.8385783"><ele>778.4</ele><time>2026-05-03T10:08:08.273Z</time></trkpt><trkpt lat="44.0412167" lon="6.8385917"><ele>786.0</ele><time>2026-05-03T10:08:09.273Z</time></trkpt><trkpt lat="44.0413117" lon="6.838625"><ele>786.0</ele><time>2026-05-03T10:08:10.273Z</time></trkpt><trkpt lat="44.0414017" lon="6.8386817"><ele>786.0</ele><time>2026-05-03T10:08:11.273Z</time></trkpt><trkpt lat="44.0414733" lon="6.838765"><ele>786.0</ele><time>2026-05-03T10:08:12.273Z</time></trkpt><trkpt lat="44.0415383" lon="6.838865"><ele>786.0</ele><time>2026-05-03T10:08:13.273Z</time></trkpt><trkpt lat="44.0415867" lon="6.838985"><ele>786.0</ele><time>2026-05-03T10:08:14.274Z</time></trkpt><trkpt lat="44.0416333" lon="6.8391217"><ele>790.0</ele><time>2026-05-03T10:08:15.273Z</time></trkpt><trkpt lat="44.04168" lon="6.8392467"><ele>794.0</ele><time>2026-05-03T10:08:16.273Z</time></trkpt><trkpt lat="44.0417517" lon="6.839355"><ele>798.0</ele><time>2026-05-03T10:08:17.273Z</time></trkpt><trkpt lat="44.0418233" lon="6.8394683"><ele>802.0</ele><time>2026-05-03T10:08:18.273Z</time></trkpt><trkpt lat="44.0418933" lon="6.83958"><ele>806.0</ele><time>2026-05-03T10:08:19.273Z</time></trkpt><trkpt lat="44.041965" lon="6.8396883"><ele>790.0</ele><time>2026-05-03T10:08:20.273Z</time></trkpt><trkpt lat="44.0428617" lon="6.84038"><ele>790.0</ele><time>2026-05-03T10:08:29.274Z</time></trkpt><trkpt lat="44.04297" lon="6.840385"><ele>790.0</ele><time>2026-05-03T10:08:30.274Z</time></trkpt><trkpt lat="44.0430833" lon="6.8404217"><ele>790.0</ele><time>2026-05-03T10:08:31.275Z</time></trkpt><trkpt lat="44.0431833" lon="6.8404517"><ele>790.0</ele><time>2026-05-03T10:08:32.274Z</time></trkpt><trkpt lat="44.0432767" lon="6.8404633"><ele>790.0</ele><time>2026-05-03T10:08:33.274Z</time></trkpt><trkpt lat="44.0433617" lon="6.8404767"><ele>794.8333333333333</ele><time>2026-05-03T10:08:34.274Z</time></trkpt><trkpt lat="44.0434267" lon="6.840525"><ele>799.6666666666666</ele><time>2026-05-03T10:08:35.274Z</time></trkpt><trkpt lat="44.043475" lon="6.84061"><ele>804.5</ele><time>2026-05-03T10:08:36.275Z</time></trkpt><trkpt lat="44.043535" lon="6.84068"><ele>809.3333333333333</ele><time>2026-05-03T10:08:37.274Z</time></trkpt><trkpt lat="44.0436017" lon="6.8407417"><ele>814.1666666666666</ele><time>2026-05-03T10:08:38.274Z</time></trkpt><trkpt lat="44.0436783" lon="6.84078"><ele>819.0</ele><time>2026-05-03T10:08:39.274Z</time></trkpt><trkpt lat="44.04376" lon="6.8407683"><ele>819.0</ele><time>2026-05-03T10:08:40.274Z</time></trkpt><trkpt lat="44.0438433" lon="6.84072"><ele>819.0</ele><time>2026-05-03T10:08:41.274Z</time></trkpt><trkpt lat="44.0439117" lon="6.8406333"><ele>819.0</ele><time>2026-05-03T10:08:42.274Z</time></trkpt><trkpt lat="44.0439667" lon="6.8405033"><ele>819.0</ele><time>2026-05-03T10:08:43.274Z</time></trkpt><trkpt lat="44.0440067" lon="6.84036"><ele>819.0</ele><time>2026-05-03T10:08:44.275Z</time></trkpt><trkpt lat="44.0440567" lon="6.8402433"><ele>819.0</ele><time>2026-05-03T10:08:45.274Z</time></trkpt><trkpt lat="44.0441133" lon="6.8401567"><ele>819.0</ele><time>2026-05-03T10:08:46.275Z</time></trkpt><trkpt lat="44.0441717" lon="6.8400983"><ele>819.0</ele><time>2026-05-03T10:08:47.274Z</time></trkpt><trkpt lat="44.0442383" lon="6.840075"><ele>819.0</ele><time>2026-05-03T10:08:48.274Z</time></trkpt><trkpt lat="44.0443117" lon="6.840085"><ele>819.0</ele><time>2026-05-03T10:08:49.274Z</time></trkpt><trkpt lat="44.0443867" lon="6.8401417"><ele>819.0</ele><time>2026-05-03T10:08:50.274Z</time></trkpt><trkpt lat="44.0444467" lon="6.8402467"><ele>819.8000000000001</ele><time>2026-05-03T10:08:51.275Z</time></trkpt><trkpt lat="44.0445017" lon="6.8403633"><ele>820.6</ele><time>2026-05-03T10:08:52.274Z</time></trkpt><trkpt lat="44.0445517" lon="6.84049"><ele>821.4</ele><time>2026-05-03T10:08:53.274Z</time></trkpt><trkpt lat="44.044585" lon="6.8406133"><ele>822.2</ele><time>2026-05-03T10:08:54.275Z</time></trkpt><trkpt lat="44.04461" lon="6.8407383"><ele>823.0</ele><time>2026-05-03T10:08:55.274Z</time></trkpt><trkpt lat="44.0446167" lon="6.8408567"><ele>819.8</ele><time>2026-05-03T10:08:56.274Z</time></trkpt><trkpt lat="44.0446183" lon="6.84101"><ele>816.5999999999999</ele><time>2026-05-03T10:08:57.274Z</time></trkpt><trkpt lat="44.0446433" lon="6.84115"><ele>813.4000000000001</ele><time>2026-05-03T10:08:58.274Z</time></trkpt><trkpt lat="44.0446833" lon="6.841275"><ele>810.2</ele><time>2026-05-03T10:08:59.274Z</time></trkpt><trkpt lat="44.0447367" lon="6.8414017"><ele>807.0</ele><time>2026-05-03T10:09:00.274Z</time></trkpt><trkpt lat="44.0447867" lon="6.8415133"><ele>807.0</ele><time>2026-05-03T10:09:01.274Z</time></trkpt><trkpt lat="44.0448383" lon="6.8416217"><ele>807.0</ele><time>2026-05-03T10:09:02.275Z</time></trkpt><trkpt lat="44.0448917" lon="6.8417217"><ele>807.0</ele><time>2026-05-03T10:09:03.274Z</time></trkpt><trkpt lat="44.0449433" lon="6.84183"><ele>807.0</ele><time>2026-05-03T10:09:04.275Z</time></trkpt><trkpt lat="44.046775" lon="6.8430233"><ele>811.6</ele><time>2026-05-03T10:09:17.274Z</time></trkpt><trkpt lat="44.046935" lon="6.8430867"><ele>816.2</ele><time>2026-05-03T10:09:18.274Z</time></trkpt><trkpt lat="44.0470133" lon="6.843095"><ele>820.8</ele><time>2026-05-03T10:09:19.274Z</time></trkpt><trkpt lat="44.0470917" lon="6.8431033"><ele>825.4</ele><time>2026-05-03T10:09:20.274Z</time></trkpt><trkpt lat="44.047185" lon="6.8430983"><ele>830.0</ele><time>2026-05-03T10:09:21.274Z</time></trkpt><trkpt lat="44.04728" lon="6.8431183"><ele>830.0000000000001</ele><time>2026-05-03T10:09:22.275Z</time></trkpt><trkpt lat="44.0473667" lon="6.8431133"><ele>830.0</ele><time>2026-05-03T10:09:23.274Z</time></trkpt><trkpt lat="44.0474383" lon="6.8431283"><ele>830.0</ele><time>2026-05-03T10:09:24.274Z</time></trkpt><trkpt lat="44.0475333" lon="6.8432317"><ele>830.0</ele><time>2026-05-03T10:09:26.275Z</time></trkpt><trkpt lat="44.047535" lon="6.8433267"><ele>830.0000000000001</ele><time>2026-05-03T10:09:27.274Z</time></trkpt><trkpt lat="44.0475267" lon="6.8434317"><ele>830.0</ele><time>2026-05-03T10:09:28.274Z</time></trkpt><trkpt lat="44.0475467" lon="6.8435433"><ele>830.0</ele><time>2026-05-03T10:09:29.274Z</time></trkpt><trkpt lat="44.0475933" lon="6.8436317"><ele>830.0</ele><time>2026-05-03T10:09:30.274Z</time></trkpt><trkpt lat="44.0476583" lon="6.843705"><ele>830.0</ele><time>2026-05-03T10:09:31.275Z</time></trkpt><trkpt lat="44.0477117" lon="6.8437833"><ele>830.0</ele><time>2026-05-03T10:09:32.274Z</time></trkpt><trkpt lat="44.047795" lon="6.843845"><ele>830.0</ele><time>2026-05-03T10:09:33.274Z</time></trkpt><trkpt lat="44.0479083" lon="6.8439333"><ele>830.0</ele><time>2026-05-03T10:09:34.274Z</time></trkpt><trkpt lat="44.0480383" lon="6.84406"><ele>830.0</ele><time>2026-05-03T10:09:35.274Z</time></trkpt><trkpt lat="44.04817" lon="6.8442417"><ele>830.0</ele><time>2026-05-03T10:09:36.274Z</time></trkpt><trkpt lat="44.0482833" lon="6.8443583"><ele>829.0</ele><time>2026-05-03T10:09:37.274Z</time></trkpt><trkpt lat="44.0486383" lon="6.8443933"><ele>828.0</ele><time>2026-05-03T10:09:40.274Z</time></trkpt><trkpt lat="44.04868" lon="6.8442883"><ele>827.0</ele><time>2026-05-03T10:09:41.274Z</time></trkpt><trkpt lat="44.0487867" lon="6.8442"><ele>835.0</ele><time>2026-05-03T10:09:42.275Z</time></trkpt><trkpt lat="44.0488667" lon="6.8440883"><ele>843.0</ele><time>2026-05-03T10:09:43.274Z</time></trkpt><trkpt lat="44.0489133" lon="6.8439367"><ele>851.0</ele><time>2026-05-03T10:09:44.274Z</time></trkpt><trkpt lat="44.0489717" lon="6.84377"><ele>859.0</ele><time>2026-05-03T10:09:45.274Z</time></trkpt><trkpt lat="44.0490117" lon="6.84361"><ele>854.5</ele><time>2026-05-03T10:09:46.274Z</time></trkpt><trkpt lat="44.049065" lon="6.8434383"><ele>850.0</ele><time>2026-05-03T10:09:47.274Z</time></trkpt><trkpt lat="44.0491233" lon="6.843285"><ele>845.5</ele><time>2026-05-03T10:09:48.274Z</time></trkpt><trkpt lat="44.0491883" lon="6.8431433"><ele>841.0</ele><time>2026-05-03T10:09:49.274Z</time></trkpt><trkpt lat="44.0492583" lon="6.84301"><ele>841.0</ele><time>2026-05-03T10:09:50.274Z</time></trkpt><trkpt lat="44.049315" lon="6.8428667"><ele>841.0</ele><time>2026-05-03T10:09:51.274Z</time></trkpt><trkpt lat="44.0493767" lon="6.84272"><ele>841.0</ele><time>2026-05-03T10:09:52.274Z</time></trkpt><trkpt lat="44.0494317" lon="6.842585"><ele>841.0</ele><time>2026-05-03T10:09:53.274Z</time></trkpt><trkpt lat="44.0494817" lon="6.842455"><ele>845.6666666666666</ele><time>2026-05-03T10:09:54.274Z</time></trkpt><trkpt lat="44.049545" lon="6.8423417"><ele>850.3333333333333</ele><time>2026-05-03T10:09:55.274Z</time></trkpt><trkpt lat="44.049605" lon="6.8422733"><ele>855.0</ele><time>2026-05-03T10:09:56.274Z</time></trkpt><trkpt lat="44.0496767" lon="6.84222"><ele>859.6666666666667</ele><time>2026-05-03T10:09:57.274Z</time></trkpt><trkpt lat="44.04976" lon="6.8422117"><ele>864.3333333333334</ele><time>2026-05-03T10:09:58.274Z</time></trkpt><trkpt lat="44.0498433" lon="6.8422567"><ele>869.0</ele><time>2026-05-03T10:09:59.274Z</time></trkpt><trkpt lat="44.0499233" lon="6.8423367"><ele>865.4000000000001</ele><time>2026-05-03T10:10:00.274Z</time></trkpt><trkpt lat="44.0500117" lon="6.8424233"><ele>861.8000000000001</ele><time>2026-05-03T10:10:01.274Z</time></trkpt><trkpt lat="44.0500767" lon="6.84253"><ele>858.2</ele><time>2026-05-03T10:10:02.274Z</time></trkpt><trkpt lat="44.050125" lon="6.8426283"><ele>854.5999999999999</ele><time>2026-05-03T10:10:03.274Z</time></trkpt><trkpt lat="44.050165" lon="6.8427133"><ele>851.0</ele><time>2026-05-03T10:10:04.274Z</time></trkpt><trkpt lat="44.0501967" lon="6.8428217"><ele>846.1999999999999</ele><time>2026-05-03T10:10:05.274Z</time></trkpt><trkpt lat="44.0502067" lon="6.842925"><ele>841.4</ele><time>2026-05-03T10:10:06.274Z</time></trkpt><trkpt lat="44.05022" lon="6.8430417"><ele>836.6</ele><time>2026-05-03T10:10:07.274Z</time></trkpt><trkpt lat="44.0502517" lon="6.843175"><ele>831.8</ele><time>2026-05-03T10:10:08.274Z</time></trkpt><trkpt lat="44.05028" lon="6.843315"><ele>827.0</ele><time>2026-05-03T10:10:09.274Z</time></trkpt><trkpt lat="44.0503" lon="6.8434467"><ele>823.6666666666667</ele><time>2026-05-03T10:10:10.274Z</time></trkpt><trkpt lat="44.0503" lon="6.8435617"><ele>820.3333333333334</ele><time>2026-05-03T10:10:11.274Z</time></trkpt><trkpt lat="44.050285" lon="6.84367"><ele>817.0</ele><time>2026-05-03T10:10:12.274Z</time></trkpt><trkpt lat="44.0502617" lon="6.8437833"><ele>813.6666666666667</ele><time>2026-05-03T10:10:13.274Z</time></trkpt><trkpt lat="44.0502233" lon="6.843905"><ele>810.3333333333334</ele><time>2026-05-03T10:10:14.274Z</time></trkpt><trkpt lat="44.0501867" lon="6.8440317"><ele>807.0</ele><time>2026-05-03T10:10:15.275Z</time></trkpt><trkpt lat="44.0501633" lon="6.844155"><ele>807.0</ele><time>2026-05-03T10:10:16.274Z</time></trkpt><trkpt lat="44.05016" lon="6.844265"><ele>807.0</ele><time>2026-05-03T10:10:17.274Z</time></trkpt><trkpt lat="44.0501833" lon="6.8443833"><ele>807.0</ele><time>2026-05-03T10:10:18.274Z</time></trkpt><trkpt lat="44.050225" lon="6.84448"><ele>807.0</ele><time>2026-05-03T10:10:19.275Z</time></trkpt><trkpt lat="44.05029" lon="6.8445433"><ele>807.0</ele><time>2026-05-03T10:10:20.274Z</time></trkpt><trkpt lat="44.0503683" lon="6.8445717"><ele>807.0</ele><time>2026-05-03T10:10:21.274Z</time></trkpt><trkpt lat="44.0504383" lon="6.844565"><ele>807.0</ele><time>2026-05-03T10:10:22.274Z</time></trkpt><trkpt lat="44.0505117" lon="6.84454"><ele>807.0</ele><time>2026-05-03T10:10:23.274Z</time></trkpt><trkpt lat="44.0505883" lon="6.8444733"><ele>807.0</ele><time>2026-05-03T10:10:24.274Z</time></trkpt><trkpt lat="44.050675" lon="6.8443633"><ele>807.0</ele><time>2026-05-03T10:10:25.274Z</time></trkpt><trkpt lat="44.0507567" lon="6.8442617"><ele>807.0</ele><time>2026-05-03T10:10:26.274Z</time></trkpt><trkpt lat="44.0508333" lon="6.84418"><ele>814.8</ele><time>2026-05-03T10:10:27.274Z</time></trkpt><trkpt lat="44.0509" lon="6.8441283"><ele>822.6</ele><time>2026-05-03T10:10:28.274Z</time></trkpt><trkpt lat="44.0509617" lon="6.84411"><ele>830.4</ele><time>2026-05-03T10:10:29.274Z</time></trkpt><trkpt lat="44.05106" lon="6.84412"><ele>838.1999999999999</ele><time>2026-05-03T10:10:31.274Z</time></trkpt><trkpt lat="44.051165" lon="6.8441283"><ele>846.0</ele><time>2026-05-03T10:10:33.274Z</time></trkpt><trkpt lat="44.0512733" lon="6.8441283"><ele>833.5</ele><time>2026-05-03T10:10:35.275Z</time></trkpt><trkpt lat="44.0514533" lon="6.844495"><ele>821.0</ele><time>2026-05-03T10:10:37.274Z</time></trkpt><trkpt lat="44.0515983" lon="6.8447783"><ele>818.3333333333334</ele><time>2026-05-03T10:10:38.274Z</time></trkpt><trkpt lat="44.0517333" lon="6.8449733"><ele>815.6666666666667</ele><time>2026-05-03T10:10:39.274Z</time></trkpt><trkpt lat="44.0518333" lon="6.8451117"><ele>813.0</ele><time>2026-05-03T10:10:40.274Z</time></trkpt><trkpt lat="44.05192" lon="6.8452233"><ele>813.0</ele><time>2026-05-03T10:10:41.274Z</time></trkpt><trkpt lat="44.05198" lon="6.845315"><ele>813.0</ele><time>2026-05-03T10:10:42.274Z</time></trkpt><trkpt lat="44.0521017" lon="6.8452733"><ele>813.0</ele><time>2026-05-03T10:10:43.274Z</time></trkpt><trkpt lat="44.052195" lon="6.8452517"><ele>813.0</ele><time>2026-05-03T10:10:44.274Z</time></trkpt><trkpt lat="44.0523083" lon="6.8451917"><ele>813.0</ele><time>2026-05-03T10:10:45.274Z</time></trkpt><trkpt lat="44.0524267" lon="6.845125"><ele>813.2</ele><time>2026-05-03T10:10:46.274Z</time></trkpt><trkpt lat="44.05254" lon="6.8450767"><ele>813.4</ele><time>2026-05-03T10:10:47.274Z</time></trkpt><trkpt lat="44.0526317" lon="6.845065"><ele>813.6</ele><time>2026-05-03T10:10:48.275Z</time></trkpt><trkpt lat="44.0527483" lon="6.8451167"><ele>813.8000000000001</ele><time>2026-05-03T10:10:49.274Z</time></trkpt><trkpt lat="44.0528517" lon="6.845145"><ele>814.0</ele><time>2026-05-03T10:10:50.274Z</time></trkpt><trkpt lat="44.052935" lon="6.8451817"><ele>813.9999999999999</ele><time>2026-05-03T10:10:51.275Z</time></trkpt><trkpt lat="44.05301" lon="6.8452367"><ele>814.0</ele><time>2026-05-03T10:10:52.274Z</time></trkpt><trkpt lat="44.053065" lon="6.845325"><ele>814.0</ele><time>2026-05-03T10:10:53.274Z</time></trkpt><trkpt lat="44.0530883" lon="6.845445"><ele>814.0</ele><time>2026-05-03T10:10:54.275Z</time></trkpt><trkpt lat="44.0530933" lon="6.8455667"><ele>813.9999999999999</ele><time>2026-05-03T10:10:55.274Z</time></trkpt><trkpt lat="44.05313" lon="6.8456767"><ele>814.0</ele><time>2026-05-03T10:10:56.274Z</time></trkpt><trkpt lat="44.05318" lon="6.845765"><ele>814.0</ele><time>2026-05-03T10:10:57.274Z</time></trkpt><trkpt lat="44.0532567" lon="6.8458283"><ele>814.0</ele><time>2026-05-03T10:10:58.274Z</time></trkpt><trkpt lat="44.0533367" lon="6.8458517"><ele>814.0</ele><time>2026-05-03T10:10:59.274Z</time></trkpt><trkpt lat="44.05341" lon="6.8458383"><ele>814.0</ele><time>2026-05-03T10:11:00.274Z</time></trkpt><trkpt lat="44.0534933" lon="6.845755"><ele>814.0</ele><time>2026-05-03T10:11:01.274Z</time></trkpt><trkpt lat="44.0535667" lon="6.8456333"><ele>816.0</ele><time>2026-05-03T10:11:02.274Z</time></trkpt><trkpt lat="44.0536017" lon="6.8454683"><ele>818.0</ele><time>2026-05-03T10:11:03.274Z</time></trkpt><trkpt lat="44.0536133" lon="6.8452817"><ele>820.0</ele><time>2026-05-03T10:11:04.274Z</time></trkpt><trkpt lat="44.0536417" lon="6.8451333"><ele>822.0</ele><time>2026-05-03T10:11:05.274Z</time></trkpt><trkpt lat="44.05368" lon="6.8450333"><ele>825.5</ele><time>2026-05-03T10:11:06.274Z</time></trkpt><trkpt lat="44.0537383" lon="6.8449667"><ele>829.0</ele><time>2026-05-03T10:11:07.274Z</time></trkpt><trkpt lat="44.0538167" lon="6.84493"><ele>832.5</ele><time>2026-05-03T10:11:08.274Z</time></trkpt><trkpt lat="44.0538933" lon="6.8449283"><ele>836.0</ele><time>2026-05-03T10:11:09.274Z</time></trkpt><trkpt lat="44.0539683" lon="6.84496"><ele>839.5</ele><time>2026-05-03T10:11:10.274Z</time></trkpt><trkpt lat="44.0540467" lon="6.8450167"><ele>843.0</ele><time>2026-05-03T10:11:11.274Z</time></trkpt><trkpt lat="44.0541267" lon="6.8450783"><ele>837.5</ele><time>2026-05-03T10:11:12.274Z</time></trkpt><trkpt lat="44.0542033" lon="6.84513"><ele>832.0</ele><time>2026-05-03T10:11:13.274Z</time></trkpt><trkpt lat="44.0542733" lon="6.84518"><ele>826.5</ele><time>2026-05-03T10:11:14.274Z</time></trkpt><trkpt lat="44.0543567" lon="6.84527"><ele>821.0</ele><time>2026-05-03T10:11:16.274Z</time></trkpt><trkpt lat="44.0543767" lon="6.8453533"><ele>815.5</ele><time>2026-05-03T10:11:18.274Z</time></trkpt><trkpt lat="44.0543833" lon="6.8454433"><ele>810.0</ele><time>2026-05-03T10:11:21.274Z</time></trkpt><trkpt lat="44.0544367" lon="6.845355"><ele>810.0</ele><time>2026-05-03T10:15:45.273Z</time></trkpt><trkpt lat="44.054545" lon="6.845315"><ele>810.0</ele><time>2026-05-03T10:15:47.273Z</time></trkpt><trkpt lat="44.0546233" lon="6.8453"><ele>810.0</ele><time>2026-05-03T10:15:48.273Z</time></trkpt><trkpt lat="44.0547083" lon="6.8452767"><ele>810.0</ele><time>2026-05-03T10:15:49.274Z</time></trkpt><trkpt lat="44.0548217" lon="6.845245"><ele>810.0</ele><time>2026-05-03T10:15:50.273Z</time></trkpt><trkpt lat="44.0549267" lon="6.845215"><ele>811.2</ele><time>2026-05-03T10:15:51.273Z</time></trkpt><trkpt lat="44.05503" lon="6.8451867"><ele>812.4</ele><time>2026-05-03T10:15:52.273Z</time></trkpt><trkpt lat="44.0551167" lon="6.8451917"><ele>813.5999999999999</ele><time>2026-05-03T10:15:53.273Z</time></trkpt><trkpt lat="44.0551967" lon="6.8452417"><ele>814.8</ele><time>2026-05-03T10:15:54.273Z</time></trkpt><trkpt lat="44.05527" lon="6.845325"><ele>816.0</ele><time>2026-05-03T10:15:55.273Z</time></trkpt><trkpt lat="44.0553267" lon="6.8454383"><ele>816.0</ele><time>2026-05-03T10:15:56.273Z</time></trkpt><trkpt lat="44.0553633" lon="6.8455683"><ele>816.0</ele><time>2026-05-03T10:15:57.273Z</time></trkpt><trkpt lat="44.0553833" lon="6.8456983"><ele>816.0</ele><time>2026-05-03T10:15:58.273Z</time></trkpt><trkpt lat="44.0554167" lon="6.8458367"><ele>816.0</ele><time>2026-05-03T10:15:59.273Z</time></trkpt><trkpt lat="44.055465" lon="6.84596"><ele>816.0</ele><time>2026-05-03T10:16:00.273Z</time></trkpt><trkpt lat="44.0554983" lon="6.846075"><ele>813.1999999999999</ele><time>2026-05-03T10:16:01.273Z</time></trkpt><trkpt lat="44.0555233" lon="6.8462"><ele>810.4</ele><time>2026-05-03T10:16:02.273Z</time></trkpt><trkpt lat="44.0555333" lon="6.8463283"><ele>807.6</ele><time>2026-05-03T10:16:03.273Z</time></trkpt><trkpt lat="44.0555233" lon="6.84646"><ele>804.8</ele><time>2026-05-03T10:16:04.273Z</time></trkpt><trkpt lat="44.055485" lon="6.8465783"><ele>802.0</ele><time>2026-05-03T10:16:05.273Z</time></trkpt><trkpt lat="44.055425" lon="6.8467067"><ele>803.0</ele><time>2026-05-03T10:16:06.273Z</time></trkpt><trkpt lat="44.0553467" lon="6.84684"><ele>804.0</ele><time>2026-05-03T10:16:07.274Z</time></trkpt><trkpt lat="44.0552717" lon="6.8469617"><ele>805.0</ele><time>2026-05-03T10:16:08.273Z</time></trkpt><trkpt lat="44.055215" lon="6.8471083"><ele>806.0</ele><time>2026-05-03T10:16:09.273Z</time></trkpt><trkpt lat="44.0551567" lon="6.8472733"><ele>806.0</ele><time>2026-05-03T10:16:10.273Z</time></trkpt><trkpt lat="44.055105" lon="6.8474017"><ele>806.0</ele><time>2026-05-03T10:16:11.273Z</time></trkpt><trkpt lat="44.0550617" lon="6.847525"><ele>806.0</ele><time>2026-05-03T10:16:12.273Z</time></trkpt><trkpt lat="44.055015" lon="6.84764"><ele>806.0</ele><time>2026-05-03T10:16:13.274Z</time></trkpt><trkpt lat="44.0549817" lon="6.84775"><ele>806.0</ele><time>2026-05-03T10:16:14.273Z</time></trkpt><trkpt lat="44.054945" lon="6.8478517"><ele>799.2857142857143</ele><time>2026-05-03T10:16:15.273Z</time></trkpt><trkpt lat="44.0549167" lon="6.8479483"><ele>792.5714285714286</ele><time>2026-05-03T10:16:16.273Z</time></trkpt><trkpt lat="44.0548867" lon="6.8480467"><ele>785.8571428571429</ele><time>2026-05-03T10:16:17.273Z</time></trkpt><trkpt lat="44.054855" lon="6.8481317"><ele>779.1428571428571</ele><time>2026-05-03T10:16:18.273Z</time></trkpt><trkpt lat="44.0548233" lon="6.8482083"><ele>772.4285714285713</ele><time>2026-05-03T10:16:19.273Z</time></trkpt><trkpt lat="44.05477" lon="6.8483067"><ele>765.7142857142857</ele><time>2026-05-03T10:16:21.273Z</time></trkpt><trkpt lat="44.0547033" lon="6.8482683"><ele>759.0</ele><time>2026-05-03T10:25:29.272Z</time></trkpt><trkpt lat="44.05473" lon="6.8483883"><ele>760.0</ele><time>2026-05-03T10:25:33.273Z</time></trkpt><trkpt lat="44.0547167" lon="6.8485017"><ele>761.0</ele><time>2026-05-03T10:25:35.272Z</time></trkpt><trkpt lat="44.0546567" lon="6.8486533"><ele>762.0</ele><time>2026-05-03T10:25:37.272Z</time></trkpt><trkpt lat="44.05462" lon="6.8487433"><ele>763.0</ele><time>2026-05-03T10:25:38.272Z</time></trkpt><trkpt lat="44.0545867" lon="6.8488467"><ele>764.0</ele><time>2026-05-03T10:25:39.272Z</time></trkpt><trkpt lat="44.0545633" lon="6.8489633"><ele>764.0</ele><time>2026-05-03T10:25:40.272Z</time></trkpt><trkpt lat="44.054545" lon="6.8490933"><ele>764.0</ele><time>2026-05-03T10:25:41.272Z</time></trkpt><trkpt lat="44.054545" lon="6.84922"><ele>764.0</ele><time>2026-05-03T10:25:42.272Z</time></trkpt><trkpt lat="44.0545717" lon="6.8493333"><ele>764.0</ele><time>2026-05-03T10:25:43.272Z</time></trkpt><trkpt lat="44.0546183" lon="6.849445"><ele>764.0</ele><time>2026-05-03T10:25:44.272Z</time></trkpt><trkpt lat="44.054685" lon="6.8495533"><ele>768.2</ele><time>2026-05-03T10:25:45.272Z</time></trkpt><trkpt lat="44.0547533" lon="6.8496483"><ele>772.4000000000001</ele><time>2026-05-03T10:25:46.272Z</time></trkpt><trkpt lat="44.05483" lon="6.8497333"><ele>776.6</ele><time>2026-05-03T10:25:47.272Z</time></trkpt><trkpt lat="44.054905" lon="6.8497767"><ele>780.8</ele><time>2026-05-03T10:25:48.272Z</time></trkpt><trkpt lat="44.0549833" lon="6.8497967"><ele>785.0</ele><time>2026-05-03T10:25:49.272Z</time></trkpt><trkpt lat="44.0550817" lon="6.8497767"><ele>787.0000000000001</ele><time>2026-05-03T10:25:50.272Z</time></trkpt><trkpt lat="44.0551517" lon="6.8498217"><ele>789.0</ele><time>2026-05-03T10:25:51.272Z</time></trkpt><trkpt lat="44.0551983" lon="6.8498883"><ele>791.0</ele><time>2026-05-03T10:25:52.272Z</time></trkpt><trkpt lat="44.0552233" lon="6.84999"><ele>793.0</ele><time>2026-05-03T10:25:53.272Z</time></trkpt><trkpt lat="44.0552333" lon="6.850125"><ele>795.0000000000001</ele><time>2026-05-03T10:25:54.272Z</time></trkpt><trkpt lat="44.05525" lon="6.8502617"><ele>797.0</ele><time>2026-05-03T10:25:55.272Z</time></trkpt><trkpt lat="44.055285" lon="6.8503833"><ele>797.6</ele><time>2026-05-03T10:25:56.272Z</time></trkpt><trkpt lat="44.0553317" lon="6.8504933"><ele>798.2</ele><time>2026-05-03T10:25:57.272Z</time></trkpt><trkpt lat="44.05539" lon="6.85059"><ele>798.8</ele><time>2026-05-03T10:25:58.272Z</time></trkpt><trkpt lat="44.0555017" lon="6.8506567"><ele>799.4</ele><time>2026-05-03T10:25:59.273Z</time></trkpt><trkpt lat="44.0556217" lon="6.8507033"><ele>800.0</ele><time>2026-05-03T10:26:00.272Z</time></trkpt><trkpt lat="44.0557367" lon="6.8507583"><ele>802.0</ele><time>2026-05-03T10:26:01.272Z</time></trkpt><trkpt lat="44.05584" lon="6.8508283"><ele>804.0</ele><time>2026-05-03T10:26:02.272Z</time></trkpt><trkpt lat="44.0559433" lon="6.8509033"><ele>806.0</ele><time>2026-05-03T10:26:03.272Z</time></trkpt><trkpt lat="44.056015" lon="6.8509033"><ele>808.0</ele><time>2026-05-03T10:26:04.273Z</time></trkpt><trkpt lat="44.0561133" lon="6.850855"><ele>810.0</ele><time>2026-05-03T10:26:05.272Z</time></trkpt><trkpt lat="44.0562133" lon="6.8508033"><ele>809.9999999999999</ele><time>2026-05-03T10:26:06.272Z</time></trkpt><trkpt lat="44.0562933" lon="6.8507967"><ele>810.0</ele><time>2026-05-03T10:26:07.273Z</time></trkpt><trkpt lat="44.0563533" lon="6.8508333"><ele>810.0</ele><time>2026-05-03T10:26:08.272Z</time></trkpt><trkpt lat="44.0564033" lon="6.850905"><ele>810.0</ele><time>2026-05-03T10:26:09.272Z</time></trkpt><trkpt lat="44.05644" lon="6.8509917"><ele>810.0</ele><time>2026-05-03T10:26:10.272Z</time></trkpt><trkpt lat="44.0564867" lon="6.851075"><ele>809.9999999999999</ele><time>2026-05-03T10:26:11.272Z</time></trkpt><trkpt lat="44.05654" lon="6.85114"><ele>810.0</ele><time>2026-05-03T10:26:12.272Z</time></trkpt><trkpt lat="44.0566683" lon="6.8511367"><ele>811.6666666666666</ele><time>2026-05-03T10:26:14.272Z</time></trkpt><trkpt lat="44.0567317" lon="6.851065"><ele>813.3333333333333</ele><time>2026-05-03T10:26:15.272Z</time></trkpt><trkpt lat="44.05681" lon="6.85098"><ele>815.0</ele><time>2026-05-03T10:26:16.272Z</time></trkpt><trkpt lat="44.0568833" lon="6.850925"><ele>816.6666666666666</ele><time>2026-05-03T10:26:17.272Z</time></trkpt><trkpt lat="44.05696" lon="6.8509183"><ele>818.3333333333333</ele><time>2026-05-03T10:26:18.272Z</time></trkpt><trkpt lat="44.0570417" lon="6.8509733"><ele>820.0</ele><time>2026-05-03T10:26:19.272Z</time></trkpt><trkpt lat="44.0571233" lon="6.8510667"><ele>814.2</ele><time>2026-05-03T10:26:20.272Z</time></trkpt><trkpt lat="44.05719" lon="6.8511967"><ele>808.4</ele><time>2026-05-03T10:26:21.272Z</time></trkpt><trkpt lat="44.057225" lon="6.851345"><ele>802.5999999999999</ele><time>2026-05-03T10:26:22.272Z</time></trkpt><trkpt lat="44.0572417" lon="6.8514767"><ele>796.8</ele><time>2026-05-03T10:26:23.272Z</time></trkpt><trkpt lat="44.0572583" lon="6.8515967"><ele>791.0</ele><time>2026-05-03T10:26:24.272Z</time></trkpt><trkpt lat="44.0572667" lon="6.8517083"><ele>787.1666666666667</ele><time>2026-05-03T10:26:25.272Z</time></trkpt><trkpt lat="44.0572617" lon="6.851815"><ele>783.3333333333334</ele><time>2026-05-03T10:26:26.272Z</time></trkpt><trkpt lat="44.05726" lon="6.85191"><ele>779.5</ele><time>2026-05-03T10:26:27.272Z</time></trkpt><trkpt lat="44.05726" lon="6.852025"><ele>775.6666666666667</ele><time>2026-05-03T10:26:28.272Z</time></trkpt><trkpt lat="44.0572833" lon="6.8521317"><ele>771.8333333333334</ele><time>2026-05-03T10:26:29.272Z</time></trkpt><trkpt lat="44.0573267" lon="6.8522333"><ele>768.0</ele><time>2026-05-03T10:26:30.272Z</time></trkpt><trkpt lat="44.0573883" lon="6.852325"><ele>767.8333333333334</ele><time>2026-05-03T10:26:31.272Z</time></trkpt><trkpt lat="44.0574583" lon="6.8524117"><ele>767.6666666666666</ele><time>2026-05-03T10:26:32.272Z</time></trkpt><trkpt lat="44.0575267" lon="6.8525"><ele>767.5</ele><time>2026-05-03T10:26:33.272Z</time></trkpt><trkpt lat="44.0575917" lon="6.8525783"><ele>767.3333333333333</ele><time>2026-05-03T10:26:34.272Z</time></trkpt><trkpt lat="44.0576617" lon="6.852625"><ele>767.1666666666666</ele><time>2026-05-03T10:26:35.273Z</time></trkpt><trkpt lat="44.0577317" lon="6.85265"><ele>767.0</ele><time>2026-05-03T10:26:36.272Z</time></trkpt><trkpt lat="44.0578033" lon="6.8526283"><ele>767.0</ele><time>2026-05-03T10:26:37.272Z</time></trkpt><trkpt lat="44.057895" lon="6.8525733"><ele>767.0</ele><time>2026-05-03T10:26:38.272Z</time></trkpt><trkpt lat="44.0579917" lon="6.8525333"><ele>767.0</ele><time>2026-05-03T10:26:39.272Z</time></trkpt><trkpt lat="44.0580817" lon="6.8525383"><ele>767.0</ele><time>2026-05-03T10:26:40.272Z</time></trkpt><trkpt lat="44.0581567" lon="6.8525767"><ele>767.0</ele><time>2026-05-03T10:26:41.272Z</time></trkpt><trkpt lat="44.0582283" lon="6.8526333"><ele>767.1666666666666</ele><time>2026-05-03T10:26:42.272Z</time></trkpt><trkpt lat="44.0582933" lon="6.8526633"><ele>767.3333333333333</ele><time>2026-05-03T10:26:43.273Z</time></trkpt><trkpt lat="44.0583617" lon="6.8526617"><ele>767.5</ele><time>2026-05-03T10:26:44.272Z</time></trkpt><trkpt lat="44.0584383" lon="6.852615"><ele>767.6666666666666</ele><time>2026-05-03T10:26:45.272Z</time></trkpt><trkpt lat="44.058515" lon="6.852525"><ele>767.8333333333334</ele><time>2026-05-03T10:26:46.272Z</time></trkpt><trkpt lat="44.0585967" lon="6.8523933"><ele>768.0</ele><time>2026-05-03T10:26:47.272Z</time></trkpt><trkpt lat="44.0586867" lon="6.8522517"><ele>774.5</ele><time>2026-05-03T10:26:48.272Z</time></trkpt><trkpt lat="44.05878" lon="6.8521267"><ele>781.0</ele><time>2026-05-03T10:26:49.272Z</time></trkpt><trkpt lat="44.0588667" lon="6.85202"><ele>787.5</ele><time>2026-05-03T10:26:50.272Z</time></trkpt><trkpt lat="44.0589617" lon="6.8519383"><ele>794.0</ele><time>2026-05-03T10:26:51.272Z</time></trkpt><trkpt lat="44.059055" lon="6.8518933"><ele>791.4000000000001</ele><time>2026-05-03T10:26:52.272Z</time></trkpt><trkpt lat="44.0591583" lon="6.8518767"><ele>788.8</ele><time>2026-05-03T10:26:53.272Z</time></trkpt><trkpt lat="44.0592617" lon="6.8518967"><ele>786.2</ele><time>2026-05-03T10:26:54.272Z</time></trkpt><trkpt lat="44.05937" lon="6.851945"><ele>783.5999999999999</ele><time>2026-05-03T10:26:55.272Z</time></trkpt><trkpt lat="44.0594817" lon="6.851995"><ele>781.0</ele><time>2026-05-03T10:26:56.272Z</time></trkpt><trkpt lat="44.0595833" lon="6.8520483"><ele>781.0</ele><time>2026-05-03T10:26:57.272Z</time></trkpt><trkpt lat="44.0596667" lon="6.8521333"><ele>781.0</ele><time>2026-05-03T10:26:58.272Z</time></trkpt><trkpt lat="44.0597333" lon="6.8522517"><ele>781.0</ele><time>2026-05-03T10:26:59.272Z</time></trkpt><trkpt lat="44.05977" lon="6.8523833"><ele>781.0</ele><time>2026-05-03T10:27:00.272Z</time></trkpt><trkpt lat="44.059785" lon="6.852525"><ele>781.0</ele><time>2026-05-03T10:27:01.272Z</time></trkpt><trkpt lat="44.0597833" lon="6.85265"><ele>782.1666666666666</ele><time>2026-05-03T10:27:02.272Z</time></trkpt><trkpt lat="44.059795" lon="6.8527767"><ele>783.3333333333333</ele><time>2026-05-03T10:27:03.272Z</time></trkpt><trkpt lat="44.05983" lon="6.852885"><ele>784.5</ele><time>2026-05-03T10:27:04.272Z</time></trkpt><trkpt lat="44.0598833" lon="6.8529767"><ele>785.6666666666667</ele><time>2026-05-03T10:27:05.273Z</time></trkpt><trkpt lat="44.05995" lon="6.8530317"><ele>786.8333333333334</ele><time>2026-05-03T10:27:06.273Z</time></trkpt><trkpt lat="44.0600217" lon="6.8530517"><ele>788.0</ele><time>2026-05-03T10:27:07.273Z</time></trkpt><trkpt lat="44.06009" lon="6.8530867"><ele>788.0000000000001</ele><time>2026-05-03T10:27:08.272Z</time></trkpt><trkpt lat="44.06014" lon="6.85315"><ele>788.0</ele><time>2026-05-03T10:27:09.272Z</time></trkpt><trkpt lat="44.06017" lon="6.8532383"><ele>788.0</ele><time>2026-05-03T10:27:10.272Z</time></trkpt><trkpt lat="44.0601833" lon="6.85334"><ele>788.0</ele><time>2026-05-03T10:27:11.272Z</time></trkpt><trkpt lat="44.0601717" lon="6.8534383"><ele>788.0000000000001</ele><time>2026-05-03T10:27:12.272Z</time></trkpt><trkpt lat="44.0601567" lon="6.853545"><ele>788.0</ele><time>2026-05-03T10:27:13.272Z</time></trkpt><trkpt lat="44.0601583" lon="6.85372"><ele>784.0000000000001</ele><time>2026-05-03T10:27:15.271Z</time></trkpt><trkpt lat="44.06021" lon="6.8538483"><ele>780.0</ele><time>2026-05-03T10:27:17.271Z</time></trkpt><trkpt lat="44.06027" lon="6.853885"><ele>776.0</ele><time>2026-05-03T10:27:18.272Z</time></trkpt><trkpt lat="44.060365" lon="6.8539117"><ele>772.0</ele><time>2026-05-03T10:27:19.271Z</time></trkpt><trkpt lat="44.0604517" lon="6.85393"><ele>768.0</ele><time>2026-05-03T10:27:20.271Z</time></trkpt><trkpt lat="44.0605267" lon="6.853975"><ele>764.0</ele><time>2026-05-03T10:27:21.271Z</time></trkpt><trkpt lat="44.06058" lon="6.85403"><ele>764.0</ele><time>2026-05-03T10:27:22.272Z</time></trkpt><trkpt lat="44.0606533" lon="6.8541317"><ele>764.0</ele><time>2026-05-03T10:27:24.271Z</time></trkpt><trkpt lat="44.060725" lon="6.854195"><ele>764.0</ele><time>2026-05-03T10:27:26.271Z</time></trkpt><trkpt lat="44.0607867" lon="6.8542283"><ele>764.0</ele><time>2026-05-03T10:27:28.271Z</time></trkpt><trkpt lat="44.0608367" lon="6.8543267"><ele>764.0</ele><time>2026-05-03T10:27:32.271Z</time></trkpt><trkpt lat="44.0608917" lon="6.85439"><ele>764.0</ele><time>2026-05-03T10:27:36.271Z</time></trkpt><trkpt lat="44.060735" lon="6.85444"><ele>765.6</ele><time>2026-05-03T11:02:15.266Z</time></trkpt><trkpt lat="44.0607717" lon="6.8543617"><ele>767.2</ele><time>2026-05-03T11:02:18.266Z</time></trkpt><trkpt lat="44.0608083" lon="6.854255"><ele>768.8000000000001</ele><time>2026-05-03T11:02:21.266Z</time></trkpt><trkpt lat="44.0608783" lon="6.8540683"><ele>770.4000000000001</ele><time>2026-05-03T11:02:25.277Z</time></trkpt><trkpt lat="44.0609483" lon="6.85391"><ele>772.0</ele><time>2026-05-03T11:02:26.277Z</time></trkpt><trkpt lat="44.0610367" lon="6.8538717"><ele>788.5</ele><time>2026-05-03T11:02:27.276Z</time></trkpt><trkpt lat="44.0611617" lon="6.853705"><ele>805.0</ele><time>2026-05-03T11:02:28.276Z</time></trkpt><trkpt lat="44.0615683" lon="6.85351"><ele>804.6666666666666</ele><time>2026-05-03T11:02:29.276Z</time></trkpt><trkpt lat="44.0617783" lon="6.8534533"><ele>804.3333333333333</ele><time>2026-05-03T11:02:30.276Z</time></trkpt><trkpt lat="44.061945" lon="6.85333"><ele>804.0</ele><time>2026-05-03T11:02:31.276Z</time></trkpt><trkpt lat="44.0620867" lon="6.8531683"><ele>804.0</ele><time>2026-05-03T11:02:32.276Z</time></trkpt><trkpt lat="44.0621517" lon="6.8529717"><ele>804.0</ele><time>2026-05-03T11:02:33.276Z</time></trkpt><trkpt lat="44.062125" lon="6.8527567"><ele>804.0</ele><time>2026-05-03T11:02:34.276Z</time></trkpt><trkpt lat="44.062085" lon="6.85255"><ele>805.5</ele><time>2026-05-03T11:02:35.276Z</time></trkpt><trkpt lat="44.0620417" lon="6.8523617"><ele>807.0</ele><time>2026-05-03T11:02:36.277Z</time></trkpt><trkpt lat="44.0620083" lon="6.8521783"><ele>808.5</ele><time>2026-05-03T11:02:37.276Z</time></trkpt><trkpt lat="44.0619983" lon="6.8519933"><ele>810.0</ele><time>2026-05-03T11:02:38.276Z</time></trkpt><trkpt lat="44.0619883" lon="6.8518067"><ele>809.75</ele><time>2026-05-03T11:02:39.277Z</time></trkpt><trkpt lat="44.0620017" lon="6.8516133"><ele>809.5</ele><time>2026-05-03T11:02:40.276Z</time></trkpt><trkpt lat="44.0620017" lon="6.8514133"><ele>809.25</ele><time>2026-05-03T11:02:41.276Z</time></trkpt><trkpt lat="44.062" lon="6.8512117"><ele>809.0</ele><time>2026-05-03T11:02:42.276Z</time></trkpt><trkpt lat="44.0620183" lon="6.851015"><ele>809.0</ele><time>2026-05-03T11:02:43.276Z</time></trkpt><trkpt lat="44.062045" lon="6.8507933"><ele>809.0</ele><time>2026-05-03T11:02:44.276Z</time></trkpt><trkpt lat="44.062075" lon="6.8505633"><ele>809.0</ele><time>2026-05-03T11:02:45.276Z</time></trkpt><trkpt lat="44.0621067" lon="6.8503333"><ele>809.0</ele><time>2026-05-03T11:02:46.276Z</time></trkpt><trkpt lat="44.0621533" lon="6.8501433"><ele>809.0</ele><time>2026-05-03T11:02:47.276Z</time></trkpt><trkpt lat="44.0621917" lon="6.849975"><ele>809.0</ele><time>2026-05-03T11:02:48.276Z</time></trkpt><trkpt lat="44.0622333" lon="6.849785"><ele>809.0</ele><time>2026-05-03T11:02:49.276Z</time></trkpt><trkpt lat="44.0622667" lon="6.84959"><ele>810.25</ele><time>2026-05-03T11:02:50.276Z</time></trkpt><trkpt lat="44.062255" lon="6.84941"><ele>811.5</ele><time>2026-05-03T11:02:51.276Z</time></trkpt><trkpt lat="44.0622183" lon="6.8492583"><ele>812.75</ele><time>2026-05-03T11:02:52.277Z</time></trkpt><trkpt lat="44.0621817" lon="6.849105"><ele>814.0</ele><time>2026-05-03T11:02:53.276Z</time></trkpt><trkpt lat="44.062175" lon="6.8489617"><ele>814.0</ele><time>2026-05-03T11:02:54.276Z</time></trkpt><trkpt lat="44.0622017" lon="6.848825"><ele>814.0</ele><time>2026-05-03T11:02:55.276Z</time></trkpt><trkpt lat="44.06227" lon="6.8487117"><ele>814.0</ele><time>2026-05-03T11:02:56.276Z</time></trkpt><trkpt lat="44.062375" lon="6.8486617"><ele>814.0</ele><time>2026-05-03T11:02:57.276Z</time></trkpt><trkpt lat="44.0624867" lon="6.848665"><ele>814.0</ele><time>2026-05-03T11:02:58.276Z</time></trkpt><trkpt lat="44.0626183" lon="6.8486817"><ele>803.0</ele><time>2026-05-03T11:02:59.276Z</time></trkpt><trkpt lat="44.0627567" lon="6.8486983"><ele>792.0</ele><time>2026-05-03T11:03:00.276Z</time></trkpt><trkpt lat="44.062895" lon="6.8487017"><ele>781.0</ele><time>2026-05-03T11:03:01.276Z</time></trkpt><trkpt lat="44.0630183" lon="6.8487117"><ele>770.0</ele><time>2026-05-03T11:03:02.276Z</time></trkpt><trkpt lat="44.0631367" lon="6.84876"><ele>770.0</ele><time>2026-05-03T11:03:03.276Z</time></trkpt><trkpt lat="44.063225" lon="6.8488867"><ele>770.0</ele><time>2026-05-03T11:03:04.276Z</time></trkpt><trkpt lat="44.0632733" lon="6.8490483"><ele>770.0</ele><time>2026-05-03T11:03:05.276Z</time></trkpt><trkpt lat="44.0632883" lon="6.8492433"><ele>770.0</ele><time>2026-05-03T11:03:06.276Z</time></trkpt><trkpt lat="44.0632983" lon="6.849455"><ele>772.6666666666667</ele><time>2026-05-03T11:03:07.276Z</time></trkpt><trkpt lat="44.063325" lon="6.849665"><ele>775.3333333333333</ele><time>2026-05-03T11:03:08.276Z</time></trkpt><trkpt lat="44.063355" lon="6.8498833"><ele>778.0</ele><time>2026-05-03T11:03:09.276Z</time></trkpt><trkpt lat="44.0633867" lon="6.8501033"><ele>775.6666666666666</ele><time>2026-05-03T11:03:10.277Z</time></trkpt><trkpt lat="44.063415" lon="6.850335"><ele>773.3333333333333</ele><time>2026-05-03T11:03:11.276Z</time></trkpt><trkpt lat="44.0634517" lon="6.85058"><ele>771.0</ele><time>2026-05-03T11:03:12.277Z</time></trkpt><trkpt lat="44.063475" lon="6.8508167"><ele>772.3333333333333</ele><time>2026-05-03T11:03:13.276Z</time></trkpt><trkpt lat="44.0634967" lon="6.8510583"><ele>773.6666666666666</ele><time>2026-05-03T11:03:14.276Z</time></trkpt><trkpt lat="44.0635167" lon="6.8513033"><ele>775.0</ele><time>2026-05-03T11:03:15.276Z</time></trkpt><trkpt lat="44.0635183" lon="6.851555"><ele>775.0</ele><time>2026-05-03T11:03:16.276Z</time></trkpt><trkpt lat="44.0635017" lon="6.85179"><ele>775.0</ele><time>2026-05-03T11:03:17.276Z</time></trkpt><trkpt lat="44.0634833" lon="6.8520167"><ele>775.0</ele><time>2026-05-03T11:03:18.276Z</time></trkpt><trkpt lat="44.0634667" lon="6.8522333"><ele>775.3333333333333</ele><time>2026-05-03T11:03:19.276Z</time></trkpt><trkpt lat="44.0634383" lon="6.8524467"><ele>775.6666666666667</ele><time>2026-05-03T11:03:20.276Z</time></trkpt><trkpt lat="44.0634367" lon="6.8526533"><ele>776.0</ele><time>2026-05-03T11:03:21.276Z</time></trkpt><trkpt lat="44.0634483" lon="6.8528783"><ele>774.6666666666667</ele><time>2026-05-03T11:03:22.276Z</time></trkpt><trkpt lat="44.06348" lon="6.8531017"><ele>773.3333333333333</ele><time>2026-05-03T11:03:23.276Z</time></trkpt><trkpt lat="44.0635183" lon="6.8533267"><ele>772.0</ele><time>2026-05-03T11:03:24.276Z</time></trkpt><trkpt lat="44.06354" lon="6.85351"><ele>770.6</ele><time>2026-05-03T11:03:25.276Z</time></trkpt><trkpt lat="44.0635367" lon="6.8536733"><ele>769.2</ele><time>2026-05-03T11:03:26.276Z</time></trkpt><trkpt lat="44.0635417" lon="6.8538133"><ele>767.8</ele><time>2026-05-03T11:03:27.276Z</time></trkpt><trkpt lat="44.063575" lon="6.8539367"><ele>766.4</ele><time>2026-05-03T11:03:28.276Z</time></trkpt><trkpt lat="44.06363" lon="6.8540517"><ele>765.0</ele><time>2026-05-03T11:03:29.276Z</time></trkpt><trkpt lat="44.0636967" lon="6.854135"><ele>765.0</ele><time>2026-05-03T11:03:30.277Z</time></trkpt><trkpt lat="44.06379" lon="6.85418"><ele>765.0</ele><time>2026-05-03T11:03:31.276Z</time></trkpt><trkpt lat="44.0638867" lon="6.8541717"><ele>765.0</ele><time>2026-05-03T11:03:32.276Z</time></trkpt><trkpt lat="44.0639933" lon="6.85412"><ele>765.0</ele><time>2026-05-03T11:03:33.276Z</time></trkpt><trkpt lat="44.0641317" lon="6.85402"><ele>769.0</ele><time>2026-05-03T11:03:34.276Z</time></trkpt><trkpt lat="44.0642683" lon="6.8539333"><ele>773.0</ele><time>2026-05-03T11:03:35.276Z</time></trkpt><trkpt lat="44.0644033" lon="6.8538883"><ele>777.0</ele><time>2026-05-03T11:03:36.276Z</time></trkpt><trkpt lat="44.0645483" lon="6.8539117"><ele>781.0</ele><time>2026-05-03T11:03:37.276Z</time></trkpt><trkpt lat="44.06469" lon="6.8539467"><ele>781.0</ele><time>2026-05-03T11:03:38.276Z</time></trkpt><trkpt lat="44.064815" lon="6.85397"><ele>781.0</ele><time>2026-05-03T11:03:39.276Z</time></trkpt><trkpt lat="44.06495" lon="6.8539617"><ele>781.0</ele><time>2026-05-03T11:03:40.276Z</time></trkpt><trkpt lat="44.0650867" lon="6.85392"><ele>781.0</ele><time>2026-05-03T11:03:41.276Z</time></trkpt><trkpt lat="44.06523" lon="6.85389"><ele>779.6666666666666</ele><time>2026-05-03T11:03:42.276Z</time></trkpt><trkpt lat="44.0653783" lon="6.85388"><ele>778.3333333333333</ele><time>2026-05-03T11:03:43.276Z</time></trkpt><trkpt lat="44.065535" lon="6.8538833"><ele>777.0</ele><time>2026-05-03T11:03:44.276Z</time></trkpt><trkpt lat="44.0656917" lon="6.8539167"><ele>776.6666666666667</ele><time>2026-05-03T11:03:45.277Z</time></trkpt><trkpt lat="44.0658517" lon="6.8539317"><ele>776.3333333333334</ele><time>2026-05-03T11:03:46.276Z</time></trkpt><trkpt lat="44.06602" lon="6.8539467"><ele>776.0</ele><time>2026-05-03T11:03:47.276Z</time></trkpt><trkpt lat="44.066195" lon="6.85397"><ele>776.0</ele><time>2026-05-03T11:03:48.276Z</time></trkpt><trkpt lat="44.0663683" lon="6.8539817"><ele>776.0</ele><time>2026-05-03T11:03:49.276Z</time></trkpt><trkpt lat="44.06654" lon="6.8539833"><ele>776.0</ele><time>2026-05-03T11:03:50.276Z</time></trkpt><trkpt lat="44.06671" lon="6.8539933"><ele>777.0</ele><time>2026-05-03T11:03:51.276Z</time></trkpt><trkpt lat="44.0668733" lon="6.854015"><ele>778.0</ele><time>2026-05-03T11:03:52.276Z</time></trkpt><trkpt lat="44.0670283" lon="6.8540517"><ele>779.0</ele><time>2026-05-03T11:03:53.276Z</time></trkpt><trkpt lat="44.067185" lon="6.8541067"><ele>779.0</ele><time>2026-05-03T11:03:54.276Z</time></trkpt><trkpt lat="44.06733" lon="6.8541667"><ele>779.0</ele><time>2026-05-03T11:03:55.276Z</time></trkpt><trkpt lat="44.06748" lon="6.854245"><ele>779.0</ele><time>2026-05-03T11:03:56.276Z</time></trkpt><trkpt lat="44.0676183" lon="6.854345"><ele>770.6666666666667</ele><time>2026-05-03T11:03:57.276Z</time></trkpt><trkpt lat="44.0677633" lon="6.8544483"><ele>762.3333333333334</ele><time>2026-05-03T11:03:58.276Z</time></trkpt><trkpt lat="44.0679133" lon="6.8545433"><ele>754.0</ele><time>2026-05-03T11:03:59.276Z</time></trkpt><trkpt lat="44.0680633" lon="6.85462"><ele>754.0</ele><time>2026-05-03T11:04:00.276Z</time></trkpt><trkpt lat="44.0682267" lon="6.8546733"><ele>754.0</ele><time>2026-05-03T11:04:01.276Z</time></trkpt><trkpt lat="44.0684017" lon="6.8547033"><ele>754.0</ele><time>2026-05-03T11:04:02.276Z</time></trkpt><trkpt lat="44.0685767" lon="6.8547183"><ele>758.6666666666667</ele><time>2026-05-03T11:04:03.276Z</time></trkpt><trkpt lat="44.0687317" lon="6.85472"><ele>763.3333333333334</ele><time>2026-05-03T11:04:04.276Z</time></trkpt><trkpt lat="44.068885" lon="6.85472"><ele>768.0</ele><time>2026-05-03T11:04:05.276Z</time></trkpt><trkpt lat="44.0690367" lon="6.854715"><ele>770.5</ele><time>2026-05-03T11:04:06.276Z</time></trkpt><trkpt lat="44.0691767" lon="6.8547133"><ele>773.0</ele><time>2026-05-03T11:04:07.276Z</time></trkpt><trkpt lat="44.069305" lon="6.854755"><ele>775.5</ele><time>2026-05-03T11:04:08.276Z</time></trkpt><trkpt lat="44.0694217" lon="6.8548433"><ele>778.0</ele><time>2026-05-03T11:04:09.276Z</time></trkpt><trkpt lat="44.0695133" lon="6.8549783"><ele>769.3333333333333</ele><time>2026-05-03T11:04:10.276Z</time></trkpt><trkpt lat="44.0695933" lon="6.8551467"><ele>760.6666666666666</ele><time>2026-05-03T11:04:11.276Z</time></trkpt><trkpt lat="44.0696817" lon="6.8553283"><ele>752.0</ele><time>2026-05-03T11:04:12.277Z</time></trkpt><trkpt lat="44.0697783" lon="6.855505"><ele>752.0</ele><time>2026-05-03T11:04:13.276Z</time></trkpt><trkpt lat="44.0698817" lon="6.8556783"><ele>752.0</ele><time>2026-05-03T11:04:14.276Z</time></trkpt><trkpt lat="44.06997" lon="6.8558367"><ele>752.0</ele><time>2026-05-03T11:04:15.276Z</time></trkpt><trkpt lat="44.0700717" lon="6.8559917"><ele>751.0</ele><time>2026-05-03T11:04:16.276Z</time></trkpt><trkpt lat="44.0701933" lon="6.8561133"><ele>750.0</ele><time>2026-05-03T11:04:17.277Z</time></trkpt><trkpt lat="44.0703483" lon="6.8562017"><ele>749.0</ele><time>2026-05-03T11:04:18.276Z</time></trkpt><trkpt lat="44.070525" lon="6.8562717"><ele>749.0</ele><time>2026-05-03T11:04:19.276Z</time></trkpt><trkpt lat="44.070705" lon="6.8563283"><ele>749.0</ele><time>2026-05-03T11:04:20.276Z</time></trkpt><trkpt lat="44.07089" lon="6.8563917"><ele>749.0</ele><time>2026-05-03T11:04:21.277Z</time></trkpt><trkpt lat="44.071075" lon="6.8564633"><ele>754.3333333333333</ele><time>2026-05-03T11:04:22.276Z</time></trkpt><trkpt lat="44.0712567" lon="6.856535"><ele>759.6666666666666</ele><time>2026-05-03T11:04:23.276Z</time></trkpt><trkpt lat="44.07144" lon="6.8566033"><ele>765.0</ele><time>2026-05-03T11:04:24.276Z</time></trkpt><trkpt lat="44.07162" lon="6.8566717"><ele>763.6666666666666</ele><time>2026-05-03T11:04:25.276Z</time></trkpt><trkpt lat="44.07181" lon="6.8567233"><ele>762.3333333333333</ele><time>2026-05-03T11:04:26.276Z</time></trkpt><trkpt lat="44.0720033" lon="6.8567633"><ele>761.0</ele><time>2026-05-03T11:04:27.276Z</time></trkpt><trkpt lat="44.0722167" lon="6.856795"><ele>761.0</ele><time>2026-05-03T11:04:28.276Z</time></trkpt><trkpt lat="44.0724217" lon="6.8568017"><ele>761.0</ele><time>2026-05-03T11:04:29.276Z</time></trkpt><trkpt lat="44.0726233" lon="6.8568267"><ele>761.0</ele><time>2026-05-03T11:04:30.276Z</time></trkpt><trkpt lat="44.0728067" lon="6.8568533"><ele>761.6666666666666</ele><time>2026-05-03T11:04:31.276Z</time></trkpt><trkpt lat="44.0729833" lon="6.85689"><ele>762.3333333333334</ele><time>2026-05-03T11:04:32.276Z</time></trkpt><trkpt lat="44.07316" lon="6.8569183"><ele>763.0</ele><time>2026-05-03T11:04:33.276Z</time></trkpt><trkpt lat="44.073335" lon="6.8569433"><ele>766.6666666666667</ele><time>2026-05-03T11:04:34.276Z</time></trkpt><trkpt lat="44.0735083" lon="6.85698"><ele>770.3333333333334</ele><time>2026-05-03T11:04:35.276Z</time></trkpt><trkpt lat="44.0736783" lon="6.8570133"><ele>774.0</ele><time>2026-05-03T11:04:36.277Z</time></trkpt><trkpt lat="44.0738517" lon="6.8570533"><ele>774.0</ele><time>2026-05-03T11:04:37.276Z</time></trkpt><trkpt lat="44.0740133" lon="6.8570917"><ele>774.0</ele><time>2026-05-03T11:04:38.276Z</time></trkpt><trkpt lat="44.0741867" lon="6.857125"><ele>774.0</ele><time>2026-05-03T11:04:39.276Z</time></trkpt><trkpt lat="44.0743517" lon="6.8571617"><ele>771.0</ele><time>2026-05-03T11:04:40.276Z</time></trkpt><trkpt lat="44.0745133" lon="6.8571883"><ele>768.0</ele><time>2026-05-03T11:04:41.276Z</time></trkpt><trkpt lat="44.0746467" lon="6.85727"><ele>765.0</ele><time>2026-05-03T11:04:42.276Z</time></trkpt><trkpt lat="44.07476" lon="6.8573883"><ele>765.0</ele><time>2026-05-03T11:04:43.276Z</time></trkpt><trkpt lat="44.074865" lon="6.8575117"><ele>765.0</ele><time>2026-05-03T11:04:44.276Z</time></trkpt><trkpt lat="44.0749817" lon="6.85763"><ele>765.0</ele><time>2026-05-03T11:04:45.277Z</time></trkpt><trkpt lat="44.0751167" lon="6.857755"><ele>765.0</ele><time>2026-05-03T11:04:46.276Z</time></trkpt><trkpt lat="44.0752667" lon="6.8578617"><ele>767.0</ele><time>2026-05-03T11:04:47.276Z</time></trkpt><trkpt lat="44.0754233" lon="6.8579517"><ele>769.0</ele><time>2026-05-03T11:04:48.276Z</time></trkpt><trkpt lat="44.0755833" lon="6.8580217"><ele>771.0</ele><time>2026-05-03T11:04:49.276Z</time></trkpt><trkpt lat="44.07573" lon="6.8580733"><ele>770.75</ele><time>2026-05-03T11:04:50.276Z</time></trkpt><trkpt lat="44.0758633" lon="6.85811"><ele>770.5</ele><time>2026-05-03T11:04:51.276Z</time></trkpt><trkpt lat="44.0760117" lon="6.8581117"><ele>770.25</ele><time>2026-05-03T11:04:52.276Z</time></trkpt><trkpt lat="44.0761583" lon="6.8580733"><ele>770.0</ele><time>2026-05-03T11:04:53.277Z</time></trkpt><trkpt lat="44.0763183" lon="6.858"><ele>770.0</ele><time>2026-05-03T11:04:54.276Z</time></trkpt><trkpt lat="44.0764833" lon="6.857925"><ele>770.0</ele><time>2026-05-03T11:04:55.276Z</time></trkpt><trkpt lat="44.0766617" lon="6.8578467"><ele>770.0</ele><time>2026-05-03T11:04:56.276Z</time></trkpt><trkpt lat="44.076855" lon="6.85777"><ele>771.6666666666667</ele><time>2026-05-03T11:04:57.276Z</time></trkpt><trkpt lat="44.0770517" lon="6.8576833"><ele>773.3333333333333</ele><time>2026-05-03T11:04:58.276Z</time></trkpt><trkpt lat="44.0772433" lon="6.8576033"><ele>775.0</ele><time>2026-05-03T11:04:59.276Z</time></trkpt><trkpt lat="44.0774533" lon="6.8575267"><ele>769.6666666666666</ele><time>2026-05-03T11:05:00.276Z</time></trkpt><trkpt lat="44.077665" lon="6.857445"><ele>764.3333333333333</ele><time>2026-05-03T11:05:01.276Z</time></trkpt><trkpt lat="44.0778767" lon="6.8573683"><ele>759.0</ele><time>2026-05-03T11:05:02.276Z</time></trkpt><trkpt lat="44.0780867" lon="6.857285"><ele>761.0</ele><time>2026-05-03T11:05:03.276Z</time></trkpt><trkpt lat="44.0782933" lon="6.8572033"><ele>763.0</ele><time>2026-05-03T11:05:04.276Z</time></trkpt><trkpt lat="44.0784883" lon="6.8571333"><ele>765.0</ele><time>2026-05-03T11:05:05.276Z</time></trkpt><trkpt lat="44.0786817" lon="6.8570417"><ele>765.0</ele><time>2026-05-03T11:05:06.276Z</time></trkpt><trkpt lat="44.0788733" lon="6.8569667"><ele>765.0</ele><time>2026-05-03T11:05:07.276Z</time></trkpt><trkpt lat="44.07907" lon="6.8568917"><ele>765.0</ele><time>2026-05-03T11:05:08.276Z</time></trkpt><trkpt lat="44.0792667" lon="6.8568167"><ele>763.3333333333334</ele><time>2026-05-03T11:05:09.277Z</time></trkpt><trkpt lat="44.079465" lon="6.8567383"><ele>761.6666666666667</ele><time>2026-05-03T11:05:10.276Z</time></trkpt><trkpt lat="44.0796617" lon="6.8566633"><ele>760.0</ele><time>2026-05-03T11:05:11.276Z</time></trkpt><trkpt lat="44.0798483" lon="6.8565867"><ele>761.6666666666667</ele><time>2026-05-03T11:05:12.277Z</time></trkpt><trkpt lat="44.080035" lon="6.8565233"><ele>763.3333333333334</ele><time>2026-05-03T11:05:13.276Z</time></trkpt><trkpt lat="44.0802183" lon="6.8564583"><ele>765.0</ele><time>2026-05-03T11:05:14.277Z</time></trkpt><trkpt lat="44.0803933" lon="6.8563867"><ele>765.0</ele><time>2026-05-03T11:05:15.276Z</time></trkpt><trkpt lat="44.0805617" lon="6.8563183"><ele>765.0</ele><time>2026-05-03T11:05:16.276Z</time></trkpt><trkpt lat="44.0807217" lon="6.8562567"><ele>765.0</ele><time>2026-05-03T11:05:17.276Z</time></trkpt><trkpt lat="44.0808867" lon="6.856185"><ele>765.3333333333334</ele><time>2026-05-03T11:05:18.276Z</time></trkpt><trkpt lat="44.0810467" lon="6.85612"><ele>765.6666666666667</ele><time>2026-05-03T11:05:19.276Z</time></trkpt><trkpt lat="44.081215" lon="6.8560467"><ele>766.0</ele><time>2026-05-03T11:05:20.276Z</time></trkpt><trkpt lat="44.0813817" lon="6.8559817"><ele>766.0</ele><time>2026-05-03T11:05:21.276Z</time></trkpt><trkpt lat="44.0815433" lon="6.85593"><ele>766.0</ele><time>2026-05-03T11:05:22.276Z</time></trkpt><trkpt lat="44.0817117" lon="6.8558683"><ele>766.0</ele><time>2026-05-03T11:05:23.276Z</time></trkpt><trkpt lat="44.0818783" lon="6.85581"><ele>766.0</ele><time>2026-05-03T11:05:24.276Z</time></trkpt><trkpt lat="44.082045" lon="6.85574"><ele>766.0</ele><time>2026-05-03T11:05:25.276Z</time></trkpt><trkpt lat="44.0822083" lon="6.855675"><ele>766.0</ele><time>2026-05-03T11:05:26.276Z</time></trkpt><trkpt lat="44.0823717" lon="6.8556183"><ele>767.3333333333334</ele><time>2026-05-03T11:05:27.276Z</time></trkpt><trkpt lat="44.0825367" lon="6.8555533"><ele>768.6666666666667</ele><time>2026-05-03T11:05:28.276Z</time></trkpt><trkpt lat="44.0827017" lon="6.855495"><ele>770.0</ele><time>2026-05-03T11:05:29.276Z</time></trkpt><trkpt lat="44.0828567" lon="6.855425"><ele>770.0</ele><time>2026-05-03T11:05:30.276Z</time></trkpt><trkpt lat="44.0830183" lon="6.8553617"><ele>770.0</ele><time>2026-05-03T11:05:31.276Z</time></trkpt><trkpt lat="44.0831767" lon="6.855305"><ele>770.0</ele><time>2026-05-03T11:05:32.276Z</time></trkpt><trkpt lat="44.0833467" lon="6.8552483"><ele>769.6666666666667</ele><time>2026-05-03T11:05:33.277Z</time></trkpt><trkpt lat="44.0835117" lon="6.8551867"><ele>769.3333333333333</ele><time>2026-05-03T11:05:34.276Z</time></trkpt><trkpt lat="44.0836717" lon="6.855125"><ele>769.0</ele><time>2026-05-03T11:05:35.276Z</time></trkpt><trkpt lat="44.0838367" lon="6.855065"><ele>769.0</ele><time>2026-05-03T11:05:36.276Z</time></trkpt><trkpt lat="44.0839983" lon="6.8550017"><ele>769.0</ele><time>2026-05-03T11:05:37.276Z</time></trkpt><trkpt lat="44.08415" lon="6.8549367"><ele>769.0</ele><time>2026-05-03T11:05:38.277Z</time></trkpt><trkpt lat="44.084305" lon="6.854865"><ele>769.6666666666666</ele><time>2026-05-03T11:05:39.276Z</time></trkpt><trkpt lat="44.0844667" lon="6.8548"><ele>770.3333333333333</ele><time>2026-05-03T11:05:40.276Z</time></trkpt><trkpt lat="44.084625" lon="6.8547317"><ele>771.0</ele><time>2026-05-03T11:05:41.276Z</time></trkpt><trkpt lat="44.084785" lon="6.85467"><ele>772.6666666666667</ele><time>2026-05-03T11:05:42.276Z</time></trkpt><trkpt lat="44.08494" lon="6.8546167"><ele>774.3333333333334</ele><time>2026-05-03T11:05:43.276Z</time></trkpt><trkpt lat="44.0850917" lon="6.8545683"><ele>776.0</ele><time>2026-05-03T11:05:44.276Z</time></trkpt><trkpt lat="44.0852333" lon="6.85451"><ele>776.0</ele><time>2026-05-03T11:05:45.276Z</time></trkpt><trkpt lat="44.0853683" lon="6.8544567"><ele>776.0</ele><time>2026-05-03T11:05:46.276Z</time></trkpt><trkpt lat="44.0854933" lon="6.8544083"><ele>776.0</ele><time>2026-05-03T11:05:47.277Z</time></trkpt><trkpt lat="44.0856117" lon="6.85436"><ele>776.0</ele><time>2026-05-03T11:05:48.276Z</time></trkpt><trkpt lat="44.0857283" lon="6.8543133"><ele>778.0</ele><time>2026-05-03T11:05:49.276Z</time></trkpt><trkpt lat="44.085845" lon="6.8542683"><ele>780.0</ele><time>2026-05-03T11:05:50.276Z</time></trkpt><trkpt lat="44.08596" lon="6.8542367"><ele>782.0</ele><time>2026-05-03T11:05:51.277Z</time></trkpt><trkpt lat="44.08609" lon="6.8542183"><ele>784.0</ele><time>2026-05-03T11:05:52.277Z</time></trkpt><trkpt lat="44.0862267" lon="6.85423"><ele>784.0</ele><time>2026-05-03T11:05:53.276Z</time></trkpt><trkpt lat="44.0863517" lon="6.8542467"><ele>784.0</ele><time>2026-05-03T11:05:54.276Z</time></trkpt><trkpt lat="44.08647" lon="6.8542583"><ele>784.0</ele><time>2026-05-03T11:05:55.277Z</time></trkpt><trkpt lat="44.0865917" lon="6.8542583"><ele>784.0</ele><time>2026-05-03T11:05:56.276Z</time></trkpt><trkpt lat="44.086705" lon="6.8542617"><ele>786.0</ele><time>2026-05-03T11:05:57.276Z</time></trkpt><trkpt lat="44.0868167" lon="6.854225"><ele>788.0</ele><time>2026-05-03T11:05:58.277Z</time></trkpt><trkpt lat="44.0869017" lon="6.85415"><ele>790.0</ele><time>2026-05-03T11:05:59.276Z</time></trkpt><trkpt lat="44.0869867" lon="6.8540417"><ele>792.0</ele><time>2026-05-03T11:06:00.276Z</time></trkpt><trkpt lat="44.0870767" lon="6.8539167"><ele>792.0</ele><time>2026-05-03T11:06:01.277Z</time></trkpt><trkpt lat="44.0871583" lon="6.853795"><ele>792.0</ele><time>2026-05-03T11:06:02.276Z</time></trkpt><trkpt lat="44.08725" lon="6.8537033"><ele>792.0</ele><time>2026-05-03T11:06:03.276Z</time></trkpt><trkpt lat="44.0873417" lon="6.8536083"><ele>792.0</ele><time>2026-05-03T11:06:04.276Z</time></trkpt><trkpt lat="44.0874217" lon="6.8535217"><ele>792.0</ele><time>2026-05-03T11:06:05.276Z</time></trkpt><trkpt lat="44.0875083" lon="6.8534433"><ele>790.75</ele><time>2026-05-03T11:06:06.276Z</time></trkpt><trkpt lat="44.0876133" lon="6.8534233"><ele>789.5</ele><time>2026-05-03T11:06:07.276Z</time></trkpt><trkpt lat="44.08773" lon="6.8534717"><ele>788.25</ele><time>2026-05-03T11:06:08.276Z</time></trkpt><trkpt lat="44.08784" lon="6.853535"><ele>787.0</ele><time>2026-05-03T11:06:09.277Z</time></trkpt><trkpt lat="44.0879383" lon="6.8536083"><ele>787.6666666666666</ele><time>2026-05-03T11:06:10.276Z</time></trkpt><trkpt lat="44.0880267" lon="6.8536933"><ele>788.3333333333333</ele><time>2026-05-03T11:06:11.276Z</time></trkpt><trkpt lat="44.0880967" lon="6.8537783"><ele>789.0</ele><time>2026-05-03T11:06:12.276Z</time></trkpt><trkpt lat="44.0881633" lon="6.853835"><ele>789.6666666666667</ele><time>2026-05-03T11:06:13.276Z</time></trkpt><trkpt lat="44.0882367" lon="6.8538567"><ele>790.3333333333334</ele><time>2026-05-03T11:06:14.276Z</time></trkpt><trkpt lat="44.0883167" lon="6.8538583"><ele>791.0</ele><time>2026-05-03T11:06:15.276Z</time></trkpt><trkpt lat="44.0884017" lon="6.853835"><ele>791.0000000000001</ele><time>2026-05-03T11:06:16.276Z</time></trkpt><trkpt lat="44.0884867" lon="6.8537967"><ele>791.0</ele><time>2026-05-03T11:06:17.276Z</time></trkpt><trkpt lat="44.08858" lon="6.8537617"><ele>791.0</ele><time>2026-05-03T11:06:18.276Z</time></trkpt><trkpt lat="44.0886683" lon="6.8537333"><ele>791.0</ele><time>2026-05-03T11:06:19.276Z</time></trkpt><trkpt lat="44.08876" lon="6.8537133"><ele>791.0000000000001</ele><time>2026-05-03T11:06:20.276Z</time></trkpt><trkpt lat="44.0888367" lon="6.8536933"><ele>791.0</ele><time>2026-05-03T11:06:21.276Z</time></trkpt><trkpt lat="44.0889117" lon="6.8536733"><ele>791.0</ele><time>2026-05-03T11:06:22.276Z</time></trkpt><trkpt lat="44.08899" lon="6.853655"><ele>791.0</ele><time>2026-05-03T11:06:23.276Z</time></trkpt><trkpt lat="44.089065" lon="6.8536417"><ele>791.0</ele><time>2026-05-03T11:06:24.276Z</time></trkpt><trkpt lat="44.0891333" lon="6.8536283"><ele>791.0</ele><time>2026-05-03T11:06:25.276Z</time></trkpt><trkpt lat="44.0892067" lon="6.8536"><ele>791.0</ele><time>2026-05-03T11:06:26.276Z</time></trkpt><trkpt lat="44.0892767" lon="6.8535767"><ele>791.0</ele><time>2026-05-03T11:06:27.276Z</time></trkpt><trkpt lat="44.0893433" lon="6.8535633"><ele>791.0</ele><time>2026-05-03T11:06:28.276Z</time></trkpt><trkpt lat="44.0894117" lon="6.8535483"><ele>790.8571428571429</ele><time>2026-05-03T11:06:29.276Z</time></trkpt><trkpt lat="44.0894783" lon="6.8535367"><ele>790.7142857142858</ele><time>2026-05-03T11:06:30.276Z</time></trkpt><trkpt lat="44.0895467" lon="6.85352"><ele>790.5714285714286</ele><time>2026-05-03T11:06:31.276Z</time></trkpt><trkpt lat="44.0896217" lon="6.8535033"><ele>790.4285714285714</ele><time>2026-05-03T11:06:32.276Z</time></trkpt><trkpt lat="44.0896933" lon="6.8534867"><ele>790.2857142857143</ele><time>2026-05-03T11:06:33.276Z</time></trkpt><trkpt lat="44.089765" lon="6.8534633"><ele>790.1428571428571</ele><time>2026-05-03T11:06:34.276Z</time></trkpt><trkpt lat="44.0898483" lon="6.8534433"><ele>790.0</ele><time>2026-05-03T11:06:35.276Z</time></trkpt><trkpt lat="44.0899333" lon="6.8534233"><ele>790.4</ele><time>2026-05-03T11:06:36.276Z</time></trkpt><trkpt lat="44.0900267" lon="6.8533967"><ele>790.8</ele><time>2026-05-03T11:06:37.276Z</time></trkpt><trkpt lat="44.09012" lon="6.8533767"><ele>791.2</ele><time>2026-05-03T11:06:38.276Z</time></trkpt><trkpt lat="44.0902183" lon="6.853355"><ele>791.6</ele><time>2026-05-03T11:06:39.277Z</time></trkpt><trkpt lat="44.0903067" lon="6.8533383"><ele>792.0</ele><time>2026-05-03T11:06:40.277Z</time></trkpt><trkpt lat="44.090385" lon="6.8533067"><ele>792.0</ele><time>2026-05-03T11:06:41.276Z</time></trkpt><trkpt lat="44.090455" lon="6.85327"><ele>792.0</ele><time>2026-05-03T11:06:42.276Z</time></trkpt><trkpt lat="44.0905183" lon="6.8532367"><ele>792.0</ele><time>2026-05-03T11:06:43.276Z</time></trkpt><trkpt lat="44.0905883" lon="6.8532083"><ele>792.0</ele><time>2026-05-03T11:06:44.276Z</time></trkpt><trkpt lat="44.0906667" lon="6.8531617"><ele>792.0</ele><time>2026-05-03T11:06:45.276Z</time></trkpt><trkpt lat="44.09074" lon="6.85312"><ele>792.0</ele><time>2026-05-03T11:06:46.276Z</time></trkpt><trkpt lat="44.0908233" lon="6.8530733"><ele>792.6</ele><time>2026-05-03T11:06:47.276Z</time></trkpt><trkpt lat="44.0909083" lon="6.8530267"><ele>793.2</ele><time>2026-05-03T11:06:48.276Z</time></trkpt><trkpt lat="44.0909917" lon="6.85298"><ele>793.8</ele><time>2026-05-03T11:06:49.276Z</time></trkpt><trkpt lat="44.091085" lon="6.85293"><ele>794.4</ele><time>2026-05-03T11:06:50.276Z</time></trkpt><trkpt lat="44.09117" lon="6.852865"><ele>795.0</ele><time>2026-05-03T11:06:51.276Z</time></trkpt><trkpt lat="44.091255" lon="6.85281"><ele>795.0</ele><time>2026-05-03T11:06:52.276Z</time></trkpt><trkpt lat="44.091345" lon="6.8527567"><ele>795.0</ele><time>2026-05-03T11:06:53.276Z</time></trkpt><trkpt lat="44.0914333" lon="6.8527133"><ele>795.0</ele><time>2026-05-03T11:06:54.277Z</time></trkpt><trkpt lat="44.0915333" lon="6.8526633"><ele>795.0</ele><time>2026-05-03T11:06:55.277Z</time></trkpt><trkpt lat="44.091625" lon="6.8526167"><ele>795.0</ele><time>2026-05-03T11:06:56.276Z</time></trkpt><trkpt lat="44.091715" lon="6.8525683"><ele>794.4</ele><time>2026-05-03T11:06:57.277Z</time></trkpt><trkpt lat="44.0918067" lon="6.8525217"><ele>793.8</ele><time>2026-05-03T11:06:58.276Z</time></trkpt><trkpt lat="44.0919033" lon="6.8524817"><ele>793.2</ele><time>2026-05-03T11:06:59.276Z</time></trkpt><trkpt lat="44.0919933" lon="6.8524417"><ele>792.6</ele><time>2026-05-03T11:07:00.276Z</time></trkpt><trkpt lat="44.0920817" lon="6.852395"><ele>792.0</ele><time>2026-05-03T11:07:01.276Z</time></trkpt><trkpt lat="44.0921683" lon="6.8523533"><ele>792.0</ele><time>2026-05-03T11:07:02.276Z</time></trkpt><trkpt lat="44.0922533" lon="6.8523067"><ele>792.0</ele><time>2026-05-03T11:07:03.276Z</time></trkpt><trkpt lat="44.092345" lon="6.852265"><ele>792.0</ele><time>2026-05-03T11:07:04.276Z</time></trkpt><trkpt lat="44.092435" lon="6.8522317"><ele>792.0</ele><time>2026-05-03T11:07:05.276Z</time></trkpt><trkpt lat="44.0925233" lon="6.8522167"><ele>792.0</ele><time>2026-05-03T11:07:06.276Z</time></trkpt><trkpt lat="44.092615" lon="6.85222"><ele>793.0</ele><time>2026-05-03T11:07:07.276Z</time></trkpt><trkpt lat="44.0927" lon="6.8522583"><ele>794.0</ele><time>2026-05-03T11:07:08.276Z</time></trkpt><trkpt lat="44.0927867" lon="6.8523133"><ele>795.0</ele><time>2026-05-03T11:07:09.277Z</time></trkpt><trkpt lat="44.092865" lon="6.8523667"><ele>796.0</ele><time>2026-05-03T11:07:10.277Z</time></trkpt><trkpt lat="44.0929467" lon="6.8524133"><ele>797.0</ele><time>2026-05-03T11:07:11.276Z</time></trkpt><trkpt lat="44.0930367" lon="6.8524633"><ele>797.0</ele><time>2026-05-03T11:07:12.276Z</time></trkpt><trkpt lat="44.0931283" lon="6.8525017"><ele>797.0</ele><time>2026-05-03T11:07:13.277Z</time></trkpt><trkpt lat="44.0932233" lon="6.852535"><ele>797.0</ele><time>2026-05-03T11:07:14.277Z</time></trkpt><trkpt lat="44.0933167" lon="6.8525433"><ele>797.0</ele><time>2026-05-03T11:07:15.276Z</time></trkpt><trkpt lat="44.09341" lon="6.8525483"><ele>797.0</ele><time>2026-05-03T11:07:16.276Z</time></trkpt><trkpt lat="44.0935" lon="6.85254"><ele>798.8333333333334</ele><time>2026-05-03T11:07:17.276Z</time></trkpt><trkpt lat="44.0935883" lon="6.8525267"><ele>800.6666666666667</ele><time>2026-05-03T11:07:18.276Z</time></trkpt><trkpt lat="44.0936767" lon="6.8525117"><ele>802.5</ele><time>2026-05-03T11:07:19.276Z</time></trkpt><trkpt lat="44.09376" lon="6.8525017"><ele>804.3333333333333</ele><time>2026-05-03T11:07:20.276Z</time></trkpt><trkpt lat="44.0938417" lon="6.85249"><ele>806.1666666666666</ele><time>2026-05-03T11:07:21.276Z</time></trkpt><trkpt lat="44.09392" lon="6.8524817"><ele>808.0</ele><time>2026-05-03T11:07:22.277Z</time></trkpt><trkpt lat="44.094005" lon="6.8525017"><ele>813.0</ele><time>2026-05-03T11:07:23.276Z</time></trkpt><trkpt lat="44.0941" lon="6.8524883"><ele>818.0</ele><time>2026-05-03T11:07:24.277Z</time></trkpt><trkpt lat="44.0942067" lon="6.85245"><ele>823.0</ele><time>2026-05-03T11:07:25.276Z</time></trkpt><trkpt lat="44.09432" lon="6.8524083"><ele>828.0</ele><time>2026-05-03T11:07:26.276Z</time></trkpt><trkpt lat="44.0944533" lon="6.85232"><ele>828.0</ele><time>2026-05-03T11:07:27.276Z</time></trkpt><trkpt lat="44.0945767" lon="6.8522583"><ele>828.0</ele><time>2026-05-03T11:07:28.276Z</time></trkpt><trkpt lat="44.0947283" lon="6.8521583"><ele>828.0</ele><time>2026-05-03T11:07:29.276Z</time></trkpt><trkpt lat="44.0948883" lon="6.8520917"><ele>842.6666666666667</ele><time>2026-05-03T11:07:30.276Z</time></trkpt><trkpt lat="44.095035" lon="6.85201"><ele>857.3333333333334</ele><time>2026-05-03T11:07:31.276Z</time></trkpt><trkpt lat="44.0951767" lon="6.85194"><ele>872.0</ele><time>2026-05-03T11:07:32.276Z</time></trkpt><trkpt lat="44.09534" lon="6.85183"><ele>864.6666666666667</ele><time>2026-05-03T11:07:33.276Z</time></trkpt><trkpt lat="44.0954867" lon="6.8517417"><ele>857.3333333333333</ele><time>2026-05-03T11:07:34.276Z</time></trkpt><trkpt lat="44.0956283" lon="6.8516467"><ele>850.0</ele><time>2026-05-03T11:07:35.276Z</time></trkpt><trkpt lat="44.0957617" lon="6.85156"><ele>850.0</ele><time>2026-05-03T11:07:36.276Z</time></trkpt><trkpt lat="44.09617" lon="6.8512567"><ele>850.0</ele><time>2026-05-03T11:07:39.277Z</time></trkpt><trkpt lat="44.0963" lon="6.8511317"><ele>850.0</ele><time>2026-05-03T11:07:40.276Z</time></trkpt><trkpt lat="44.096395" lon="6.85089"><ele>850.0</ele><time>2026-05-03T11:07:41.277Z</time></trkpt><trkpt lat="44.096505" lon="6.8507517"><ele>840.3333333333333</ele><time>2026-05-03T11:07:42.277Z</time></trkpt><trkpt lat="44.0966067" lon="6.85056"><ele>830.6666666666667</ele><time>2026-05-03T11:07:43.276Z</time></trkpt><trkpt lat="44.0967183" lon="6.8503833"><ele>821.0</ele><time>2026-05-03T11:07:44.277Z</time></trkpt><trkpt lat="44.0968233" lon="6.85023"><ele>816.25</ele><time>2026-05-03T11:07:45.276Z</time></trkpt><trkpt lat="44.0969267" lon="6.8500867"><ele>811.5</ele><time>2026-05-03T11:07:46.276Z</time></trkpt><trkpt lat="44.09704" lon="6.849965"><ele>806.75</ele><time>2026-05-03T11:07:47.276Z</time></trkpt><trkpt lat="44.097175" lon="6.84985"><ele>802.0</ele><time>2026-05-03T11:07:48.276Z</time></trkpt><trkpt lat="44.0973217" lon="6.84976"><ele>808.3333333333333</ele><time>2026-05-03T11:07:49.276Z</time></trkpt><trkpt lat="44.0974683" lon="6.8496867"><ele>814.6666666666667</ele><time>2026-05-03T11:07:50.276Z</time></trkpt><trkpt lat="44.0976133" lon="6.849595"><ele>821.0</ele><time>2026-05-03T11:07:51.277Z</time></trkpt><trkpt lat="44.0977833" lon="6.8495183"><ele>821.0</ele><time>2026-05-03T11:07:52.276Z</time></trkpt><trkpt lat="44.0979383" lon="6.8494467"><ele>821.0</ele><time>2026-05-03T11:07:53.276Z</time></trkpt><trkpt lat="44.0980883" lon="6.849375"><ele>821.0</ele><time>2026-05-03T11:07:54.276Z</time></trkpt><trkpt lat="44.0982317" lon="6.8492967"><ele>818.6666666666667</ele><time>2026-05-03T11:07:55.276Z</time></trkpt><trkpt lat="44.0983867" lon="6.84924"><ele>816.3333333333333</ele><time>2026-05-03T11:07:56.276Z</time></trkpt><trkpt lat="44.0985467" lon="6.84921"><ele>814.0</ele><time>2026-05-03T11:07:57.276Z</time></trkpt><trkpt lat="44.0987133" lon="6.8492033"><ele>814.0</ele><time>2026-05-03T11:07:58.276Z</time></trkpt><trkpt lat="44.0988667" lon="6.8491933"><ele>814.0</ele><time>2026-05-03T11:07:59.276Z</time></trkpt><trkpt lat="44.0990067" lon="6.8491467"><ele>814.0</ele><time>2026-05-03T11:08:00.276Z</time></trkpt><trkpt lat="44.0991567" lon="6.8490783"><ele>819.3333333333333</ele><time>2026-05-03T11:08:01.276Z</time></trkpt><trkpt lat="44.09931" lon="6.8490283"><ele>824.6666666666667</ele><time>2026-05-03T11:08:02.276Z</time></trkpt><trkpt lat="44.09947" lon="6.8489983"><ele>830.0</ele><time>2026-05-03T11:08:03.276Z</time></trkpt><trkpt lat="44.0996317" lon="6.84896"><ele>830.0</ele><time>2026-05-03T11:08:04.277Z</time></trkpt><trkpt lat="44.09978" lon="6.848915"><ele>830.0</ele><time>2026-05-03T11:08:05.276Z</time></trkpt><trkpt lat="44.09993" lon="6.8488783"><ele>830.0</ele><time>2026-05-03T11:08:06.276Z</time></trkpt><trkpt lat="44.1000867" lon="6.8488683"><ele>836.5</ele><time>2026-05-03T11:08:07.276Z</time></trkpt><trkpt lat="44.1002233" lon="6.8488533"><ele>843.0</ele><time>2026-05-03T11:08:08.276Z</time></trkpt><trkpt lat="44.1003467" lon="6.848805"><ele>849.5</ele><time>2026-05-03T11:08:09.276Z</time></trkpt><trkpt lat="44.10046" lon="6.84873"><ele>856.0</ele><time>2026-05-03T11:08:10.277Z</time></trkpt><trkpt lat="44.1005383" lon="6.8485783"><ele>856.0</ele><time>2026-05-03T11:08:11.276Z</time></trkpt><trkpt lat="44.1006483" lon="6.8485017"><ele>856.0</ele><time>2026-05-03T11:08:12.276Z</time></trkpt><trkpt lat="44.1007633" lon="6.84845"><ele>856.0</ele><time>2026-05-03T11:08:13.276Z</time></trkpt><trkpt lat="44.1008733" lon="6.848425"><ele>856.0</ele><time>2026-05-03T11:08:14.277Z</time></trkpt><trkpt lat="44.1009983" lon="6.8484683"><ele>856.25</ele><time>2026-05-03T11:08:15.276Z</time></trkpt><trkpt lat="44.10113" lon="6.8485717"><ele>856.5</ele><time>2026-05-03T11:08:16.276Z</time></trkpt><trkpt lat="44.1012517" lon="6.8486817"><ele>856.75</ele><time>2026-05-03T11:08:17.276Z</time></trkpt><trkpt lat="44.10138" lon="6.8487817"><ele>857.0</ele><time>2026-05-03T11:08:18.276Z</time></trkpt><trkpt lat="44.1015217" lon="6.8488883"><ele>852.6666666666667</ele><time>2026-05-03T11:08:19.276Z</time></trkpt><trkpt lat="44.10168" lon="6.84897"><ele>848.3333333333333</ele><time>2026-05-03T11:08:20.276Z</time></trkpt><trkpt lat="44.101835" lon="6.8490367"><ele>844.0</ele><time>2026-05-03T11:08:21.276Z</time></trkpt><trkpt lat="44.101975" lon="6.8491167"><ele>844.0</ele><time>2026-05-03T11:08:22.276Z</time></trkpt><trkpt lat="44.10212" lon="6.8491833"><ele>844.0</ele><time>2026-05-03T11:08:23.276Z</time></trkpt><trkpt lat="44.1022733" lon="6.84923"><ele>844.0</ele><time>2026-05-03T11:08:24.276Z</time></trkpt><trkpt lat="44.1024317" lon="6.84926"><ele>842.6666666666666</ele><time>2026-05-03T11:08:25.276Z</time></trkpt><trkpt lat="44.1025933" lon="6.8492883"><ele>841.3333333333333</ele><time>2026-05-03T11:08:26.276Z</time></trkpt><trkpt lat="44.102755" lon="6.8493133"><ele>840.0</ele><time>2026-05-03T11:08:27.276Z</time></trkpt><trkpt lat="44.1029183" lon="6.84933"><ele>846.3333333333333</ele><time>2026-05-03T11:08:28.276Z</time></trkpt><trkpt lat="44.1030783" lon="6.849355"><ele>852.6666666666666</ele><time>2026-05-03T11:08:29.276Z</time></trkpt><trkpt lat="44.103235" lon="6.8493833"><ele>859.0</ele><time>2026-05-03T11:08:30.276Z</time></trkpt><trkpt lat="44.1033817" lon="6.8494017"><ele>859.0</ele><time>2026-05-03T11:08:31.276Z</time></trkpt><trkpt lat="44.10351" lon="6.84943"><ele>859.0000000000001</ele><time>2026-05-03T11:08:32.276Z</time></trkpt><trkpt lat="44.103625" lon="6.8494533"><ele>859.0000000000001</ele><time>2026-05-03T11:08:33.276Z</time></trkpt><trkpt lat="44.1037283" lon="6.8494533"><ele>859.0</ele><time>2026-05-03T11:08:34.276Z</time></trkpt><trkpt lat="44.103815" lon="6.8494417"><ele>859.0</ele><time>2026-05-03T11:08:35.276Z</time></trkpt><trkpt lat="44.103905" lon="6.849405"><ele>859.0</ele><time>2026-05-03T11:08:36.276Z</time></trkpt><trkpt lat="44.10398" lon="6.84933"><ele>859.0000000000001</ele><time>2026-05-03T11:08:37.277Z</time></trkpt><trkpt lat="44.10403" lon="6.849225"><ele>859.0000000000001</ele><time>2026-05-03T11:08:38.276Z</time></trkpt><trkpt lat="44.1040667" lon="6.8490933"><ele>859.0</ele><time>2026-05-03T11:08:39.277Z</time></trkpt><trkpt lat="44.1040833" lon="6.8489467"><ele>859.0</ele><time>2026-05-03T11:08:40.276Z</time></trkpt><trkpt lat="44.1041" lon="6.84881"><ele>858.8000000000001</ele><time>2026-05-03T11:08:41.276Z</time></trkpt><trkpt lat="44.1041183" lon="6.8486717"><ele>858.6000000000001</ele><time>2026-05-03T11:08:42.276Z</time></trkpt><trkpt lat="44.1041683" lon="6.848545"><ele>858.4</ele><time>2026-05-03T11:08:43.277Z</time></trkpt><trkpt lat="44.1042433" lon="6.8484267"><ele>858.2</ele><time>2026-05-03T11:08:44.276Z</time></trkpt><trkpt lat="44.1043283" lon="6.8483183"><ele>858.0</ele><time>2026-05-03T11:08:45.276Z</time></trkpt><trkpt lat="44.10443" lon="6.8482117"><ele>855.5</ele><time>2026-05-03T11:08:46.276Z</time></trkpt><trkpt lat="44.1045233" lon="6.8481"><ele>853.0</ele><time>2026-05-03T11:08:47.276Z</time></trkpt><trkpt lat="44.1046133" lon="6.8479583"><ele>850.5</ele><time>2026-05-03T11:08:48.276Z</time></trkpt><trkpt lat="44.1047033" lon="6.847815"><ele>848.0</ele><time>2026-05-03T11:08:49.277Z</time></trkpt><trkpt lat="44.1047983" lon="6.847685"><ele>850.5</ele><time>2026-05-03T11:08:50.276Z</time></trkpt><trkpt lat="44.1048967" lon="6.8475683"><ele>853.0</ele><time>2026-05-03T11:08:51.276Z</time></trkpt><trkpt lat="44.10498" lon="6.8474317"><ele>855.5</ele><time>2026-05-03T11:08:52.277Z</time></trkpt><trkpt lat="44.1050683" lon="6.8472867"><ele>858.0</ele><time>2026-05-03T11:08:53.276Z</time></trkpt><trkpt lat="44.1051633" lon="6.847145"><ele>858.0</ele><time>2026-05-03T11:08:54.276Z</time></trkpt><trkpt lat="44.1052517" lon="6.8469967"><ele>858.0</ele><time>2026-05-03T11:08:55.276Z</time></trkpt><trkpt lat="44.105345" lon="6.8468633"><ele>858.0</ele><time>2026-05-03T11:08:56.276Z</time></trkpt><trkpt lat="44.1054433" lon="6.8467417"><ele>858.0</ele><time>2026-05-03T11:08:57.276Z</time></trkpt><trkpt lat="44.10554" lon="6.84662"><ele>859.5</ele><time>2026-05-03T11:08:58.276Z</time></trkpt><trkpt lat="44.1056367" lon="6.8464967"><ele>861.0</ele><time>2026-05-03T11:08:59.276Z</time></trkpt><trkpt lat="44.1057367" lon="6.8463717"><ele>862.5</ele><time>2026-05-03T11:09:00.276Z</time></trkpt><trkpt lat="44.1058383" lon="6.84625"><ele>864.0</ele><time>2026-05-03T11:09:01.277Z</time></trkpt><trkpt lat="44.1059317" lon="6.846145"><ele>864.0</ele><time>2026-05-03T11:09:02.276Z</time></trkpt><trkpt lat="44.1060183" lon="6.84603"><ele>864.0</ele><time>2026-05-03T11:09:03.276Z</time></trkpt><trkpt lat="44.1060983" lon="6.8458967"><ele>864.0</ele><time>2026-05-03T11:09:04.276Z</time></trkpt><trkpt lat="44.1061683" lon="6.8457333"><ele>864.0</ele><time>2026-05-03T11:09:05.276Z</time></trkpt><trkpt lat="44.10623" lon="6.8455533"><ele>862.0</ele><time>2026-05-03T11:09:06.276Z</time></trkpt><trkpt lat="44.1062917" lon="6.845375"><ele>860.0</ele><time>2026-05-03T11:09:07.276Z</time></trkpt><trkpt lat="44.1063483" lon="6.8452017"><ele>858.0</ele><time>2026-05-03T11:09:08.276Z</time></trkpt><trkpt lat="44.1064017" lon="6.8450183"><ele>856.0</ele><time>2026-05-03T11:09:09.276Z</time></trkpt><trkpt lat="44.1064333" lon="6.84483"><ele>857.0</ele><time>2026-05-03T11:09:10.276Z</time></trkpt><trkpt lat="44.106455" lon="6.8446533"><ele>858.0</ele><time>2026-05-03T11:09:11.276Z</time></trkpt><trkpt lat="44.10648" lon="6.8445017"><ele>859.0</ele><time>2026-05-03T11:09:12.276Z</time></trkpt><trkpt lat="44.1065333" lon="6.8443783"><ele>860.0</ele><time>2026-05-03T11:09:13.276Z</time></trkpt><trkpt lat="44.1066217" lon="6.844295"><ele>860.0</ele><time>2026-05-03T11:09:14.276Z</time></trkpt><trkpt lat="44.1067033" lon="6.844215"><ele>860.0</ele><time>2026-05-03T11:09:15.276Z</time></trkpt><trkpt lat="44.1067467" lon="6.844115"><ele>860.0</ele><time>2026-05-03T11:09:16.276Z</time></trkpt><trkpt lat="44.1067633" lon="6.8440033"><ele>860.0</ele><time>2026-05-03T11:09:17.276Z</time></trkpt><trkpt lat="44.1067517" lon="6.84388"><ele>860.0</ele><time>2026-05-03T11:09:18.276Z</time></trkpt><trkpt lat="44.10671" lon="6.84374"><ele>860.0</ele><time>2026-05-03T11:09:19.276Z</time></trkpt><trkpt lat="44.1066883" lon="6.8436033"><ele>860.0</ele><time>2026-05-03T11:09:20.276Z</time></trkpt><trkpt lat="44.1066967" lon="6.84346"><ele>860.0</ele><time>2026-05-03T11:09:21.277Z</time></trkpt><trkpt lat="44.10672" lon="6.843315"><ele>860.0</ele><time>2026-05-03T11:09:22.276Z</time></trkpt><trkpt lat="44.1067617" lon="6.8431683"><ele>860.0</ele><time>2026-05-03T11:09:23.277Z</time></trkpt><trkpt lat="44.1068117" lon="6.8430317"><ele>859.0</ele><time>2026-05-03T11:09:24.276Z</time></trkpt><trkpt lat="44.1068633" lon="6.8428883"><ele>858.0</ele><time>2026-05-03T11:09:25.276Z</time></trkpt><trkpt lat="44.1069133" lon="6.8427367"><ele>857.0</ele><time>2026-05-03T11:09:26.276Z</time></trkpt><trkpt lat="44.106975" lon="6.842575"><ele>856.0</ele><time>2026-05-03T11:09:27.276Z</time></trkpt><trkpt lat="44.10704" lon="6.84241"><ele>854.25</ele><time>2026-05-03T11:09:28.276Z</time></trkpt><trkpt lat="44.1071117" lon="6.8422433"><ele>852.5</ele><time>2026-05-03T11:09:29.276Z</time></trkpt><trkpt lat="44.1071667" lon="6.8420833"><ele>850.75</ele><time>2026-05-03T11:09:30.276Z</time></trkpt><trkpt lat="44.1071983" lon="6.8419017"><ele>849.0</ele><time>2026-05-03T11:09:31.276Z</time></trkpt><trkpt lat="44.1072133" lon="6.8417333"><ele>847.75</ele><time>2026-05-03T11:09:32.277Z</time></trkpt><trkpt lat="44.1072233" lon="6.8415683"><ele>846.5</ele><time>2026-05-03T11:09:33.277Z</time></trkpt><trkpt lat="44.107245" lon="6.8414083"><ele>845.25</ele><time>2026-05-03T11:09:34.277Z</time></trkpt><trkpt lat="44.1072833" lon="6.8412617"><ele>844.0</ele><time>2026-05-03T11:09:35.276Z</time></trkpt><trkpt lat="44.1073483" lon="6.84112"><ele>850.75</ele><time>2026-05-03T11:09:36.276Z</time></trkpt><trkpt lat="44.107425" lon="6.8409833"><ele>857.5</ele><time>2026-05-03T11:09:37.276Z</time></trkpt><trkpt lat="44.1075017" lon="6.8408383"><ele>864.25</ele><time>2026-05-03T11:09:38.276Z</time></trkpt><trkpt lat="44.10757" lon="6.8406783"><ele>871.0</ele><time>2026-05-03T11:09:39.276Z</time></trkpt><trkpt lat="44.1076367" lon="6.8405167"><ele>871.0</ele><time>2026-05-03T11:09:40.276Z</time></trkpt><trkpt lat="44.1076983" lon="6.8403667"><ele>871.0</ele><time>2026-05-03T11:09:41.276Z</time></trkpt><trkpt lat="44.107755" lon="6.840225"><ele>871.0</ele><time>2026-05-03T11:09:42.276Z</time></trkpt><trkpt lat="44.1078133" lon="6.8400883"><ele>871.0</ele><time>2026-05-03T11:09:43.276Z</time></trkpt><trkpt lat="44.1078533" lon="6.8399517"><ele>869.0</ele><time>2026-05-03T11:09:44.276Z</time></trkpt><trkpt lat="44.1078683" lon="6.839815"><ele>866.9999999999999</ele><time>2026-05-03T11:09:45.277Z</time></trkpt><trkpt lat="44.1078717" lon="6.83969"><ele>864.9999999999999</ele><time>2026-05-03T11:09:46.276Z</time></trkpt><trkpt lat="44.107875" lon="6.8395617"><ele>863.0</ele><time>2026-05-03T11:09:47.277Z</time></trkpt><trkpt lat="44.1079017" lon="6.8394133"><ele>861.0</ele><time>2026-05-03T11:09:48.276Z</time></trkpt><trkpt lat="44.107945" lon="6.8392717"><ele>860.0</ele><time>2026-05-03T11:09:49.276Z</time></trkpt><trkpt lat="44.1079967" lon="6.8391283"><ele>859.0</ele><time>2026-05-03T11:09:50.276Z</time></trkpt><trkpt lat="44.1080433" lon="6.8389833"><ele>858.0</ele><time>2026-05-03T11:09:51.276Z</time></trkpt><trkpt lat="44.10808" lon="6.8388267"><ele>857.0</ele><time>2026-05-03T11:09:52.276Z</time></trkpt><trkpt lat="44.1081167" lon="6.8386717"><ele>857.0</ele><time>2026-05-03T11:09:53.276Z</time></trkpt><trkpt lat="44.1081683" lon="6.8385367"><ele>857.0</ele><time>2026-05-03T11:09:54.276Z</time></trkpt><trkpt lat="44.1082417" lon="6.8384133"><ele>857.0</ele><time>2026-05-03T11:09:55.276Z</time></trkpt><trkpt lat="44.108335" lon="6.8383067"><ele>857.0</ele><time>2026-05-03T11:09:56.276Z</time></trkpt><trkpt lat="44.1084367" lon="6.8382117"><ele>859.0</ele><time>2026-05-03T11:09:57.276Z</time></trkpt><trkpt lat="44.108535" lon="6.8381183"><ele>861.0</ele><time>2026-05-03T11:09:58.276Z</time></trkpt><trkpt lat="44.10863" lon="6.838035"><ele>863.0</ele><time>2026-05-03T11:09:59.276Z</time></trkpt><trkpt lat="44.1087317" lon="6.8379717"><ele>865.0</ele><time>2026-05-03T11:10:00.276Z</time></trkpt><trkpt lat="44.108845" lon="6.8379217"><ele>865.0</ele><time>2026-05-03T11:10:01.277Z</time></trkpt><trkpt lat="44.1089667" lon="6.8378617"><ele>865.0</ele><time>2026-05-03T11:10:02.277Z</time></trkpt><trkpt lat="44.10909" lon="6.8378083"><ele>865.0</ele><time>2026-05-03T11:10:03.276Z</time></trkpt><trkpt lat="44.10922" lon="6.8377583"><ele>865.0</ele><time>2026-05-03T11:10:04.276Z</time></trkpt><trkpt lat="44.109365" lon="6.83775"><ele>863.3333333333333</ele><time>2026-05-03T11:10:05.276Z</time></trkpt><trkpt lat="44.1095067" lon="6.837675"><ele>861.6666666666667</ele><time>2026-05-03T11:10:06.277Z</time></trkpt><trkpt lat="44.1096667" lon="6.8375767"><ele>860.0</ele><time>2026-05-03T11:10:07.276Z</time></trkpt><trkpt lat="44.1098233" lon="6.837465"><ele>866.0</ele><time>2026-05-03T11:10:08.277Z</time></trkpt><trkpt lat="44.1099617" lon="6.837375"><ele>872.0</ele><time>2026-05-03T11:10:09.276Z</time></trkpt><trkpt lat="44.110105" lon="6.837285"><ele>878.0</ele><time>2026-05-03T11:10:10.277Z</time></trkpt><trkpt lat="44.110245" lon="6.8371933"><ele>878.0</ele><time>2026-05-03T11:10:11.276Z</time></trkpt><trkpt lat="44.1103867" lon="6.8371117"><ele>878.0</ele><time>2026-05-03T11:10:12.276Z</time></trkpt><trkpt lat="44.11055" lon="6.83706"><ele>878.0</ele><time>2026-05-03T11:10:13.276Z</time></trkpt><trkpt lat="44.1107133" lon="6.8370083"><ele>882.3333333333334</ele><time>2026-05-03T11:10:14.276Z</time></trkpt><trkpt lat="44.1108717" lon="6.836985"><ele>886.6666666666667</ele><time>2026-05-03T11:10:15.277Z</time></trkpt><trkpt lat="44.111045" lon="6.836975"><ele>891.0</ele><time>2026-05-03T11:10:16.276Z</time></trkpt><trkpt lat="44.1112133" lon="6.836975"><ele>891.0</ele><time>2026-05-03T11:10:17.276Z</time></trkpt><trkpt lat="44.1113717" lon="6.8369667"><ele>891.0</ele><time>2026-05-03T11:10:18.276Z</time></trkpt><trkpt lat="44.11153" lon="6.8369433"><ele>891.0</ele><time>2026-05-03T11:10:19.277Z</time></trkpt><trkpt lat="44.1116867" lon="6.8369067"><ele>893.75</ele><time>2026-05-03T11:10:20.277Z</time></trkpt><trkpt lat="44.1118267" lon="6.83688"><ele>896.5</ele><time>2026-05-03T11:10:21.276Z</time></trkpt><trkpt lat="44.11196" lon="6.8368583"><ele>899.25</ele><time>2026-05-03T11:10:22.276Z</time></trkpt><trkpt lat="44.1120567" lon="6.8367933"><ele>902.0</ele><time>2026-05-03T11:10:23.276Z</time></trkpt><trkpt lat="44.11214" lon="6.8366833"><ele>893.0</ele><time>2026-05-03T11:10:24.276Z</time></trkpt><trkpt lat="44.1121817" lon="6.8365383"><ele>884.0</ele><time>2026-05-03T11:10:25.277Z</time></trkpt><trkpt lat="44.112195" lon="6.8363817"><ele>875.0</ele><time>2026-05-03T11:10:26.276Z</time></trkpt><trkpt lat="44.112205" lon="6.8362167"><ele>866.0</ele><time>2026-05-03T11:10:27.277Z</time></trkpt><trkpt lat="44.1122117" lon="6.83605"><ele>864.8</ele><time>2026-05-03T11:10:28.276Z</time></trkpt><trkpt lat="44.112225" lon="6.835895"><ele>863.5999999999999</ele><time>2026-05-03T11:10:29.276Z</time></trkpt><trkpt lat="44.11224" lon="6.83573"><ele>862.4</ele><time>2026-05-03T11:10:30.276Z</time></trkpt><trkpt lat="44.112225" lon="6.835595"><ele>861.2</ele><time>2026-05-03T11:10:31.276Z</time></trkpt><trkpt lat="44.1121833" lon="6.8354717"><ele>860.0</ele><time>2026-05-03T11:10:32.276Z</time></trkpt><trkpt lat="44.1121117" lon="6.835355"><ele>860.0</ele><time>2026-05-03T11:10:33.276Z</time></trkpt><trkpt lat="44.1120133" lon="6.835235"><ele>860.0</ele><time>2026-05-03T11:10:34.276Z</time></trkpt><trkpt lat="44.1118983" lon="6.8351067"><ele>860.0</ele><time>2026-05-03T11:10:35.276Z</time></trkpt><trkpt lat="44.111785" lon="6.8349667"><ele>860.0</ele><time>2026-05-03T11:10:36.276Z</time></trkpt><trkpt lat="44.1116583" lon="6.8348267"><ele>862.0</ele><time>2026-05-03T11:10:37.276Z</time></trkpt><trkpt lat="44.1115317" lon="6.83469"><ele>864.0</ele><time>2026-05-03T11:10:38.276Z</time></trkpt><trkpt lat="44.1113983" lon="6.8345583"><ele>866.0</ele><time>2026-05-03T11:10:39.276Z</time></trkpt><trkpt lat="44.111265" lon="6.83444"><ele>866.0</ele><time>2026-05-03T11:10:40.276Z</time></trkpt><trkpt lat="44.1111417" lon="6.834325"><ele>866.0</ele><time>2026-05-03T11:10:41.276Z</time></trkpt><trkpt lat="44.1110283" lon="6.8342267"><ele>866.0</ele><time>2026-05-03T11:10:42.277Z</time></trkpt><trkpt lat="44.11094" lon="6.834135"><ele>866.0</ele><time>2026-05-03T11:10:43.276Z</time></trkpt><trkpt lat="44.1108183" lon="6.8340833"><ele>869.0</ele><time>2026-05-03T11:10:44.276Z</time></trkpt><trkpt lat="44.110695" lon="6.8340583"><ele>872.0</ele><time>2026-05-03T11:10:45.276Z</time></trkpt><trkpt lat="44.11055" lon="6.8340483"><ele>875.0</ele><time>2026-05-03T11:10:46.277Z</time></trkpt><trkpt lat="44.1104033" lon="6.8340417"><ele>878.0</ele><time>2026-05-03T11:10:47.276Z</time></trkpt><trkpt lat="44.1102583" lon="6.834035"><ele>878.0</ele><time>2026-05-03T11:10:48.277Z</time></trkpt><trkpt lat="44.11012" lon="6.8340133"><ele>878.0</ele><time>2026-05-03T11:10:49.276Z</time></trkpt><trkpt lat="44.1099883" lon="6.8339767"><ele>878.0</ele><time>2026-05-03T11:10:50.276Z</time></trkpt><trkpt lat="44.1098583" lon="6.8339217"><ele>878.0</ele><time>2026-05-03T11:10:51.276Z</time></trkpt><trkpt lat="44.1097417" lon="6.8338433"><ele>876.25</ele><time>2026-05-03T11:10:52.276Z</time></trkpt><trkpt lat="44.1096317" lon="6.8337617"><ele>874.5</ele><time>2026-05-03T11:10:53.276Z</time></trkpt><trkpt lat="44.1095283" lon="6.8336833"><ele>872.75</ele><time>2026-05-03T11:10:54.277Z</time></trkpt><trkpt lat="44.1094283" lon="6.8335933"><ele>871.0</ele><time>2026-05-03T11:10:55.276Z</time></trkpt><trkpt lat="44.1093367" lon="6.8334967"><ele>868.25</ele><time>2026-05-03T11:10:56.276Z</time></trkpt><trkpt lat="44.1092567" lon="6.83337"><ele>865.5</ele><time>2026-05-03T11:10:57.276Z</time></trkpt><trkpt lat="44.1091833" lon="6.8332233"><ele>862.75</ele><time>2026-05-03T11:10:58.276Z</time></trkpt><trkpt lat="44.1091233" lon="6.8330733"><ele>860.0</ele><time>2026-05-03T11:10:59.276Z</time></trkpt><trkpt lat="44.1090683" lon="6.8329033"><ele>860.0</ele><time>2026-05-03T11:11:00.277Z</time></trkpt><trkpt lat="44.1090317" lon="6.83273"><ele>860.0</ele><time>2026-05-03T11:11:01.276Z</time></trkpt><trkpt lat="44.1089967" lon="6.8325517"><ele>860.0</ele><time>2026-05-03T11:11:02.276Z</time></trkpt><trkpt lat="44.10897" lon="6.832365"><ele>860.0</ele><time>2026-05-03T11:11:03.276Z</time></trkpt><trkpt lat="44.108945" lon="6.832175"><ele>859.5</ele><time>2026-05-03T11:11:04.276Z</time></trkpt><trkpt lat="44.1089183" lon="6.831975"><ele>859.0</ele><time>2026-05-03T11:11:05.276Z</time></trkpt><trkpt lat="44.1088867" lon="6.8317767"><ele>858.5</ele><time>2026-05-03T11:11:06.276Z</time></trkpt><trkpt lat="44.1088533" lon="6.8315733"><ele>858.0</ele><time>2026-05-03T11:11:07.276Z</time></trkpt><trkpt lat="44.108835" lon="6.8313833"><ele>858.0</ele><time>2026-05-03T11:11:08.276Z</time></trkpt><trkpt lat="44.108825" lon="6.83118"><ele>858.0</ele><time>2026-05-03T11:11:09.276Z</time></trkpt><trkpt lat="44.1088383" lon="6.83098"><ele>858.0</ele><time>2026-05-03T11:11:10.276Z</time></trkpt><trkpt lat="44.1088633" lon="6.83077"><ele>858.0</ele><time>2026-05-03T11:11:11.276Z</time></trkpt><trkpt lat="44.10889" lon="6.8305583"><ele>858.0</ele><time>2026-05-03T11:11:12.276Z</time></trkpt><trkpt lat="44.10892" lon="6.83036"><ele>858.0</ele><time>2026-05-03T11:11:13.276Z</time></trkpt><trkpt lat="44.1089433" lon="6.8301733"><ele>858.0</ele><time>2026-05-03T11:11:14.276Z</time></trkpt><trkpt lat="44.1089483" lon="6.8299817"><ele>858.0</ele><time>2026-05-03T11:11:15.277Z</time></trkpt><trkpt lat="44.108915" lon="6.8297933"><ele>858.0</ele><time>2026-05-03T11:11:16.276Z</time></trkpt><trkpt lat="44.1088767" lon="6.8296033"><ele>858.0</ele><time>2026-05-03T11:11:17.276Z</time></trkpt><trkpt lat="44.1088233" lon="6.8294133"><ele>858.0</ele><time>2026-05-03T11:11:18.277Z</time></trkpt><trkpt lat="44.1087967" lon="6.82922"><ele>858.0</ele><time>2026-05-03T11:11:19.277Z</time></trkpt><trkpt lat="44.1087967" lon="6.8290217"><ele>858.0</ele><time>2026-05-03T11:11:20.276Z</time></trkpt><trkpt lat="44.1087983" lon="6.8288267"><ele>858.0</ele><time>2026-05-03T11:11:21.276Z</time></trkpt><trkpt lat="44.1088117" lon="6.8286267"><ele>858.0</ele><time>2026-05-03T11:11:22.276Z</time></trkpt><trkpt lat="44.1088317" lon="6.8284267"><ele>858.0</ele><time>2026-05-03T11:11:23.277Z</time></trkpt><trkpt lat="44.1088567" lon="6.8282217"><ele>858.0</ele><time>2026-05-03T11:11:24.276Z</time></trkpt><trkpt lat="44.10887" lon="6.82802"><ele>858.0</ele><time>2026-05-03T11:11:25.275Z</time></trkpt><trkpt lat="44.108895" lon="6.8278183"><ele>858.0</ele><time>2026-05-03T11:11:26.275Z</time></trkpt><trkpt lat="44.108945" lon="6.827615"><ele>858.0</ele><time>2026-05-03T11:11:27.275Z</time></trkpt><trkpt lat="44.1090017" lon="6.82742"><ele>858.0</ele><time>2026-05-03T11:11:28.275Z</time></trkpt><trkpt lat="44.109055" lon="6.8272233"><ele>858.0</ele><time>2026-05-03T11:11:29.275Z</time></trkpt><trkpt lat="44.1091217" lon="6.8270467"><ele>858.0</ele><time>2026-05-03T11:11:30.275Z</time></trkpt><trkpt lat="44.1091833" lon="6.826875"><ele>858.0</ele><time>2026-05-03T11:11:31.275Z</time></trkpt><trkpt lat="44.1092333" lon="6.826695"><ele>866.25</ele><time>2026-05-03T11:11:32.275Z</time></trkpt><trkpt lat="44.1092617" lon="6.82652"><ele>874.5</ele><time>2026-05-03T11:11:33.275Z</time></trkpt><trkpt lat="44.1092467" lon="6.8263217"><ele>882.75</ele><time>2026-05-03T11:11:34.275Z</time></trkpt><trkpt lat="44.109205" lon="6.8261417"><ele>891.0</ele><time>2026-05-03T11:11:35.275Z</time></trkpt><trkpt lat="44.1091533" lon="6.825945"><ele>893.0</ele><time>2026-05-03T11:11:36.275Z</time></trkpt><trkpt lat="44.1091217" lon="6.8257417"><ele>895.0</ele><time>2026-05-03T11:11:37.275Z</time></trkpt><trkpt lat="44.1091067" lon="6.8255267"><ele>897.0</ele><time>2026-05-03T11:11:38.275Z</time></trkpt><trkpt lat="44.10911" lon="6.825295"><ele>899.6666666666667</ele><time>2026-05-03T11:11:39.276Z</time></trkpt><trkpt lat="44.1091117" lon="6.825055"><ele>902.3333333333334</ele><time>2026-05-03T11:11:40.275Z</time></trkpt><trkpt lat="44.109115" lon="6.8248267"><ele>905.0</ele><time>2026-05-03T11:11:41.275Z</time></trkpt><trkpt lat="44.1091133" lon="6.8245983"><ele>905.0</ele><time>2026-05-03T11:11:42.275Z</time></trkpt><trkpt lat="44.109135" lon="6.8243717"><ele>905.0</ele><time>2026-05-03T11:11:43.275Z</time></trkpt><trkpt lat="44.1091667" lon="6.8241517"><ele>905.0</ele><time>2026-05-03T11:11:44.275Z</time></trkpt><trkpt lat="44.1092083" lon="6.8239283"><ele>901.75</ele><time>2026-05-03T11:11:45.275Z</time></trkpt><trkpt lat="44.1092567" lon="6.823735"><ele>898.5</ele><time>2026-05-03T11:11:46.275Z</time></trkpt><trkpt lat="44.1093233" lon="6.8235567"><ele>895.25</ele><time>2026-05-03T11:11:47.275Z</time></trkpt><trkpt lat="44.1094117" lon="6.823385"><ele>892.0</ele><time>2026-05-03T11:11:48.275Z</time></trkpt><trkpt lat="44.1095" lon="6.8232183"><ele>887.0</ele><time>2026-05-03T11:11:49.275Z</time></trkpt><trkpt lat="44.1096083" lon="6.8230767"><ele>882.0</ele><time>2026-05-03T11:11:50.275Z</time></trkpt><trkpt lat="44.1097183" lon="6.822955"><ele>877.0</ele><time>2026-05-03T11:11:51.275Z</time></trkpt><trkpt lat="44.1098267" lon="6.822845"><ele>872.0</ele><time>2026-05-03T11:11:52.275Z</time></trkpt><trkpt lat="44.109935" lon="6.822765"><ele>874.5</ele><time>2026-05-03T11:11:53.275Z</time></trkpt><trkpt lat="44.1100483" lon="6.8227067"><ele>877.0</ele><time>2026-05-03T11:11:54.275Z</time></trkpt><trkpt lat="44.11016" lon="6.822635"><ele>879.5</ele><time>2026-05-03T11:11:55.275Z</time></trkpt><trkpt lat="44.1102467" lon="6.8225183"><ele>882.0</ele><time>2026-05-03T11:11:56.275Z</time></trkpt><trkpt lat="44.11032" lon="6.822365"><ele>882.0</ele><time>2026-05-03T11:11:57.276Z</time></trkpt><trkpt lat="44.1103783" lon="6.82218"><ele>882.0</ele><time>2026-05-03T11:11:58.276Z</time></trkpt><trkpt lat="44.1104433" lon="6.8219833"><ele>882.0</ele><time>2026-05-03T11:11:59.275Z</time></trkpt><trkpt lat="44.1105017" lon="6.82181"><ele>882.0</ele><time>2026-05-03T11:12:00.275Z</time></trkpt><trkpt lat="44.1105483" lon="6.82163"><ele>878.5</ele><time>2026-05-03T11:12:01.275Z</time></trkpt><trkpt lat="44.110585" lon="6.821455"><ele>875.0</ele><time>2026-05-03T11:12:02.275Z</time></trkpt><trkpt lat="44.11065" lon="6.8212883"><ele>871.5</ele><time>2026-05-03T11:12:03.275Z</time></trkpt><trkpt lat="44.11073" lon="6.821135"><ele>868.0</ele><time>2026-05-03T11:12:04.275Z</time></trkpt><trkpt lat="44.1108283" lon="6.820995"><ele>870.5</ele><time>2026-05-03T11:12:05.275Z</time></trkpt><trkpt lat="44.1109283" lon="6.82086"><ele>873.0</ele><time>2026-05-03T11:12:06.275Z</time></trkpt><trkpt lat="44.1110317" lon="6.82073"><ele>875.5</ele><time>2026-05-03T11:12:07.276Z</time></trkpt><trkpt lat="44.11116" lon="6.8206367"><ele>878.0</ele><time>2026-05-03T11:12:08.276Z</time></trkpt><trkpt lat="44.111275" lon="6.8205383"><ele>878.0</ele><time>2026-05-03T11:12:09.275Z</time></trkpt><trkpt lat="44.1114067" lon="6.8204833"><ele>878.0</ele><time>2026-05-03T11:12:10.275Z</time></trkpt><trkpt lat="44.1115533" lon="6.8204517"><ele>878.0</ele><time>2026-05-03T11:12:11.275Z</time></trkpt><trkpt lat="44.1116933" lon="6.8204033"><ele>878.0</ele><time>2026-05-03T11:12:12.275Z</time></trkpt><trkpt lat="44.1118167" lon="6.8203367"><ele>876.75</ele><time>2026-05-03T11:12:13.275Z</time></trkpt><trkpt lat="44.111915" lon="6.8202617"><ele>875.5</ele><time>2026-05-03T11:12:14.275Z</time></trkpt><trkpt lat="44.1119883" lon="6.8201467"><ele>874.25</ele><time>2026-05-03T11:12:15.275Z</time></trkpt><trkpt lat="44.1120433" lon="6.8200033"><ele>873.0</ele><time>2026-05-03T11:12:16.275Z</time></trkpt><trkpt lat="44.1120533" lon="6.81984"><ele>873.0</ele><time>2026-05-03T11:12:17.275Z</time></trkpt><trkpt lat="44.112015" lon="6.8196783"><ele>873.0</ele><time>2026-05-03T11:12:18.275Z</time></trkpt><trkpt lat="44.111955" lon="6.8195333"><ele>873.0</ele><time>2026-05-03T11:12:19.275Z</time></trkpt><trkpt lat="44.1119067" lon="6.8194017"><ele>873.0</ele><time>2026-05-03T11:12:20.275Z</time></trkpt><trkpt lat="44.1118883" lon="6.8192617"><ele>871.5</ele><time>2026-05-03T11:12:21.275Z</time></trkpt><trkpt lat="44.1119017" lon="6.8191267"><ele>870.0</ele><time>2026-05-03T11:12:22.275Z</time></trkpt><trkpt lat="44.1119433" lon="6.8189933"><ele>868.5</ele><time>2026-05-03T11:12:23.275Z</time></trkpt><trkpt lat="44.1120217" lon="6.8188733"><ele>867.0</ele><time>2026-05-03T11:12:24.275Z</time></trkpt><trkpt lat="44.1121183" lon="6.8187333"><ele>867.0</ele><time>2026-05-03T11:12:25.275Z</time></trkpt><trkpt lat="44.1122217" lon="6.8185967"><ele>867.0</ele><time>2026-05-03T11:12:26.276Z</time></trkpt><trkpt lat="44.11235" lon="6.81845"><ele>867.0</ele><time>2026-05-03T11:12:27.275Z</time></trkpt><trkpt lat="44.1124917" lon="6.81829"><ele>871.6666666666667</ele><time>2026-05-03T11:12:28.275Z</time></trkpt><trkpt lat="44.1126383" lon="6.8181333"><ele>876.3333333333334</ele><time>2026-05-03T11:12:29.275Z</time></trkpt><trkpt lat="44.1127583" lon="6.8179683"><ele>881.0</ele><time>2026-05-03T11:12:30.275Z</time></trkpt><trkpt lat="44.1128833" lon="6.8177833"><ele>875.6666666666667</ele><time>2026-05-03T11:12:31.275Z</time></trkpt><trkpt lat="44.1129983" lon="6.8176017"><ele>870.3333333333333</ele><time>2026-05-03T11:12:32.275Z</time></trkpt><trkpt lat="44.1131183" lon="6.8174133"><ele>865.0</ele><time>2026-05-03T11:12:33.275Z</time></trkpt><trkpt lat="44.1132383" lon="6.81723"><ele>867.6666666666666</ele><time>2026-05-03T11:12:34.275Z</time></trkpt><trkpt lat="44.1133517" lon="6.8170383"><ele>870.3333333333333</ele><time>2026-05-03T11:12:35.275Z</time></trkpt><trkpt lat="44.1134567" lon="6.816835"><ele>873.0</ele><time>2026-05-03T11:12:36.275Z</time></trkpt><trkpt lat="44.1135583" lon="6.81662"><ele>873.0</ele><time>2026-05-03T11:12:37.275Z</time></trkpt><trkpt lat="44.1136417" lon="6.816405"><ele>873.0</ele><time>2026-05-03T11:12:38.276Z</time></trkpt><trkpt lat="44.113715" lon="6.8161767"><ele>873.0</ele><time>2026-05-03T11:12:39.275Z</time></trkpt><trkpt lat="44.11377" lon="6.8159317"><ele>871.3333333333333</ele><time>2026-05-03T11:12:40.275Z</time></trkpt><trkpt lat="44.1138283" lon="6.8156817"><ele>869.6666666666666</ele><time>2026-05-03T11:12:41.275Z</time></trkpt><trkpt lat="44.1138867" lon="6.8154233"><ele>868.0</ele><time>2026-05-03T11:12:42.275Z</time></trkpt><trkpt lat="44.1139517" lon="6.8151683"><ele>868.0</ele><time>2026-05-03T11:12:43.275Z</time></trkpt><trkpt lat="44.1140133" lon="6.8149167"><ele>868.0</ele><time>2026-05-03T11:12:44.275Z</time></trkpt><trkpt lat="44.1140867" lon="6.8146733"><ele>868.0</ele><time>2026-05-03T11:12:45.275Z</time></trkpt><trkpt lat="44.1141683" lon="6.8144267"><ele>871.0</ele><time>2026-05-03T11:12:46.275Z</time></trkpt><trkpt lat="44.1142467" lon="6.8141733"><ele>874.0</ele><time>2026-05-03T11:12:47.275Z</time></trkpt><trkpt lat="44.114325" lon="6.81392"><ele>877.0</ele><time>2026-05-03T11:12:48.276Z</time></trkpt><trkpt lat="44.11439" lon="6.8136767"><ele>876.3333333333333</ele><time>2026-05-03T11:12:49.275Z</time></trkpt><trkpt lat="44.1144583" lon="6.81343"><ele>875.6666666666667</ele><time>2026-05-03T11:12:50.275Z</time></trkpt><trkpt lat="44.1145183" lon="6.8131817"><ele>875.0</ele><time>2026-05-03T11:12:51.275Z</time></trkpt><trkpt lat="44.1145833" lon="6.8129283"><ele>875.0</ele><time>2026-05-03T11:12:52.275Z</time></trkpt><trkpt lat="44.1146333" lon="6.8126733"><ele>875.0</ele><time>2026-05-03T11:12:53.275Z</time></trkpt><trkpt lat="44.114685" lon="6.8124233"><ele>875.0</ele><time>2026-05-03T11:12:54.275Z</time></trkpt><trkpt lat="44.1147417" lon="6.8121767"><ele>875.0</ele><time>2026-05-03T11:12:55.275Z</time></trkpt><trkpt lat="44.114795" lon="6.8119367"><ele>875.0</ele><time>2026-05-03T11:12:56.275Z</time></trkpt><trkpt lat="44.11485" lon="6.8116967"><ele>875.0</ele><time>2026-05-03T11:12:57.275Z</time></trkpt><trkpt lat="44.114915" lon="6.8114567"><ele>879.6666666666667</ele><time>2026-05-03T11:12:58.275Z</time></trkpt><trkpt lat="44.11497" lon="6.81121"><ele>884.3333333333333</ele><time>2026-05-03T11:12:59.275Z</time></trkpt><trkpt lat="44.1150133" lon="6.8109583"><ele>889.0</ele><time>2026-05-03T11:13:00.275Z</time></trkpt><trkpt lat="44.1150367" lon="6.8107067"><ele>891.3333333333333</ele><time>2026-05-03T11:13:01.275Z</time></trkpt><trkpt lat="44.11506" lon="6.8104467"><ele>893.6666666666667</ele><time>2026-05-03T11:13:02.275Z</time></trkpt><trkpt lat="44.1150817" lon="6.8101917"><ele>896.0</ele><time>2026-05-03T11:13:03.276Z</time></trkpt><trkpt lat="44.1150967" lon="6.8099433"><ele>895.6666666666667</ele><time>2026-05-03T11:13:04.276Z</time></trkpt><trkpt lat="44.115115" lon="6.8097033"><ele>895.3333333333333</ele><time>2026-05-03T11:13:05.275Z</time></trkpt><trkpt lat="44.11515" lon="6.80946"><ele>895.0</ele><time>2026-05-03T11:13:06.275Z</time></trkpt><trkpt lat="44.1152083" lon="6.809235"><ele>895.0</ele><time>2026-05-03T11:13:07.275Z</time></trkpt><trkpt lat="44.1152933" lon="6.8090333"><ele>895.0</ele><time>2026-05-03T11:13:08.275Z</time></trkpt><trkpt lat="44.1154083" lon="6.8088333"><ele>895.0</ele><time>2026-05-03T11:13:09.275Z</time></trkpt><trkpt lat="44.115535" lon="6.80864"><ele>893.3333333333333</ele><time>2026-05-03T11:13:10.275Z</time></trkpt><trkpt lat="44.115665" lon="6.8084433"><ele>891.6666666666667</ele><time>2026-05-03T11:13:11.275Z</time></trkpt><trkpt lat="44.1157617" lon="6.8082167"><ele>890.0</ele><time>2026-05-03T11:13:12.275Z</time></trkpt><trkpt lat="44.1158283" lon="6.8079667"><ele>893.6666666666667</ele><time>2026-05-03T11:13:13.275Z</time></trkpt><trkpt lat="44.11587" lon="6.8077067"><ele>897.3333333333333</ele><time>2026-05-03T11:13:14.275Z</time></trkpt><trkpt lat="44.1159133" lon="6.807455"><ele>901.0</ele><time>2026-05-03T11:13:15.275Z</time></trkpt><trkpt lat="44.1159683" lon="6.8072017"><ele>901.0</ele><time>2026-05-03T11:13:16.275Z</time></trkpt><trkpt lat="44.1160483" lon="6.8069533"><ele>901.0</ele><time>2026-05-03T11:13:17.276Z</time></trkpt><trkpt lat="44.1161433" lon="6.8067117"><ele>901.0</ele><time>2026-05-03T11:13:18.275Z</time></trkpt><trkpt lat="44.11623" lon="6.8064683"><ele>898.0</ele><time>2026-05-03T11:13:19.275Z</time></trkpt><trkpt lat="44.1163083" lon="6.806225"><ele>895.0</ele><time>2026-05-03T11:13:20.275Z</time></trkpt><trkpt lat="44.1163883" lon="6.805995"><ele>892.0</ele><time>2026-05-03T11:13:21.275Z</time></trkpt><trkpt lat="44.1165" lon="6.8057967"><ele>897.0</ele><time>2026-05-03T11:13:22.275Z</time></trkpt><trkpt lat="44.1166317" lon="6.8056133"><ele>902.0</ele><time>2026-05-03T11:13:23.275Z</time></trkpt><trkpt lat="44.116765" lon="6.8054333"><ele>907.0</ele><time>2026-05-03T11:13:24.275Z</time></trkpt><trkpt lat="44.1168733" lon="6.8052233"><ele>904.3333333333333</ele><time>2026-05-03T11:13:25.276Z</time></trkpt><trkpt lat="44.11698" lon="6.8049983"><ele>901.6666666666667</ele><time>2026-05-03T11:13:26.275Z</time></trkpt><trkpt lat="44.1170917" lon="6.80479"><ele>899.0</ele><time>2026-05-03T11:13:27.276Z</time></trkpt><trkpt lat="44.1172233" lon="6.8046017"><ele>899.0</ele><time>2026-05-03T11:13:28.275Z</time></trkpt><trkpt lat="44.1173617" lon="6.8044417"><ele>899.0</ele><time>2026-05-03T11:13:29.275Z</time></trkpt><trkpt lat="44.1175117" lon="6.804315"><ele>899.0</ele><time>2026-05-03T11:13:30.275Z</time></trkpt><trkpt lat="44.1176633" lon="6.804225"><ele>901.0</ele><time>2026-05-03T11:13:31.275Z</time></trkpt><trkpt lat="44.1178117" lon="6.8041517"><ele>903.0</ele><time>2026-05-03T11:13:32.275Z</time></trkpt><trkpt lat="44.117955" lon="6.8041017"><ele>905.0</ele><time>2026-05-03T11:13:33.275Z</time></trkpt><trkpt lat="44.1180933" lon="6.8040733"><ele>907.0</ele><time>2026-05-03T11:13:34.275Z</time></trkpt><trkpt lat="44.1182267" lon="6.8040417"><ele>910.0</ele><time>2026-05-03T11:13:35.275Z</time></trkpt><trkpt lat="44.1183517" lon="6.8039917"><ele>913.0</ele><time>2026-05-03T11:13:36.275Z</time></trkpt><trkpt lat="44.1184567" lon="6.8039117"><ele>916.0</ele><time>2026-05-03T11:13:37.275Z</time></trkpt><trkpt lat="44.11855" lon="6.803795"><ele>919.0</ele><time>2026-05-03T11:13:38.276Z</time></trkpt><trkpt lat="44.1186217" lon="6.8036367"><ele>916.75</ele><time>2026-05-03T11:13:39.275Z</time></trkpt><trkpt lat="44.118655" lon="6.803445"><ele>914.5</ele><time>2026-05-03T11:13:40.275Z</time></trkpt><trkpt lat="44.1186433" lon="6.803265"><ele>912.25</ele><time>2026-05-03T11:13:41.276Z</time></trkpt><trkpt lat="44.11859" lon="6.8030967"><ele>910.0</ele><time>2026-05-03T11:13:42.275Z</time></trkpt><trkpt lat="44.1185" lon="6.80295"><ele>910.0</ele><time>2026-05-03T11:13:43.275Z</time></trkpt><trkpt lat="44.1183767" lon="6.8028317"><ele>910.0</ele><time>2026-05-03T11:13:44.275Z</time></trkpt><trkpt lat="44.118245" lon="6.802755"><ele>910.0</ele><time>2026-05-03T11:13:45.275Z</time></trkpt><trkpt lat="44.1181033" lon="6.8026817"><ele>910.0</ele><time>2026-05-03T11:13:46.275Z</time></trkpt><trkpt lat="44.1179783" lon="6.8025883"><ele>910.75</ele><time>2026-05-03T11:13:47.275Z</time></trkpt><trkpt lat="44.11789" lon="6.802485"><ele>911.5</ele><time>2026-05-03T11:13:48.275Z</time></trkpt><trkpt lat="44.1178367" lon="6.8023517"><ele>912.25</ele><time>2026-05-03T11:13:49.275Z</time></trkpt><trkpt lat="44.1178233" lon="6.8021917"><ele>913.0</ele><time>2026-05-03T11:13:50.275Z</time></trkpt><trkpt lat="44.11785" lon="6.8020033"><ele>914.75</ele><time>2026-05-03T11:13:51.275Z</time></trkpt><trkpt lat="44.1179017" lon="6.8018183"><ele>916.5</ele><time>2026-05-03T11:13:52.275Z</time></trkpt><trkpt lat="44.1179717" lon="6.8016317"><ele>918.25</ele><time>2026-05-03T11:13:53.275Z</time></trkpt><trkpt lat="44.1180583" lon="6.8014667"><ele>920.0</ele><time>2026-05-03T11:13:54.275Z</time></trkpt><trkpt lat="44.1181483" lon="6.80132"><ele>920.0</ele><time>2026-05-03T11:13:55.275Z</time></trkpt><trkpt lat="44.118225" lon="6.8011767"><ele>920.0</ele><time>2026-05-03T11:13:56.275Z</time></trkpt><trkpt lat="44.1182833" lon="6.8010383"><ele>920.0</ele><time>2026-05-03T11:13:57.275Z</time></trkpt><trkpt lat="44.1183067" lon="6.8008833"><ele>920.0</ele><time>2026-05-03T11:13:58.276Z</time></trkpt><trkpt lat="44.1183033" lon="6.8007217"><ele>920.5</ele><time>2026-05-03T11:13:59.275Z</time></trkpt><trkpt lat="44.1182633" lon="6.8005617"><ele>921.0</ele><time>2026-05-03T11:14:00.275Z</time></trkpt><trkpt lat="44.1182117" lon="6.8003983"><ele>921.5</ele><time>2026-05-03T11:14:01.275Z</time></trkpt><trkpt lat="44.1181633" lon="6.8002317"><ele>922.0</ele><time>2026-05-03T11:14:02.275Z</time></trkpt><trkpt lat="44.1181383" lon="6.8000417"><ele>922.75</ele><time>2026-05-03T11:14:03.275Z</time></trkpt><trkpt lat="44.1181217" lon="6.7998417"><ele>923.5</ele><time>2026-05-03T11:14:04.275Z</time></trkpt><trkpt lat="44.1181217" lon="6.799645"><ele>924.25</ele><time>2026-05-03T11:14:05.275Z</time></trkpt><trkpt lat="44.118135" lon="6.7994417"><ele>925.0</ele><time>2026-05-03T11:14:06.275Z</time></trkpt><trkpt lat="44.11816" lon="6.79923"><ele>925.3333333333333</ele><time>2026-05-03T11:14:07.275Z</time></trkpt><trkpt lat="44.1181867" lon="6.7990183"><ele>925.6666666666667</ele><time>2026-05-03T11:14:08.275Z</time></trkpt><trkpt lat="44.1182117" lon="6.7987983"><ele>926.0</ele><time>2026-05-03T11:14:09.275Z</time></trkpt><trkpt lat="44.118255" lon="6.7985783"><ele>929.0</ele><time>2026-05-03T11:14:10.276Z</time></trkpt><trkpt lat="44.1183133" lon="6.798365"><ele>932.0</ele><time>2026-05-03T11:14:11.275Z</time></trkpt><trkpt lat="44.1183817" lon="6.7981533"><ele>935.0</ele><time>2026-05-03T11:14:12.275Z</time></trkpt><trkpt lat="44.1184633" lon="6.7979533"><ele>935.0</ele><time>2026-05-03T11:14:13.275Z</time></trkpt><trkpt lat="44.1185567" lon="6.7977567"><ele>935.0</ele><time>2026-05-03T11:14:14.275Z</time></trkpt><trkpt lat="44.118665" lon="6.797565"><ele>935.0</ele><time>2026-05-03T11:14:15.275Z</time></trkpt><trkpt lat="44.1187833" lon="6.7973833"><ele>935.0</ele><time>2026-05-03T11:14:16.275Z</time></trkpt><trkpt lat="44.118905" lon="6.797225"><ele>935.0</ele><time>2026-05-03T11:14:17.275Z</time></trkpt><trkpt lat="44.1190383" lon="6.79706"><ele>935.0</ele><time>2026-05-03T11:14:18.275Z</time></trkpt><trkpt lat="44.1191617" lon="6.79691"><ele>936.25</ele><time>2026-05-03T11:14:19.275Z</time></trkpt><trkpt lat="44.11928" lon="6.796775"><ele>937.5</ele><time>2026-05-03T11:14:20.275Z</time></trkpt><trkpt lat="44.1193867" lon="6.7966417"><ele>938.75</ele><time>2026-05-03T11:14:21.275Z</time></trkpt><trkpt lat="44.1194833" lon="6.79652"><ele>940.0</ele><time>2026-05-03T11:14:22.275Z</time></trkpt><trkpt lat="44.119575" lon="6.7964133"><ele>940.0</ele><time>2026-05-03T11:14:23.275Z</time></trkpt><trkpt lat="44.1196633" lon="6.7963033"><ele>940.0</ele><time>2026-05-03T11:14:24.275Z</time></trkpt><trkpt lat="44.1197433" lon="6.7962033"><ele>940.0</ele><time>2026-05-03T11:14:25.275Z</time></trkpt><trkpt lat="44.119825" lon="6.7961083"><ele>940.0</ele><time>2026-05-03T11:14:26.275Z</time></trkpt><trkpt lat="44.1198917" lon="6.7960217"><ele>940.0</ele><time>2026-05-03T11:14:27.275Z</time></trkpt><trkpt lat="44.1199433" lon="6.7959367"><ele>942.0</ele><time>2026-05-03T11:14:28.275Z</time></trkpt><trkpt lat="44.1199967" lon="6.7958467"><ele>944.0</ele><time>2026-05-03T11:14:29.275Z</time></trkpt><trkpt lat="44.1200533" lon="6.7957483"><ele>946.0</ele><time>2026-05-03T11:14:30.275Z</time></trkpt><trkpt lat="44.1201133" lon="6.795645"><ele>948.0</ele><time>2026-05-03T11:14:31.275Z</time></trkpt><trkpt lat="44.1201667" lon="6.79553"><ele>950.0</ele><time>2026-05-03T11:14:32.275Z</time></trkpt><trkpt lat="44.1202317" lon="6.7954217"><ele>950.0</ele><time>2026-05-03T11:14:33.275Z</time></trkpt><trkpt lat="44.1203" lon="6.7953267"><ele>950.0</ele><time>2026-05-03T11:14:34.275Z</time></trkpt><trkpt lat="44.120365" lon="6.7952317"><ele>950.0</ele><time>2026-05-03T11:14:35.275Z</time></trkpt><trkpt lat="44.1204367" lon="6.7951417"><ele>950.0</ele><time>2026-05-03T11:14:36.276Z</time></trkpt><trkpt lat="44.12052" lon="6.7950517"><ele>950.0</ele><time>2026-05-03T11:14:37.275Z</time></trkpt><trkpt lat="44.1205967" lon="6.794955"><ele>950.2</ele><time>2026-05-03T11:14:38.275Z</time></trkpt><trkpt lat="44.120675" lon="6.7948583"><ele>950.4</ele><time>2026-05-03T11:14:39.275Z</time></trkpt><trkpt lat="44.1207533" lon="6.7947567"><ele>950.5999999999999</ele><time>2026-05-03T11:14:40.276Z</time></trkpt><trkpt lat="44.1208267" lon="6.7946267"><ele>950.8</ele><time>2026-05-03T11:14:41.275Z</time></trkpt><trkpt lat="44.1209017" lon="6.7945"><ele>951.0</ele><time>2026-05-03T11:14:42.275Z</time></trkpt><trkpt lat="44.1209883" lon="6.7943533"><ele>949.5</ele><time>2026-05-03T11:14:43.275Z</time></trkpt><trkpt lat="44.1210733" lon="6.7942117"><ele>948.0</ele><time>2026-05-03T11:14:44.275Z</time></trkpt><trkpt lat="44.1211583" lon="6.79406"><ele>946.5</ele><time>2026-05-03T11:14:45.275Z</time></trkpt><trkpt lat="44.1212417" lon="6.793915"><ele>945.0</ele><time>2026-05-03T11:14:46.275Z</time></trkpt><trkpt lat="44.1213233" lon="6.7937717"><ele>945.0</ele><time>2026-05-03T11:14:47.275Z</time></trkpt><trkpt lat="44.1214133" lon="6.7936317"><ele>945.0</ele><time>2026-05-03T11:14:48.275Z</time></trkpt><trkpt lat="44.1214867" lon="6.79349"><ele>945.0</ele><time>2026-05-03T11:14:49.275Z</time></trkpt><trkpt lat="44.1215733" lon="6.793355"><ele>945.0</ele><time>2026-05-03T11:14:50.275Z</time></trkpt><trkpt lat="44.121675" lon="6.7932183"><ele>947.0</ele><time>2026-05-03T11:14:51.275Z</time></trkpt><trkpt lat="44.1217833" lon="6.7930983"><ele>949.0</ele><time>2026-05-03T11:14:52.275Z</time></trkpt><trkpt lat="44.12189" lon="6.7929883"><ele>951.0</ele><time>2026-05-03T11:14:53.275Z</time></trkpt><trkpt lat="44.1219917" lon="6.79287"><ele>953.0</ele><time>2026-05-03T11:14:54.275Z</time></trkpt><trkpt lat="44.1220833" lon="6.792765"><ele>949.75</ele><time>2026-05-03T11:14:55.276Z</time></trkpt><trkpt lat="44.1221483" lon="6.792635"><ele>946.5</ele><time>2026-05-03T11:14:56.275Z</time></trkpt><trkpt lat="44.1221883" lon="6.7924817"><ele>943.25</ele><time>2026-05-03T11:14:57.275Z</time></trkpt><trkpt lat="44.12219" lon="6.7923167"><ele>940.0</ele><time>2026-05-03T11:14:58.275Z</time></trkpt><trkpt lat="44.12217" lon="6.7921633"><ele>940.0</ele><time>2026-05-03T11:14:59.275Z</time></trkpt><trkpt lat="44.1221533" lon="6.7920033"><ele>940.0</ele><time>2026-05-03T11:15:00.275Z</time></trkpt><trkpt lat="44.1221583" lon="6.7918483"><ele>940.0</ele><time>2026-05-03T11:15:01.275Z</time></trkpt><trkpt lat="44.1221933" lon="6.7916967"><ele>940.0</ele><time>2026-05-03T11:15:02.275Z</time></trkpt><trkpt lat="44.122255" lon="6.791555"><ele>938.75</ele><time>2026-05-03T11:15:03.275Z</time></trkpt><trkpt lat="44.1223433" lon="6.7914367"><ele>937.5</ele><time>2026-05-03T11:15:04.275Z</time></trkpt><trkpt lat="44.1224317" lon="6.7913183"><ele>936.25</ele><time>2026-05-03T11:15:05.275Z</time></trkpt><trkpt lat="44.12253" lon="6.791205"><ele>935.0</ele><time>2026-05-03T11:15:06.275Z</time></trkpt><trkpt lat="44.1225833" lon="6.7910567"><ele>937.0</ele><time>2026-05-03T11:15:07.275Z</time></trkpt><trkpt lat="44.1226083" lon="6.7908733"><ele>939.0</ele><time>2026-05-03T11:15:08.276Z</time></trkpt><trkpt lat="44.1226217" lon="6.7906883"><ele>941.0</ele><time>2026-05-03T11:15:09.275Z</time></trkpt><trkpt lat="44.12264" lon="6.790515"><ele>943.0</ele><time>2026-05-03T11:15:10.276Z</time></trkpt><trkpt lat="44.122665" lon="6.7903333"><ele>942.5</ele><time>2026-05-03T11:15:11.275Z</time></trkpt><trkpt lat="44.12271" lon="6.79016"><ele>942.0</ele><time>2026-05-03T11:15:12.275Z</time></trkpt><trkpt lat="44.12277" lon="6.7899967"><ele>941.5</ele><time>2026-05-03T11:15:13.276Z</time></trkpt><trkpt lat="44.1228417" lon="6.7898417"><ele>941.0</ele><time>2026-05-03T11:15:14.275Z</time></trkpt><trkpt lat="44.12292" lon="6.7896883"><ele>941.0</ele><time>2026-05-03T11:15:15.275Z</time></trkpt><trkpt lat="44.1229867" lon="6.7895433"><ele>941.0</ele><time>2026-05-03T11:15:16.275Z</time></trkpt><trkpt lat="44.123035" lon="6.7893917"><ele>941.0</ele><time>2026-05-03T11:15:17.275Z</time></trkpt><trkpt lat="44.1230583" lon="6.7892267"><ele>941.0</ele><time>2026-05-03T11:15:18.275Z</time></trkpt><trkpt lat="44.1230317" lon="6.78906"><ele>941.25</ele><time>2026-05-03T11:15:19.276Z</time></trkpt><trkpt lat="44.1229717" lon="6.7889"><ele>941.5</ele><time>2026-05-03T11:15:20.275Z</time></trkpt><trkpt lat="44.1229033" lon="6.7887483"><ele>941.75</ele><time>2026-05-03T11:15:21.275Z</time></trkpt><trkpt lat="44.1228417" lon="6.7885917"><ele>942.0</ele><time>2026-05-03T11:15:22.275Z</time></trkpt><trkpt lat="44.1228017" lon="6.78841"><ele>942.75</ele><time>2026-05-03T11:15:23.276Z</time></trkpt><trkpt lat="44.122795" lon="6.7882333"><ele>943.5</ele><time>2026-05-03T11:15:24.275Z</time></trkpt><trkpt lat="44.122805" lon="6.7880533"><ele>944.25</ele><time>2026-05-03T11:15:25.275Z</time></trkpt><trkpt lat="44.1228233" lon="6.7878817"><ele>945.0</ele><time>2026-05-03T11:15:26.276Z</time></trkpt><trkpt lat="44.122855" lon="6.7877383"><ele>944.0</ele><time>2026-05-03T11:15:27.275Z</time></trkpt><trkpt lat="44.1229183" lon="6.7876133"><ele>943.0</ele><time>2026-05-03T11:15:28.275Z</time></trkpt><trkpt lat="44.123005" lon="6.787515"><ele>942.0</ele><time>2026-05-03T11:15:29.275Z</time></trkpt><trkpt lat="44.12313" lon="6.787445"><ele>941.0</ele><time>2026-05-03T11:15:30.275Z</time></trkpt><trkpt lat="44.1232733" lon="6.7874033"><ele>943.5</ele><time>2026-05-03T11:15:31.275Z</time></trkpt><trkpt lat="44.1234167" lon="6.7873633"><ele>946.0</ele><time>2026-05-03T11:15:32.275Z</time></trkpt><trkpt lat="44.1235417" lon="6.7872983"><ele>948.5</ele><time>2026-05-03T11:15:33.275Z</time></trkpt><trkpt lat="44.1236433" lon="6.7872133"><ele>951.0</ele><time>2026-05-03T11:15:34.276Z</time></trkpt><trkpt lat="44.1237217" lon="6.7870683"><ele>951.0</ele><time>2026-05-03T11:15:35.275Z</time></trkpt><trkpt lat="44.1237533" lon="6.7869"><ele>951.0</ele><time>2026-05-03T11:15:36.276Z</time></trkpt><trkpt lat="44.1237683" lon="6.7867083"><ele>951.0</ele><time>2026-05-03T11:15:37.275Z</time></trkpt><trkpt lat="44.123785" lon="6.7865067"><ele>951.0</ele><time>2026-05-03T11:15:38.275Z</time></trkpt><trkpt lat="44.1238017" lon="6.7862933"><ele>949.0</ele><time>2026-05-03T11:15:39.275Z</time></trkpt><trkpt lat="44.1238167" lon="6.786085"><ele>947.0</ele><time>2026-05-03T11:15:40.275Z</time></trkpt><trkpt lat="44.1238217" lon="6.7858967"><ele>945.0</ele><time>2026-05-03T11:15:41.275Z</time></trkpt><trkpt lat="44.1238283" lon="6.785705"><ele>943.0</ele><time>2026-05-03T11:15:42.275Z</time></trkpt><trkpt lat="44.123845" lon="6.78553"><ele>942.75</ele><time>2026-05-03T11:15:43.276Z</time></trkpt><trkpt lat="44.1239033" lon="6.7853667"><ele>942.5</ele><time>2026-05-03T11:15:44.276Z</time></trkpt><trkpt lat="44.1239917" lon="6.785215"><ele>942.25</ele><time>2026-05-03T11:15:45.275Z</time></trkpt><trkpt lat="44.124085" lon="6.7850633"><ele>942.0</ele><time>2026-05-03T11:15:46.275Z</time></trkpt><trkpt lat="44.124185" lon="6.78491"><ele>944.75</ele><time>2026-05-03T11:15:47.275Z</time></trkpt><trkpt lat="44.1242883" lon="6.784775"><ele>947.5</ele><time>2026-05-03T11:15:48.275Z</time></trkpt><trkpt lat="44.1244083" lon="6.7846583"><ele>950.25</ele><time>2026-05-03T11:15:49.275Z</time></trkpt><trkpt lat="44.1245367" lon="6.7845767"><ele>953.0</ele><time>2026-05-03T11:15:50.275Z</time></trkpt><trkpt lat="44.1246567" lon="6.7845217"><ele>953.0</ele><time>2026-05-03T11:15:51.275Z</time></trkpt><trkpt lat="44.1248" lon="6.78449"><ele>953.0</ele><time>2026-05-03T11:15:52.275Z</time></trkpt><trkpt lat="44.1249267" lon="6.78443"><ele>953.0</ele><time>2026-05-03T11:15:53.275Z</time></trkpt><trkpt lat="44.1250467" lon="6.7843283"><ele>953.0</ele><time>2026-05-03T11:15:54.275Z</time></trkpt><trkpt lat="44.1251467" lon="6.7841867"><ele>953.75</ele><time>2026-05-03T11:15:55.275Z</time></trkpt><trkpt lat="44.1252083" lon="6.7839983"><ele>954.5</ele><time>2026-05-03T11:15:56.275Z</time></trkpt><trkpt lat="44.1252667" lon="6.7838067"><ele>955.25</ele><time>2026-05-03T11:15:57.276Z</time></trkpt><trkpt lat="44.1253217" lon="6.7836133"><ele>956.0</ele><time>2026-05-03T11:15:58.275Z</time></trkpt><trkpt lat="44.1253917" lon="6.7834417"><ele>954.5</ele><time>2026-05-03T11:15:59.275Z</time></trkpt><trkpt lat="44.1254883" lon="6.7833033"><ele>953.0</ele><time>2026-05-03T11:16:00.276Z</time></trkpt><trkpt lat="44.1256317" lon="6.783215"><ele>951.5</ele><time>2026-05-03T11:16:01.275Z</time></trkpt><trkpt lat="44.1257567" lon="6.7831183"><ele>950.0</ele><time>2026-05-03T11:16:02.275Z</time></trkpt><trkpt lat="44.12585" lon="6.7829833"><ele>951.25</ele><time>2026-05-03T11:16:03.275Z</time></trkpt><trkpt lat="44.1259033" lon="6.7828183"><ele>952.5</ele><time>2026-05-03T11:16:04.275Z</time></trkpt><trkpt lat="44.12596" lon="6.7826533"><ele>953.75</ele><time>2026-05-03T11:16:05.275Z</time></trkpt><trkpt lat="44.12603" lon="6.78251"><ele>955.0</ele><time>2026-05-03T11:16:06.275Z</time></trkpt><trkpt lat="44.1261317" lon="6.7824117"><ele>955.0</ele><time>2026-05-03T11:16:07.276Z</time></trkpt><trkpt lat="44.1262533" lon="6.782335"><ele>955.0</ele><time>2026-05-03T11:16:08.275Z</time></trkpt><trkpt lat="44.1263833" lon="6.7822817"><ele>955.0</ele><time>2026-05-03T11:16:09.275Z</time></trkpt><trkpt lat="44.1265067" lon="6.782265"><ele>955.0</ele><time>2026-05-03T11:16:10.276Z</time></trkpt><trkpt lat="44.1266183" lon="6.782215"><ele>957.25</ele><time>2026-05-03T11:16:11.275Z</time></trkpt><trkpt lat="44.1267133" lon="6.78212"><ele>959.5</ele><time>2026-05-03T11:16:12.275Z</time></trkpt><trkpt lat="44.12679" lon="6.7820067"><ele>961.75</ele><time>2026-05-03T11:16:13.275Z</time></trkpt><trkpt lat="44.12684" lon="6.7818583"><ele>964.0</ele><time>2026-05-03T11:16:14.275Z</time></trkpt><trkpt lat="44.1268433" lon="6.781695"><ele>964.0</ele><time>2026-05-03T11:16:15.275Z</time></trkpt><trkpt lat="44.1268167" lon="6.7815433"><ele>964.0</ele><time>2026-05-03T11:16:16.275Z</time></trkpt><trkpt lat="44.126785" lon="6.781375"><ele>964.0</ele><time>2026-05-03T11:16:17.275Z</time></trkpt><trkpt lat="44.126775" lon="6.7812133"><ele>964.0</ele><time>2026-05-03T11:16:18.275Z</time></trkpt><trkpt lat="44.1267983" lon="6.78105"><ele>963.25</ele><time>2026-05-03T11:16:19.275Z</time></trkpt><trkpt lat="44.12686" lon="6.78091"><ele>962.5</ele><time>2026-05-03T11:16:20.276Z</time></trkpt><trkpt lat="44.126955" lon="6.7807767"><ele>961.75</ele><time>2026-05-03T11:16:21.275Z</time></trkpt><trkpt lat="44.127045" lon="6.7806517"><ele>961.0</ele><time>2026-05-03T11:16:22.276Z</time></trkpt><trkpt lat="44.127115" lon="6.780505"><ele>961.0</ele><time>2026-05-03T11:16:23.276Z</time></trkpt><trkpt lat="44.1271567" lon="6.7803283"><ele>961.0</ele><time>2026-05-03T11:16:24.275Z</time></trkpt><trkpt lat="44.1271767" lon="6.7801567"><ele>961.0</ele><time>2026-05-03T11:16:25.276Z</time></trkpt><trkpt lat="44.1271917" lon="6.7799767"><ele>961.0</ele><time>2026-05-03T11:16:26.275Z</time></trkpt><trkpt lat="44.1272067" lon="6.7797833"><ele>959.75</ele><time>2026-05-03T11:16:27.276Z</time></trkpt><trkpt lat="44.1272217" lon="6.7795967"><ele>958.5</ele><time>2026-05-03T11:16:28.275Z</time></trkpt><trkpt lat="44.1272383" lon="6.7794017"><ele>957.25</ele><time>2026-05-03T11:16:29.275Z</time></trkpt><trkpt lat="44.127255" lon="6.779215"><ele>956.0</ele><time>2026-05-03T11:16:30.275Z</time></trkpt><trkpt lat="44.1272733" lon="6.779015"><ele>956.0</ele><time>2026-05-03T11:16:31.275Z</time></trkpt><trkpt lat="44.127295" lon="6.7788167"><ele>956.0</ele><time>2026-05-03T11:16:32.275Z</time></trkpt><trkpt lat="44.1273233" lon="6.7786367"><ele>956.0</ele><time>2026-05-03T11:16:33.275Z</time></trkpt><trkpt lat="44.1273583" lon="6.7784517"><ele>956.0</ele><time>2026-05-03T11:16:34.276Z</time></trkpt><trkpt lat="44.1274267" lon="6.7782883"><ele>958.75</ele><time>2026-05-03T11:16:35.275Z</time></trkpt><trkpt lat="44.1274917" lon="6.7781267"><ele>961.5</ele><time>2026-05-03T11:16:36.275Z</time></trkpt><trkpt lat="44.1275733" lon="6.7779767"><ele>964.25</ele><time>2026-05-03T11:16:37.275Z</time></trkpt><trkpt lat="44.1276583" lon="6.7778333"><ele>967.0</ele><time>2026-05-03T11:16:38.275Z</time></trkpt><trkpt lat="44.1277417" lon="6.7776833"><ele>967.0</ele><time>2026-05-03T11:16:39.275Z</time></trkpt><trkpt lat="44.12782" lon="6.7775167"><ele>967.0</ele><time>2026-05-03T11:16:40.275Z</time></trkpt><trkpt lat="44.1279" lon="6.7773683"><ele>967.0</ele><time>2026-05-03T11:16:41.276Z</time></trkpt><trkpt lat="44.127985" lon="6.7772483"><ele>967.0</ele><time>2026-05-03T11:16:42.276Z</time></trkpt><trkpt lat="44.1280867" lon="6.777145"><ele>967.0</ele><time>2026-05-03T11:16:43.275Z</time></trkpt><trkpt lat="44.1281983" lon="6.777055"><ele>967.0</ele><time>2026-05-03T11:16:44.275Z</time></trkpt><trkpt lat="44.1283167" lon="6.77695"><ele>967.0</ele><time>2026-05-03T11:16:45.275Z</time></trkpt><trkpt lat="44.128395" lon="6.77682"><ele>967.0</ele><time>2026-05-03T11:16:46.275Z</time></trkpt><trkpt lat="44.12847" lon="6.7766717"><ele>968.25</ele><time>2026-05-03T11:16:47.275Z</time></trkpt><trkpt lat="44.12854" lon="6.7765183"><ele>969.5</ele><time>2026-05-03T11:16:48.275Z</time></trkpt><trkpt lat="44.128615" lon="6.7763617"><ele>970.75</ele><time>2026-05-03T11:16:49.276Z</time></trkpt><trkpt lat="44.1286917" lon="6.7762017"><ele>972.0</ele><time>2026-05-03T11:16:50.275Z</time></trkpt><trkpt lat="44.1287667" lon="6.7760517"><ele>970.25</ele><time>2026-05-03T11:16:51.275Z</time></trkpt><trkpt lat="44.1288517" lon="6.7758967"><ele>968.5</ele><time>2026-05-03T11:16:52.276Z</time></trkpt><trkpt lat="44.1289383" lon="6.77574"><ele>966.75</ele><time>2026-05-03T11:16:53.275Z</time></trkpt><trkpt lat="44.1290417" lon="6.7756"><ele>965.0</ele><time>2026-05-03T11:16:54.275Z</time></trkpt><trkpt lat="44.1291567" lon="6.77548"><ele>969.5</ele><time>2026-05-03T11:16:55.275Z</time></trkpt><trkpt lat="44.1292567" lon="6.7753583"><ele>974.0</ele><time>2026-05-03T11:16:56.275Z</time></trkpt><trkpt lat="44.1293717" lon="6.7752233"><ele>978.5</ele><time>2026-05-03T11:16:57.275Z</time></trkpt><trkpt lat="44.1294517" lon="6.775075"><ele>983.0</ele><time>2026-05-03T11:16:58.275Z</time></trkpt><trkpt lat="44.129495" lon="6.77491"><ele>983.0</ele><time>2026-05-03T11:16:59.275Z</time></trkpt><trkpt lat="44.1295133" lon="6.7747133"><ele>983.0</ele><time>2026-05-03T11:17:00.275Z</time></trkpt><trkpt lat="44.1295267" lon="6.7745433"><ele>983.0</ele><time>2026-05-03T11:17:01.275Z</time></trkpt><trkpt lat="44.1295367" lon="6.7743617"><ele>983.0</ele><time>2026-05-03T11:17:02.275Z</time></trkpt><trkpt lat="44.1295833" lon="6.7741867"><ele>984.25</ele><time>2026-05-03T11:17:03.275Z</time></trkpt><trkpt lat="44.1296667" lon="6.77404"><ele>985.5</ele><time>2026-05-03T11:17:04.275Z</time></trkpt><trkpt lat="44.1297717" lon="6.7739483"><ele>986.75</ele><time>2026-05-03T11:17:05.275Z</time></trkpt><trkpt lat="44.1299083" lon="6.7738967"><ele>988.0</ele><time>2026-05-03T11:17:06.275Z</time></trkpt><trkpt lat="44.1300467" lon="6.7738917"><ele>988.0</ele><time>2026-05-03T11:17:07.276Z</time></trkpt><trkpt lat="44.13019" lon="6.7739017"><ele>988.0</ele><time>2026-05-03T11:17:08.275Z</time></trkpt><trkpt lat="44.1303333" lon="6.7739167"><ele>988.0</ele><time>2026-05-03T11:17:09.275Z</time></trkpt><trkpt lat="44.130485" lon="6.7739467"><ele>988.0</ele><time>2026-05-03T11:17:10.275Z</time></trkpt><trkpt lat="44.1306333" lon="6.773965"><ele>990.0</ele><time>2026-05-03T11:17:11.275Z</time></trkpt><trkpt lat="44.130775" lon="6.7739833"><ele>992.0</ele><time>2026-05-03T11:17:12.276Z</time></trkpt><trkpt lat="44.1309067" lon="6.7740083"><ele>994.0</ele><time>2026-05-03T11:17:13.275Z</time></trkpt><trkpt lat="44.1310567" lon="6.7740167"><ele>996.0</ele><time>2026-05-03T11:17:14.275Z</time></trkpt><trkpt lat="44.1312033" lon="6.7740117"><ele>996.0</ele><time>2026-05-03T11:17:15.275Z</time></trkpt><trkpt lat="44.131335" lon="6.7739817"><ele>996.0</ele><time>2026-05-03T11:17:16.275Z</time></trkpt><trkpt lat="44.1314717" lon="6.7739183"><ele>996.0</ele><time>2026-05-03T11:17:17.276Z</time></trkpt><trkpt lat="44.1316033" lon="6.7738267"><ele>996.0</ele><time>2026-05-03T11:17:18.275Z</time></trkpt><trkpt lat="44.1317333" lon="6.773695"><ele>998.3333333333333</ele><time>2026-05-03T11:17:19.275Z</time></trkpt><trkpt lat="44.1318467" lon="6.7735467"><ele>1000.6666666666666</ele><time>2026-05-03T11:17:20.275Z</time></trkpt><trkpt lat="44.1319467" lon="6.7733633"><ele>1003.0</ele><time>2026-05-03T11:17:21.275Z</time></trkpt><trkpt lat="44.132045" lon="6.7731917"><ele>998.3333333333333</ele><time>2026-05-03T11:17:22.275Z</time></trkpt><trkpt lat="44.1321433" lon="6.7730233"><ele>993.6666666666667</ele><time>2026-05-03T11:17:23.275Z</time></trkpt><trkpt lat="44.13224" lon="6.7728433"><ele>989.0</ele><time>2026-05-03T11:17:24.275Z</time></trkpt><trkpt lat="44.1323333" lon="6.77268"><ele>992.6666666666667</ele><time>2026-05-03T11:17:25.275Z</time></trkpt><trkpt lat="44.1324167" lon="6.7725033"><ele>996.3333333333333</ele><time>2026-05-03T11:17:26.275Z</time></trkpt><trkpt lat="44.132505" lon="6.7723267"><ele>1000.0</ele><time>2026-05-03T11:17:27.275Z</time></trkpt><trkpt lat="44.13258" lon="6.7721467"><ele>1000.0</ele><time>2026-05-03T11:17:28.275Z</time></trkpt><trkpt lat="44.1326417" lon="6.7719517"><ele>1000.0</ele><time>2026-05-03T11:17:29.275Z</time></trkpt><trkpt lat="44.1327" lon="6.7717433"><ele>1000.0</ele><time>2026-05-03T11:17:30.275Z</time></trkpt><trkpt lat="44.1327683" lon="6.77155"><ele>997.0</ele><time>2026-05-03T11:17:31.275Z</time></trkpt><trkpt lat="44.132845" lon="6.7713633"><ele>994.0</ele><time>2026-05-03T11:17:32.275Z</time></trkpt><trkpt lat="44.1329333" lon="6.7711883"><ele>991.0</ele><time>2026-05-03T11:17:33.275Z</time></trkpt><trkpt lat="44.133025" lon="6.7710117"><ele>989.0</ele><time>2026-05-03T11:17:34.275Z</time></trkpt><trkpt lat="44.1331083" lon="6.7708317"><ele>987.0</ele><time>2026-05-03T11:17:35.275Z</time></trkpt><trkpt lat="44.133195" lon="6.770655"><ele>985.0</ele><time>2026-05-03T11:17:36.275Z</time></trkpt><trkpt lat="44.1332833" lon="6.7704733"><ele>988.0</ele><time>2026-05-03T11:17:37.275Z</time></trkpt><trkpt lat="44.1333683" lon="6.7702883"><ele>991.0</ele><time>2026-05-03T11:17:38.276Z</time></trkpt><trkpt lat="44.133465" lon="6.770105"><ele>994.0</ele><time>2026-05-03T11:17:39.275Z</time></trkpt><trkpt lat="44.1335483" lon="6.769915"><ele>994.0</ele><time>2026-05-03T11:17:40.275Z</time></trkpt><trkpt lat="44.13364" lon="6.7697417"><ele>994.0</ele><time>2026-05-03T11:17:41.275Z</time></trkpt><trkpt lat="44.1337217" lon="6.7696017"><ele>994.0</ele><time>2026-05-03T11:17:42.276Z</time></trkpt><trkpt lat="44.133835" lon="6.7695017"><ele>994.0</ele><time>2026-05-03T11:17:43.276Z</time></trkpt><trkpt lat="44.1339617" lon="6.7694383"><ele>994.0</ele><time>2026-05-03T11:17:44.276Z</time></trkpt><trkpt lat="44.1341117" lon="6.7694133"><ele>994.0</ele><time>2026-05-03T11:17:45.275Z</time></trkpt><trkpt lat="44.1342633" lon="6.7693767"><ele>994.0</ele><time>2026-05-03T11:17:46.275Z</time></trkpt><trkpt lat="44.1344183" lon="6.7693233"><ele>994.0</ele><time>2026-05-03T11:17:47.275Z</time></trkpt><trkpt lat="44.13457" lon="6.769265"><ele>994.0</ele><time>2026-05-03T11:17:48.275Z</time></trkpt><trkpt lat="44.1347217" lon="6.7692033"><ele>994.0</ele><time>2026-05-03T11:17:49.275Z</time></trkpt><trkpt lat="44.1348733" lon="6.769125"><ele>999.6666666666666</ele><time>2026-05-03T11:17:50.275Z</time></trkpt><trkpt lat="44.1350167" lon="6.7690133"><ele>1005.3333333333333</ele><time>2026-05-03T11:17:51.275Z</time></trkpt><trkpt lat="44.1351567" lon="6.7688833"><ele>1011.0</ele><time>2026-05-03T11:17:52.275Z</time></trkpt><trkpt lat="44.1352917" lon="6.76874"><ele>1011.0</ele><time>2026-05-03T11:17:53.275Z</time></trkpt><trkpt lat="44.135435" lon="6.7685883"><ele>1011.0</ele><time>2026-05-03T11:17:54.275Z</time></trkpt><trkpt lat="44.13557" lon="6.768445"><ele>1011.0</ele><time>2026-05-03T11:17:55.275Z</time></trkpt><trkpt lat="44.1357183" lon="6.7683233"><ele>1010.0</ele><time>2026-05-03T11:17:56.275Z</time></trkpt><trkpt lat="44.1358717" lon="6.7682417"><ele>1009.0</ele><time>2026-05-03T11:17:57.275Z</time></trkpt><trkpt lat="44.1360283" lon="6.7681733"><ele>1008.0</ele><time>2026-05-03T11:17:58.276Z</time></trkpt><trkpt lat="44.1361633" lon="6.76808"><ele>1008.0</ele><time>2026-05-03T11:17:59.275Z</time></trkpt><trkpt lat="44.13629" lon="6.76796"><ele>1008.0</ele><time>2026-05-03T11:18:00.275Z</time></trkpt><trkpt lat="44.1363983" lon="6.767795"><ele>1008.0</ele><time>2026-05-03T11:18:01.275Z</time></trkpt><trkpt lat="44.1364817" lon="6.76761"><ele>1008.0</ele><time>2026-05-03T11:18:02.275Z</time></trkpt><trkpt lat="44.1365533" lon="6.7674067"><ele>1008.0</ele><time>2026-05-03T11:18:03.275Z</time></trkpt><trkpt lat="44.1366283" lon="6.7672033"><ele>1008.0</ele><time>2026-05-03T11:18:04.275Z</time></trkpt><trkpt lat="44.1367033" lon="6.7669983"><ele>1005.3333333333333</ele><time>2026-05-03T11:18:05.275Z</time></trkpt><trkpt lat="44.136785" lon="6.7667983"><ele>1002.6666666666666</ele><time>2026-05-03T11:18:06.275Z</time></trkpt><trkpt lat="44.1368567" lon="6.7666067"><ele>1000.0</ele><time>2026-05-03T11:18:07.275Z</time></trkpt><trkpt lat="44.136945" lon="6.766415"><ele>1000.0</ele><time>2026-05-03T11:18:08.275Z</time></trkpt><trkpt lat="44.1370483" lon="6.7662283"><ele>1000.0</ele><time>2026-05-03T11:18:09.275Z</time></trkpt><trkpt lat="44.1371567" lon="6.766075"><ele>1000.0</ele><time>2026-05-03T11:18:10.275Z</time></trkpt><trkpt lat="44.1372867" lon="6.7659267"><ele>1002.3333333333333</ele><time>2026-05-03T11:18:11.275Z</time></trkpt><trkpt lat="44.1374133" lon="6.7657733"><ele>1004.6666666666667</ele><time>2026-05-03T11:18:12.275Z</time></trkpt><trkpt lat="44.1375483" lon="6.7656383"><ele>1007.0</ele><time>2026-05-03T11:18:13.275Z</time></trkpt><trkpt lat="44.137695" lon="6.7655017"><ele>1007.0</ele><time>2026-05-03T11:18:14.275Z</time></trkpt><trkpt lat="44.1378317" lon="6.7653567"><ele>1007.0</ele><time>2026-05-03T11:18:15.275Z</time></trkpt><trkpt lat="44.137975" lon="6.765215"><ele>1007.0</ele><time>2026-05-03T11:18:16.275Z</time></trkpt><trkpt lat="44.13812" lon="6.7650917"><ele>1010.3333333333334</ele><time>2026-05-03T11:18:17.275Z</time></trkpt><trkpt lat="44.13827" lon="6.7649783"><ele>1013.6666666666667</ele><time>2026-05-03T11:18:18.275Z</time></trkpt><trkpt lat="44.13842" lon="6.7648667"><ele>1017.0</ele><time>2026-05-03T11:18:19.275Z</time></trkpt><trkpt lat="44.1385733" lon="6.7647517"><ele>1017.0</ele><time>2026-05-03T11:18:20.275Z</time></trkpt><trkpt lat="44.1387283" lon="6.7646167"><ele>1017.0</ele><time>2026-05-03T11:18:21.275Z</time></trkpt><trkpt lat="44.1388733" lon="6.7644767"><ele>1017.0</ele><time>2026-05-03T11:18:22.275Z</time></trkpt><trkpt lat="44.139015" lon="6.764345"><ele>1019.3333333333333</ele><time>2026-05-03T11:18:23.275Z</time></trkpt><trkpt lat="44.1391533" lon="6.7642033"><ele>1021.6666666666666</ele><time>2026-05-03T11:18:24.275Z</time></trkpt><trkpt lat="44.1392867" lon="6.7640533"><ele>1024.0</ele><time>2026-05-03T11:18:25.275Z</time></trkpt><trkpt lat="44.1394233" lon="6.7639067"><ele>1024.0</ele><time>2026-05-03T11:18:26.275Z</time></trkpt><trkpt lat="44.1395583" lon="6.763765"><ele>1024.0</ele><time>2026-05-03T11:18:27.275Z</time></trkpt><trkpt lat="44.1397033" lon="6.7636333"><ele>1024.0</ele><time>2026-05-03T11:18:28.275Z</time></trkpt><trkpt lat="44.1398533" lon="6.76353"><ele>1024.25</ele><time>2026-05-03T11:18:29.275Z</time></trkpt><trkpt lat="44.1399917" lon="6.7634417"><ele>1024.5</ele><time>2026-05-03T11:18:30.275Z</time></trkpt><trkpt lat="44.14013" lon="6.7633733"><ele>1024.75</ele><time>2026-05-03T11:18:31.276Z</time></trkpt><trkpt lat="44.1402517" lon="6.763315"><ele>1025.0</ele><time>2026-05-03T11:18:32.275Z</time></trkpt><trkpt lat="44.1403567" lon="6.7632367"><ele>1025.0</ele><time>2026-05-03T11:18:33.275Z</time></trkpt><trkpt lat="44.1404383" lon="6.7631267"><ele>1025.0</ele><time>2026-05-03T11:18:34.275Z</time></trkpt><trkpt lat="44.1404667" lon="6.76298"><ele>1025.0</ele><time>2026-05-03T11:18:35.275Z</time></trkpt><trkpt lat="44.1404483" lon="6.762805"><ele>1025.0</ele><time>2026-05-03T11:18:36.275Z</time></trkpt><trkpt lat="44.1404167" lon="6.76263"><ele>1029.0</ele><time>2026-05-03T11:18:37.275Z</time></trkpt><trkpt lat="44.1403933" lon="6.762455"><ele>1033.0</ele><time>2026-05-03T11:18:38.275Z</time></trkpt><trkpt lat="44.1403733" lon="6.7622867"><ele>1037.0</ele><time>2026-05-03T11:18:39.275Z</time></trkpt><trkpt lat="44.1403683" lon="6.7621067"><ele>1041.0</ele><time>2026-05-03T11:18:40.275Z</time></trkpt><trkpt lat="44.1404033" lon="6.761945"><ele>1039.0</ele><time>2026-05-03T11:18:41.275Z</time></trkpt><trkpt lat="44.1404767" lon="6.761805"><ele>1037.0</ele><time>2026-05-03T11:18:42.275Z</time></trkpt><trkpt lat="44.14057" lon="6.7616833"><ele>1035.0</ele><time>2026-05-03T11:18:43.275Z</time></trkpt><trkpt lat="44.1406683" lon="6.7615633"><ele>1033.0</ele><time>2026-05-03T11:18:44.275Z</time></trkpt><trkpt lat="44.14077" lon="6.7614633"><ele>1033.0</ele><time>2026-05-03T11:18:45.275Z</time></trkpt><trkpt lat="44.14087" lon="6.7613733"><ele>1033.0</ele><time>2026-05-03T11:18:46.275Z</time></trkpt><trkpt lat="44.1409917" lon="6.7613083"><ele>1033.0</ele><time>2026-05-03T11:18:47.275Z</time></trkpt><trkpt lat="44.141115" lon="6.76125"><ele>1033.0</ele><time>2026-05-03T11:18:48.275Z</time></trkpt><trkpt lat="44.141235" lon="6.7612017"><ele>1033.0</ele><time>2026-05-03T11:18:49.275Z</time></trkpt><trkpt lat="44.1413567" lon="6.7611333"><ele>1033.0</ele><time>2026-05-03T11:18:50.275Z</time></trkpt><trkpt lat="44.1414633" lon="6.7610533"><ele>1033.0</ele><time>2026-05-03T11:18:51.275Z</time></trkpt><trkpt lat="44.14156" lon="6.7609567"><ele>1033.0</ele><time>2026-05-03T11:18:52.275Z</time></trkpt><trkpt lat="44.141635" lon="6.7608633"><ele>1034.2</ele><time>2026-05-03T11:18:53.275Z</time></trkpt><trkpt lat="44.1417067" lon="6.76077"><ele>1035.4</ele><time>2026-05-03T11:18:54.275Z</time></trkpt><trkpt lat="44.1417717" lon="6.7606767"><ele>1036.6000000000001</ele><time>2026-05-03T11:18:55.275Z</time></trkpt><trkpt lat="44.1418333" lon="6.7605867"><ele>1037.8</ele><time>2026-05-03T11:18:56.276Z</time></trkpt><trkpt lat="44.1418983" lon="6.7605067"><ele>1039.0</ele><time>2026-05-03T11:18:57.275Z</time></trkpt><trkpt lat="44.1419733" lon="6.760445"><ele>1039.0</ele><time>2026-05-03T11:18:58.275Z</time></trkpt><trkpt lat="44.14205" lon="6.760405"><ele>1039.0</ele><time>2026-05-03T11:18:59.275Z</time></trkpt><trkpt lat="44.1421417" lon="6.7604017"><ele>1039.0</ele><time>2026-05-03T11:19:00.276Z</time></trkpt><trkpt lat="44.142235" lon="6.760435"><ele>1039.0</ele><time>2026-05-03T11:19:01.275Z</time></trkpt><trkpt lat="44.1423267" lon="6.760505"><ele>1039.0</ele><time>2026-05-03T11:19:02.275Z</time></trkpt><trkpt lat="44.1423967" lon="6.7606117"><ele>1039.0</ele><time>2026-05-03T11:19:03.275Z</time></trkpt><trkpt lat="44.1424467" lon="6.7607417"><ele>1039.0</ele><time>2026-05-03T11:19:04.275Z</time></trkpt><trkpt lat="44.142455" lon="6.760875"><ele>1039.0</ele><time>2026-05-03T11:19:05.275Z</time></trkpt><trkpt lat="44.1424417" lon="6.76103"><ele>1039.0</ele><time>2026-05-03T11:19:06.275Z</time></trkpt><trkpt lat="44.1423717" lon="6.7611767"><ele>1039.0</ele><time>2026-05-03T11:19:07.275Z</time></trkpt><trkpt lat="44.1423067" lon="6.761305"><ele>1039.0</ele><time>2026-05-03T11:19:08.275Z</time></trkpt><trkpt lat="44.14224" lon="6.76142"><ele>1039.0</ele><time>2026-05-03T11:19:09.275Z</time></trkpt><trkpt lat="44.1421683" lon="6.7615217"><ele>1039.0</ele><time>2026-05-03T11:19:10.275Z</time></trkpt><trkpt lat="44.1420983" lon="6.7616233"><ele>1039.0</ele><time>2026-05-03T11:19:11.275Z</time></trkpt><trkpt lat="44.1420317" lon="6.7617267"><ele>1039.0</ele><time>2026-05-03T11:19:12.275Z</time></trkpt><trkpt lat="44.1419567" lon="6.7618183"><ele>1041.0</ele><time>2026-05-03T11:19:13.275Z</time></trkpt><trkpt lat="44.141875" lon="6.7619067"><ele>1043.0</ele><time>2026-05-03T11:19:14.276Z</time></trkpt><trkpt lat="44.1417867" lon="6.762"><ele>1045.0</ele><time>2026-05-03T11:19:15.275Z</time></trkpt><trkpt lat="44.1417033" lon="6.7620967"><ele>1047.0</ele><time>2026-05-03T11:19:16.275Z</time></trkpt><trkpt lat="44.14163" lon="6.762195"><ele>1049.0</ele><time>2026-05-03T11:19:17.275Z</time></trkpt><trkpt lat="44.1415633" lon="6.76229"><ele>1045.6666666666667</ele><time>2026-05-03T11:19:18.275Z</time></trkpt><trkpt lat="44.1415083" lon="6.7623783"><ele>1042.3333333333335</ele><time>2026-05-03T11:19:19.275Z</time></trkpt><trkpt lat="44.14145" lon="6.76245"><ele>1039.0</ele><time>2026-05-03T11:19:20.275Z</time></trkpt><trkpt lat="44.1413983" lon="6.7625033"><ele>1035.6666666666667</ele><time>2026-05-03T11:19:21.276Z</time></trkpt><trkpt lat="44.141335" lon="6.7625917"><ele>1032.3333333333333</ele><time>2026-05-03T11:19:23.275Z</time></trkpt><trkpt lat="44.14145" lon="6.7625933"><ele>1029.0</ele><time>2026-05-03T11:19:28.275Z</time></trkpt><trkpt lat="44.1415217" lon="6.7625"><ele>1034.0</ele><time>2026-05-03T11:19:29.275Z</time></trkpt><trkpt lat="44.14159" lon="6.762355"><ele>1039.0</ele><time>2026-05-03T11:19:30.275Z</time></trkpt><trkpt lat="44.1416683" lon="6.7622067"><ele>1044.0</ele><time>2026-05-03T11:19:31.275Z</time></trkpt><trkpt lat="44.1417517" lon="6.7620783"><ele>1049.0</ele><time>2026-05-03T11:19:32.275Z</time></trkpt><trkpt lat="44.1418483" lon="6.7619667"><ele>1049.0</ele><time>2026-05-03T11:19:33.275Z</time></trkpt><trkpt lat="44.141945" lon="6.76187"><ele>1049.0</ele><time>2026-05-03T11:19:34.275Z</time></trkpt><trkpt lat="44.142045" lon="6.7617633"><ele>1049.0</ele><time>2026-05-03T11:19:35.275Z</time></trkpt><trkpt lat="44.1421383" lon="6.7616733"><ele>1049.0</ele><time>2026-05-03T11:19:36.275Z</time></trkpt><trkpt lat="44.1422283" lon="6.7615933"><ele>1047.8</ele><time>2026-05-03T11:19:37.275Z</time></trkpt><trkpt lat="44.1423217" lon="6.7615167"><ele>1046.6000000000001</ele><time>2026-05-03T11:19:38.275Z</time></trkpt><trkpt lat="44.1424017" lon="6.761435"><ele>1045.4</ele><time>2026-05-03T11:19:39.275Z</time></trkpt><trkpt lat="44.1424717" lon="6.76136"><ele>1044.2</ele><time>2026-05-03T11:19:40.275Z</time></trkpt><trkpt lat="44.1425467" lon="6.7613017"><ele>1043.0</ele><time>2026-05-03T11:19:41.275Z</time></trkpt><trkpt lat="44.1426267" lon="6.7612767"><ele>1043.0</ele><time>2026-05-03T11:19:42.275Z</time></trkpt><trkpt lat="44.1427117" lon="6.7612433"><ele>1043.0</ele><time>2026-05-03T11:19:43.275Z</time></trkpt><trkpt lat="44.1427967" lon="6.7612233"><ele>1043.0</ele><time>2026-05-03T11:19:44.275Z</time></trkpt><trkpt lat="44.1428933" lon="6.761205"><ele>1043.0</ele><time>2026-05-03T11:19:45.275Z</time></trkpt><trkpt lat="44.14299" lon="6.7611617"><ele>1043.0</ele><time>2026-05-03T11:19:46.275Z</time></trkpt><trkpt lat="44.1430767" lon="6.76108"><ele>1043.75</ele><time>2026-05-03T11:19:47.275Z</time></trkpt><trkpt lat="44.1431517" lon="6.7609683"><ele>1044.5</ele><time>2026-05-03T11:19:48.275Z</time></trkpt><trkpt lat="44.143225" lon="6.7608583"><ele>1045.25</ele><time>2026-05-03T11:19:49.275Z</time></trkpt><trkpt lat="44.1433" lon="6.76074"><ele>1046.0</ele><time>2026-05-03T11:19:50.275Z</time></trkpt><trkpt lat="44.1434" lon="6.7606117"><ele>1046.25</ele><time>2026-05-03T11:19:51.275Z</time></trkpt><trkpt lat="44.1434983" lon="6.7604933"><ele>1046.5</ele><time>2026-05-03T11:19:52.275Z</time></trkpt><trkpt lat="44.1436083" lon="6.7603733"><ele>1046.75</ele><time>2026-05-03T11:19:53.275Z</time></trkpt><trkpt lat="44.143715" lon="6.760255"><ele>1047.0</ele><time>2026-05-03T11:19:54.275Z</time></trkpt><trkpt lat="44.1438267" lon="6.76013"><ele>1048.0</ele><time>2026-05-03T11:19:55.275Z</time></trkpt><trkpt lat="44.143945" lon="6.760005"><ele>1049.0</ele><time>2026-05-03T11:19:56.275Z</time></trkpt><trkpt lat="44.1440617" lon="6.7598833"><ele>1050.0</ele><time>2026-05-03T11:19:57.275Z</time></trkpt><trkpt lat="44.1441683" lon="6.7597483"><ele>1051.0</ele><time>2026-05-03T11:19:58.275Z</time></trkpt><trkpt lat="44.1442833" lon="6.7596033"><ele>1051.0</ele><time>2026-05-03T11:19:59.275Z</time></trkpt><trkpt lat="44.1444" lon="6.75945"><ele>1051.0</ele><time>2026-05-03T11:20:00.275Z</time></trkpt><trkpt lat="44.14451" lon="6.75929"><ele>1051.0</ele><time>2026-05-03T11:20:01.275Z</time></trkpt><trkpt lat="44.1446133" lon="6.7591383"><ele>1050.0</ele><time>2026-05-03T11:20:02.275Z</time></trkpt><trkpt lat="44.144725" lon="6.7589667"><ele>1049.0</ele><time>2026-05-03T11:20:03.275Z</time></trkpt><trkpt lat="44.1448333" lon="6.7588033"><ele>1048.0</ele><time>2026-05-03T11:20:04.276Z</time></trkpt><trkpt lat="44.144935" lon="6.7586417"><ele>1051.25</ele><time>2026-05-03T11:20:05.275Z</time></trkpt><trkpt lat="44.1450183" lon="6.75847"><ele>1054.5</ele><time>2026-05-03T11:20:06.275Z</time></trkpt><trkpt lat="44.1451017" lon="6.758305"><ele>1057.75</ele><time>2026-05-03T11:20:07.275Z</time></trkpt><trkpt lat="44.145195" lon="6.7581517"><ele>1061.0</ele><time>2026-05-03T11:20:08.275Z</time></trkpt><trkpt lat="44.1453033" lon="6.7580267"><ele>1061.0</ele><time>2026-05-03T11:20:09.275Z</time></trkpt><trkpt lat="44.145425" lon="6.75792"><ele>1061.0</ele><time>2026-05-03T11:20:10.275Z</time></trkpt><trkpt lat="44.14556" lon="6.7578267"><ele>1061.0</ele><time>2026-05-03T11:20:11.275Z</time></trkpt><trkpt lat="44.1457083" lon="6.7577467"><ele>1062.6666666666667</ele><time>2026-05-03T11:20:12.276Z</time></trkpt><trkpt lat="44.1458567" lon="6.7576733"><ele>1064.3333333333333</ele><time>2026-05-03T11:20:13.275Z</time></trkpt><trkpt lat="44.1460167" lon="6.7576167"><ele>1066.0</ele><time>2026-05-03T11:20:14.275Z</time></trkpt><trkpt lat="44.1461733" lon="6.75755"><ele>1066.0</ele><time>2026-05-03T11:20:15.276Z</time></trkpt><trkpt lat="44.1463333" lon="6.7574867"><ele>1066.0</ele><time>2026-05-03T11:20:16.275Z</time></trkpt><trkpt lat="44.1464983" lon="6.757425"><ele>1066.0</ele><time>2026-05-03T11:20:17.275Z</time></trkpt><trkpt lat="44.1466567" lon="6.7573667"><ele>1065.6666666666665</ele><time>2026-05-03T11:20:18.276Z</time></trkpt><trkpt lat="44.1468083" lon="6.7573117"><ele>1065.3333333333333</ele><time>2026-05-03T11:20:19.275Z</time></trkpt><trkpt lat="44.1469567" lon="6.7572517"><ele>1065.0</ele><time>2026-05-03T11:20:20.275Z</time></trkpt><trkpt lat="44.14711" lon="6.7572283"><ele>1065.0</ele><time>2026-05-03T11:20:21.275Z</time></trkpt><trkpt lat="44.1472617" lon="6.7572567"><ele>1065.0</ele><time>2026-05-03T11:20:22.275Z</time></trkpt><trkpt lat="44.14741" lon="6.7573067"><ele>1065.0</ele><time>2026-05-03T11:20:23.275Z</time></trkpt><trkpt lat="44.147565" lon="6.7573517"><ele>1065.3333333333333</ele><time>2026-05-03T11:20:24.276Z</time></trkpt><trkpt lat="44.1477217" lon="6.757365"><ele>1065.6666666666665</ele><time>2026-05-03T11:20:25.275Z</time></trkpt><trkpt lat="44.1478767" lon="6.7573417"><ele>1066.0</ele><time>2026-05-03T11:20:26.275Z</time></trkpt><trkpt lat="44.14803" lon="6.7572983"><ele>1066.0</ele><time>2026-05-03T11:20:27.275Z</time></trkpt><trkpt lat="44.1481867" lon="6.75725"><ele>1066.0</ele><time>2026-05-03T11:20:28.275Z</time></trkpt><trkpt lat="44.1483417" lon="6.7571883"><ele>1066.0</ele><time>2026-05-03T11:20:29.275Z</time></trkpt><trkpt lat="44.1484983" lon="6.7571067"><ele>1066.3333333333333</ele><time>2026-05-03T11:20:30.275Z</time></trkpt><trkpt lat="44.1486567" lon="6.7570183"><ele>1066.6666666666667</ele><time>2026-05-03T11:20:31.275Z</time></trkpt><trkpt lat="44.1488183" lon="6.7569267"><ele>1067.0</ele><time>2026-05-03T11:20:32.275Z</time></trkpt><trkpt lat="44.1489783" lon="6.7568383"><ele>1071.6666666666667</ele><time>2026-05-03T11:20:33.275Z</time></trkpt><trkpt lat="44.1491433" lon="6.75674"><ele>1076.3333333333333</ele><time>2026-05-03T11:20:34.275Z</time></trkpt><trkpt lat="44.1492983" lon="6.7566467"><ele>1081.0</ele><time>2026-05-03T11:20:35.275Z</time></trkpt><trkpt lat="44.1494617" lon="6.7565617"><ele>1081.0</ele><time>2026-05-03T11:20:36.275Z</time></trkpt><trkpt lat="44.149625" lon="6.7565017"><ele>1081.0</ele><time>2026-05-03T11:20:37.275Z</time></trkpt><trkpt lat="44.1497883" lon="6.7564683"><ele>1081.0</ele><time>2026-05-03T11:20:38.276Z</time></trkpt><trkpt lat="44.1499583" lon="6.756435"><ele>1080.5</ele><time>2026-05-03T11:20:39.275Z</time></trkpt><trkpt lat="44.150115" lon="6.7564067"><ele>1080.0</ele><time>2026-05-03T11:20:40.276Z</time></trkpt><trkpt lat="44.1502417" lon="6.7564067"><ele>1079.5</ele><time>2026-05-03T11:20:41.275Z</time></trkpt><trkpt lat="44.150405" lon="6.75642"><ele>1079.0</ele><time>2026-05-03T11:20:42.275Z</time></trkpt><trkpt lat="44.15055" lon="6.756495"><ele>1079.0</ele><time>2026-05-03T11:20:43.275Z</time></trkpt><trkpt lat="44.15067" lon="6.756605"><ele>1079.0</ele><time>2026-05-03T11:20:44.275Z</time></trkpt><trkpt lat="44.1508033" lon="6.756695"><ele>1079.0</ele><time>2026-05-03T11:20:45.275Z</time></trkpt><trkpt lat="44.1509467" lon="6.7567367"><ele>1079.0</ele><time>2026-05-03T11:20:46.276Z</time></trkpt><trkpt lat="44.1510933" lon="6.7567233"><ele>1080.0</ele><time>2026-05-03T11:20:47.275Z</time></trkpt><trkpt lat="44.15125" lon="6.7566533"><ele>1081.0</ele><time>2026-05-03T11:20:48.275Z</time></trkpt><trkpt lat="44.1514117" lon="6.7565967"><ele>1082.0</ele><time>2026-05-03T11:20:49.276Z</time></trkpt><trkpt lat="44.1515733" lon="6.7565617"><ele>1083.3333333333335</ele><time>2026-05-03T11:20:50.276Z</time></trkpt><trkpt lat="44.1517367" lon="6.7565433"><ele>1084.6666666666667</ele><time>2026-05-03T11:20:51.275Z</time></trkpt><trkpt lat="44.1519" lon="6.7565133"><ele>1086.0</ele><time>2026-05-03T11:20:52.275Z</time></trkpt><trkpt lat="44.1520567" lon="6.75647"><ele>1086.0</ele><time>2026-05-03T11:20:53.275Z</time></trkpt><trkpt lat="44.1522167" lon="6.7564183"><ele>1086.0</ele><time>2026-05-03T11:20:54.275Z</time></trkpt><trkpt lat="44.1523767" lon="6.756365"><ele>1086.0</ele><time>2026-05-03T11:20:55.276Z</time></trkpt><trkpt lat="44.1525383" lon="6.756335"><ele>1083.6666666666667</ele><time>2026-05-03T11:20:56.275Z</time></trkpt><trkpt lat="44.1527" lon="6.7563367"><ele>1081.3333333333335</ele><time>2026-05-03T11:20:57.276Z</time></trkpt><trkpt lat="44.1528617" lon="6.7563633"><ele>1079.0</ele><time>2026-05-03T11:20:58.275Z</time></trkpt><trkpt lat="44.153025" lon="6.7563833"><ele>1079.0</ele><time>2026-05-03T11:20:59.275Z</time></trkpt><trkpt lat="44.15319" lon="6.7563917"><ele>1079.0</ele><time>2026-05-03T11:21:00.275Z</time></trkpt><trkpt lat="44.1533533" lon="6.7563933"><ele>1079.0</ele><time>2026-05-03T11:21:01.275Z</time></trkpt><trkpt lat="44.1535183" lon="6.7564133"><ele>1081.6666666666667</ele><time>2026-05-03T11:21:02.275Z</time></trkpt><trkpt lat="44.15369" lon="6.7564783"><ele>1084.3333333333333</ele><time>2026-05-03T11:21:03.275Z</time></trkpt><trkpt lat="44.1538533" lon="6.7565683"><ele>1087.0</ele><time>2026-05-03T11:21:04.275Z</time></trkpt><trkpt lat="44.15401" lon="6.75665"><ele>1089.6666666666665</ele><time>2026-05-03T11:21:05.275Z</time></trkpt><trkpt lat="44.15417" lon="6.756715"><ele>1092.3333333333333</ele><time>2026-05-03T11:21:06.275Z</time></trkpt><trkpt lat="44.15433" lon="6.756775"><ele>1095.0</ele><time>2026-05-03T11:21:07.275Z</time></trkpt><trkpt lat="44.1544917" lon="6.7568333"><ele>1089.0</ele><time>2026-05-03T11:21:08.275Z</time></trkpt><trkpt lat="44.15464" lon="6.7568833"><ele>1083.0</ele><time>2026-05-03T11:21:09.276Z</time></trkpt><trkpt lat="44.15478" lon="6.7569667"><ele>1077.0</ele><time>2026-05-03T11:21:10.275Z</time></trkpt><trkpt lat="44.154915" lon="6.7570533"><ele>1077.0</ele><time>2026-05-03T11:21:11.275Z</time></trkpt><trkpt lat="44.1550383" lon="6.7571267"><ele>1077.0</ele><time>2026-05-03T11:21:12.275Z</time></trkpt><trkpt lat="44.155155" lon="6.75718"><ele>1077.0</ele><time>2026-05-03T11:21:13.276Z</time></trkpt><trkpt lat="44.1552783" lon="6.7572017"><ele>1077.0</ele><time>2026-05-03T11:21:14.275Z</time></trkpt><trkpt lat="44.1554033" lon="6.7571717"><ele>1077.0</ele><time>2026-05-03T11:21:15.275Z</time></trkpt><trkpt lat="44.155535" lon="6.7571133"><ele>1077.0</ele><time>2026-05-03T11:21:16.275Z</time></trkpt><trkpt lat="44.1556717" lon="6.757045"><ele>1077.0</ele><time>2026-05-03T11:21:17.275Z</time></trkpt><trkpt lat="44.1558033" lon="6.7570183"><ele>1077.0</ele><time>2026-05-03T11:21:18.276Z</time></trkpt><trkpt lat="44.1559383" lon="6.7570233"><ele>1077.5</ele><time>2026-05-03T11:21:19.275Z</time></trkpt><trkpt lat="44.1560767" lon="6.7570217"><ele>1078.0</ele><time>2026-05-03T11:21:20.275Z</time></trkpt><trkpt lat="44.15622" lon="6.7570183"><ele>1078.5</ele><time>2026-05-03T11:21:21.275Z</time></trkpt><trkpt lat="44.156355" lon="6.757035"><ele>1079.0</ele><time>2026-05-03T11:21:22.275Z</time></trkpt><trkpt lat="44.1564967" lon="6.7570683"><ele>1091.5</ele><time>2026-05-03T11:21:23.275Z</time></trkpt><trkpt lat="44.1566283" lon="6.7570967"><ele>1104.0</ele><time>2026-05-03T11:21:24.275Z</time></trkpt><trkpt lat="44.1567617" lon="6.7571183"><ele>1116.5</ele><time>2026-05-03T11:21:25.275Z</time></trkpt><trkpt lat="44.1569033" lon="6.757135"><ele>1129.0</ele><time>2026-05-03T11:21:26.275Z</time></trkpt><trkpt lat="44.1570467" lon="6.7571583"><ele>1129.0</ele><time>2026-05-03T11:21:27.275Z</time></trkpt><trkpt lat="44.1571883" lon="6.7571783"><ele>1129.0</ele><time>2026-05-03T11:21:28.275Z</time></trkpt><trkpt lat="44.15854" lon="6.7572883"><ele>1127.25</ele><time>2026-05-03T11:21:37.274Z</time></trkpt><trkpt lat="44.1587017" lon="6.757345"><ele>1125.5</ele><time>2026-05-03T11:21:38.274Z</time></trkpt><trkpt lat="44.1588317" lon="6.757375"><ele>1123.75</ele><time>2026-05-03T11:21:39.274Z</time></trkpt><trkpt lat="44.158945" lon="6.7574433"><ele>1122.0</ele><time>2026-05-03T11:21:40.274Z</time></trkpt><trkpt lat="44.15905" lon="6.7575117"><ele>1122.0</ele><time>2026-05-03T11:21:41.274Z</time></trkpt><trkpt lat="44.1591633" lon="6.7575533"><ele>1122.0</ele><time>2026-05-03T11:21:42.274Z</time></trkpt><trkpt lat="44.1592867" lon="6.757555"><ele>1122.0</ele><time>2026-05-03T11:21:43.274Z</time></trkpt><trkpt lat="44.1594117" lon="6.757535"><ele>1122.0</ele><time>2026-05-03T11:21:44.274Z</time></trkpt><trkpt lat="44.159545" lon="6.7574883"><ele>1122.0</ele><time>2026-05-03T11:21:45.275Z</time></trkpt><trkpt lat="44.1596933" lon="6.7574667"><ele>1122.0</ele><time>2026-05-03T11:21:46.274Z</time></trkpt><trkpt lat="44.1598433" lon="6.7574567"><ele>1122.0</ele><time>2026-05-03T11:21:47.275Z</time></trkpt><trkpt lat="44.1599867" lon="6.7574783"><ele>1122.0</ele><time>2026-05-03T11:21:48.274Z</time></trkpt><trkpt lat="44.1601267" lon="6.7574717"><ele>1122.5</ele><time>2026-05-03T11:21:49.275Z</time></trkpt><trkpt lat="44.1602417" lon="6.75744"><ele>1123.0</ele><time>2026-05-03T11:21:50.274Z</time></trkpt><trkpt lat="44.1603517" lon="6.7573633"><ele>1123.5</ele><time>2026-05-03T11:21:51.274Z</time></trkpt><trkpt lat="44.1604467" lon="6.75723"><ele>1124.0</ele><time>2026-05-03T11:21:52.274Z</time></trkpt><trkpt lat="44.1605017" lon="6.7570583"><ele>1124.0</ele><time>2026-05-03T11:21:53.274Z</time></trkpt><trkpt lat="44.1605583" lon="6.7568967"><ele>1124.0</ele><time>2026-05-03T11:21:54.275Z</time></trkpt><trkpt lat="44.1606267" lon="6.7567467"><ele>1124.0</ele><time>2026-05-03T11:21:55.274Z</time></trkpt><trkpt lat="44.1607217" lon="6.7566183"><ele>1124.0</ele><time>2026-05-03T11:21:56.274Z</time></trkpt><trkpt lat="44.160845" lon="6.7565117"><ele>1123.6666666666667</ele><time>2026-05-03T11:21:57.274Z</time></trkpt><trkpt lat="44.160985" lon="6.7564133"><ele>1123.3333333333333</ele><time>2026-05-03T11:21:58.274Z</time></trkpt><trkpt lat="44.161135" lon="6.7563117"><ele>1123.0</ele><time>2026-05-03T11:21:59.274Z</time></trkpt><trkpt lat="44.1612683" lon="6.7562017"><ele>1123.0</ele><time>2026-05-03T11:22:00.274Z</time></trkpt><trkpt lat="44.161395" lon="6.75609"><ele>1123.0</ele><time>2026-05-03T11:22:01.275Z</time></trkpt><trkpt lat="44.1615417" lon="6.7559683"><ele>1123.0</ele><time>2026-05-03T11:22:02.274Z</time></trkpt><trkpt lat="44.1616767" lon="6.7558667"><ele>1125.5</ele><time>2026-05-03T11:22:03.274Z</time></trkpt><trkpt lat="44.1618117" lon="6.7557917"><ele>1128.0</ele><time>2026-05-03T11:22:04.275Z</time></trkpt><trkpt lat="44.16195" lon="6.7557267"><ele>1130.5</ele><time>2026-05-03T11:22:05.275Z</time></trkpt><trkpt lat="44.1620967" lon="6.7556683"><ele>1133.0</ele><time>2026-05-03T11:22:06.274Z</time></trkpt><trkpt lat="44.1622533" lon="6.7556033"><ele>1129.5</ele><time>2026-05-03T11:22:07.274Z</time></trkpt><trkpt lat="44.1623933" lon="6.7555633"><ele>1126.0</ele><time>2026-05-03T11:22:08.274Z</time></trkpt><trkpt lat="44.16253" lon="6.75549"><ele>1122.5</ele><time>2026-05-03T11:22:09.274Z</time></trkpt><trkpt lat="44.16265" lon="6.7553983"><ele>1119.0</ele><time>2026-05-03T11:22:10.274Z</time></trkpt><trkpt lat="44.1627517" lon="6.7552917"><ele>1123.25</ele><time>2026-05-03T11:22:11.274Z</time></trkpt><trkpt lat="44.162825" lon="6.75515"><ele>1127.5</ele><time>2026-05-03T11:22:12.274Z</time></trkpt><trkpt lat="44.1628633" lon="6.754985"><ele>1131.75</ele><time>2026-05-03T11:22:13.274Z</time></trkpt><trkpt lat="44.1628583" lon="6.7548017"><ele>1136.0</ele><time>2026-05-03T11:22:14.274Z</time></trkpt><trkpt lat="44.1628417" lon="6.754605"><ele>1136.0</ele><time>2026-05-03T11:22:15.274Z</time></trkpt><trkpt lat="44.1628283" lon="6.7544217"><ele>1136.0</ele><time>2026-05-03T11:22:16.274Z</time></trkpt><trkpt lat="44.1628083" lon="6.75423"><ele>1136.0</ele><time>2026-05-03T11:22:17.275Z</time></trkpt><trkpt lat="44.1627867" lon="6.7540517"><ele>1136.0</ele><time>2026-05-03T11:22:18.274Z</time></trkpt><trkpt lat="44.16276" lon="6.7538767"><ele>1139.0</ele><time>2026-05-03T11:22:19.274Z</time></trkpt><trkpt lat="44.1627383" lon="6.7537133"><ele>1142.0</ele><time>2026-05-03T11:22:20.274Z</time></trkpt><trkpt lat="44.1627567" lon="6.7535717"><ele>1145.0</ele><time>2026-05-03T11:22:21.274Z</time></trkpt><trkpt lat="44.1628333" lon="6.753465"><ele>1148.0</ele><time>2026-05-03T11:22:22.274Z</time></trkpt><trkpt lat="44.1629417" lon="6.7534083"><ele>1151.0</ele><time>2026-05-03T11:22:23.274Z</time></trkpt><trkpt lat="44.1630533" lon="6.7534033"><ele>1152.5</ele><time>2026-05-03T11:22:24.274Z</time></trkpt><trkpt lat="44.1631783" lon="6.7534467"><ele>1154.0</ele><time>2026-05-03T11:22:25.275Z</time></trkpt><trkpt lat="44.1632733" lon="6.7536217"><ele>1155.5</ele><time>2026-05-03T11:22:26.275Z</time></trkpt><trkpt lat="44.1633633" lon="6.753765"><ele>1157.0</ele><time>2026-05-03T11:22:27.274Z</time></trkpt><trkpt lat="44.16345" lon="6.7538883"><ele>1151.5</ele><time>2026-05-03T11:22:28.274Z</time></trkpt><trkpt lat="44.1635433" lon="6.7539733"><ele>1146.0</ele><time>2026-05-03T11:22:29.274Z</time></trkpt><trkpt lat="44.1636567" lon="6.7539967"><ele>1140.5</ele><time>2026-05-03T11:22:30.274Z</time></trkpt><trkpt lat="44.1637883" lon="6.7539483"><ele>1135.0</ele><time>2026-05-03T11:22:31.274Z</time></trkpt><trkpt lat="44.1639217" lon="6.75387"><ele>1135.0</ele><time>2026-05-03T11:22:32.274Z</time></trkpt><trkpt lat="44.1640633" lon="6.7537883"><ele>1135.0</ele><time>2026-05-03T11:22:33.274Z</time></trkpt><trkpt lat="44.1642033" lon="6.753735"><ele>1135.0</ele><time>2026-05-03T11:22:34.274Z</time></trkpt><trkpt lat="44.1643583" lon="6.7536917"><ele>1135.0</ele><time>2026-05-03T11:22:35.275Z</time></trkpt><trkpt lat="44.1645117" lon="6.7536383"><ele>1135.0</ele><time>2026-05-03T11:22:36.274Z</time></trkpt><trkpt lat="44.16467" lon="6.7535783"><ele>1135.0</ele><time>2026-05-03T11:22:37.274Z</time></trkpt><trkpt lat="44.1648283" lon="6.7535117"><ele>1146.3333333333333</ele><time>2026-05-03T11:22:38.274Z</time></trkpt><trkpt lat="44.1649833" lon="6.75345"><ele>1157.6666666666667</ele><time>2026-05-03T11:22:39.274Z</time></trkpt><trkpt lat="44.1651317" lon="6.7533967"><ele>1169.0</ele><time>2026-05-03T11:22:40.274Z</time></trkpt><trkpt lat="44.16528" lon="6.75335"><ele>1169.0</ele><time>2026-05-03T11:22:41.274Z</time></trkpt><trkpt lat="44.1654267" lon="6.75331"><ele>1169.0</ele><time>2026-05-03T11:22:42.275Z</time></trkpt><trkpt lat="44.1655833" lon="6.7532833"><ele>1169.0</ele><time>2026-05-03T11:22:43.274Z</time></trkpt><trkpt lat="44.1657367" lon="6.7532833"><ele>1161.3333333333335</ele><time>2026-05-03T11:22:44.275Z</time></trkpt><trkpt lat="44.1658983" lon="6.753225"><ele>1153.6666666666667</ele><time>2026-05-03T11:22:45.274Z</time></trkpt><trkpt lat="44.16604" lon="6.753145"><ele>1146.0</ele><time>2026-05-03T11:22:46.274Z</time></trkpt><trkpt lat="44.1661783" lon="6.7530317"><ele>1146.0</ele><time>2026-05-03T11:22:47.274Z</time></trkpt><trkpt lat="44.1663133" lon="6.7529017"><ele>1146.0</ele><time>2026-05-03T11:22:48.274Z</time></trkpt><trkpt lat="44.1664417" lon="6.7527883"><ele>1146.0</ele><time>2026-05-03T11:22:49.274Z</time></trkpt><trkpt lat="44.166585" lon="6.75269"><ele>1156.3333333333333</ele><time>2026-05-03T11:22:50.274Z</time></trkpt><trkpt lat="44.1667367" lon="6.7525933"><ele>1166.6666666666665</ele><time>2026-05-03T11:22:51.274Z</time></trkpt><trkpt lat="44.1668967" lon="6.752495"><ele>1177.0</ele><time>2026-05-03T11:22:52.274Z</time></trkpt><trkpt lat="44.1670333" lon="6.752395"><ele>1177.0</ele><time>2026-05-03T11:22:53.275Z</time></trkpt><trkpt lat="44.167165" lon="6.7522717"><ele>1177.0</ele><time>2026-05-03T11:22:54.274Z</time></trkpt><trkpt lat="44.1672883" lon="6.75215"><ele>1177.0</ele><time>2026-05-03T11:22:55.274Z</time></trkpt><trkpt lat="44.167425" lon="6.7520333"><ele>1181.0</ele><time>2026-05-03T11:22:56.274Z</time></trkpt><trkpt lat="44.1675617" lon="6.751935"><ele>1185.0</ele><time>2026-05-03T11:22:57.274Z</time></trkpt><trkpt lat="44.1677" lon="6.7518617"><ele>1189.0</ele><time>2026-05-03T11:22:58.274Z</time></trkpt><trkpt lat="44.1678483" lon="6.7518083"><ele>1189.0</ele><time>2026-05-03T11:22:59.274Z</time></trkpt><trkpt lat="44.167995" lon="6.7517733"><ele>1189.0</ele><time>2026-05-03T11:23:00.274Z</time></trkpt><trkpt lat="44.1681433" lon="6.7517133"><ele>1189.0</ele><time>2026-05-03T11:23:01.274Z</time></trkpt><trkpt lat="44.1683017" lon="6.7516467"><ele>1185.3333333333333</ele><time>2026-05-03T11:23:02.274Z</time></trkpt><trkpt lat="44.1684583" lon="6.7515933"><ele>1181.6666666666667</ele><time>2026-05-03T11:23:03.274Z</time></trkpt><trkpt lat="44.1686267" lon="6.751565"><ele>1178.0</ele><time>2026-05-03T11:23:04.274Z</time></trkpt><trkpt lat="44.1687983" lon="6.7515567"><ele>1178.0</ele><time>2026-05-03T11:23:05.274Z</time></trkpt><trkpt lat="44.1689717" lon="6.7515483"><ele>1178.0</ele><time>2026-05-03T11:23:06.275Z</time></trkpt><trkpt lat="44.1691517" lon="6.7515233"><ele>1178.0</ele><time>2026-05-03T11:23:07.274Z</time></trkpt><trkpt lat="44.1693183" lon="6.7515083"><ele>1176.0</ele><time>2026-05-03T11:23:08.274Z</time></trkpt><trkpt lat="44.1694817" lon="6.7514967"><ele>1174.0</ele><time>2026-05-03T11:23:09.274Z</time></trkpt><trkpt lat="44.1696467" lon="6.7515083"><ele>1172.0</ele><time>2026-05-03T11:23:10.274Z</time></trkpt><trkpt lat="44.1698117" lon="6.7515217"><ele>1171.6666666666667</ele><time>2026-05-03T11:23:11.274Z</time></trkpt><trkpt lat="44.1699783" lon="6.7514933"><ele>1171.3333333333333</ele><time>2026-05-03T11:23:12.274Z</time></trkpt><trkpt lat="44.1701383" lon="6.75144"><ele>1171.0</ele><time>2026-05-03T11:23:13.274Z</time></trkpt><trkpt lat="44.1703" lon="6.751375"><ele>1171.0</ele><time>2026-05-03T11:23:14.274Z</time></trkpt><trkpt lat="44.1704617" lon="6.75131"><ele>1171.0</ele><time>2026-05-03T11:23:15.274Z</time></trkpt><trkpt lat="44.1706133" lon="6.75123"><ele>1171.0</ele><time>2026-05-03T11:23:16.274Z</time></trkpt><trkpt lat="44.17076" lon="6.751125"><ele>1168.75</ele><time>2026-05-03T11:23:17.275Z</time></trkpt><trkpt lat="44.1709" lon="6.751045"><ele>1166.5</ele><time>2026-05-03T11:23:18.274Z</time></trkpt><trkpt lat="44.171035" lon="6.751"><ele>1164.25</ele><time>2026-05-03T11:23:19.274Z</time></trkpt><trkpt lat="44.1711783" lon="6.7509783"><ele>1162.0</ele><time>2026-05-03T11:23:20.274Z</time></trkpt><trkpt lat="44.1713217" lon="6.7509167"><ele>1166.75</ele><time>2026-05-03T11:23:21.274Z</time></trkpt><trkpt lat="44.1714533" lon="6.7508017"><ele>1171.5</ele><time>2026-05-03T11:23:22.274Z</time></trkpt><trkpt lat="44.17156" lon="6.7506633"><ele>1176.25</ele><time>2026-05-03T11:23:23.274Z</time></trkpt><trkpt lat="44.17166" lon="6.7505167"><ele>1181.0</ele><time>2026-05-03T11:23:24.274Z</time></trkpt><trkpt lat="44.171775" lon="6.750375"><ele>1181.0</ele><time>2026-05-03T11:23:25.275Z</time></trkpt><trkpt lat="44.1719033" lon="6.7502483"><ele>1181.0</ele><time>2026-05-03T11:23:26.274Z</time></trkpt><trkpt lat="44.1720383" lon="6.7501433"><ele>1181.0</ele><time>2026-05-03T11:23:27.274Z</time></trkpt><trkpt lat="44.1721883" lon="6.750055"><ele>1187.6666666666667</ele><time>2026-05-03T11:23:28.274Z</time></trkpt><trkpt lat="44.17234" lon="6.7499717"><ele>1194.3333333333333</ele><time>2026-05-03T11:23:29.274Z</time></trkpt><trkpt lat="44.17248" lon="6.749905"><ele>1201.0</ele><time>2026-05-03T11:23:30.274Z</time></trkpt><trkpt lat="44.1726333" lon="6.7498933"><ele>1201.0</ele><time>2026-05-03T11:23:31.274Z</time></trkpt><trkpt lat="44.1727967" lon="6.7499133"><ele>1201.0</ele><time>2026-05-03T11:23:32.274Z</time></trkpt><trkpt lat="44.1729617" lon="6.7499733"><ele>1201.0</ele><time>2026-05-03T11:23:33.274Z</time></trkpt><trkpt lat="44.1731117" lon="6.75005"><ele>1201.75</ele><time>2026-05-03T11:23:34.274Z</time></trkpt><trkpt lat="44.1732517" lon="6.750145"><ele>1202.5</ele><time>2026-05-03T11:23:35.275Z</time></trkpt><trkpt lat="44.173385" lon="6.7502417"><ele>1203.25</ele><time>2026-05-03T11:23:36.274Z</time></trkpt><trkpt lat="44.17352" lon="6.7502967"><ele>1204.0</ele><time>2026-05-03T11:23:37.274Z</time></trkpt><trkpt lat="44.1736667" lon="6.7502967"><ele>1204.0</ele><time>2026-05-03T11:23:38.274Z</time></trkpt><trkpt lat="44.17381" lon="6.7502483"><ele>1204.0</ele><time>2026-05-03T11:23:39.275Z</time></trkpt><trkpt lat="44.1739367" lon="6.7502017"><ele>1204.0</ele><time>2026-05-03T11:23:40.274Z</time></trkpt><trkpt lat="44.1740717" lon="6.7501867"><ele>1204.0</ele><time>2026-05-03T11:23:41.274Z</time></trkpt><trkpt lat="44.1741983" lon="6.7501583"><ele>1203.75</ele><time>2026-05-03T11:23:42.274Z</time></trkpt><trkpt lat="44.174315" lon="6.75007"><ele>1203.5</ele><time>2026-05-03T11:23:43.274Z</time></trkpt><trkpt lat="44.17442" lon="6.7499333"><ele>1203.25</ele><time>2026-05-03T11:23:44.274Z</time></trkpt><trkpt lat="44.1745283" lon="6.7497783"><ele>1203.0</ele><time>2026-05-03T11:23:45.274Z</time></trkpt><trkpt lat="44.1746383" lon="6.7496467"><ele>1203.0</ele><time>2026-05-03T11:23:46.274Z</time></trkpt><trkpt lat="44.17476" lon="6.7495433"><ele>1203.0</ele><time>2026-05-03T11:23:47.274Z</time></trkpt><trkpt lat="44.17488" lon="6.7494767"><ele>1203.0</ele><time>2026-05-03T11:23:48.274Z</time></trkpt><trkpt lat="44.1750217" lon="6.7494667"><ele>1203.0</ele><time>2026-05-03T11:23:49.274Z</time></trkpt><trkpt lat="44.1751667" lon="6.7494683"><ele>1204.25</ele><time>2026-05-03T11:23:50.274Z</time></trkpt><trkpt lat="44.1753" lon="6.749435"><ele>1205.5</ele><time>2026-05-03T11:23:51.274Z</time></trkpt><trkpt lat="44.1754233" lon="6.749365"><ele>1206.75</ele><time>2026-05-03T11:23:52.274Z</time></trkpt><trkpt lat="44.1755467" lon="6.749295"><ele>1208.0</ele><time>2026-05-03T11:23:53.274Z</time></trkpt><trkpt lat="44.1756933" lon="6.7492567"><ele>1208.0</ele><time>2026-05-03T11:23:54.274Z</time></trkpt><trkpt lat="44.17584" lon="6.74923"><ele>1208.0</ele><time>2026-05-03T11:23:55.274Z</time></trkpt><trkpt lat="44.1759833" lon="6.7491533"><ele>1208.0</ele><time>2026-05-03T11:23:56.274Z</time></trkpt><trkpt lat="44.1761167" lon="6.74906"><ele>1208.0</ele><time>2026-05-03T11:23:57.274Z</time></trkpt><trkpt lat="44.17626" lon="6.7489533"><ele>1208.0</ele><time>2026-05-03T11:23:58.275Z</time></trkpt><trkpt lat="44.1763917" lon="6.7488467"><ele>1208.0</ele><time>2026-05-03T11:23:59.274Z</time></trkpt><trkpt lat="44.176525" lon="6.7487283"><ele>1206.0</ele><time>2026-05-03T11:24:00.274Z</time></trkpt><trkpt lat="44.1766583" lon="6.7486083"><ele>1204.0</ele><time>2026-05-03T11:24:01.274Z</time></trkpt><trkpt lat="44.1767767" lon="6.7484967"><ele>1202.0</ele><time>2026-05-03T11:24:02.274Z</time></trkpt><trkpt lat="44.176915" lon="6.7484117"><ele>1207.3333333333335</ele><time>2026-05-03T11:24:03.275Z</time></trkpt><trkpt lat="44.1770567" lon="6.7483683"><ele>1212.6666666666667</ele><time>2026-05-03T11:24:04.274Z</time></trkpt><trkpt lat="44.1772067" lon="6.748335"><ele>1218.0</ele><time>2026-05-03T11:24:05.274Z</time></trkpt><trkpt lat="44.1773583" lon="6.748295"><ele>1218.0</ele><time>2026-05-03T11:24:06.274Z</time></trkpt><trkpt lat="44.1775017" lon="6.7482583"><ele>1218.0</ele><time>2026-05-03T11:24:07.274Z</time></trkpt><trkpt lat="44.1776283" lon="6.7482333"><ele>1218.0</ele><time>2026-05-03T11:24:08.274Z</time></trkpt><trkpt lat="44.177745" lon="6.748245"><ele>1218.0</ele><time>2026-05-03T11:24:09.274Z</time></trkpt><trkpt lat="44.1778433" lon="6.74832"><ele>1218.0</ele><time>2026-05-03T11:24:10.274Z</time></trkpt><trkpt lat="44.1779083" lon="6.7484383"><ele>1218.0</ele><time>2026-05-03T11:24:11.274Z</time></trkpt><trkpt lat="44.17797" lon="6.7485817"><ele>1218.0</ele><time>2026-05-03T11:24:12.274Z</time></trkpt><trkpt lat="44.178025" lon="6.7487317"><ele>1218.0</ele><time>2026-05-03T11:24:13.274Z</time></trkpt><trkpt lat="44.1780933" lon="6.7488683"><ele>1217.5</ele><time>2026-05-03T11:24:14.274Z</time></trkpt><trkpt lat="44.178185" lon="6.748965"><ele>1217.0</ele><time>2026-05-03T11:24:15.274Z</time></trkpt><trkpt lat="44.1783017" lon="6.74903"><ele>1216.5</ele><time>2026-05-03T11:24:16.274Z</time></trkpt><trkpt lat="44.178435" lon="6.74904"><ele>1216.0</ele><time>2026-05-03T11:24:17.274Z</time></trkpt><trkpt lat="44.1785867" lon="6.7490233"><ele>1216.0</ele><time>2026-05-03T11:24:18.274Z</time></trkpt><trkpt lat="44.1787433" lon="6.7490017"><ele>1216.0</ele><time>2026-05-03T11:24:19.274Z</time></trkpt><trkpt lat="44.17891" lon="6.7489733"><ele>1216.0</ele><time>2026-05-03T11:24:20.274Z</time></trkpt><trkpt lat="44.1790767" lon="6.7489517"><ele>1216.6666666666665</ele><time>2026-05-03T11:24:21.274Z</time></trkpt><trkpt lat="44.1792417" lon="6.74894"><ele>1217.3333333333333</ele><time>2026-05-03T11:24:22.274Z</time></trkpt><trkpt lat="44.1794067" lon="6.74892"><ele>1218.0</ele><time>2026-05-03T11:24:23.274Z</time></trkpt><trkpt lat="44.1795617" lon="6.7489233"><ele>1218.0</ele><time>2026-05-03T11:24:24.274Z</time></trkpt><trkpt lat="44.1797167" lon="6.7489617"><ele>1218.0</ele><time>2026-05-03T11:24:25.274Z</time></trkpt><trkpt lat="44.1798733" lon="6.749015"><ele>1218.0</ele><time>2026-05-03T11:24:26.274Z</time></trkpt><trkpt lat="44.180025" lon="6.7490433"><ele>1216.6666666666667</ele><time>2026-05-03T11:24:27.274Z</time></trkpt><trkpt lat="44.1801833" lon="6.7490283"><ele>1215.3333333333335</ele><time>2026-05-03T11:24:28.274Z</time></trkpt><trkpt lat="44.1803367" lon="6.7489733"><ele>1214.0</ele><time>2026-05-03T11:24:29.274Z</time></trkpt><trkpt lat="44.1804967" lon="6.7489167"><ele>1214.0</ele><time>2026-05-03T11:24:30.274Z</time></trkpt><trkpt lat="44.1806483" lon="6.74885"><ele>1214.0</ele><time>2026-05-03T11:24:31.274Z</time></trkpt><trkpt lat="44.1807933" lon="6.7487683"><ele>1214.0</ele><time>2026-05-03T11:24:32.275Z</time></trkpt><trkpt lat="44.1809467" lon="6.7486833"><ele>1213.0</ele><time>2026-05-03T11:24:33.275Z</time></trkpt><trkpt lat="44.1811067" lon="6.7485833"><ele>1212.0</ele><time>2026-05-03T11:24:34.274Z</time></trkpt><trkpt lat="44.1812667" lon="6.74853"><ele>1211.0</ele><time>2026-05-03T11:24:35.274Z</time></trkpt><trkpt lat="44.1814" lon="6.7484267"><ele>1217.0</ele><time>2026-05-03T11:24:36.274Z</time></trkpt><trkpt lat="44.1815067" lon="6.74832"><ele>1223.0</ele><time>2026-05-03T11:24:37.274Z</time></trkpt><trkpt lat="44.1816133" lon="6.74823"><ele>1229.0</ele><time>2026-05-03T11:24:38.275Z</time></trkpt><trkpt lat="44.18173" lon="6.7481683"><ele>1235.0</ele><time>2026-05-03T11:24:39.274Z</time></trkpt><trkpt lat="44.1818533" lon="6.7481333"><ele>1235.0</ele><time>2026-05-03T11:24:40.274Z</time></trkpt><trkpt lat="44.1819917" lon="6.7481583"><ele>1235.0</ele><time>2026-05-03T11:24:41.274Z</time></trkpt><trkpt lat="44.1821233" lon="6.748225"><ele>1235.0</ele><time>2026-05-03T11:24:42.274Z</time></trkpt><trkpt lat="44.1822533" lon="6.7483283"><ele>1235.0</ele><time>2026-05-03T11:24:43.274Z</time></trkpt><trkpt lat="44.18238" lon="6.748435"><ele>1238.0</ele><time>2026-05-03T11:24:44.275Z</time></trkpt><trkpt lat="44.1825167" lon="6.7485367"><ele>1241.0</ele><time>2026-05-03T11:24:45.274Z</time></trkpt><trkpt lat="44.1826517" lon="6.7486283"><ele>1244.0</ele><time>2026-05-03T11:24:46.274Z</time></trkpt><trkpt lat="44.1827883" lon="6.74873"><ele>1240.3333333333335</ele><time>2026-05-03T11:24:47.274Z</time></trkpt><trkpt lat="44.182925" lon="6.7488283"><ele>1236.6666666666667</ele><time>2026-05-03T11:24:48.274Z</time></trkpt><trkpt lat="44.183065" lon="6.7489133"><ele>1233.0</ele><time>2026-05-03T11:24:49.274Z</time></trkpt><trkpt lat="44.1832117" lon="6.748975"><ele>1233.0</ele><time>2026-05-03T11:24:50.274Z</time></trkpt><trkpt lat="44.1833583" lon="6.7490233"><ele>1233.0</ele><time>2026-05-03T11:24:51.274Z</time></trkpt><trkpt lat="44.1835083" lon="6.7490533"><ele>1233.0</ele><time>2026-05-03T11:24:52.274Z</time></trkpt><trkpt lat="44.1836683" lon="6.7490717"><ele>1233.0</ele><time>2026-05-03T11:24:53.274Z</time></trkpt><trkpt lat="44.1838267" lon="6.749075"><ele>1233.0</ele><time>2026-05-03T11:24:54.275Z</time></trkpt><trkpt lat="44.1839967" lon="6.7490667"><ele>1233.0</ele><time>2026-05-03T11:24:55.274Z</time></trkpt><trkpt lat="44.1841617" lon="6.74904"><ele>1233.6666666666667</ele><time>2026-05-03T11:24:56.274Z</time></trkpt><trkpt lat="44.18432" lon="6.7490033"><ele>1234.3333333333335</ele><time>2026-05-03T11:24:57.274Z</time></trkpt><trkpt lat="44.1844817" lon="6.7489483"><ele>1235.0</ele><time>2026-05-03T11:24:58.274Z</time></trkpt><trkpt lat="44.1846433" lon="6.7488733"><ele>1235.0</ele><time>2026-05-03T11:24:59.275Z</time></trkpt><trkpt lat="44.1848067" lon="6.748805"><ele>1235.0</ele><time>2026-05-03T11:25:00.274Z</time></trkpt><trkpt lat="44.1849683" lon="6.74874"><ele>1235.0</ele><time>2026-05-03T11:25:01.274Z</time></trkpt><trkpt lat="44.1851233" lon="6.7486783"><ele>1234.6666666666667</ele><time>2026-05-03T11:25:02.275Z</time></trkpt><trkpt lat="44.1852783" lon="6.7486083"><ele>1234.3333333333333</ele><time>2026-05-03T11:25:03.275Z</time></trkpt><trkpt lat="44.1854317" lon="6.7485417"><ele>1234.0</ele><time>2026-05-03T11:25:04.274Z</time></trkpt><trkpt lat="44.185585" lon="6.7484667"><ele>1239.6666666666665</ele><time>2026-05-03T11:25:05.274Z</time></trkpt><trkpt lat="44.18574" lon="6.748405"><ele>1245.3333333333333</ele><time>2026-05-03T11:25:06.274Z</time></trkpt><trkpt lat="44.1858733" lon="6.7483367"><ele>1251.0</ele><time>2026-05-03T11:25:07.274Z</time></trkpt><trkpt lat="44.1860133" lon="6.748275"><ele>1251.0</ele><time>2026-05-03T11:25:08.274Z</time></trkpt><trkpt lat="44.1861333" lon="6.7482117"><ele>1251.0</ele><time>2026-05-03T11:25:09.274Z</time></trkpt><trkpt lat="44.1862533" lon="6.748155"><ele>1251.0</ele><time>2026-05-03T11:25:10.275Z</time></trkpt><trkpt lat="44.186365" lon="6.7481017"><ele>1251.0</ele><time>2026-05-03T11:25:11.274Z</time></trkpt><trkpt lat="44.1864717" lon="6.7480467"><ele>1251.0</ele><time>2026-05-03T11:25:12.274Z</time></trkpt><trkpt lat="44.18657" lon="6.7479817"><ele>1251.0</ele><time>2026-05-03T11:25:13.274Z</time></trkpt><trkpt lat="44.186675" lon="6.7479183"><ele>1251.0</ele><time>2026-05-03T11:25:14.275Z</time></trkpt><trkpt lat="44.1867617" lon="6.74785"><ele>1251.0</ele><time>2026-05-03T11:25:15.274Z</time></trkpt><trkpt lat="44.1868583" lon="6.7478067"><ele>1251.0</ele><time>2026-05-03T11:25:16.274Z</time></trkpt><trkpt lat="44.1869783" lon="6.747785"><ele>1251.0</ele><time>2026-05-03T11:25:17.274Z</time></trkpt><trkpt lat="44.1870817" lon="6.74777"><ele>1251.0</ele><time>2026-05-03T11:25:18.274Z</time></trkpt><trkpt lat="44.1871867" lon="6.7477817"><ele>1251.0</ele><time>2026-05-03T11:25:19.274Z</time></trkpt><trkpt lat="44.187285" lon="6.74783"><ele>1251.0</ele><time>2026-05-03T11:25:20.274Z</time></trkpt><trkpt lat="44.187385" lon="6.7478983"><ele>1251.0</ele><time>2026-05-03T11:25:21.274Z</time></trkpt><trkpt lat="44.187475" lon="6.747975"><ele>1251.6666666666667</ele><time>2026-05-03T11:25:22.274Z</time></trkpt><trkpt lat="44.18755" lon="6.748055"><ele>1252.3333333333333</ele><time>2026-05-03T11:25:23.274Z</time></trkpt><trkpt lat="44.187625" lon="6.7481233"><ele>1253.0</ele><time>2026-05-03T11:25:24.274Z</time></trkpt><trkpt lat="44.187685" lon="6.74819"><ele>1253.6666666666665</ele><time>2026-05-03T11:25:25.274Z</time></trkpt><trkpt lat="44.187745" lon="6.748255"><ele>1254.3333333333333</ele><time>2026-05-03T11:25:26.274Z</time></trkpt><trkpt lat="44.1877933" lon="6.7483167"><ele>1255.0</ele><time>2026-05-03T11:25:27.275Z</time></trkpt><trkpt lat="44.1879083" lon="6.7483983"><ele>1255.0</ele><time>2026-05-03T11:25:29.274Z</time></trkpt><trkpt lat="44.18798" lon="6.7484433"><ele>1255.0</ele><time>2026-05-03T11:25:30.274Z</time></trkpt><trkpt lat="44.1880567" lon="6.74848"><ele>1255.0</ele><time>2026-05-03T11:25:31.274Z</time></trkpt><trkpt lat="44.188145" lon="6.748515"><ele>1255.0</ele><time>2026-05-03T11:25:32.274Z</time></trkpt><trkpt lat="44.1882367" lon="6.7485433"><ele>1255.0</ele><time>2026-05-03T11:25:33.275Z</time></trkpt><trkpt lat="44.1883183" lon="6.748585"><ele>1255.0</ele><time>2026-05-03T11:25:34.274Z</time></trkpt><trkpt lat="44.188395" lon="6.74862"><ele>1256.5</ele><time>2026-05-03T11:25:35.274Z</time></trkpt><trkpt lat="44.1884667" lon="6.7486567"><ele>1258.0</ele><time>2026-05-03T11:25:36.274Z</time></trkpt><trkpt lat="44.188535" lon="6.7486883"><ele>1259.5</ele><time>2026-05-03T11:25:37.274Z</time></trkpt><trkpt lat="44.1886183" lon="6.7487067"><ele>1261.0</ele><time>2026-05-03T11:25:38.275Z</time></trkpt><trkpt lat="44.1887033" lon="6.74874"><ele>1262.5</ele><time>2026-05-03T11:25:39.275Z</time></trkpt><trkpt lat="44.1887967" lon="6.7487917"><ele>1264.0</ele><time>2026-05-03T11:25:40.274Z</time></trkpt><trkpt lat="44.1888983" lon="6.7488633"><ele>1264.6000000000001</ele><time>2026-05-03T11:25:41.274Z</time></trkpt><trkpt lat="44.18901" lon="6.7489233"><ele>1265.2</ele><time>2026-05-03T11:25:42.274Z</time></trkpt><trkpt lat="44.189115" lon="6.7489833"><ele>1265.8000000000002</ele><time>2026-05-03T11:25:43.274Z</time></trkpt><trkpt lat="44.189215" lon="6.7490367"><ele>1266.4</ele><time>2026-05-03T11:25:44.274Z</time></trkpt><trkpt lat="44.1893133" lon="6.7490783"><ele>1267.0</ele><time>2026-05-03T11:25:45.274Z</time></trkpt><trkpt lat="44.1894117" lon="6.7491083"><ele>1267.0</ele><time>2026-05-03T11:25:46.275Z</time></trkpt><trkpt lat="44.18952" lon="6.7491317"><ele>1267.0</ele><time>2026-05-03T11:25:47.274Z</time></trkpt><trkpt lat="44.18964" lon="6.74913"><ele>1267.0</ele><time>2026-05-03T11:25:48.274Z</time></trkpt><trkpt lat="44.18976" lon="6.7490983"><ele>1267.0</ele><time>2026-05-03T11:25:49.274Z</time></trkpt><trkpt lat="44.1898667" lon="6.749045"><ele>1271.0</ele><time>2026-05-03T11:25:50.274Z</time></trkpt><trkpt lat="44.1899883" lon="6.7489933"><ele>1275.0</ele><time>2026-05-03T11:25:51.274Z</time></trkpt><trkpt lat="44.1900933" lon="6.7489183"><ele>1279.0</ele><time>2026-05-03T11:25:52.274Z</time></trkpt><trkpt lat="44.1902017" lon="6.748835"><ele>1283.0</ele><time>2026-05-03T11:25:53.274Z</time></trkpt><trkpt lat="44.19032" lon="6.7487467"><ele>1283.0</ele><time>2026-05-03T11:25:54.274Z</time></trkpt><trkpt lat="44.1904517" lon="6.748665"><ele>1283.0</ele><time>2026-05-03T11:25:55.274Z</time></trkpt><trkpt lat="44.1905817" lon="6.74858"><ele>1283.0</ele><time>2026-05-03T11:25:56.274Z</time></trkpt><trkpt lat="44.1907133" lon="6.74851"><ele>1283.0</ele><time>2026-05-03T11:25:57.274Z</time></trkpt><trkpt lat="44.1908183" lon="6.7484317"><ele>1282.75</ele><time>2026-05-03T11:25:58.274Z</time></trkpt><trkpt lat="44.1909233" lon="6.748345"><ele>1282.5</ele><time>2026-05-03T11:25:59.275Z</time></trkpt><trkpt lat="44.1910267" lon="6.7482517"><ele>1282.25</ele><time>2026-05-03T11:26:00.274Z</time></trkpt><trkpt lat="44.1911267" lon="6.7481383"><ele>1282.0</ele><time>2026-05-03T11:26:01.274Z</time></trkpt><trkpt lat="44.1912083" lon="6.748035"><ele>1282.0</ele><time>2026-05-03T11:26:02.275Z</time></trkpt><trkpt lat="44.19131" lon="6.74794"><ele>1282.0</ele><time>2026-05-03T11:26:03.274Z</time></trkpt><trkpt lat="44.1914083" lon="6.7478367"><ele>1282.0</ele><time>2026-05-03T11:26:04.274Z</time></trkpt><trkpt lat="44.191495" lon="6.7477217"><ele>1282.0</ele><time>2026-05-03T11:26:05.274Z</time></trkpt><trkpt lat="44.19158" lon="6.747615"><ele>1282.1999999999998</ele><time>2026-05-03T11:26:06.274Z</time></trkpt><trkpt lat="44.1916717" lon="6.7475467"><ele>1282.4</ele><time>2026-05-03T11:26:07.274Z</time></trkpt><trkpt lat="44.1917617" lon="6.7474967"><ele>1282.6</ele><time>2026-05-03T11:26:08.274Z</time></trkpt><trkpt lat="44.1918767" lon="6.74748"><ele>1282.8000000000002</ele><time>2026-05-03T11:26:09.274Z</time></trkpt><trkpt lat="44.191975" lon="6.7474883"><ele>1283.0</ele><time>2026-05-03T11:26:10.274Z</time></trkpt><trkpt lat="44.192105" lon="6.7475133"><ele>1283.0</ele><time>2026-05-03T11:26:11.274Z</time></trkpt><trkpt lat="44.192235" lon="6.7475317"><ele>1283.0</ele><time>2026-05-03T11:26:12.274Z</time></trkpt><trkpt lat="44.1923667" lon="6.7475367"><ele>1283.0</ele><time>2026-05-03T11:26:13.274Z</time></trkpt><trkpt lat="44.1924633" lon="6.747535"><ele>1283.0</ele><time>2026-05-03T11:26:14.274Z</time></trkpt><trkpt lat="44.1925783" lon="6.7475417"><ele>1285.0</ele><time>2026-05-03T11:26:15.274Z</time></trkpt><trkpt lat="44.19268" lon="6.7475117"><ele>1287.0</ele><time>2026-05-03T11:26:16.274Z</time></trkpt><trkpt lat="44.1927667" lon="6.7474533"><ele>1289.0</ele><time>2026-05-03T11:26:17.274Z</time></trkpt><trkpt lat="44.192835" lon="6.7473633"><ele>1291.0</ele><time>2026-05-03T11:26:18.274Z</time></trkpt><trkpt lat="44.192885" lon="6.747265"><ele>1293.0</ele><time>2026-05-03T11:26:19.274Z</time></trkpt><trkpt lat="44.1929367" lon="6.747165"><ele>1293.0</ele><time>2026-05-03T11:26:20.274Z</time></trkpt><trkpt lat="44.1929917" lon="6.7470767"><ele>1293.0</ele><time>2026-05-03T11:26:21.275Z</time></trkpt><trkpt lat="44.1930483" lon="6.7470083"><ele>1293.0</ele><time>2026-05-03T11:26:22.275Z</time></trkpt><trkpt lat="44.193115" lon="6.7469383"><ele>1293.0</ele><time>2026-05-03T11:26:23.274Z</time></trkpt><trkpt lat="44.193195" lon="6.7468667"><ele>1293.0</ele><time>2026-05-03T11:26:24.274Z</time></trkpt><trkpt lat="44.1932783" lon="6.746805"><ele>1293.0</ele><time>2026-05-03T11:26:25.274Z</time></trkpt><trkpt lat="44.193375" lon="6.746755"><ele>1294.75</ele><time>2026-05-03T11:26:26.274Z</time></trkpt><trkpt lat="44.1934883" lon="6.746705"><ele>1296.5</ele><time>2026-05-03T11:26:27.274Z</time></trkpt><trkpt lat="44.1936183" lon="6.7466383"><ele>1298.25</ele><time>2026-05-03T11:26:28.275Z</time></trkpt><trkpt lat="44.1937533" lon="6.74655"><ele>1300.0</ele><time>2026-05-03T11:26:29.275Z</time></trkpt><trkpt lat="44.193865" lon="6.7464633"><ele>1300.0</ele><time>2026-05-03T11:26:30.274Z</time></trkpt><trkpt lat="44.1939733" lon="6.74641"><ele>1300.0</ele><time>2026-05-03T11:26:31.274Z</time></trkpt><trkpt lat="44.1940717" lon="6.7463883"><ele>1300.0</ele><time>2026-05-03T11:26:32.274Z</time></trkpt><trkpt lat="44.1941967" lon="6.7464"><ele>1300.0</ele><time>2026-05-03T11:26:33.274Z</time></trkpt><trkpt lat="44.1943167" lon="6.7464233"><ele>1305.25</ele><time>2026-05-03T11:26:34.274Z</time></trkpt><trkpt lat="44.1944417" lon="6.7464267"><ele>1310.5</ele><time>2026-05-03T11:26:35.274Z</time></trkpt><trkpt lat="44.1945567" lon="6.74639"><ele>1315.75</ele><time>2026-05-03T11:26:36.274Z</time></trkpt><trkpt lat="44.1946733" lon="6.74633"><ele>1321.0</ele><time>2026-05-03T11:26:37.274Z</time></trkpt><trkpt lat="44.1947717" lon="6.7462833"><ele>1323.4</ele><time>2026-05-03T11:26:38.274Z</time></trkpt><trkpt lat="44.194895" lon="6.74629"><ele>1325.8</ele><time>2026-05-03T11:26:39.275Z</time></trkpt><trkpt lat="44.194985" lon="6.7463433"><ele>1328.2</ele><time>2026-05-03T11:26:40.274Z</time></trkpt><trkpt lat="44.1950583" lon="6.7464233"><ele>1330.6000000000001</ele><time>2026-05-03T11:26:41.275Z</time></trkpt><trkpt lat="44.1951133" lon="6.74653"><ele>1333.0</ele><time>2026-05-03T11:26:42.274Z</time></trkpt><trkpt lat="44.1951683" lon="6.746615"><ele>1333.0</ele><time>2026-05-03T11:26:43.274Z</time></trkpt><trkpt lat="44.1952317" lon="6.7466517"><ele>1333.0</ele><time>2026-05-03T11:26:44.274Z</time></trkpt><trkpt lat="44.1953017" lon="6.7466367"><ele>1333.0</ele><time>2026-05-03T11:26:45.275Z</time></trkpt><trkpt lat="44.1953567" lon="6.7465683"><ele>1333.0</ele><time>2026-05-03T11:26:46.274Z</time></trkpt><trkpt lat="44.1953933" lon="6.7464383"><ele>1333.0</ele><time>2026-05-03T11:26:47.274Z</time></trkpt><trkpt lat="44.1954217" lon="6.7462467"><ele>1333.0</ele><time>2026-05-03T11:26:48.274Z</time></trkpt><trkpt lat="44.1954617" lon="6.7460667"><ele>1333.0</ele><time>2026-05-03T11:26:49.274Z</time></trkpt><trkpt lat="44.195515" lon="6.7459333"><ele>1333.0</ele><time>2026-05-03T11:26:50.274Z</time></trkpt><trkpt lat="44.1955683" lon="6.74586"><ele>1333.0</ele><time>2026-05-03T11:26:51.274Z</time></trkpt><trkpt lat="44.1956433" lon="6.7458433"><ele>1333.0</ele><time>2026-05-03T11:26:52.274Z</time></trkpt><trkpt lat="44.19573" lon="6.7458717"><ele>1330.25</ele><time>2026-05-03T11:26:53.274Z</time></trkpt><trkpt lat="44.195825" lon="6.7459483"><ele>1327.5</ele><time>2026-05-03T11:26:54.274Z</time></trkpt><trkpt lat="44.19593" lon="6.7460567"><ele>1324.75</ele><time>2026-05-03T11:26:55.275Z</time></trkpt><trkpt lat="44.1960317" lon="6.7461867"><ele>1322.0</ele><time>2026-05-03T11:26:56.274Z</time></trkpt><trkpt lat="44.1961283" lon="6.7462883"><ele>1326.0</ele><time>2026-05-03T11:26:57.274Z</time></trkpt><trkpt lat="44.1962233" lon="6.7463733"><ele>1330.0</ele><time>2026-05-03T11:26:58.274Z</time></trkpt><trkpt lat="44.1963217" lon="6.7464367"><ele>1334.0</ele><time>2026-05-03T11:26:59.274Z</time></trkpt><trkpt lat="44.1964" lon="6.7464967"><ele>1338.0</ele><time>2026-05-03T11:27:00.274Z</time></trkpt><trkpt lat="44.1964367" lon="6.7465717"><ele>1342.0</ele><time>2026-05-03T11:27:01.274Z</time></trkpt><trkpt lat="44.19643" lon="6.7466683"><ele>1346.0</ele><time>2026-05-03T11:27:03.274Z</time></trkpt><trkpt lat="44.1963233" lon="6.7466233"><ele>1346.0</ele><time>2026-05-03T11:27:05.274Z</time></trkpt><trkpt lat="44.1962217" lon="6.7465317"><ele>1346.0</ele><time>2026-05-03T11:27:06.274Z</time></trkpt><trkpt lat="44.1961067" lon="6.7464383"><ele>1346.0</ele><time>2026-05-03T11:27:07.274Z</time></trkpt><trkpt lat="44.1960167" lon="6.7463617"><ele>1346.0</ele><time>2026-05-03T11:27:08.274Z</time></trkpt><trkpt lat="44.1959217" lon="6.7462917"><ele>1346.0</ele><time>2026-05-03T11:27:09.274Z</time></trkpt><trkpt lat="44.1958183" lon="6.7462267"><ele>1346.0</ele><time>2026-05-03T11:27:10.275Z</time></trkpt><trkpt lat="44.19573" lon="6.7461917"><ele>1346.0</ele><time>2026-05-03T11:27:11.274Z</time></trkpt><trkpt lat="44.1956467" lon="6.7462267"><ele>1346.0</ele><time>2026-05-03T11:27:12.274Z</time></trkpt><trkpt lat="44.195575" lon="6.7463267"><ele>1346.0</ele><time>2026-05-03T11:27:13.275Z</time></trkpt><trkpt lat="44.1955217" lon="6.7464817"><ele>1349.0</ele><time>2026-05-03T11:27:14.274Z</time></trkpt><trkpt lat="44.1955167" lon="6.7466517"><ele>1352.0</ele><time>2026-05-03T11:27:15.274Z</time></trkpt><trkpt lat="44.1955317" lon="6.7468333"><ele>1355.0</ele><time>2026-05-03T11:27:16.274Z</time></trkpt><trkpt lat="44.19555" lon="6.7469983"><ele>1358.0</ele><time>2026-05-03T11:27:17.274Z</time></trkpt><trkpt lat="44.1955633" lon="6.7471533"><ele>1358.0</ele><time>2026-05-03T11:27:18.274Z</time></trkpt><trkpt lat="44.1955733" lon="6.74731"><ele>1358.0</ele><time>2026-05-03T11:27:19.274Z</time></trkpt><trkpt lat="44.195565" lon="6.7474583"><ele>1358.0</ele><time>2026-05-03T11:27:20.274Z</time></trkpt><trkpt lat="44.1955267" lon="6.7475817"><ele>1358.0</ele><time>2026-05-03T11:27:21.274Z</time></trkpt><trkpt lat="44.1954717" lon="6.7476617"><ele>1358.0</ele><time>2026-05-03T11:27:22.274Z</time></trkpt><trkpt lat="44.1953967" lon="6.74769"><ele>1358.0</ele><time>2026-05-03T11:27:23.275Z</time></trkpt><trkpt lat="44.1953017" lon="6.7476983"><ele>1358.0</ele><time>2026-05-03T11:27:24.274Z</time></trkpt><trkpt lat="44.1951867" lon="6.7476567"><ele>1358.0</ele><time>2026-05-03T11:27:25.274Z</time></trkpt><trkpt lat="44.195055" lon="6.7476083"><ele>1358.0</ele><time>2026-05-03T11:27:26.274Z</time></trkpt><trkpt lat="44.1949367" lon="6.7475817"><ele>1357.25</ele><time>2026-05-03T11:27:27.275Z</time></trkpt><trkpt lat="44.19482" lon="6.74758"><ele>1356.5</ele><time>2026-05-03T11:27:28.274Z</time></trkpt><trkpt lat="44.194705" lon="6.7476217"><ele>1355.75</ele><time>2026-05-03T11:27:29.274Z</time></trkpt><trkpt lat="44.1946017" lon="6.7476933"><ele>1355.0</ele><time>2026-05-03T11:27:30.274Z</time></trkpt><trkpt lat="44.1944933" lon="6.7477683"><ele>1357.6</ele><time>2026-05-03T11:27:31.274Z</time></trkpt><trkpt lat="44.1943817" lon="6.7478433"><ele>1360.2</ele><time>2026-05-03T11:27:32.274Z</time></trkpt><trkpt lat="44.1942717" lon="6.7479033"><ele>1362.8000000000002</ele><time>2026-05-03T11:27:33.274Z</time></trkpt><trkpt lat="44.19417" lon="6.74796"><ele>1365.4</ele><time>2026-05-03T11:27:34.275Z</time></trkpt><trkpt lat="44.1940833" lon="6.748"><ele>1368.0</ele><time>2026-05-03T11:27:35.274Z</time></trkpt><trkpt lat="44.1940067" lon="6.7480567"><ele>1368.0</ele><time>2026-05-03T11:27:36.274Z</time></trkpt><trkpt lat="44.1939483" lon="6.7481233"><ele>1368.0</ele><time>2026-05-03T11:27:37.274Z</time></trkpt><trkpt lat="44.193925" lon="6.748215"><ele>1368.0</ele><time>2026-05-03T11:27:38.275Z</time></trkpt><trkpt lat="44.193935" lon="6.74831"><ele>1368.0</ele><time>2026-05-03T11:27:39.274Z</time></trkpt><trkpt lat="44.1939883" lon="6.7483733"><ele>1368.0</ele><time>2026-05-03T11:27:40.274Z</time></trkpt><trkpt lat="44.1940667" lon="6.7483867"><ele>1368.0</ele><time>2026-05-03T11:27:41.274Z</time></trkpt><trkpt lat="44.1941767" lon="6.748335"><ele>1368.0</ele><time>2026-05-03T11:27:42.274Z</time></trkpt><trkpt lat="44.1943083" lon="6.7482367"><ele>1368.0</ele><time>2026-05-03T11:27:43.274Z</time></trkpt><trkpt lat="44.1944367" lon="6.7481417"><ele>1368.0</ele><time>2026-05-03T11:27:44.274Z</time></trkpt><trkpt lat="44.1945483" lon="6.7480683"><ele>1368.0</ele><time>2026-05-03T11:27:45.274Z</time></trkpt><trkpt lat="44.19464" lon="6.7480383"><ele>1368.0</ele><time>2026-05-03T11:27:46.274Z</time></trkpt><trkpt lat="44.1947367" lon="6.748055"><ele>1368.0</ele><time>2026-05-03T11:27:47.274Z</time></trkpt><trkpt lat="44.1948233" lon="6.7481283"><ele>1368.0</ele><time>2026-05-03T11:27:48.275Z</time></trkpt><trkpt lat="44.1948917" lon="6.748245"><ele>1368.0</ele><time>2026-05-03T11:27:49.274Z</time></trkpt><trkpt lat="44.1949333" lon="6.7483917"><ele>1368.0</ele><time>2026-05-03T11:27:50.274Z</time></trkpt><trkpt lat="44.1949567" lon="6.7485517"><ele>1373.75</ele><time>2026-05-03T11:27:51.274Z</time></trkpt><trkpt lat="44.19495" lon="6.74872"><ele>1379.5</ele><time>2026-05-03T11:27:52.274Z</time></trkpt><trkpt lat="44.1949317" lon="6.7488883"><ele>1385.25</ele><time>2026-05-03T11:27:53.274Z</time></trkpt><trkpt lat="44.19493" lon="6.7490633"><ele>1391.0</ele><time>2026-05-03T11:27:54.274Z</time></trkpt><trkpt lat="44.1949367" lon="6.7492317"><ele>1394.0</ele><time>2026-05-03T11:27:55.274Z</time></trkpt><trkpt lat="44.1949733" lon="6.7493833"><ele>1397.0</ele><time>2026-05-03T11:27:56.274Z</time></trkpt><trkpt lat="44.1950483" lon="6.74948"><ele>1400.0</ele><time>2026-05-03T11:27:57.274Z</time></trkpt><trkpt lat="44.1951217" lon="6.7495367"><ele>1403.0</ele><time>2026-05-03T11:27:58.275Z</time></trkpt><trkpt lat="44.195205" lon="6.7495267"><ele>1406.0</ele><time>2026-05-03T11:27:59.274Z</time></trkpt><trkpt lat="44.19531" lon="6.7494717"><ele>1406.0</ele><time>2026-05-03T11:28:00.274Z</time></trkpt><trkpt lat="44.1954233" lon="6.7493767"><ele>1406.0</ele><time>2026-05-03T11:28:01.274Z</time></trkpt><trkpt lat="44.195525" lon="6.74923"><ele>1406.0</ele><time>2026-05-03T11:28:02.274Z</time></trkpt><trkpt lat="44.1955917" lon="6.7490717"><ele>1406.0</ele><time>2026-05-03T11:28:03.274Z</time></trkpt><trkpt lat="44.1956583" lon="6.7489383"><ele>1404.0</ele><time>2026-05-03T11:28:04.275Z</time></trkpt><trkpt lat="44.1957383" lon="6.7488233"><ele>1402.0</ele><time>2026-05-03T11:28:05.275Z</time></trkpt><trkpt lat="44.1958167" lon="6.7487167"><ele>1400.0</ele><time>2026-05-03T11:28:06.274Z</time></trkpt><trkpt lat="44.1959067" lon="6.74861"><ele>1398.0</ele><time>2026-05-03T11:28:07.274Z</time></trkpt><trkpt lat="44.1959967" lon="6.7485"><ele>1395.3333333333333</ele><time>2026-05-03T11:28:08.274Z</time></trkpt><trkpt lat="44.196065" lon="6.7484117"><ele>1392.6666666666667</ele><time>2026-05-03T11:28:09.274Z</time></trkpt><trkpt lat="44.19613" lon="6.7483483"><ele>1390.0</ele><time>2026-05-03T11:28:10.274Z</time></trkpt><trkpt lat="44.1961967" lon="6.7483217"><ele>1387.3333333333335</ele><time>2026-05-03T11:28:11.274Z</time></trkpt><trkpt lat="44.1962633" lon="6.74833"><ele>1384.6666666666667</ele><time>2026-05-03T11:28:12.274Z</time></trkpt><trkpt lat="44.19634" lon="6.7483917"><ele>1382.0</ele><time>2026-05-03T11:28:13.274Z</time></trkpt><trkpt lat="44.1964033" lon="6.7485083"><ele>1385.1999999999998</ele><time>2026-05-03T11:28:14.274Z</time></trkpt><trkpt lat="44.1964483" lon="6.7486533"><ele>1388.4</ele><time>2026-05-03T11:28:15.274Z</time></trkpt><trkpt lat="44.19649" lon="6.748795"><ele>1391.6</ele><time>2026-05-03T11:28:16.274Z</time></trkpt><trkpt lat="44.1965383" lon="6.7489183"><ele>1394.8000000000002</ele><time>2026-05-03T11:28:17.274Z</time></trkpt><trkpt lat="44.1965883" lon="6.7490267"><ele>1398.0</ele><time>2026-05-03T11:28:18.274Z</time></trkpt><trkpt lat="44.1966333" lon="6.7491283"><ele>1399.6666666666667</ele><time>2026-05-03T11:28:19.274Z</time></trkpt><trkpt lat="44.1966867" lon="6.7492233"><ele>1401.3333333333333</ele><time>2026-05-03T11:28:20.274Z</time></trkpt><trkpt lat="44.1967483" lon="6.7492917"><ele>1403.0</ele><time>2026-05-03T11:28:21.274Z</time></trkpt><trkpt lat="44.1968183" lon="6.7493217"><ele>1404.6666666666665</ele><time>2026-05-03T11:28:22.275Z</time></trkpt><trkpt lat="44.1968917" lon="6.7493067"><ele>1406.3333333333333</ele><time>2026-05-03T11:28:23.274Z</time></trkpt><trkpt lat="44.196975" lon="6.7492517"><ele>1408.0</ele><time>2026-05-03T11:28:24.274Z</time></trkpt><trkpt lat="44.1970617" lon="6.74918"><ele>1408.0</ele><time>2026-05-03T11:28:25.274Z</time></trkpt><trkpt lat="44.1971533" lon="6.7491183"><ele>1408.0</ele><time>2026-05-03T11:28:26.274Z</time></trkpt><trkpt lat="44.1972383" lon="6.7490617"><ele>1408.0</ele><time>2026-05-03T11:28:27.274Z</time></trkpt><trkpt lat="44.197315" lon="6.749005"><ele>1408.0</ele><time>2026-05-03T11:28:28.274Z</time></trkpt><trkpt lat="44.1973867" lon="6.7489267"><ele>1408.0</ele><time>2026-05-03T11:28:29.274Z</time></trkpt><trkpt lat="44.1974517" lon="6.748815"><ele>1410.8000000000002</ele><time>2026-05-03T11:28:30.274Z</time></trkpt><trkpt lat="44.1975117" lon="6.748705"><ele>1413.6</ele><time>2026-05-03T11:28:31.275Z</time></trkpt><trkpt lat="44.19758" lon="6.7486183"><ele>1416.4</ele><time>2026-05-03T11:28:32.274Z</time></trkpt><trkpt lat="44.1976567" lon="6.748585"><ele>1419.1999999999998</ele><time>2026-05-03T11:28:33.274Z</time></trkpt><trkpt lat="44.1977433" lon="6.7486"><ele>1422.0</ele><time>2026-05-03T11:28:34.275Z</time></trkpt><trkpt lat="44.1978367" lon="6.748665"><ele>1422.0</ele><time>2026-05-03T11:28:35.275Z</time></trkpt><trkpt lat="44.1979217" lon="6.74877"><ele>1422.0</ele><time>2026-05-03T11:28:36.274Z</time></trkpt><trkpt lat="44.1979867" lon="6.7488833"><ele>1422.0</ele><time>2026-05-03T11:28:37.274Z</time></trkpt><trkpt lat="44.19805" lon="6.7489967"><ele>1422.0</ele><time>2026-05-03T11:28:38.274Z</time></trkpt><trkpt lat="44.1981033" lon="6.7491183"><ele>1422.0</ele><time>2026-05-03T11:28:39.274Z</time></trkpt><trkpt lat="44.198165" lon="6.7492233"><ele>1423.0</ele><time>2026-05-03T11:28:40.275Z</time></trkpt><trkpt lat="44.198225" lon="6.749315"><ele>1424.0</ele><time>2026-05-03T11:28:41.274Z</time></trkpt><trkpt lat="44.1982917" lon="6.74938"><ele>1425.0</ele><time>2026-05-03T11:28:42.275Z</time></trkpt><trkpt lat="44.1983583" lon="6.7494083"><ele>1426.0</ele><time>2026-05-03T11:28:43.274Z</time></trkpt><trkpt lat="44.19843" lon="6.749375"><ele>1427.0</ele><time>2026-05-03T11:28:44.274Z</time></trkpt><trkpt lat="44.1984933" lon="6.7493"><ele>1428.0</ele><time>2026-05-03T11:28:45.274Z</time></trkpt><trkpt lat="44.1985267" lon="6.7491817"><ele>1428.0</ele><time>2026-05-03T11:28:46.274Z</time></trkpt><trkpt lat="44.1985433" lon="6.7490267"><ele>1428.0</ele><time>2026-05-03T11:28:47.274Z</time></trkpt><trkpt lat="44.1985717" lon="6.7488783"><ele>1428.0</ele><time>2026-05-03T11:28:48.274Z</time></trkpt><trkpt lat="44.198615" lon="6.7487533"><ele>1428.0</ele><time>2026-05-03T11:28:49.274Z</time></trkpt><trkpt lat="44.1986633" lon="6.7486267"><ele>1428.0</ele><time>2026-05-03T11:28:50.274Z</time></trkpt><trkpt lat="44.1987183" lon="6.7485167"><ele>1430.0</ele><time>2026-05-03T11:28:51.275Z</time></trkpt><trkpt lat="44.19879" lon="6.7484317"><ele>1432.0</ele><time>2026-05-03T11:28:52.274Z</time></trkpt><trkpt lat="44.1988717" lon="6.7483667"><ele>1434.0</ele><time>2026-05-03T11:28:53.274Z</time></trkpt><trkpt lat="44.1989683" lon="6.7483483"><ele>1436.0</ele><time>2026-05-03T11:28:54.274Z</time></trkpt><trkpt lat="44.19908" lon="6.7483533"><ele>1438.0</ele><time>2026-05-03T11:28:55.274Z</time></trkpt><trkpt lat="44.1992" lon="6.7483633"><ele>1438.0</ele><time>2026-05-03T11:28:56.274Z</time></trkpt><trkpt lat="44.199315" lon="6.7483633"><ele>1438.0</ele><time>2026-05-03T11:28:57.275Z</time></trkpt><trkpt lat="44.1994367" lon="6.74834"><ele>1438.0</ele><time>2026-05-03T11:28:58.274Z</time></trkpt><trkpt lat="44.1995617" lon="6.7483067"><ele>1438.0</ele><time>2026-05-03T11:28:59.275Z</time></trkpt><trkpt lat="44.1996917" lon="6.7482767"><ele>1438.0</ele><time>2026-05-03T11:29:00.275Z</time></trkpt><trkpt lat="44.1998133" lon="6.748245"><ele>1438.0</ele><time>2026-05-03T11:29:01.274Z</time></trkpt><trkpt lat="44.1999317" lon="6.7482"><ele>1438.0</ele><time>2026-05-03T11:29:02.274Z</time></trkpt><trkpt lat="44.200055" lon="6.7481683"><ele>1438.0</ele><time>2026-05-03T11:29:03.274Z</time></trkpt><trkpt lat="44.20018" lon="6.7481467"><ele>1440.75</ele><time>2026-05-03T11:29:04.273Z</time></trkpt><trkpt lat="44.200305" lon="6.7481267"><ele>1443.5</ele><time>2026-05-03T11:29:05.273Z</time></trkpt><trkpt lat="44.2004417" lon="6.7480883"><ele>1446.25</ele><time>2026-05-03T11:29:06.273Z</time></trkpt><trkpt lat="44.20057" lon="6.7480183"><ele>1449.0</ele><time>2026-05-03T11:29:07.273Z</time></trkpt><trkpt lat="44.200675" lon="6.7479283"><ele>1448.75</ele><time>2026-05-03T11:29:08.273Z</time></trkpt><trkpt lat="44.2007717" lon="6.747815"><ele>1448.5</ele><time>2026-05-03T11:29:09.273Z</time></trkpt><trkpt lat="44.20085" lon="6.7476767"><ele>1448.25</ele><time>2026-05-03T11:29:10.273Z</time></trkpt><trkpt lat="44.200915" lon="6.7475333"><ele>1448.0</ele><time>2026-05-03T11:29:11.273Z</time></trkpt><trkpt lat="44.2009833" lon="6.7474117"><ele>1448.0</ele><time>2026-05-03T11:29:12.273Z</time></trkpt><trkpt lat="44.2010683" lon="6.74733"><ele>1448.0</ele><time>2026-05-03T11:29:13.273Z</time></trkpt><trkpt lat="44.2011683" lon="6.7472917"><ele>1448.0</ele><time>2026-05-03T11:29:14.273Z</time></trkpt><trkpt lat="44.2012733" lon="6.74729"><ele>1448.0</ele><time>2026-05-03T11:29:15.273Z</time></trkpt><trkpt lat="44.2013817" lon="6.7473317"><ele>1448.0</ele><time>2026-05-03T11:29:16.273Z</time></trkpt><trkpt lat="44.2014833" lon="6.7473733"><ele>1451.6000000000001</ele><time>2026-05-03T11:29:17.273Z</time></trkpt><trkpt lat="44.201585" lon="6.7473683"><ele>1455.2</ele><time>2026-05-03T11:29:18.273Z</time></trkpt><trkpt lat="44.20169" lon="6.7473183"><ele>1458.8</ele><time>2026-05-03T11:29:19.273Z</time></trkpt><trkpt lat="44.2017883" lon="6.7472383"><ele>1462.4</ele><time>2026-05-03T11:29:20.273Z</time></trkpt><trkpt lat="44.20188" lon="6.7471517"><ele>1466.0</ele><time>2026-05-03T11:29:21.273Z</time></trkpt><trkpt lat="44.2019567" lon="6.747045"><ele>1466.0</ele><time>2026-05-03T11:29:22.273Z</time></trkpt><trkpt lat="44.2020267" lon="6.746915"><ele>1466.0</ele><time>2026-05-03T11:29:23.273Z</time></trkpt><trkpt lat="44.20209" lon="6.746785"><ele>1466.0</ele><time>2026-05-03T11:29:24.273Z</time></trkpt><trkpt lat="44.2021583" lon="6.7466667"><ele>1466.0</ele><time>2026-05-03T11:29:25.273Z</time></trkpt><trkpt lat="44.202245" lon="6.7465733"><ele>1466.0</ele><time>2026-05-03T11:29:26.273Z</time></trkpt><trkpt lat="44.202345" lon="6.7465217"><ele>1465.75</ele><time>2026-05-03T11:29:27.273Z</time></trkpt><trkpt lat="44.2024567" lon="6.7465167"><ele>1465.5</ele><time>2026-05-03T11:29:28.273Z</time></trkpt><trkpt lat="44.2025717" lon="6.7465533"><ele>1465.25</ele><time>2026-05-03T11:29:29.273Z</time></trkpt><trkpt lat="44.2026967" lon="6.7465983"><ele>1465.0</ele><time>2026-05-03T11:29:30.273Z</time></trkpt><trkpt lat="44.20282" lon="6.74664"><ele>1465.0</ele><time>2026-05-03T11:29:31.273Z</time></trkpt><trkpt lat="44.2029467" lon="6.74668"><ele>1465.0</ele><time>2026-05-03T11:29:32.273Z</time></trkpt><trkpt lat="44.2030717" lon="6.746715"><ele>1465.0</ele><time>2026-05-03T11:29:33.273Z</time></trkpt><trkpt lat="44.2031833" lon="6.7467533"><ele>1465.0</ele><time>2026-05-03T11:29:34.273Z</time></trkpt><trkpt lat="44.203285" lon="6.7467833"><ele>1467.8</ele><time>2026-05-03T11:29:35.273Z</time></trkpt><trkpt lat="44.2033917" lon="6.7467867"><ele>1470.6</ele><time>2026-05-03T11:29:36.273Z</time></trkpt><trkpt lat="44.2035067" lon="6.746785"><ele>1473.4</ele><time>2026-05-03T11:29:37.274Z</time></trkpt><trkpt lat="44.20361" lon="6.7467517"><ele>1476.2</ele><time>2026-05-03T11:29:38.273Z</time></trkpt><trkpt lat="44.2037" lon="6.7466717"><ele>1479.0</ele><time>2026-05-03T11:29:39.273Z</time></trkpt><trkpt lat="44.20378" lon="6.74657"><ele>1479.0</ele><time>2026-05-03T11:29:40.273Z</time></trkpt><trkpt lat="44.20384" lon="6.74644"><ele>1479.0</ele><time>2026-05-03T11:29:41.274Z</time></trkpt><trkpt lat="44.2038867" lon="6.7462917"><ele>1479.0</ele><time>2026-05-03T11:29:42.273Z</time></trkpt><trkpt lat="44.2039167" lon="6.74613"><ele>1479.0</ele><time>2026-05-03T11:29:43.273Z</time></trkpt><trkpt lat="44.2039483" lon="6.74598"><ele>1480.6</ele><time>2026-05-03T11:29:44.273Z</time></trkpt><trkpt lat="44.2039883" lon="6.7458533"><ele>1482.2</ele><time>2026-05-03T11:29:45.274Z</time></trkpt><trkpt lat="44.2040567" lon="6.7457667"><ele>1483.8</ele><time>2026-05-03T11:29:46.273Z</time></trkpt><trkpt lat="44.2041383" lon="6.745725"><ele>1485.3999999999999</ele><time>2026-05-03T11:29:47.273Z</time></trkpt><trkpt lat="44.2042433" lon="6.7457317"><ele>1487.0</ele><time>2026-05-03T11:29:48.273Z</time></trkpt><trkpt lat="44.204335" lon="6.74578"><ele>1487.0</ele><time>2026-05-03T11:29:49.273Z</time></trkpt><trkpt lat="44.2044333" lon="6.745885"><ele>1487.0</ele><time>2026-05-03T11:29:50.273Z</time></trkpt><trkpt lat="44.2045183" lon="6.7460167"><ele>1487.0</ele><time>2026-05-03T11:29:51.273Z</time></trkpt><trkpt lat="44.2046067" lon="6.7461417"><ele>1487.0</ele><time>2026-05-03T11:29:52.274Z</time></trkpt><trkpt lat="44.2047017" lon="6.7462267"><ele>1491.0</ele><time>2026-05-03T11:29:53.274Z</time></trkpt><trkpt lat="44.2048117" lon="6.7462633"><ele>1495.0</ele><time>2026-05-03T11:29:54.273Z</time></trkpt><trkpt lat="44.204945" lon="6.7462333"><ele>1499.0</ele><time>2026-05-03T11:29:55.274Z</time></trkpt><trkpt lat="44.205075" lon="6.7461567"><ele>1503.0</ele><time>2026-05-03T11:29:56.273Z</time></trkpt><trkpt lat="44.2051967" lon="6.7460817"><ele>1503.0</ele><time>2026-05-03T11:29:57.273Z</time></trkpt><trkpt lat="44.205335" lon="6.74602"><ele>1503.0</ele><time>2026-05-03T11:29:58.273Z</time></trkpt><trkpt lat="44.205465" lon="6.745965"><ele>1503.0</ele><time>2026-05-03T11:29:59.273Z</time></trkpt><trkpt lat="44.205595" lon="6.7459117"><ele>1503.0</ele><time>2026-05-03T11:30:00.274Z</time></trkpt><trkpt lat="44.2057283" lon="6.7458533"><ele>1503.0</ele><time>2026-05-03T11:30:01.273Z</time></trkpt><trkpt lat="44.2058633" lon="6.7457933"><ele>1503.0</ele><time>2026-05-03T11:30:02.274Z</time></trkpt><trkpt lat="44.2059867" lon="6.7457317"><ele>1503.0</ele><time>2026-05-03T11:30:03.273Z</time></trkpt><trkpt lat="44.2061133" lon="6.74569"><ele>1503.0</ele><time>2026-05-03T11:30:04.273Z</time></trkpt><trkpt lat="44.206235" lon="6.7456917"><ele>1503.0</ele><time>2026-05-03T11:30:05.273Z</time></trkpt><trkpt lat="44.2063533" lon="6.7456917"><ele>1503.0</ele><time>2026-05-03T11:30:06.273Z</time></trkpt><trkpt lat="44.20648" lon="6.7456967"><ele>1503.0</ele><time>2026-05-03T11:30:07.273Z</time></trkpt><trkpt lat="44.206605" lon="6.7457"><ele>1503.0</ele><time>2026-05-03T11:30:08.273Z</time></trkpt><trkpt lat="44.2067333" lon="6.7457117"><ele>1504.75</ele><time>2026-05-03T11:30:09.273Z</time></trkpt><trkpt lat="44.2068583" lon="6.7457367"><ele>1506.5</ele><time>2026-05-03T11:30:10.273Z</time></trkpt><trkpt lat="44.2069633" lon="6.745805"><ele>1508.25</ele><time>2026-05-03T11:30:11.273Z</time></trkpt><trkpt lat="44.207065" lon="6.7458983"><ele>1510.0</ele><time>2026-05-03T11:30:12.273Z</time></trkpt><trkpt lat="44.2071333" lon="6.7460083"><ele>1515.2</ele><time>2026-05-03T11:30:13.274Z</time></trkpt><trkpt lat="44.20721" lon="6.746115"><ele>1520.4</ele><time>2026-05-03T11:30:14.273Z</time></trkpt><trkpt lat="44.207285" lon="6.746205"><ele>1525.6</ele><time>2026-05-03T11:30:15.273Z</time></trkpt><trkpt lat="44.20737" lon="6.746235"><ele>1530.8</ele><time>2026-05-03T11:30:16.274Z</time></trkpt><trkpt lat="44.207465" lon="6.74621"><ele>1536.0</ele><time>2026-05-03T11:30:17.273Z</time></trkpt><trkpt lat="44.2075633" lon="6.7461483"><ele>1530.75</ele><time>2026-05-03T11:30:18.273Z</time></trkpt><trkpt lat="44.2076717" lon="6.746035"><ele>1525.5</ele><time>2026-05-03T11:30:19.274Z</time></trkpt><trkpt lat="44.2077767" lon="6.745915"><ele>1520.25</ele><time>2026-05-03T11:30:20.273Z</time></trkpt><trkpt lat="44.2078867" lon="6.7458067"><ele>1515.0</ele><time>2026-05-03T11:30:21.273Z</time></trkpt><trkpt lat="44.2079917" lon="6.7457217"><ele>1515.0</ele><time>2026-05-03T11:30:22.273Z</time></trkpt><trkpt lat="44.2080817" lon="6.7456283"><ele>1515.0</ele><time>2026-05-03T11:30:23.273Z</time></trkpt><trkpt lat="44.2081633" lon="6.7455167"><ele>1515.0</ele><time>2026-05-03T11:30:24.274Z</time></trkpt><trkpt lat="44.2082283" lon="6.7453933"><ele>1515.0</ele><time>2026-05-03T11:30:25.273Z</time></trkpt><trkpt lat="44.2083" lon="6.7452717"><ele>1515.0</ele><time>2026-05-03T11:30:26.273Z</time></trkpt><trkpt lat="44.20837" lon="6.745135"><ele>1517.0</ele><time>2026-05-03T11:30:27.273Z</time></trkpt><trkpt lat="44.2084483" lon="6.745005"><ele>1519.0</ele><time>2026-05-03T11:30:28.273Z</time></trkpt><trkpt lat="44.20854" lon="6.7448933"><ele>1521.0</ele><time>2026-05-03T11:30:29.274Z</time></trkpt><trkpt lat="44.2086367" lon="6.744795"><ele>1523.0</ele><time>2026-05-03T11:30:30.273Z</time></trkpt><trkpt lat="44.20873" lon="6.7447133"><ele>1523.0</ele><time>2026-05-03T11:30:31.273Z</time></trkpt><trkpt lat="44.2088317" lon="6.7446467"><ele>1523.0</ele><time>2026-05-03T11:30:32.273Z</time></trkpt><trkpt lat="44.2089217" lon="6.7446017"><ele>1523.0</ele><time>2026-05-03T11:30:33.273Z</time></trkpt><trkpt lat="44.2090217" lon="6.7445917"><ele>1523.0</ele><time>2026-05-03T11:30:34.273Z</time></trkpt><trkpt lat="44.2091267" lon="6.744635"><ele>1523.0</ele><time>2026-05-03T11:30:35.273Z</time></trkpt><trkpt lat="44.20922" lon="6.7447217"><ele>1527.5</ele><time>2026-05-03T11:30:36.273Z</time></trkpt><trkpt lat="44.2093067" lon="6.74484"><ele>1532.0</ele><time>2026-05-03T11:30:37.273Z</time></trkpt><trkpt lat="44.2093783" lon="6.7449667"><ele>1536.5</ele><time>2026-05-03T11:30:38.273Z</time></trkpt><trkpt lat="44.209455" lon="6.7450983"><ele>1541.0</ele><time>2026-05-03T11:30:39.273Z</time></trkpt><trkpt lat="44.20953" lon="6.7452417"><ele>1546.0</ele><time>2026-05-03T11:30:40.274Z</time></trkpt><trkpt lat="44.20961" lon="6.7453767"><ele>1551.0</ele><time>2026-05-03T11:30:41.273Z</time></trkpt><trkpt lat="44.20968" lon="6.7455233"><ele>1556.0</ele><time>2026-05-03T11:30:42.273Z</time></trkpt><trkpt lat="44.209755" lon="6.7456767"><ele>1561.0</ele><time>2026-05-03T11:30:43.273Z</time></trkpt><trkpt lat="44.2098233" lon="6.7458317"><ele>1562.5</ele><time>2026-05-03T11:30:44.273Z</time></trkpt><trkpt lat="44.20989" lon="6.74598"><ele>1564.0</ele><time>2026-05-03T11:30:45.273Z</time></trkpt><trkpt lat="44.2099633" lon="6.7461183"><ele>1565.5</ele><time>2026-05-03T11:30:46.273Z</time></trkpt><trkpt lat="44.2100367" lon="6.7462633"><ele>1567.0</ele><time>2026-05-03T11:30:47.273Z</time></trkpt><trkpt lat="44.2101117" lon="6.746395"><ele>1567.0</ele><time>2026-05-03T11:30:48.273Z</time></trkpt><trkpt lat="44.2102033" lon="6.7465067"><ele>1567.0</ele><time>2026-05-03T11:30:49.273Z</time></trkpt><trkpt lat="44.2103117" lon="6.746575"><ele>1567.0</ele><time>2026-05-03T11:30:50.273Z</time></trkpt><trkpt lat="44.2104433" lon="6.7465783"><ele>1567.0</ele><time>2026-05-03T11:30:51.273Z</time></trkpt><trkpt lat="44.210575" lon="6.74654"><ele>1565.0</ele><time>2026-05-03T11:30:52.273Z</time></trkpt><trkpt lat="44.2106967" lon="6.7465"><ele>1563.0</ele><time>2026-05-03T11:30:53.273Z</time></trkpt><trkpt lat="44.210805" lon="6.7464933"><ele>1561.0</ele><time>2026-05-03T11:30:54.273Z</time></trkpt><trkpt lat="44.210915" lon="6.7465217"><ele>1559.0</ele><time>2026-05-03T11:30:55.273Z</time></trkpt><trkpt lat="44.211015" lon="6.746585"><ele>1559.0</ele><time>2026-05-03T11:30:56.273Z</time></trkpt><trkpt lat="44.2110917" lon="6.7466867"><ele>1559.0</ele><time>2026-05-03T11:30:57.273Z</time></trkpt><trkpt lat="44.211155" lon="6.7468283"><ele>1559.0</ele><time>2026-05-03T11:30:58.273Z</time></trkpt><trkpt lat="44.21122" lon="6.7469683"><ele>1559.0</ele><time>2026-05-03T11:30:59.274Z</time></trkpt><trkpt lat="44.211315" lon="6.7470867"><ele>1566.75</ele><time>2026-05-03T11:31:00.273Z</time></trkpt><trkpt lat="44.2114133" lon="6.74715"><ele>1574.5</ele><time>2026-05-03T11:31:01.274Z</time></trkpt><trkpt lat="44.2115267" lon="6.7471483"><ele>1582.25</ele><time>2026-05-03T11:31:02.273Z</time></trkpt><trkpt lat="44.2116417" lon="6.7471367"><ele>1590.0</ele><time>2026-05-03T11:31:03.273Z</time></trkpt><trkpt lat="44.21176" lon="6.7471167"><ele>1590.0</ele><time>2026-05-03T11:31:04.273Z</time></trkpt><trkpt lat="44.2118817" lon="6.7471267"><ele>1590.0</ele><time>2026-05-03T11:31:05.273Z</time></trkpt><trkpt lat="44.2119967" lon="6.7471533"><ele>1590.0</ele><time>2026-05-03T11:31:06.273Z</time></trkpt><trkpt lat="44.2121083" lon="6.7472133"><ele>1590.0</ele><time>2026-05-03T11:31:07.273Z</time></trkpt><trkpt lat="44.21221" lon="6.7472667"><ele>1588.25</ele><time>2026-05-03T11:31:08.274Z</time></trkpt><trkpt lat="44.2123267" lon="6.7473133"><ele>1586.5</ele><time>2026-05-03T11:31:09.273Z</time></trkpt><trkpt lat="44.212445" lon="6.7473133"><ele>1584.75</ele><time>2026-05-03T11:31:10.273Z</time></trkpt><trkpt lat="44.212555" lon="6.7473167"><ele>1583.0</ele><time>2026-05-03T11:31:11.273Z</time></trkpt><trkpt lat="44.212685" lon="6.7473283"><ele>1583.0</ele><time>2026-05-03T11:31:12.273Z</time></trkpt><trkpt lat="44.2128117" lon="6.7473617"><ele>1583.0</ele><time>2026-05-03T11:31:13.273Z</time></trkpt><trkpt lat="44.2129333" lon="6.7474217"><ele>1583.0</ele><time>2026-05-03T11:31:14.274Z</time></trkpt><trkpt lat="44.21305" lon="6.7475017"><ele>1583.0</ele><time>2026-05-03T11:31:15.273Z</time></trkpt><trkpt lat="44.2131483" lon="6.7475783"><ele>1580.0</ele><time>2026-05-03T11:31:16.273Z</time></trkpt><trkpt lat="44.21323" lon="6.7476733"><ele>1577.0</ele><time>2026-05-03T11:31:17.273Z</time></trkpt><trkpt lat="44.2133083" lon="6.7477767"><ele>1574.0</ele><time>2026-05-03T11:31:18.273Z</time></trkpt><trkpt lat="44.2133983" lon="6.7478383"><ele>1571.0</ele><time>2026-05-03T11:31:19.273Z</time></trkpt><trkpt lat="44.2135033" lon="6.7478483"><ele>1568.0</ele><time>2026-05-03T11:31:20.274Z</time></trkpt><trkpt lat="44.21361" lon="6.74783"><ele>1578.75</ele><time>2026-05-03T11:31:21.274Z</time></trkpt><trkpt lat="44.213725" lon="6.7478"><ele>1589.5</ele><time>2026-05-03T11:31:22.273Z</time></trkpt><trkpt lat="44.2138383" lon="6.7478"><ele>1600.25</ele><time>2026-05-03T11:31:23.273Z</time></trkpt><trkpt lat="44.2139567" lon="6.7478067"><ele>1611.0</ele><time>2026-05-03T11:31:24.273Z</time></trkpt><trkpt lat="44.214085" lon="6.74781"><ele>1611.0</ele><time>2026-05-03T11:31:25.273Z</time></trkpt><trkpt lat="44.2142067" lon="6.7478133"><ele>1611.0</ele><time>2026-05-03T11:31:26.273Z</time></trkpt><trkpt lat="44.2143333" lon="6.7478033"><ele>1611.0</ele><time>2026-05-03T11:31:27.273Z</time></trkpt><trkpt lat="44.2144617" lon="6.7477933"><ele>1611.0</ele><time>2026-05-03T11:31:28.273Z</time></trkpt><trkpt lat="44.214595" lon="6.7477917"><ele>1611.0</ele><time>2026-05-03T11:31:29.273Z</time></trkpt><trkpt lat="44.2147317" lon="6.7477983"><ele>1611.0</ele><time>2026-05-03T11:31:30.273Z</time></trkpt><trkpt lat="44.2148567" lon="6.74781"><ele>1611.0</ele><time>2026-05-03T11:31:31.273Z</time></trkpt><trkpt lat="44.2149733" lon="6.7478633"><ele>1611.0</ele><time>2026-05-03T11:31:32.273Z</time></trkpt><trkpt lat="44.2150917" lon="6.7479367"><ele>1608.75</ele><time>2026-05-03T11:31:33.273Z</time></trkpt><trkpt lat="44.2151983" lon="6.74802"><ele>1606.5</ele><time>2026-05-03T11:31:34.273Z</time></trkpt><trkpt lat="44.2153017" lon="6.7481033"><ele>1604.25</ele><time>2026-05-03T11:31:35.273Z</time></trkpt><trkpt lat="44.21541" lon="6.7481833"><ele>1602.0</ele><time>2026-05-03T11:31:36.274Z</time></trkpt><trkpt lat="44.21553" lon="6.7482167"><ele>1602.0</ele><time>2026-05-03T11:31:37.273Z</time></trkpt><trkpt lat="44.2156517" lon="6.748255"><ele>1602.0</ele><time>2026-05-03T11:31:38.273Z</time></trkpt><trkpt lat="44.2157667" lon="6.7483067"><ele>1602.0</ele><time>2026-05-03T11:31:39.273Z</time></trkpt><trkpt lat="44.21588" lon="6.7483783"><ele>1602.0</ele><time>2026-05-03T11:31:40.273Z</time></trkpt><trkpt lat="44.2159717" lon="6.7484817"><ele>1603.1999999999998</ele><time>2026-05-03T11:31:41.273Z</time></trkpt><trkpt lat="44.2160483" lon="6.748615"><ele>1604.4</ele><time>2026-05-03T11:31:42.273Z</time></trkpt><trkpt lat="44.2160933" lon="6.7487533"><ele>1605.6</ele><time>2026-05-03T11:31:43.274Z</time></trkpt><trkpt lat="44.21611" lon="6.7488983"><ele>1606.8000000000002</ele><time>2026-05-03T11:31:44.273Z</time></trkpt><trkpt lat="44.2161467" lon="6.7490167"><ele>1608.0</ele><time>2026-05-03T11:31:45.273Z</time></trkpt><trkpt lat="44.2162017" lon="6.7491117"><ele>1608.0</ele><time>2026-05-03T11:31:46.273Z</time></trkpt><trkpt lat="44.2162717" lon="6.7491817"><ele>1608.0</ele><time>2026-05-03T11:31:47.273Z</time></trkpt><trkpt lat="44.2163583" lon="6.7492133"><ele>1608.0</ele><time>2026-05-03T11:31:48.273Z</time></trkpt><trkpt lat="44.216455" lon="6.7492167"><ele>1608.0</ele><time>2026-05-03T11:31:49.273Z</time></trkpt><trkpt lat="44.2165667" lon="6.7491933"><ele>1608.0</ele><time>2026-05-03T11:31:50.274Z</time></trkpt><trkpt lat="44.21669" lon="6.7491417"><ele>1604.25</ele><time>2026-05-03T11:31:51.273Z</time></trkpt><trkpt lat="44.216825" lon="6.7490783"><ele>1600.5</ele><time>2026-05-03T11:31:52.273Z</time></trkpt><trkpt lat="44.216955" lon="6.7490233"><ele>1596.75</ele><time>2026-05-03T11:31:53.273Z</time></trkpt><trkpt lat="44.2170817" lon="6.7489817"><ele>1593.0</ele><time>2026-05-03T11:31:54.273Z</time></trkpt><trkpt lat="44.2172033" lon="6.7489367"><ele>1601.5</ele><time>2026-05-03T11:31:55.273Z</time></trkpt><trkpt lat="44.217325" lon="6.7488717"><ele>1610.0</ele><time>2026-05-03T11:31:56.273Z</time></trkpt><trkpt lat="44.217435" lon="6.7487867"><ele>1618.5</ele><time>2026-05-03T11:31:57.274Z</time></trkpt><trkpt lat="44.2175567" lon="6.7487083"><ele>1627.0</ele><time>2026-05-03T11:31:58.274Z</time></trkpt><trkpt lat="44.217665" lon="6.7486217"><ele>1611.0</ele><time>2026-05-03T11:31:59.273Z</time></trkpt><trkpt lat="44.2177717" lon="6.74853"><ele>1595.0</ele><time>2026-05-03T11:32:00.273Z</time></trkpt><trkpt lat="44.2178783" lon="6.74843"><ele>1579.0</ele><time>2026-05-03T11:32:01.273Z</time></trkpt><trkpt lat="44.2181033" lon="6.7482683"><ele>1584.5</ele><time>2026-05-03T11:32:03.275Z</time></trkpt><trkpt lat="44.2181917" lon="6.7481383"><ele>1590.0</ele><time>2026-05-03T11:32:04.275Z</time></trkpt><trkpt lat="44.218305" lon="6.7480517"><ele>1595.5</ele><time>2026-05-03T11:32:05.275Z</time></trkpt><trkpt lat="44.218415" lon="6.7479733"><ele>1601.0</ele><time>2026-05-03T11:32:06.275Z</time></trkpt><trkpt lat="44.218485" lon="6.7478983"><ele>1601.0</ele><time>2026-05-03T11:32:07.275Z</time></trkpt><trkpt lat="44.218595" lon="6.74781"><ele>1601.0</ele><time>2026-05-03T11:32:08.275Z</time></trkpt><trkpt lat="44.2186933" lon="6.7478067"><ele>1601.0</ele><time>2026-05-03T11:32:09.275Z</time></trkpt><trkpt lat="44.2187783" lon="6.74778"><ele>1601.0</ele><time>2026-05-03T11:32:10.275Z</time></trkpt><trkpt lat="44.218855" lon="6.7478317"><ele>1601.0</ele><time>2026-05-03T11:32:11.275Z</time></trkpt><trkpt lat="44.2189467" lon="6.7478883"><ele>1598.8</ele><time>2026-05-03T11:32:12.275Z</time></trkpt><trkpt lat="44.2190417" lon="6.7479633"><ele>1596.6</ele><time>2026-05-03T11:32:13.275Z</time></trkpt><trkpt lat="44.2191417" lon="6.74804"><ele>1594.4</ele><time>2026-05-03T11:32:14.275Z</time></trkpt><trkpt lat="44.21924" lon="6.7481"><ele>1592.2</ele><time>2026-05-03T11:32:15.275Z</time></trkpt><trkpt lat="44.2193167" lon="6.74814"><ele>1590.0</ele><time>2026-05-03T11:32:16.275Z</time></trkpt><trkpt lat="44.219405" lon="6.7481367"><ele>1590.0</ele><time>2026-05-03T11:32:17.275Z</time></trkpt><trkpt lat="44.2194883" lon="6.7481067"><ele>1590.0</ele><time>2026-05-03T11:32:18.275Z</time></trkpt><trkpt lat="44.2195567" lon="6.7480283"><ele>1590.0</ele><time>2026-05-03T11:32:19.275Z</time></trkpt><trkpt lat="44.2196033" lon="6.7479033"><ele>1590.0</ele><time>2026-05-03T11:32:20.275Z</time></trkpt><trkpt lat="44.21964" lon="6.7477417"><ele>1590.0</ele><time>2026-05-03T11:32:21.275Z</time></trkpt><trkpt lat="44.21969" lon="6.7475767"><ele>1593.75</ele><time>2026-05-03T11:32:22.275Z</time></trkpt><trkpt lat="44.21973" lon="6.7474167"><ele>1597.5</ele><time>2026-05-03T11:32:23.276Z</time></trkpt><trkpt lat="44.2197783" lon="6.7472633"><ele>1601.25</ele><time>2026-05-03T11:32:24.275Z</time></trkpt><trkpt lat="44.2198167" lon="6.7471133"><ele>1605.0</ele><time>2026-05-03T11:32:25.275Z</time></trkpt><trkpt lat="44.219875" lon="6.7469833"><ele>1605.6</ele><time>2026-05-03T11:32:26.275Z</time></trkpt><trkpt lat="44.2199167" lon="6.746845"><ele>1606.2</ele><time>2026-05-03T11:32:27.276Z</time></trkpt><trkpt lat="44.2199317" lon="6.746695"><ele>1606.8000000000002</ele><time>2026-05-03T11:32:28.275Z</time></trkpt><trkpt lat="44.2199267" lon="6.746535"><ele>1607.4</ele><time>2026-05-03T11:32:29.275Z</time></trkpt><trkpt lat="44.219905" lon="6.74638"><ele>1608.0</ele><time>2026-05-03T11:32:30.275Z</time></trkpt><trkpt lat="44.21987" lon="6.74622"><ele>1604.0</ele><time>2026-05-03T11:32:31.276Z</time></trkpt><trkpt lat="44.2198033" lon="6.7460883"><ele>1600.0</ele><time>2026-05-03T11:32:32.275Z</time></trkpt><trkpt lat="44.2197167" lon="6.7459683"><ele>1596.0</ele><time>2026-05-03T11:32:33.276Z</time></trkpt><trkpt lat="44.219615" lon="6.745865"><ele>1592.0</ele><time>2026-05-03T11:32:34.275Z</time></trkpt><trkpt lat="44.2195067" lon="6.745795"><ele>1592.0</ele><time>2026-05-03T11:32:35.275Z</time></trkpt><trkpt lat="44.21939" lon="6.7457667"><ele>1592.0</ele><time>2026-05-03T11:32:36.275Z</time></trkpt><trkpt lat="44.2192717" lon="6.7457467"><ele>1592.0</ele><time>2026-05-03T11:32:37.275Z</time></trkpt><trkpt lat="44.21915" lon="6.74573"><ele>1592.0</ele><time>2026-05-03T11:32:38.275Z</time></trkpt><trkpt lat="44.2190567" lon="6.7457167"><ele>1584.1999999999998</ele><time>2026-05-03T11:32:39.275Z</time></trkpt><trkpt lat="44.2189817" lon="6.7456933"><ele>1576.4</ele><time>2026-05-03T11:32:40.276Z</time></trkpt><trkpt lat="44.2189133" lon="6.745665"><ele>1568.6</ele><time>2026-05-03T11:32:41.276Z</time></trkpt><trkpt lat="44.2188117" lon="6.7455617"><ele>1560.8000000000002</ele><time>2026-05-03T11:32:43.275Z</time></trkpt><trkpt lat="44.2188333" lon="6.7454367"><ele>1553.0</ele><time>2026-05-03T11:32:45.275Z</time></trkpt><trkpt lat="44.2189283" lon="6.7454083"><ele>1559.4999999999998</ele><time>2026-05-03T11:32:47.275Z</time></trkpt><trkpt lat="44.218995" lon="6.745455"><ele>1566.0</ele><time>2026-05-03T11:32:48.275Z</time></trkpt><trkpt lat="44.219045" lon="6.745515"><ele>1572.5</ele><time>2026-05-03T11:32:49.275Z</time></trkpt><trkpt lat="44.21911" lon="6.745595"><ele>1579.0</ele><time>2026-05-03T11:32:51.275Z</time></trkpt><trkpt lat="44.219175" lon="6.7456117"><ele>1585.4999999999998</ele><time>2026-05-03T11:43:19.275Z</time></trkpt><trkpt lat="44.219245" lon="6.74561"><ele>1592.0</ele><time>2026-05-03T11:43:21.275Z</time></trkpt><trkpt lat="44.2193433" lon="6.745615"><ele>1591.9999999999998</ele><time>2026-05-03T11:43:23.275Z</time></trkpt><trkpt lat="44.219465" lon="6.74563"><ele>1592.0</ele><time>2026-05-03T11:43:25.275Z</time></trkpt><trkpt lat="44.21953" lon="6.7456433"><ele>1592.0</ele><time>2026-05-03T11:43:26.275Z</time></trkpt><trkpt lat="44.2195983" lon="6.7456483"><ele>1592.0</ele><time>2026-05-03T11:43:27.275Z</time></trkpt><trkpt lat="44.2196733" lon="6.7456617"><ele>1591.9999999999998</ele><time>2026-05-03T11:43:28.275Z</time></trkpt><trkpt lat="44.21976" lon="6.745675"><ele>1592.0</ele><time>2026-05-03T11:43:29.275Z</time></trkpt><trkpt lat="44.2198467" lon="6.7456917"><ele>1595.1999999999998</ele><time>2026-05-03T11:43:30.276Z</time></trkpt><trkpt lat="44.2199367" lon="6.74573"><ele>1598.4</ele><time>2026-05-03T11:43:31.276Z</time></trkpt><trkpt lat="44.2200217" lon="6.7457833"><ele>1601.6</ele><time>2026-05-03T11:43:32.276Z</time></trkpt><trkpt lat="44.2201017" lon="6.7458617"><ele>1604.8000000000002</ele><time>2026-05-03T11:43:33.276Z</time></trkpt><trkpt lat="44.220175" lon="6.74595"><ele>1608.0</ele><time>2026-05-03T11:43:34.275Z</time></trkpt><trkpt lat="44.2202433" lon="6.7460533"><ele>1608.0</ele><time>2026-05-03T11:43:35.275Z</time></trkpt><trkpt lat="44.2203133" lon="6.7461833"><ele>1608.0</ele><time>2026-05-03T11:43:36.275Z</time></trkpt><trkpt lat="44.22038" lon="6.7463133"><ele>1608.0</ele><time>2026-05-03T11:43:37.275Z</time></trkpt><trkpt lat="44.2204417" lon="6.74645"><ele>1608.0</ele><time>2026-05-03T11:43:38.276Z</time></trkpt><trkpt lat="44.2204983" lon="6.7465883"><ele>1608.0</ele><time>2026-05-03T11:43:39.275Z</time></trkpt><trkpt lat="44.2205517" lon="6.7467283"><ele>1608.0</ele><time>2026-05-03T11:43:40.275Z</time></trkpt><trkpt lat="44.220605" lon="6.746855"><ele>1608.0</ele><time>2026-05-03T11:43:41.275Z</time></trkpt><trkpt lat="44.2206667" lon="6.7469767"><ele>1608.0</ele><time>2026-05-03T11:43:42.275Z</time></trkpt><trkpt lat="44.2207317" lon="6.7470983"><ele>1608.0</ele><time>2026-05-03T11:43:43.275Z</time></trkpt><trkpt lat="44.2208133" lon="6.7472167"><ele>1615.75</ele><time>2026-05-03T11:43:44.275Z</time></trkpt><trkpt lat="44.2209" lon="6.7473267"><ele>1623.5</ele><time>2026-05-03T11:43:45.275Z</time></trkpt><trkpt lat="44.2209983" lon="6.7474317"><ele>1631.25</ele><time>2026-05-03T11:43:46.275Z</time></trkpt><trkpt lat="44.2210917" lon="6.74753"><ele>1639.0</ele><time>2026-05-03T11:43:47.275Z</time></trkpt><trkpt lat="44.2211833" lon="6.7476367"><ele>1639.0</ele><time>2026-05-03T11:43:48.275Z</time></trkpt><trkpt lat="44.221265" lon="6.7477683"><ele>1639.0</ele><time>2026-05-03T11:43:49.275Z</time></trkpt><trkpt lat="44.2213617" lon="6.7478833"><ele>1639.0</ele><time>2026-05-03T11:43:50.275Z</time></trkpt><trkpt lat="44.2214567" lon="6.7479817"><ele>1639.0</ele><time>2026-05-03T11:43:51.275Z</time></trkpt><trkpt lat="44.221555" lon="6.748065"><ele>1639.0</ele><time>2026-05-03T11:43:52.275Z</time></trkpt><trkpt lat="44.2216717" lon="6.7481183"><ele>1639.0</ele><time>2026-05-03T11:43:53.275Z</time></trkpt><trkpt lat="44.221795" lon="6.7481367"><ele>1639.0</ele><time>2026-05-03T11:43:54.275Z</time></trkpt><trkpt lat="44.221925" lon="6.7481333"><ele>1639.0</ele><time>2026-05-03T11:43:55.275Z</time></trkpt><trkpt lat="44.2220617" lon="6.7481583"><ele>1639.0</ele><time>2026-05-03T11:43:56.275Z</time></trkpt><trkpt lat="44.222195" lon="6.748175"><ele>1639.0</ele><time>2026-05-03T11:43:57.275Z</time></trkpt><trkpt lat="44.2223417" lon="6.7481683"><ele>1639.0</ele><time>2026-05-03T11:43:58.275Z</time></trkpt><trkpt lat="44.2224833" lon="6.7481567"><ele>1639.0</ele><time>2026-05-03T11:43:59.275Z</time></trkpt><trkpt lat="44.2226133" lon="6.7481533"><ele>1642.5</ele><time>2026-05-03T11:44:00.275Z</time></trkpt><trkpt lat="44.22275" lon="6.74814"><ele>1646.0</ele><time>2026-05-03T11:44:01.275Z</time></trkpt><trkpt lat="44.22289" lon="6.74813"><ele>1649.5</ele><time>2026-05-03T11:44:02.275Z</time></trkpt><trkpt lat="44.2230267" lon="6.7481083"><ele>1653.0</ele><time>2026-05-03T11:44:03.275Z</time></trkpt><trkpt lat="44.22316" lon="6.74811"><ele>1655.0</ele><time>2026-05-03T11:44:04.275Z</time></trkpt><trkpt lat="44.2233033" lon="6.74811"><ele>1657.0</ele><time>2026-05-03T11:44:05.275Z</time></trkpt><trkpt lat="44.223445" lon="6.7481133"><ele>1659.0</ele><time>2026-05-03T11:44:06.275Z</time></trkpt><trkpt lat="44.2235817" lon="6.7481233"><ele>1661.0</ele><time>2026-05-03T11:44:07.275Z</time></trkpt><trkpt lat="44.2237133" lon="6.7481417"><ele>1661.0</ele><time>2026-05-03T11:44:08.275Z</time></trkpt><trkpt lat="44.2238517" lon="6.74815"><ele>1661.0</ele><time>2026-05-03T11:44:09.275Z</time></trkpt><trkpt lat="44.22399" lon="6.748165"><ele>1661.0</ele><time>2026-05-03T11:44:10.276Z</time></trkpt><trkpt lat="44.2241217" lon="6.7481833"><ele>1661.0</ele><time>2026-05-03T11:44:11.275Z</time></trkpt><trkpt lat="44.224255" lon="6.748205"><ele>1663.25</ele><time>2026-05-03T11:44:12.275Z</time></trkpt><trkpt lat="44.2244" lon="6.7482267"><ele>1665.5</ele><time>2026-05-03T11:44:13.275Z</time></trkpt><trkpt lat="44.2245433" lon="6.7482483"><ele>1667.75</ele><time>2026-05-03T11:44:14.276Z</time></trkpt><trkpt lat="44.2246717" lon="6.74826"><ele>1670.0</ele><time>2026-05-03T11:44:15.275Z</time></trkpt><trkpt lat="44.2248" lon="6.74829"><ele>1667.5</ele><time>2026-05-03T11:44:16.275Z</time></trkpt><trkpt lat="44.2249183" lon="6.7483383"><ele>1665.0</ele><time>2026-05-03T11:44:17.276Z</time></trkpt><trkpt lat="44.2250283" lon="6.7484167"><ele>1662.5</ele><time>2026-05-03T11:44:18.275Z</time></trkpt><trkpt lat="44.22513" lon="6.748515"><ele>1660.0</ele><time>2026-05-03T11:44:19.275Z</time></trkpt><trkpt lat="44.2252467" lon="6.7485933"><ele>1660.0</ele><time>2026-05-03T11:44:20.275Z</time></trkpt><trkpt lat="44.22536" lon="6.74864"><ele>1660.0</ele><time>2026-05-03T11:44:21.276Z</time></trkpt><trkpt lat="44.2254817" lon="6.7486417"><ele>1660.0</ele><time>2026-05-03T11:44:22.275Z</time></trkpt><trkpt lat="44.2256083" lon="6.7485967"><ele>1660.0</ele><time>2026-05-03T11:44:23.275Z</time></trkpt><trkpt lat="44.225745" lon="6.748555"><ele>1662.75</ele><time>2026-05-03T11:44:24.275Z</time></trkpt><trkpt lat="44.2258833" lon="6.7485483"><ele>1665.5</ele><time>2026-05-03T11:44:25.275Z</time></trkpt><trkpt lat="44.2260233" lon="6.7485583"><ele>1668.25</ele><time>2026-05-03T11:44:26.275Z</time></trkpt><trkpt lat="44.2261533" lon="6.7485917"><ele>1671.0</ele><time>2026-05-03T11:44:27.275Z</time></trkpt><trkpt lat="44.2262767" lon="6.7486617"><ele>1671.0</ele><time>2026-05-03T11:44:28.275Z</time></trkpt><trkpt lat="44.2263933" lon="6.7487633"><ele>1671.0</ele><time>2026-05-03T11:44:29.275Z</time></trkpt><trkpt lat="44.2265067" lon="6.7488283"><ele>1671.0</ele><time>2026-05-03T11:44:30.275Z</time></trkpt><trkpt lat="44.2266317" lon="6.7488617"><ele>1671.0</ele><time>2026-05-03T11:44:31.275Z</time></trkpt><trkpt lat="44.2267583" lon="6.7488467"><ele>1673.0</ele><time>2026-05-03T11:44:32.275Z</time></trkpt><trkpt lat="44.22689" lon="6.7488033"><ele>1675.0</ele><time>2026-05-03T11:44:33.275Z</time></trkpt><trkpt lat="44.2270183" lon="6.7487333"><ele>1677.0</ele><time>2026-05-03T11:44:34.275Z</time></trkpt><trkpt lat="44.2271483" lon="6.7486767"><ele>1679.0</ele><time>2026-05-03T11:44:35.275Z</time></trkpt><trkpt lat="44.2272767" lon="6.74864"><ele>1681.75</ele><time>2026-05-03T11:44:36.275Z</time></trkpt><trkpt lat="44.2274067" lon="6.74862"><ele>1684.5</ele><time>2026-05-03T11:44:37.275Z</time></trkpt><trkpt lat="44.2275317" lon="6.74866"><ele>1687.25</ele><time>2026-05-03T11:44:38.275Z</time></trkpt><trkpt lat="44.2276467" lon="6.748745"><ele>1690.0</ele><time>2026-05-03T11:44:39.276Z</time></trkpt><trkpt lat="44.2277583" lon="6.7488417"><ele>1690.0</ele><time>2026-05-03T11:44:40.275Z</time></trkpt><trkpt lat="44.2278683" lon="6.7488967"><ele>1690.0</ele><time>2026-05-03T11:44:41.275Z</time></trkpt><trkpt lat="44.227995" lon="6.74889"><ele>1690.0</ele><time>2026-05-03T11:44:42.275Z</time></trkpt><trkpt lat="44.2281217" lon="6.74885"><ele>1690.0</ele><time>2026-05-03T11:44:43.275Z</time></trkpt><trkpt lat="44.2282533" lon="6.748815"><ele>1693.5</ele><time>2026-05-03T11:44:44.275Z</time></trkpt><trkpt lat="44.22839" lon="6.748845"><ele>1697.0</ele><time>2026-05-03T11:44:45.275Z</time></trkpt><trkpt lat="44.2285083" lon="6.7489233"><ele>1700.5</ele><time>2026-05-03T11:44:46.275Z</time></trkpt><trkpt lat="44.228625" lon="6.7489933"><ele>1704.0</ele><time>2026-05-03T11:44:47.275Z</time></trkpt><trkpt lat="44.22874" lon="6.7490383"><ele>1704.0</ele><time>2026-05-03T11:44:48.275Z</time></trkpt><trkpt lat="44.2288733" lon="6.7490583"><ele>1704.0</ele><time>2026-05-03T11:44:49.275Z</time></trkpt><trkpt lat="44.2290067" lon="6.74903"><ele>1704.0</ele><time>2026-05-03T11:44:50.275Z</time></trkpt><trkpt lat="44.2291367" lon="6.7489783"><ele>1704.0</ele><time>2026-05-03T11:44:51.275Z</time></trkpt><trkpt lat="44.2292733" lon="6.74892"><ele>1706.75</ele><time>2026-05-03T11:44:52.275Z</time></trkpt><trkpt lat="44.2294167" lon="6.74887"><ele>1709.5</ele><time>2026-05-03T11:44:53.276Z</time></trkpt><trkpt lat="44.2295617" lon="6.748815"><ele>1712.25</ele><time>2026-05-03T11:44:54.276Z</time></trkpt><trkpt lat="44.2297083" lon="6.74878"><ele>1715.0</ele><time>2026-05-03T11:44:55.276Z</time></trkpt><trkpt lat="44.2298367" lon="6.7487483"><ele>1716.25</ele><time>2026-05-03T11:44:56.276Z</time></trkpt><trkpt lat="44.2299667" lon="6.7487333"><ele>1717.5</ele><time>2026-05-03T11:44:57.275Z</time></trkpt><trkpt lat="44.2300967" lon="6.7487433"><ele>1718.75</ele><time>2026-05-03T11:44:58.275Z</time></trkpt><trkpt lat="44.23021" lon="6.74879"><ele>1720.0</ele><time>2026-05-03T11:44:59.275Z</time></trkpt><trkpt lat="44.230315" lon="6.7488717"><ele>1720.0</ele><time>2026-05-03T11:45:00.275Z</time></trkpt><trkpt lat="44.2303983" lon="6.7489917"><ele>1720.0</ele><time>2026-05-03T11:45:01.275Z</time></trkpt><trkpt lat="44.2304633" lon="6.7491383"><ele>1720.0</ele><time>2026-05-03T11:45:02.275Z</time></trkpt><trkpt lat="44.2305067" lon="6.7493017"><ele>1720.0</ele><time>2026-05-03T11:45:03.275Z</time></trkpt><trkpt lat="44.2305367" lon="6.7494583"><ele>1722.4</ele><time>2026-05-03T11:45:04.275Z</time></trkpt><trkpt lat="44.230575" lon="6.7495833"><ele>1724.8</ele><time>2026-05-03T11:45:05.275Z</time></trkpt><trkpt lat="44.2306333" lon="6.7496667"><ele>1727.1999999999998</ele><time>2026-05-03T11:45:06.275Z</time></trkpt><trkpt lat="44.2307183" lon="6.74974"><ele>1729.6</ele><time>2026-05-03T11:45:07.275Z</time></trkpt><trkpt lat="44.230825" lon="6.7497683"><ele>1732.0</ele><time>2026-05-03T11:45:08.275Z</time></trkpt><trkpt lat="44.2309433" lon="6.7498133"><ele>1732.0</ele><time>2026-05-03T11:45:09.276Z</time></trkpt><trkpt lat="44.2310617" lon="6.74985"><ele>1732.0</ele><time>2026-05-03T11:45:10.275Z</time></trkpt><trkpt lat="44.2311783" lon="6.7499183"><ele>1732.0</ele><time>2026-05-03T11:45:11.275Z</time></trkpt><trkpt lat="44.23128" lon="6.7500083"><ele>1732.0</ele><time>2026-05-03T11:45:12.275Z</time></trkpt><trkpt lat="44.23136" lon="6.750115"><ele>1728.75</ele><time>2026-05-03T11:45:13.275Z</time></trkpt><trkpt lat="44.231425" lon="6.75024"><ele>1725.5</ele><time>2026-05-03T11:45:14.275Z</time></trkpt><trkpt lat="44.2314667" lon="6.7503967"><ele>1722.25</ele><time>2026-05-03T11:45:15.275Z</time></trkpt><trkpt lat="44.2314867" lon="6.750545"><ele>1719.0</ele><time>2026-05-03T11:45:16.275Z</time></trkpt><trkpt lat="44.2314983" lon="6.7507017"><ele>1721.3333333333333</ele><time>2026-05-03T11:45:17.275Z</time></trkpt><trkpt lat="44.2315067" lon="6.75083"><ele>1723.6666666666665</ele><time>2026-05-03T11:45:18.276Z</time></trkpt><trkpt lat="44.2315433" lon="6.7509333"><ele>1726.0</ele><time>2026-05-03T11:45:19.275Z</time></trkpt><trkpt lat="44.2316017" lon="6.7510083"><ele>1728.3333333333333</ele><time>2026-05-03T11:45:20.275Z</time></trkpt><trkpt lat="44.2316633" lon="6.751075"><ele>1730.6666666666665</ele><time>2026-05-03T11:45:21.275Z</time></trkpt><trkpt lat="44.2317467" lon="6.7511167"><ele>1733.0</ele><time>2026-05-03T11:45:22.275Z</time></trkpt><trkpt lat="44.2318517" lon="6.751125"><ele>1733.0</ele><time>2026-05-03T11:45:23.276Z</time></trkpt><trkpt lat="44.231965" lon="6.7511117"><ele>1733.0</ele><time>2026-05-03T11:45:24.275Z</time></trkpt><trkpt lat="44.2320833" lon="6.75111"><ele>1733.0</ele><time>2026-05-03T11:45:25.275Z</time></trkpt><trkpt lat="44.2322017" lon="6.7511067"><ele>1733.0</ele><time>2026-05-03T11:45:26.275Z</time></trkpt><trkpt lat="44.2323117" lon="6.751115"><ele>1738.2</ele><time>2026-05-03T11:45:27.275Z</time></trkpt><trkpt lat="44.232405" lon="6.7511633"><ele>1743.4</ele><time>2026-05-03T11:45:28.276Z</time></trkpt><trkpt lat="44.232485" lon="6.751235"><ele>1748.6000000000001</ele><time>2026-05-03T11:45:29.276Z</time></trkpt><trkpt lat="44.232545" lon="6.7513417"><ele>1753.8000000000002</ele><time>2026-05-03T11:45:30.275Z</time></trkpt><trkpt lat="44.2325833" lon="6.75147"><ele>1759.0</ele><time>2026-05-03T11:45:31.275Z</time></trkpt><trkpt lat="44.232595" lon="6.7516167"><ele>1759.0</ele><time>2026-05-03T11:45:32.275Z</time></trkpt><trkpt lat="44.2326183" lon="6.7517567"><ele>1759.0</ele><time>2026-05-03T11:45:33.275Z</time></trkpt><trkpt lat="44.232665" lon="6.7518867"><ele>1759.0</ele><time>2026-05-03T11:45:34.275Z</time></trkpt><trkpt lat="44.23274" lon="6.7519833"><ele>1759.0</ele><time>2026-05-03T11:45:35.275Z</time></trkpt><trkpt lat="44.2328383" lon="6.7520433"><ele>1759.0</ele><time>2026-05-03T11:45:36.275Z</time></trkpt><trkpt lat="44.23295" lon="6.7520883"><ele>1760.0</ele><time>2026-05-03T11:45:37.276Z</time></trkpt><trkpt lat="44.2330717" lon="6.752135"><ele>1761.0</ele><time>2026-05-03T11:45:38.275Z</time></trkpt><trkpt lat="44.2331933" lon="6.752185"><ele>1762.0</ele><time>2026-05-03T11:45:39.275Z</time></trkpt><trkpt lat="44.2333167" lon="6.752235"><ele>1763.0</ele><time>2026-05-03T11:45:40.275Z</time></trkpt><trkpt lat="44.2334383" lon="6.7522917"><ele>1763.0</ele><time>2026-05-03T11:45:41.275Z</time></trkpt><trkpt lat="44.2335617" lon="6.75234"><ele>1763.0</ele><time>2026-05-03T11:45:42.275Z</time></trkpt><trkpt lat="44.2336867" lon="6.7523767"><ele>1763.0</ele><time>2026-05-03T11:45:43.276Z</time></trkpt><trkpt lat="44.2338083" lon="6.7524083"><ele>1763.0</ele><time>2026-05-03T11:45:44.275Z</time></trkpt><trkpt lat="44.233945" lon="6.7524367"><ele>1764.25</ele><time>2026-05-03T11:45:45.276Z</time></trkpt><trkpt lat="44.234085" lon="6.7524417"><ele>1765.5</ele><time>2026-05-03T11:45:46.275Z</time></trkpt><trkpt lat="44.2342183" lon="6.75243"><ele>1766.75</ele><time>2026-05-03T11:45:47.275Z</time></trkpt><trkpt lat="44.234365" lon="6.7524167"><ele>1768.0</ele><time>2026-05-03T11:45:48.275Z</time></trkpt><trkpt lat="44.2345067" lon="6.7524133"><ele>1768.0</ele><time>2026-05-03T11:45:49.275Z</time></trkpt><trkpt lat="44.23464" lon="6.752415"><ele>1768.0</ele><time>2026-05-03T11:45:50.275Z</time></trkpt><trkpt lat="44.2347683" lon="6.7524067"><ele>1768.0</ele><time>2026-05-03T11:45:51.276Z</time></trkpt><trkpt lat="44.2348683" lon="6.7524167"><ele>1768.0</ele><time>2026-05-03T11:45:52.275Z</time></trkpt><trkpt lat="44.2349633" lon="6.7524067"><ele>1770.2</ele><time>2026-05-03T11:45:53.275Z</time></trkpt><trkpt lat="44.235055" lon="6.7523717"><ele>1772.4</ele><time>2026-05-03T11:45:54.275Z</time></trkpt><trkpt lat="44.23513" lon="6.7523083"><ele>1774.6000000000001</ele><time>2026-05-03T11:45:55.276Z</time></trkpt><trkpt lat="44.2351983" lon="6.7522083"><ele>1776.8000000000002</ele><time>2026-05-03T11:45:56.275Z</time></trkpt><trkpt lat="44.23527" lon="6.7520967"><ele>1779.0</ele><time>2026-05-03T11:45:57.275Z</time></trkpt><trkpt lat="44.2353383" lon="6.7519633"><ele>1779.0</ele><time>2026-05-03T11:45:58.275Z</time></trkpt><trkpt lat="44.2354117" lon="6.7518217"><ele>1779.0</ele><time>2026-05-03T11:45:59.275Z</time></trkpt><trkpt lat="44.23549" lon="6.751685"><ele>1779.0</ele><time>2026-05-03T11:46:00.275Z</time></trkpt><trkpt lat="44.2355717" lon="6.751545"><ele>1779.0</ele><time>2026-05-03T11:46:01.275Z</time></trkpt><trkpt lat="44.2356583" lon="6.7514067"><ele>1779.0</ele><time>2026-05-03T11:46:02.275Z</time></trkpt><trkpt lat="44.235755" lon="6.7512783"><ele>1779.0</ele><time>2026-05-03T11:46:03.276Z</time></trkpt><trkpt lat="44.2358567" lon="6.7511733"><ele>1779.0</ele><time>2026-05-03T11:46:04.275Z</time></trkpt><trkpt lat="44.2359583" lon="6.751105"><ele>1779.0</ele><time>2026-05-03T11:46:05.275Z</time></trkpt><trkpt lat="44.23606" lon="6.7510967"><ele>1779.0</ele><time>2026-05-03T11:46:06.275Z</time></trkpt><trkpt lat="44.2361767" lon="6.7511217"><ele>1779.0</ele><time>2026-05-03T11:46:07.275Z</time></trkpt><trkpt lat="44.23629" lon="6.75118"><ele>1779.0</ele><time>2026-05-03T11:46:08.275Z</time></trkpt><trkpt lat="44.2364067" lon="6.7512467"><ele>1779.0</ele><time>2026-05-03T11:46:09.275Z</time></trkpt><trkpt lat="44.236535" lon="6.7513"><ele>1779.0</ele><time>2026-05-03T11:46:10.275Z</time></trkpt><trkpt lat="44.2366617" lon="6.7513567"><ele>1779.0</ele><time>2026-05-03T11:46:11.275Z</time></trkpt><trkpt lat="44.236795" lon="6.751415"><ele>1779.0</ele><time>2026-05-03T11:46:12.275Z</time></trkpt><trkpt lat="44.2369183" lon="6.75148"><ele>1779.0</ele><time>2026-05-03T11:46:13.275Z</time></trkpt><trkpt lat="44.2370517" lon="6.7515267"><ele>1779.0</ele><time>2026-05-03T11:46:14.275Z</time></trkpt><trkpt lat="44.2371967" lon="6.751555"><ele>1779.0</ele><time>2026-05-03T11:46:15.276Z</time></trkpt><trkpt lat="44.2373433" lon="6.751565"><ele>1779.0</ele><time>2026-05-03T11:46:16.275Z</time></trkpt><trkpt lat="44.2374933" lon="6.7515767"><ele>1779.0</ele><time>2026-05-03T11:46:17.275Z</time></trkpt><trkpt lat="44.23764" lon="6.7515983"><ele>1781.75</ele><time>2026-05-03T11:46:18.275Z</time></trkpt><trkpt lat="44.2377733" lon="6.7515917"><ele>1784.5</ele><time>2026-05-03T11:46:19.275Z</time></trkpt><trkpt lat="44.2378967" lon="6.7515367"><ele>1787.25</ele><time>2026-05-03T11:46:20.275Z</time></trkpt><trkpt lat="44.23801" lon="6.7514517"><ele>1790.0</ele><time>2026-05-03T11:46:21.275Z</time></trkpt><trkpt lat="44.2381117" lon="6.7513383"><ele>1791.5</ele><time>2026-05-03T11:46:22.275Z</time></trkpt><trkpt lat="44.23821" lon="6.7512267"><ele>1793.0</ele><time>2026-05-03T11:46:23.275Z</time></trkpt><trkpt lat="44.2383167" lon="6.7511383"><ele>1794.5</ele><time>2026-05-03T11:46:24.276Z</time></trkpt><trkpt lat="44.2384217" lon="6.7510867"><ele>1796.0</ele><time>2026-05-03T11:46:25.275Z</time></trkpt><trkpt lat="44.2385267" lon="6.7510733"><ele>1796.0</ele><time>2026-05-03T11:46:26.275Z</time></trkpt><trkpt lat="44.2386317" lon="6.7511017"><ele>1796.0</ele><time>2026-05-03T11:46:27.276Z</time></trkpt><trkpt lat="44.2387333" lon="6.7511667"><ele>1796.0</ele><time>2026-05-03T11:46:28.276Z</time></trkpt><trkpt lat="44.2388167" lon="6.7512767"><ele>1796.0</ele><time>2026-05-03T11:46:29.275Z</time></trkpt><trkpt lat="44.2389" lon="6.7514"><ele>1799.0</ele><time>2026-05-03T11:46:30.275Z</time></trkpt><trkpt lat="44.239" lon="6.7515233"><ele>1802.0</ele><time>2026-05-03T11:46:31.275Z</time></trkpt><trkpt lat="44.2391033" lon="6.7516233"><ele>1805.0</ele><time>2026-05-03T11:46:32.275Z</time></trkpt><trkpt lat="44.2392217" lon="6.7516817"><ele>1808.0</ele><time>2026-05-03T11:46:33.275Z</time></trkpt><trkpt lat="44.23935" lon="6.7517217"><ele>1808.0</ele><time>2026-05-03T11:46:34.275Z</time></trkpt><trkpt lat="44.2394867" lon="6.7517517"><ele>1808.0</ele><time>2026-05-03T11:46:35.275Z</time></trkpt><trkpt lat="44.2396217" lon="6.7517917"><ele>1808.0</ele><time>2026-05-03T11:46:36.275Z</time></trkpt><trkpt lat="44.2397717" lon="6.7518333"><ele>1808.0</ele><time>2026-05-03T11:46:37.275Z</time></trkpt><trkpt lat="44.2399267" lon="6.7518767"><ele>1808.0</ele><time>2026-05-03T11:46:38.275Z</time></trkpt><trkpt lat="44.24008" lon="6.7519267"><ele>1808.0</ele><time>2026-05-03T11:46:39.275Z</time></trkpt><trkpt lat="44.2402267" lon="6.7519967"><ele>1808.0</ele><time>2026-05-03T11:46:40.275Z</time></trkpt><trkpt lat="44.2403767" lon="6.75208"><ele>1808.0</ele><time>2026-05-03T11:46:41.275Z</time></trkpt><trkpt lat="44.2405233" lon="6.7521833"><ele>1808.0</ele><time>2026-05-03T11:46:42.275Z</time></trkpt><trkpt lat="44.2406633" lon="6.752275"><ele>1808.0</ele><time>2026-05-03T11:46:43.275Z</time></trkpt><trkpt lat="44.2408067" lon="6.7523617"><ele>1812.3333333333333</ele><time>2026-05-03T11:46:44.276Z</time></trkpt><trkpt lat="44.2409533" lon="6.7524417"><ele>1816.6666666666665</ele><time>2026-05-03T11:46:45.275Z</time></trkpt><trkpt lat="44.2411017" lon="6.7524767"><ele>1821.0</ele><time>2026-05-03T11:46:46.276Z</time></trkpt><trkpt lat="44.2412483" lon="6.7524633"><ele>1821.0</ele><time>2026-05-03T11:46:47.275Z</time></trkpt><trkpt lat="44.2414" lon="6.75243"><ele>1821.0</ele><time>2026-05-03T11:46:48.275Z</time></trkpt><trkpt lat="44.2415567" lon="6.752405"><ele>1821.0</ele><time>2026-05-03T11:46:49.275Z</time></trkpt><trkpt lat="44.241705" lon="6.7523917"><ele>1822.25</ele><time>2026-05-03T11:46:50.275Z</time></trkpt><trkpt lat="44.2418417" lon="6.75242"><ele>1823.5</ele><time>2026-05-03T11:46:51.275Z</time></trkpt><trkpt lat="44.2419817" lon="6.7524917"><ele>1824.75</ele><time>2026-05-03T11:46:52.276Z</time></trkpt><trkpt lat="44.242095" lon="6.752605"><ele>1826.0</ele><time>2026-05-03T11:46:53.275Z</time></trkpt><trkpt lat="44.2421967" lon="6.7527417"><ele>1826.0</ele><time>2026-05-03T11:46:54.275Z</time></trkpt><trkpt lat="44.2422867" lon="6.7529"><ele>1826.0</ele><time>2026-05-03T11:46:55.275Z</time></trkpt><trkpt lat="44.242345" lon="6.7530817"><ele>1826.0</ele><time>2026-05-03T11:46:56.275Z</time></trkpt><trkpt lat="44.2423867" lon="6.7532783"><ele>1826.0</ele><time>2026-05-03T11:46:57.276Z</time></trkpt><trkpt lat="44.24244" lon="6.75348"><ele>1830.6666666666665</ele><time>2026-05-03T11:46:58.275Z</time></trkpt><trkpt lat="44.242495" lon="6.7536833"><ele>1835.3333333333335</ele><time>2026-05-03T11:46:59.275Z</time></trkpt><trkpt lat="44.24256" lon="6.7538867"><ele>1840.0</ele><time>2026-05-03T11:47:00.276Z</time></trkpt><trkpt lat="44.2426167" lon="6.7540783"><ele>1840.0</ele><time>2026-05-03T11:47:01.276Z</time></trkpt><trkpt lat="44.2426767" lon="6.75428"><ele>1840.0</ele><time>2026-05-03T11:47:02.275Z</time></trkpt><trkpt lat="44.242735" lon="6.754475"><ele>1840.0</ele><time>2026-05-03T11:47:03.275Z</time></trkpt><trkpt lat="44.242795" lon="6.75467"><ele>1840.5</ele><time>2026-05-03T11:47:04.276Z</time></trkpt><trkpt lat="44.242865" lon="6.7548583"><ele>1841.0</ele><time>2026-05-03T11:47:05.275Z</time></trkpt><trkpt lat="44.2429367" lon="6.755045"><ele>1841.5</ele><time>2026-05-03T11:47:06.275Z</time></trkpt><trkpt lat="44.2429967" lon="6.7552267"><ele>1842.0</ele><time>2026-05-03T11:47:07.275Z</time></trkpt><trkpt lat="44.243055" lon="6.7554033"><ele>1842.0</ele><time>2026-05-03T11:47:08.275Z</time></trkpt><trkpt lat="44.2431133" lon="6.7555817"><ele>1842.0</ele><time>2026-05-03T11:47:09.275Z</time></trkpt><trkpt lat="44.24318" lon="6.7557633"><ele>1842.0</ele><time>2026-05-03T11:47:10.275Z</time></trkpt><trkpt lat="44.24324" lon="6.755945"><ele>1842.0</ele><time>2026-05-03T11:47:11.275Z</time></trkpt><trkpt lat="44.2432967" lon="6.75612"><ele>1847.5</ele><time>2026-05-03T11:47:12.275Z</time></trkpt><trkpt lat="44.24335" lon="6.7562867"><ele>1853.0</ele><time>2026-05-03T11:47:13.275Z</time></trkpt><trkpt lat="44.2434283" lon="6.756455"><ele>1858.5</ele><time>2026-05-03T11:47:14.276Z</time></trkpt><trkpt lat="44.2435067" lon="6.7566183"><ele>1864.0</ele><time>2026-05-03T11:47:15.275Z</time></trkpt><trkpt lat="44.2435967" lon="6.7567533"><ele>1864.0</ele><time>2026-05-03T11:47:16.275Z</time></trkpt><trkpt lat="44.243715" lon="6.756865"><ele>1864.0</ele><time>2026-05-03T11:47:17.275Z</time></trkpt><trkpt lat="44.243865" lon="6.7569367"><ele>1864.0</ele><time>2026-05-03T11:47:18.275Z</time></trkpt><trkpt lat="44.24402" lon="6.7569917"><ele>1865.0</ele><time>2026-05-03T11:47:19.275Z</time></trkpt><trkpt lat="44.2441783" lon="6.7570417"><ele>1866.0</ele><time>2026-05-03T11:47:20.275Z</time></trkpt><trkpt lat="44.2443283" lon="6.7570867"><ele>1867.0</ele><time>2026-05-03T11:47:21.275Z</time></trkpt><trkpt lat="44.244455" lon="6.7571267"><ele>1868.0</ele><time>2026-05-03T11:47:22.275Z</time></trkpt><trkpt lat="44.24458" lon="6.757165"><ele>1868.0</ele><time>2026-05-03T11:47:23.276Z</time></trkpt><trkpt lat="44.2446883" lon="6.7572033"><ele>1868.0000000000002</ele><time>2026-05-03T11:47:24.275Z</time></trkpt><trkpt lat="44.2447767" lon="6.7572267"><ele>1868.0000000000002</ele><time>2026-05-03T11:47:25.275Z</time></trkpt><trkpt lat="44.2448533" lon="6.75723"><ele>1868.0</ele><time>2026-05-03T11:47:26.275Z</time></trkpt><trkpt lat="44.2449367" lon="6.7571417"><ele>1868.0</ele><time>2026-05-03T11:47:28.276Z</time></trkpt><trkpt lat="44.2449217" lon="6.757045"><ele>1868.0</ele><time>2026-05-03T11:47:29.275Z</time></trkpt><trkpt lat="44.2448583" lon="6.7569483"><ele>1868.0</ele><time>2026-05-03T11:47:30.275Z</time></trkpt><trkpt lat="44.2447533" lon="6.7568733"><ele>1868.0</ele><time>2026-05-03T11:47:31.275Z</time></trkpt><trkpt lat="44.2446217" lon="6.7568067"><ele>1868.0</ele><time>2026-05-03T11:47:32.275Z</time></trkpt><trkpt lat="44.2445067" lon="6.7567283"><ele>1869.2</ele><time>2026-05-03T11:47:33.275Z</time></trkpt><trkpt lat="44.2444133" lon="6.7566317"><ele>1870.4</ele><time>2026-05-03T11:47:34.275Z</time></trkpt><trkpt lat="44.2443517" lon="6.7565117"><ele>1871.6000000000001</ele><time>2026-05-03T11:47:35.275Z</time></trkpt><trkpt lat="44.244325" lon="6.7563767"><ele>1872.8000000000002</ele><time>2026-05-03T11:47:36.276Z</time></trkpt><trkpt lat="44.2443317" lon="6.7562417"><ele>1874.0</ele><time>2026-05-03T11:47:37.275Z</time></trkpt><trkpt lat="44.24438" lon="6.756115"><ele>1874.0</ele><time>2026-05-03T11:47:38.275Z</time></trkpt><trkpt lat="44.2444467" lon="6.755995"><ele>1874.0</ele><time>2026-05-03T11:47:39.275Z</time></trkpt><trkpt lat="44.2445183" lon="6.7558683"><ele>1874.0</ele><time>2026-05-03T11:47:40.275Z</time></trkpt><trkpt lat="44.244575" lon="6.75573"><ele>1874.0</ele><time>2026-05-03T11:47:41.275Z</time></trkpt><trkpt lat="44.244605" lon="6.7555683"><ele>1874.0</ele><time>2026-05-03T11:47:42.275Z</time></trkpt><trkpt lat="44.2446017" lon="6.7553983"><ele>1874.0</ele><time>2026-05-03T11:47:43.275Z</time></trkpt><trkpt lat="44.2445733" lon="6.755225"><ele>1874.0</ele><time>2026-05-03T11:47:44.275Z</time></trkpt><trkpt lat="44.24452" lon="6.7550683"><ele>1874.0</ele><time>2026-05-03T11:47:45.275Z</time></trkpt><trkpt lat="44.24446" lon="6.75492"><ele>1874.75</ele><time>2026-05-03T11:47:46.275Z</time></trkpt><trkpt lat="44.244385" lon="6.7547867"><ele>1875.5</ele><time>2026-05-03T11:47:47.275Z</time></trkpt><trkpt lat="44.244305" lon="6.7546517"><ele>1876.25</ele><time>2026-05-03T11:47:48.275Z</time></trkpt><trkpt lat="44.2442383" lon="6.7545267"><ele>1877.0</ele><time>2026-05-03T11:47:49.275Z</time></trkpt><trkpt lat="44.2441733" lon="6.7544167"><ele>1879.9999999999998</ele><time>2026-05-03T11:47:50.275Z</time></trkpt><trkpt lat="44.244115" lon="6.7543183"><ele>1883.0</ele><time>2026-05-03T11:47:51.275Z</time></trkpt><trkpt lat="44.2440617" lon="6.7542417"><ele>1886.0</ele><time>2026-05-03T11:47:52.275Z</time></trkpt><trkpt lat="44.2440233" lon="6.7541633"><ele>1889.0</ele><time>2026-05-03T11:47:53.275Z</time></trkpt><trkpt lat="44.24402" lon="6.7540333"><ele>1891.9999999999998</ele><time>2026-05-03T11:47:55.275Z</time></trkpt><trkpt lat="44.2440967" lon="6.754045"><ele>1895.0</ele><time>2026-05-03T11:47:57.276Z</time></trkpt><trkpt lat="44.2441333" lon="6.7541233"><ele>1895.0</ele><time>2026-05-03T11:47:58.275Z</time></trkpt><trkpt lat="44.2441717" lon="6.7542433"><ele>1895.0</ele><time>2026-05-03T11:47:59.276Z</time></trkpt><trkpt lat="44.244215" lon="6.75435"><ele>1895.0</ele><time>2026-05-03T11:48:00.275Z</time></trkpt><trkpt lat="44.2442667" lon="6.75445"><ele>1895.0</ele><time>2026-05-03T11:48:01.276Z</time></trkpt><trkpt lat="44.244335" lon="6.7545517"><ele>1895.0</ele><time>2026-05-03T11:48:02.275Z</time></trkpt><trkpt lat="44.24441" lon="6.75465"><ele>1897.0</ele><time>2026-05-03T11:48:03.275Z</time></trkpt><trkpt lat="44.2444883" lon="6.7547167"><ele>1899.0</ele><time>2026-05-03T11:48:04.275Z</time></trkpt><trkpt lat="44.2445783" lon="6.75477"><ele>1901.0</ele><time>2026-05-03T11:48:05.275Z</time></trkpt><trkpt lat="44.2446717" lon="6.7548267"><ele>1903.0</ele><time>2026-05-03T11:48:06.275Z</time></trkpt><trkpt lat="44.2447717" lon="6.7548783"><ele>1905.0</ele><time>2026-05-03T11:48:07.275Z</time></trkpt><trkpt lat="44.2448717" lon="6.7549433"><ele>1905.0</ele><time>2026-05-03T11:48:08.275Z</time></trkpt><trkpt lat="44.2449733" lon="6.75501"><ele>1905.0</ele><time>2026-05-03T11:48:09.275Z</time></trkpt><trkpt lat="44.2450783" lon="6.7550883"><ele>1905.0</ele><time>2026-05-03T11:48:10.275Z</time></trkpt><trkpt lat="44.24519" lon="6.7551617"><ele>1905.0</ele><time>2026-05-03T11:48:11.275Z</time></trkpt><trkpt lat="44.2452967" lon="6.75524"><ele>1906.0</ele><time>2026-05-03T11:48:12.275Z</time></trkpt><trkpt lat="44.245405" lon="6.7553083"><ele>1907.0</ele><time>2026-05-03T11:48:13.276Z</time></trkpt><trkpt lat="44.2455083" lon="6.75538"><ele>1908.0</ele><time>2026-05-03T11:48:14.275Z</time></trkpt><trkpt lat="44.2456083" lon="6.7554533"><ele>1909.0</ele><time>2026-05-03T11:48:15.275Z</time></trkpt><trkpt lat="44.245705" lon="6.7555417"><ele>1909.0</ele><time>2026-05-03T11:48:16.275Z</time></trkpt><trkpt lat="44.2458083" lon="6.755635"><ele>1909.0</ele><time>2026-05-03T11:48:17.276Z</time></trkpt><trkpt lat="44.245905" lon="6.7557317"><ele>1909.0</ele><time>2026-05-03T11:48:18.276Z</time></trkpt><trkpt lat="44.2460017" lon="6.7558133"><ele>1909.0</ele><time>2026-05-03T11:48:19.275Z</time></trkpt><trkpt lat="44.2461" lon="6.7559"><ele>1909.0</ele><time>2026-05-03T11:48:20.275Z</time></trkpt><trkpt lat="44.2461983" lon="6.756"><ele>1909.0</ele><time>2026-05-03T11:48:21.275Z</time></trkpt><trkpt lat="44.2463017" lon="6.7561"><ele>1909.0</ele><time>2026-05-03T11:48:22.275Z</time></trkpt><trkpt lat="44.2464083" lon="6.75619"><ele>1909.0</ele><time>2026-05-03T11:48:23.276Z</time></trkpt><trkpt lat="44.2464933" lon="6.7562917"><ele>1911.25</ele><time>2026-05-03T11:48:24.275Z</time></trkpt><trkpt lat="44.2465633" lon="6.75641"><ele>1913.5</ele><time>2026-05-03T11:48:25.275Z</time></trkpt><trkpt lat="44.2466267" lon="6.75655"><ele>1915.75</ele><time>2026-05-03T11:48:26.275Z</time></trkpt><trkpt lat="44.2466667" lon="6.75671"><ele>1918.0</ele><time>2026-05-03T11:48:27.275Z</time></trkpt><trkpt lat="44.2466833" lon="6.7568733"><ele>1918.0</ele><time>2026-05-03T11:48:28.275Z</time></trkpt><trkpt lat="44.2467" lon="6.757045"><ele>1918.0</ele><time>2026-05-03T11:48:29.275Z</time></trkpt><trkpt lat="44.24672" lon="6.757215"><ele>1918.0</ele><time>2026-05-03T11:48:30.275Z</time></trkpt><trkpt lat="44.24674" lon="6.757385"><ele>1918.0</ele><time>2026-05-03T11:48:31.275Z</time></trkpt><trkpt lat="44.24676" lon="6.7575617"><ele>1919.0</ele><time>2026-05-03T11:48:32.275Z</time></trkpt><trkpt lat="44.246785" lon="6.7577383"><ele>1920.0</ele><time>2026-05-03T11:48:33.275Z</time></trkpt><trkpt lat="44.2468083" lon="6.7579067"><ele>1921.0</ele><time>2026-05-03T11:48:34.275Z</time></trkpt><trkpt lat="44.246825" lon="6.7580917"><ele>1922.0</ele><time>2026-05-03T11:48:35.275Z</time></trkpt><trkpt lat="44.24684" lon="6.75827"><ele>1922.0</ele><time>2026-05-03T11:48:36.275Z</time></trkpt><trkpt lat="44.246855" lon="6.7584533"><ele>1922.0</ele><time>2026-05-03T11:48:37.275Z</time></trkpt><trkpt lat="44.2468667" lon="6.7586417"><ele>1922.0</ele><time>2026-05-03T11:48:38.275Z</time></trkpt><trkpt lat="44.2468683" lon="6.7588267"><ele>1922.0</ele><time>2026-05-03T11:48:39.275Z</time></trkpt><trkpt lat="44.2468867" lon="6.7590083"><ele>1921.5</ele><time>2026-05-03T11:48:40.275Z</time></trkpt><trkpt lat="44.2468883" lon="6.7591917"><ele>1921.0</ele><time>2026-05-03T11:48:41.275Z</time></trkpt><trkpt lat="44.246895" lon="6.7593583"><ele>1920.5</ele><time>2026-05-03T11:48:42.275Z</time></trkpt><trkpt lat="44.2469083" lon="6.7595117"><ele>1920.0</ele><time>2026-05-03T11:48:43.276Z</time></trkpt><trkpt lat="44.2469433" lon="6.7596517"><ele>1919.6</ele><time>2026-05-03T11:48:44.275Z</time></trkpt><trkpt lat="44.2469917" lon="6.7597733"><ele>1919.2</ele><time>2026-05-03T11:48:45.275Z</time></trkpt><trkpt lat="44.2470683" lon="6.759875"><ele>1918.8000000000002</ele><time>2026-05-03T11:48:46.275Z</time></trkpt><trkpt lat="44.2471583" lon="6.7599717"><ele>1918.4</ele><time>2026-05-03T11:48:47.275Z</time></trkpt><trkpt lat="44.2472683" lon="6.76006"><ele>1918.0</ele><time>2026-05-03T11:48:48.275Z</time></trkpt><trkpt lat="44.24739" lon="6.76013"><ele>1922.75</ele><time>2026-05-03T11:48:49.275Z</time></trkpt><trkpt lat="44.2475033" lon="6.7602017"><ele>1927.5</ele><time>2026-05-03T11:48:50.276Z</time></trkpt><trkpt lat="44.24762" lon="6.7602533"><ele>1932.25</ele><time>2026-05-03T11:48:51.275Z</time></trkpt><trkpt lat="44.2477333" lon="6.7603283"><ele>1937.0</ele><time>2026-05-03T11:48:52.275Z</time></trkpt><trkpt lat="44.2478467" lon="6.7604267"><ele>1937.0</ele><time>2026-05-03T11:48:53.275Z</time></trkpt><trkpt lat="44.2479333" lon="6.760535"><ele>1937.0</ele><time>2026-05-03T11:48:54.275Z</time></trkpt><trkpt lat="44.24799" lon="6.7606717"><ele>1937.0</ele><time>2026-05-03T11:48:55.275Z</time></trkpt><trkpt lat="44.2480383" lon="6.7608167"><ele>1937.0</ele><time>2026-05-03T11:48:56.275Z</time></trkpt><trkpt lat="44.248085" lon="6.7609767"><ele>1941.5</ele><time>2026-05-03T11:48:57.275Z</time></trkpt><trkpt lat="44.2481467" lon="6.7611517"><ele>1946.0</ele><time>2026-05-03T11:48:58.276Z</time></trkpt><trkpt lat="44.2482117" lon="6.761325"><ele>1950.5</ele><time>2026-05-03T11:48:59.275Z</time></trkpt><trkpt lat="44.24828" lon="6.7614867"><ele>1955.0</ele><time>2026-05-03T11:49:00.275Z</time></trkpt><trkpt lat="44.248345" lon="6.7616517"><ele>1955.0</ele><time>2026-05-03T11:49:01.275Z</time></trkpt><trkpt lat="44.2484" lon="6.7618233"><ele>1955.0</ele><time>2026-05-03T11:49:02.275Z</time></trkpt><trkpt lat="44.248445" lon="6.76199"><ele>1955.0</ele><time>2026-05-03T11:49:03.276Z</time></trkpt><trkpt lat="44.248485" lon="6.76216"><ele>1955.0</ele><time>2026-05-03T11:49:04.275Z</time></trkpt><trkpt lat="44.24852" lon="6.7623417"><ele>1954.5</ele><time>2026-05-03T11:49:05.276Z</time></trkpt><trkpt lat="44.2485583" lon="6.7625167"><ele>1954.0</ele><time>2026-05-03T11:49:06.276Z</time></trkpt><trkpt lat="44.2486017" lon="6.7626867"><ele>1953.5</ele><time>2026-05-03T11:49:07.275Z</time></trkpt><trkpt lat="44.24864" lon="6.762845"><ele>1953.0</ele><time>2026-05-03T11:49:08.275Z</time></trkpt><trkpt lat="44.2486833" lon="6.763"><ele>1953.0</ele><time>2026-05-03T11:49:09.275Z</time></trkpt><trkpt lat="44.2487267" lon="6.7631533"><ele>1953.0</ele><time>2026-05-03T11:49:10.275Z</time></trkpt><trkpt lat="44.2487867" lon="6.7633017"><ele>1953.0</ele><time>2026-05-03T11:49:11.275Z</time></trkpt><trkpt lat="44.2488633" lon="6.76345"><ele>1953.0</ele><time>2026-05-03T11:49:12.275Z</time></trkpt><trkpt lat="44.2489583" lon="6.7635833"><ele>1958.0</ele><time>2026-05-03T11:49:13.275Z</time></trkpt><trkpt lat="44.24906" lon="6.7637167"><ele>1963.0</ele><time>2026-05-03T11:49:14.275Z</time></trkpt><trkpt lat="44.249165" lon="6.7638467"><ele>1968.0</ele><time>2026-05-03T11:49:15.275Z</time></trkpt><trkpt lat="44.2492567" lon="6.76397"><ele>1973.0</ele><time>2026-05-03T11:49:16.276Z</time></trkpt><trkpt lat="44.2493283" lon="6.7640967"><ele>1973.0</ele><time>2026-05-03T11:49:17.275Z</time></trkpt><trkpt lat="44.2493883" lon="6.7642533"><ele>1973.0</ele><time>2026-05-03T11:49:18.275Z</time></trkpt><trkpt lat="44.249415" lon="6.76443"><ele>1973.0</ele><time>2026-05-03T11:49:19.275Z</time></trkpt><trkpt lat="44.2494183" lon="6.7646133"><ele>1973.0</ele><time>2026-05-03T11:49:20.275Z</time></trkpt><trkpt lat="44.2494117" lon="6.7648033"><ele>1973.4</ele><time>2026-05-03T11:49:21.275Z</time></trkpt><trkpt lat="44.249415" lon="6.7649817"><ele>1973.8000000000002</ele><time>2026-05-03T11:49:22.275Z</time></trkpt><trkpt lat="44.2494133" lon="6.7651267"><ele>1974.2</ele><time>2026-05-03T11:49:23.275Z</time></trkpt><trkpt lat="44.2494067" lon="6.7652633"><ele>1974.6</ele><time>2026-05-03T11:49:24.276Z</time></trkpt><trkpt lat="44.2494217" lon="6.76539"><ele>1975.0</ele><time>2026-05-03T11:49:25.275Z</time></trkpt><trkpt lat="44.249455" lon="6.7654933"><ele>1975.5000000000002</ele><time>2026-05-03T11:49:26.275Z</time></trkpt><trkpt lat="44.24951" lon="6.7655833"><ele>1976.0</ele><time>2026-05-03T11:49:27.275Z</time></trkpt><trkpt lat="44.2495767" lon="6.7656267"><ele>1976.5</ele><time>2026-05-03T11:49:28.275Z</time></trkpt><trkpt lat="44.249665" lon="6.76563"><ele>1977.0</ele><time>2026-05-03T11:49:29.276Z</time></trkpt><trkpt lat="44.2497567" lon="6.76558"><ele>1977.5000000000002</ele><time>2026-05-03T11:49:30.275Z</time></trkpt><trkpt lat="44.2498333" lon="6.7654817"><ele>1978.0</ele><time>2026-05-03T11:49:31.275Z</time></trkpt><trkpt lat="44.2498833" lon="6.7653267"><ele>1984.0</ele><time>2026-05-03T11:49:32.275Z</time></trkpt><trkpt lat="44.2499117" lon="6.7651133"><ele>1990.0</ele><time>2026-05-03T11:49:33.276Z</time></trkpt><trkpt lat="44.24994" lon="6.7648733"><ele>1996.0</ele><time>2026-05-03T11:49:34.275Z</time></trkpt><trkpt lat="44.24998" lon="6.7646383"><ele>1996.0</ele><time>2026-05-03T11:49:35.275Z</time></trkpt><trkpt lat="44.2500083" lon="6.7644283"><ele>1996.0</ele><time>2026-05-03T11:49:36.275Z</time></trkpt><trkpt lat="44.2500233" lon="6.7642467"><ele>1996.0</ele><time>2026-05-03T11:49:37.275Z</time></trkpt><trkpt lat="44.2500183" lon="6.7640633"><ele>1996.0</ele><time>2026-05-03T11:49:38.276Z</time></trkpt><trkpt lat="44.250005" lon="6.7638917"><ele>1996.5</ele><time>2026-05-03T11:49:39.276Z</time></trkpt><trkpt lat="44.249955" lon="6.7637117"><ele>1997.0</ele><time>2026-05-03T11:49:40.275Z</time></trkpt><trkpt lat="44.2498983" lon="6.76355"><ele>1997.5</ele><time>2026-05-03T11:49:41.275Z</time></trkpt><trkpt lat="44.2498533" lon="6.76338"><ele>1998.0</ele><time>2026-05-03T11:49:42.275Z</time></trkpt><trkpt lat="44.2498183" lon="6.763215"><ele>2000.25</ele><time>2026-05-03T11:49:43.275Z</time></trkpt><trkpt lat="44.2498" lon="6.763045"><ele>2002.5</ele><time>2026-05-03T11:49:44.275Z</time></trkpt><trkpt lat="44.2497833" lon="6.7628533"><ele>2004.75</ele><time>2026-05-03T11:49:45.276Z</time></trkpt><trkpt lat="44.2497733" lon="6.7626717"><ele>2007.0</ele><time>2026-05-03T11:49:46.275Z</time></trkpt><trkpt lat="44.2497633" lon="6.7624783"><ele>2002.0</ele><time>2026-05-03T11:49:47.275Z</time></trkpt><trkpt lat="44.24975" lon="6.7622917"><ele>1997.0</ele><time>2026-05-03T11:49:48.275Z</time></trkpt><trkpt lat="44.2497217" lon="6.762115"><ele>1992.0</ele><time>2026-05-03T11:49:49.275Z</time></trkpt><trkpt lat="44.249685" lon="6.761945"><ele>1987.0</ele><time>2026-05-03T11:49:50.275Z</time></trkpt><trkpt lat="44.249645" lon="6.761785"><ele>1987.0</ele><time>2026-05-03T11:49:51.275Z</time></trkpt><trkpt lat="44.2495983" lon="6.7616367"><ele>1987.0</ele><time>2026-05-03T11:49:52.275Z</time></trkpt><trkpt lat="44.24955" lon="6.76149"><ele>1987.0</ele><time>2026-05-03T11:49:53.275Z</time></trkpt><trkpt lat="44.2495233" lon="6.761325"><ele>1987.0</ele><time>2026-05-03T11:49:54.275Z</time></trkpt><trkpt lat="44.2495117" lon="6.7611567"><ele>1991.0</ele><time>2026-05-03T11:49:55.275Z</time></trkpt><trkpt lat="44.2494967" lon="6.7609883"><ele>1995.0</ele><time>2026-05-03T11:49:56.276Z</time></trkpt><trkpt lat="44.2494933" lon="6.7608033"><ele>1999.0</ele><time>2026-05-03T11:49:57.275Z</time></trkpt><trkpt lat="44.24948" lon="6.7606133"><ele>2003.0</ele><time>2026-05-03T11:49:58.275Z</time></trkpt><trkpt lat="44.2494617" lon="6.76044"><ele>2003.0</ele><time>2026-05-03T11:49:59.275Z</time></trkpt><trkpt lat="44.249425" lon="6.7602567"><ele>2003.0</ele><time>2026-05-03T11:50:00.275Z</time></trkpt><trkpt lat="44.2493783" lon="6.7600783"><ele>2003.0</ele><time>2026-05-03T11:50:01.275Z</time></trkpt><trkpt lat="44.24933" lon="6.7599117"><ele>2003.0</ele><time>2026-05-03T11:50:02.275Z</time></trkpt><trkpt lat="44.2492667" lon="6.7597533"><ele>2006.75</ele><time>2026-05-03T11:50:03.275Z</time></trkpt><trkpt lat="44.2492067" lon="6.7595967"><ele>2010.5</ele><time>2026-05-03T11:50:04.275Z</time></trkpt><trkpt lat="44.24916" lon="6.759445"><ele>2014.25</ele><time>2026-05-03T11:50:05.275Z</time></trkpt><trkpt lat="44.2491117" lon="6.75928"><ele>2018.0</ele><time>2026-05-03T11:50:06.275Z</time></trkpt><trkpt lat="44.2490817" lon="6.7591183"><ele>2020.5</ele><time>2026-05-03T11:50:07.275Z</time></trkpt><trkpt lat="44.249055" lon="6.75895"><ele>2023.0</ele><time>2026-05-03T11:50:08.275Z</time></trkpt><trkpt lat="44.2490233" lon="6.7587917"><ele>2025.5</ele><time>2026-05-03T11:50:09.276Z</time></trkpt><trkpt lat="44.2489733" lon="6.75864"><ele>2028.0</ele><time>2026-05-03T11:50:10.275Z</time></trkpt><trkpt lat="44.24891" lon="6.7585"><ele>2028.0</ele><time>2026-05-03T11:50:11.275Z</time></trkpt><trkpt lat="44.248835" lon="6.75838"><ele>2028.0</ele><time>2026-05-03T11:50:12.275Z</time></trkpt><trkpt lat="44.2487483" lon="6.7582667"><ele>2028.0</ele><time>2026-05-03T11:50:13.275Z</time></trkpt><trkpt lat="44.2486533" lon="6.7581683"><ele>2028.0</ele><time>2026-05-03T11:50:14.276Z</time></trkpt><trkpt lat="44.2485633" lon="6.7580817"><ele>2028.0</ele><time>2026-05-03T11:50:15.276Z</time></trkpt><trkpt lat="44.2484717" lon="6.758"><ele>2028.0000000000002</ele><time>2026-05-03T11:50:16.275Z</time></trkpt><trkpt lat="44.248375" lon="6.7579117"><ele>2028.0000000000002</ele><time>2026-05-03T11:50:17.275Z</time></trkpt><trkpt lat="44.2483083" lon="6.7578133"><ele>2028.0</ele><time>2026-05-03T11:50:18.275Z</time></trkpt><trkpt lat="44.2482617" lon="6.7577017"><ele>2028.0</ele><time>2026-05-03T11:50:19.276Z</time></trkpt><trkpt lat="44.2482283" lon="6.7575867"><ele>2031.6666666666667</ele><time>2026-05-03T11:50:20.275Z</time></trkpt><trkpt lat="44.2482017" lon="6.75747"><ele>2035.3333333333335</ele><time>2026-05-03T11:50:21.275Z</time></trkpt><trkpt lat="44.248175" lon="6.7573633"><ele>2039.0</ele><time>2026-05-03T11:50:22.276Z</time></trkpt><trkpt lat="44.2481517" lon="6.75726"><ele>2042.6666666666667</ele><time>2026-05-03T11:50:23.275Z</time></trkpt><trkpt lat="44.24812" lon="6.7571517"><ele>2046.3333333333335</ele><time>2026-05-03T11:50:24.275Z</time></trkpt><trkpt lat="44.24809" lon="6.7570433"><ele>2050.0</ele><time>2026-05-03T11:50:25.275Z</time></trkpt><trkpt lat="44.24802" lon="6.756765"><ele>2035.3333333333335</ele><time>2026-05-03T11:50:28.275Z</time></trkpt><trkpt lat="44.2481433" lon="6.7567"><ele>2020.6666666666665</ele><time>2026-05-03T11:50:29.275Z</time></trkpt><trkpt lat="44.24845" lon="6.7566667"><ele>2006.0</ele><time>2026-05-03T11:50:30.275Z</time></trkpt><trkpt lat="44.2486983" lon="6.756685"><ele>2006.0</ele><time>2026-05-03T11:50:31.275Z</time></trkpt><trkpt lat="44.248885" lon="6.75669"><ele>2006.0</ele><time>2026-05-03T11:50:32.276Z</time></trkpt><trkpt lat="44.248995" lon="6.75671"><ele>2006.0</ele><time>2026-05-03T11:50:33.275Z</time></trkpt><trkpt lat="44.24911" lon="6.75675"><ele>2006.0</ele><time>2026-05-03T11:50:34.275Z</time></trkpt><trkpt lat="44.2491983" lon="6.75677"><ele>2012.1999999999998</ele><time>2026-05-03T11:50:35.276Z</time></trkpt><trkpt lat="44.2492917" lon="6.7567467"><ele>2018.3999999999999</ele><time>2026-05-03T11:50:36.275Z</time></trkpt><trkpt lat="44.2493983" lon="6.756715"><ele>2024.6</ele><time>2026-05-03T11:50:37.275Z</time></trkpt><trkpt lat="44.2495" lon="6.7566717"><ele>2030.8</ele><time>2026-05-03T11:50:38.275Z</time></trkpt><trkpt lat="44.2496017" lon="6.7566333"><ele>2037.0</ele><time>2026-05-03T11:50:39.275Z</time></trkpt><trkpt lat="44.2497" lon="6.7566267"><ele>2045.1999999999998</ele><time>2026-05-03T11:50:40.275Z</time></trkpt><trkpt lat="44.2498" lon="6.7566467"><ele>2053.3999999999996</ele><time>2026-05-03T11:50:41.275Z</time></trkpt><trkpt lat="44.2499017" lon="6.7566283"><ele>2061.6000000000004</ele><time>2026-05-03T11:50:42.275Z</time></trkpt><trkpt lat="44.25" lon="6.756595"><ele>2069.8</ele><time>2026-05-03T11:50:43.275Z</time></trkpt><trkpt lat="44.250105" lon="6.7565283"><ele>2078.0</ele><time>2026-05-03T11:50:44.275Z</time></trkpt><trkpt lat="44.2501933" lon="6.7564383"><ele>2078.0</ele><time>2026-05-03T11:50:45.275Z</time></trkpt><trkpt lat="44.2502883" lon="6.756345"><ele>2078.0</ele><time>2026-05-03T11:50:46.275Z</time></trkpt><trkpt lat="44.2503917" lon="6.75628"><ele>2078.0</ele><time>2026-05-03T11:50:47.275Z</time></trkpt><trkpt lat="44.2504983" lon="6.7562367"><ele>2078.0</ele><time>2026-05-03T11:50:48.275Z</time></trkpt><trkpt lat="44.2506117" lon="6.7561983"><ele>2074.0</ele><time>2026-05-03T11:50:49.275Z</time></trkpt><trkpt lat="44.250755" lon="6.7561467"><ele>2070.0</ele><time>2026-05-03T11:50:50.275Z</time></trkpt><trkpt lat="44.2508833" lon="6.75605"><ele>2066.0</ele><time>2026-05-03T11:50:51.275Z</time></trkpt><trkpt lat="44.251" lon="6.755935"><ele>2062.0</ele><time>2026-05-03T11:50:52.276Z</time></trkpt><trkpt lat="44.2511067" lon="6.7558317"><ele>2062.0</ele><time>2026-05-03T11:50:53.275Z</time></trkpt><trkpt lat="44.251205" lon="6.75574"><ele>2062.0</ele><time>2026-05-03T11:50:54.275Z</time></trkpt><trkpt lat="44.2513117" lon="6.7556583"><ele>2062.0</ele><time>2026-05-03T11:50:55.275Z</time></trkpt><trkpt lat="44.2514167" lon="6.7555633"><ele>2062.0</ele><time>2026-05-03T11:50:56.275Z</time></trkpt><trkpt lat="44.2515183" lon="6.75546"><ele>2064.25</ele><time>2026-05-03T11:50:57.276Z</time></trkpt><trkpt lat="44.2515967" lon="6.7553467"><ele>2066.5</ele><time>2026-05-03T11:50:58.275Z</time></trkpt><trkpt lat="44.2516683" lon="6.7552117"><ele>2068.75</ele><time>2026-05-03T11:50:59.275Z</time></trkpt><trkpt lat="44.2517367" lon="6.7550583"><ele>2071.0</ele><time>2026-05-03T11:51:00.275Z</time></trkpt><trkpt lat="44.25181" lon="6.754905"><ele>2071.0</ele><time>2026-05-03T11:51:01.275Z</time></trkpt><trkpt lat="44.25187" lon="6.7547567"><ele>2071.0</ele><time>2026-05-03T11:51:02.275Z</time></trkpt><trkpt lat="44.2519333" lon="6.754665"><ele>2071.0</ele><time>2026-05-03T11:51:03.275Z</time></trkpt><trkpt lat="44.2520033" lon="6.7546083"><ele>2071.0</ele><time>2026-05-03T11:51:04.275Z</time></trkpt><trkpt lat="44.2520867" lon="6.7545733"><ele>2071.0</ele><time>2026-05-03T11:51:05.275Z</time></trkpt><trkpt lat="44.2521867" lon="6.7545733"><ele>2071.0</ele><time>2026-05-03T11:51:06.275Z</time></trkpt><trkpt lat="44.25228" lon="6.7545483"><ele>2071.0</ele><time>2026-05-03T11:51:07.275Z</time></trkpt><trkpt lat="44.25236" lon="6.7544883"><ele>2071.0</ele><time>2026-05-03T11:51:08.275Z</time></trkpt><trkpt lat="44.25242" lon="6.7543917"><ele>2071.0</ele><time>2026-05-03T11:51:09.275Z</time></trkpt><trkpt lat="44.2524667" lon="6.7542717"><ele>2071.0</ele><time>2026-05-03T11:51:10.275Z</time></trkpt><trkpt lat="44.2525117" lon="6.754145"><ele>2074.4</ele><time>2026-05-03T11:51:11.275Z</time></trkpt><trkpt lat="44.25254" lon="6.7540233"><ele>2077.8</ele><time>2026-05-03T11:51:12.275Z</time></trkpt><trkpt lat="44.25255" lon="6.7538967"><ele>2081.2000000000003</ele><time>2026-05-03T11:51:13.275Z</time></trkpt><trkpt lat="44.2525417" lon="6.7537483"><ele>2084.6</ele><time>2026-05-03T11:51:14.275Z</time></trkpt><trkpt lat="44.252505" lon="6.7536267"><ele>2088.0</ele><time>2026-05-03T11:51:15.276Z</time></trkpt><trkpt lat="44.2524617" lon="6.753525"><ele>2089.3333333333335</ele><time>2026-05-03T11:51:16.275Z</time></trkpt><trkpt lat="44.252415" lon="6.7534433"><ele>2090.6666666666665</ele><time>2026-05-03T11:51:17.276Z</time></trkpt><trkpt lat="44.252365" lon="6.75338"><ele>2092.0</ele><time>2026-05-03T11:51:18.275Z</time></trkpt><trkpt lat="44.252295" lon="6.753225"><ele>2093.333333333333</ele><time>2026-05-03T11:51:20.275Z</time></trkpt><trkpt lat="44.252285" lon="6.7531167"><ele>2094.6666666666665</ele><time>2026-05-03T11:51:21.275Z</time></trkpt><trkpt lat="44.25229" lon="6.75301"><ele>2096.0</ele><time>2026-05-03T11:51:22.275Z</time></trkpt><trkpt lat="44.252305" lon="6.752915"><ele>2096.0</ele><time>2026-05-03T11:51:23.275Z</time></trkpt><trkpt lat="44.2523317" lon="6.7528333"><ele>2096.0</ele><time>2026-05-03T11:51:24.275Z</time></trkpt><trkpt lat="44.2523983" lon="6.7527017"><ele>2096.0</ele><time>2026-05-03T11:51:26.275Z</time></trkpt><trkpt lat="44.252465" lon="6.7525783"><ele>2096.0</ele><time>2026-05-03T11:51:28.275Z</time></trkpt><trkpt lat="44.2525317" lon="6.75244"><ele>2096.0</ele><time>2026-05-03T11:51:30.275Z</time></trkpt><trkpt lat="44.2526" lon="6.7522783"><ele>2096.1428571428573</ele><time>2026-05-03T11:51:32.275Z</time></trkpt><trkpt lat="44.2526333" lon="6.7522"><ele>2096.2857142857147</ele><time>2026-05-03T11:51:33.275Z</time></trkpt><trkpt lat="44.2526683" lon="6.7521133"><ele>2096.4285714285716</ele><time>2026-05-03T11:51:34.275Z</time></trkpt><trkpt lat="44.2527117" lon="6.7520117"><ele>2096.5714285714284</ele><time>2026-05-03T11:51:35.276Z</time></trkpt><trkpt lat="44.2527533" lon="6.7519333"><ele>2096.7142857142853</ele><time>2026-05-03T11:51:36.275Z</time></trkpt><trkpt lat="44.2528017" lon="6.7518633"><ele>2096.8571428571427</ele><time>2026-05-03T11:51:37.276Z</time></trkpt><trkpt lat="44.25286" lon="6.7518033"><ele>2097.0</ele><time>2026-05-03T11:51:38.275Z</time></trkpt><trkpt lat="44.252915" lon="6.7517417"><ele>2095.285714285714</ele><time>2026-05-03T11:51:39.275Z</time></trkpt><trkpt lat="44.252975" lon="6.7516833"><ele>2093.5714285714284</ele><time>2026-05-03T11:51:40.275Z</time></trkpt><trkpt lat="44.25303" lon="6.7516217"><ele>2091.8571428571427</ele><time>2026-05-03T11:51:41.275Z</time></trkpt><trkpt lat="44.25308" lon="6.7515633"><ele>2090.142857142857</ele><time>2026-05-03T11:51:42.275Z</time></trkpt><trkpt lat="44.2531367" lon="6.7515117"><ele>2088.4285714285716</ele><time>2026-05-03T11:51:43.275Z</time></trkpt><trkpt lat="44.2531917" lon="6.7514483"><ele>2086.7142857142853</ele><time>2026-05-03T11:51:44.275Z</time></trkpt><trkpt lat="44.2532483" lon="6.7513767"><ele>2085.0</ele><time>2026-05-03T11:51:45.276Z</time></trkpt><trkpt lat="44.253305" lon="6.7513083"><ele>2089.285714285714</ele><time>2026-05-03T11:51:46.275Z</time></trkpt><trkpt lat="44.2533567" lon="6.75124"><ele>2093.5714285714284</ele><time>2026-05-03T11:51:47.275Z</time></trkpt><trkpt lat="44.2533983" lon="6.751165"><ele>2097.857142857143</ele><time>2026-05-03T11:51:48.275Z</time></trkpt><trkpt lat="44.2534267" lon="6.7510833"><ele>2102.142857142857</ele><time>2026-05-03T11:51:49.275Z</time></trkpt><trkpt lat="44.2534417" lon="6.7509967"><ele>2106.4285714285716</ele><time>2026-05-03T11:51:50.275Z</time></trkpt><trkpt lat="44.253455" lon="6.750905"><ele>2110.714285714286</ele><time>2026-05-03T11:51:51.275Z</time></trkpt><trkpt lat="44.25346" lon="6.750805"><ele>2115.0</ele><time>2026-05-03T11:51:52.275Z</time></trkpt><trkpt lat="44.25346" lon="6.750715"><ele>2115.0</ele><time>2026-05-03T11:51:53.275Z</time></trkpt><trkpt lat="44.2534533" lon="6.7505717"><ele>2115.0</ele><time>2026-05-03T11:51:55.276Z</time></trkpt><trkpt lat="44.2534217" lon="6.7504533"><ele>2115.0</ele><time>2026-05-03T11:51:58.275Z</time></trkpt><trkpt lat="44.2533583" lon="6.750405"><ele>2115.0</ele><time>2026-05-03T11:52:01.275Z</time></trkpt><trkpt lat="44.253325" lon="6.750495"><ele>2115.0</ele><time>2026-05-03T11:52:04.275Z</time></trkpt><trkpt lat="44.2533767" lon="6.7505667"><ele>2115.0</ele><time>2026-05-03T11:52:06.275Z</time></trkpt><trkpt lat="44.2534083" lon="6.7506683"><ele>2115.0</ele><time>2026-05-03T11:52:08.275Z</time></trkpt><trkpt lat="44.2534167" lon="6.7507667"><ele>2115.0</ele><time>2026-05-03T11:52:10.275Z</time></trkpt><trkpt lat="44.2534033" lon="6.7509017"><ele>2115.0</ele><time>2026-05-03T11:52:12.275Z</time></trkpt><trkpt lat="44.253385" lon="6.7509867"><ele>2115.0</ele><time>2026-05-03T11:52:13.275Z</time></trkpt><trkpt lat="44.2533633" lon="6.7510833"><ele>2115.0</ele><time>2026-05-03T11:52:14.276Z</time></trkpt><trkpt lat="44.2533217" lon="6.7511817"><ele>2115.0</ele><time>2026-05-03T11:52:15.275Z</time></trkpt><trkpt lat="44.2532767" lon="6.7512767"><ele>2115.6666666666665</ele><time>2026-05-03T11:52:16.275Z</time></trkpt><trkpt lat="44.2532267" lon="6.7513583"><ele>2116.3333333333335</ele><time>2026-05-03T11:52:17.275Z</time></trkpt><trkpt lat="44.253165" lon="6.7514267"><ele>2117.0</ele><time>2026-05-03T11:52:18.276Z</time></trkpt><trkpt lat="44.2531067" lon="6.7514933"><ele>2117.666666666667</ele><time>2026-05-03T11:52:19.275Z</time></trkpt><trkpt lat="44.2530483" lon="6.7515683"><ele>2118.3333333333335</ele><time>2026-05-03T11:52:20.276Z</time></trkpt><trkpt lat="44.25299" lon="6.751645"><ele>2119.0</ele><time>2026-05-03T11:52:21.275Z</time></trkpt><trkpt lat="44.2529283" lon="6.7517167"><ele>2115.3333333333335</ele><time>2026-05-03T11:52:22.276Z</time></trkpt><trkpt lat="44.252865" lon="6.751785"><ele>2111.666666666667</ele><time>2026-05-03T11:52:23.275Z</time></trkpt><trkpt lat="44.2528033" lon="6.7518567"><ele>2108.0</ele><time>2026-05-03T11:52:24.275Z</time></trkpt><trkpt lat="44.2527417" lon="6.7519333"><ele>2104.3333333333335</ele><time>2026-05-03T11:52:25.276Z</time></trkpt><trkpt lat="44.252685" lon="6.752025"><ele>2100.6666666666665</ele><time>2026-05-03T11:52:26.275Z</time></trkpt><trkpt lat="44.252635" lon="6.7521383"><ele>2097.0</ele><time>2026-05-03T11:52:27.275Z</time></trkpt><trkpt lat="44.2525833" lon="6.75225"><ele>2097.0</ele><time>2026-05-03T11:52:28.275Z</time></trkpt><trkpt lat="44.25253" lon="6.75236"><ele>2097.0</ele><time>2026-05-03T11:52:29.275Z</time></trkpt><trkpt lat="44.25248" lon="6.7524583"><ele>2097.0</ele><time>2026-05-03T11:52:30.275Z</time></trkpt><trkpt lat="44.2524317" lon="6.752555"><ele>2097.0</ele><time>2026-05-03T11:52:31.275Z</time></trkpt><trkpt lat="44.2523883" lon="6.752655"><ele>2097.0</ele><time>2026-05-03T11:52:32.275Z</time></trkpt><trkpt lat="44.2523433" lon="6.752765"><ele>2097.0</ele><time>2026-05-03T11:52:33.276Z</time></trkpt><trkpt lat="44.25231" lon="6.7528767"><ele>2096.8333333333335</ele><time>2026-05-03T11:52:34.275Z</time></trkpt><trkpt lat="44.2522867" lon="6.7529883"><ele>2096.6666666666665</ele><time>2026-05-03T11:52:35.275Z</time></trkpt><trkpt lat="44.25227" lon="6.7531033"><ele>2096.5</ele><time>2026-05-03T11:52:36.275Z</time></trkpt><trkpt lat="44.2522783" lon="6.7532083"><ele>2096.333333333333</ele><time>2026-05-03T11:52:37.275Z</time></trkpt><trkpt lat="44.2523" lon="6.7533267"><ele>2096.1666666666665</ele><time>2026-05-03T11:52:38.275Z</time></trkpt><trkpt lat="44.25234" lon="6.7534183"><ele>2096.0</ele><time>2026-05-03T11:52:39.275Z</time></trkpt><trkpt lat="44.25239" lon="6.7535017"><ele>2094.6666666666665</ele><time>2026-05-03T11:52:40.275Z</time></trkpt><trkpt lat="44.2524333" lon="6.7535883"><ele>2093.333333333333</ele><time>2026-05-03T11:52:41.276Z</time></trkpt><trkpt lat="44.2524717" lon="6.75368"><ele>2092.0</ele><time>2026-05-03T11:52:42.275Z</time></trkpt><trkpt lat="44.2525017" lon="6.7537667"><ele>2090.6666666666665</ele><time>2026-05-03T11:52:43.275Z</time></trkpt><trkpt lat="44.2525083" lon="6.7538733"><ele>2089.3333333333335</ele><time>2026-05-03T11:52:45.275Z</time></trkpt><trkpt lat="44.2525683" lon="6.7538283"><ele>2088.0</ele><time>2026-05-03T11:53:42.276Z</time></trkpt><trkpt lat="44.2525083" lon="6.7536917"><ele>2088.0</ele><time>2026-05-03T11:55:12.275Z</time></trkpt><trkpt lat="44.2524733" lon="6.753615"><ele>2088.0</ele><time>2026-05-03T11:55:13.275Z</time></trkpt><trkpt lat="44.2524333" lon="6.7535383"><ele>2088.0</ele><time>2026-05-03T11:55:14.275Z</time></trkpt><trkpt lat="44.252395" lon="6.7534583"><ele>2088.0</ele><time>2026-05-03T11:55:15.275Z</time></trkpt><trkpt lat="44.2523567" lon="6.7533783"><ele>2088.0</ele><time>2026-05-03T11:55:16.275Z</time></trkpt><trkpt lat="44.2523233" lon="6.7532933"><ele>2088.0</ele><time>2026-05-03T11:55:17.276Z</time></trkpt><trkpt lat="44.2522983" lon="6.7531967"><ele>2088.0</ele><time>2026-05-03T11:55:18.275Z</time></trkpt><trkpt lat="44.2522867" lon="6.7530867"><ele>2089.3333333333335</ele><time>2026-05-03T11:55:19.275Z</time></trkpt><trkpt lat="44.2522967" lon="6.75297"><ele>2090.6666666666665</ele><time>2026-05-03T11:55:20.275Z</time></trkpt><trkpt lat="44.2523217" lon="6.7528667"><ele>2092.0</ele><time>2026-05-03T11:55:21.275Z</time></trkpt><trkpt lat="44.2523617" lon="6.7527633"><ele>2093.333333333333</ele><time>2026-05-03T11:55:22.275Z</time></trkpt><trkpt lat="44.2524167" lon="6.7526617"><ele>2094.6666666666665</ele><time>2026-05-03T11:55:23.275Z</time></trkpt><trkpt lat="44.2524767" lon="6.7525583"><ele>2096.0</ele><time>2026-05-03T11:55:24.275Z</time></trkpt><trkpt lat="44.2525333" lon="6.752455"><ele>2096.2</ele><time>2026-05-03T11:55:25.276Z</time></trkpt><trkpt lat="44.252585" lon="6.7523467"><ele>2096.3999999999996</ele><time>2026-05-03T11:55:26.275Z</time></trkpt><trkpt lat="44.2526333" lon="6.7522367"><ele>2096.6</ele><time>2026-05-03T11:55:27.275Z</time></trkpt><trkpt lat="44.2526833" lon="6.7521333"><ele>2096.7999999999997</ele><time>2026-05-03T11:55:28.275Z</time></trkpt><trkpt lat="44.25274" lon="6.7520267"><ele>2097.0</ele><time>2026-05-03T11:55:29.276Z</time></trkpt><trkpt lat="44.252805" lon="6.751915"><ele>2094.6</ele><time>2026-05-03T11:55:30.275Z</time></trkpt><trkpt lat="44.2528767" lon="6.7518167"><ele>2092.2</ele><time>2026-05-03T11:55:31.275Z</time></trkpt><trkpt lat="44.2529533" lon="6.7517333"><ele>2089.8</ele><time>2026-05-03T11:55:32.275Z</time></trkpt><trkpt lat="44.2530283" lon="6.75165"><ele>2087.4</ele><time>2026-05-03T11:55:33.275Z</time></trkpt><trkpt lat="44.2531117" lon="6.7515533"><ele>2085.0</ele><time>2026-05-03T11:55:34.275Z</time></trkpt><trkpt lat="44.2531983" lon="6.7514567"><ele>2091.0</ele><time>2026-05-03T11:55:35.275Z</time></trkpt><trkpt lat="44.253285" lon="6.75136"><ele>2097.0</ele><time>2026-05-03T11:55:36.276Z</time></trkpt><trkpt lat="44.253365" lon="6.7512717"><ele>2103.0</ele><time>2026-05-03T11:55:37.275Z</time></trkpt><trkpt lat="44.25343" lon="6.75116"><ele>2109.0</ele><time>2026-05-03T11:55:38.275Z</time></trkpt><trkpt lat="44.2534683" lon="6.7510317"><ele>2115.0</ele><time>2026-05-03T11:55:39.275Z</time></trkpt><trkpt lat="44.2534883" lon="6.7508867"><ele>2115.0</ele><time>2026-05-03T11:55:40.276Z</time></trkpt><trkpt lat="44.25349" lon="6.7507417"><ele>2115.0</ele><time>2026-05-03T11:55:41.275Z</time></trkpt><trkpt lat="44.2534733" lon="6.7506"><ele>2115.0</ele><time>2026-05-03T11:55:42.275Z</time></trkpt><trkpt lat="44.2534267" lon="6.7504767"><ele>2115.0</ele><time>2026-05-03T11:55:43.275Z</time></trkpt><trkpt lat="44.2533417" lon="6.7503733"><ele>2115.0</ele><time>2026-05-03T11:55:44.275Z</time></trkpt><trkpt lat="44.25325" lon="6.7502967"><ele>2115.0</ele><time>2026-05-03T11:55:45.275Z</time></trkpt><trkpt lat="44.2531583" lon="6.7502183"><ele>2115.0</ele><time>2026-05-03T11:55:46.275Z</time></trkpt><trkpt lat="44.2530867" lon="6.7501517"><ele>2115.0</ele><time>2026-05-03T11:55:47.275Z</time></trkpt><trkpt lat="44.2530383" lon="6.750005"><ele>2115.0</ele><time>2026-05-03T11:55:49.275Z</time></trkpt><trkpt lat="44.2530783" lon="6.74991"><ele>2115.0</ele><time>2026-05-03T11:55:51.275Z</time></trkpt><trkpt lat="44.253195" lon="6.7499517"><ele>2115.2</ele><time>2026-05-03T11:55:53.276Z</time></trkpt><trkpt lat="44.2533" lon="6.7500083"><ele>2115.4</ele><time>2026-05-03T11:55:54.275Z</time></trkpt><trkpt lat="44.2534117" lon="6.7500467"><ele>2115.6</ele><time>2026-05-03T11:55:55.276Z</time></trkpt><trkpt lat="44.2535117" lon="6.7500567"><ele>2115.8</ele><time>2026-05-03T11:55:56.275Z</time></trkpt><trkpt lat="44.2536" lon="6.7500817"><ele>2116.0</ele><time>2026-05-03T11:55:57.275Z</time></trkpt><trkpt lat="44.253685" lon="6.7501333"><ele>2115.8</ele><time>2026-05-03T11:55:58.275Z</time></trkpt><trkpt lat="44.2537533" lon="6.7502183"><ele>2115.6</ele><time>2026-05-03T11:55:59.275Z</time></trkpt><trkpt lat="44.2538033" lon="6.7503317"><ele>2115.4</ele><time>2026-05-03T11:56:00.275Z</time></trkpt><trkpt lat="44.2538383" lon="6.7504667"><ele>2115.2</ele><time>2026-05-03T11:56:01.275Z</time></trkpt><trkpt lat="44.25385" lon="6.75061"><ele>2115.0</ele><time>2026-05-03T11:56:02.275Z</time></trkpt><trkpt lat="44.2538533" lon="6.7507517"><ele>2115.0</ele><time>2026-05-03T11:56:03.275Z</time></trkpt><trkpt lat="44.25384" lon="6.7508833"><ele>2115.0</ele><time>2026-05-03T11:56:04.275Z</time></trkpt><trkpt lat="44.2538017" lon="6.751015"><ele>2115.0</ele><time>2026-05-03T11:56:05.275Z</time></trkpt><trkpt lat="44.2537483" lon="6.7511283"><ele>2115.0</ele><time>2026-05-03T11:56:06.276Z</time></trkpt><trkpt lat="44.2536867" lon="6.7512483"><ele>2115.0</ele><time>2026-05-03T11:56:07.276Z</time></trkpt><trkpt lat="44.2536217" lon="6.75138"><ele>2115.8</ele><time>2026-05-03T11:56:08.276Z</time></trkpt><trkpt lat="44.2535517" lon="6.7515017"><ele>2116.6</ele><time>2026-05-03T11:56:09.275Z</time></trkpt><trkpt lat="44.2534967" lon="6.7516267"><ele>2117.4</ele><time>2026-05-03T11:56:10.275Z</time></trkpt><trkpt lat="44.25347" lon="6.7517483"><ele>2118.2</ele><time>2026-05-03T11:56:11.275Z</time></trkpt><trkpt lat="44.253475" lon="6.75188"><ele>2119.0</ele><time>2026-05-03T11:56:12.275Z</time></trkpt><trkpt lat="44.253485" lon="6.752005"><ele>2121.2</ele><time>2026-05-03T11:56:13.275Z</time></trkpt><trkpt lat="44.2534983" lon="6.75214"><ele>2123.4</ele><time>2026-05-03T11:56:14.275Z</time></trkpt><trkpt lat="44.2535217" lon="6.7522833"><ele>2125.6</ele><time>2026-05-03T11:56:15.275Z</time></trkpt><trkpt lat="44.2535333" lon="6.75243"><ele>2127.8</ele><time>2026-05-03T11:56:16.276Z</time></trkpt><trkpt lat="44.2535417" lon="6.75259"><ele>2130.0</ele><time>2026-05-03T11:56:17.275Z</time></trkpt><trkpt lat="44.2535467" lon="6.752755"><ele>2131.0</ele><time>2026-05-03T11:56:18.275Z</time></trkpt><trkpt lat="44.253565" lon="6.7529217"><ele>2132.0</ele><time>2026-05-03T11:56:19.275Z</time></trkpt><trkpt lat="44.25358" lon="6.7530917"><ele>2133.0</ele><time>2026-05-03T11:56:20.276Z</time></trkpt><trkpt lat="44.2535833" lon="6.7532517"><ele>2134.0</ele><time>2026-05-03T11:56:21.275Z</time></trkpt><trkpt lat="44.253595" lon="6.7533983"><ele>2134.0</ele><time>2026-05-03T11:56:22.275Z</time></trkpt><trkpt lat="44.2536383" lon="6.75353"><ele>2134.0</ele><time>2026-05-03T11:56:23.275Z</time></trkpt><trkpt lat="44.2536867" lon="6.753665"><ele>2134.0</ele><time>2026-05-03T11:56:24.275Z</time></trkpt><trkpt lat="44.25373" lon="6.7538033"><ele>2134.0</ele><time>2026-05-03T11:56:25.275Z</time></trkpt><trkpt lat="44.2537617" lon="6.7539433"><ele>2134.0</ele><time>2026-05-03T11:56:26.275Z</time></trkpt><trkpt lat="44.25376" lon="6.75408"><ele>2133.666666666667</ele><time>2026-05-03T11:56:27.275Z</time></trkpt><trkpt lat="44.253745" lon="6.75419"><ele>2133.3333333333335</ele><time>2026-05-03T11:56:28.275Z</time></trkpt><trkpt lat="44.2537317" lon="6.7542967"><ele>2133.0</ele><time>2026-05-03T11:56:29.275Z</time></trkpt><trkpt lat="44.2537383" lon="6.7543967"><ele>2132.6666666666665</ele><time>2026-05-03T11:56:30.275Z</time></trkpt><trkpt lat="44.2538067" lon="6.7544967"><ele>2132.333333333333</ele><time>2026-05-03T11:56:32.276Z</time></trkpt><trkpt lat="44.2538967" lon="6.75443"><ele>2132.0</ele><time>2026-05-03T11:56:34.275Z</time></trkpt><trkpt lat="44.2539217" lon="6.75432"><ele>2130.75</ele><time>2026-05-03T11:56:35.275Z</time></trkpt><trkpt lat="44.253915" lon="6.75416"><ele>2129.5</ele><time>2026-05-03T11:56:36.275Z</time></trkpt><trkpt lat="44.2539017" lon="6.7540017"><ele>2128.25</ele><time>2026-05-03T11:56:37.276Z</time></trkpt><trkpt lat="44.253885" lon="6.7538367"><ele>2127.0</ele><time>2026-05-03T11:56:38.276Z</time></trkpt><trkpt lat="44.2538633" lon="6.7536683"><ele>2128.75</ele><time>2026-05-03T11:56:39.275Z</time></trkpt><trkpt lat="44.25384" lon="6.7535"><ele>2130.5</ele><time>2026-05-03T11:56:40.275Z</time></trkpt><trkpt lat="44.25383" lon="6.7533333"><ele>2132.25</ele><time>2026-05-03T11:56:41.275Z</time></trkpt><trkpt lat="44.2538383" lon="6.7531833"><ele>2134.0</ele><time>2026-05-03T11:56:42.275Z</time></trkpt><trkpt lat="44.2538767" lon="6.7530433"><ele>2134.0</ele><time>2026-05-03T11:56:43.276Z</time></trkpt><trkpt lat="44.25394" lon="6.7529"><ele>2134.0</ele><time>2026-05-03T11:56:44.275Z</time></trkpt><trkpt lat="44.25403" lon="6.7527533"><ele>2134.0</ele><time>2026-05-03T11:56:45.275Z</time></trkpt><trkpt lat="44.2541283" lon="6.75262"><ele>2134.0</ele><time>2026-05-03T11:56:46.275Z</time></trkpt><trkpt lat="44.2542383" lon="6.752495"><ele>2141.25</ele><time>2026-05-03T11:56:47.275Z</time></trkpt><trkpt lat="44.254355" lon="6.7523733"><ele>2148.5</ele><time>2026-05-03T11:56:48.275Z</time></trkpt><trkpt lat="44.2544667" lon="6.7522567"><ele>2155.75</ele><time>2026-05-03T11:56:49.276Z</time></trkpt><trkpt lat="44.254565" lon="6.752135"><ele>2163.0</ele><time>2026-05-03T11:56:50.275Z</time></trkpt><trkpt lat="44.2546467" lon="6.7520033"><ele>2160.25</ele><time>2026-05-03T11:56:51.275Z</time></trkpt><trkpt lat="44.2547283" lon="6.75186"><ele>2157.5</ele><time>2026-05-03T11:56:52.275Z</time></trkpt><trkpt lat="44.2547867" lon="6.751725"><ele>2154.75</ele><time>2026-05-03T11:56:53.275Z</time></trkpt><trkpt lat="44.2548233" lon="6.75157"><ele>2152.0</ele><time>2026-05-03T11:56:54.275Z</time></trkpt><trkpt lat="44.254825" lon="6.7513967"><ele>2152.0</ele><time>2026-05-03T11:56:55.275Z</time></trkpt><trkpt lat="44.254805" lon="6.751225"><ele>2152.0</ele><time>2026-05-03T11:56:56.276Z</time></trkpt><trkpt lat="44.2547683" lon="6.7510483"><ele>2152.0</ele><time>2026-05-03T11:56:57.275Z</time></trkpt><trkpt lat="44.2547383" lon="6.75087"><ele>2152.0</ele><time>2026-05-03T11:56:58.275Z</time></trkpt><trkpt lat="44.2547017" lon="6.75069"><ele>2150.5</ele><time>2026-05-03T11:56:59.275Z</time></trkpt><trkpt lat="44.2546633" lon="6.75053"><ele>2149.0</ele><time>2026-05-03T11:57:00.275Z</time></trkpt><trkpt lat="44.254625" lon="6.7503733"><ele>2147.5</ele><time>2026-05-03T11:57:01.275Z</time></trkpt><trkpt lat="44.2545867" lon="6.75022"><ele>2146.0</ele><time>2026-05-03T11:57:02.276Z</time></trkpt><trkpt lat="44.25456" lon="6.7500583"><ele>2150.75</ele><time>2026-05-03T11:57:03.275Z</time></trkpt><trkpt lat="44.254545" lon="6.7498967"><ele>2155.5</ele><time>2026-05-03T11:57:04.275Z</time></trkpt><trkpt lat="44.2545283" lon="6.7497367"><ele>2160.25</ele><time>2026-05-03T11:57:05.275Z</time></trkpt><trkpt lat="44.2545333" lon="6.74957"><ele>2165.0</ele><time>2026-05-03T11:57:06.275Z</time></trkpt><trkpt lat="44.2545417" lon="6.7493967"><ele>2169.25</ele><time>2026-05-03T11:57:07.275Z</time></trkpt><trkpt lat="44.25455" lon="6.7492333"><ele>2173.5</ele><time>2026-05-03T11:57:08.275Z</time></trkpt><trkpt lat="44.25454" lon="6.7490433"><ele>2177.75</ele><time>2026-05-03T11:57:09.275Z</time></trkpt><trkpt lat="44.2545167" lon="6.7488633"><ele>2182.0</ele><time>2026-05-03T11:57:10.275Z</time></trkpt><trkpt lat="44.2544767" lon="6.7486917"><ele>2186.0</ele><time>2026-05-03T11:57:11.275Z</time></trkpt><trkpt lat="44.254405" lon="6.74854"><ele>2190.0</ele><time>2026-05-03T11:57:12.275Z</time></trkpt><trkpt lat="44.254355" lon="6.748385"><ele>2194.0</ele><time>2026-05-03T11:57:13.275Z</time></trkpt><trkpt lat="44.25429" lon="6.7482333"><ele>2198.0</ele><time>2026-05-03T11:57:14.275Z</time></trkpt><trkpt lat="44.2542233" lon="6.7480817"><ele>2198.0</ele><time>2026-05-03T11:57:15.275Z</time></trkpt><trkpt lat="44.254145" lon="6.7479533"><ele>2198.0</ele><time>2026-05-03T11:57:16.275Z</time></trkpt><trkpt lat="44.25406" lon="6.7478733"><ele>2198.0</ele><time>2026-05-03T11:57:17.275Z</time></trkpt><trkpt lat="44.25396" lon="6.7478433"><ele>2198.0</ele><time>2026-05-03T11:57:18.275Z</time></trkpt><trkpt lat="44.253835" lon="6.7478667"><ele>2193.8</ele><time>2026-05-03T11:57:19.275Z</time></trkpt><trkpt lat="44.25372" lon="6.7479133"><ele>2189.6000000000004</ele><time>2026-05-03T11:57:20.275Z</time></trkpt><trkpt lat="44.2536233" lon="6.7479817"><ele>2185.3999999999996</ele><time>2026-05-03T11:57:21.275Z</time></trkpt><trkpt lat="44.253535" lon="6.7480083"><ele>2181.2</ele><time>2026-05-03T11:57:22.275Z</time></trkpt><trkpt lat="44.2534617" lon="6.7480117"><ele>2177.0</ele><time>2026-05-03T11:57:23.275Z</time></trkpt><trkpt lat="44.2534" lon="6.7479883"><ele>2177.0</ele><time>2026-05-03T11:57:24.275Z</time></trkpt><trkpt lat="44.2533667" lon="6.74791"><ele>2177.0</ele><time>2026-05-03T11:57:25.275Z</time></trkpt><trkpt lat="44.2533783" lon="6.7478167"><ele>2177.0</ele><time>2026-05-03T11:57:26.275Z</time></trkpt><trkpt lat="44.25343" lon="6.7477"><ele>2177.0</ele><time>2026-05-03T11:57:27.275Z</time></trkpt><trkpt lat="44.2535" lon="6.7476133"><ele>2177.0</ele><time>2026-05-03T11:57:28.275Z</time></trkpt><trkpt lat="44.2536" lon="6.7475383"><ele>2177.0</ele><time>2026-05-03T11:57:29.275Z</time></trkpt><trkpt lat="44.253705" lon="6.7474817"><ele>2183.0</ele><time>2026-05-03T11:57:30.276Z</time></trkpt><trkpt lat="44.2538167" lon="6.7474283"><ele>2189.0</ele><time>2026-05-03T11:57:31.275Z</time></trkpt><trkpt lat="44.2539267" lon="6.7474067"><ele>2195.0</ele><time>2026-05-03T11:57:32.275Z</time></trkpt><trkpt lat="44.2540367" lon="6.7474183"><ele>2201.0</ele><time>2026-05-03T11:57:33.275Z</time></trkpt><trkpt lat="44.254145" lon="6.7474533"><ele>2200.25</ele><time>2026-05-03T11:57:34.276Z</time></trkpt><trkpt lat="44.2542417" lon="6.747525"><ele>2199.5</ele><time>2026-05-03T11:57:35.275Z</time></trkpt><trkpt lat="44.2543267" lon="6.74763"><ele>2198.75</ele><time>2026-05-03T11:57:36.275Z</time></trkpt><trkpt lat="44.2544083" lon="6.7477683"><ele>2198.0</ele><time>2026-05-03T11:57:37.275Z</time></trkpt><trkpt lat="44.2544883" lon="6.7479"><ele>2198.0</ele><time>2026-05-03T11:57:38.275Z</time></trkpt><trkpt lat="44.2545717" lon="6.74804"><ele>2198.0</ele><time>2026-05-03T11:57:39.275Z</time></trkpt><trkpt lat="44.254655" lon="6.7481833"><ele>2198.0</ele><time>2026-05-03T11:57:40.275Z</time></trkpt><trkpt lat="44.2547433" lon="6.7483217"><ele>2198.0</ele><time>2026-05-03T11:57:41.275Z</time></trkpt><trkpt lat="44.2548217" lon="6.7484667"><ele>2204.5</ele><time>2026-05-03T11:57:42.275Z</time></trkpt><trkpt lat="44.2549" lon="6.74861"><ele>2211.0</ele><time>2026-05-03T11:57:43.275Z</time></trkpt><trkpt lat="44.254965" lon="6.7487567"><ele>2217.5</ele><time>2026-05-03T11:57:44.275Z</time></trkpt><trkpt lat="44.2550167" lon="6.7489183"><ele>2224.0</ele><time>2026-05-03T11:57:45.276Z</time></trkpt><trkpt lat="44.2550483" lon="6.7491017"><ele>2224.0</ele><time>2026-05-03T11:57:46.275Z</time></trkpt><trkpt lat="44.255075" lon="6.7492867"><ele>2224.0</ele><time>2026-05-03T11:57:47.275Z</time></trkpt><trkpt lat="44.2551017" lon="6.7494783"><ele>2224.0</ele><time>2026-05-03T11:57:48.275Z</time></trkpt><trkpt lat="44.255125" lon="6.7496583"><ele>2224.0</ele><time>2026-05-03T11:57:49.275Z</time></trkpt><trkpt lat="44.2551517" lon="6.749825"><ele>2222.0</ele><time>2026-05-03T11:57:50.275Z</time></trkpt><trkpt lat="44.2551817" lon="6.7499833"><ele>2220.0</ele><time>2026-05-03T11:57:51.275Z</time></trkpt><trkpt lat="44.2552" lon="6.750125"><ele>2218.0</ele><time>2026-05-03T11:57:52.275Z</time></trkpt><trkpt lat="44.2552267" lon="6.7502617"><ele>2216.0</ele><time>2026-05-03T11:57:53.275Z</time></trkpt><trkpt lat="44.2552783" lon="6.7504"><ele>2214.0</ele><time>2026-05-03T11:57:54.275Z</time></trkpt><trkpt lat="44.25534" lon="6.7505383"><ele>2211.8</ele><time>2026-05-03T11:57:55.275Z</time></trkpt><trkpt lat="44.25539" lon="6.750675"><ele>2209.6000000000004</ele><time>2026-05-03T11:57:56.275Z</time></trkpt><trkpt lat="44.25542" lon="6.75082"><ele>2207.4</ele><time>2026-05-03T11:57:57.276Z</time></trkpt><trkpt lat="44.2554383" lon="6.75097"><ele>2205.2000000000003</ele><time>2026-05-03T11:57:58.275Z</time></trkpt><trkpt lat="44.2554567" lon="6.75112"><ele>2203.0</ele><time>2026-05-03T11:57:59.276Z</time></trkpt><trkpt lat="44.2554817" lon="6.7512783"><ele>2201.8</ele><time>2026-05-03T11:58:00.275Z</time></trkpt><trkpt lat="44.2555283" lon="6.751425"><ele>2200.6000000000004</ele><time>2026-05-03T11:58:01.275Z</time></trkpt><trkpt lat="44.2555933" lon="6.7515583"><ele>2199.3999999999996</ele><time>2026-05-03T11:58:02.275Z</time></trkpt><trkpt lat="44.2556717" lon="6.75167"><ele>2198.2</ele><time>2026-05-03T11:58:03.276Z</time></trkpt><trkpt lat="44.25575" lon="6.7517617"><ele>2197.0</ele><time>2026-05-03T11:58:04.275Z</time></trkpt><trkpt lat="44.2558317" lon="6.751835"><ele>2204.0</ele><time>2026-05-03T11:58:05.275Z</time></trkpt><trkpt lat="44.2559017" lon="6.75187"><ele>2211.0</ele><time>2026-05-03T11:58:06.275Z</time></trkpt><trkpt lat="44.2559933" lon="6.7517883"><ele>2218.0</ele><time>2026-05-03T11:58:08.276Z</time></trkpt><trkpt lat="44.2559933" lon="6.751695"><ele>2225.0</ele><time>2026-05-03T11:58:09.275Z</time></trkpt><trkpt lat="44.2559617" lon="6.7516017"><ele>2232.0</ele><time>2026-05-03T11:58:10.275Z</time></trkpt><trkpt lat="44.25588" lon="6.7515233"><ele>2239.0</ele><time>2026-05-03T11:58:11.275Z</time></trkpt><trkpt lat="44.2557717" lon="6.7514583"><ele>2239.0</ele><time>2026-05-03T11:58:12.275Z</time></trkpt><trkpt lat="44.2556867" lon="6.7513883"><ele>2239.0</ele><time>2026-05-03T11:58:13.276Z</time></trkpt><trkpt lat="44.25562" lon="6.7513083"><ele>2239.0</ele><time>2026-05-03T11:58:14.275Z</time></trkpt><trkpt lat="44.2555783" lon="6.7512083"><ele>2239.0</ele><time>2026-05-03T11:58:15.275Z</time></trkpt><trkpt lat="44.2555517" lon="6.7510917"><ele>2239.0</ele><time>2026-05-03T11:58:16.275Z</time></trkpt><trkpt lat="44.2555417" lon="6.75097"><ele>2239.0</ele><time>2026-05-03T11:58:17.276Z</time></trkpt><trkpt lat="44.2555617" lon="6.7508467"><ele>2240.8</ele><time>2026-05-03T11:58:18.275Z</time></trkpt><trkpt lat="44.2556067" lon="6.7507433"><ele>2242.6000000000004</ele><time>2026-05-03T11:58:19.275Z</time></trkpt><trkpt lat="44.2556667" lon="6.7506317"><ele>2244.4</ele><time>2026-05-03T11:58:20.275Z</time></trkpt><trkpt lat="44.255705" lon="6.7504917"><ele>2246.2000000000003</ele><time>2026-05-03T11:58:21.275Z</time></trkpt><trkpt lat="44.25571" lon="6.750335"><ele>2248.0</ele><time>2026-05-03T11:58:22.275Z</time></trkpt><trkpt lat="44.2556867" lon="6.75019"><ele>2251.4</ele><time>2026-05-03T11:58:23.276Z</time></trkpt><trkpt lat="44.2556517" lon="6.7500533"><ele>2254.8</ele><time>2026-05-03T11:58:24.275Z</time></trkpt><trkpt lat="44.2556083" lon="6.7499183"><ele>2258.2</ele><time>2026-05-03T11:58:25.275Z</time></trkpt><trkpt lat="44.2555633" lon="6.7498117"><ele>2261.6</ele><time>2026-05-03T11:58:26.275Z</time></trkpt><trkpt lat="44.255535" lon="6.7496983"><ele>2265.0</ele><time>2026-05-03T11:58:27.275Z</time></trkpt><trkpt lat="44.255525" lon="6.749575"><ele>2256.8</ele><time>2026-05-03T11:58:28.275Z</time></trkpt><trkpt lat="44.25553" lon="6.749445"><ele>2248.6</ele><time>2026-05-03T11:58:29.275Z</time></trkpt><trkpt lat="44.2555433" lon="6.7492983"><ele>2240.4</ele><time>2026-05-03T11:58:30.275Z</time></trkpt><trkpt lat="44.2555667" lon="6.7491367"><ele>2232.2</ele><time>2026-05-03T11:58:31.275Z</time></trkpt><trkpt lat="44.2555833" lon="6.7489817"><ele>2224.0</ele><time>2026-05-03T11:58:32.275Z</time></trkpt><trkpt lat="44.2556" lon="6.74883"><ele>2224.0</ele><time>2026-05-03T11:58:33.275Z</time></trkpt><trkpt lat="44.2556133" lon="6.748675"><ele>2224.0</ele><time>2026-05-03T11:58:34.275Z</time></trkpt><trkpt lat="44.25562" lon="6.7485033"><ele>2224.0</ele><time>2026-05-03T11:58:35.275Z</time></trkpt><trkpt lat="44.2556133" lon="6.7483233"><ele>2224.0</ele><time>2026-05-03T11:58:36.275Z</time></trkpt><trkpt lat="44.255595" lon="6.74813"><ele>2227.0</ele><time>2026-05-03T11:58:37.275Z</time></trkpt><trkpt lat="44.2555683" lon="6.747945"><ele>2230.0</ele><time>2026-05-03T11:58:38.275Z</time></trkpt><trkpt lat="44.2555417" lon="6.74776"><ele>2233.0</ele><time>2026-05-03T11:58:39.275Z</time></trkpt><trkpt lat="44.2555133" lon="6.7475867"><ele>2236.0</ele><time>2026-05-03T11:58:40.276Z</time></trkpt><trkpt lat="44.2554967" lon="6.7474283"><ele>2240.0</ele><time>2026-05-03T11:58:41.275Z</time></trkpt><trkpt lat="44.2554883" lon="6.7472717"><ele>2244.0</ele><time>2026-05-03T11:58:42.275Z</time></trkpt><trkpt lat="44.2555033" lon="6.7471167"><ele>2248.0</ele><time>2026-05-03T11:58:43.275Z</time></trkpt><trkpt lat="44.255525" lon="6.7469617"><ele>2252.0</ele><time>2026-05-03T11:58:44.275Z</time></trkpt><trkpt lat="44.2555533" lon="6.7468033"><ele>2255.25</ele><time>2026-05-03T11:58:45.275Z</time></trkpt><trkpt lat="44.25559" lon="6.7466317"><ele>2258.5</ele><time>2026-05-03T11:58:46.275Z</time></trkpt><trkpt lat="44.25559" lon="6.746475"><ele>2261.75</ele><time>2026-05-03T11:58:47.275Z</time></trkpt><trkpt lat="44.2555817" lon="6.746325"><ele>2265.0</ele><time>2026-05-03T11:58:48.275Z</time></trkpt><trkpt lat="44.255555" lon="6.74618"><ele>2268.0</ele><time>2026-05-03T11:58:49.275Z</time></trkpt><trkpt lat="44.2555033" lon="6.7460433"><ele>2271.0</ele><time>2026-05-03T11:58:50.275Z</time></trkpt><trkpt lat="44.2554367" lon="6.7459167"><ele>2274.0</ele><time>2026-05-03T11:58:51.275Z</time></trkpt><trkpt lat="44.255365" lon="6.7458083"><ele>2277.0</ele><time>2026-05-03T11:58:52.275Z</time></trkpt><trkpt lat="44.255275" lon="6.7457033"><ele>2280.0</ele><time>2026-05-03T11:58:53.275Z</time></trkpt><trkpt lat="44.2551883" lon="6.7456083"><ele>2280.0</ele><time>2026-05-03T11:58:54.275Z</time></trkpt><trkpt lat="44.2551" lon="6.7455133"><ele>2280.0</ele><time>2026-05-03T11:58:55.275Z</time></trkpt><trkpt lat="44.255005" lon="6.7454167"><ele>2280.0</ele><time>2026-05-03T11:58:56.275Z</time></trkpt><trkpt lat="44.2549133" lon="6.7453283"><ele>2280.0</ele><time>2026-05-03T11:58:57.275Z</time></trkpt><trkpt lat="44.2548333" lon="6.7452433"><ele>2280.0</ele><time>2026-05-03T11:58:58.275Z</time></trkpt><trkpt lat="44.2547783" lon="6.74515"><ele>2281.8333333333335</ele><time>2026-05-03T11:58:59.275Z</time></trkpt><trkpt lat="44.2547383" lon="6.7450483"><ele>2283.6666666666665</ele><time>2026-05-03T11:59:00.275Z</time></trkpt><trkpt lat="44.254755" lon="6.7449067"><ele>2285.5</ele><time>2026-05-03T11:59:02.275Z</time></trkpt><trkpt lat="44.2548767" lon="6.744895"><ele>2287.333333333333</ele><time>2026-05-03T11:59:04.275Z</time></trkpt><trkpt lat="44.254935" lon="6.744935"><ele>2289.1666666666665</ele><time>2026-05-03T11:59:05.275Z</time></trkpt><trkpt lat="44.2549783" lon="6.7450167"><ele>2291.0</ele><time>2026-05-03T11:59:06.275Z</time></trkpt><trkpt lat="44.2550267" lon="6.745125"><ele>2288.8</ele><time>2026-05-03T11:59:07.276Z</time></trkpt><trkpt lat="44.25508" lon="6.745225"><ele>2286.6</ele><time>2026-05-03T11:59:08.275Z</time></trkpt><trkpt lat="44.25515" lon="6.7453217"><ele>2284.4</ele><time>2026-05-03T11:59:09.275Z</time></trkpt><trkpt lat="44.2552383" lon="6.7453983"><ele>2282.2</ele><time>2026-05-03T11:59:10.275Z</time></trkpt><trkpt lat="44.2553317" lon="6.745465"><ele>2280.0</ele><time>2026-05-03T11:59:11.275Z</time></trkpt><trkpt lat="44.2554267" lon="6.74553"><ele>2280.0</ele><time>2026-05-03T11:59:12.276Z</time></trkpt><trkpt lat="44.255525" lon="6.7455983"><ele>2280.0</ele><time>2026-05-03T11:59:13.275Z</time></trkpt><trkpt lat="44.2556233" lon="6.7456467"><ele>2280.0</ele><time>2026-05-03T11:59:14.275Z</time></trkpt><trkpt lat="44.255725" lon="6.7456867"><ele>2280.0</ele><time>2026-05-03T11:59:15.275Z</time></trkpt><trkpt lat="44.255835" lon="6.7457083"><ele>2280.0</ele><time>2026-05-03T11:59:16.275Z</time></trkpt><trkpt lat="44.2559467" lon="6.745695"><ele>2283.25</ele><time>2026-05-03T11:59:17.275Z</time></trkpt><trkpt lat="44.2560567" lon="6.745665"><ele>2286.5</ele><time>2026-05-03T11:59:18.275Z</time></trkpt><trkpt lat="44.2561467" lon="6.7455833"><ele>2289.75</ele><time>2026-05-03T11:59:19.275Z</time></trkpt><trkpt lat="44.256245" lon="6.745495"><ele>2293.0</ele><time>2026-05-03T11:59:20.275Z</time></trkpt><trkpt lat="44.2563433" lon="6.7453983"><ele>2293.0</ele><time>2026-05-03T11:59:21.275Z</time></trkpt><trkpt lat="44.25644" lon="6.7453067"><ele>2293.0</ele><time>2026-05-03T11:59:22.275Z</time></trkpt><trkpt lat="44.2565283" lon="6.7452317"><ele>2293.0</ele><time>2026-05-03T11:59:23.275Z</time></trkpt><trkpt lat="44.2566067" lon="6.7451633"><ele>2293.0</ele><time>2026-05-03T11:59:24.276Z</time></trkpt><trkpt lat="44.2566833" lon="6.7451167"><ele>2293.0</ele><time>2026-05-03T11:59:25.275Z</time></trkpt><trkpt lat="44.256765" lon="6.7450817"><ele>2295.8</ele><time>2026-05-03T11:59:26.275Z</time></trkpt><trkpt lat="44.2568533" lon="6.745075"><ele>2298.6000000000004</ele><time>2026-05-03T11:59:27.275Z</time></trkpt><trkpt lat="44.2569417" lon="6.7450983"><ele>2301.3999999999996</ele><time>2026-05-03T11:59:28.275Z</time></trkpt><trkpt lat="44.2570317" lon="6.745155"><ele>2304.2</ele><time>2026-05-03T11:59:29.275Z</time></trkpt><trkpt lat="44.2571267" lon="6.745215"><ele>2307.0</ele><time>2026-05-03T11:59:30.275Z</time></trkpt><trkpt lat="44.257235" lon="6.7452483"><ele>2308.4</ele><time>2026-05-03T11:59:31.276Z</time></trkpt><trkpt lat="44.257345" lon="6.7452467"><ele>2309.7999999999997</ele><time>2026-05-03T11:59:32.275Z</time></trkpt><trkpt lat="44.257455" lon="6.7452267"><ele>2311.2</ele><time>2026-05-03T11:59:33.275Z</time></trkpt><trkpt lat="44.2575617" lon="6.7452"><ele>2312.6</ele><time>2026-05-03T11:59:34.275Z</time></trkpt><trkpt lat="44.2576717" lon="6.7451583"><ele>2314.0</ele><time>2026-05-03T11:59:35.275Z</time></trkpt><trkpt lat="44.2577883" lon="6.745105"><ele>2314.0</ele><time>2026-05-03T11:59:36.275Z</time></trkpt><trkpt lat="44.2579083" lon="6.745045"><ele>2314.0</ele><time>2026-05-03T11:59:37.275Z</time></trkpt><trkpt lat="44.25802" lon="6.7449667"><ele>2314.0</ele><time>2026-05-03T11:59:38.275Z</time></trkpt><trkpt lat="44.2581283" lon="6.7448617"><ele>2314.0</ele><time>2026-05-03T11:59:39.275Z</time></trkpt><trkpt lat="44.2582417" lon="6.7447583"><ele>2315.75</ele><time>2026-05-03T11:59:40.275Z</time></trkpt><trkpt lat="44.2583383" lon="6.7446517"><ele>2317.5</ele><time>2026-05-03T11:59:41.275Z</time></trkpt><trkpt lat="44.2584433" lon="6.74454"><ele>2319.25</ele><time>2026-05-03T11:59:42.275Z</time></trkpt><trkpt lat="44.2585367" lon="6.7444417"><ele>2321.0</ele><time>2026-05-03T11:59:43.275Z</time></trkpt><trkpt lat="44.2586283" lon="6.7443567"><ele>2321.0</ele><time>2026-05-03T11:59:44.275Z</time></trkpt><trkpt lat="44.2587183" lon="6.744285"><ele>2321.0</ele><time>2026-05-03T11:59:45.275Z</time></trkpt><trkpt lat="44.2587967" lon="6.7442083"><ele>2321.0</ele><time>2026-05-03T11:59:46.275Z</time></trkpt><trkpt lat="44.2588717" lon="6.7441417"><ele>2321.0</ele><time>2026-05-03T11:59:47.276Z</time></trkpt><trkpt lat="44.25894" lon="6.74409"><ele>2321.0</ele><time>2026-05-03T11:59:48.275Z</time></trkpt><trkpt lat="44.259" lon="6.7440567"><ele>2321.0</ele><time>2026-05-03T11:59:49.275Z</time></trkpt><trkpt lat="44.2591" lon="6.7440083"><ele>2322.0</ele><time>2026-05-03T11:59:51.276Z</time></trkpt><trkpt lat="44.2591767" lon="6.74396"><ele>2323.0</ele><time>2026-05-03T11:59:53.275Z</time></trkpt><trkpt lat="44.2592517" lon="6.7439617"><ele>2324.0</ele><time>2026-05-03T11:59:56.275Z</time></trkpt><trkpt lat="44.259315" lon="6.7439283"><ele>2325.0</ele><time>2026-05-03T12:00:00.275Z</time></trkpt><trkpt lat="44.2593767" lon="6.7438933"><ele>2326.0</ele><time>2026-05-03T12:00:15.275Z</time></trkpt><trkpt lat="44.2594433" lon="6.7438617"><ele>2327.0</ele><time>2026-05-03T12:00:16.275Z</time></trkpt><trkpt lat="44.25952" lon="6.7438333"><ele>2328.0</ele><time>2026-05-03T12:00:17.275Z</time></trkpt><trkpt lat="44.2595883" lon="6.7438117"><ele>2328.0</ele><time>2026-05-03T12:00:18.275Z</time></trkpt><trkpt lat="44.2596583" lon="6.7437817"><ele>2328.0</ele><time>2026-05-03T12:00:19.275Z</time></trkpt><trkpt lat="44.2597217" lon="6.7437533"><ele>2328.0</ele><time>2026-05-03T12:00:20.276Z</time></trkpt><trkpt lat="44.25982" lon="6.7437017"><ele>2328.0</ele><time>2026-05-03T12:00:22.275Z</time></trkpt><trkpt lat="44.2598817" lon="6.74375"><ele>2328.0</ele><time>2026-05-03T12:00:26.275Z</time></trkpt><trkpt lat="44.2598383" lon="6.74387"><ele>2328.0</ele><time>2026-05-03T12:00:29.276Z</time></trkpt><trkpt lat="44.2597617" lon="6.7439483"><ele>2328.0</ele><time>2026-05-03T12:00:31.275Z</time></trkpt><trkpt lat="44.2596933" lon="6.7439917"><ele>2328.0</ele><time>2026-05-03T12:00:33.275Z</time></trkpt><trkpt lat="44.2596267" lon="6.7440317"><ele>2328.0</ele><time>2026-05-03T12:00:35.275Z</time></trkpt><trkpt lat="44.2595517" lon="6.7440483"><ele>2328.0</ele><time>2026-05-03T12:04:33.275Z</time></trkpt><trkpt lat="44.2594833" lon="6.7440683"><ele>2328.0</ele><time>2026-05-03T12:04:34.275Z</time></trkpt><trkpt lat="44.2594133" lon="6.7440733"><ele>2328.0</ele><time>2026-05-03T12:04:35.275Z</time></trkpt><trkpt lat="44.2593233" lon="6.7440733"><ele>2328.0</ele><time>2026-05-03T12:04:37.276Z</time></trkpt><trkpt lat="44.259285" lon="6.74399"><ele>2328.0</ele><time>2026-05-03T12:04:40.275Z</time></trkpt><trkpt lat="44.2593283" lon="6.7439217"><ele>2328.0</ele><time>2026-05-03T12:04:42.275Z</time></trkpt><trkpt lat="44.2594617" lon="6.7438667"><ele>2328.0</ele><time>2026-05-03T12:04:44.275Z</time></trkpt><trkpt lat="44.2595467" lon="6.743835"><ele>2328.0</ele><time>2026-05-03T12:04:45.276Z</time></trkpt><trkpt lat="44.2596333" lon="6.7438083"><ele>2328.0</ele><time>2026-05-03T12:04:46.275Z</time></trkpt><trkpt lat="44.259715" lon="6.7437733"><ele>2328.0</ele><time>2026-05-03T12:04:47.275Z</time></trkpt><trkpt lat="44.2597933" lon="6.74374"><ele>2328.0</ele><time>2026-05-03T12:04:48.275Z</time></trkpt><trkpt lat="44.2598617" lon="6.7436967"><ele>2328.0</ele><time>2026-05-03T12:04:49.275Z</time></trkpt><trkpt lat="44.2599317" lon="6.74366"><ele>2328.0</ele><time>2026-05-03T12:04:50.275Z</time></trkpt><trkpt lat="44.26" lon="6.743615"><ele>2328.0</ele><time>2026-05-03T12:04:51.275Z</time></trkpt><trkpt lat="44.2600767" lon="6.743565"><ele>2327.6</ele><time>2026-05-03T12:04:52.275Z</time></trkpt><trkpt lat="44.260155" lon="6.743505"><ele>2327.2000000000003</ele><time>2026-05-03T12:04:53.275Z</time></trkpt><trkpt lat="44.26023" lon="6.7434217"><ele>2326.8</ele><time>2026-05-03T12:04:54.275Z</time></trkpt><trkpt lat="44.2603" lon="6.74333"><ele>2326.4</ele><time>2026-05-03T12:04:55.275Z</time></trkpt><trkpt lat="44.2603783" lon="6.7432283"><ele>2326.0</ele><time>2026-05-03T12:04:56.275Z</time></trkpt><trkpt lat="44.2604533" lon="6.74313"><ele>2326.0</ele><time>2026-05-03T12:04:57.275Z</time></trkpt><trkpt lat="44.2605433" lon="6.7430467"><ele>2326.0</ele><time>2026-05-03T12:04:58.276Z</time></trkpt><trkpt lat="44.2606417" lon="6.74296"><ele>2326.0</ele><time>2026-05-03T12:04:59.275Z</time></trkpt><trkpt lat="44.2607333" lon="6.74288"><ele>2326.0</ele><time>2026-05-03T12:05:00.275Z</time></trkpt><trkpt lat="44.2608267" lon="6.742805"><ele>2326.0</ele><time>2026-05-03T12:05:01.275Z</time></trkpt><trkpt lat="44.26092" lon="6.7427383"><ele>2324.6</ele><time>2026-05-03T12:05:02.275Z</time></trkpt><trkpt lat="44.26102" lon="6.7426683"><ele>2323.2</ele><time>2026-05-03T12:05:03.275Z</time></trkpt><trkpt lat="44.2611233" lon="6.7426117"><ele>2321.8</ele><time>2026-05-03T12:05:04.276Z</time></trkpt><trkpt lat="44.2612283" lon="6.7425683"><ele>2320.4</ele><time>2026-05-03T12:05:05.275Z</time></trkpt><trkpt lat="44.2613367" lon="6.7425117"><ele>2319.0</ele><time>2026-05-03T12:05:06.275Z</time></trkpt><trkpt lat="44.2614483" lon="6.7424617"><ele>2316.0</ele><time>2026-05-03T12:05:07.275Z</time></trkpt><trkpt lat="44.261565" lon="6.7424317"><ele>2313.0</ele><time>2026-05-03T12:05:08.275Z</time></trkpt><trkpt lat="44.26168" lon="6.7424067"><ele>2310.0</ele><time>2026-05-03T12:05:09.275Z</time></trkpt><trkpt lat="44.2617967" lon="6.7424033"><ele>2307.0</ele><time>2026-05-03T12:05:10.275Z</time></trkpt><trkpt lat="44.2619133" lon="6.74241"><ele>2307.0</ele><time>2026-05-03T12:05:11.275Z</time></trkpt><trkpt lat="44.2620317" lon="6.7424383"><ele>2307.0</ele><time>2026-05-03T12:05:12.275Z</time></trkpt><trkpt lat="44.2621517" lon="6.74248"><ele>2307.0</ele><time>2026-05-03T12:05:13.275Z</time></trkpt><trkpt lat="44.2622683" lon="6.7425083"><ele>2307.0</ele><time>2026-05-03T12:05:14.275Z</time></trkpt><trkpt lat="44.2623867" lon="6.742525"><ele>2305.0</ele><time>2026-05-03T12:05:15.275Z</time></trkpt><trkpt lat="44.2625067" lon="6.7425367"><ele>2303.0</ele><time>2026-05-03T12:05:16.275Z</time></trkpt><trkpt lat="44.2626233" lon="6.7425433"><ele>2301.0</ele><time>2026-05-03T12:05:17.275Z</time></trkpt><trkpt lat="44.2627417" lon="6.7425383"><ele>2299.0</ele><time>2026-05-03T12:05:18.275Z</time></trkpt><trkpt lat="44.2628533" lon="6.7425333"><ele>2299.0</ele><time>2026-05-03T12:05:19.275Z</time></trkpt><trkpt lat="44.2629567" lon="6.742525"><ele>2299.0</ele><time>2026-05-03T12:05:20.275Z</time></trkpt><trkpt lat="44.2630467" lon="6.7425233"><ele>2299.0</ele><time>2026-05-03T12:05:21.275Z</time></trkpt><trkpt lat="44.26313" lon="6.7425117"><ele>2299.0</ele><time>2026-05-03T12:05:22.275Z</time></trkpt><trkpt lat="44.2631917" lon="6.7424833"><ele>2299.0</ele><time>2026-05-03T12:05:23.275Z</time></trkpt><trkpt lat="44.2632683" lon="6.7423567"><ele>2297.714285714286</ele><time>2026-05-03T12:05:25.275Z</time></trkpt><trkpt lat="44.2632983" lon="6.7422633"><ele>2296.4285714285716</ele><time>2026-05-03T12:05:26.275Z</time></trkpt><trkpt lat="44.263345" lon="6.742165"><ele>2295.1428571428573</ele><time>2026-05-03T12:05:27.275Z</time></trkpt><trkpt lat="44.2634033" lon="6.7420817"><ele>2293.857142857143</ele><time>2026-05-03T12:05:28.275Z</time></trkpt><trkpt lat="44.263475" lon="6.74204"><ele>2292.5714285714284</ele><time>2026-05-03T12:05:29.275Z</time></trkpt><trkpt lat="44.26354" lon="6.7420417"><ele>2291.2857142857147</ele><time>2026-05-03T12:05:30.276Z</time></trkpt><trkpt lat="44.2636" lon="6.7420783"><ele>2290.0</ele><time>2026-05-03T12:05:31.275Z</time></trkpt><trkpt lat="44.2636483" lon="6.7421517"><ele>2290.0</ele><time>2026-05-03T12:05:32.275Z</time></trkpt><trkpt lat="44.263675" lon="6.7422567"><ele>2290.0</ele><time>2026-05-03T12:05:33.275Z</time></trkpt><trkpt lat="44.2636783" lon="6.7423667"><ele>2290.0</ele><time>2026-05-03T12:05:34.275Z</time></trkpt><trkpt lat="44.2636833" lon="6.74249"><ele>2290.0</ele><time>2026-05-03T12:05:35.275Z</time></trkpt><trkpt lat="44.2636933" lon="6.742635"><ele>2290.0</ele><time>2026-05-03T12:05:36.276Z</time></trkpt><trkpt lat="44.26372" lon="6.74278"><ele>2287.75</ele><time>2026-05-03T12:05:37.275Z</time></trkpt><trkpt lat="44.2637683" lon="6.7429233"><ele>2285.5</ele><time>2026-05-03T12:05:38.275Z</time></trkpt><trkpt lat="44.2638367" lon="6.7430617"><ele>2283.25</ele><time>2026-05-03T12:05:39.275Z</time></trkpt><trkpt lat="44.2638967" lon="6.743205"><ele>2281.0</ele><time>2026-05-03T12:05:40.275Z</time></trkpt><trkpt lat="44.26395" lon="6.743355"><ele>2281.0</ele><time>2026-05-03T12:05:41.276Z</time></trkpt><trkpt lat="44.263995" lon="6.7435083"><ele>2281.0</ele><time>2026-05-03T12:05:42.275Z</time></trkpt><trkpt lat="44.264025" lon="6.7436717"><ele>2281.0</ele><time>2026-05-03T12:05:43.276Z</time></trkpt><trkpt lat="44.2640483" lon="6.7438317"><ele>2281.0</ele><time>2026-05-03T12:05:44.276Z</time></trkpt><trkpt lat="44.2640533" lon="6.7439817"><ele>2280.166666666667</ele><time>2026-05-03T12:05:45.275Z</time></trkpt><trkpt lat="44.2640667" lon="6.7440933"><ele>2279.3333333333335</ele><time>2026-05-03T12:05:46.276Z</time></trkpt><trkpt lat="44.26409" lon="6.7441983"><ele>2278.5</ele><time>2026-05-03T12:05:47.275Z</time></trkpt><trkpt lat="44.2641417" lon="6.7442933"><ele>2277.6666666666665</ele><time>2026-05-03T12:05:48.276Z</time></trkpt><trkpt lat="44.2642167" lon="6.7443733"><ele>2276.833333333333</ele><time>2026-05-03T12:05:49.275Z</time></trkpt><trkpt lat="44.2642883" lon="6.7444617"><ele>2276.0</ele><time>2026-05-03T12:05:50.275Z</time></trkpt><trkpt lat="44.2643483" lon="6.7445483"><ele>2275.333333333333</ele><time>2026-05-03T12:05:51.275Z</time></trkpt><trkpt lat="44.26439" lon="6.74465"><ele>2274.6666666666665</ele><time>2026-05-03T12:05:52.275Z</time></trkpt><trkpt lat="44.2644017" lon="6.7447617"><ele>2274.0</ele><time>2026-05-03T12:05:53.275Z</time></trkpt><trkpt lat="44.2643817" lon="6.74486"><ele>2273.3333333333335</ele><time>2026-05-03T12:05:54.275Z</time></trkpt><trkpt lat="44.26435" lon="6.7449383"><ele>2272.666666666667</ele><time>2026-05-03T12:05:55.275Z</time></trkpt><trkpt lat="44.2642933" lon="6.7449867"><ele>2272.0</ele><time>2026-05-03T12:05:56.276Z</time></trkpt><trkpt lat="44.2642133" lon="6.7450167"><ele>2272.0</ele><time>2026-05-03T12:05:57.275Z</time></trkpt><trkpt lat="44.2641167" lon="6.745005"><ele>2272.0</ele><time>2026-05-03T12:05:58.275Z</time></trkpt><trkpt lat="44.264015" lon="6.7450067"><ele>2272.0</ele><time>2026-05-03T12:05:59.275Z</time></trkpt><trkpt lat="44.2639183" lon="6.74501"><ele>2272.0</ele><time>2026-05-03T12:06:00.275Z</time></trkpt><trkpt lat="44.2638167" lon="6.7450317"><ele>2272.0</ele><time>2026-05-03T12:06:01.275Z</time></trkpt><trkpt lat="44.2637283" lon="6.7450817"><ele>2271.3333333333335</ele><time>2026-05-03T12:06:02.275Z</time></trkpt><trkpt lat="44.26365" lon="6.7451567"><ele>2270.666666666667</ele><time>2026-05-03T12:06:03.275Z</time></trkpt><trkpt lat="44.2635917" lon="6.7452517"><ele>2270.0</ele><time>2026-05-03T12:06:04.275Z</time></trkpt><trkpt lat="44.2635517" lon="6.745355"><ele>2269.3333333333335</ele><time>2026-05-03T12:06:05.275Z</time></trkpt><trkpt lat="44.2635317" lon="6.7454617"><ele>2268.6666666666665</ele><time>2026-05-03T12:06:06.275Z</time></trkpt><trkpt lat="44.2635333" lon="6.7455633"><ele>2268.0</ele><time>2026-05-03T12:06:07.275Z</time></trkpt><trkpt lat="44.2635567" lon="6.745665"><ele>2267.6</ele><time>2026-05-03T12:06:08.275Z</time></trkpt><trkpt lat="44.2636033" lon="6.7457567"><ele>2267.2000000000003</ele><time>2026-05-03T12:06:09.275Z</time></trkpt><trkpt lat="44.2636783" lon="6.7458367"><ele>2266.8</ele><time>2026-05-03T12:06:10.275Z</time></trkpt><trkpt lat="44.263765" lon="6.7459083"><ele>2266.4</ele><time>2026-05-03T12:06:11.276Z</time></trkpt><trkpt lat="44.26386" lon="6.74596"><ele>2266.0</ele><time>2026-05-03T12:06:12.275Z</time></trkpt><trkpt lat="44.2639533" lon="6.7459967"><ele>2266.0</ele><time>2026-05-03T12:06:13.275Z</time></trkpt><trkpt lat="44.264035" lon="6.7460267"><ele>2266.0</ele><time>2026-05-03T12:06:14.275Z</time></trkpt><trkpt lat="44.2641183" lon="6.746045"><ele>2266.0</ele><time>2026-05-03T12:06:15.276Z</time></trkpt><trkpt lat="44.26421" lon="6.7460483"><ele>2266.0</ele><time>2026-05-03T12:06:16.275Z</time></trkpt><trkpt lat="44.26431" lon="6.746055"><ele>2266.0</ele><time>2026-05-03T12:06:17.275Z</time></trkpt><trkpt lat="44.26441" lon="6.7460617"><ele>2264.6</ele><time>2026-05-03T12:06:18.275Z</time></trkpt><trkpt lat="44.26451" lon="6.7460767"><ele>2263.2</ele><time>2026-05-03T12:06:19.276Z</time></trkpt><trkpt lat="44.2646117" lon="6.7460767"><ele>2261.8</ele><time>2026-05-03T12:06:20.275Z</time></trkpt><trkpt lat="44.2647133" lon="6.7460567"><ele>2260.4</ele><time>2026-05-03T12:06:21.275Z</time></trkpt><trkpt lat="44.264825" lon="6.74602"><ele>2259.0</ele><time>2026-05-03T12:06:22.275Z</time></trkpt><trkpt lat="44.2649417" lon="6.7459817"><ele>2259.0</ele><time>2026-05-03T12:06:23.275Z</time></trkpt><trkpt lat="44.2650583" lon="6.7459633"><ele>2259.0</ele><time>2026-05-03T12:06:24.275Z</time></trkpt><trkpt lat="44.2651783" lon="6.7459367"><ele>2259.0</ele><time>2026-05-03T12:06:25.275Z</time></trkpt><trkpt lat="44.2653017" lon="6.74592"><ele>2259.0</ele><time>2026-05-03T12:06:26.275Z</time></trkpt><trkpt lat="44.2654317" lon="6.745915"><ele>2259.0</ele><time>2026-05-03T12:06:27.275Z</time></trkpt><trkpt lat="44.2655583" lon="6.7459017"><ele>2259.0</ele><time>2026-05-03T12:06:28.275Z</time></trkpt><trkpt lat="44.2656883" lon="6.745885"><ele>2259.0</ele><time>2026-05-03T12:06:29.275Z</time></trkpt><trkpt lat="44.26582" lon="6.7458933"><ele>2259.0</ele><time>2026-05-03T12:06:30.276Z</time></trkpt><trkpt lat="44.2659383" lon="6.7459383"><ele>2257.0</ele><time>2026-05-03T12:06:31.275Z</time></trkpt><trkpt lat="44.2660533" lon="6.745985"><ele>2255.0</ele><time>2026-05-03T12:06:32.275Z</time></trkpt><trkpt lat="44.2661783" lon="6.746025"><ele>2253.0</ele><time>2026-05-03T12:06:33.275Z</time></trkpt><trkpt lat="44.2662967" lon="6.7460367"><ele>2251.0</ele><time>2026-05-03T12:06:34.275Z</time></trkpt><trkpt lat="44.26642" lon="6.74606"><ele>2249.25</ele><time>2026-05-03T12:06:35.276Z</time></trkpt><trkpt lat="44.2665333" lon="6.7460583"><ele>2247.5</ele><time>2026-05-03T12:06:36.275Z</time></trkpt><trkpt lat="44.2666433" lon="6.7460367"><ele>2245.75</ele><time>2026-05-03T12:06:37.275Z</time></trkpt><trkpt lat="44.266755" lon="6.7459967"><ele>2244.0</ele><time>2026-05-03T12:06:38.276Z</time></trkpt><trkpt lat="44.2668733" lon="6.7459633"><ele>2244.0</ele><time>2026-05-03T12:06:39.275Z</time></trkpt><trkpt lat="44.2669917" lon="6.7459633"><ele>2244.0</ele><time>2026-05-03T12:06:40.275Z</time></trkpt><trkpt lat="44.2671033" lon="6.7459767"><ele>2244.0</ele><time>2026-05-03T12:06:41.275Z</time></trkpt><trkpt lat="44.2672183" lon="6.74601"><ele>2244.0</ele><time>2026-05-03T12:06:42.275Z</time></trkpt><trkpt lat="44.2673333" lon="6.7460567"><ele>2240.25</ele><time>2026-05-03T12:06:43.275Z</time></trkpt><trkpt lat="44.267435" lon="6.74613"><ele>2236.5</ele><time>2026-05-03T12:06:44.275Z</time></trkpt><trkpt lat="44.26754" lon="6.7461867"><ele>2232.75</ele><time>2026-05-03T12:06:45.276Z</time></trkpt><trkpt lat="44.26765" lon="6.74624"><ele>2229.0</ele><time>2026-05-03T12:06:46.275Z</time></trkpt><trkpt lat="44.26777" lon="6.7462767"><ele>2229.0</ele><time>2026-05-03T12:06:47.275Z</time></trkpt><trkpt lat="44.26789" lon="6.746305"><ele>2229.0</ele><time>2026-05-03T12:06:48.275Z</time></trkpt><trkpt lat="44.2680117" lon="6.7463317"><ele>2229.0</ele><time>2026-05-03T12:06:49.275Z</time></trkpt><trkpt lat="44.2681367" lon="6.7463433"><ele>2229.0</ele><time>2026-05-03T12:06:50.275Z</time></trkpt><trkpt lat="44.2682617" lon="6.74634"><ele>2227.75</ele><time>2026-05-03T12:06:51.275Z</time></trkpt><trkpt lat="44.26839" lon="6.7463217"><ele>2226.5</ele><time>2026-05-03T12:06:52.275Z</time></trkpt><trkpt lat="44.2685117" lon="6.7462967"><ele>2225.25</ele><time>2026-05-03T12:06:53.276Z</time></trkpt><trkpt lat="44.26863" lon="6.7462617"><ele>2224.0</ele><time>2026-05-03T12:06:54.275Z</time></trkpt><trkpt lat="44.2687467" lon="6.746225"><ele>2224.0</ele><time>2026-05-03T12:06:55.276Z</time></trkpt><trkpt lat="44.2688517" lon="6.7462"><ele>2224.0</ele><time>2026-05-03T12:06:56.275Z</time></trkpt><trkpt lat="44.2689483" lon="6.74617"><ele>2224.0</ele><time>2026-05-03T12:06:57.276Z</time></trkpt><trkpt lat="44.2690433" lon="6.74614"><ele>2224.0</ele><time>2026-05-03T12:06:58.275Z</time></trkpt><trkpt lat="44.2691433" lon="6.7461267"><ele>2224.0</ele><time>2026-05-03T12:06:59.275Z</time></trkpt><trkpt lat="44.2692317" lon="6.7461517"><ele>2222.0</ele><time>2026-05-03T12:07:00.275Z</time></trkpt><trkpt lat="44.2693167" lon="6.7462083"><ele>2220.0</ele><time>2026-05-03T12:07:01.275Z</time></trkpt><trkpt lat="44.269395" lon="6.7463033"><ele>2218.0</ele><time>2026-05-03T12:07:02.275Z</time></trkpt><trkpt lat="44.2694717" lon="6.746395"><ele>2216.0</ele><time>2026-05-03T12:07:03.275Z</time></trkpt><trkpt lat="44.2695517" lon="6.74648"><ele>2214.0</ele><time>2026-05-03T12:07:04.275Z</time></trkpt><trkpt lat="44.2696433" lon="6.7465467"><ele>2214.0</ele><time>2026-05-03T12:07:05.275Z</time></trkpt><trkpt lat="44.2697417" lon="6.74659"><ele>2214.0</ele><time>2026-05-03T12:07:06.275Z</time></trkpt><trkpt lat="44.269845" lon="6.7466183"><ele>2214.0</ele><time>2026-05-03T12:07:07.275Z</time></trkpt><trkpt lat="44.2699467" lon="6.746635"><ele>2214.0</ele><time>2026-05-03T12:07:08.275Z</time></trkpt><trkpt lat="44.270045" lon="6.7466583"><ele>2214.0</ele><time>2026-05-03T12:07:09.275Z</time></trkpt><trkpt lat="44.2701433" lon="6.7466833"><ele>2213.4</ele><time>2026-05-03T12:07:10.275Z</time></trkpt><trkpt lat="44.2702517" lon="6.7467067"><ele>2212.8</ele><time>2026-05-03T12:07:11.275Z</time></trkpt><trkpt lat="44.2703567" lon="6.746715"><ele>2212.2</ele><time>2026-05-03T12:07:12.275Z</time></trkpt><trkpt lat="44.27047" lon="6.7467117"><ele>2211.6</ele><time>2026-05-03T12:07:13.276Z</time></trkpt><trkpt lat="44.2705783" lon="6.7466867"><ele>2211.0</ele><time>2026-05-03T12:07:14.275Z</time></trkpt><trkpt lat="44.27069" lon="6.74664"><ele>2209.5</ele><time>2026-05-03T12:07:15.275Z</time></trkpt><trkpt lat="44.2707917" lon="6.7465717"><ele>2208.0</ele><time>2026-05-03T12:07:16.275Z</time></trkpt><trkpt lat="44.270895" lon="6.74648"><ele>2206.5</ele><time>2026-05-03T12:07:17.275Z</time></trkpt><trkpt lat="44.2709967" lon="6.7463967"><ele>2205.0</ele><time>2026-05-03T12:07:18.275Z</time></trkpt><trkpt lat="44.2710967" lon="6.746315"><ele>2205.0</ele><time>2026-05-03T12:07:19.275Z</time></trkpt><trkpt lat="44.271185" lon="6.7462417"><ele>2205.0</ele><time>2026-05-03T12:07:20.275Z</time></trkpt><trkpt lat="44.27127" lon="6.7461567"><ele>2205.0</ele><time>2026-05-03T12:07:21.275Z</time></trkpt><trkpt lat="44.2713417" lon="6.7460667"><ele>2205.0</ele><time>2026-05-03T12:07:22.276Z</time></trkpt><trkpt lat="44.2713883" lon="6.7459533"><ele>2205.0</ele><time>2026-05-03T12:07:23.275Z</time></trkpt><trkpt lat="44.2714283" lon="6.745815"><ele>2204.4</ele><time>2026-05-03T12:07:24.275Z</time></trkpt><trkpt lat="44.271455" lon="6.74567"><ele>2203.8</ele><time>2026-05-03T12:07:25.275Z</time></trkpt><trkpt lat="44.2714767" lon="6.7455233"><ele>2203.2</ele><time>2026-05-03T12:07:26.275Z</time></trkpt><trkpt lat="44.2715117" lon="6.745385"><ele>2202.6</ele><time>2026-05-03T12:07:27.275Z</time></trkpt><trkpt lat="44.27156" lon="6.7452633"><ele>2202.0</ele><time>2026-05-03T12:07:28.275Z</time></trkpt><trkpt lat="44.2716317" lon="6.7451617"><ele>2202.0</ele><time>2026-05-03T12:07:29.275Z</time></trkpt><trkpt lat="44.2717217" lon="6.7450667"><ele>2202.0</ele><time>2026-05-03T12:07:30.275Z</time></trkpt><trkpt lat="44.2718233" lon="6.7449917"><ele>2202.0</ele><time>2026-05-03T12:07:31.275Z</time></trkpt><trkpt lat="44.2719233" lon="6.7449317"><ele>2202.0</ele><time>2026-05-03T12:07:32.275Z</time></trkpt><trkpt lat="44.27202" lon="6.7448867"><ele>2202.0</ele><time>2026-05-03T12:07:33.275Z</time></trkpt><trkpt lat="44.27213" lon="6.7448583"><ele>2202.0</ele><time>2026-05-03T12:07:34.275Z</time></trkpt><trkpt lat="44.27224" lon="6.7448417"><ele>2202.0</ele><time>2026-05-03T12:07:35.275Z</time></trkpt><trkpt lat="44.2723617" lon="6.7448"><ele>2202.0</ele><time>2026-05-03T12:07:36.275Z</time></trkpt><trkpt lat="44.2724833" lon="6.7447833"><ele>2202.0</ele><time>2026-05-03T12:07:37.275Z</time></trkpt><trkpt lat="44.2726117" lon="6.7447683"><ele>2197.0</ele><time>2026-05-03T12:07:38.276Z</time></trkpt><trkpt lat="44.27274" lon="6.7447567"><ele>2192.0</ele><time>2026-05-03T12:07:39.275Z</time></trkpt><trkpt lat="44.2728583" lon="6.7447733"><ele>2187.0</ele><time>2026-05-03T12:07:40.275Z</time></trkpt><trkpt lat="44.272975" lon="6.74481"><ele>2182.0</ele><time>2026-05-03T12:07:41.275Z</time></trkpt><trkpt lat="44.2730783" lon="6.7448783"><ele>2181.7999999999997</ele><time>2026-05-03T12:07:42.275Z</time></trkpt><trkpt lat="44.2731767" lon="6.7449367"><ele>2181.6</ele><time>2026-05-03T12:07:43.275Z</time></trkpt><trkpt lat="44.2732833" lon="6.744985"><ele>2181.3999999999996</ele><time>2026-05-03T12:07:44.275Z</time></trkpt><trkpt lat="44.273395" lon="6.74503"><ele>2181.2</ele><time>2026-05-03T12:07:45.275Z</time></trkpt><trkpt lat="44.2735033" lon="6.7450583"><ele>2181.0</ele><time>2026-05-03T12:07:46.275Z</time></trkpt><trkpt lat="44.2736133" lon="6.7450583"><ele>2181.0</ele><time>2026-05-03T12:07:47.275Z</time></trkpt><trkpt lat="44.2737267" lon="6.7450183"><ele>2181.0</ele><time>2026-05-03T12:07:48.275Z</time></trkpt><trkpt lat="44.2738267" lon="6.7449533"><ele>2181.0</ele><time>2026-05-03T12:07:49.275Z</time></trkpt><trkpt lat="44.2739267" lon="6.74488"><ele>2181.0</ele><time>2026-05-03T12:07:50.275Z</time></trkpt><trkpt lat="44.2740383" lon="6.7448133"><ele>2179.6</ele><time>2026-05-03T12:07:51.275Z</time></trkpt><trkpt lat="44.2741517" lon="6.7447833"><ele>2178.2</ele><time>2026-05-03T12:07:52.275Z</time></trkpt><trkpt lat="44.2742583" lon="6.7447917"><ele>2176.8</ele><time>2026-05-03T12:07:53.275Z</time></trkpt><trkpt lat="44.2743533" lon="6.7448333"><ele>2175.4</ele><time>2026-05-03T12:07:54.275Z</time></trkpt><trkpt lat="44.2744567" lon="6.744885"><ele>2174.0</ele><time>2026-05-03T12:07:55.275Z</time></trkpt><trkpt lat="44.2745583" lon="6.74491"><ele>2174.0</ele><time>2026-05-03T12:07:56.275Z</time></trkpt><trkpt lat="44.27467" lon="6.7449117"><ele>2174.0</ele><time>2026-05-03T12:07:57.275Z</time></trkpt><trkpt lat="44.27479" lon="6.7448983"><ele>2174.0</ele><time>2026-05-03T12:07:58.275Z</time></trkpt><trkpt lat="44.274925" lon="6.74487"><ele>2174.0</ele><time>2026-05-03T12:07:59.275Z</time></trkpt><trkpt lat="44.27505" lon="6.7448683"><ele>2171.5</ele><time>2026-05-03T12:08:00.275Z</time></trkpt><trkpt lat="44.2751833" lon="6.7448767"><ele>2169.0</ele><time>2026-05-03T12:08:01.275Z</time></trkpt><trkpt lat="44.2753267" lon="6.7449"><ele>2166.5</ele><time>2026-05-03T12:08:02.275Z</time></trkpt><trkpt lat="44.2754633" lon="6.7449283"><ele>2164.0</ele><time>2026-05-03T12:08:03.276Z</time></trkpt><trkpt lat="44.2755933" lon="6.744945"><ele>2163.25</ele><time>2026-05-03T12:08:04.275Z</time></trkpt><trkpt lat="44.2757217" lon="6.7449583"><ele>2162.5</ele><time>2026-05-03T12:08:05.275Z</time></trkpt><trkpt lat="44.275855" lon="6.7449683"><ele>2161.75</ele><time>2026-05-03T12:08:06.275Z</time></trkpt><trkpt lat="44.2759883" lon="6.7449733"><ele>2161.0</ele><time>2026-05-03T12:08:07.275Z</time></trkpt><trkpt lat="44.276115" lon="6.74498"><ele>2161.0</ele><time>2026-05-03T12:08:08.275Z</time></trkpt><trkpt lat="44.2762483" lon="6.7449733"><ele>2161.0</ele><time>2026-05-03T12:08:09.276Z</time></trkpt><trkpt lat="44.2763767" lon="6.7449667"><ele>2161.0</ele><time>2026-05-03T12:08:10.275Z</time></trkpt><trkpt lat="44.276505" lon="6.744925"><ele>2161.0</ele><time>2026-05-03T12:08:11.275Z</time></trkpt><trkpt lat="44.276625" lon="6.7448733"><ele>2158.0</ele><time>2026-05-03T12:08:12.275Z</time></trkpt><trkpt lat="44.2767333" lon="6.74481"><ele>2155.0</ele><time>2026-05-03T12:08:13.275Z</time></trkpt><trkpt lat="44.276825" lon="6.7447083"><ele>2152.0</ele><time>2026-05-03T12:08:14.275Z</time></trkpt><trkpt lat="44.2769" lon="6.74459"><ele>2149.0</ele><time>2026-05-03T12:08:15.276Z</time></trkpt><trkpt lat="44.276975" lon="6.7444567"><ele>2148.2</ele><time>2026-05-03T12:08:16.275Z</time></trkpt><trkpt lat="44.2770467" lon="6.744325"><ele>2147.4</ele><time>2026-05-03T12:08:17.275Z</time></trkpt><trkpt lat="44.2771267" lon="6.7442217"><ele>2146.6</ele><time>2026-05-03T12:08:18.275Z</time></trkpt><trkpt lat="44.2771967" lon="6.7441233"><ele>2145.8</ele><time>2026-05-03T12:08:19.275Z</time></trkpt><trkpt lat="44.27728" lon="6.7440633"><ele>2145.0</ele><time>2026-05-03T12:08:20.275Z</time></trkpt><trkpt lat="44.2773767" lon="6.7440433"><ele>2145.0</ele><time>2026-05-03T12:08:21.275Z</time></trkpt><trkpt lat="44.2774817" lon="6.744055"><ele>2145.0</ele><time>2026-05-03T12:08:22.275Z</time></trkpt><trkpt lat="44.277585" lon="6.7441067"><ele>2145.0</ele><time>2026-05-03T12:08:23.275Z</time></trkpt><trkpt lat="44.277685" lon="6.7441733"><ele>2145.0</ele><time>2026-05-03T12:08:24.276Z</time></trkpt><trkpt lat="44.2777617" lon="6.7442633"><ele>2145.0</ele><time>2026-05-03T12:08:25.275Z</time></trkpt><trkpt lat="44.2778183" lon="6.7443717"><ele>2143.4</ele><time>2026-05-03T12:08:26.275Z</time></trkpt><trkpt lat="44.2778533" lon="6.7445067"><ele>2141.8</ele><time>2026-05-03T12:08:27.275Z</time></trkpt><trkpt lat="44.277865" lon="6.7446467"><ele>2140.2</ele><time>2026-05-03T12:08:28.275Z</time></trkpt><trkpt lat="44.2778417" lon="6.7447983"><ele>2138.6</ele><time>2026-05-03T12:08:29.275Z</time></trkpt><trkpt lat="44.2778067" lon="6.7449433"><ele>2137.0</ele><time>2026-05-03T12:08:30.275Z</time></trkpt><trkpt lat="44.2777517" lon="6.7450633"><ele>2137.0</ele><time>2026-05-03T12:08:31.275Z</time></trkpt><trkpt lat="44.2776733" lon="6.7451783"><ele>2137.0</ele><time>2026-05-03T12:08:32.275Z</time></trkpt><trkpt lat="44.2775783" lon="6.7452683"><ele>2137.0</ele><time>2026-05-03T12:08:33.275Z</time></trkpt><trkpt lat="44.2774783" lon="6.745345"><ele>2137.0</ele><time>2026-05-03T12:08:34.275Z</time></trkpt><trkpt lat="44.2773717" lon="6.745395"><ele>2135.5</ele><time>2026-05-03T12:08:35.275Z</time></trkpt><trkpt lat="44.27726" lon="6.7454483"><ele>2134.0</ele><time>2026-05-03T12:08:36.275Z</time></trkpt><trkpt lat="44.2771467" lon="6.7454967"><ele>2132.5</ele><time>2026-05-03T12:08:37.275Z</time></trkpt><trkpt lat="44.277035" lon="6.7455483"><ele>2131.0</ele><time>2026-05-03T12:08:38.275Z</time></trkpt><trkpt lat="44.2769283" lon="6.7456033"><ele>2131.0</ele><time>2026-05-03T12:08:39.275Z</time></trkpt><trkpt lat="44.2768267" lon="6.74565"><ele>2131.0</ele><time>2026-05-03T12:08:40.275Z</time></trkpt><trkpt lat="44.2767217" lon="6.7456917"><ele>2131.0</ele><time>2026-05-03T12:08:41.275Z</time></trkpt><trkpt lat="44.276635" lon="6.7457233"><ele>2131.0</ele><time>2026-05-03T12:08:42.275Z</time></trkpt><trkpt lat="44.2765617" lon="6.7457633"><ele>2131.0</ele><time>2026-05-03T12:08:43.275Z</time></trkpt><trkpt lat="44.2764933" lon="6.745805"><ele>2131.0</ele><time>2026-05-03T12:08:44.275Z</time></trkpt><trkpt lat="44.27644" lon="6.7458767"><ele>2131.0</ele><time>2026-05-03T12:08:45.275Z</time></trkpt><trkpt lat="44.2764017" lon="6.7459533"><ele>2131.0</ele><time>2026-05-03T12:08:46.275Z</time></trkpt><trkpt lat="44.27639" lon="6.74604"><ele>2131.0</ele><time>2026-05-03T12:08:47.275Z</time></trkpt><trkpt lat="44.27645" lon="6.7461833"><ele>2131.0</ele><time>2026-05-03T12:08:49.275Z</time></trkpt><trkpt lat="44.2765317" lon="6.7462117"><ele>2131.0</ele><time>2026-05-03T12:08:50.275Z</time></trkpt><trkpt lat="44.2766383" lon="6.746205"><ele>2131.0</ele><time>2026-05-03T12:08:51.275Z</time></trkpt><trkpt lat="44.2767583" lon="6.7461467"><ele>2131.0</ele><time>2026-05-03T12:08:52.275Z</time></trkpt><trkpt lat="44.2768967" lon="6.74609"><ele>2131.0</ele><time>2026-05-03T12:08:53.275Z</time></trkpt><trkpt lat="44.2770217" lon="6.7460333"><ele>2131.0</ele><time>2026-05-03T12:08:54.276Z</time></trkpt><trkpt lat="44.2771417" lon="6.7460117"><ele>2131.0</ele><time>2026-05-03T12:08:55.275Z</time></trkpt><trkpt lat="44.2772533" lon="6.7460267"><ele>2131.0</ele><time>2026-05-03T12:08:56.276Z</time></trkpt><trkpt lat="44.2773567" lon="6.74608"><ele>2131.0</ele><time>2026-05-03T12:08:57.275Z</time></trkpt><trkpt lat="44.27746" lon="6.74615"><ele>2131.0</ele><time>2026-05-03T12:08:58.275Z</time></trkpt><trkpt lat="44.2775633" lon="6.7462217"><ele>2127.2</ele><time>2026-05-03T12:08:59.275Z</time></trkpt><trkpt lat="44.2776583" lon="6.7462983"><ele>2123.3999999999996</ele><time>2026-05-03T12:09:00.275Z</time></trkpt><trkpt lat="44.2777633" lon="6.746355"><ele>2119.6</ele><time>2026-05-03T12:09:01.275Z</time></trkpt><trkpt lat="44.2778717" lon="6.7463733"><ele>2115.7999999999997</ele><time>2026-05-03T12:09:02.275Z</time></trkpt><trkpt lat="44.2779867" lon="6.746365"><ele>2112.0</ele><time>2026-05-03T12:09:03.276Z</time></trkpt><trkpt lat="44.2781083" lon="6.7463467"><ele>2112.0</ele><time>2026-05-03T12:09:04.276Z</time></trkpt><trkpt lat="44.2782367" lon="6.7463167"><ele>2112.0</ele><time>2026-05-03T12:09:05.275Z</time></trkpt><trkpt lat="44.2783633" lon="6.746285"><ele>2112.0</ele><time>2026-05-03T12:09:06.276Z</time></trkpt><trkpt lat="44.27849" lon="6.7462567"><ele>2112.0</ele><time>2026-05-03T12:09:07.275Z</time></trkpt><trkpt lat="44.278605" lon="6.7462317"><ele>2112.0</ele><time>2026-05-03T12:09:08.275Z</time></trkpt><trkpt lat="44.2787233" lon="6.746235"><ele>2112.0</ele><time>2026-05-03T12:09:09.275Z</time></trkpt><trkpt lat="44.2788283" lon="6.746255"><ele>2112.0</ele><time>2026-05-03T12:09:10.275Z</time></trkpt><trkpt lat="44.2789283" lon="6.7462867"><ele>2112.0</ele><time>2026-05-03T12:09:11.275Z</time></trkpt><trkpt lat="44.279015" lon="6.74627"><ele>2112.0</ele><time>2026-05-03T12:09:12.275Z</time></trkpt><trkpt lat="44.2790833" lon="6.7462267"><ele>2111.4</ele><time>2026-05-03T12:09:13.275Z</time></trkpt><trkpt lat="44.2791483" lon="6.7461533"><ele>2110.7999999999997</ele><time>2026-05-03T12:09:14.275Z</time></trkpt><trkpt lat="44.2792" lon="6.7460533"><ele>2110.2</ele><time>2026-05-03T12:09:15.275Z</time></trkpt><trkpt lat="44.2792433" lon="6.745925"><ele>2109.6</ele><time>2026-05-03T12:09:16.275Z</time></trkpt><trkpt lat="44.279265" lon="6.745755"><ele>2109.0</ele><time>2026-05-03T12:09:17.275Z</time></trkpt><trkpt lat="44.27927" lon="6.7455717"><ele>2109.0</ele><time>2026-05-03T12:09:18.275Z</time></trkpt><trkpt lat="44.279275" lon="6.745425"><ele>2109.0</ele><time>2026-05-03T12:09:19.275Z</time></trkpt><trkpt lat="44.27926" lon="6.7452833"><ele>2109.0</ele><time>2026-05-03T12:09:20.275Z</time></trkpt><trkpt lat="44.2792317" lon="6.74509"><ele>2109.0</ele><time>2026-05-03T12:09:21.275Z</time></trkpt><trkpt lat="44.2792083" lon="6.74495"><ele>2108.6</ele><time>2026-05-03T12:09:22.276Z</time></trkpt><trkpt lat="44.2791967" lon="6.74481"><ele>2108.2</ele><time>2026-05-03T12:09:23.275Z</time></trkpt><trkpt lat="44.2791917" lon="6.7446567"><ele>2107.7999999999997</ele><time>2026-05-03T12:09:24.275Z</time></trkpt><trkpt lat="44.2792" lon="6.7445067"><ele>2107.4</ele><time>2026-05-03T12:09:25.275Z</time></trkpt><trkpt lat="44.279195" lon="6.7443667"><ele>2107.0</ele><time>2026-05-03T12:09:26.275Z</time></trkpt><trkpt lat="44.27917" lon="6.744245"><ele>2103.5</ele><time>2026-05-03T12:09:27.275Z</time></trkpt><trkpt lat="44.2791367" lon="6.74412"><ele>2100.0</ele><time>2026-05-03T12:09:28.275Z</time></trkpt><trkpt lat="44.279085" lon="6.7439767"><ele>2096.5</ele><time>2026-05-03T12:09:29.275Z</time></trkpt><trkpt lat="44.2790133" lon="6.7438267"><ele>2093.0</ele><time>2026-05-03T12:09:30.275Z</time></trkpt><trkpt lat="44.27895" lon="6.7436817"><ele>2097.25</ele><time>2026-05-03T12:09:31.275Z</time></trkpt><trkpt lat="44.2788633" lon="6.743545"><ele>2101.5</ele><time>2026-05-03T12:09:32.275Z</time></trkpt><trkpt lat="44.2787967" lon="6.7434083"><ele>2105.75</ele><time>2026-05-03T12:09:33.275Z</time></trkpt><trkpt lat="44.278725" lon="6.74327"><ele>2110.0</ele><time>2026-05-03T12:09:34.275Z</time></trkpt><trkpt lat="44.2786583" lon="6.7431433"><ele>2110.0</ele><time>2026-05-03T12:09:35.275Z</time></trkpt><trkpt lat="44.2786" lon="6.743015"><ele>2110.0</ele><time>2026-05-03T12:09:36.276Z</time></trkpt><trkpt lat="44.2785583" lon="6.7428617"><ele>2110.0</ele><time>2026-05-03T12:09:37.275Z</time></trkpt><trkpt lat="44.2785433" lon="6.7427017"><ele>2110.0</ele><time>2026-05-03T12:09:38.275Z</time></trkpt><trkpt lat="44.2785467" lon="6.7425517"><ele>2110.0</ele><time>2026-05-03T12:09:39.275Z</time></trkpt><trkpt lat="44.2785833" lon="6.742415"><ele>2106.5</ele><time>2026-05-03T12:09:40.275Z</time></trkpt><trkpt lat="44.278645" lon="6.7423167"><ele>2103.0</ele><time>2026-05-03T12:09:41.275Z</time></trkpt><trkpt lat="44.2787233" lon="6.7422417"><ele>2099.5</ele><time>2026-05-03T12:09:42.275Z</time></trkpt><trkpt lat="44.278845" lon="6.742165"><ele>2096.0</ele><time>2026-05-03T12:09:43.275Z</time></trkpt><trkpt lat="44.2790017" lon="6.7420867"><ele>2093.0</ele><time>2026-05-03T12:09:44.275Z</time></trkpt><trkpt lat="44.279145" lon="6.7419967"><ele>2090.0</ele><time>2026-05-03T12:09:45.275Z</time></trkpt><trkpt lat="44.27927" lon="6.7419117"><ele>2087.0</ele><time>2026-05-03T12:09:46.275Z</time></trkpt><trkpt lat="44.2793833" lon="6.7418217"><ele>2084.0</ele><time>2026-05-03T12:09:47.275Z</time></trkpt><trkpt lat="44.27948" lon="6.7417167"><ele>2084.0</ele><time>2026-05-03T12:09:48.275Z</time></trkpt><trkpt lat="44.2795783" lon="6.7416017"><ele>2084.0</ele><time>2026-05-03T12:09:49.275Z</time></trkpt><trkpt lat="44.279655" lon="6.7414833"><ele>2084.0</ele><time>2026-05-03T12:09:50.275Z</time></trkpt><trkpt lat="44.2797433" lon="6.7413867"><ele>2084.0</ele><time>2026-05-03T12:09:51.275Z</time></trkpt><trkpt lat="44.2798317" lon="6.7413233"><ele>2079.8</ele><time>2026-05-03T12:09:52.275Z</time></trkpt><trkpt lat="44.2799083" lon="6.7413183"><ele>2075.6000000000004</ele><time>2026-05-03T12:09:53.275Z</time></trkpt><trkpt lat="44.28001" lon="6.7413333"><ele>2071.4</ele><time>2026-05-03T12:09:54.275Z</time></trkpt><trkpt lat="44.2801017" lon="6.7413933"><ele>2067.2000000000003</ele><time>2026-05-03T12:09:55.275Z</time></trkpt><trkpt lat="44.2801867" lon="6.7414833"><ele>2063.0</ele><time>2026-05-03T12:09:56.276Z</time></trkpt><trkpt lat="44.280245" lon="6.7416133"><ele>2063.0</ele><time>2026-05-03T12:09:57.275Z</time></trkpt><trkpt lat="44.280285" lon="6.7417633"><ele>2063.0</ele><time>2026-05-03T12:09:58.275Z</time></trkpt><trkpt lat="44.280315" lon="6.7419167"><ele>2063.0</ele><time>2026-05-03T12:09:59.275Z</time></trkpt><trkpt lat="44.2803433" lon="6.74207"><ele>2063.0</ele><time>2026-05-03T12:10:00.275Z</time></trkpt><trkpt lat="44.2803767" lon="6.7422067"><ele>2063.0</ele><time>2026-05-03T12:10:01.275Z</time></trkpt><trkpt lat="44.28042" lon="6.74233"><ele>2063.0</ele><time>2026-05-03T12:10:02.275Z</time></trkpt><trkpt lat="44.280495" lon="6.7424333"><ele>2063.0</ele><time>2026-05-03T12:10:03.275Z</time></trkpt><trkpt lat="44.2805833" lon="6.742525"><ele>2063.0</ele><time>2026-05-03T12:10:04.275Z</time></trkpt><trkpt lat="44.2806783" lon="6.7426033"><ele>2063.0</ele><time>2026-05-03T12:10:05.275Z</time></trkpt><trkpt lat="44.2807767" lon="6.742665"><ele>2063.0</ele><time>2026-05-03T12:10:06.275Z</time></trkpt><trkpt lat="44.2808767" lon="6.7427283"><ele>2060.2000000000003</ele><time>2026-05-03T12:10:07.275Z</time></trkpt><trkpt lat="44.2809583" lon="6.742805"><ele>2057.4</ele><time>2026-05-03T12:10:08.275Z</time></trkpt><trkpt lat="44.2810167" lon="6.7429017"><ele>2054.6000000000004</ele><time>2026-05-03T12:10:09.275Z</time></trkpt><trkpt lat="44.2810517" lon="6.7430233"><ele>2051.8</ele><time>2026-05-03T12:10:10.275Z</time></trkpt><trkpt lat="44.2810617" lon="6.7431567"><ele>2049.0</ele><time>2026-05-03T12:10:11.275Z</time></trkpt><trkpt lat="44.2810533" lon="6.7433133"><ele>2049.0</ele><time>2026-05-03T12:10:12.275Z</time></trkpt><trkpt lat="44.2810283" lon="6.7434617"><ele>2049.0</ele><time>2026-05-03T12:10:13.275Z</time></trkpt><trkpt lat="44.2809767" lon="6.7436117"><ele>2049.0</ele><time>2026-05-03T12:10:14.275Z</time></trkpt><trkpt lat="44.2808933" lon="6.7437633"><ele>2049.0</ele><time>2026-05-03T12:10:15.276Z</time></trkpt><trkpt lat="44.28082" lon="6.7439033"><ele>2046.25</ele><time>2026-05-03T12:10:16.275Z</time></trkpt><trkpt lat="44.2807467" lon="6.744045"><ele>2043.5</ele><time>2026-05-03T12:10:17.275Z</time></trkpt><trkpt lat="44.2806683" lon="6.74419"><ele>2040.75</ele><time>2026-05-03T12:10:18.275Z</time></trkpt><trkpt lat="44.280595" lon="6.7443333"><ele>2038.0</ele><time>2026-05-03T12:10:19.275Z</time></trkpt><trkpt lat="44.2805317" lon="6.7444667"><ele>2044.8000000000002</ele><time>2026-05-03T12:10:20.275Z</time></trkpt><trkpt lat="44.280465" lon="6.7445983"><ele>2051.6000000000004</ele><time>2026-05-03T12:10:21.275Z</time></trkpt><trkpt lat="44.28041" lon="6.7447267"><ele>2058.3999999999996</ele><time>2026-05-03T12:10:22.275Z</time></trkpt><trkpt lat="44.2803517" lon="6.7448367"><ele>2065.2</ele><time>2026-05-03T12:10:23.275Z</time></trkpt><trkpt lat="44.2803033" lon="6.74494"><ele>2072.0</ele><time>2026-05-03T12:10:24.275Z</time></trkpt><trkpt lat="44.2802583" lon="6.7450483"><ele>2072.0</ele><time>2026-05-03T12:10:25.275Z</time></trkpt><trkpt lat="44.2802233" lon="6.7451583"><ele>2072.0</ele><time>2026-05-03T12:10:26.275Z</time></trkpt><trkpt lat="44.2802133" lon="6.7452567"><ele>2072.0</ele><time>2026-05-03T12:10:27.275Z</time></trkpt><trkpt lat="44.2802467" lon="6.74534"><ele>2072.0</ele><time>2026-05-03T12:10:28.275Z</time></trkpt><trkpt lat="44.2802917" lon="6.7454283"><ele>2072.0</ele><time>2026-05-03T12:10:29.275Z</time></trkpt><trkpt lat="44.280365" lon="6.7455"><ele>2072.0</ele><time>2026-05-03T12:10:30.276Z</time></trkpt><trkpt lat="44.2804867" lon="6.7455533"><ele>2062.6666666666665</ele><time>2026-05-03T12:10:31.276Z</time></trkpt><trkpt lat="44.2806217" lon="6.74559"><ele>2053.3333333333335</ele><time>2026-05-03T12:10:32.275Z</time></trkpt><trkpt lat="44.28079" lon="6.7456067"><ele>2044.0</ele><time>2026-05-03T12:10:33.275Z</time></trkpt><trkpt lat="44.28093" lon="6.7456533"><ele>2044.0</ele><time>2026-05-03T12:10:34.275Z</time></trkpt><trkpt lat="44.281065" lon="6.74571"><ele>2044.0</ele><time>2026-05-03T12:10:35.275Z</time></trkpt><trkpt lat="44.2812033" lon="6.7457783"><ele>2044.0</ele><time>2026-05-03T12:10:36.275Z</time></trkpt><trkpt lat="44.281325" lon="6.7458683"><ele>2044.0</ele><time>2026-05-03T12:10:37.275Z</time></trkpt><trkpt lat="44.2814367" lon="6.74595"><ele>2045.5</ele><time>2026-05-03T12:10:38.275Z</time></trkpt><trkpt lat="44.28156" lon="6.7460317"><ele>2047.0</ele><time>2026-05-03T12:10:39.275Z</time></trkpt><trkpt lat="44.2816917" lon="6.7461"><ele>2048.5</ele><time>2026-05-03T12:10:40.275Z</time></trkpt><trkpt lat="44.2818217" lon="6.74616"><ele>2050.0</ele><time>2026-05-03T12:10:41.275Z</time></trkpt><trkpt lat="44.28194" lon="6.7462"><ele>2050.0</ele><time>2026-05-03T12:10:42.275Z</time></trkpt><trkpt lat="44.2820583" lon="6.7462233"><ele>2050.0</ele><time>2026-05-03T12:10:43.276Z</time></trkpt><trkpt lat="44.2821833" lon="6.7462217"><ele>2050.0</ele><time>2026-05-03T12:10:44.276Z</time></trkpt><trkpt lat="44.2823033" lon="6.74622"><ele>2050.0</ele><time>2026-05-03T12:10:45.275Z</time></trkpt><trkpt lat="44.2824283" lon="6.7462083"><ele>2046.25</ele><time>2026-05-03T12:10:46.275Z</time></trkpt><trkpt lat="44.2825567" lon="6.7462033"><ele>2042.5</ele><time>2026-05-03T12:10:47.276Z</time></trkpt><trkpt lat="44.2826833" lon="6.746205"><ele>2038.75</ele><time>2026-05-03T12:10:48.275Z</time></trkpt><trkpt lat="44.2828067" lon="6.746195"><ele>2035.0</ele><time>2026-05-03T12:10:49.275Z</time></trkpt><trkpt lat="44.2829267" lon="6.746165"><ele>2035.0</ele><time>2026-05-03T12:10:50.275Z</time></trkpt><trkpt lat="44.2830467" lon="6.7461117"><ele>2035.0</ele><time>2026-05-03T12:10:51.275Z</time></trkpt><trkpt lat="44.2831467" lon="6.7460433"><ele>2035.0</ele><time>2026-05-03T12:10:52.275Z</time></trkpt><trkpt lat="44.28324" lon="6.7459517"><ele>2035.0</ele><time>2026-05-03T12:10:53.275Z</time></trkpt><trkpt lat="44.283325" lon="6.74583"><ele>2030.6</ele><time>2026-05-03T12:10:54.275Z</time></trkpt><trkpt lat="44.2834017" lon="6.74572"><ele>2026.2</ele><time>2026-05-03T12:10:55.275Z</time></trkpt><trkpt lat="44.28348" lon="6.745605"><ele>2021.8000000000002</ele><time>2026-05-03T12:10:56.275Z</time></trkpt><trkpt lat="44.28356" lon="6.7455133"><ele>2017.4</ele><time>2026-05-03T12:10:57.275Z</time></trkpt><trkpt lat="44.2836483" lon="6.7454483"><ele>2013.0</ele><time>2026-05-03T12:10:58.275Z</time></trkpt><trkpt lat="44.28374" lon="6.745405"><ele>2013.0</ele><time>2026-05-03T12:10:59.275Z</time></trkpt><trkpt lat="44.2838367" lon="6.74539"><ele>2013.0000000000002</ele><time>2026-05-03T12:11:00.276Z</time></trkpt><trkpt lat="44.2839367" lon="6.7454067"><ele>2013.0000000000002</ele><time>2026-05-03T12:11:01.276Z</time></trkpt><trkpt lat="44.28404" lon="6.7454383"><ele>2013.0</ele><time>2026-05-03T12:11:02.275Z</time></trkpt><trkpt lat="44.284145" lon="6.745495"><ele>2013.0</ele><time>2026-05-03T12:11:03.276Z</time></trkpt><trkpt lat="44.2842533" lon="6.7455733"><ele>2012.25</ele><time>2026-05-03T12:11:04.275Z</time></trkpt><trkpt lat="44.284355" lon="6.7456633"><ele>2011.5</ele><time>2026-05-03T12:11:05.275Z</time></trkpt><trkpt lat="44.2844667" lon="6.7457483"><ele>2010.75</ele><time>2026-05-03T12:11:06.275Z</time></trkpt><trkpt lat="44.2845783" lon="6.7458333"><ele>2010.0</ele><time>2026-05-03T12:11:07.275Z</time></trkpt><trkpt lat="44.284675" lon="6.7459083"><ele>2011.0</ele><time>2026-05-03T12:11:08.275Z</time></trkpt><trkpt lat="44.28477" lon="6.74597"><ele>2012.0</ele><time>2026-05-03T12:11:09.275Z</time></trkpt><trkpt lat="44.2848617" lon="6.7460317"><ele>2013.0</ele><time>2026-05-03T12:11:10.275Z</time></trkpt><trkpt lat="44.2849467" lon="6.746065"><ele>2014.0</ele><time>2026-05-03T12:11:11.275Z</time></trkpt><trkpt lat="44.2850283" lon="6.7460683"><ele>2015.0</ele><time>2026-05-03T12:11:12.276Z</time></trkpt><trkpt lat="44.2851" lon="6.7460417"><ele>2011.9999999999998</ele><time>2026-05-03T12:11:13.275Z</time></trkpt><trkpt lat="44.2851517" lon="6.74598"><ele>2009.0</ele><time>2026-05-03T12:11:14.275Z</time></trkpt><trkpt lat="44.285185" lon="6.7458883"><ele>2006.0</ele><time>2026-05-03T12:11:15.276Z</time></trkpt><trkpt lat="44.2852033" lon="6.7457917"><ele>2003.0</ele><time>2026-05-03T12:11:16.275Z</time></trkpt><trkpt lat="44.2851817" lon="6.7456683"><ele>1999.9999999999998</ele><time>2026-05-03T12:11:17.276Z</time></trkpt><trkpt lat="44.2851333" lon="6.7455433"><ele>1997.0</ele><time>2026-05-03T12:11:18.275Z</time></trkpt><trkpt lat="44.2850717" lon="6.745425"><ele>1997.0</ele><time>2026-05-03T12:11:19.275Z</time></trkpt><trkpt lat="44.28501" lon="6.7452967"><ele>1996.9999999999998</ele><time>2026-05-03T12:11:20.275Z</time></trkpt><trkpt lat="44.2849733" lon="6.7451767"><ele>1996.9999999999998</ele><time>2026-05-03T12:11:21.275Z</time></trkpt><trkpt lat="44.28496" lon="6.745045"><ele>1997.0</ele><time>2026-05-03T12:11:22.276Z</time></trkpt><trkpt lat="44.2849783" lon="6.7449233"><ele>1997.0</ele><time>2026-05-03T12:11:23.275Z</time></trkpt><trkpt lat="44.2850183" lon="6.744815"><ele>1995.8</ele><time>2026-05-03T12:11:24.275Z</time></trkpt><trkpt lat="44.2850783" lon="6.7447133"><ele>1994.6</ele><time>2026-05-03T12:11:25.275Z</time></trkpt><trkpt lat="44.2851667" lon="6.7446483"><ele>1993.3999999999999</ele><time>2026-05-03T12:11:26.275Z</time></trkpt><trkpt lat="44.28527" lon="6.7446017"><ele>1992.1999999999998</ele><time>2026-05-03T12:11:27.275Z</time></trkpt><trkpt lat="44.2853617" lon="6.74454"><ele>1991.0</ele><time>2026-05-03T12:11:28.275Z</time></trkpt><trkpt lat="44.2854317" lon="6.744455"><ele>1989.8333333333333</ele><time>2026-05-03T12:11:29.275Z</time></trkpt><trkpt lat="44.285505" lon="6.744355"><ele>1988.6666666666665</ele><time>2026-05-03T12:11:30.275Z</time></trkpt><trkpt lat="44.2855383" lon="6.7442633"><ele>1987.5</ele><time>2026-05-03T12:11:31.275Z</time></trkpt><trkpt lat="44.2855567" lon="6.7441633"><ele>1986.3333333333335</ele><time>2026-05-03T12:11:32.276Z</time></trkpt><trkpt lat="44.2855433" lon="6.7440283"><ele>1985.1666666666667</ele><time>2026-05-03T12:11:34.275Z</time></trkpt><trkpt lat="44.2854867" lon="6.743935"><ele>1984.0</ele><time>2026-05-03T12:11:36.276Z</time></trkpt><trkpt lat="44.2854233" lon="6.7439067"><ele>1984.0</ele><time>2026-05-03T12:11:37.275Z</time></trkpt><trkpt lat="44.28533" lon="6.7438967"><ele>1984.0</ele><time>2026-05-03T12:11:38.275Z</time></trkpt><trkpt lat="44.28521" lon="6.7438833"><ele>1984.0</ele><time>2026-05-03T12:11:39.275Z</time></trkpt><trkpt lat="44.2850917" lon="6.7438933"><ele>1984.0</ele><time>2026-05-03T12:11:40.276Z</time></trkpt><trkpt lat="44.2849667" lon="6.7438983"><ele>1984.0</ele><time>2026-05-03T12:11:41.276Z</time></trkpt><trkpt lat="44.2848233" lon="6.743915"><ele>1984.0</ele><time>2026-05-03T12:11:42.275Z</time></trkpt><trkpt lat="44.284715" lon="6.74392"><ele>1984.0</ele><time>2026-05-03T12:11:43.275Z</time></trkpt><trkpt lat="44.2845967" lon="6.7439167"><ele>1984.0</ele><time>2026-05-03T12:11:44.275Z</time></trkpt><trkpt lat="44.2844833" lon="6.74392"><ele>1983.25</ele><time>2026-05-03T12:11:45.275Z</time></trkpt><trkpt lat="44.2843667" lon="6.7439183"><ele>1982.5</ele><time>2026-05-03T12:11:46.275Z</time></trkpt><trkpt lat="44.28424" lon="6.7439183"><ele>1981.75</ele><time>2026-05-03T12:11:47.276Z</time></trkpt><trkpt lat="44.2841283" lon="6.7439167"><ele>1981.0</ele><time>2026-05-03T12:11:48.276Z</time></trkpt><trkpt lat="44.2840117" lon="6.743905"><ele>1980.8</ele><time>2026-05-03T12:11:49.275Z</time></trkpt><trkpt lat="44.2838967" lon="6.7438667"><ele>1980.6</ele><time>2026-05-03T12:11:50.275Z</time></trkpt><trkpt lat="44.2838083" lon="6.7438017"><ele>1980.4</ele><time>2026-05-03T12:11:51.275Z</time></trkpt><trkpt lat="44.2837217" lon="6.74372"><ele>1980.2</ele><time>2026-05-03T12:11:52.275Z</time></trkpt><trkpt lat="44.2836633" lon="6.7436117"><ele>1980.0</ele><time>2026-05-03T12:11:53.275Z</time></trkpt><trkpt lat="44.283625" lon="6.7434733"><ele>1978.4</ele><time>2026-05-03T12:11:54.275Z</time></trkpt><trkpt lat="44.283605" lon="6.7433383"><ele>1976.8</ele><time>2026-05-03T12:11:55.275Z</time></trkpt><trkpt lat="44.2835817" lon="6.7431983"><ele>1975.1999999999998</ele><time>2026-05-03T12:11:56.275Z</time></trkpt><trkpt lat="44.2835617" lon="6.7430633"><ele>1973.6</ele><time>2026-05-03T12:11:57.275Z</time></trkpt><trkpt lat="44.2835567" lon="6.74293"><ele>1972.0</ele><time>2026-05-03T12:11:58.275Z</time></trkpt><trkpt lat="44.2835733" lon="6.7428183"><ele>1974.0</ele><time>2026-05-03T12:11:59.275Z</time></trkpt><trkpt lat="44.2836233" lon="6.742705"><ele>1975.9999999999998</ele><time>2026-05-03T12:12:00.275Z</time></trkpt><trkpt lat="44.2836817" lon="6.7426133"><ele>1977.9999999999998</ele><time>2026-05-03T12:12:01.275Z</time></trkpt><trkpt lat="44.2837467" lon="6.7425383"><ele>1980.0</ele><time>2026-05-03T12:12:02.275Z</time></trkpt><trkpt lat="44.283825" lon="6.7424783"><ele>1982.0</ele><time>2026-05-03T12:12:03.275Z</time></trkpt><trkpt lat="44.283925" lon="6.7424233"><ele>1977.0</ele><time>2026-05-03T12:12:04.275Z</time></trkpt><trkpt lat="44.284035" lon="6.7423617"><ele>1972.0</ele><time>2026-05-03T12:12:05.275Z</time></trkpt><trkpt lat="44.2841467" lon="6.7422967"><ele>1967.0</ele><time>2026-05-03T12:12:06.275Z</time></trkpt><trkpt lat="44.2842567" lon="6.7422483"><ele>1962.0</ele><time>2026-05-03T12:12:07.275Z</time></trkpt><trkpt lat="44.2843817" lon="6.7421933"><ele>1962.0</ele><time>2026-05-03T12:12:08.275Z</time></trkpt><trkpt lat="44.284515" lon="6.7421433"><ele>1962.0</ele><time>2026-05-03T12:12:09.275Z</time></trkpt><trkpt lat="44.2846483" lon="6.74209"><ele>1962.0</ele><time>2026-05-03T12:12:10.275Z</time></trkpt><trkpt lat="44.2847833" lon="6.7420533"><ele>1962.0</ele><time>2026-05-03T12:12:11.275Z</time></trkpt><trkpt lat="44.284915" lon="6.7420017"><ele>1959.25</ele><time>2026-05-03T12:12:12.275Z</time></trkpt><trkpt lat="44.2850533" lon="6.7419733"><ele>1956.5</ele><time>2026-05-03T12:12:13.275Z</time></trkpt><trkpt lat="44.2851767" lon="6.7419717"><ele>1953.75</ele><time>2026-05-03T12:12:14.276Z</time></trkpt><trkpt lat="44.2852983" lon="6.7419983"><ele>1951.0</ele><time>2026-05-03T12:12:15.275Z</time></trkpt><trkpt lat="44.2854133" lon="6.7420667"><ele>1951.0</ele><time>2026-05-03T12:12:16.275Z</time></trkpt><trkpt lat="44.2855317" lon="6.742135"><ele>1951.0</ele><time>2026-05-03T12:12:17.275Z</time></trkpt><trkpt lat="44.2856617" lon="6.7421983"><ele>1951.0</ele><time>2026-05-03T12:12:18.275Z</time></trkpt><trkpt lat="44.2858" lon="6.7422533"><ele>1951.0</ele><time>2026-05-03T12:12:19.275Z</time></trkpt><trkpt lat="44.28594" lon="6.7422967"><ele>1950.75</ele><time>2026-05-03T12:12:20.275Z</time></trkpt><trkpt lat="44.2860767" lon="6.742325"><ele>1950.5</ele><time>2026-05-03T12:12:21.275Z</time></trkpt><trkpt lat="44.2862133" lon="6.7423483"><ele>1950.25</ele><time>2026-05-03T12:12:22.276Z</time></trkpt><trkpt lat="44.2863517" lon="6.7423617"><ele>1950.0</ele><time>2026-05-03T12:12:23.275Z</time></trkpt><trkpt lat="44.28649" lon="6.742355"><ele>1950.0</ele><time>2026-05-03T12:12:24.275Z</time></trkpt><trkpt lat="44.2866283" lon="6.74234"><ele>1950.0</ele><time>2026-05-03T12:12:25.275Z</time></trkpt><trkpt lat="44.2867617" lon="6.7423083"><ele>1950.0</ele><time>2026-05-03T12:12:26.275Z</time></trkpt><trkpt lat="44.2868933" lon="6.7422733"><ele>1950.0</ele><time>2026-05-03T12:12:27.275Z</time></trkpt><trkpt lat="44.287025" lon="6.7422283"><ele>1950.0</ele><time>2026-05-03T12:12:28.275Z</time></trkpt><trkpt lat="44.2871667" lon="6.7421883"><ele>1950.0</ele><time>2026-05-03T12:12:29.275Z</time></trkpt><trkpt lat="44.2872917" lon="6.7421733"><ele>1950.0</ele><time>2026-05-03T12:12:30.275Z</time></trkpt><trkpt lat="44.287425" lon="6.7422083"><ele>1950.0</ele><time>2026-05-03T12:12:31.275Z</time></trkpt><trkpt lat="44.2875567" lon="6.7422667"><ele>1950.0</ele><time>2026-05-03T12:12:32.275Z</time></trkpt><trkpt lat="44.2876833" lon="6.742345"><ele>1950.0</ele><time>2026-05-03T12:12:33.275Z</time></trkpt><trkpt lat="44.2878133" lon="6.742435"><ele>1950.0</ele><time>2026-05-03T12:12:34.275Z</time></trkpt><trkpt lat="44.2879467" lon="6.7425167"><ele>1950.0</ele><time>2026-05-03T12:12:35.276Z</time></trkpt><trkpt lat="44.2880767" lon="6.7426133"><ele>1950.75</ele><time>2026-05-03T12:12:36.275Z</time></trkpt><trkpt lat="44.2882067" lon="6.7426967"><ele>1951.5</ele><time>2026-05-03T12:12:37.275Z</time></trkpt><trkpt lat="44.288335" lon="6.7427667"><ele>1952.25</ele><time>2026-05-03T12:12:38.275Z</time></trkpt><trkpt lat="44.2884517" lon="6.7428533"><ele>1953.0</ele><time>2026-05-03T12:12:39.275Z</time></trkpt><trkpt lat="44.2885483" lon="6.7429183"><ele>1951.3333333333333</ele><time>2026-05-03T12:12:40.275Z</time></trkpt><trkpt lat="44.2886117" lon="6.742965"><ele>1949.6666666666665</ele><time>2026-05-03T12:12:41.275Z</time></trkpt><trkpt lat="44.2886817" lon="6.7430183"><ele>1948.0</ele><time>2026-05-03T12:12:43.275Z</time></trkpt><trkpt lat="44.2887733" lon="6.7430683"><ele>1946.3333333333333</ele><time>2026-05-03T12:12:45.276Z</time></trkpt><trkpt lat="44.2888483" lon="6.74311"><ele>1944.6666666666665</ele><time>2026-05-03T12:12:46.275Z</time></trkpt><trkpt lat="44.2889417" lon="6.7431583"><ele>1943.0</ele><time>2026-05-03T12:12:47.275Z</time></trkpt><trkpt lat="44.28904" lon="6.74321"><ele>1943.0</ele><time>2026-05-03T12:12:48.275Z</time></trkpt><trkpt lat="44.2891483" lon="6.74327"><ele>1943.0</ele><time>2026-05-03T12:12:49.275Z</time></trkpt><trkpt lat="44.28927" lon="6.7433233"><ele>1943.0</ele><time>2026-05-03T12:12:50.275Z</time></trkpt><trkpt lat="44.2893917" lon="6.7433817"><ele>1943.0</ele><time>2026-05-03T12:12:51.275Z</time></trkpt><trkpt lat="44.289515" lon="6.7434417"><ele>1943.0</ele><time>2026-05-03T12:12:52.275Z</time></trkpt><trkpt lat="44.2896417" lon="6.7435133"><ele>1943.0</ele><time>2026-05-03T12:12:53.275Z</time></trkpt><trkpt lat="44.2897667" lon="6.7435783"><ele>1943.0</ele><time>2026-05-03T12:12:54.276Z</time></trkpt><trkpt lat="44.28989" lon="6.743635"><ele>1943.0</ele><time>2026-05-03T12:12:55.275Z</time></trkpt><trkpt lat="44.2900133" lon="6.7436933"><ele>1938.0</ele><time>2026-05-03T12:12:56.275Z</time></trkpt><trkpt lat="44.29014" lon="6.743745"><ele>1933.0</ele><time>2026-05-03T12:12:57.275Z</time></trkpt><trkpt lat="44.2902633" lon="6.7437917"><ele>1928.0</ele><time>2026-05-03T12:12:58.275Z</time></trkpt><trkpt lat="44.29039" lon="6.7438283"><ele>1923.0</ele><time>2026-05-03T12:12:59.275Z</time></trkpt><trkpt lat="44.290515" lon="6.7438633"><ele>1923.0</ele><time>2026-05-03T12:13:00.275Z</time></trkpt><trkpt lat="44.29064" lon="6.7438983"><ele>1923.0</ele><time>2026-05-03T12:13:01.276Z</time></trkpt><trkpt lat="44.2907683" lon="6.7439367"><ele>1923.0</ele><time>2026-05-03T12:13:02.275Z</time></trkpt><trkpt lat="44.2909033" lon="6.7439483"><ele>1923.0</ele><time>2026-05-03T12:13:03.275Z</time></trkpt><trkpt lat="44.291035" lon="6.743955"><ele>1923.0</ele><time>2026-05-03T12:13:04.275Z</time></trkpt><trkpt lat="44.29117" lon="6.7439417"><ele>1923.0</ele><time>2026-05-03T12:13:05.275Z</time></trkpt><trkpt lat="44.29131" lon="6.743915"><ele>1923.0</ele><time>2026-05-03T12:13:06.275Z</time></trkpt><trkpt lat="44.2914367" lon="6.7438883"><ele>1923.0</ele><time>2026-05-03T12:13:07.275Z</time></trkpt><trkpt lat="44.2915533" lon="6.7438817"><ele>1923.25</ele><time>2026-05-03T12:13:08.275Z</time></trkpt><trkpt lat="44.29167" lon="6.74389"><ele>1923.5</ele><time>2026-05-03T12:13:09.275Z</time></trkpt><trkpt lat="44.291785" lon="6.743925"><ele>1923.75</ele><time>2026-05-03T12:13:10.275Z</time></trkpt><trkpt lat="44.29189" lon="6.74397"><ele>1924.0</ele><time>2026-05-03T12:13:11.275Z</time></trkpt><trkpt lat="44.2919967" lon="6.7440233"><ele>1924.0</ele><time>2026-05-03T12:13:12.275Z</time></trkpt><trkpt lat="44.292085" lon="6.7440633"><ele>1924.0</ele><time>2026-05-03T12:13:13.275Z</time></trkpt><trkpt lat="44.2921817" lon="6.7440833"><ele>1924.0</ele><time>2026-05-03T12:13:14.275Z</time></trkpt><trkpt lat="44.29228" lon="6.74407"><ele>1924.0</ele><time>2026-05-03T12:13:15.275Z</time></trkpt><trkpt lat="44.2923817" lon="6.7440267"><ele>1924.0</ele><time>2026-05-03T12:13:16.275Z</time></trkpt><trkpt lat="44.2924967" lon="6.74396"><ele>1924.25</ele><time>2026-05-03T12:13:17.275Z</time></trkpt><trkpt lat="44.2926083" lon="6.7439033"><ele>1924.5</ele><time>2026-05-03T12:13:18.275Z</time></trkpt><trkpt lat="44.2927233" lon="6.74388"><ele>1924.75</ele><time>2026-05-03T12:13:19.276Z</time></trkpt><trkpt lat="44.2928433" lon="6.7438917"><ele>1925.0</ele><time>2026-05-03T12:13:20.275Z</time></trkpt><trkpt lat="44.292955" lon="6.743925"><ele>1925.0</ele><time>2026-05-03T12:13:21.275Z</time></trkpt><trkpt lat="44.2930617" lon="6.74397"><ele>1925.0</ele><time>2026-05-03T12:13:22.275Z</time></trkpt><trkpt lat="44.29318" lon="6.74398"><ele>1925.0</ele><time>2026-05-03T12:13:23.275Z</time></trkpt><trkpt lat="44.293305" lon="6.7439667"><ele>1925.0</ele><time>2026-05-03T12:13:24.275Z</time></trkpt><trkpt lat="44.29344" lon="6.7439517"><ele>1921.0</ele><time>2026-05-03T12:13:25.275Z</time></trkpt><trkpt lat="44.29358" lon="6.7439233"><ele>1917.0</ele><time>2026-05-03T12:13:26.276Z</time></trkpt><trkpt lat="44.293725" lon="6.7438967"><ele>1913.0</ele><time>2026-05-03T12:13:27.275Z</time></trkpt><trkpt lat="44.2938733" lon="6.7438667"><ele>1909.0</ele><time>2026-05-03T12:13:28.275Z</time></trkpt><trkpt lat="44.2940233" lon="6.74383"><ele>1908.0</ele><time>2026-05-03T12:13:29.275Z</time></trkpt><trkpt lat="44.294175" lon="6.7438"><ele>1907.0</ele><time>2026-05-03T12:13:30.275Z</time></trkpt><trkpt lat="44.2943183" lon="6.7437717"><ele>1906.0</ele><time>2026-05-03T12:13:31.275Z</time></trkpt><trkpt lat="44.29446" lon="6.7437367"><ele>1905.0</ele><time>2026-05-03T12:13:32.275Z</time></trkpt><trkpt lat="44.2946083" lon="6.743715"><ele>1902.6666666666665</ele><time>2026-05-03T12:13:33.275Z</time></trkpt><trkpt lat="44.29476" lon="6.743715"><ele>1900.3333333333333</ele><time>2026-05-03T12:13:34.275Z</time></trkpt><trkpt lat="44.29491" lon="6.74375"><ele>1898.0</ele><time>2026-05-03T12:13:35.275Z</time></trkpt><trkpt lat="44.2950717" lon="6.74377"><ele>1898.0</ele><time>2026-05-03T12:13:36.275Z</time></trkpt><trkpt lat="44.29522" lon="6.7438033"><ele>1898.0</ele><time>2026-05-03T12:13:37.275Z</time></trkpt><trkpt lat="44.2953583" lon="6.7438433"><ele>1898.0</ele><time>2026-05-03T12:13:38.275Z</time></trkpt><trkpt lat="44.2954983" lon="6.7438833"><ele>1898.0</ele><time>2026-05-03T12:13:39.275Z</time></trkpt><trkpt lat="44.2956467" lon="6.7439033"><ele>1897.6666666666665</ele><time>2026-05-03T12:13:40.275Z</time></trkpt><trkpt lat="44.2957967" lon="6.7439"><ele>1897.3333333333335</ele><time>2026-05-03T12:13:41.276Z</time></trkpt><trkpt lat="44.295955" lon="6.7438817"><ele>1897.0</ele><time>2026-05-03T12:13:42.275Z</time></trkpt><trkpt lat="44.2961117" lon="6.7438533"><ele>1897.0</ele><time>2026-05-03T12:13:43.275Z</time></trkpt><trkpt lat="44.2962683" lon="6.7438333"><ele>1897.0</ele><time>2026-05-03T12:13:44.275Z</time></trkpt><trkpt lat="44.2964217" lon="6.7438133"><ele>1897.0</ele><time>2026-05-03T12:13:45.276Z</time></trkpt><trkpt lat="44.2965767" lon="6.7437883"><ele>1897.0</ele><time>2026-05-03T12:13:46.276Z</time></trkpt><trkpt lat="44.2967267" lon="6.743775"><ele>1897.0</ele><time>2026-05-03T12:13:47.275Z</time></trkpt><trkpt lat="44.2968633" lon="6.743785"><ele>1897.0</ele><time>2026-05-03T12:13:48.275Z</time></trkpt><trkpt lat="44.296995" lon="6.7438283"><ele>1897.0</ele><time>2026-05-03T12:13:49.276Z</time></trkpt><trkpt lat="44.297125" lon="6.74388"><ele>1898.5</ele><time>2026-05-03T12:13:50.275Z</time></trkpt><trkpt lat="44.2972533" lon="6.74395"><ele>1900.0</ele><time>2026-05-03T12:13:51.275Z</time></trkpt><trkpt lat="44.2973717" lon="6.74404"><ele>1901.5</ele><time>2026-05-03T12:13:52.276Z</time></trkpt><trkpt lat="44.2974833" lon="6.7441367"><ele>1903.0</ele><time>2026-05-03T12:13:53.275Z</time></trkpt><trkpt lat="44.297595" lon="6.744235"><ele>1903.0</ele><time>2026-05-03T12:13:54.275Z</time></trkpt><trkpt lat="44.29772" lon="6.7442817"><ele>1903.0</ele><time>2026-05-03T12:13:55.275Z</time></trkpt><trkpt lat="44.2978467" lon="6.744305"><ele>1903.0</ele><time>2026-05-03T12:13:56.275Z</time></trkpt><trkpt lat="44.2979683" lon="6.7442967"><ele>1903.0</ele><time>2026-05-03T12:13:57.275Z</time></trkpt><trkpt lat="44.2980833" lon="6.7442633"><ele>1902.3333333333335</ele><time>2026-05-03T12:13:58.275Z</time></trkpt><trkpt lat="44.2981917" lon="6.7442383"><ele>1901.6666666666667</ele><time>2026-05-03T12:13:59.275Z</time></trkpt><trkpt lat="44.2982767" lon="6.7442317"><ele>1901.0</ele><time>2026-05-03T12:14:00.275Z</time></trkpt><trkpt lat="44.2983617" lon="6.7442117"><ele>1900.3333333333335</ele><time>2026-05-03T12:14:01.275Z</time></trkpt><trkpt lat="44.2984417" lon="6.7441933"><ele>1899.6666666666667</ele><time>2026-05-03T12:14:02.275Z</time></trkpt><trkpt lat="44.2985233" lon="6.7441683"><ele>1899.0</ele><time>2026-05-03T12:14:03.276Z</time></trkpt><trkpt lat="44.2986133" lon="6.744135"><ele>1899.0</ele><time>2026-05-03T12:14:04.275Z</time></trkpt><trkpt lat="44.2987133" lon="6.7441"><ele>1899.0</ele><time>2026-05-03T12:14:05.276Z</time></trkpt><trkpt lat="44.2988267" lon="6.7440767"><ele>1899.0</ele><time>2026-05-03T12:14:06.275Z</time></trkpt><trkpt lat="44.2989417" lon="6.7440617"><ele>1899.0</ele><time>2026-05-03T12:14:07.275Z</time></trkpt><trkpt lat="44.299065" lon="6.7440667"><ele>1897.75</ele><time>2026-05-03T12:14:08.275Z</time></trkpt><trkpt lat="44.299195" lon="6.7440783"><ele>1896.5</ele><time>2026-05-03T12:14:09.275Z</time></trkpt><trkpt lat="44.299335" lon="6.7440917"><ele>1895.25</ele><time>2026-05-03T12:14:10.275Z</time></trkpt><trkpt lat="44.299465" lon="6.7441"><ele>1894.0</ele><time>2026-05-03T12:14:11.275Z</time></trkpt><trkpt lat="44.29959" lon="6.7441117"><ele>1894.0</ele><time>2026-05-03T12:14:12.275Z</time></trkpt><trkpt lat="44.299715" lon="6.7441167"><ele>1894.0</ele><time>2026-05-03T12:14:13.275Z</time></trkpt><trkpt lat="44.2998367" lon="6.7441333"><ele>1894.0</ele><time>2026-05-03T12:14:14.275Z</time></trkpt><trkpt lat="44.2999633" lon="6.744135"><ele>1894.0</ele><time>2026-05-03T12:14:15.275Z</time></trkpt><trkpt lat="44.3000833" lon="6.7441517"><ele>1894.75</ele><time>2026-05-03T12:14:16.275Z</time></trkpt><trkpt lat="44.3002033" lon="6.7441567"><ele>1895.5</ele><time>2026-05-03T12:14:17.276Z</time></trkpt><trkpt lat="44.3003217" lon="6.7441583"><ele>1896.25</ele><time>2026-05-03T12:14:18.275Z</time></trkpt><trkpt lat="44.3004483" lon="6.7441633"><ele>1897.0</ele><time>2026-05-03T12:14:19.275Z</time></trkpt><trkpt lat="44.3005717" lon="6.744175"><ele>1896.0</ele><time>2026-05-03T12:14:20.275Z</time></trkpt><trkpt lat="44.3006967" lon="6.7442"><ele>1895.0</ele><time>2026-05-03T12:14:21.275Z</time></trkpt><trkpt lat="44.30082" lon="6.7442367"><ele>1894.0</ele><time>2026-05-03T12:14:22.275Z</time></trkpt><trkpt lat="44.30094" lon="6.744285"><ele>1893.0</ele><time>2026-05-03T12:14:23.275Z</time></trkpt><trkpt lat="44.30106" lon="6.7443467"><ele>1889.0</ele><time>2026-05-03T12:14:24.275Z</time></trkpt><trkpt lat="44.30119" lon="6.7443917"><ele>1885.0</ele><time>2026-05-03T12:14:25.276Z</time></trkpt><trkpt lat="44.3013217" lon="6.74443"><ele>1881.0</ele><time>2026-05-03T12:14:26.275Z</time></trkpt><trkpt lat="44.3014483" lon="6.7444717"><ele>1877.0</ele><time>2026-05-03T12:14:27.275Z</time></trkpt><trkpt lat="44.3015767" lon="6.744495"><ele>1876.0</ele><time>2026-05-03T12:14:28.276Z</time></trkpt><trkpt lat="44.3017033" lon="6.744505"><ele>1875.0</ele><time>2026-05-03T12:14:29.276Z</time></trkpt><trkpt lat="44.301835" lon="6.7444983"><ele>1874.0</ele><time>2026-05-03T12:14:30.275Z</time></trkpt><trkpt lat="44.3019717" lon="6.744485"><ele>1873.0</ele><time>2026-05-03T12:14:31.275Z</time></trkpt><trkpt lat="44.3020983" lon="6.7444667"><ele>1873.0</ele><time>2026-05-03T12:14:32.275Z</time></trkpt><trkpt lat="44.30222" lon="6.7444533"><ele>1873.0</ele><time>2026-05-03T12:14:33.275Z</time></trkpt><trkpt lat="44.3023367" lon="6.7444367"><ele>1873.0</ele><time>2026-05-03T12:14:34.275Z</time></trkpt><trkpt lat="44.3024467" lon="6.7444017"><ele>1873.0</ele><time>2026-05-03T12:14:35.275Z</time></trkpt><trkpt lat="44.3025467" lon="6.7443467"><ele>1876.0</ele><time>2026-05-03T12:14:36.275Z</time></trkpt><trkpt lat="44.302655" lon="6.74428"><ele>1879.0</ele><time>2026-05-03T12:14:37.275Z</time></trkpt><trkpt lat="44.3027633" lon="6.74421"><ele>1882.0</ele><time>2026-05-03T12:14:38.275Z</time></trkpt><trkpt lat="44.3028633" lon="6.7441433"><ele>1885.0</ele><time>2026-05-03T12:14:39.275Z</time></trkpt><trkpt lat="44.3029667" lon="6.7440683"><ele>1885.0</ele><time>2026-05-03T12:14:40.275Z</time></trkpt><trkpt lat="44.3030667" lon="6.7440183"><ele>1885.0</ele><time>2026-05-03T12:14:41.275Z</time></trkpt><trkpt lat="44.3031717" lon="6.7439717"><ele>1885.0</ele><time>2026-05-03T12:14:42.275Z</time></trkpt><trkpt lat="44.3032817" lon="6.7439633"><ele>1885.0</ele><time>2026-05-03T12:14:43.275Z</time></trkpt><trkpt lat="44.3033667" lon="6.7440117"><ele>1885.0</ele><time>2026-05-03T12:14:44.275Z</time></trkpt><trkpt lat="44.3034283" lon="6.74409"><ele>1883.2</ele><time>2026-05-03T12:14:45.275Z</time></trkpt><trkpt lat="44.3035083" lon="6.7441733"><ele>1881.4</ele><time>2026-05-03T12:14:46.275Z</time></trkpt><trkpt lat="44.3035983" lon="6.74422"><ele>1879.6</ele><time>2026-05-03T12:14:47.275Z</time></trkpt><trkpt lat="44.3036983" lon="6.744235"><ele>1877.8</ele><time>2026-05-03T12:14:48.276Z</time></trkpt><trkpt lat="44.3038083" lon="6.7442183"><ele>1876.0</ele><time>2026-05-03T12:14:49.275Z</time></trkpt><trkpt lat="44.303925" lon="6.744195"><ele>1875.5</ele><time>2026-05-03T12:14:50.275Z</time></trkpt><trkpt lat="44.3040417" lon="6.74415"><ele>1875.0</ele><time>2026-05-03T12:14:51.276Z</time></trkpt><trkpt lat="44.3041633" lon="6.7441133"><ele>1874.5</ele><time>2026-05-03T12:14:52.275Z</time></trkpt><trkpt lat="44.304275" lon="6.744075"><ele>1874.0</ele><time>2026-05-03T12:14:53.276Z</time></trkpt><trkpt lat="44.3043883" lon="6.74403"><ele>1874.0</ele><time>2026-05-03T12:14:54.275Z</time></trkpt><trkpt lat="44.3044983" lon="6.74397"><ele>1874.0</ele><time>2026-05-03T12:14:55.275Z</time></trkpt><trkpt lat="44.304605" lon="6.7439117"><ele>1874.0</ele><time>2026-05-03T12:14:56.275Z</time></trkpt><trkpt lat="44.304705" lon="6.743845"><ele>1874.0</ele><time>2026-05-03T12:14:57.275Z</time></trkpt><trkpt lat="44.3047983" lon="6.7437633"><ele>1872.75</ele><time>2026-05-03T12:14:58.275Z</time></trkpt><trkpt lat="44.304885" lon="6.7436683"><ele>1871.5</ele><time>2026-05-03T12:14:59.275Z</time></trkpt><trkpt lat="44.30497" lon="6.7435667"><ele>1870.25</ele><time>2026-05-03T12:15:00.275Z</time></trkpt><trkpt lat="44.3050667" lon="6.743445"><ele>1869.0</ele><time>2026-05-03T12:15:01.275Z</time></trkpt><trkpt lat="44.3051733" lon="6.743305"><ele>1869.0</ele><time>2026-05-03T12:15:02.275Z</time></trkpt><trkpt lat="44.3052817" lon="6.7431617"><ele>1869.0</ele><time>2026-05-03T12:15:03.275Z</time></trkpt><trkpt lat="44.3053967" lon="6.743025"><ele>1869.0</ele><time>2026-05-03T12:15:04.275Z</time></trkpt><trkpt lat="44.3055167" lon="6.7428983"><ele>1868.25</ele><time>2026-05-03T12:15:05.275Z</time></trkpt><trkpt lat="44.305645" lon="6.7427917"><ele>1867.5</ele><time>2026-05-03T12:15:06.276Z</time></trkpt><trkpt lat="44.30577" lon="6.7427067"><ele>1866.75</ele><time>2026-05-03T12:15:07.276Z</time></trkpt><trkpt lat="44.3058967" lon="6.7426433"><ele>1866.0</ele><time>2026-05-03T12:15:08.276Z</time></trkpt><trkpt lat="44.30603" lon="6.7425767"><ele>1866.0</ele><time>2026-05-03T12:15:09.276Z</time></trkpt><trkpt lat="44.3061583" lon="6.7425283"><ele>1866.0</ele><time>2026-05-03T12:15:10.276Z</time></trkpt><trkpt lat="44.3062933" lon="6.74247"><ele>1866.0</ele><time>2026-05-03T12:15:11.275Z</time></trkpt><trkpt lat="44.3064333" lon="6.74241"><ele>1866.0</ele><time>2026-05-03T12:15:12.275Z</time></trkpt><trkpt lat="44.3065617" lon="6.7423467"><ele>1864.0</ele><time>2026-05-03T12:15:13.275Z</time></trkpt><trkpt lat="44.3066983" lon="6.742295"><ele>1862.0</ele><time>2026-05-03T12:15:14.275Z</time></trkpt><trkpt lat="44.3068283" lon="6.7422317"><ele>1860.0</ele><time>2026-05-03T12:15:15.275Z</time></trkpt><trkpt lat="44.3069467" lon="6.7421767"><ele>1858.0</ele><time>2026-05-03T12:15:16.275Z</time></trkpt><trkpt lat="44.307065" lon="6.7421267"><ele>1858.0</ele><time>2026-05-03T12:15:17.275Z</time></trkpt><trkpt lat="44.3071667" lon="6.742065"><ele>1858.0000000000002</ele><time>2026-05-03T12:15:18.275Z</time></trkpt><trkpt lat="44.3072517" lon="6.7419867"><ele>1858.0000000000002</ele><time>2026-05-03T12:15:19.275Z</time></trkpt><trkpt lat="44.3073333" lon="6.7419067"><ele>1858.0</ele><time>2026-05-03T12:15:20.275Z</time></trkpt><trkpt lat="44.30742" lon="6.7418367"><ele>1858.0</ele><time>2026-05-03T12:15:21.275Z</time></trkpt><trkpt lat="44.3075183" lon="6.7418183"><ele>1858.1666666666667</ele><time>2026-05-03T12:15:22.275Z</time></trkpt><trkpt lat="44.3076083" lon="6.7418183"><ele>1858.3333333333335</ele><time>2026-05-03T12:15:23.275Z</time></trkpt><trkpt lat="44.3077" lon="6.74184"><ele>1858.5</ele><time>2026-05-03T12:15:24.275Z</time></trkpt><trkpt lat="44.3077817" lon="6.74185"><ele>1858.6666666666665</ele><time>2026-05-03T12:15:25.275Z</time></trkpt><trkpt lat="44.3078617" lon="6.7418533"><ele>1858.8333333333333</ele><time>2026-05-03T12:15:26.275Z</time></trkpt><trkpt lat="44.30794" lon="6.7418483"><ele>1859.0</ele><time>2026-05-03T12:15:27.275Z</time></trkpt><trkpt lat="44.30801" lon="6.7418233"><ele>1856.8333333333333</ele><time>2026-05-03T12:15:28.275Z</time></trkpt><trkpt lat="44.3080783" lon="6.7417917"><ele>1854.6666666666665</ele><time>2026-05-03T12:15:29.275Z</time></trkpt><trkpt lat="44.3081467" lon="6.7417283"><ele>1852.5</ele><time>2026-05-03T12:15:30.275Z</time></trkpt><trkpt lat="44.3082033" lon="6.7416483"><ele>1850.3333333333335</ele><time>2026-05-03T12:15:31.275Z</time></trkpt><trkpt lat="44.308235" lon="6.7415517"><ele>1848.1666666666667</ele><time>2026-05-03T12:15:32.275Z</time></trkpt><trkpt lat="44.3082517" lon="6.741435"><ele>1846.0</ele><time>2026-05-03T12:15:33.275Z</time></trkpt><trkpt lat="44.308255" lon="6.7413133"><ele>1846.0</ele><time>2026-05-03T12:15:34.275Z</time></trkpt><trkpt lat="44.3082683" lon="6.74118"><ele>1846.0</ele><time>2026-05-03T12:15:35.275Z</time></trkpt><trkpt lat="44.3082983" lon="6.7410483"><ele>1846.0</ele><time>2026-05-03T12:15:36.275Z</time></trkpt><trkpt lat="44.3083467" lon="6.74092"><ele>1846.0</ele><time>2026-05-03T12:15:37.275Z</time></trkpt><trkpt lat="44.3083983" lon="6.740805"><ele>1846.0</ele><time>2026-05-03T12:15:38.275Z</time></trkpt><trkpt lat="44.308455" lon="6.7407067"><ele>1847.0</ele><time>2026-05-03T12:15:39.275Z</time></trkpt><trkpt lat="44.3085233" lon="6.74063"><ele>1848.0</ele><time>2026-05-03T12:15:40.275Z</time></trkpt><trkpt lat="44.3085933" lon="6.7405667"><ele>1849.0</ele><time>2026-05-03T12:15:41.275Z</time></trkpt><trkpt lat="44.30868" lon="6.740515"><ele>1850.0</ele><time>2026-05-03T12:15:42.275Z</time></trkpt><trkpt lat="44.3087767" lon="6.74048"><ele>1851.0</ele><time>2026-05-03T12:15:43.275Z</time></trkpt><trkpt lat="44.308875" lon="6.740425"><ele>1849.1666666666667</ele><time>2026-05-03T12:15:44.275Z</time></trkpt><trkpt lat="44.3089517" lon="6.7403517"><ele>1847.3333333333335</ele><time>2026-05-03T12:15:45.275Z</time></trkpt><trkpt lat="44.3090117" lon="6.7402667"><ele>1845.5</ele><time>2026-05-03T12:15:46.275Z</time></trkpt><trkpt lat="44.3090533" lon="6.7401817"><ele>1843.6666666666667</ele><time>2026-05-03T12:15:47.276Z</time></trkpt><trkpt lat="44.3090933" lon="6.7400983"><ele>1841.8333333333335</ele><time>2026-05-03T12:15:48.276Z</time></trkpt><trkpt lat="44.3091467" lon="6.7400283"><ele>1840.0</ele><time>2026-05-03T12:15:49.275Z</time></trkpt><trkpt lat="44.3092133" lon="6.7399633"><ele>1840.0</ele><time>2026-05-03T12:15:50.275Z</time></trkpt><trkpt lat="44.309295" lon="6.7399033"><ele>1840.0</ele><time>2026-05-03T12:15:51.275Z</time></trkpt><trkpt lat="44.30939" lon="6.73986"><ele>1840.0</ele><time>2026-05-03T12:15:52.275Z</time></trkpt><trkpt lat="44.3094767" lon="6.7397933"><ele>1840.0</ele><time>2026-05-03T12:15:53.275Z</time></trkpt><trkpt lat="44.3095517" lon="6.7397033"><ele>1840.0</ele><time>2026-05-03T12:15:54.275Z</time></trkpt><trkpt lat="44.3096333" lon="6.7395983"><ele>1840.0</ele><time>2026-05-03T12:15:55.275Z</time></trkpt><trkpt lat="44.30971" lon="6.7394883"><ele>1840.0</ele><time>2026-05-03T12:15:56.275Z</time></trkpt><trkpt lat="44.30978" lon="6.7393667"><ele>1840.0</ele><time>2026-05-03T12:15:57.275Z</time></trkpt><trkpt lat="44.30984" lon="6.7392417"><ele>1840.0</ele><time>2026-05-03T12:15:58.275Z</time></trkpt><trkpt lat="44.3098933" lon="6.7390983"><ele>1840.0</ele><time>2026-05-03T12:15:59.275Z</time></trkpt><trkpt lat="44.309945" lon="6.7389267"><ele>1839.5</ele><time>2026-05-03T12:16:00.276Z</time></trkpt><trkpt lat="44.31001" lon="6.7387633"><ele>1839.0</ele><time>2026-05-03T12:16:01.275Z</time></trkpt><trkpt lat="44.3100717" lon="6.7386183"><ele>1838.5</ele><time>2026-05-03T12:16:02.275Z</time></trkpt><trkpt lat="44.31011" lon="6.7384533"><ele>1838.0</ele><time>2026-05-03T12:16:03.275Z</time></trkpt><trkpt lat="44.3101233" lon="6.7383017"><ele>1838.0</ele><time>2026-05-03T12:16:04.275Z</time></trkpt><trkpt lat="44.3101217" lon="6.7381333"><ele>1838.0</ele><time>2026-05-03T12:16:05.275Z</time></trkpt><trkpt lat="44.3101217" lon="6.7379833"><ele>1838.0</ele><time>2026-05-03T12:16:06.276Z</time></trkpt><trkpt lat="44.3101317" lon="6.73783"><ele>1838.0</ele><time>2026-05-03T12:16:07.275Z</time></trkpt><trkpt lat="44.3101683" lon="6.7376817"><ele>1838.5</ele><time>2026-05-03T12:16:08.275Z</time></trkpt><trkpt lat="44.3102283" lon="6.7375417"><ele>1839.0</ele><time>2026-05-03T12:16:09.275Z</time></trkpt><trkpt lat="44.3102983" lon="6.7374033"><ele>1839.5</ele><time>2026-05-03T12:16:10.275Z</time></trkpt><trkpt lat="44.3103633" lon="6.737245"><ele>1840.0</ele><time>2026-05-03T12:16:11.275Z</time></trkpt><trkpt lat="44.31042" lon="6.7370733"><ele>1840.0</ele><time>2026-05-03T12:16:12.275Z</time></trkpt><trkpt lat="44.3104717" lon="6.7369117"><ele>1840.0</ele><time>2026-05-03T12:16:13.275Z</time></trkpt><trkpt lat="44.3105383" lon="6.7367583"><ele>1840.0</ele><time>2026-05-03T12:16:14.275Z</time></trkpt><trkpt lat="44.3106133" lon="6.7366583"><ele>1840.0</ele><time>2026-05-03T12:16:15.275Z</time></trkpt><trkpt lat="44.3107067" lon="6.73658"><ele>1836.1666666666667</ele><time>2026-05-03T12:16:16.276Z</time></trkpt><trkpt lat="44.3108067" lon="6.73652"><ele>1832.3333333333335</ele><time>2026-05-03T12:16:17.275Z</time></trkpt><trkpt lat="44.3108967" lon="6.7364517"><ele>1828.5</ele><time>2026-05-03T12:16:18.275Z</time></trkpt><trkpt lat="44.31097" lon="6.7364067"><ele>1824.6666666666665</ele><time>2026-05-03T12:16:19.275Z</time></trkpt><trkpt lat="44.3110367" lon="6.7363883"><ele>1820.8333333333333</ele><time>2026-05-03T12:16:20.275Z</time></trkpt><trkpt lat="44.3111" lon="6.7363933"><ele>1817.0</ele><time>2026-05-03T12:16:21.275Z</time></trkpt><trkpt lat="44.3111717" lon="6.7365167"><ele>1817.0</ele><time>2026-05-03T12:16:23.275Z</time></trkpt><trkpt lat="44.3111617" lon="6.73661"><ele>1816.9999999999998</ele><time>2026-05-03T12:16:24.275Z</time></trkpt><trkpt lat="44.3110833" lon="6.7367233"><ele>1816.9999999999998</ele><time>2026-05-03T12:16:25.276Z</time></trkpt><trkpt lat="44.310985" lon="6.7368217"><ele>1817.0</ele><time>2026-05-03T12:16:26.275Z</time></trkpt><trkpt lat="44.3108833" lon="6.7369"><ele>1817.0</ele><time>2026-05-03T12:16:27.275Z</time></trkpt><trkpt lat="44.3108067" lon="6.736975"><ele>1814.3999999999999</ele><time>2026-05-03T12:16:28.275Z</time></trkpt><trkpt lat="44.3107433" lon="6.737055"><ele>1811.7999999999997</ele><time>2026-05-03T12:16:29.275Z</time></trkpt><trkpt lat="44.3107" lon="6.7371433"><ele>1809.2</ele><time>2026-05-03T12:16:30.275Z</time></trkpt><trkpt lat="44.31069" lon="6.737305"><ele>1806.6</ele><time>2026-05-03T12:16:32.275Z</time></trkpt><trkpt lat="44.3107667" lon="6.737405"><ele>1804.0</ele><time>2026-05-03T12:16:34.275Z</time></trkpt><trkpt lat="44.3108833" lon="6.7374033"><ele>1804.0000000000002</ele><time>2026-05-03T12:16:36.275Z</time></trkpt><trkpt lat="44.3109417" lon="6.73735"><ele>1804.0</ele><time>2026-05-03T12:16:37.275Z</time></trkpt><trkpt lat="44.310995" lon="6.7372783"><ele>1804.0</ele><time>2026-05-03T12:16:38.275Z</time></trkpt><trkpt lat="44.31105" lon="6.737185"><ele>1804.0</ele><time>2026-05-03T12:16:39.276Z</time></trkpt><trkpt lat="44.311115" lon="6.737085"><ele>1804.0000000000002</ele><time>2026-05-03T12:16:40.275Z</time></trkpt><trkpt lat="44.3111817" lon="6.7369867"><ele>1804.0</ele><time>2026-05-03T12:16:41.275Z</time></trkpt><trkpt lat="44.311245" lon="6.7369"><ele>1804.0000000000002</ele><time>2026-05-03T12:16:42.275Z</time></trkpt><trkpt lat="44.3113" lon="6.7368517"><ele>1804.0</ele><time>2026-05-03T12:16:43.275Z</time></trkpt><trkpt lat="44.3113983" lon="6.73688"><ele>1804.0</ele><time>2026-05-03T12:16:45.275Z</time></trkpt><trkpt lat="44.311425" lon="6.7369617"><ele>1804.0</ele><time>2026-05-03T12:16:46.275Z</time></trkpt><trkpt lat="44.3114233" lon="6.7370783"><ele>1804.0000000000002</ele><time>2026-05-03T12:16:47.276Z</time></trkpt><trkpt lat="44.3113983" lon="6.7372283"><ele>1804.0</ele><time>2026-05-03T12:16:48.276Z</time></trkpt><trkpt lat="44.3113533" lon="6.7374"><ele>1804.0</ele><time>2026-05-03T12:16:49.275Z</time></trkpt><trkpt lat="44.3113033" lon="6.7375833"><ele>1804.0</ele><time>2026-05-03T12:16:50.275Z</time></trkpt><trkpt lat="44.3112617" lon="6.73777"><ele>1804.0</ele><time>2026-05-03T12:16:51.275Z</time></trkpt><trkpt lat="44.31121" lon="6.7379467"><ele>1804.0</ele><time>2026-05-03T12:16:52.275Z</time></trkpt><trkpt lat="44.31115" lon="6.7381017"><ele>1802.0</ele><time>2026-05-03T12:16:53.275Z</time></trkpt><trkpt lat="44.3110817" lon="6.7382467"><ele>1800.0</ele><time>2026-05-03T12:16:54.275Z</time></trkpt><trkpt lat="44.311005" lon="6.738385"><ele>1798.0</ele><time>2026-05-03T12:16:55.275Z</time></trkpt><trkpt lat="44.3109333" lon="6.7385183"><ele>1796.0</ele><time>2026-05-03T12:16:56.275Z</time></trkpt><trkpt lat="44.31087" lon="6.7386383"><ele>1794.6</ele><time>2026-05-03T12:16:57.276Z</time></trkpt><trkpt lat="44.3108167" lon="6.7387567"><ele>1793.1999999999998</ele><time>2026-05-03T12:16:58.275Z</time></trkpt><trkpt lat="44.3107667" lon="6.73887"><ele>1791.8000000000002</ele><time>2026-05-03T12:16:59.276Z</time></trkpt><trkpt lat="44.3107333" lon="6.7389817"><ele>1790.4</ele><time>2026-05-03T12:17:00.275Z</time></trkpt><trkpt lat="44.310715" lon="6.7390983"><ele>1789.0</ele><time>2026-05-03T12:17:01.275Z</time></trkpt><trkpt lat="44.3107417" lon="6.7392133"><ele>1789.0</ele><time>2026-05-03T12:17:02.275Z</time></trkpt><trkpt lat="44.31082" lon="6.73932"><ele>1789.0</ele><time>2026-05-03T12:17:03.275Z</time></trkpt><trkpt lat="44.3109267" lon="6.7394217"><ele>1789.0</ele><time>2026-05-03T12:17:04.275Z</time></trkpt><trkpt lat="44.3110267" lon="6.7395133"><ele>1789.0</ele><time>2026-05-03T12:17:05.275Z</time></trkpt><trkpt lat="44.31112" lon="6.7396083"><ele>1788.4</ele><time>2026-05-03T12:17:06.275Z</time></trkpt><trkpt lat="44.31121" lon="6.7396917"><ele>1787.8000000000002</ele><time>2026-05-03T12:17:07.275Z</time></trkpt><trkpt lat="44.3113083" lon="6.7397533"><ele>1787.1999999999998</ele><time>2026-05-03T12:17:08.275Z</time></trkpt><trkpt lat="44.3114133" lon="6.7397833"><ele>1786.6</ele><time>2026-05-03T12:17:09.275Z</time></trkpt><trkpt lat="44.3115167" lon="6.7397767"><ele>1786.0</ele><time>2026-05-03T12:17:10.275Z</time></trkpt><trkpt lat="44.311625" lon="6.7397467"><ele>1786.0</ele><time>2026-05-03T12:17:11.275Z</time></trkpt><trkpt lat="44.311725" lon="6.7396667"><ele>1786.0</ele><time>2026-05-03T12:17:12.275Z</time></trkpt><trkpt lat="44.3118133" lon="6.7395617"><ele>1786.0</ele><time>2026-05-03T12:17:13.275Z</time></trkpt><trkpt lat="44.31188" lon="6.7394433"><ele>1786.0</ele><time>2026-05-03T12:17:14.275Z</time></trkpt><trkpt lat="44.3119367" lon="6.7393067"><ele>1784.25</ele><time>2026-05-03T12:17:15.275Z</time></trkpt><trkpt lat="44.3119883" lon="6.7391717"><ele>1782.5</ele><time>2026-05-03T12:17:16.275Z</time></trkpt><trkpt lat="44.3120317" lon="6.739025"><ele>1780.75</ele><time>2026-05-03T12:17:17.275Z</time></trkpt><trkpt lat="44.3120633" lon="6.7388583"><ele>1779.0</ele><time>2026-05-03T12:17:18.275Z</time></trkpt><trkpt lat="44.3120883" lon="6.73868"><ele>1779.0</ele><time>2026-05-03T12:17:19.275Z</time></trkpt><trkpt lat="44.3121183" lon="6.738505"><ele>1779.0</ele><time>2026-05-03T12:17:20.276Z</time></trkpt><trkpt lat="44.3121633" lon="6.7383233"><ele>1779.0</ele><time>2026-05-03T12:17:21.275Z</time></trkpt><trkpt lat="44.3122183" lon="6.73814"><ele>1779.0</ele><time>2026-05-03T12:17:22.275Z</time></trkpt><trkpt lat="44.3122883" lon="6.7379667"><ele>1780.0</ele><time>2026-05-03T12:17:23.275Z</time></trkpt><trkpt lat="44.3123633" lon="6.7377833"><ele>1781.0</ele><time>2026-05-03T12:17:24.275Z</time></trkpt><trkpt lat="44.3124467" lon="6.737595"><ele>1782.0</ele><time>2026-05-03T12:17:25.275Z</time></trkpt><trkpt lat="44.3125333" lon="6.7374167"><ele>1782.0</ele><time>2026-05-03T12:17:26.275Z</time></trkpt><trkpt lat="44.3126183" lon="6.7372433"><ele>1782.0</ele><time>2026-05-03T12:17:27.275Z</time></trkpt><trkpt lat="44.312695" lon="6.7370617"><ele>1782.0</ele><time>2026-05-03T12:17:28.275Z</time></trkpt><trkpt lat="44.3127767" lon="6.7368733"><ele>1779.0</ele><time>2026-05-03T12:17:29.276Z</time></trkpt><trkpt lat="44.3128583" lon="6.736685"><ele>1776.0</ele><time>2026-05-03T12:17:30.275Z</time></trkpt><trkpt lat="44.3129433" lon="6.736485"><ele>1773.0</ele><time>2026-05-03T12:17:31.275Z</time></trkpt><trkpt lat="44.31303" lon="6.7362833"><ele>1776.3333333333335</ele><time>2026-05-03T12:17:32.275Z</time></trkpt><trkpt lat="44.3131167" lon="6.7360833"><ele>1779.6666666666667</ele><time>2026-05-03T12:17:33.276Z</time></trkpt><trkpt lat="44.3132067" lon="6.73588"><ele>1783.0</ele><time>2026-05-03T12:17:34.275Z</time></trkpt><trkpt lat="44.3133" lon="6.7356683"><ele>1783.0</ele><time>2026-05-03T12:17:35.275Z</time></trkpt><trkpt lat="44.3133983" lon="6.7354667"><ele>1783.0</ele><time>2026-05-03T12:17:36.275Z</time></trkpt><trkpt lat="44.3135017" lon="6.7352683"><ele>1783.0</ele><time>2026-05-03T12:17:37.276Z</time></trkpt><trkpt lat="44.313605" lon="6.7350783"><ele>1786.6666666666667</ele><time>2026-05-03T12:17:38.275Z</time></trkpt><trkpt lat="44.31371" lon="6.7348917"><ele>1790.3333333333335</ele><time>2026-05-03T12:17:39.275Z</time></trkpt><trkpt lat="44.3138217" lon="6.73471"><ele>1794.0</ele><time>2026-05-03T12:17:40.275Z</time></trkpt><trkpt lat="44.3139267" lon="6.7345383"><ele>1791.0</ele><time>2026-05-03T12:17:41.275Z</time></trkpt><trkpt lat="44.3140167" lon="6.73436"><ele>1788.0</ele><time>2026-05-03T12:17:42.276Z</time></trkpt><trkpt lat="44.3141083" lon="6.7341933"><ele>1785.0</ele><time>2026-05-03T12:17:43.275Z</time></trkpt><trkpt lat="44.31419" lon="6.73404"><ele>1782.0</ele><time>2026-05-03T12:17:44.275Z</time></trkpt><trkpt lat="44.3142733" lon="6.7338833"><ele>1782.0</ele><time>2026-05-03T12:17:45.275Z</time></trkpt><trkpt lat="44.3143683" lon="6.7337283"><ele>1782.0</ele><time>2026-05-03T12:17:46.275Z</time></trkpt><trkpt lat="44.31448" lon="6.73357"><ele>1782.0</ele><time>2026-05-03T12:17:47.275Z</time></trkpt><trkpt lat="44.3145933" lon="6.7334117"><ele>1782.6666666666665</ele><time>2026-05-03T12:17:48.276Z</time></trkpt><trkpt lat="44.31471" lon="6.7332567"><ele>1783.3333333333333</ele><time>2026-05-03T12:17:49.275Z</time></trkpt><trkpt lat="44.3148267" lon="6.733105"><ele>1784.0</ele><time>2026-05-03T12:17:50.275Z</time></trkpt><trkpt lat="44.31494" lon="6.732935"><ele>1784.0</ele><time>2026-05-03T12:17:51.275Z</time></trkpt><trkpt lat="44.3150467" lon="6.7327517"><ele>1784.0</ele><time>2026-05-03T12:17:52.276Z</time></trkpt><trkpt lat="44.3151467" lon="6.73257"><ele>1784.0</ele><time>2026-05-03T12:17:53.275Z</time></trkpt><trkpt lat="44.3152317" lon="6.732355"><ele>1779.6666666666665</ele><time>2026-05-03T12:17:54.276Z</time></trkpt><trkpt lat="44.3153083" lon="6.7321567"><ele>1775.3333333333335</ele><time>2026-05-03T12:17:55.276Z</time></trkpt><trkpt lat="44.31539" lon="6.7319733"><ele>1771.0</ele><time>2026-05-03T12:17:56.275Z</time></trkpt><trkpt lat="44.3154733" lon="6.7317917"><ele>1767.3333333333335</ele><time>2026-05-03T12:17:57.276Z</time></trkpt><trkpt lat="44.3155533" lon="6.7316017"><ele>1763.6666666666665</ele><time>2026-05-03T12:17:58.275Z</time></trkpt><trkpt lat="44.315645" lon="6.7314167"><ele>1760.0</ele><time>2026-05-03T12:17:59.276Z</time></trkpt><trkpt lat="44.3157317" lon="6.731225"><ele>1763.3333333333333</ele><time>2026-05-03T12:18:00.276Z</time></trkpt><trkpt lat="44.315825" lon="6.7310417"><ele>1766.6666666666665</ele><time>2026-05-03T12:18:01.275Z</time></trkpt><trkpt lat="44.3159167" lon="6.7308667"><ele>1770.0</ele><time>2026-05-03T12:18:02.275Z</time></trkpt><trkpt lat="44.3160217" lon="6.73069"><ele>1770.0</ele><time>2026-05-03T12:18:03.275Z</time></trkpt><trkpt lat="44.316125" lon="6.7305133"><ele>1770.0</ele><time>2026-05-03T12:18:04.275Z</time></trkpt><trkpt lat="44.3162383" lon="6.73034"><ele>1770.0</ele><time>2026-05-03T12:18:05.275Z</time></trkpt><trkpt lat="44.31636" lon="6.7301633"><ele>1771.6666666666665</ele><time>2026-05-03T12:18:06.275Z</time></trkpt><trkpt lat="44.3164917" lon="6.7300083"><ele>1773.3333333333333</ele><time>2026-05-03T12:18:07.275Z</time></trkpt><trkpt lat="44.3166217" lon="6.72985"><ele>1775.0</ele><time>2026-05-03T12:18:08.275Z</time></trkpt><trkpt lat="44.3167433" lon="6.7296917"><ele>1775.0</ele><time>2026-05-03T12:18:09.276Z</time></trkpt><trkpt lat="44.3168567" lon="6.7295317"><ele>1775.0</ele><time>2026-05-03T12:18:10.275Z</time></trkpt><trkpt lat="44.3169817" lon="6.72937"><ele>1775.0</ele><time>2026-05-03T12:18:11.276Z</time></trkpt><trkpt lat="44.3170867" lon="6.7292217"><ele>1775.75</ele><time>2026-05-03T12:18:12.275Z</time></trkpt><trkpt lat="44.317185" lon="6.7290617"><ele>1776.5</ele><time>2026-05-03T12:18:13.275Z</time></trkpt><trkpt lat="44.3172567" lon="6.7288983"><ele>1777.25</ele><time>2026-05-03T12:18:14.275Z</time></trkpt><trkpt lat="44.31733" lon="6.728725"><ele>1778.0</ele><time>2026-05-03T12:18:15.275Z</time></trkpt><trkpt lat="44.31741" lon="6.7285583"><ele>1774.25</ele><time>2026-05-03T12:18:16.275Z</time></trkpt><trkpt lat="44.3175033" lon="6.7283983"><ele>1770.5</ele><time>2026-05-03T12:18:17.275Z</time></trkpt><trkpt lat="44.317595" lon="6.7282383"><ele>1766.75</ele><time>2026-05-03T12:18:18.275Z</time></trkpt><trkpt lat="44.3176833" lon="6.7280717"><ele>1763.0</ele><time>2026-05-03T12:18:19.275Z</time></trkpt><trkpt lat="44.3177517" lon="6.7278917"><ele>1760.0</ele><time>2026-05-03T12:18:20.276Z</time></trkpt><trkpt lat="44.3178017" lon="6.72769"><ele>1757.0</ele><time>2026-05-03T12:18:21.275Z</time></trkpt><trkpt lat="44.3178467" lon="6.72748"><ele>1754.0</ele><time>2026-05-03T12:18:22.275Z</time></trkpt><trkpt lat="44.3178767" lon="6.7272567"><ele>1754.0</ele><time>2026-05-03T12:18:23.275Z</time></trkpt><trkpt lat="44.3179033" lon="6.727045"><ele>1754.0</ele><time>2026-05-03T12:18:24.275Z</time></trkpt><trkpt lat="44.3179333" lon="6.7268233"><ele>1754.0</ele><time>2026-05-03T12:18:25.275Z</time></trkpt><trkpt lat="44.3179767" lon="6.72662"><ele>1756.3333333333333</ele><time>2026-05-03T12:18:26.275Z</time></trkpt><trkpt lat="44.3180267" lon="6.72639"><ele>1758.6666666666665</ele><time>2026-05-03T12:18:27.275Z</time></trkpt><trkpt lat="44.3180917" lon="6.7261683"><ele>1761.0</ele><time>2026-05-03T12:18:28.275Z</time></trkpt><trkpt lat="44.3181567" lon="6.7259667"><ele>1761.0</ele><time>2026-05-03T12:18:29.276Z</time></trkpt><trkpt lat="44.3182183" lon="6.725755"><ele>1761.0</ele><time>2026-05-03T12:18:30.275Z</time></trkpt><trkpt lat="44.3182867" lon="6.7255583"><ele>1761.0</ele><time>2026-05-03T12:18:31.275Z</time></trkpt><trkpt lat="44.318355" lon="6.725365"><ele>1756.0</ele><time>2026-05-03T12:18:32.275Z</time></trkpt><trkpt lat="44.3184317" lon="6.7251717"><ele>1751.0</ele><time>2026-05-03T12:18:33.275Z</time></trkpt><trkpt lat="44.3184917" lon="6.7249733"><ele>1746.0</ele><time>2026-05-03T12:18:34.275Z</time></trkpt><trkpt lat="44.31855" lon="6.7247933"><ele>1746.0</ele><time>2026-05-03T12:18:35.275Z</time></trkpt><trkpt lat="44.318605" lon="6.7246117"><ele>1746.0</ele><time>2026-05-03T12:18:36.276Z</time></trkpt><trkpt lat="44.3186433" lon="6.7244283"><ele>1746.0</ele><time>2026-05-03T12:18:37.275Z</time></trkpt><trkpt lat="44.3186683" lon="6.7242433"><ele>1746.0</ele><time>2026-05-03T12:18:38.275Z</time></trkpt><trkpt lat="44.318685" lon="6.7240633"><ele>1743.0</ele><time>2026-05-03T12:18:39.275Z</time></trkpt><trkpt lat="44.3187083" lon="6.72389"><ele>1740.0</ele><time>2026-05-03T12:18:40.275Z</time></trkpt><trkpt lat="44.3187367" lon="6.7237217"><ele>1737.0</ele><time>2026-05-03T12:18:41.275Z</time></trkpt><trkpt lat="44.3187817" lon="6.7235667"><ele>1734.0</ele><time>2026-05-03T12:18:42.275Z</time></trkpt><trkpt lat="44.3188533" lon="6.7234167"><ele>1739.5</ele><time>2026-05-03T12:18:43.276Z</time></trkpt><trkpt lat="44.3189483" lon="6.723285"><ele>1745.0</ele><time>2026-05-03T12:18:44.275Z</time></trkpt><trkpt lat="44.31905" lon="6.7231983"><ele>1750.5</ele><time>2026-05-03T12:18:45.275Z</time></trkpt><trkpt lat="44.319165" lon="6.7231167"><ele>1756.0</ele><time>2026-05-03T12:18:46.275Z</time></trkpt><trkpt lat="44.319265" lon="6.72304"><ele>1756.0</ele><time>2026-05-03T12:18:47.275Z</time></trkpt><trkpt lat="44.3193483" lon="6.7229617"><ele>1756.0</ele><time>2026-05-03T12:18:48.275Z</time></trkpt><trkpt lat="44.3194067" lon="6.7228567"><ele>1756.0</ele><time>2026-05-03T12:18:49.275Z</time></trkpt><trkpt lat="44.319435" lon="6.7227317"><ele>1756.0</ele><time>2026-05-03T12:18:50.275Z</time></trkpt><trkpt lat="44.31945" lon="6.7225817"><ele>1756.0</ele><time>2026-05-03T12:18:51.275Z</time></trkpt><trkpt lat="44.3194617" lon="6.7224217"><ele>1753.25</ele><time>2026-05-03T12:18:52.276Z</time></trkpt><trkpt lat="44.31948" lon="6.722255"><ele>1750.5</ele><time>2026-05-03T12:18:53.275Z</time></trkpt><trkpt lat="44.3194967" lon="6.7220833"><ele>1747.75</ele><time>2026-05-03T12:18:54.275Z</time></trkpt><trkpt lat="44.3195117" lon="6.7219"><ele>1745.0</ele><time>2026-05-03T12:18:55.275Z</time></trkpt><trkpt lat="44.319535" lon="6.721715"><ele>1744.75</ele><time>2026-05-03T12:18:56.275Z</time></trkpt><trkpt lat="44.31955" lon="6.72152"><ele>1744.5</ele><time>2026-05-03T12:18:57.275Z</time></trkpt><trkpt lat="44.319565" lon="6.7213283"><ele>1744.25</ele><time>2026-05-03T12:18:58.275Z</time></trkpt><trkpt lat="44.3195783" lon="6.7211383"><ele>1744.0</ele><time>2026-05-03T12:18:59.275Z</time></trkpt><trkpt lat="44.319575" lon="6.72093"><ele>1743.5</ele><time>2026-05-03T12:19:00.275Z</time></trkpt><trkpt lat="44.31955" lon="6.7207217"><ele>1743.0</ele><time>2026-05-03T12:19:01.275Z</time></trkpt><trkpt lat="44.3195033" lon="6.7205333"><ele>1742.5</ele><time>2026-05-03T12:19:02.275Z</time></trkpt><trkpt lat="44.3194533" lon="6.720355"><ele>1742.0</ele><time>2026-05-03T12:19:03.276Z</time></trkpt><trkpt lat="44.3194033" lon="6.72018"><ele>1743.75</ele><time>2026-05-03T12:19:04.275Z</time></trkpt><trkpt lat="44.3193683" lon="6.72"><ele>1745.5</ele><time>2026-05-03T12:19:05.276Z</time></trkpt><trkpt lat="44.31934" lon="6.719805"><ele>1747.25</ele><time>2026-05-03T12:19:06.275Z</time></trkpt><trkpt lat="44.3193217" lon="6.719595"><ele>1749.0</ele><time>2026-05-03T12:19:07.275Z</time></trkpt><trkpt lat="44.3193167" lon="6.7194067"><ele>1747.75</ele><time>2026-05-03T12:19:08.275Z</time></trkpt><trkpt lat="44.3193183" lon="6.7192317"><ele>1746.5</ele><time>2026-05-03T12:19:09.276Z</time></trkpt><trkpt lat="44.31935" lon="6.719075"><ele>1745.25</ele><time>2026-05-03T12:19:10.275Z</time></trkpt><trkpt lat="44.3193883" lon="6.718915"><ele>1744.0</ele><time>2026-05-03T12:19:11.275Z</time></trkpt><trkpt lat="44.31941" lon="6.7187567"><ele>1744.0</ele><time>2026-05-03T12:19:12.275Z</time></trkpt><trkpt lat="44.31941" lon="6.7185883"><ele>1744.0</ele><time>2026-05-03T12:19:13.275Z</time></trkpt><trkpt lat="44.3193883" lon="6.7184233"><ele>1744.0</ele><time>2026-05-03T12:19:14.276Z</time></trkpt><trkpt lat="44.3193517" lon="6.71825"><ele>1744.0</ele><time>2026-05-03T12:19:15.275Z</time></trkpt><trkpt lat="44.31931" lon="6.7180783"><ele>1743.5</ele><time>2026-05-03T12:19:16.275Z</time></trkpt><trkpt lat="44.31929" lon="6.7179117"><ele>1743.0</ele><time>2026-05-03T12:19:17.275Z</time></trkpt><trkpt lat="44.319275" lon="6.7177367"><ele>1742.5</ele><time>2026-05-03T12:19:18.276Z</time></trkpt><trkpt lat="44.3192667" lon="6.7175633"><ele>1742.0</ele><time>2026-05-03T12:19:19.275Z</time></trkpt><trkpt lat="44.3192683" lon="6.71738"><ele>1742.0</ele><time>2026-05-03T12:19:20.275Z</time></trkpt><trkpt lat="44.3192717" lon="6.7172017"><ele>1742.0</ele><time>2026-05-03T12:19:21.275Z</time></trkpt><trkpt lat="44.3192933" lon="6.7170483"><ele>1742.0</ele><time>2026-05-03T12:19:22.275Z</time></trkpt><trkpt lat="44.3193433" lon="6.7168967"><ele>1742.0</ele><time>2026-05-03T12:19:23.275Z</time></trkpt><trkpt lat="44.3194117" lon="6.71675"><ele>1739.75</ele><time>2026-05-03T12:19:24.275Z</time></trkpt><trkpt lat="44.3194933" lon="6.716595"><ele>1737.5</ele><time>2026-05-03T12:19:25.275Z</time></trkpt><trkpt lat="44.319585" lon="6.7164483"><ele>1735.25</ele><time>2026-05-03T12:19:26.275Z</time></trkpt><trkpt lat="44.31966" lon="6.7162917"><ele>1733.0</ele><time>2026-05-03T12:19:27.275Z</time></trkpt><trkpt lat="44.319715" lon="6.7161183"><ele>1737.0</ele><time>2026-05-03T12:19:28.275Z</time></trkpt><trkpt lat="44.3197533" lon="6.7159533"><ele>1741.0000000000002</ele><time>2026-05-03T12:19:29.275Z</time></trkpt><trkpt lat="44.31978" lon="6.7158"><ele>1745.0000000000002</ele><time>2026-05-03T12:19:30.276Z</time></trkpt><trkpt lat="44.3198217" lon="6.7156633"><ele>1749.0</ele><time>2026-05-03T12:19:31.275Z</time></trkpt><trkpt lat="44.3198867" lon="6.7155733"><ele>1753.0</ele><time>2026-05-03T12:19:32.275Z</time></trkpt><trkpt lat="44.319965" lon="6.7155317"><ele>1753.0000000000002</ele><time>2026-05-03T12:19:33.275Z</time></trkpt><trkpt lat="44.3200533" lon="6.715535"><ele>1753.0</ele><time>2026-05-03T12:19:34.275Z</time></trkpt><trkpt lat="44.3201383" lon="6.7155233"><ele>1753.0</ele><time>2026-05-03T12:19:35.275Z</time></trkpt><trkpt lat="44.320215" lon="6.7154883"><ele>1753.0</ele><time>2026-05-03T12:19:36.275Z</time></trkpt><trkpt lat="44.3202683" lon="6.7154067"><ele>1753.0000000000002</ele><time>2026-05-03T12:19:37.275Z</time></trkpt><trkpt lat="44.3203017" lon="6.7152983"><ele>1753.0</ele><time>2026-05-03T12:19:38.275Z</time></trkpt><trkpt lat="44.3203133" lon="6.715185"><ele>1749.8000000000002</ele><time>2026-05-03T12:19:39.275Z</time></trkpt><trkpt lat="44.320295" lon="6.7150717"><ele>1746.6000000000001</ele><time>2026-05-03T12:19:40.275Z</time></trkpt><trkpt lat="44.3202583" lon="6.7149733"><ele>1743.3999999999999</ele><time>2026-05-03T12:19:41.275Z</time></trkpt><trkpt lat="44.3201983" lon="6.7148783"><ele>1740.1999999999998</ele><time>2026-05-03T12:19:42.275Z</time></trkpt><trkpt lat="44.3201433" lon="6.7147583"><ele>1737.0</ele><time>2026-05-03T12:19:43.275Z</time></trkpt><trkpt lat="44.3201183" lon="6.71463"><ele>1737.0</ele><time>2026-05-03T12:19:44.275Z</time></trkpt><trkpt lat="44.3201167" lon="6.7145033"><ele>1736.9999999999998</ele><time>2026-05-03T12:19:45.275Z</time></trkpt><trkpt lat="44.3201567" lon="6.7143717"><ele>1736.9999999999998</ele><time>2026-05-03T12:19:46.275Z</time></trkpt><trkpt lat="44.3202333" lon="6.714245"><ele>1737.0</ele><time>2026-05-03T12:19:47.275Z</time></trkpt><trkpt lat="44.3203017" lon="6.7140883"><ele>1737.0</ele><time>2026-05-03T12:19:48.275Z</time></trkpt><trkpt lat="44.32034" lon="6.71393"><ele>1736.0</ele><time>2026-05-03T12:19:49.275Z</time></trkpt><trkpt lat="44.3203767" lon="6.7137633"><ele>1735.0</ele><time>2026-05-03T12:19:50.275Z</time></trkpt><trkpt lat="44.3204083" lon="6.713595"><ele>1734.0</ele><time>2026-05-03T12:19:51.275Z</time></trkpt><trkpt lat="44.3204417" lon="6.7134133"><ele>1733.0</ele><time>2026-05-03T12:19:52.275Z</time></trkpt><trkpt lat="44.3204683" lon="6.7132167"><ele>1733.5</ele><time>2026-05-03T12:19:53.275Z</time></trkpt><trkpt lat="44.320505" lon="6.713025"><ele>1734.0</ele><time>2026-05-03T12:19:54.276Z</time></trkpt><trkpt lat="44.3205483" lon="6.7128333"><ele>1734.5</ele><time>2026-05-03T12:19:55.275Z</time></trkpt><trkpt lat="44.3206067" lon="6.7126567"><ele>1735.0</ele><time>2026-05-03T12:19:56.275Z</time></trkpt><trkpt lat="44.3206817" lon="6.7125"><ele>1735.0</ele><time>2026-05-03T12:19:57.276Z</time></trkpt><trkpt lat="44.3207767" lon="6.71236"><ele>1735.0</ele><time>2026-05-03T12:19:58.275Z</time></trkpt><trkpt lat="44.3208767" lon="6.71223"><ele>1735.0</ele><time>2026-05-03T12:19:59.276Z</time></trkpt><trkpt lat="44.3209667" lon="6.7120983"><ele>1735.0</ele><time>2026-05-03T12:20:00.275Z</time></trkpt><trkpt lat="44.3210317" lon="6.71196"><ele>1732.75</ele><time>2026-05-03T12:20:01.275Z</time></trkpt><trkpt lat="44.3210633" lon="6.71181"><ele>1730.5</ele><time>2026-05-03T12:20:02.275Z</time></trkpt><trkpt lat="44.3210683" lon="6.7116333"><ele>1728.25</ele><time>2026-05-03T12:20:03.275Z</time></trkpt><trkpt lat="44.3210567" lon="6.71147"><ele>1726.0</ele><time>2026-05-03T12:20:04.275Z</time></trkpt><trkpt lat="44.3210683" lon="6.7113183"><ele>1726.0</ele><time>2026-05-03T12:20:05.275Z</time></trkpt><trkpt lat="44.3210933" lon="6.711185"><ele>1726.0</ele><time>2026-05-03T12:20:06.275Z</time></trkpt><trkpt lat="44.3211433" lon="6.7110467"><ele>1726.0</ele><time>2026-05-03T12:20:07.275Z</time></trkpt><trkpt lat="44.3212133" lon="6.7109133"><ele>1726.0</ele><time>2026-05-03T12:20:08.275Z</time></trkpt><trkpt lat="44.3212733" lon="6.710785"><ele>1726.0</ele><time>2026-05-03T12:20:09.275Z</time></trkpt><trkpt lat="44.3213283" lon="6.7106367"><ele>1723.75</ele><time>2026-05-03T12:20:10.275Z</time></trkpt><trkpt lat="44.3213783" lon="6.710485"><ele>1721.5</ele><time>2026-05-03T12:20:11.275Z</time></trkpt><trkpt lat="44.321405" lon="6.7103067"><ele>1719.25</ele><time>2026-05-03T12:20:12.275Z</time></trkpt><trkpt lat="44.3214017" lon="6.7101217"><ele>1717.0</ele><time>2026-05-03T12:20:13.275Z</time></trkpt><trkpt lat="44.3214183" lon="6.7099517"><ele>1722.75</ele><time>2026-05-03T12:20:14.276Z</time></trkpt><trkpt lat="44.3214567" lon="6.7097833"><ele>1728.5</ele><time>2026-05-03T12:20:15.275Z</time></trkpt><trkpt lat="44.321525" lon="6.7096467"><ele>1734.25</ele><time>2026-05-03T12:20:16.275Z</time></trkpt><trkpt lat="44.321605" lon="6.7095667"><ele>1740.0</ele><time>2026-05-03T12:20:17.276Z</time></trkpt><trkpt lat="44.321705" lon="6.7095167"><ele>1740.0</ele><time>2026-05-03T12:20:18.275Z</time></trkpt><trkpt lat="44.3217967" lon="6.7094633"><ele>1740.0</ele><time>2026-05-03T12:20:19.275Z</time></trkpt><trkpt lat="44.3218667" lon="6.7093983"><ele>1740.0</ele><time>2026-05-03T12:20:20.275Z</time></trkpt><trkpt lat="44.3219117" lon="6.7093083"><ele>1740.0</ele><time>2026-05-03T12:20:21.275Z</time></trkpt><trkpt lat="44.3219333" lon="6.7092067"><ele>1740.0</ele><time>2026-05-03T12:20:22.275Z</time></trkpt><trkpt lat="44.3219333" lon="6.709105"><ele>1740.0</ele><time>2026-05-03T12:20:23.275Z</time></trkpt><trkpt lat="44.32191" lon="6.7090133"><ele>1738.8</ele><time>2026-05-03T12:20:24.275Z</time></trkpt><trkpt lat="44.3218683" lon="6.7089283"><ele>1737.6</ele><time>2026-05-03T12:20:25.275Z</time></trkpt><trkpt lat="44.3217917" lon="6.7088533"><ele>1736.4</ele><time>2026-05-03T12:20:26.276Z</time></trkpt><trkpt lat="44.3217" lon="6.7087717"><ele>1735.2</ele><time>2026-05-03T12:20:27.275Z</time></trkpt><trkpt lat="44.3216267" lon="6.7086717"><ele>1734.0</ele><time>2026-05-03T12:20:28.275Z</time></trkpt><trkpt lat="44.3215783" lon="6.70855"><ele>1734.0</ele><time>2026-05-03T12:20:29.275Z</time></trkpt><trkpt lat="44.3215667" lon="6.7084067"><ele>1734.0</ele><time>2026-05-03T12:20:30.276Z</time></trkpt><trkpt lat="44.3215683" lon="6.7082517"><ele>1734.0</ele><time>2026-05-03T12:20:31.276Z</time></trkpt><trkpt lat="44.32155" lon="6.70809"><ele>1734.0</ele><time>2026-05-03T12:20:32.275Z</time></trkpt><trkpt lat="44.3215183" lon="6.7079517"><ele>1734.0</ele><time>2026-05-03T12:20:33.275Z</time></trkpt><trkpt lat="44.32147" lon="6.7078183"><ele>1735.0</ele><time>2026-05-03T12:20:34.275Z</time></trkpt><trkpt lat="44.321415" lon="6.7076983"><ele>1736.0</ele><time>2026-05-03T12:20:35.275Z</time></trkpt><trkpt lat="44.32137" lon="6.70757"><ele>1737.0</ele><time>2026-05-03T12:20:36.275Z</time></trkpt><trkpt lat="44.3213433" lon="6.707425"><ele>1738.0</ele><time>2026-05-03T12:20:37.275Z</time></trkpt><trkpt lat="44.3213267" lon="6.7072633"><ele>1739.0</ele><time>2026-05-03T12:20:38.275Z</time></trkpt><trkpt lat="44.3213317" lon="6.7070883"><ele>1726.0</ele><time>2026-05-03T12:20:39.275Z</time></trkpt><trkpt lat="44.3213267" lon="6.7068917"><ele>1713.0</ele><time>2026-05-03T12:20:40.275Z</time></trkpt><trkpt lat="44.3213267" lon="6.70669"><ele>1700.0</ele><time>2026-05-03T12:20:41.276Z</time></trkpt><trkpt lat="44.3213317" lon="6.7064717"><ele>1687.0</ele><time>2026-05-03T12:20:42.275Z</time></trkpt><trkpt lat="44.32134" lon="6.7062467"><ele>1687.0</ele><time>2026-05-03T12:20:43.275Z</time></trkpt><trkpt lat="44.3213483" lon="6.70603"><ele>1687.0</ele><time>2026-05-03T12:20:44.275Z</time></trkpt><trkpt lat="44.3213533" lon="6.7058133"><ele>1687.0</ele><time>2026-05-03T12:20:45.275Z</time></trkpt><trkpt lat="44.32136" lon="6.7055933"><ele>1687.0</ele><time>2026-05-03T12:20:46.275Z</time></trkpt><trkpt lat="44.3213633" lon="6.705385"><ele>1687.0</ele><time>2026-05-03T12:20:47.275Z</time></trkpt><trkpt lat="44.3213483" lon="6.705195"><ele>1687.0</ele><time>2026-05-03T12:20:48.276Z</time></trkpt><trkpt lat="44.3213283" lon="6.7050167"><ele>1687.0</ele><time>2026-05-03T12:20:49.275Z</time></trkpt><trkpt lat="44.3213233" lon="6.7048517"><ele>1686.5</ele><time>2026-05-03T12:20:50.275Z</time></trkpt><trkpt lat="44.3213417" lon="6.70468"><ele>1686.0</ele><time>2026-05-03T12:20:51.275Z</time></trkpt><trkpt lat="44.3213667" lon="6.7045067"><ele>1685.5</ele><time>2026-05-03T12:20:52.275Z</time></trkpt><trkpt lat="44.3213967" lon="6.704335"><ele>1685.0</ele><time>2026-05-03T12:20:53.276Z</time></trkpt><trkpt lat="44.3214267" lon="6.7041783"><ele>1689.8</ele><time>2026-05-03T12:20:54.276Z</time></trkpt><trkpt lat="44.3214617" lon="6.704035"><ele>1694.6</ele><time>2026-05-03T12:20:55.275Z</time></trkpt><trkpt lat="44.3215133" lon="6.703935"><ele>1699.4</ele><time>2026-05-03T12:20:56.275Z</time></trkpt><trkpt lat="44.3215933" lon="6.70386"><ele>1704.2</ele><time>2026-05-03T12:20:57.275Z</time></trkpt><trkpt lat="44.3216867" lon="6.7038133"><ele>1709.0</ele><time>2026-05-03T12:20:58.275Z</time></trkpt><trkpt lat="44.321775" lon="6.7037733"><ele>1709.0</ele><time>2026-05-03T12:20:59.275Z</time></trkpt><trkpt lat="44.321845" lon="6.7037033"><ele>1709.0</ele><time>2026-05-03T12:21:00.276Z</time></trkpt><trkpt lat="44.3218933" lon="6.7036067"><ele>1709.0</ele><time>2026-05-03T12:21:01.275Z</time></trkpt><trkpt lat="44.3219183" lon="6.7034883"><ele>1709.0</ele><time>2026-05-03T12:21:02.275Z</time></trkpt><trkpt lat="44.3219367" lon="6.7033483"><ele>1709.0</ele><time>2026-05-03T12:21:03.276Z</time></trkpt><trkpt lat="44.3219633" lon="6.7032"><ele>1705.25</ele><time>2026-05-03T12:21:04.275Z</time></trkpt><trkpt lat="44.3219933" lon="6.703035"><ele>1701.5</ele><time>2026-05-03T12:21:05.275Z</time></trkpt><trkpt lat="44.3220183" lon="6.702865"><ele>1697.75</ele><time>2026-05-03T12:21:06.275Z</time></trkpt><trkpt lat="44.3220317" lon="6.70269"><ele>1694.0</ele><time>2026-05-03T12:21:07.276Z</time></trkpt><trkpt lat="44.32204" lon="6.702515"><ele>1692.0</ele><time>2026-05-03T12:21:08.275Z</time></trkpt><trkpt lat="44.3220333" lon="6.7023183"><ele>1690.0</ele><time>2026-05-03T12:21:09.275Z</time></trkpt><trkpt lat="44.322035" lon="6.7021317"><ele>1688.0</ele><time>2026-05-03T12:21:10.275Z</time></trkpt><trkpt lat="44.3220183" lon="6.7019517"><ele>1686.0</ele><time>2026-05-03T12:21:11.275Z</time></trkpt><trkpt lat="44.32199" lon="6.70176"><ele>1686.5</ele><time>2026-05-03T12:21:12.275Z</time></trkpt><trkpt lat="44.3219617" lon="6.7015733"><ele>1687.0</ele><time>2026-05-03T12:21:13.275Z</time></trkpt><trkpt lat="44.3219233" lon="6.7013833"><ele>1687.5</ele><time>2026-05-03T12:21:14.276Z</time></trkpt><trkpt lat="44.3218783" lon="6.7011867"><ele>1688.0</ele><time>2026-05-03T12:21:15.275Z</time></trkpt><trkpt lat="44.32183" lon="6.7010033"><ele>1688.0</ele><time>2026-05-03T12:21:16.275Z</time></trkpt><trkpt lat="44.3217833" lon="6.700825"><ele>1688.0</ele><time>2026-05-03T12:21:17.275Z</time></trkpt><trkpt lat="44.321745" lon="6.700645"><ele>1688.0</ele><time>2026-05-03T12:21:18.275Z</time></trkpt><trkpt lat="44.3217183" lon="6.7004733"><ele>1688.0</ele><time>2026-05-03T12:21:19.275Z</time></trkpt><trkpt lat="44.3216867" lon="6.700305"><ele>1690.25</ele><time>2026-05-03T12:21:20.275Z</time></trkpt><trkpt lat="44.3216467" lon="6.7001367"><ele>1692.5</ele><time>2026-05-03T12:21:21.275Z</time></trkpt><trkpt lat="44.3216017" lon="6.6999767"><ele>1694.75</ele><time>2026-05-03T12:21:22.275Z</time></trkpt><trkpt lat="44.3215483" lon="6.69981"><ele>1697.0</ele><time>2026-05-03T12:21:23.275Z</time></trkpt><trkpt lat="44.3215167" lon="6.6996267"><ele>1697.0</ele><time>2026-05-03T12:21:24.275Z</time></trkpt><trkpt lat="44.321485" lon="6.6994367"><ele>1697.0</ele><time>2026-05-03T12:21:25.275Z</time></trkpt><trkpt lat="44.3214517" lon="6.6992383"><ele>1697.0</ele><time>2026-05-03T12:21:26.275Z</time></trkpt><trkpt lat="44.3214117" lon="6.6990433"><ele>1697.0</ele><time>2026-05-03T12:21:27.275Z</time></trkpt><trkpt lat="44.3213617" lon="6.698845"><ele>1686.6666666666665</ele><time>2026-05-03T12:21:28.275Z</time></trkpt><trkpt lat="44.3213217" lon="6.6986433"><ele>1676.3333333333335</ele><time>2026-05-03T12:21:29.275Z</time></trkpt><trkpt lat="44.321285" lon="6.698435"><ele>1666.0</ele><time>2026-05-03T12:21:30.275Z</time></trkpt><trkpt lat="44.3212517" lon="6.6982333"><ele>1666.0</ele><time>2026-05-03T12:21:31.276Z</time></trkpt><trkpt lat="44.3212167" lon="6.6980317"><ele>1666.0</ele><time>2026-05-03T12:21:32.275Z</time></trkpt><trkpt lat="44.3211783" lon="6.6978217"><ele>1666.0</ele><time>2026-05-03T12:21:33.275Z</time></trkpt><trkpt lat="44.3211433" lon="6.6976233"><ele>1667.5</ele><time>2026-05-03T12:21:34.275Z</time></trkpt><trkpt lat="44.3211067" lon="6.6974233"><ele>1669.0</ele><time>2026-05-03T12:21:35.275Z</time></trkpt><trkpt lat="44.321075" lon="6.6972317"><ele>1670.5</ele><time>2026-05-03T12:21:36.275Z</time></trkpt><trkpt lat="44.3210283" lon="6.6970583"><ele>1672.0</ele><time>2026-05-03T12:21:37.275Z</time></trkpt><trkpt lat="44.3209667" lon="6.6969167"><ele>1674.25</ele><time>2026-05-03T12:21:38.275Z</time></trkpt><trkpt lat="44.3208783" lon="6.69681"><ele>1676.5</ele><time>2026-05-03T12:21:39.275Z</time></trkpt><trkpt lat="44.3207733" lon="6.6967133"><ele>1678.75</ele><time>2026-05-03T12:21:40.275Z</time></trkpt><trkpt lat="44.3206767" lon="6.6965933"><ele>1681.0</ele><time>2026-05-03T12:21:41.276Z</time></trkpt><trkpt lat="44.3206117" lon="6.6964367"><ele>1681.0</ele><time>2026-05-03T12:21:42.275Z</time></trkpt><trkpt lat="44.3205683" lon="6.69627"><ele>1681.0</ele><time>2026-05-03T12:21:43.275Z</time></trkpt><trkpt lat="44.3205367" lon="6.6960867"><ele>1681.0</ele><time>2026-05-03T12:21:44.275Z</time></trkpt><trkpt lat="44.3205033" lon="6.695895"><ele>1681.0</ele><time>2026-05-03T12:21:45.275Z</time></trkpt><trkpt lat="44.320455" lon="6.6957233"><ele>1679.5</ele><time>2026-05-03T12:21:46.275Z</time></trkpt><trkpt lat="44.3203733" lon="6.6955767"><ele>1678.0</ele><time>2026-05-03T12:21:47.275Z</time></trkpt><trkpt lat="44.3202717" lon="6.6954383"><ele>1676.5</ele><time>2026-05-03T12:21:48.275Z</time></trkpt><trkpt lat="44.3201617" lon="6.6953217"><ele>1675.0</ele><time>2026-05-03T12:21:49.275Z</time></trkpt><trkpt lat="44.3200467" lon="6.695215"><ele>1675.0</ele><time>2026-05-03T12:21:50.275Z</time></trkpt><trkpt lat="44.3199367" lon="6.6951183"><ele>1675.0</ele><time>2026-05-03T12:21:51.275Z</time></trkpt><trkpt lat="44.3198267" lon="6.6950317"><ele>1675.0</ele><time>2026-05-03T12:21:52.275Z</time></trkpt><trkpt lat="44.3197317" lon="6.6949283"><ele>1675.0</ele><time>2026-05-03T12:21:53.276Z</time></trkpt><trkpt lat="44.31964" lon="6.6948033"><ele>1670.0</ele><time>2026-05-03T12:21:54.275Z</time></trkpt><trkpt lat="44.3195633" lon="6.694665"><ele>1665.0</ele><time>2026-05-03T12:21:55.275Z</time></trkpt><trkpt lat="44.3194933" lon="6.6945033"><ele>1660.0</ele><time>2026-05-03T12:21:56.275Z</time></trkpt><trkpt lat="44.31944" lon="6.694315"><ele>1655.0</ele><time>2026-05-03T12:21:57.276Z</time></trkpt><trkpt lat="44.3193967" lon="6.694125"><ele>1655.0</ele><time>2026-05-03T12:21:58.276Z</time></trkpt><trkpt lat="44.3193617" lon="6.6939283"><ele>1655.0</ele><time>2026-05-03T12:21:59.275Z</time></trkpt><trkpt lat="44.319335" lon="6.693745"><ele>1655.0</ele><time>2026-05-03T12:22:00.275Z</time></trkpt><trkpt lat="44.31929" lon="6.6935833"><ele>1655.0</ele><time>2026-05-03T12:22:01.275Z</time></trkpt><trkpt lat="44.319225" lon="6.6934383"><ele>1658.0</ele><time>2026-05-03T12:22:02.275Z</time></trkpt><trkpt lat="44.3191517" lon="6.6933217"><ele>1661.0</ele><time>2026-05-03T12:22:03.276Z</time></trkpt><trkpt lat="44.3190667" lon="6.6932183"><ele>1664.0</ele><time>2026-05-03T12:22:04.276Z</time></trkpt><trkpt lat="44.31899" lon="6.6931067"><ele>1667.0</ele><time>2026-05-03T12:22:05.275Z</time></trkpt><trkpt lat="44.318925" lon="6.6929717"><ele>1660.75</ele><time>2026-05-03T12:22:06.275Z</time></trkpt><trkpt lat="44.31887" lon="6.6928167"><ele>1654.5</ele><time>2026-05-03T12:22:07.275Z</time></trkpt><trkpt lat="44.3188333" lon="6.69266"><ele>1648.25</ele><time>2026-05-03T12:22:08.275Z</time></trkpt><trkpt lat="44.3188017" lon="6.692505"><ele>1642.0</ele><time>2026-05-03T12:22:09.275Z</time></trkpt><trkpt lat="44.3187833" lon="6.69234"><ele>1642.0</ele><time>2026-05-03T12:22:10.275Z</time></trkpt><trkpt lat="44.3187683" lon="6.6921817"><ele>1642.0</ele><time>2026-05-03T12:22:11.275Z</time></trkpt><trkpt lat="44.3187783" lon="6.6920167"><ele>1642.0</ele><time>2026-05-03T12:22:12.275Z</time></trkpt><trkpt lat="44.3187917" lon="6.69183"><ele>1642.0</ele><time>2026-05-03T12:22:13.275Z</time></trkpt><trkpt lat="44.31881" lon="6.691655"><ele>1639.75</ele><time>2026-05-03T12:22:14.275Z</time></trkpt><trkpt lat="44.3188283" lon="6.6914817"><ele>1637.5</ele><time>2026-05-03T12:22:15.276Z</time></trkpt><trkpt lat="44.3188517" lon="6.6913217"><ele>1635.25</ele><time>2026-05-03T12:22:16.275Z</time></trkpt><trkpt lat="44.3188883" lon="6.6911717"><ele>1633.0</ele><time>2026-05-03T12:22:17.275Z</time></trkpt><trkpt lat="44.3189383" lon="6.6910533"><ele>1638.2</ele><time>2026-05-03T12:22:18.275Z</time></trkpt><trkpt lat="44.319015" lon="6.690945"><ele>1643.4</ele><time>2026-05-03T12:22:19.275Z</time></trkpt><trkpt lat="44.31909" lon="6.690845"><ele>1648.6000000000001</ele><time>2026-05-03T12:22:20.275Z</time></trkpt><trkpt lat="44.31915" lon="6.69073"><ele>1653.8000000000002</ele><time>2026-05-03T12:22:21.275Z</time></trkpt><trkpt lat="44.3192033" lon="6.6905783"><ele>1659.0</ele><time>2026-05-03T12:22:22.275Z</time></trkpt><trkpt lat="44.3192233" lon="6.690425"><ele>1655.5</ele><time>2026-05-03T12:22:23.275Z</time></trkpt><trkpt lat="44.31924" lon="6.69025"><ele>1652.0</ele><time>2026-05-03T12:22:24.275Z</time></trkpt><trkpt lat="44.3192633" lon="6.69009"><ele>1648.5</ele><time>2026-05-03T12:22:25.275Z</time></trkpt><trkpt lat="44.3193" lon="6.6899267"><ele>1645.0</ele><time>2026-05-03T12:22:26.276Z</time></trkpt><trkpt lat="44.3193383" lon="6.68976"><ele>1645.0</ele><time>2026-05-03T12:22:27.275Z</time></trkpt><trkpt lat="44.3193717" lon="6.6895933"><ele>1645.0</ele><time>2026-05-03T12:22:28.276Z</time></trkpt><trkpt lat="44.3194083" lon="6.6894333"><ele>1645.0</ele><time>2026-05-03T12:22:29.275Z</time></trkpt><trkpt lat="44.319435" lon="6.6892883"><ele>1645.0</ele><time>2026-05-03T12:22:30.275Z</time></trkpt><trkpt lat="44.319455" lon="6.689145"><ele>1645.2</ele><time>2026-05-03T12:22:31.275Z</time></trkpt><trkpt lat="44.319465" lon="6.6890083"><ele>1645.4</ele><time>2026-05-03T12:22:32.275Z</time></trkpt><trkpt lat="44.319465" lon="6.68887"><ele>1645.6</ele><time>2026-05-03T12:22:33.275Z</time></trkpt><trkpt lat="44.3194467" lon="6.6887267"><ele>1645.8</ele><time>2026-05-03T12:22:34.275Z</time></trkpt><trkpt lat="44.3194117" lon="6.6885933"><ele>1646.0</ele><time>2026-05-03T12:22:35.275Z</time></trkpt><trkpt lat="44.319365" lon="6.6884617"><ele>1646.0</ele><time>2026-05-03T12:22:36.275Z</time></trkpt><trkpt lat="44.3193083" lon="6.688325"><ele>1646.0</ele><time>2026-05-03T12:22:37.275Z</time></trkpt><trkpt lat="44.3192633" lon="6.6881917"><ele>1646.0</ele><time>2026-05-03T12:22:38.275Z</time></trkpt><trkpt lat="44.3192133" lon="6.6880483"><ele>1646.0</ele><time>2026-05-03T12:22:39.275Z</time></trkpt><trkpt lat="44.319165" lon="6.6878933"><ele>1651.75</ele><time>2026-05-03T12:22:40.275Z</time></trkpt><trkpt lat="44.31912" lon="6.6877383"><ele>1657.5</ele><time>2026-05-03T12:22:41.275Z</time></trkpt><trkpt lat="44.319075" lon="6.687585"><ele>1663.25</ele><time>2026-05-03T12:22:42.276Z</time></trkpt><trkpt lat="44.3190167" lon="6.6874267"><ele>1669.0</ele><time>2026-05-03T12:22:43.275Z</time></trkpt><trkpt lat="44.3189417" lon="6.6872733"><ele>1659.5</ele><time>2026-05-03T12:22:44.276Z</time></trkpt><trkpt lat="44.3188667" lon="6.68713"><ele>1650.0</ele><time>2026-05-03T12:22:45.275Z</time></trkpt><trkpt lat="44.3187867" lon="6.6869817"><ele>1640.5</ele><time>2026-05-03T12:22:46.275Z</time></trkpt><trkpt lat="44.31871" lon="6.68683"><ele>1631.0</ele><time>2026-05-03T12:22:47.276Z</time></trkpt><trkpt lat="44.318645" lon="6.6866633"><ele>1631.0</ele><time>2026-05-03T12:22:48.275Z</time></trkpt><trkpt lat="44.3186033" lon="6.6864717"><ele>1631.0</ele><time>2026-05-03T12:22:49.275Z</time></trkpt><trkpt lat="44.3185633" lon="6.686295"><ele>1631.0</ele><time>2026-05-03T12:22:50.275Z</time></trkpt><trkpt lat="44.3185533" lon="6.6861083"><ele>1631.0</ele><time>2026-05-03T12:22:51.275Z</time></trkpt><trkpt lat="44.3185733" lon="6.6859217"><ele>1630.5</ele><time>2026-05-03T12:22:52.275Z</time></trkpt><trkpt lat="44.3185917" lon="6.6857267"><ele>1630.0</ele><time>2026-05-03T12:22:53.275Z</time></trkpt><trkpt lat="44.3186167" lon="6.6855167"><ele>1629.5</ele><time>2026-05-03T12:22:54.275Z</time></trkpt><trkpt lat="44.318635" lon="6.6853133"><ele>1629.0</ele><time>2026-05-03T12:22:55.275Z</time></trkpt><trkpt lat="44.318655" lon="6.6851"><ele>1628.5</ele><time>2026-05-03T12:22:56.275Z</time></trkpt><trkpt lat="44.318675" lon="6.684895"><ele>1628.0</ele><time>2026-05-03T12:22:57.275Z</time></trkpt><trkpt lat="44.3186783" lon="6.6846967"><ele>1627.5</ele><time>2026-05-03T12:22:58.275Z</time></trkpt><trkpt lat="44.3186633" lon="6.68451"><ele>1627.0</ele><time>2026-05-03T12:22:59.275Z</time></trkpt><trkpt lat="44.3186433" lon="6.684315"><ele>1625.0</ele><time>2026-05-03T12:23:00.275Z</time></trkpt><trkpt lat="44.3186533" lon="6.684115"><ele>1623.0</ele><time>2026-05-03T12:23:01.275Z</time></trkpt><trkpt lat="44.3186767" lon="6.6839217"><ele>1621.0</ele><time>2026-05-03T12:23:02.276Z</time></trkpt><trkpt lat="44.3187067" lon="6.6837133"><ele>1619.0</ele><time>2026-05-03T12:23:03.275Z</time></trkpt><trkpt lat="44.3187367" lon="6.6834933"><ele>1616.6666666666665</ele><time>2026-05-03T12:23:04.275Z</time></trkpt><trkpt lat="44.3187783" lon="6.6832817"><ele>1614.3333333333335</ele><time>2026-05-03T12:23:05.275Z</time></trkpt><trkpt lat="44.3188183" lon="6.683055"><ele>1612.0</ele><time>2026-05-03T12:23:06.275Z</time></trkpt><trkpt lat="44.31886" lon="6.68283"><ele>1626.3333333333335</ele><time>2026-05-03T12:23:07.276Z</time></trkpt><trkpt lat="44.3189033" lon="6.6826083"><ele>1640.6666666666665</ele><time>2026-05-03T12:23:08.275Z</time></trkpt><trkpt lat="44.3189433" lon="6.682375"><ele>1655.0</ele><time>2026-05-03T12:23:09.275Z</time></trkpt><trkpt lat="44.3189833" lon="6.6821433"><ele>1652.0</ele><time>2026-05-03T12:23:10.275Z</time></trkpt><trkpt lat="44.31902" lon="6.6819167"><ele>1649.0</ele><time>2026-05-03T12:23:11.275Z</time></trkpt><trkpt lat="44.3190533" lon="6.6816967"><ele>1646.0</ele><time>2026-05-03T12:23:12.275Z</time></trkpt><trkpt lat="44.3190683" lon="6.6814767"><ele>1646.0</ele><time>2026-05-03T12:23:13.276Z</time></trkpt><trkpt lat="44.31906" lon="6.6812767"><ele>1646.0</ele><time>2026-05-03T12:23:14.276Z</time></trkpt><trkpt lat="44.3190433" lon="6.6810933"><ele>1646.0</ele><time>2026-05-03T12:23:15.275Z</time></trkpt><trkpt lat="44.3190267" lon="6.6809383"><ele>1646.0</ele><time>2026-05-03T12:23:16.275Z</time></trkpt><trkpt lat="44.3190367" lon="6.6808"><ele>1644.8</ele><time>2026-05-03T12:23:17.275Z</time></trkpt><trkpt lat="44.319075" lon="6.6806633"><ele>1643.6</ele><time>2026-05-03T12:23:18.275Z</time></trkpt><trkpt lat="44.3191333" lon="6.6805367"><ele>1642.4</ele><time>2026-05-03T12:23:19.275Z</time></trkpt><trkpt lat="44.3192117" lon="6.68044"><ele>1641.2</ele><time>2026-05-03T12:23:20.275Z</time></trkpt><trkpt lat="44.31931" lon="6.6803717"><ele>1640.0</ele><time>2026-05-03T12:23:21.275Z</time></trkpt><trkpt lat="44.3193967" lon="6.6803183"><ele>1636.4999999999998</ele><time>2026-05-03T12:23:22.276Z</time></trkpt><trkpt lat="44.319475" lon="6.68026"><ele>1633.0</ele><time>2026-05-03T12:23:23.275Z</time></trkpt><trkpt lat="44.3195333" lon="6.680175"><ele>1629.5</ele><time>2026-05-03T12:23:24.275Z</time></trkpt><trkpt lat="44.31957" lon="6.68008"><ele>1626.0</ele><time>2026-05-03T12:23:25.275Z</time></trkpt><trkpt lat="44.3195883" lon="6.6799767"><ele>1622.4999999999998</ele><time>2026-05-03T12:23:26.275Z</time></trkpt><trkpt lat="44.3195867" lon="6.679855"><ele>1619.0</ele><time>2026-05-03T12:23:27.275Z</time></trkpt><trkpt lat="44.319555" lon="6.6797117"><ele>1619.0</ele><time>2026-05-03T12:23:28.275Z</time></trkpt><trkpt lat="44.3195333" lon="6.6795517"><ele>1619.0</ele><time>2026-05-03T12:23:29.275Z</time></trkpt><trkpt lat="44.3195333" lon="6.6793917"><ele>1619.0</ele><time>2026-05-03T12:23:30.275Z</time></trkpt><trkpt lat="44.3195733" lon="6.67924"><ele>1619.0</ele><time>2026-05-03T12:23:31.275Z</time></trkpt><trkpt lat="44.3196333" lon="6.6790883"><ele>1620.75</ele><time>2026-05-03T12:23:32.275Z</time></trkpt><trkpt lat="44.3197" lon="6.6789417"><ele>1622.5</ele><time>2026-05-03T12:23:33.275Z</time></trkpt><trkpt lat="44.3197683" lon="6.6788067"><ele>1624.25</ele><time>2026-05-03T12:23:34.275Z</time></trkpt><trkpt lat="44.3198467" lon="6.6786883"><ele>1626.0</ele><time>2026-05-03T12:23:35.275Z</time></trkpt><trkpt lat="44.31994" lon="6.67858"><ele>1626.0</ele><time>2026-05-03T12:23:36.276Z</time></trkpt><trkpt lat="44.320035" lon="6.6784683"><ele>1626.0</ele><time>2026-05-03T12:23:37.275Z</time></trkpt><trkpt lat="44.320125" lon="6.6783367"><ele>1626.0</ele><time>2026-05-03T12:23:38.275Z</time></trkpt><trkpt lat="44.320205" lon="6.6781983"><ele>1626.0</ele><time>2026-05-03T12:23:39.275Z</time></trkpt><trkpt lat="44.3202783" lon="6.6780617"><ele>1626.0</ele><time>2026-05-03T12:23:40.275Z</time></trkpt><trkpt lat="44.3203483" lon="6.6779183"><ele>1626.0</ele><time>2026-05-03T12:23:41.275Z</time></trkpt><trkpt lat="44.3203933" lon="6.6777733"><ele>1626.0</ele><time>2026-05-03T12:23:42.275Z</time></trkpt><trkpt lat="44.3204167" lon="6.6776183"><ele>1626.0</ele><time>2026-05-03T12:23:43.276Z</time></trkpt><trkpt lat="44.3204233" lon="6.6774267"><ele>1621.25</ele><time>2026-05-03T12:23:44.275Z</time></trkpt><trkpt lat="44.3204133" lon="6.6772367"><ele>1616.5</ele><time>2026-05-03T12:23:45.275Z</time></trkpt><trkpt lat="44.3203983" lon="6.6770583"><ele>1611.75</ele><time>2026-05-03T12:23:46.275Z</time></trkpt><trkpt lat="44.320385" lon="6.6768767"><ele>1607.0</ele><time>2026-05-03T12:23:47.275Z</time></trkpt><trkpt lat="44.3203733" lon="6.6766967"><ele>1605.5</ele><time>2026-05-03T12:23:48.275Z</time></trkpt><trkpt lat="44.3203733" lon="6.676515"><ele>1604.0</ele><time>2026-05-03T12:23:49.275Z</time></trkpt><trkpt lat="44.3203733" lon="6.6763367"><ele>1602.5</ele><time>2026-05-03T12:23:50.275Z</time></trkpt><trkpt lat="44.3203833" lon="6.6761567"><ele>1601.0</ele><time>2026-05-03T12:23:51.275Z</time></trkpt><trkpt lat="44.320405" lon="6.6759783"><ele>1600.0</ele><time>2026-05-03T12:23:52.275Z</time></trkpt><trkpt lat="44.32044" lon="6.6758133"><ele>1599.0</ele><time>2026-05-03T12:23:53.275Z</time></trkpt><trkpt lat="44.3204767" lon="6.675645"><ele>1598.0</ele><time>2026-05-03T12:23:54.275Z</time></trkpt><trkpt lat="44.3205217" lon="6.6754783"><ele>1597.0</ele><time>2026-05-03T12:23:55.275Z</time></trkpt><trkpt lat="44.3205733" lon="6.675305"><ele>1602.75</ele><time>2026-05-03T12:23:56.275Z</time></trkpt><trkpt lat="44.3206367" lon="6.675145"><ele>1608.5</ele><time>2026-05-03T12:23:57.275Z</time></trkpt><trkpt lat="44.320715" lon="6.675005"><ele>1614.25</ele><time>2026-05-03T12:23:58.275Z</time></trkpt><trkpt lat="44.3208117" lon="6.67487"><ele>1620.0</ele><time>2026-05-03T12:23:59.276Z</time></trkpt><trkpt lat="44.320915" lon="6.6747433"><ele>1620.0</ele><time>2026-05-03T12:24:00.275Z</time></trkpt><trkpt lat="44.32102" lon="6.6746167"><ele>1620.0</ele><time>2026-05-03T12:24:01.275Z</time></trkpt><trkpt lat="44.3211133" lon="6.674505"><ele>1620.0</ele><time>2026-05-03T12:24:02.275Z</time></trkpt><trkpt lat="44.3211917" lon="6.67437"><ele>1620.0</ele><time>2026-05-03T12:24:03.275Z</time></trkpt><trkpt lat="44.321245" lon="6.67423"><ele>1614.25</ele><time>2026-05-03T12:24:04.275Z</time></trkpt><trkpt lat="44.3212733" lon="6.67407"><ele>1608.5</ele><time>2026-05-03T12:24:05.275Z</time></trkpt><trkpt lat="44.3212917" lon="6.6738833"><ele>1602.75</ele><time>2026-05-03T12:24:06.276Z</time></trkpt><trkpt lat="44.3213167" lon="6.6736883"><ele>1597.0</ele><time>2026-05-03T12:24:07.275Z</time></trkpt><trkpt lat="44.3213517" lon="6.6734833"><ele>1593.3333333333335</ele><time>2026-05-03T12:24:08.275Z</time></trkpt><trkpt lat="44.321385" lon="6.6732783"><ele>1589.6666666666665</ele><time>2026-05-03T12:24:09.275Z</time></trkpt><trkpt lat="44.3214283" lon="6.67306"><ele>1586.0</ele><time>2026-05-03T12:24:10.275Z</time></trkpt><trkpt lat="44.3214583" lon="6.6728367"><ele>1600.3333333333333</ele><time>2026-05-03T12:24:11.275Z</time></trkpt><trkpt lat="44.3214783" lon="6.67261"><ele>1614.6666666666665</ele><time>2026-05-03T12:24:12.275Z</time></trkpt><trkpt lat="44.321505" lon="6.6723867"><ele>1629.0</ele><time>2026-05-03T12:24:13.275Z</time></trkpt><trkpt lat="44.3215283" lon="6.67217"><ele>1629.0</ele><time>2026-05-03T12:24:14.275Z</time></trkpt><trkpt lat="44.3215417" lon="6.67196"><ele>1629.0</ele><time>2026-05-03T12:24:15.276Z</time></trkpt><trkpt lat="44.321565" lon="6.671755"><ele>1629.0</ele><time>2026-05-03T12:24:16.275Z</time></trkpt><trkpt lat="44.3215833" lon="6.6715483"><ele>1629.0</ele><time>2026-05-03T12:24:17.275Z</time></trkpt><trkpt lat="44.3215767" lon="6.6713583"><ele>1625.25</ele><time>2026-05-03T12:24:18.275Z</time></trkpt><trkpt lat="44.3215483" lon="6.6711683"><ele>1621.5</ele><time>2026-05-03T12:24:19.275Z</time></trkpt><trkpt lat="44.3214983" lon="6.6709933"><ele>1617.75</ele><time>2026-05-03T12:24:20.275Z</time></trkpt><trkpt lat="44.32146" lon="6.67081"><ele>1614.0</ele><time>2026-05-03T12:24:21.276Z</time></trkpt><trkpt lat="44.32144" lon="6.6706283"><ele>1612.0</ele><time>2026-05-03T12:24:22.276Z</time></trkpt><trkpt lat="44.321445" lon="6.67045"><ele>1610.0</ele><time>2026-05-03T12:24:23.275Z</time></trkpt><trkpt lat="44.321465" lon="6.67027"><ele>1608.0</ele><time>2026-05-03T12:24:24.275Z</time></trkpt><trkpt lat="44.3214933" lon="6.6700617"><ele>1606.0</ele><time>2026-05-03T12:24:25.275Z</time></trkpt><trkpt lat="44.3215333" lon="6.6698817"><ele>1603.75</ele><time>2026-05-03T12:24:26.275Z</time></trkpt><trkpt lat="44.3215683" lon="6.6697083"><ele>1601.5</ele><time>2026-05-03T12:24:27.275Z</time></trkpt><trkpt lat="44.3216117" lon="6.669535"><ele>1599.25</ele><time>2026-05-03T12:24:28.275Z</time></trkpt><trkpt lat="44.321665" lon="6.6693683"><ele>1597.0</ele><time>2026-05-03T12:24:29.275Z</time></trkpt><trkpt lat="44.3217183" lon="6.6692017"><ele>1593.25</ele><time>2026-05-03T12:24:30.275Z</time></trkpt><trkpt lat="44.3217917" lon="6.6690483"><ele>1589.5</ele><time>2026-05-03T12:24:31.275Z</time></trkpt><trkpt lat="44.3218767" lon="6.6689217"><ele>1585.75</ele><time>2026-05-03T12:24:32.276Z</time></trkpt><trkpt lat="44.321975" lon="6.6688017"><ele>1582.0</ele><time>2026-05-03T12:24:33.275Z</time></trkpt><trkpt lat="44.3220733" lon="6.66871"><ele>1582.0</ele><time>2026-05-03T12:24:34.275Z</time></trkpt><trkpt lat="44.3221683" lon="6.6686133"><ele>1582.0</ele><time>2026-05-03T12:24:35.276Z</time></trkpt><trkpt lat="44.3222517" lon="6.668495"><ele>1582.0</ele><time>2026-05-03T12:24:36.275Z</time></trkpt><trkpt lat="44.3223183" lon="6.6683683"><ele>1582.0</ele><time>2026-05-03T12:24:37.275Z</time></trkpt><trkpt lat="44.3223933" lon="6.6682417"><ele>1584.25</ele><time>2026-05-03T12:24:38.276Z</time></trkpt><trkpt lat="44.3224817" lon="6.6681383"><ele>1586.5</ele><time>2026-05-03T12:24:39.275Z</time></trkpt><trkpt lat="44.3225817" lon="6.6680483"><ele>1588.75</ele><time>2026-05-03T12:24:40.275Z</time></trkpt><trkpt lat="44.32269" lon="6.6679817"><ele>1591.0</ele><time>2026-05-03T12:24:41.275Z</time></trkpt><trkpt lat="44.322795" lon="6.667935"><ele>1591.0</ele><time>2026-05-03T12:24:42.275Z</time></trkpt><trkpt lat="44.3228933" lon="6.667885"><ele>1591.0</ele><time>2026-05-03T12:24:43.275Z</time></trkpt><trkpt lat="44.3229883" lon="6.6678533"><ele>1591.0</ele><time>2026-05-03T12:24:44.275Z</time></trkpt><trkpt lat="44.323085" lon="6.6678517"><ele>1591.0</ele><time>2026-05-03T12:24:45.275Z</time></trkpt><trkpt lat="44.323175" lon="6.667835"><ele>1591.0</ele><time>2026-05-03T12:24:46.275Z</time></trkpt><trkpt lat="44.3232467" lon="6.6677967"><ele>1589.6666666666667</ele><time>2026-05-03T12:24:47.276Z</time></trkpt><trkpt lat="44.3233" lon="6.6677433"><ele>1588.3333333333335</ele><time>2026-05-03T12:24:48.275Z</time></trkpt><trkpt lat="44.323345" lon="6.66767"><ele>1587.0</ele><time>2026-05-03T12:24:49.276Z</time></trkpt><trkpt lat="44.3233933" lon="6.6675733"><ele>1585.6666666666665</ele><time>2026-05-03T12:24:50.275Z</time></trkpt><trkpt lat="44.3234433" lon="6.6674717"><ele>1584.3333333333333</ele><time>2026-05-03T12:24:51.276Z</time></trkpt><trkpt lat="44.3234867" lon="6.667355"><ele>1583.0</ele><time>2026-05-03T12:24:52.275Z</time></trkpt><trkpt lat="44.3235067" lon="6.6672017"><ele>1583.0</ele><time>2026-05-03T12:24:53.275Z</time></trkpt><trkpt lat="44.3235183" lon="6.6670333"><ele>1583.0</ele><time>2026-05-03T12:24:54.275Z</time></trkpt><trkpt lat="44.3235217" lon="6.6668583"><ele>1583.0</ele><time>2026-05-03T12:24:55.276Z</time></trkpt><trkpt lat="44.3235083" lon="6.66669"><ele>1583.0</ele><time>2026-05-03T12:24:56.275Z</time></trkpt><trkpt lat="44.3234867" lon="6.6665133"><ele>1581.6000000000001</ele><time>2026-05-03T12:24:57.275Z</time></trkpt><trkpt lat="44.3234533" lon="6.6663533"><ele>1580.2</ele><time>2026-05-03T12:24:58.275Z</time></trkpt><trkpt lat="44.3234067" lon="6.6662117"><ele>1578.8</ele><time>2026-05-03T12:24:59.275Z</time></trkpt><trkpt lat="44.3233617" lon="6.6660783"><ele>1577.4</ele><time>2026-05-03T12:25:00.276Z</time></trkpt><trkpt lat="44.3233367" lon="6.66593"><ele>1576.0</ele><time>2026-05-03T12:25:01.275Z</time></trkpt><trkpt lat="44.3233367" lon="6.6657783"><ele>1576.0</ele><time>2026-05-03T12:25:02.275Z</time></trkpt><trkpt lat="44.3233417" lon="6.6656067"><ele>1576.0</ele><time>2026-05-03T12:25:03.275Z</time></trkpt><trkpt lat="44.32336" lon="6.6654267"><ele>1576.0</ele><time>2026-05-03T12:25:04.275Z</time></trkpt><trkpt lat="44.3233717" lon="6.6652417"><ele>1576.0</ele><time>2026-05-03T12:25:05.275Z</time></trkpt><trkpt lat="44.3233883" lon="6.665055"><ele>1575.25</ele><time>2026-05-03T12:25:06.276Z</time></trkpt><trkpt lat="44.32341" lon="6.664875"><ele>1574.5</ele><time>2026-05-03T12:25:07.276Z</time></trkpt><trkpt lat="44.3234267" lon="6.6647017"><ele>1573.75</ele><time>2026-05-03T12:25:08.275Z</time></trkpt><trkpt lat="44.3234533" lon="6.6645583"><ele>1573.0</ele><time>2026-05-03T12:25:09.275Z</time></trkpt><trkpt lat="44.3234883" lon="6.66443"><ele>1570.8333333333335</ele><time>2026-05-03T12:25:10.275Z</time></trkpt><trkpt lat="44.32353" lon="6.6643267"><ele>1568.6666666666667</ele><time>2026-05-03T12:25:11.275Z</time></trkpt><trkpt lat="44.3235617" lon="6.6642467"><ele>1566.5</ele><time>2026-05-03T12:25:12.275Z</time></trkpt><trkpt lat="44.3235633" lon="6.6641"><ele>1564.3333333333335</ele><time>2026-05-03T12:25:14.275Z</time></trkpt><trkpt lat="44.323495" lon="6.664095"><ele>1562.1666666666667</ele><time>2026-05-03T12:25:16.275Z</time></trkpt><trkpt lat="44.32345" lon="6.6641617"><ele>1560.0</ele><time>2026-05-03T12:25:17.275Z</time></trkpt><trkpt lat="44.3234033" lon="6.6642767"><ele>1563.25</ele><time>2026-05-03T12:25:18.275Z</time></trkpt><trkpt lat="44.3233633" lon="6.66445"><ele>1566.5</ele><time>2026-05-03T12:25:19.275Z</time></trkpt><trkpt lat="44.3233333" lon="6.6646083"><ele>1569.75</ele><time>2026-05-03T12:25:20.275Z</time></trkpt><trkpt lat="44.3233067" lon="6.6647683"><ele>1573.0</ele><time>2026-05-03T12:25:21.275Z</time></trkpt><trkpt lat="44.323275" lon="6.6649333"><ele>1573.0</ele><time>2026-05-03T12:25:22.275Z</time></trkpt><trkpt lat="44.3232483" lon="6.6650983"><ele>1573.0</ele><time>2026-05-03T12:25:23.275Z</time></trkpt><trkpt lat="44.3232183" lon="6.6652683"><ele>1573.0</ele><time>2026-05-03T12:25:24.275Z</time></trkpt><trkpt lat="44.3231933" lon="6.665435"><ele>1573.0</ele><time>2026-05-03T12:25:25.275Z</time></trkpt><trkpt lat="44.32317" lon="6.6655983"><ele>1573.6000000000001</ele><time>2026-05-03T12:25:26.275Z</time></trkpt><trkpt lat="44.3231583" lon="6.6657433"><ele>1574.2</ele><time>2026-05-03T12:25:27.275Z</time></trkpt><trkpt lat="44.3231533" lon="6.66586"><ele>1574.8</ele><time>2026-05-03T12:25:28.275Z</time></trkpt><trkpt lat="44.3231367" lon="6.6659517"><ele>1575.4</ele><time>2026-05-03T12:25:29.275Z</time></trkpt><trkpt lat="44.32305" lon="6.6659933"><ele>1576.0</ele><time>2026-05-03T12:25:31.275Z</time></trkpt><trkpt lat="44.3230033" lon="6.6658617"><ele>1576.0</ele><time>2026-05-03T12:25:33.276Z</time></trkpt><trkpt lat="44.323025" lon="6.6657417"><ele>1576.0</ele><time>2026-05-03T12:25:34.275Z</time></trkpt><trkpt lat="44.3230567" lon="6.6655883"><ele>1576.0</ele><time>2026-05-03T12:25:35.275Z</time></trkpt><trkpt lat="44.3230867" lon="6.6654133"><ele>1576.0</ele><time>2026-05-03T12:25:36.275Z</time></trkpt><trkpt lat="44.3230983" lon="6.665235"><ele>1575.25</ele><time>2026-05-03T12:25:37.275Z</time></trkpt><trkpt lat="44.323115" lon="6.66504"><ele>1574.5</ele><time>2026-05-03T12:25:38.275Z</time></trkpt><trkpt lat="44.32312" lon="6.6648417"><ele>1573.75</ele><time>2026-05-03T12:25:39.275Z</time></trkpt><trkpt lat="44.32312" lon="6.6646333"><ele>1573.0</ele><time>2026-05-03T12:25:40.275Z</time></trkpt><trkpt lat="44.32311" lon="6.66443"><ele>1569.75</ele><time>2026-05-03T12:25:41.275Z</time></trkpt><trkpt lat="44.3231" lon="6.6642367"><ele>1566.5</ele><time>2026-05-03T12:25:42.275Z</time></trkpt><trkpt lat="44.3230817" lon="6.6640567"><ele>1563.25</ele><time>2026-05-03T12:25:43.275Z</time></trkpt><trkpt lat="44.3230667" lon="6.6638783"><ele>1560.0</ele><time>2026-05-03T12:25:44.275Z</time></trkpt><trkpt lat="44.3230567" lon="6.6637083"><ele>1554.2</ele><time>2026-05-03T12:25:45.275Z</time></trkpt><trkpt lat="44.32305" lon="6.6635483"><ele>1548.4</ele><time>2026-05-03T12:25:46.275Z</time></trkpt><trkpt lat="44.3230483" lon="6.66338"><ele>1542.6</ele><time>2026-05-03T12:25:47.276Z</time></trkpt><trkpt lat="44.3230517" lon="6.6632283"><ele>1536.8</ele><time>2026-05-03T12:25:48.275Z</time></trkpt><trkpt lat="44.3230383" lon="6.6630833"><ele>1531.0</ele><time>2026-05-03T12:25:49.276Z</time></trkpt><trkpt lat="44.3229983" lon="6.6629433"><ele>1531.0</ele><time>2026-05-03T12:25:50.275Z</time></trkpt><trkpt lat="44.3229483" lon="6.6627933"><ele>1531.0</ele><time>2026-05-03T12:25:51.275Z</time></trkpt><trkpt lat="44.3229067" lon="6.662635"><ele>1531.0</ele><time>2026-05-03T12:25:52.275Z</time></trkpt><trkpt lat="44.3228833" lon="6.6624683"><ele>1531.0</ele><time>2026-05-03T12:25:53.275Z</time></trkpt><trkpt lat="44.3228783" lon="6.66229"><ele>1530.75</ele><time>2026-05-03T12:25:54.275Z</time></trkpt><trkpt lat="44.3228783" lon="6.6621183"><ele>1530.5</ele><time>2026-05-03T12:25:55.276Z</time></trkpt><trkpt lat="44.3228633" lon="6.66195"><ele>1530.25</ele><time>2026-05-03T12:25:56.275Z</time></trkpt><trkpt lat="44.32282" lon="6.66179"><ele>1530.0</ele><time>2026-05-03T12:25:57.276Z</time></trkpt><trkpt lat="44.3227583" lon="6.6616483"><ele>1529.75</ele><time>2026-05-03T12:25:58.275Z</time></trkpt><trkpt lat="44.3227133" lon="6.6615083"><ele>1529.5</ele><time>2026-05-03T12:25:59.275Z</time></trkpt><trkpt lat="44.3226867" lon="6.6613533"><ele>1529.25</ele><time>2026-05-03T12:26:00.276Z</time></trkpt><trkpt lat="44.3226833" lon="6.6611833"><ele>1529.0</ele><time>2026-05-03T12:26:01.275Z</time></trkpt><trkpt lat="44.3227" lon="6.66101"><ele>1529.8000000000002</ele><time>2026-05-03T12:26:02.275Z</time></trkpt><trkpt lat="44.3227317" lon="6.6608533"><ele>1530.6000000000001</ele><time>2026-05-03T12:26:03.275Z</time></trkpt><trkpt lat="44.3227667" lon="6.6607183"><ele>1531.4</ele><time>2026-05-03T12:26:04.275Z</time></trkpt><trkpt lat="44.3227883" lon="6.6605967"><ele>1532.2</ele><time>2026-05-03T12:26:05.276Z</time></trkpt><trkpt lat="44.3227917" lon="6.6604783"><ele>1533.0</ele><time>2026-05-03T12:26:06.275Z</time></trkpt><trkpt lat="44.3227717" lon="6.6603817"><ele>1533.0</ele><time>2026-05-03T12:26:07.275Z</time></trkpt><trkpt lat="44.3227383" lon="6.6603067"><ele>1533.0</ele><time>2026-05-03T12:26:08.275Z</time></trkpt><trkpt lat="44.3226117" lon="6.6602783"><ele>1533.0</ele><time>2026-05-03T12:26:10.275Z</time></trkpt><trkpt lat="44.32252" lon="6.6603383"><ele>1533.0</ele><time>2026-05-03T12:26:11.275Z</time></trkpt><trkpt lat="44.322405" lon="6.6603733"><ele>1533.0</ele><time>2026-05-03T12:26:12.275Z</time></trkpt><trkpt lat="44.3222983" lon="6.6603783"><ele>1529.8000000000002</ele><time>2026-05-03T12:26:13.275Z</time></trkpt><trkpt lat="44.3222017" lon="6.6603317"><ele>1526.6</ele><time>2026-05-03T12:26:14.276Z</time></trkpt><trkpt lat="44.322115" lon="6.66026"><ele>1523.4</ele><time>2026-05-03T12:26:15.275Z</time></trkpt><trkpt lat="44.3220433" lon="6.6601583"><ele>1520.1999999999998</ele><time>2026-05-03T12:26:16.275Z</time></trkpt><trkpt lat="44.3219817" lon="6.6600417"><ele>1517.0</ele><time>2026-05-03T12:26:17.275Z</time></trkpt><trkpt lat="44.3219267" lon="6.659935"><ele>1517.0</ele><time>2026-05-03T12:26:18.275Z</time></trkpt><trkpt lat="44.3218633" lon="6.6598233"><ele>1517.0</ele><time>2026-05-03T12:26:19.275Z</time></trkpt><trkpt lat="44.3217983" lon="6.6596967"><ele>1517.0</ele><time>2026-05-03T12:26:20.275Z</time></trkpt><trkpt lat="44.3217217" lon="6.659565"><ele>1517.0</ele><time>2026-05-03T12:26:21.276Z</time></trkpt><trkpt lat="44.321645" lon="6.6594283"><ele>1520.0</ele><time>2026-05-03T12:26:22.275Z</time></trkpt><trkpt lat="44.3215667" lon="6.6593017"><ele>1523.0</ele><time>2026-05-03T12:26:23.276Z</time></trkpt><trkpt lat="44.321475" lon="6.6591683"><ele>1526.0</ele><time>2026-05-03T12:26:24.276Z</time></trkpt><trkpt lat="44.321375" lon="6.659025"><ele>1529.0</ele><time>2026-05-03T12:26:25.275Z</time></trkpt><trkpt lat="44.3212667" lon="6.6588933"><ele>1525.25</ele><time>2026-05-03T12:26:26.276Z</time></trkpt><trkpt lat="44.3211517" lon="6.6587683"><ele>1521.5</ele><time>2026-05-03T12:26:27.276Z</time></trkpt><trkpt lat="44.3210417" lon="6.6586417"><ele>1517.75</ele><time>2026-05-03T12:26:28.276Z</time></trkpt><trkpt lat="44.3209467" lon="6.65851"><ele>1514.0</ele><time>2026-05-03T12:26:29.275Z</time></trkpt><trkpt lat="44.32088" lon="6.65837"><ele>1514.0</ele><time>2026-05-03T12:26:30.275Z</time></trkpt><trkpt lat="44.3208167" lon="6.658215"><ele>1514.0</ele><time>2026-05-03T12:26:31.275Z</time></trkpt><trkpt lat="44.32075" lon="6.65807"><ele>1514.0</ele><time>2026-05-03T12:26:32.275Z</time></trkpt><trkpt lat="44.3206817" lon="6.6579333"><ele>1514.0</ele><time>2026-05-03T12:26:33.275Z</time></trkpt><trkpt lat="44.3206267" lon="6.6577867"><ele>1517.0</ele><time>2026-05-03T12:26:34.276Z</time></trkpt><trkpt lat="44.3205767" lon="6.6576217"><ele>1520.0</ele><time>2026-05-03T12:26:35.275Z</time></trkpt><trkpt lat="44.3205367" lon="6.6574567"><ele>1523.0</ele><time>2026-05-03T12:26:36.276Z</time></trkpt><trkpt lat="44.3204983" lon="6.6572933"><ele>1526.0</ele><time>2026-05-03T12:26:37.275Z</time></trkpt><trkpt lat="44.3204417" lon="6.6571433"><ele>1520.5</ele><time>2026-05-03T12:26:38.275Z</time></trkpt><trkpt lat="44.3203617" lon="6.6570067"><ele>1515.0</ele><time>2026-05-03T12:26:39.275Z</time></trkpt><trkpt lat="44.32027" lon="6.6568783"><ele>1509.5</ele><time>2026-05-03T12:26:40.275Z</time></trkpt><trkpt lat="44.3201617" lon="6.6567783"><ele>1504.0</ele><time>2026-05-03T12:26:41.275Z</time></trkpt><trkpt lat="44.320055" lon="6.6566817"><ele>1504.0</ele><time>2026-05-03T12:26:42.275Z</time></trkpt><trkpt lat="44.31995" lon="6.656575"><ele>1504.0</ele><time>2026-05-03T12:26:43.276Z</time></trkpt><trkpt lat="44.31986" lon="6.6564967"><ele>1504.0</ele><time>2026-05-03T12:26:44.275Z</time></trkpt><trkpt lat="44.3197783" lon="6.6564117"><ele>1504.0</ele><time>2026-05-03T12:26:45.275Z</time></trkpt><trkpt lat="44.3197183" lon="6.6563183"><ele>1504.0</ele><time>2026-05-03T12:26:46.275Z</time></trkpt><trkpt lat="44.3196783" lon="6.6561933"><ele>1498.8000000000002</ele><time>2026-05-03T12:26:47.275Z</time></trkpt><trkpt lat="44.3196483" lon="6.6560367"><ele>1493.6000000000001</ele><time>2026-05-03T12:26:48.276Z</time></trkpt><trkpt lat="44.319645" lon="6.6558833"><ele>1488.4</ele><time>2026-05-03T12:26:49.275Z</time></trkpt><trkpt lat="44.3196567" lon="6.6557517"><ele>1483.2</ele><time>2026-05-03T12:26:50.276Z</time></trkpt><trkpt lat="44.319665" lon="6.6556633"><ele>1478.0</ele><time>2026-05-03T12:26:51.275Z</time></trkpt><trkpt lat="44.3196633" lon="6.6555367"><ele>1478.0</ele><time>2026-05-03T12:26:53.275Z</time></trkpt><trkpt lat="44.3196317" lon="6.6553767"><ele>1478.0</ele><time>2026-05-03T12:26:55.275Z</time></trkpt><trkpt lat="44.3196167" lon="6.6552567"><ele>1478.0</ele><time>2026-05-03T12:26:56.275Z</time></trkpt><trkpt lat="44.3196083" lon="6.6551183"><ele>1478.0</ele><time>2026-05-03T12:26:57.275Z</time></trkpt><trkpt lat="44.319605" lon="6.6549567"><ele>1478.0</ele><time>2026-05-03T12:26:58.275Z</time></trkpt><trkpt lat="44.3196017" lon="6.6547633"><ele>1476.6666666666667</ele><time>2026-05-03T12:26:59.275Z</time></trkpt><trkpt lat="44.3196033" lon="6.6545483"><ele>1475.3333333333333</ele><time>2026-05-03T12:27:00.275Z</time></trkpt><trkpt lat="44.3196033" lon="6.6543417"><ele>1474.0</ele><time>2026-05-03T12:27:01.275Z</time></trkpt><trkpt lat="44.3196133" lon="6.65413"><ele>1474.0</ele><time>2026-05-03T12:27:02.275Z</time></trkpt><trkpt lat="44.3196333" lon="6.6539067"><ele>1474.0</ele><time>2026-05-03T12:27:03.276Z</time></trkpt><trkpt lat="44.3196383" lon="6.6536883"><ele>1474.0</ele><time>2026-05-03T12:27:04.275Z</time></trkpt><trkpt lat="44.3196517" lon="6.6534683"><ele>1473.0</ele><time>2026-05-03T12:27:05.275Z</time></trkpt><trkpt lat="44.3196667" lon="6.653255"><ele>1472.0</ele><time>2026-05-03T12:27:06.275Z</time></trkpt><trkpt lat="44.31968" lon="6.65305"><ele>1471.0</ele><time>2026-05-03T12:27:07.275Z</time></trkpt><trkpt lat="44.3196867" lon="6.6528583"><ele>1470.0</ele><time>2026-05-03T12:27:08.275Z</time></trkpt><trkpt lat="44.3196967" lon="6.6526683"><ele>1469.0</ele><time>2026-05-03T12:27:09.275Z</time></trkpt><trkpt lat="44.3197017" lon="6.6524833"><ele>1468.0</ele><time>2026-05-03T12:27:10.275Z</time></trkpt><trkpt lat="44.319685" lon="6.6523083"><ele>1467.0</ele><time>2026-05-03T12:27:11.275Z</time></trkpt><trkpt lat="44.3196467" lon="6.6521283"><ele>1466.0</ele><time>2026-05-03T12:27:12.275Z</time></trkpt><trkpt lat="44.3195883" lon="6.6519533"><ele>1466.0</ele><time>2026-05-03T12:27:13.276Z</time></trkpt><trkpt lat="44.3195233" lon="6.6517733"><ele>1466.0</ele><time>2026-05-03T12:27:14.275Z</time></trkpt><trkpt lat="44.319475" lon="6.6515917"><ele>1466.0</ele><time>2026-05-03T12:27:15.276Z</time></trkpt><trkpt lat="44.319435" lon="6.6513983"><ele>1466.0</ele><time>2026-05-03T12:27:16.275Z</time></trkpt><trkpt lat="44.3194017" lon="6.651215"><ele>1467.25</ele><time>2026-05-03T12:27:17.275Z</time></trkpt><trkpt lat="44.31937" lon="6.6510217"><ele>1468.5</ele><time>2026-05-03T12:27:18.275Z</time></trkpt><trkpt lat="44.3193583" lon="6.6508317"><ele>1469.75</ele><time>2026-05-03T12:27:19.275Z</time></trkpt><trkpt lat="44.3193517" lon="6.650645"><ele>1471.0</ele><time>2026-05-03T12:27:20.276Z</time></trkpt><trkpt lat="44.3193467" lon="6.6504483"><ele>1472.5</ele><time>2026-05-03T12:27:21.275Z</time></trkpt><trkpt lat="44.319335" lon="6.6502483"><ele>1474.0</ele><time>2026-05-03T12:27:22.275Z</time></trkpt><trkpt lat="44.3193183" lon="6.65005"><ele>1475.5</ele><time>2026-05-03T12:27:23.275Z</time></trkpt><trkpt lat="44.319315" lon="6.6498617"><ele>1477.0</ele><time>2026-05-03T12:27:24.275Z</time></trkpt><trkpt lat="44.3193117" lon="6.6496833"><ele>1477.0</ele><time>2026-05-03T12:27:25.275Z</time></trkpt><trkpt lat="44.31931" lon="6.6494833"><ele>1477.0</ele><time>2026-05-03T12:27:26.275Z</time></trkpt><trkpt lat="44.3192983" lon="6.6492667"><ele>1477.0</ele><time>2026-05-03T12:27:27.275Z</time></trkpt><trkpt lat="44.3192867" lon="6.6490883"><ele>1477.0</ele><time>2026-05-03T12:27:28.275Z</time></trkpt><trkpt lat="44.3192883" lon="6.6488917"><ele>1477.25</ele><time>2026-05-03T12:27:29.275Z</time></trkpt><trkpt lat="44.3192867" lon="6.6487033"><ele>1477.5</ele><time>2026-05-03T12:27:30.275Z</time></trkpt><trkpt lat="44.3192867" lon="6.6485217"><ele>1477.75</ele><time>2026-05-03T12:27:31.275Z</time></trkpt><trkpt lat="44.3192817" lon="6.6483367"><ele>1478.0</ele><time>2026-05-03T12:27:32.275Z</time></trkpt><trkpt lat="44.3192733" lon="6.6481483"><ele>1475.5</ele><time>2026-05-03T12:27:33.275Z</time></trkpt><trkpt lat="44.3192283" lon="6.64795"><ele>1473.0</ele><time>2026-05-03T12:27:34.275Z</time></trkpt><trkpt lat="44.3192" lon="6.647745"><ele>1470.5</ele><time>2026-05-03T12:27:35.275Z</time></trkpt><trkpt lat="44.3191667" lon="6.6475433"><ele>1468.0</ele><time>2026-05-03T12:27:36.275Z</time></trkpt><trkpt lat="44.319135" lon="6.6473383"><ele>1468.0</ele><time>2026-05-03T12:27:37.275Z</time></trkpt><trkpt lat="44.319085" lon="6.6471417"><ele>1468.0</ele><time>2026-05-03T12:27:38.275Z</time></trkpt><trkpt lat="44.3190517" lon="6.6469533"><ele>1468.0</ele><time>2026-05-03T12:27:39.275Z</time></trkpt><trkpt lat="44.3190267" lon="6.646755"><ele>1468.0</ele><time>2026-05-03T12:27:40.275Z</time></trkpt><trkpt lat="44.31902" lon="6.6465617"><ele>1468.0</ele><time>2026-05-03T12:27:41.275Z</time></trkpt><trkpt lat="44.3190217" lon="6.6463733"><ele>1468.0</ele><time>2026-05-03T12:27:42.275Z</time></trkpt><trkpt lat="44.3190217" lon="6.6462133"><ele>1468.0</ele><time>2026-05-03T12:27:43.275Z</time></trkpt><trkpt lat="44.3190217" lon="6.6460833"><ele>1468.0</ele><time>2026-05-03T12:27:44.275Z</time></trkpt><trkpt lat="44.3190167" lon="6.645955"><ele>1468.0</ele><time>2026-05-03T12:27:45.275Z</time></trkpt><trkpt lat="44.3190133" lon="6.64582"><ele>1468.0</ele><time>2026-05-03T12:27:46.275Z</time></trkpt><trkpt lat="44.3190117" lon="6.6456633"><ele>1468.0</ele><time>2026-05-03T12:27:47.275Z</time></trkpt><trkpt lat="44.3190167" lon="6.6454867"><ele>1468.0</ele><time>2026-05-03T12:27:48.275Z</time></trkpt><trkpt lat="44.319015" lon="6.6453083"><ele>1468.0</ele><time>2026-05-03T12:27:49.275Z</time></trkpt><trkpt lat="44.31901" lon="6.64512"><ele>1468.5</ele><time>2026-05-03T12:27:50.275Z</time></trkpt><trkpt lat="44.318995" lon="6.644935"><ele>1469.0</ele><time>2026-05-03T12:27:51.276Z</time></trkpt><trkpt lat="44.3189733" lon="6.6447467"><ele>1469.5</ele><time>2026-05-03T12:27:52.275Z</time></trkpt><trkpt lat="44.3189467" lon="6.6445767"><ele>1470.0</ele><time>2026-05-03T12:27:53.275Z</time></trkpt><trkpt lat="44.3189033" lon="6.6444083"><ele>1465.2</ele><time>2026-05-03T12:27:54.275Z</time></trkpt><trkpt lat="44.3188383" lon="6.6442617"><ele>1460.4</ele><time>2026-05-03T12:27:55.275Z</time></trkpt><trkpt lat="44.3187767" lon="6.6441367"><ele>1455.6</ele><time>2026-05-03T12:27:56.275Z</time></trkpt><trkpt lat="44.3187167" lon="6.6440167"><ele>1450.8</ele><time>2026-05-03T12:27:57.275Z</time></trkpt><trkpt lat="44.3186733" lon="6.6439017"><ele>1446.0</ele><time>2026-05-03T12:27:58.275Z</time></trkpt><trkpt lat="44.31865" lon="6.6437767"><ele>1446.0</ele><time>2026-05-03T12:27:59.275Z</time></trkpt><trkpt lat="44.318645" lon="6.643645"><ele>1446.0</ele><time>2026-05-03T12:28:00.275Z</time></trkpt><trkpt lat="44.3186267" lon="6.6435217"><ele>1446.0</ele><time>2026-05-03T12:28:01.275Z</time></trkpt><trkpt lat="44.3185817" lon="6.6434083"><ele>1446.0</ele><time>2026-05-03T12:28:02.275Z</time></trkpt><trkpt lat="44.31853" lon="6.6432767"><ele>1446.0</ele><time>2026-05-03T12:28:03.275Z</time></trkpt><trkpt lat="44.31848" lon="6.6431167"><ele>1448.25</ele><time>2026-05-03T12:28:04.275Z</time></trkpt><trkpt lat="44.3184483" lon="6.6429333"><ele>1450.5</ele><time>2026-05-03T12:28:05.275Z</time></trkpt><trkpt lat="44.3184233" lon="6.6427483"><ele>1452.75</ele><time>2026-05-03T12:28:06.275Z</time></trkpt><trkpt lat="44.3184033" lon="6.6425483"><ele>1455.0</ele><time>2026-05-03T12:28:07.275Z</time></trkpt><trkpt lat="44.3183933" lon="6.6423417"><ele>1455.0</ele><time>2026-05-03T12:28:08.275Z</time></trkpt><trkpt lat="44.3183867" lon="6.6421333"><ele>1455.0</ele><time>2026-05-03T12:28:09.275Z</time></trkpt><trkpt lat="44.318385" lon="6.64192"><ele>1455.0</ele><time>2026-05-03T12:28:10.275Z</time></trkpt><trkpt lat="44.3183883" lon="6.6417083"><ele>1455.25</ele><time>2026-05-03T12:28:11.275Z</time></trkpt><trkpt lat="44.3183933" lon="6.6415"><ele>1455.5</ele><time>2026-05-03T12:28:12.275Z</time></trkpt><trkpt lat="44.3184083" lon="6.6412967"><ele>1455.75</ele><time>2026-05-03T12:28:13.275Z</time></trkpt><trkpt lat="44.3184283" lon="6.6411067"><ele>1456.0</ele><time>2026-05-03T12:28:14.276Z</time></trkpt><trkpt lat="44.3184433" lon="6.6409233"><ele>1455.0</ele><time>2026-05-03T12:28:15.275Z</time></trkpt><trkpt lat="44.3184483" lon="6.6407417"><ele>1454.0</ele><time>2026-05-03T12:28:16.275Z</time></trkpt><trkpt lat="44.3184383" lon="6.6405583"><ele>1453.0</ele><time>2026-05-03T12:28:17.276Z</time></trkpt><trkpt lat="44.3184233" lon="6.640355"><ele>1452.0</ele><time>2026-05-03T12:28:18.275Z</time></trkpt><trkpt lat="44.3184017" lon="6.640135"><ele>1451.6666666666667</ele><time>2026-05-03T12:28:19.276Z</time></trkpt><trkpt lat="44.31838" lon="6.6399333"><ele>1451.3333333333335</ele><time>2026-05-03T12:28:20.276Z</time></trkpt><trkpt lat="44.3183467" lon="6.639715"><ele>1451.0</ele><time>2026-05-03T12:28:21.275Z</time></trkpt><trkpt lat="44.3183167" lon="6.6394983"><ele>1459.0</ele><time>2026-05-03T12:28:22.275Z</time></trkpt><trkpt lat="44.318295" lon="6.6392867"><ele>1467.0</ele><time>2026-05-03T12:28:23.275Z</time></trkpt><trkpt lat="44.3182817" lon="6.6390767"><ele>1475.0</ele><time>2026-05-03T12:28:24.275Z</time></trkpt><trkpt lat="44.31827" lon="6.6388683"><ele>1475.0</ele><time>2026-05-03T12:28:25.276Z</time></trkpt><trkpt lat="44.3182583" lon="6.63866"><ele>1475.0</ele><time>2026-05-03T12:28:26.275Z</time></trkpt><trkpt lat="44.318255" lon="6.6384433"><ele>1475.0</ele><time>2026-05-03T12:28:27.275Z</time></trkpt><trkpt lat="44.3182583" lon="6.6382117"><ele>1474.6666666666667</ele><time>2026-05-03T12:28:28.275Z</time></trkpt><trkpt lat="44.3182567" lon="6.63798"><ele>1474.3333333333333</ele><time>2026-05-03T12:28:29.276Z</time></trkpt><trkpt lat="44.31824" lon="6.637745"><ele>1474.0</ele><time>2026-05-03T12:28:30.275Z</time></trkpt><trkpt lat="44.3182167" lon="6.637515"><ele>1474.0</ele><time>2026-05-03T12:28:31.275Z</time></trkpt><trkpt lat="44.3181967" lon="6.6373083"><ele>1474.0</ele><time>2026-05-03T12:28:32.275Z</time></trkpt><trkpt lat="44.3181933" lon="6.637115"><ele>1474.0</ele><time>2026-05-03T12:28:33.275Z</time></trkpt><trkpt lat="44.3181867" lon="6.6369233"><ele>1474.0</ele><time>2026-05-03T12:28:34.276Z</time></trkpt><trkpt lat="44.31821" lon="6.6367367"><ele>1468.5</ele><time>2026-05-03T12:28:35.275Z</time></trkpt><trkpt lat="44.318245" lon="6.636555"><ele>1463.0</ele><time>2026-05-03T12:28:36.275Z</time></trkpt><trkpt lat="44.318275" lon="6.6363833"><ele>1457.5</ele><time>2026-05-03T12:28:37.275Z</time></trkpt><trkpt lat="44.31829" lon="6.63621"><ele>1452.0</ele><time>2026-05-03T12:28:38.275Z</time></trkpt><trkpt lat="44.3182917" lon="6.63602"><ele>1446.5</ele><time>2026-05-03T12:28:39.275Z</time></trkpt><trkpt lat="44.3182883" lon="6.635825"><ele>1441.0</ele><time>2026-05-03T12:28:40.275Z</time></trkpt><trkpt lat="44.318285" lon="6.6356283"><ele>1435.5</ele><time>2026-05-03T12:28:41.275Z</time></trkpt><trkpt lat="44.3182883" lon="6.6354383"><ele>1430.0</ele><time>2026-05-03T12:28:42.275Z</time></trkpt><trkpt lat="44.3182917" lon="6.635255"><ele>1430.0</ele><time>2026-05-03T12:28:43.275Z</time></trkpt><trkpt lat="44.318305" lon="6.6350633"><ele>1430.0</ele><time>2026-05-03T12:28:44.275Z</time></trkpt><trkpt lat="44.31831" lon="6.6348833"><ele>1430.0</ele><time>2026-05-03T12:28:45.275Z</time></trkpt><trkpt lat="44.3183267" lon="6.63471"><ele>1430.0</ele><time>2026-05-03T12:28:46.275Z</time></trkpt><trkpt lat="44.318355" lon="6.6345367"><ele>1427.5</ele><time>2026-05-03T12:28:47.275Z</time></trkpt><trkpt lat="44.318415" lon="6.6343733"><ele>1425.0</ele><time>2026-05-03T12:28:48.276Z</time></trkpt><trkpt lat="44.3184883" lon="6.6342183"><ele>1422.5</ele><time>2026-05-03T12:28:49.275Z</time></trkpt><trkpt lat="44.3185483" lon="6.6340833"><ele>1420.0</ele><time>2026-05-03T12:28:50.275Z</time></trkpt><trkpt lat="44.31859" lon="6.63394"><ele>1420.0</ele><time>2026-05-03T12:28:51.275Z</time></trkpt><trkpt lat="44.3186167" lon="6.6337883"><ele>1420.0</ele><time>2026-05-03T12:28:52.275Z</time></trkpt><trkpt lat="44.318615" lon="6.6336083"><ele>1420.0</ele><time>2026-05-03T12:28:53.276Z</time></trkpt><trkpt lat="44.318595" lon="6.63344"><ele>1420.0</ele><time>2026-05-03T12:28:54.275Z</time></trkpt><trkpt lat="44.3185733" lon="6.6332617"><ele>1420.0</ele><time>2026-05-03T12:28:55.275Z</time></trkpt><trkpt lat="44.318555" lon="6.6330783"><ele>1420.0</ele><time>2026-05-03T12:28:56.275Z</time></trkpt><trkpt lat="44.3185433" lon="6.6328967"><ele>1420.0</ele><time>2026-05-03T12:28:57.275Z</time></trkpt><trkpt lat="44.3185467" lon="6.6327183"><ele>1420.0</ele><time>2026-05-03T12:28:58.275Z</time></trkpt><trkpt lat="44.3185667" lon="6.63253"><ele>1419.5</ele><time>2026-05-03T12:28:59.275Z</time></trkpt><trkpt lat="44.3185967" lon="6.63236"><ele>1419.0</ele><time>2026-05-03T12:29:00.275Z</time></trkpt><trkpt lat="44.3186283" lon="6.63217"><ele>1418.5</ele><time>2026-05-03T12:29:01.275Z</time></trkpt><trkpt lat="44.3186517" lon="6.6319783"><ele>1418.0</ele><time>2026-05-03T12:29:02.275Z</time></trkpt><trkpt lat="44.318675" lon="6.6317933"><ele>1418.0</ele><time>2026-05-03T12:29:03.275Z</time></trkpt><trkpt lat="44.3187017" lon="6.6316117"><ele>1418.0</ele><time>2026-05-03T12:29:04.275Z</time></trkpt><trkpt lat="44.31873" lon="6.6314383"><ele>1418.0</ele><time>2026-05-03T12:29:05.276Z</time></trkpt><trkpt lat="44.3187517" lon="6.6312767"><ele>1418.0</ele><time>2026-05-03T12:29:06.275Z</time></trkpt><trkpt lat="44.318775" lon="6.6311283"><ele>1417.5</ele><time>2026-05-03T12:29:07.275Z</time></trkpt><trkpt lat="44.31876" lon="6.6309667"><ele>1417.0</ele><time>2026-05-03T12:29:08.275Z</time></trkpt><trkpt lat="44.318725" lon="6.6308183"><ele>1416.5</ele><time>2026-05-03T12:29:09.275Z</time></trkpt><trkpt lat="44.31868" lon="6.6306633"><ele>1416.0</ele><time>2026-05-03T12:29:10.275Z</time></trkpt><trkpt lat="44.3186467" lon="6.630505"><ele>1416.0</ele><time>2026-05-03T12:29:11.275Z</time></trkpt><trkpt lat="44.31861" lon="6.6303283"><ele>1416.0</ele><time>2026-05-03T12:29:12.275Z</time></trkpt><trkpt lat="44.3185833" lon="6.6301683"><ele>1416.0</ele><time>2026-05-03T12:29:13.275Z</time></trkpt><trkpt lat="44.318565" lon="6.630025"><ele>1416.0</ele><time>2026-05-03T12:29:14.275Z</time></trkpt><trkpt lat="44.31857" lon="6.6299"><ele>1416.0</ele><time>2026-05-03T12:29:15.275Z</time></trkpt><trkpt lat="44.3186" lon="6.6297717"><ele>1414.25</ele><time>2026-05-03T12:29:16.275Z</time></trkpt><trkpt lat="44.3186533" lon="6.6296433"><ele>1412.5</ele><time>2026-05-03T12:29:17.275Z</time></trkpt><trkpt lat="44.318715" lon="6.6294917"><ele>1410.75</ele><time>2026-05-03T12:29:18.275Z</time></trkpt><trkpt lat="44.3187717" lon="6.6293117"><ele>1409.0</ele><time>2026-05-03T12:29:19.275Z</time></trkpt><trkpt lat="44.3188267" lon="6.629125"><ele>1410.0</ele><time>2026-05-03T12:29:20.275Z</time></trkpt><trkpt lat="44.318875" lon="6.6289417"><ele>1411.0</ele><time>2026-05-03T12:29:21.275Z</time></trkpt><trkpt lat="44.3189217" lon="6.6287483"><ele>1412.0</ele><time>2026-05-03T12:29:22.275Z</time></trkpt><trkpt lat="44.3189617" lon="6.628555"><ele>1413.0</ele><time>2026-05-03T12:29:23.275Z</time></trkpt><trkpt lat="44.319" lon="6.62836"><ele>1413.0</ele><time>2026-05-03T12:29:24.275Z</time></trkpt><trkpt lat="44.3190483" lon="6.6281717"><ele>1413.0</ele><time>2026-05-03T12:29:25.275Z</time></trkpt><trkpt lat="44.3191" lon="6.6279867"><ele>1413.0</ele><time>2026-05-03T12:29:26.275Z</time></trkpt><trkpt lat="44.3191567" lon="6.6278067"><ele>1413.0</ele><time>2026-05-03T12:29:27.275Z</time></trkpt><trkpt lat="44.319225" lon="6.6276533"><ele>1407.25</ele><time>2026-05-03T12:29:28.275Z</time></trkpt><trkpt lat="44.3193117" lon="6.6275117"><ele>1401.5</ele><time>2026-05-03T12:29:29.275Z</time></trkpt><trkpt lat="44.3194133" lon="6.627385"><ele>1395.75</ele><time>2026-05-03T12:29:30.275Z</time></trkpt><trkpt lat="44.3195117" lon="6.6272717"><ele>1390.0</ele><time>2026-05-03T12:29:31.275Z</time></trkpt><trkpt lat="44.319605" lon="6.6271417"><ele>1390.0</ele><time>2026-05-03T12:29:32.275Z</time></trkpt><trkpt lat="44.3196983" lon="6.6270217"><ele>1390.0</ele><time>2026-05-03T12:29:33.275Z</time></trkpt><trkpt lat="44.31978" lon="6.62691"><ele>1390.0</ele><time>2026-05-03T12:29:34.275Z</time></trkpt><trkpt lat="44.3198317" lon="6.6267917"><ele>1390.0</ele><time>2026-05-03T12:29:35.275Z</time></trkpt><trkpt lat="44.3198633" lon="6.62666"><ele>1390.0</ele><time>2026-05-03T12:29:36.275Z</time></trkpt><trkpt lat="44.319885" lon="6.6265133"><ele>1388.4</ele><time>2026-05-03T12:29:37.275Z</time></trkpt><trkpt lat="44.319925" lon="6.6263767"><ele>1386.8</ele><time>2026-05-03T12:29:38.275Z</time></trkpt><trkpt lat="44.3199967" lon="6.626265"><ele>1385.1999999999998</ele><time>2026-05-03T12:29:39.275Z</time></trkpt><trkpt lat="44.3200617" lon="6.62615"><ele>1383.6</ele><time>2026-05-03T12:29:40.275Z</time></trkpt><trkpt lat="44.3201033" lon="6.626025"><ele>1382.0</ele><time>2026-05-03T12:29:41.276Z</time></trkpt><trkpt lat="44.3201183" lon="6.6258967"><ele>1382.0</ele><time>2026-05-03T12:29:42.276Z</time></trkpt><trkpt lat="44.3201233" lon="6.6257483"><ele>1382.0</ele><time>2026-05-03T12:29:43.275Z</time></trkpt><trkpt lat="44.3201333" lon="6.6255783"><ele>1382.0</ele><time>2026-05-03T12:29:44.275Z</time></trkpt><trkpt lat="44.320155" lon="6.6253983"><ele>1382.0</ele><time>2026-05-03T12:29:45.275Z</time></trkpt><trkpt lat="44.320185" lon="6.62523"><ele>1379.8</ele><time>2026-05-03T12:29:46.276Z</time></trkpt><trkpt lat="44.32022" lon="6.6250667"><ele>1377.6</ele><time>2026-05-03T12:29:47.276Z</time></trkpt><trkpt lat="44.320255" lon="6.6249067"><ele>1375.3999999999999</ele><time>2026-05-03T12:29:48.275Z</time></trkpt><trkpt lat="44.3202933" lon="6.624775"><ele>1373.1999999999998</ele><time>2026-05-03T12:29:49.276Z</time></trkpt><trkpt lat="44.32031" lon="6.62465"><ele>1371.0</ele><time>2026-05-03T12:29:50.275Z</time></trkpt><trkpt lat="44.3203067" lon="6.6245167"><ele>1372.6</ele><time>2026-05-03T12:29:51.275Z</time></trkpt><trkpt lat="44.32028" lon="6.6243783"><ele>1374.1999999999998</ele><time>2026-05-03T12:29:52.275Z</time></trkpt><trkpt lat="44.32025" lon="6.624235"><ele>1375.8000000000002</ele><time>2026-05-03T12:29:53.276Z</time></trkpt><trkpt lat="44.32021" lon="6.6240733"><ele>1377.4</ele><time>2026-05-03T12:29:54.275Z</time></trkpt><trkpt lat="44.3201733" lon="6.62392"><ele>1379.0</ele><time>2026-05-03T12:29:55.275Z</time></trkpt><trkpt lat="44.320125" lon="6.6237767"><ele>1379.0</ele><time>2026-05-03T12:29:56.275Z</time></trkpt><trkpt lat="44.3200717" lon="6.62365"><ele>1379.0</ele><time>2026-05-03T12:29:57.275Z</time></trkpt><trkpt lat="44.320015" lon="6.623535"><ele>1379.0</ele><time>2026-05-03T12:29:58.275Z</time></trkpt><trkpt lat="44.3199633" lon="6.6234017"><ele>1379.0</ele><time>2026-05-03T12:29:59.275Z</time></trkpt><trkpt lat="44.3199417" lon="6.6232933"><ele>1379.0</ele><time>2026-05-03T12:30:00.275Z</time></trkpt><trkpt lat="44.3199317" lon="6.623185"><ele>1377.0</ele><time>2026-05-03T12:30:01.275Z</time></trkpt><trkpt lat="44.3199517" lon="6.6230683"><ele>1375.0</ele><time>2026-05-03T12:30:02.275Z</time></trkpt><trkpt lat="44.3200033" lon="6.6229267"><ele>1373.0</ele><time>2026-05-03T12:30:03.275Z</time></trkpt><trkpt lat="44.3200467" lon="6.6227567"><ele>1371.0</ele><time>2026-05-03T12:30:04.275Z</time></trkpt><trkpt lat="44.3200783" lon="6.62257"><ele>1368.0</ele><time>2026-05-03T12:30:05.275Z</time></trkpt><trkpt lat="44.3201233" lon="6.6223833"><ele>1365.0</ele><time>2026-05-03T12:30:06.275Z</time></trkpt><trkpt lat="44.3201533" lon="6.6221983"><ele>1362.0</ele><time>2026-05-03T12:30:07.275Z</time></trkpt><trkpt lat="44.3201917" lon="6.6220217"><ele>1359.0</ele><time>2026-05-03T12:30:08.275Z</time></trkpt><trkpt lat="44.3202283" lon="6.6218333"><ele>1358.25</ele><time>2026-05-03T12:30:09.276Z</time></trkpt><trkpt lat="44.3202683" lon="6.6216583"><ele>1357.5</ele><time>2026-05-03T12:30:10.275Z</time></trkpt><trkpt lat="44.3203" lon="6.6214883"><ele>1356.75</ele><time>2026-05-03T12:30:11.276Z</time></trkpt><trkpt lat="44.3203283" lon="6.6213117"><ele>1356.0</ele><time>2026-05-03T12:30:12.275Z</time></trkpt><trkpt lat="44.3203483" lon="6.62114"><ele>1356.0</ele><time>2026-05-03T12:30:13.275Z</time></trkpt><trkpt lat="44.320365" lon="6.6209533"><ele>1356.0</ele><time>2026-05-03T12:30:14.275Z</time></trkpt><trkpt lat="44.32037" lon="6.6207667"><ele>1356.0</ele><time>2026-05-03T12:30:15.275Z</time></trkpt><trkpt lat="44.320375" lon="6.6205767"><ele>1356.0</ele><time>2026-05-03T12:30:16.275Z</time></trkpt><trkpt lat="44.32037" lon="6.6203833"><ele>1359.0</ele><time>2026-05-03T12:30:17.275Z</time></trkpt><trkpt lat="44.3203717" lon="6.6202"><ele>1362.0</ele><time>2026-05-03T12:30:18.276Z</time></trkpt><trkpt lat="44.3203883" lon="6.62003"><ele>1365.0</ele><time>2026-05-03T12:30:19.275Z</time></trkpt><trkpt lat="44.3204133" lon="6.61986"><ele>1368.0</ele><time>2026-05-03T12:30:20.275Z</time></trkpt><trkpt lat="44.3204467" lon="6.61969"><ele>1368.0</ele><time>2026-05-03T12:30:21.275Z</time></trkpt><trkpt lat="44.32048" lon="6.6195117"><ele>1368.0</ele><time>2026-05-03T12:30:22.275Z</time></trkpt><trkpt lat="44.320515" lon="6.6193133"><ele>1368.0</ele><time>2026-05-03T12:30:23.276Z</time></trkpt><trkpt lat="44.3205483" lon="6.6191217"><ele>1368.0</ele><time>2026-05-03T12:30:24.275Z</time></trkpt><trkpt lat="44.3205833" lon="6.6189333"><ele>1363.75</ele><time>2026-05-03T12:30:25.275Z</time></trkpt><trkpt lat="44.3206267" lon="6.618755"><ele>1359.5</ele><time>2026-05-03T12:30:26.275Z</time></trkpt><trkpt lat="44.32069" lon="6.6186417"><ele>1355.25</ele><time>2026-05-03T12:30:27.275Z</time></trkpt><trkpt lat="44.3207483" lon="6.61851"><ele>1351.0</ele><time>2026-05-03T12:30:28.275Z</time></trkpt><trkpt lat="44.3208267" lon="6.6184083"><ele>1351.0</ele><time>2026-05-03T12:30:29.275Z</time></trkpt><trkpt lat="44.320915" lon="6.61831"><ele>1351.0</ele><time>2026-05-03T12:30:30.275Z</time></trkpt><trkpt lat="44.32101" lon="6.6182067"><ele>1351.0</ele><time>2026-05-03T12:30:31.275Z</time></trkpt><trkpt lat="44.3210967" lon="6.61808"><ele>1351.0</ele><time>2026-05-03T12:30:32.275Z</time></trkpt><trkpt lat="44.321175" lon="6.6179533"><ele>1351.0</ele><time>2026-05-03T12:30:33.275Z</time></trkpt><trkpt lat="44.3212367" lon="6.6178233"><ele>1351.0</ele><time>2026-05-03T12:30:34.275Z</time></trkpt><trkpt lat="44.3213017" lon="6.6176933"><ele>1351.0</ele><time>2026-05-03T12:30:35.275Z</time></trkpt><trkpt lat="44.3213717" lon="6.6175967"><ele>1351.0</ele><time>2026-05-03T12:30:36.275Z</time></trkpt><trkpt lat="44.321465" lon="6.61751"><ele>1351.0</ele><time>2026-05-03T12:30:37.275Z</time></trkpt><trkpt lat="44.3215767" lon="6.617425"><ele>1350.0</ele><time>2026-05-03T12:30:38.276Z</time></trkpt><trkpt lat="44.3216883" lon="6.6173283"><ele>1349.0</ele><time>2026-05-03T12:30:39.276Z</time></trkpt><trkpt lat="44.3218017" lon="6.6172267"><ele>1348.0</ele><time>2026-05-03T12:30:40.275Z</time></trkpt><trkpt lat="44.321925" lon="6.6171133"><ele>1347.0</ele><time>2026-05-03T12:30:41.275Z</time></trkpt><trkpt lat="44.3220367" lon="6.6170083"><ele>1347.75</ele><time>2026-05-03T12:30:42.276Z</time></trkpt><trkpt lat="44.32215" lon="6.616905"><ele>1348.5</ele><time>2026-05-03T12:30:43.275Z</time></trkpt><trkpt lat="44.3222517" lon="6.6168067"><ele>1349.25</ele><time>2026-05-03T12:30:44.276Z</time></trkpt><trkpt lat="44.3223367" lon="6.61672"><ele>1350.0</ele><time>2026-05-03T12:30:45.275Z</time></trkpt><trkpt lat="44.322405" lon="6.616635"><ele>1350.0</ele><time>2026-05-03T12:30:46.275Z</time></trkpt><trkpt lat="44.3224533" lon="6.616545"><ele>1350.0</ele><time>2026-05-03T12:30:47.276Z</time></trkpt><trkpt lat="44.3224667" lon="6.616425"><ele>1350.0</ele><time>2026-05-03T12:30:48.275Z</time></trkpt><trkpt lat="44.3224683" lon="6.6163"><ele>1350.0</ele><time>2026-05-03T12:30:49.275Z</time></trkpt><trkpt lat="44.3224517" lon="6.6161683"><ele>1350.0</ele><time>2026-05-03T12:30:50.275Z</time></trkpt><trkpt lat="44.322415" lon="6.61601"><ele>1350.6</ele><time>2026-05-03T12:30:51.276Z</time></trkpt><trkpt lat="44.3223717" lon="6.6158567"><ele>1351.2</ele><time>2026-05-03T12:30:52.276Z</time></trkpt><trkpt lat="44.3223433" lon="6.6157"><ele>1351.8000000000002</ele><time>2026-05-03T12:30:53.275Z</time></trkpt><trkpt lat="44.3223317" lon="6.615555"><ele>1352.4</ele><time>2026-05-03T12:30:54.275Z</time></trkpt><trkpt lat="44.3223483" lon="6.615415"><ele>1353.0</ele><time>2026-05-03T12:30:55.276Z</time></trkpt><trkpt lat="44.3224233" lon="6.6153117"><ele>1353.0</ele><time>2026-05-03T12:30:56.275Z</time></trkpt><trkpt lat="44.3225183" lon="6.6152067"><ele>1353.0</ele><time>2026-05-03T12:30:57.275Z</time></trkpt><trkpt lat="44.32262" lon="6.6150983"><ele>1353.0</ele><time>2026-05-03T12:30:58.275Z</time></trkpt><trkpt lat="44.3227483" lon="6.6150133"><ele>1353.0</ele><time>2026-05-03T12:30:59.275Z</time></trkpt><trkpt lat="44.322865" lon="6.614945"><ele>1353.0</ele><time>2026-05-03T12:31:00.275Z</time></trkpt><trkpt lat="44.3229933" lon="6.6148983"><ele>1353.0</ele><time>2026-05-03T12:31:01.275Z</time></trkpt><trkpt lat="44.3231267" lon="6.6148767"><ele>1353.0</ele><time>2026-05-03T12:31:02.276Z</time></trkpt><trkpt lat="44.3232583" lon="6.6148333"><ele>1353.0</ele><time>2026-05-03T12:31:03.275Z</time></trkpt><trkpt lat="44.3233767" lon="6.6147783"><ele>1347.25</ele><time>2026-05-03T12:31:04.275Z</time></trkpt><trkpt lat="44.3234917" lon="6.6147317"><ele>1341.5</ele><time>2026-05-03T12:31:05.275Z</time></trkpt><trkpt lat="44.3236083" lon="6.61467"><ele>1335.75</ele><time>2026-05-03T12:31:06.275Z</time></trkpt><trkpt lat="44.3237317" lon="6.6145883"><ele>1330.0</ele><time>2026-05-03T12:31:07.275Z</time></trkpt><trkpt lat="44.3238517" lon="6.6144733"><ele>1334.5</ele><time>2026-05-03T12:31:08.275Z</time></trkpt><trkpt lat="44.3239733" lon="6.6143583"><ele>1339.0</ele><time>2026-05-03T12:31:09.275Z</time></trkpt><trkpt lat="44.3240883" lon="6.6142517"><ele>1343.5</ele><time>2026-05-03T12:31:10.276Z</time></trkpt><trkpt lat="44.3242033" lon="6.61412"><ele>1348.0</ele><time>2026-05-03T12:31:11.275Z</time></trkpt><trkpt lat="44.324315" lon="6.6140083"><ele>1348.0</ele><time>2026-05-03T12:31:12.275Z</time></trkpt><trkpt lat="44.32442" lon="6.6139333"><ele>1348.0</ele><time>2026-05-03T12:31:13.275Z</time></trkpt><trkpt lat="44.324535" lon="6.6138867"><ele>1348.0</ele><time>2026-05-03T12:31:14.275Z</time></trkpt><trkpt lat="44.3246533" lon="6.6138567"><ele>1348.0</ele><time>2026-05-03T12:31:15.275Z</time></trkpt><trkpt lat="44.3247817" lon="6.6138583"><ele>1342.5</ele><time>2026-05-03T12:31:16.275Z</time></trkpt><trkpt lat="44.3249183" lon="6.6138583"><ele>1337.0</ele><time>2026-05-03T12:31:17.275Z</time></trkpt><trkpt lat="44.325065" lon="6.6138767"><ele>1331.5</ele><time>2026-05-03T12:31:18.275Z</time></trkpt><trkpt lat="44.325205" lon="6.6138683"><ele>1326.0</ele><time>2026-05-03T12:31:19.275Z</time></trkpt><trkpt lat="44.3253483" lon="6.6138633"><ele>1326.0</ele><time>2026-05-03T12:31:20.275Z</time></trkpt><trkpt lat="44.3254817" lon="6.6138517"><ele>1326.0</ele><time>2026-05-03T12:31:21.276Z</time></trkpt><trkpt lat="44.32562" lon="6.61385"><ele>1326.0</ele><time>2026-05-03T12:31:22.275Z</time></trkpt><trkpt lat="44.325755" lon="6.6138367"><ele>1326.0</ele><time>2026-05-03T12:31:23.275Z</time></trkpt><trkpt lat="44.3258767" lon="6.6138"><ele>1326.0</ele><time>2026-05-03T12:31:24.275Z</time></trkpt><trkpt lat="44.32598" lon="6.6137333"><ele>1326.0</ele><time>2026-05-03T12:31:25.275Z</time></trkpt><trkpt lat="44.3260633" lon="6.613645"><ele>1326.0</ele><time>2026-05-03T12:31:26.276Z</time></trkpt><trkpt lat="44.3261333" lon="6.613555"><ele>1326.0</ele><time>2026-05-03T12:31:27.275Z</time></trkpt><trkpt lat="44.3261917" lon="6.6134817"><ele>1326.0</ele><time>2026-05-03T12:31:28.276Z</time></trkpt><trkpt lat="44.32631" lon="6.6134533"><ele>1326.8</ele><time>2026-05-03T12:31:30.276Z</time></trkpt><trkpt lat="44.326385" lon="6.6135033"><ele>1327.6</ele><time>2026-05-03T12:31:31.275Z</time></trkpt><trkpt lat="44.3264767" lon="6.613565"><ele>1328.4</ele><time>2026-05-03T12:31:32.275Z</time></trkpt><trkpt lat="44.3265767" lon="6.6136283"><ele>1329.2</ele><time>2026-05-03T12:31:33.275Z</time></trkpt><trkpt lat="44.32669" lon="6.6136817"><ele>1330.0</ele><time>2026-05-03T12:31:34.275Z</time></trkpt><trkpt lat="44.3268083" lon="6.6137233"><ele>1331.75</ele><time>2026-05-03T12:31:35.275Z</time></trkpt><trkpt lat="44.3269383" lon="6.6137467"><ele>1333.5</ele><time>2026-05-03T12:31:36.275Z</time></trkpt><trkpt lat="44.3270633" lon="6.613755"><ele>1335.25</ele><time>2026-05-03T12:31:37.275Z</time></trkpt><trkpt lat="44.327185" lon="6.61375"><ele>1337.0</ele><time>2026-05-03T12:31:38.276Z</time></trkpt><trkpt lat="44.32731" lon="6.6137183"><ele>1331.5</ele><time>2026-05-03T12:31:39.275Z</time></trkpt><trkpt lat="44.3274267" lon="6.6136333"><ele>1326.0</ele><time>2026-05-03T12:31:40.275Z</time></trkpt><trkpt lat="44.327535" lon="6.61354"><ele>1320.5</ele><time>2026-05-03T12:31:41.275Z</time></trkpt><trkpt lat="44.32763" lon="6.6134333"><ele>1315.0</ele><time>2026-05-03T12:31:42.275Z</time></trkpt><trkpt lat="44.327715" lon="6.6133483"><ele>1315.0</ele><time>2026-05-03T12:31:43.275Z</time></trkpt><trkpt lat="44.3278033" lon="6.6132867"><ele>1315.0</ele><time>2026-05-03T12:31:44.275Z</time></trkpt><trkpt lat="44.3279067" lon="6.6132533"><ele>1315.0</ele><time>2026-05-03T12:31:45.275Z</time></trkpt><trkpt lat="44.3279933" lon="6.613245"><ele>1315.0</ele><time>2026-05-03T12:31:46.275Z</time></trkpt><trkpt lat="44.3280833" lon="6.613275"><ele>1315.0</ele><time>2026-05-03T12:31:47.275Z</time></trkpt><trkpt lat="44.3281767" lon="6.6133167"><ele>1316.25</ele><time>2026-05-03T12:31:48.275Z</time></trkpt><trkpt lat="44.3282833" lon="6.61337"><ele>1317.5</ele><time>2026-05-03T12:31:49.276Z</time></trkpt><trkpt lat="44.3283933" lon="6.6133967"><ele>1318.75</ele><time>2026-05-03T12:31:50.275Z</time></trkpt><trkpt lat="44.32851" lon="6.6134167"><ele>1320.0</ele><time>2026-05-03T12:31:51.275Z</time></trkpt><trkpt lat="44.32863" lon="6.6134033"><ele>1320.0</ele><time>2026-05-03T12:31:52.275Z</time></trkpt><trkpt lat="44.328765" lon="6.6133883"><ele>1320.0</ele><time>2026-05-03T12:31:53.275Z</time></trkpt><trkpt lat="44.3289033" lon="6.6133767"><ele>1320.0</ele><time>2026-05-03T12:31:54.275Z</time></trkpt><trkpt lat="44.32904" lon="6.6133783"><ele>1320.0</ele><time>2026-05-03T12:31:55.275Z</time></trkpt><trkpt lat="44.329175" lon="6.6134083"><ele>1320.75</ele><time>2026-05-03T12:31:56.275Z</time></trkpt><trkpt lat="44.3293017" lon="6.613455"><ele>1321.5</ele><time>2026-05-03T12:31:57.275Z</time></trkpt><trkpt lat="44.3294233" lon="6.6135233"><ele>1322.25</ele><time>2026-05-03T12:31:58.275Z</time></trkpt><trkpt lat="44.32953" lon="6.613595"><ele>1323.0</ele><time>2026-05-03T12:31:59.275Z</time></trkpt><trkpt lat="44.3296467" lon="6.6136833"><ele>1323.0</ele><time>2026-05-03T12:32:00.276Z</time></trkpt><trkpt lat="44.3297667" lon="6.6137783"><ele>1323.0</ele><time>2026-05-03T12:32:01.275Z</time></trkpt><trkpt lat="44.3298833" lon="6.6138633"><ele>1323.0</ele><time>2026-05-03T12:32:02.276Z</time></trkpt><trkpt lat="44.3299833" lon="6.6139383"><ele>1323.0</ele><time>2026-05-03T12:32:03.275Z</time></trkpt><trkpt lat="44.33008" lon="6.614"><ele>1323.0</ele><time>2026-05-03T12:32:04.276Z</time></trkpt><trkpt lat="44.3301583" lon="6.6140517"><ele>1323.0</ele><time>2026-05-03T12:32:05.275Z</time></trkpt><trkpt lat="44.3302467" lon="6.6140517"><ele>1323.0</ele><time>2026-05-03T12:32:06.275Z</time></trkpt><trkpt lat="44.33034" lon="6.6141033"><ele>1323.0</ele><time>2026-05-03T12:32:07.275Z</time></trkpt><trkpt lat="44.330445" lon="6.6142133"><ele>1323.0</ele><time>2026-05-03T12:32:08.276Z</time></trkpt><trkpt lat="44.3305533" lon="6.6143033"><ele>1323.0</ele><time>2026-05-03T12:32:09.275Z</time></trkpt><trkpt lat="44.3306667" lon="6.6143667"><ele>1323.0</ele><time>2026-05-03T12:32:10.275Z</time></trkpt><trkpt lat="44.3307817" lon="6.61441"><ele>1323.0</ele><time>2026-05-03T12:32:11.275Z</time></trkpt><trkpt lat="44.3309017" lon="6.6144233"><ele>1323.0</ele><time>2026-05-03T12:32:12.275Z</time></trkpt><trkpt lat="44.3310117" lon="6.61441"><ele>1323.0</ele><time>2026-05-03T12:32:13.275Z</time></trkpt><trkpt lat="44.3311183" lon="6.6144"><ele>1323.0</ele><time>2026-05-03T12:32:14.275Z</time></trkpt><trkpt lat="44.3312233" lon="6.61438"><ele>1323.0</ele><time>2026-05-03T12:32:15.275Z</time></trkpt><trkpt lat="44.3313217" lon="6.61435"><ele>1323.0</ele><time>2026-05-03T12:32:16.275Z</time></trkpt><trkpt lat="44.3314233" lon="6.6143067"><ele>1323.0</ele><time>2026-05-03T12:32:17.275Z</time></trkpt><trkpt lat="44.33153" lon="6.614235"><ele>1323.0</ele><time>2026-05-03T12:32:18.275Z</time></trkpt><trkpt lat="44.3316233" lon="6.6141083"><ele>1323.0</ele><time>2026-05-03T12:32:19.275Z</time></trkpt><trkpt lat="44.3317133" lon="6.6139633"><ele>1323.0</ele><time>2026-05-03T12:32:20.275Z</time></trkpt><trkpt lat="44.3318083" lon="6.613835"><ele>1323.0</ele><time>2026-05-03T12:32:21.275Z</time></trkpt><trkpt lat="44.3319083" lon="6.61375"><ele>1323.0</ele><time>2026-05-03T12:32:22.275Z</time></trkpt><trkpt lat="44.3320117" lon="6.6137367"><ele>1323.0</ele><time>2026-05-03T12:32:23.275Z</time></trkpt><trkpt lat="44.3321183" lon="6.6137317"><ele>1323.0</ele><time>2026-05-03T12:32:24.275Z</time></trkpt><trkpt lat="44.3322317" lon="6.6137533"><ele>1323.0</ele><time>2026-05-03T12:32:25.276Z</time></trkpt><trkpt lat="44.3323533" lon="6.6138117"><ele>1323.0</ele><time>2026-05-03T12:32:26.275Z</time></trkpt><trkpt lat="44.3324917" lon="6.6138833"><ele>1323.0</ele><time>2026-05-03T12:32:27.275Z</time></trkpt><trkpt lat="44.3326367" lon="6.613945"><ele>1323.0</ele><time>2026-05-03T12:32:28.275Z</time></trkpt><trkpt lat="44.3327767" lon="6.6139967"><ele>1323.0</ele><time>2026-05-03T12:32:29.275Z</time></trkpt><trkpt lat="44.3329117" lon="6.614035"><ele>1312.75</ele><time>2026-05-03T12:32:30.275Z</time></trkpt><trkpt lat="44.33304" lon="6.61408"><ele>1302.5</ele><time>2026-05-03T12:32:31.275Z</time></trkpt><trkpt lat="44.33315" lon="6.6141317"><ele>1292.25</ele><time>2026-05-03T12:32:32.276Z</time></trkpt><trkpt lat="44.3332717" lon="6.6142167"><ele>1282.0</ele><time>2026-05-03T12:32:33.275Z</time></trkpt><trkpt lat="44.3333833" lon="6.6142967"><ele>1282.0</ele><time>2026-05-03T12:32:34.276Z</time></trkpt><trkpt lat="44.3334683" lon="6.6143683"><ele>1282.0</ele><time>2026-05-03T12:32:35.275Z</time></trkpt><trkpt lat="44.3335317" lon="6.6144233"><ele>1282.0</ele><time>2026-05-03T12:32:36.276Z</time></trkpt><trkpt lat="44.3336483" lon="6.6144617"><ele>1282.0</ele><time>2026-05-03T12:32:38.275Z</time></trkpt><trkpt lat="44.33371" lon="6.61448"><ele>1282.0</ele><time>2026-05-03T12:32:39.275Z</time></trkpt><trkpt lat="44.3337667" lon="6.6145333"><ele>1282.0</ele><time>2026-05-03T12:32:40.275Z</time></trkpt><trkpt lat="44.3338217" lon="6.6146"><ele>1279.1999999999998</ele><time>2026-05-03T12:32:41.276Z</time></trkpt><trkpt lat="44.33387" lon="6.614675"><ele>1276.3999999999999</ele><time>2026-05-03T12:32:42.275Z</time></trkpt><trkpt lat="44.3339433" lon="6.6147517"><ele>1273.6</ele><time>2026-05-03T12:32:43.275Z</time></trkpt><trkpt lat="44.3340267" lon="6.6148133"><ele>1270.8</ele><time>2026-05-03T12:32:44.275Z</time></trkpt><trkpt lat="44.33412" lon="6.6148467"><ele>1268.0</ele><time>2026-05-03T12:32:45.275Z</time></trkpt><trkpt lat="44.3342433" lon="6.6148433"><ele>1268.0</ele><time>2026-05-03T12:32:46.275Z</time></trkpt><trkpt lat="44.334375" lon="6.614865"><ele>1268.0</ele><time>2026-05-03T12:32:47.275Z</time></trkpt><trkpt lat="44.3344883" lon="6.6149167"><ele>1268.0</ele><time>2026-05-03T12:32:48.275Z</time></trkpt><trkpt lat="44.334605" lon="6.6149767"><ele>1268.0</ele><time>2026-05-03T12:32:49.275Z</time></trkpt><trkpt lat="44.3347217" lon="6.61505"><ele>1268.5</ele><time>2026-05-03T12:32:50.275Z</time></trkpt><trkpt lat="44.33483" lon="6.6151267"><ele>1269.0</ele><time>2026-05-03T12:32:51.275Z</time></trkpt><trkpt lat="44.3349417" lon="6.61521"><ele>1269.5</ele><time>2026-05-03T12:32:52.275Z</time></trkpt><trkpt lat="44.335055" lon="6.6153017"><ele>1270.0</ele><time>2026-05-03T12:32:53.275Z</time></trkpt><trkpt lat="44.33517" lon="6.6154017"><ele>1270.0</ele><time>2026-05-03T12:32:54.275Z</time></trkpt><trkpt lat="44.3352833" lon="6.6155033"><ele>1270.0</ele><time>2026-05-03T12:32:55.275Z</time></trkpt><trkpt lat="44.3354033" lon="6.61559"><ele>1270.0</ele><time>2026-05-03T12:32:56.275Z</time></trkpt><trkpt lat="44.3355217" lon="6.61568"><ele>1270.0</ele><time>2026-05-03T12:32:57.275Z</time></trkpt><trkpt lat="44.335635" lon="6.6157783"><ele>1270.75</ele><time>2026-05-03T12:32:58.275Z</time></trkpt><trkpt lat="44.33574" lon="6.6158817"><ele>1271.5</ele><time>2026-05-03T12:32:59.275Z</time></trkpt><trkpt lat="44.335835" lon="6.6160167"><ele>1272.25</ele><time>2026-05-03T12:33:00.275Z</time></trkpt><trkpt lat="44.3359233" lon="6.61614"><ele>1273.0</ele><time>2026-05-03T12:33:01.275Z</time></trkpt><trkpt lat="44.3360133" lon="6.6162433"><ele>1273.5</ele><time>2026-05-03T12:33:02.276Z</time></trkpt><trkpt lat="44.3361017" lon="6.6163367"><ele>1274.0</ele><time>2026-05-03T12:33:03.275Z</time></trkpt><trkpt lat="44.3362017" lon="6.6163983"><ele>1274.5</ele><time>2026-05-03T12:33:04.275Z</time></trkpt><trkpt lat="44.3363217" lon="6.6164117"><ele>1275.0</ele><time>2026-05-03T12:33:05.275Z</time></trkpt><trkpt lat="44.336445" lon="6.6163717"><ele>1278.5</ele><time>2026-05-03T12:33:06.276Z</time></trkpt><trkpt lat="44.3365933" lon="6.6163217"><ele>1282.0</ele><time>2026-05-03T12:33:07.275Z</time></trkpt><trkpt lat="44.3367383" lon="6.6162867"><ele>1285.5</ele><time>2026-05-03T12:33:08.275Z</time></trkpt><trkpt lat="44.336875" lon="6.6162883"><ele>1289.0</ele><time>2026-05-03T12:33:09.275Z</time></trkpt><trkpt lat="44.3369917" lon="6.6163367"><ele>1289.0</ele><time>2026-05-03T12:33:10.275Z</time></trkpt><trkpt lat="44.3371083" lon="6.6163983"><ele>1289.0</ele><time>2026-05-03T12:33:11.275Z</time></trkpt><trkpt lat="44.3372283" lon="6.6164583"><ele>1289.0</ele><time>2026-05-03T12:33:12.275Z</time></trkpt><trkpt lat="44.3373717" lon="6.616495"><ele>1289.0</ele><time>2026-05-03T12:33:13.275Z</time></trkpt><trkpt lat="44.3375183" lon="6.6165017"><ele>1285.25</ele><time>2026-05-03T12:33:14.275Z</time></trkpt><trkpt lat="44.3376717" lon="6.616495"><ele>1281.5</ele><time>2026-05-03T12:33:15.275Z</time></trkpt><trkpt lat="44.33782" lon="6.6164817"><ele>1277.75</ele><time>2026-05-03T12:33:16.275Z</time></trkpt><trkpt lat="44.3379667" lon="6.6164833"><ele>1274.0</ele><time>2026-05-03T12:33:17.275Z</time></trkpt><trkpt lat="44.3381133" lon="6.616485"><ele>1271.0</ele><time>2026-05-03T12:33:18.275Z</time></trkpt><trkpt lat="44.338265" lon="6.61647"><ele>1268.0</ele><time>2026-05-03T12:33:19.275Z</time></trkpt><trkpt lat="44.3384167" lon="6.6164833"><ele>1265.0</ele><time>2026-05-03T12:33:20.275Z</time></trkpt><trkpt lat="44.3385533" lon="6.616505"><ele>1262.0</ele><time>2026-05-03T12:33:21.275Z</time></trkpt><trkpt lat="44.33868" lon="6.6165567"><ele>1262.0</ele><time>2026-05-03T12:33:22.276Z</time></trkpt><trkpt lat="44.338775" lon="6.6166383"><ele>1262.0</ele><time>2026-05-03T12:33:23.275Z</time></trkpt><trkpt lat="44.33884" lon="6.6167267"><ele>1262.0</ele><time>2026-05-03T12:33:24.275Z</time></trkpt><trkpt lat="44.3388667" lon="6.6168283"><ele>1262.0</ele><time>2026-05-03T12:33:25.275Z</time></trkpt><trkpt lat="44.338865" lon="6.6169383"><ele>1262.0</ele><time>2026-05-03T12:33:26.275Z</time></trkpt><trkpt lat="44.3388683" lon="6.6170583"><ele>1262.0</ele><time>2026-05-03T12:33:27.275Z</time></trkpt><trkpt lat="44.338885" lon="6.6171867"><ele>1259.75</ele><time>2026-05-03T12:33:28.275Z</time></trkpt><trkpt lat="44.33894" lon="6.6173117"><ele>1257.5</ele><time>2026-05-03T12:33:29.275Z</time></trkpt><trkpt lat="44.33903" lon="6.6174233"><ele>1255.25</ele><time>2026-05-03T12:33:30.275Z</time></trkpt><trkpt lat="44.339135" lon="6.617515"><ele>1253.0</ele><time>2026-05-03T12:33:31.275Z</time></trkpt><trkpt lat="44.3392467" lon="6.617575"><ele>1253.0</ele><time>2026-05-03T12:33:32.275Z</time></trkpt><trkpt lat="44.3393817" lon="6.6176233"><ele>1253.0</ele><time>2026-05-03T12:33:33.275Z</time></trkpt><trkpt lat="44.3395283" lon="6.6176567"><ele>1253.0</ele><time>2026-05-03T12:33:34.275Z</time></trkpt><trkpt lat="44.3396867" lon="6.617685"><ele>1253.0</ele><time>2026-05-03T12:33:35.275Z</time></trkpt><trkpt lat="44.33983" lon="6.6177333"><ele>1250.6666666666667</ele><time>2026-05-03T12:33:36.275Z</time></trkpt><trkpt lat="44.3399733" lon="6.6178133"><ele>1248.3333333333333</ele><time>2026-05-03T12:33:37.275Z</time></trkpt><trkpt lat="44.3401117" lon="6.617905"><ele>1246.0</ele><time>2026-05-03T12:33:38.275Z</time></trkpt><trkpt lat="44.3402383" lon="6.6180133"><ele>1246.0</ele><time>2026-05-03T12:33:39.276Z</time></trkpt><trkpt lat="44.3403467" lon="6.6181233"><ele>1246.0</ele><time>2026-05-03T12:33:40.275Z</time></trkpt><trkpt lat="44.3404533" lon="6.61827"><ele>1246.0</ele><time>2026-05-03T12:33:41.275Z</time></trkpt><trkpt lat="44.3405483" lon="6.6184433"><ele>1246.0</ele><time>2026-05-03T12:33:42.275Z</time></trkpt><trkpt lat="44.3406433" lon="6.61862"><ele>1246.0</ele><time>2026-05-03T12:33:43.275Z</time></trkpt><trkpt lat="44.3407133" lon="6.6187883"><ele>1246.0</ele><time>2026-05-03T12:33:44.276Z</time></trkpt><trkpt lat="44.3407717" lon="6.6189533"><ele>1246.0</ele><time>2026-05-03T12:33:45.275Z</time></trkpt><trkpt lat="44.3408433" lon="6.6191017"><ele>1246.0</ele><time>2026-05-03T12:33:46.275Z</time></trkpt><trkpt lat="44.34093" lon="6.6192067"><ele>1246.0</ele><time>2026-05-03T12:33:47.275Z</time></trkpt><trkpt lat="44.341045" lon="6.6192733"><ele>1246.0</ele><time>2026-05-03T12:33:48.275Z</time></trkpt><trkpt lat="44.3411733" lon="6.6193117"><ele>1246.0</ele><time>2026-05-03T12:33:49.275Z</time></trkpt><trkpt lat="44.3413217" lon="6.6193217"><ele>1246.0</ele><time>2026-05-03T12:33:50.275Z</time></trkpt><trkpt lat="44.3414817" lon="6.6193033"><ele>1247.3333333333333</ele><time>2026-05-03T12:33:51.275Z</time></trkpt><trkpt lat="44.3416417" lon="6.6192783"><ele>1248.6666666666667</ele><time>2026-05-03T12:33:52.275Z</time></trkpt><trkpt lat="44.34181" lon="6.6192417"><ele>1250.0</ele><time>2026-05-03T12:33:53.275Z</time></trkpt><trkpt lat="44.3419667" lon="6.6192167"><ele>1250.0</ele><time>2026-05-03T12:33:54.275Z</time></trkpt><trkpt lat="44.34212" lon="6.6191733"><ele>1250.0</ele><time>2026-05-03T12:33:55.275Z</time></trkpt><trkpt lat="44.34227" lon="6.619115"><ele>1250.0</ele><time>2026-05-03T12:33:56.275Z</time></trkpt><trkpt lat="44.34242" lon="6.619065"><ele>1249.3333333333335</ele><time>2026-05-03T12:33:57.275Z</time></trkpt><trkpt lat="44.3425883" lon="6.6190433"><ele>1248.6666666666667</ele><time>2026-05-03T12:33:58.275Z</time></trkpt><trkpt lat="44.3427483" lon="6.6190583"><ele>1248.0</ele><time>2026-05-03T12:33:59.275Z</time></trkpt><trkpt lat="44.3428933" lon="6.619115"><ele>1248.0</ele><time>2026-05-03T12:34:00.275Z</time></trkpt><trkpt lat="44.34303" lon="6.619175"><ele>1248.0</ele><time>2026-05-03T12:34:01.275Z</time></trkpt><trkpt lat="44.34315" lon="6.6192467"><ele>1248.0</ele><time>2026-05-03T12:34:02.275Z</time></trkpt><trkpt lat="44.343255" lon="6.6193283"><ele>1248.0</ele><time>2026-05-03T12:34:03.275Z</time></trkpt><trkpt lat="44.3433483" lon="6.6194417"><ele>1243.75</ele><time>2026-05-03T12:34:04.275Z</time></trkpt><trkpt lat="44.3434483" lon="6.6195467"><ele>1239.5</ele><time>2026-05-03T12:34:05.275Z</time></trkpt><trkpt lat="44.3435683" lon="6.6196183"><ele>1235.25</ele><time>2026-05-03T12:34:06.275Z</time></trkpt><trkpt lat="44.34371" lon="6.6196467"><ele>1231.0</ele><time>2026-05-03T12:34:07.275Z</time></trkpt><trkpt lat="44.3438633" lon="6.6196583"><ele>1233.0</ele><time>2026-05-03T12:34:08.275Z</time></trkpt><trkpt lat="44.3440117" lon="6.619675"><ele>1235.0</ele><time>2026-05-03T12:34:09.276Z</time></trkpt><trkpt lat="44.344165" lon="6.6197067"><ele>1237.0</ele><time>2026-05-03T12:34:10.275Z</time></trkpt><trkpt lat="44.3443117" lon="6.6197467"><ele>1237.0</ele><time>2026-05-03T12:34:11.275Z</time></trkpt><trkpt lat="44.3444683" lon="6.6197467"><ele>1237.0</ele><time>2026-05-03T12:34:12.275Z</time></trkpt><trkpt lat="44.344625" lon="6.61972"><ele>1237.0</ele><time>2026-05-03T12:34:13.276Z</time></trkpt><trkpt lat="44.3447683" lon="6.6196883"><ele>1236.75</ele><time>2026-05-03T12:34:14.275Z</time></trkpt><trkpt lat="44.3449067" lon="6.6196917"><ele>1236.5</ele><time>2026-05-03T12:34:15.275Z</time></trkpt><trkpt lat="44.3450333" lon="6.6197117"><ele>1236.25</ele><time>2026-05-03T12:34:16.275Z</time></trkpt><trkpt lat="44.34515" lon="6.6197667"><ele>1236.0</ele><time>2026-05-03T12:34:17.275Z</time></trkpt><trkpt lat="44.34526" lon="6.6198"><ele>1236.0</ele><time>2026-05-03T12:34:18.275Z</time></trkpt><trkpt lat="44.34537" lon="6.6198117"><ele>1236.0</ele><time>2026-05-03T12:34:19.275Z</time></trkpt><trkpt lat="44.34548" lon="6.619815"><ele>1236.0</ele><time>2026-05-03T12:34:20.275Z</time></trkpt><trkpt lat="44.3455917" lon="6.61985"><ele>1236.0</ele><time>2026-05-03T12:34:21.275Z</time></trkpt><trkpt lat="44.3457067" lon="6.619885"><ele>1236.25</ele><time>2026-05-03T12:34:22.275Z</time></trkpt><trkpt lat="44.34583" lon="6.6199167"><ele>1236.5</ele><time>2026-05-03T12:34:23.276Z</time></trkpt><trkpt lat="44.345945" lon="6.6199433"><ele>1236.75</ele><time>2026-05-03T12:34:24.275Z</time></trkpt><trkpt lat="44.346055" lon="6.6199983"><ele>1237.0</ele><time>2026-05-03T12:34:25.275Z</time></trkpt><trkpt lat="44.3461667" lon="6.62005"><ele>1237.0</ele><time>2026-05-03T12:34:26.275Z</time></trkpt><trkpt lat="44.3462917" lon="6.6200817"><ele>1237.0</ele><time>2026-05-03T12:34:27.275Z</time></trkpt><trkpt lat="44.3464217" lon="6.6201033"><ele>1237.0</ele><time>2026-05-03T12:34:28.275Z</time></trkpt><trkpt lat="44.34655" lon="6.620115"><ele>1237.0</ele><time>2026-05-03T12:34:29.275Z</time></trkpt><trkpt lat="44.3466867" lon="6.6200933"><ele>1240.3333333333333</ele><time>2026-05-03T12:34:30.275Z</time></trkpt><trkpt lat="44.346835" lon="6.62005"><ele>1243.6666666666667</ele><time>2026-05-03T12:34:31.275Z</time></trkpt><trkpt lat="44.346985" lon="6.6199817"><ele>1247.0</ele><time>2026-05-03T12:34:32.275Z</time></trkpt><trkpt lat="44.347145" lon="6.619915"><ele>1243.6666666666667</ele><time>2026-05-03T12:34:33.275Z</time></trkpt><trkpt lat="44.3473133" lon="6.61985"><ele>1240.3333333333333</ele><time>2026-05-03T12:34:34.275Z</time></trkpt><trkpt lat="44.3474883" lon="6.619805"><ele>1237.0</ele><time>2026-05-03T12:34:35.275Z</time></trkpt><trkpt lat="44.34766" lon="6.6197667"><ele>1237.0</ele><time>2026-05-03T12:34:36.275Z</time></trkpt><trkpt lat="44.3478367" lon="6.6197383"><ele>1237.0</ele><time>2026-05-03T12:34:37.275Z</time></trkpt><trkpt lat="44.3480133" lon="6.6197267"><ele>1237.0</ele><time>2026-05-03T12:34:38.275Z</time></trkpt><trkpt lat="44.3481883" lon="6.6197033"><ele>1233.6666666666665</ele><time>2026-05-03T12:34:39.276Z</time></trkpt><trkpt lat="44.3483633" lon="6.6196783"><ele>1230.3333333333333</ele><time>2026-05-03T12:34:40.275Z</time></trkpt><trkpt lat="44.3485317" lon="6.619635"><ele>1227.0</ele><time>2026-05-03T12:34:41.275Z</time></trkpt><trkpt lat="44.3487" lon="6.6195667"><ele>1227.0</ele><time>2026-05-03T12:34:42.275Z</time></trkpt><trkpt lat="44.34887" lon="6.6194883"><ele>1227.0</ele><time>2026-05-03T12:34:43.275Z</time></trkpt><trkpt lat="44.349035" lon="6.6194117"><ele>1227.0</ele><time>2026-05-03T12:34:44.275Z</time></trkpt><trkpt lat="44.3492067" lon="6.6193433"><ele>1231.0</ele><time>2026-05-03T12:34:45.275Z</time></trkpt><trkpt lat="44.3493883" lon="6.6192783"><ele>1235.0</ele><time>2026-05-03T12:34:46.276Z</time></trkpt><trkpt lat="44.349565" lon="6.6192333"><ele>1239.0</ele><time>2026-05-03T12:34:47.275Z</time></trkpt><trkpt lat="44.3497317" lon="6.619205"><ele>1239.0</ele><time>2026-05-03T12:34:48.275Z</time></trkpt><trkpt lat="44.3499117" lon="6.61919"><ele>1239.0</ele><time>2026-05-03T12:34:49.275Z</time></trkpt><trkpt lat="44.350085" lon="6.6192017"><ele>1239.0</ele><time>2026-05-03T12:34:50.275Z</time></trkpt><trkpt lat="44.3502583" lon="6.6192533"><ele>1239.0</ele><time>2026-05-03T12:34:51.275Z</time></trkpt><trkpt lat="44.35043" lon="6.6193467"><ele>1239.0</ele><time>2026-05-03T12:34:52.275Z</time></trkpt><trkpt lat="44.3505833" lon="6.6194467"><ele>1239.0</ele><time>2026-05-03T12:34:53.276Z</time></trkpt><trkpt lat="44.3507367" lon="6.6195817"><ele>1233.3333333333333</ele><time>2026-05-03T12:34:54.275Z</time></trkpt><trkpt lat="44.3508717" lon="6.6197367"><ele>1227.6666666666665</ele><time>2026-05-03T12:34:55.276Z</time></trkpt><trkpt lat="44.3510167" lon="6.6198733"><ele>1222.0</ele><time>2026-05-03T12:34:56.275Z</time></trkpt><trkpt lat="44.3511633" lon="6.6200233"><ele>1222.0</ele><time>2026-05-03T12:34:57.275Z</time></trkpt><trkpt lat="44.351305" lon="6.6201267"><ele>1222.0</ele><time>2026-05-03T12:34:58.275Z</time></trkpt><trkpt lat="44.351455" lon="6.6201767"><ele>1222.0</ele><time>2026-05-03T12:34:59.275Z</time></trkpt><trkpt lat="44.35162" lon="6.6201867"><ele>1225.6666666666665</ele><time>2026-05-03T12:35:00.275Z</time></trkpt><trkpt lat="44.3517917" lon="6.6201917"><ele>1229.3333333333333</ele><time>2026-05-03T12:35:01.275Z</time></trkpt><trkpt lat="44.35197" lon="6.6202167"><ele>1233.0</ele><time>2026-05-03T12:35:02.275Z</time></trkpt><trkpt lat="44.3521383" lon="6.6202567"><ele>1229.0</ele><time>2026-05-03T12:35:03.275Z</time></trkpt><trkpt lat="44.352285" lon="6.6203233"><ele>1225.0</ele><time>2026-05-03T12:35:04.275Z</time></trkpt><trkpt lat="44.3524167" lon="6.620425"><ele>1221.0</ele><time>2026-05-03T12:35:05.275Z</time></trkpt><trkpt lat="44.352545" lon="6.6205717"><ele>1221.0</ele><time>2026-05-03T12:35:06.275Z</time></trkpt><trkpt lat="44.35265" lon="6.6207333"><ele>1221.0</ele><time>2026-05-03T12:35:07.275Z</time></trkpt><trkpt lat="44.3527467" lon="6.6208867"><ele>1221.0</ele><time>2026-05-03T12:35:08.275Z</time></trkpt><trkpt lat="44.3528717" lon="6.6210333"><ele>1218.6666666666667</ele><time>2026-05-03T12:35:09.275Z</time></trkpt><trkpt lat="44.3530133" lon="6.62115"><ele>1216.3333333333335</ele><time>2026-05-03T12:35:10.275Z</time></trkpt><trkpt lat="44.3531633" lon="6.6212417"><ele>1214.0</ele><time>2026-05-03T12:35:11.275Z</time></trkpt><trkpt lat="44.3533183" lon="6.621295"><ele>1214.0</ele><time>2026-05-03T12:35:12.275Z</time></trkpt><trkpt lat="44.3534767" lon="6.6213367"><ele>1214.0</ele><time>2026-05-03T12:35:13.276Z</time></trkpt><trkpt lat="44.3536383" lon="6.6213733"><ele>1214.0</ele><time>2026-05-03T12:35:14.275Z</time></trkpt><trkpt lat="44.3538" lon="6.6214167"><ele>1217.0</ele><time>2026-05-03T12:35:15.275Z</time></trkpt><trkpt lat="44.3539583" lon="6.6214583"><ele>1220.0</ele><time>2026-05-03T12:35:16.275Z</time></trkpt><trkpt lat="44.354115" lon="6.621505"><ele>1223.0</ele><time>2026-05-03T12:35:17.275Z</time></trkpt><trkpt lat="44.35426" lon="6.6215717"><ele>1223.0</ele><time>2026-05-03T12:35:18.275Z</time></trkpt><trkpt lat="44.3544033" lon="6.6216633"><ele>1223.0</ele><time>2026-05-03T12:35:19.276Z</time></trkpt><trkpt lat="44.3545383" lon="6.6217783"><ele>1223.0</ele><time>2026-05-03T12:35:20.275Z</time></trkpt><trkpt lat="44.354655" lon="6.62192"><ele>1219.25</ele><time>2026-05-03T12:35:21.275Z</time></trkpt><trkpt lat="44.3547483" lon="6.6220633"><ele>1215.5</ele><time>2026-05-03T12:35:22.275Z</time></trkpt><trkpt lat="44.35484" lon="6.6222017"><ele>1211.75</ele><time>2026-05-03T12:35:23.275Z</time></trkpt><trkpt lat="44.3549517" lon="6.6223"><ele>1208.0</ele><time>2026-05-03T12:35:24.275Z</time></trkpt><trkpt lat="44.35508" lon="6.622345"><ele>1208.0</ele><time>2026-05-03T12:35:25.275Z</time></trkpt><trkpt lat="44.3552267" lon="6.62235"><ele>1208.0</ele><time>2026-05-03T12:35:26.275Z</time></trkpt><trkpt lat="44.3553833" lon="6.62237"><ele>1208.0</ele><time>2026-05-03T12:35:27.275Z</time></trkpt><trkpt lat="44.3555467" lon="6.6223917"><ele>1210.6666666666667</ele><time>2026-05-03T12:35:28.275Z</time></trkpt><trkpt lat="44.3557067" lon="6.6224183"><ele>1213.3333333333333</ele><time>2026-05-03T12:35:29.275Z</time></trkpt><trkpt lat="44.3558617" lon="6.6224717"><ele>1216.0</ele><time>2026-05-03T12:35:30.275Z</time></trkpt><trkpt lat="44.3560083" lon="6.6225483"><ele>1216.0</ele><time>2026-05-03T12:35:31.275Z</time></trkpt><trkpt lat="44.3561583" lon="6.6226517"><ele>1216.0</ele><time>2026-05-03T12:35:32.275Z</time></trkpt><trkpt lat="44.3563067" lon="6.62277"><ele>1216.0</ele><time>2026-05-03T12:35:33.275Z</time></trkpt><trkpt lat="44.3564617" lon="6.6228817"><ele>1209.6666666666665</ele><time>2026-05-03T12:35:34.276Z</time></trkpt><trkpt lat="44.3566267" lon="6.6229617"><ele>1203.3333333333333</ele><time>2026-05-03T12:35:35.275Z</time></trkpt><trkpt lat="44.3567967" lon="6.6230283"><ele>1197.0</ele><time>2026-05-03T12:35:36.275Z</time></trkpt><trkpt lat="44.3569683" lon="6.623105"><ele>1197.0</ele><time>2026-05-03T12:35:37.275Z</time></trkpt><trkpt lat="44.3571383" lon="6.6231683"><ele>1197.0</ele><time>2026-05-03T12:35:38.275Z</time></trkpt><trkpt lat="44.3573" lon="6.623265"><ele>1197.0</ele><time>2026-05-03T12:35:39.275Z</time></trkpt><trkpt lat="44.3574667" lon="6.6233583"><ele>1195.0</ele><time>2026-05-03T12:35:40.275Z</time></trkpt><trkpt lat="44.3576267" lon="6.623455"><ele>1193.0</ele><time>2026-05-03T12:35:41.275Z</time></trkpt><trkpt lat="44.357785" lon="6.6235583"><ele>1191.0</ele><time>2026-05-03T12:35:42.276Z</time></trkpt><trkpt lat="44.35793" lon="6.6236683"><ele>1192.3333333333333</ele><time>2026-05-03T12:35:43.275Z</time></trkpt><trkpt lat="44.3580767" lon="6.623775"><ele>1193.6666666666665</ele><time>2026-05-03T12:35:44.275Z</time></trkpt><trkpt lat="44.3582233" lon="6.623875"><ele>1195.0</ele><time>2026-05-03T12:35:45.275Z</time></trkpt><trkpt lat="44.35837" lon="6.623975"><ele>1195.0</ele><time>2026-05-03T12:35:46.275Z</time></trkpt><trkpt lat="44.3585133" lon="6.6240667"><ele>1195.0</ele><time>2026-05-03T12:35:47.276Z</time></trkpt><trkpt lat="44.35867" lon="6.6241467"><ele>1195.0</ele><time>2026-05-03T12:35:48.275Z</time></trkpt><trkpt lat="44.3588417" lon="6.6242067"><ele>1197.3333333333333</ele><time>2026-05-03T12:35:49.275Z</time></trkpt><trkpt lat="44.3590133" lon="6.6242667"><ele>1199.6666666666667</ele><time>2026-05-03T12:35:50.275Z</time></trkpt><trkpt lat="44.3591717" lon="6.6243083"><ele>1202.0</ele><time>2026-05-03T12:35:51.275Z</time></trkpt><trkpt lat="44.3593267" lon="6.62439"><ele>1198.0</ele><time>2026-05-03T12:35:52.276Z</time></trkpt><trkpt lat="44.3594667" lon="6.6244883"><ele>1194.0</ele><time>2026-05-03T12:35:53.275Z</time></trkpt><trkpt lat="44.3596033" lon="6.624595"><ele>1190.0</ele><time>2026-05-03T12:35:54.275Z</time></trkpt><trkpt lat="44.359735" lon="6.62468"><ele>1190.0</ele><time>2026-05-03T12:35:55.275Z</time></trkpt><trkpt lat="44.359865" lon="6.6247333"><ele>1190.0</ele><time>2026-05-03T12:35:56.275Z</time></trkpt><trkpt lat="44.3599933" lon="6.6247683"><ele>1190.0</ele><time>2026-05-03T12:35:57.275Z</time></trkpt><trkpt lat="44.3601067" lon="6.6248067"><ele>1190.0</ele><time>2026-05-03T12:35:58.275Z</time></trkpt><trkpt lat="44.3602033" lon="6.6248433"><ele>1190.0</ele><time>2026-05-03T12:35:59.275Z</time></trkpt><trkpt lat="44.36028" lon="6.6248867"><ele>1190.0</ele><time>2026-05-03T12:36:00.276Z</time></trkpt><trkpt lat="44.36035" lon="6.6249267"><ele>1190.0</ele><time>2026-05-03T12:36:01.275Z</time></trkpt><trkpt lat="44.3604333" lon="6.6249933"><ele>1190.0</ele><time>2026-05-03T12:36:03.275Z</time></trkpt><trkpt lat="44.3604983" lon="6.625085"><ele>1190.0</ele><time>2026-05-03T12:36:05.275Z</time></trkpt><trkpt lat="44.3605467" lon="6.6251667"><ele>1190.0</ele><time>2026-05-03T12:36:06.275Z</time></trkpt><trkpt lat="44.3606033" lon="6.62525"><ele>1189.4</ele><time>2026-05-03T12:36:07.275Z</time></trkpt><trkpt lat="44.360665" lon="6.6253467"><ele>1188.8</ele><time>2026-05-03T12:36:08.275Z</time></trkpt><trkpt lat="44.36073" lon="6.6254533"><ele>1188.2</ele><time>2026-05-03T12:36:09.275Z</time></trkpt><trkpt lat="44.3607917" lon="6.6255783"><ele>1187.6</ele><time>2026-05-03T12:36:10.275Z</time></trkpt><trkpt lat="44.360865" lon="6.6256933"><ele>1187.0</ele><time>2026-05-03T12:36:11.275Z</time></trkpt><trkpt lat="44.3609333" lon="6.62583"><ele>1187.0</ele><time>2026-05-03T12:36:12.276Z</time></trkpt><trkpt lat="44.3610033" lon="6.625975"><ele>1187.0</ele><time>2026-05-03T12:36:13.275Z</time></trkpt><trkpt lat="44.3610683" lon="6.6261117"><ele>1187.0</ele><time>2026-05-03T12:36:14.275Z</time></trkpt><trkpt lat="44.361135" lon="6.62626"><ele>1187.0</ele><time>2026-05-03T12:36:15.275Z</time></trkpt><trkpt lat="44.3612067" lon="6.6263883"><ele>1187.0</ele><time>2026-05-03T12:36:16.275Z</time></trkpt><trkpt lat="44.361285" lon="6.6265117"><ele>1187.0</ele><time>2026-05-03T12:36:17.276Z</time></trkpt><trkpt lat="44.3613783" lon="6.6266317"><ele>1187.0</ele><time>2026-05-03T12:36:18.275Z</time></trkpt><trkpt lat="44.3614933" lon="6.62674"><ele>1187.0</ele><time>2026-05-03T12:36:19.275Z</time></trkpt><trkpt lat="44.3616167" lon="6.6268383"><ele>1186.0</ele><time>2026-05-03T12:36:20.275Z</time></trkpt><trkpt lat="44.36175" lon="6.6269217"><ele>1185.0</ele><time>2026-05-03T12:36:21.275Z</time></trkpt><trkpt lat="44.3619" lon="6.627"><ele>1184.0</ele><time>2026-05-03T12:36:22.275Z</time></trkpt><trkpt lat="44.3620583" lon="6.62706"><ele>1181.0</ele><time>2026-05-03T12:36:23.275Z</time></trkpt><trkpt lat="44.36222" lon="6.6271333"><ele>1178.0</ele><time>2026-05-03T12:36:24.275Z</time></trkpt><trkpt lat="44.362385" lon="6.6272017"><ele>1175.0</ele><time>2026-05-03T12:36:25.275Z</time></trkpt><trkpt lat="44.3625483" lon="6.6272783"><ele>1175.0</ele><time>2026-05-03T12:36:26.275Z</time></trkpt><trkpt lat="44.362715" lon="6.62737"><ele>1175.0</ele><time>2026-05-03T12:36:27.275Z</time></trkpt><trkpt lat="44.3628733" lon="6.6274517"><ele>1175.0</ele><time>2026-05-03T12:36:28.275Z</time></trkpt><trkpt lat="44.363035" lon="6.6275167"><ele>1175.6666666666667</ele><time>2026-05-03T12:36:29.275Z</time></trkpt><trkpt lat="44.363185" lon="6.6275717"><ele>1176.3333333333333</ele><time>2026-05-03T12:36:30.275Z</time></trkpt><trkpt lat="44.3633367" lon="6.6276083"><ele>1177.0</ele><time>2026-05-03T12:36:31.275Z</time></trkpt><trkpt lat="44.36349" lon="6.6276433"><ele>1177.0</ele><time>2026-05-03T12:36:32.275Z</time></trkpt><trkpt lat="44.3636367" lon="6.627675"><ele>1177.0</ele><time>2026-05-03T12:36:33.275Z</time></trkpt><trkpt lat="44.3637867" lon="6.6277167"><ele>1177.0</ele><time>2026-05-03T12:36:34.275Z</time></trkpt><trkpt lat="44.3639467" lon="6.6277467"><ele>1175.3333333333333</ele><time>2026-05-03T12:36:35.275Z</time></trkpt><trkpt lat="44.3641067" lon="6.627775"><ele>1173.6666666666667</ele><time>2026-05-03T12:36:36.275Z</time></trkpt><trkpt lat="44.3642783" lon="6.6277917"><ele>1172.0</ele><time>2026-05-03T12:36:37.275Z</time></trkpt><trkpt lat="44.3644617" lon="6.6278067"><ele>1171.6666666666667</ele><time>2026-05-03T12:36:38.275Z</time></trkpt><trkpt lat="44.364655" lon="6.6278133"><ele>1171.3333333333333</ele><time>2026-05-03T12:36:39.275Z</time></trkpt><trkpt lat="44.3648517" lon="6.6278217"><ele>1171.0</ele><time>2026-05-03T12:36:40.275Z</time></trkpt><trkpt lat="44.3650533" lon="6.6278267"><ele>1171.0</ele><time>2026-05-03T12:36:41.275Z</time></trkpt><trkpt lat="44.36526" lon="6.6278283"><ele>1171.0</ele><time>2026-05-03T12:36:42.275Z</time></trkpt><trkpt lat="44.365475" lon="6.6278333"><ele>1171.0</ele><time>2026-05-03T12:36:43.275Z</time></trkpt><trkpt lat="44.3656733" lon="6.6278417"><ele>1170.0</ele><time>2026-05-03T12:36:44.275Z</time></trkpt><trkpt lat="44.3658633" lon="6.62785"><ele>1169.0</ele><time>2026-05-03T12:36:45.275Z</time></trkpt><trkpt lat="44.36606" lon="6.62785"><ele>1168.0</ele><time>2026-05-03T12:36:46.276Z</time></trkpt><trkpt lat="44.3662567" lon="6.6278533"><ele>1166.0</ele><time>2026-05-03T12:36:47.275Z</time></trkpt><trkpt lat="44.3664583" lon="6.6278567"><ele>1164.0</ele><time>2026-05-03T12:36:48.275Z</time></trkpt><trkpt lat="44.3666533" lon="6.6278667"><ele>1162.0</ele><time>2026-05-03T12:36:49.275Z</time></trkpt><trkpt lat="44.36685" lon="6.627875"><ele>1162.0</ele><time>2026-05-03T12:36:50.275Z</time></trkpt><trkpt lat="44.3670517" lon="6.6278817"><ele>1162.0</ele><time>2026-05-03T12:36:51.275Z</time></trkpt><trkpt lat="44.367255" lon="6.627885"><ele>1162.0</ele><time>2026-05-03T12:36:52.275Z</time></trkpt><trkpt lat="44.3674567" lon="6.627895"><ele>1161.3333333333333</ele><time>2026-05-03T12:36:53.276Z</time></trkpt><trkpt lat="44.3676517" lon="6.627905"><ele>1160.6666666666667</ele><time>2026-05-03T12:36:54.275Z</time></trkpt><trkpt lat="44.36785" lon="6.62791"><ele>1160.0</ele><time>2026-05-03T12:36:55.275Z</time></trkpt><trkpt lat="44.3680583" lon="6.6279083"><ele>1160.0</ele><time>2026-05-03T12:36:56.275Z</time></trkpt><trkpt lat="44.36827" lon="6.6279133"><ele>1160.0</ele><time>2026-05-03T12:36:57.275Z</time></trkpt><trkpt lat="44.368475" lon="6.6279017"><ele>1160.0</ele><time>2026-05-03T12:36:58.275Z</time></trkpt><trkpt lat="44.3686767" lon="6.6278967"><ele>1159.3333333333335</ele><time>2026-05-03T12:36:59.275Z</time></trkpt><trkpt lat="44.36888" lon="6.6279"><ele>1158.6666666666667</ele><time>2026-05-03T12:37:00.275Z</time></trkpt><trkpt lat="44.36909" lon="6.627885"><ele>1158.0</ele><time>2026-05-03T12:37:01.275Z</time></trkpt><trkpt lat="44.3693017" lon="6.6278717"><ele>1158.0</ele><time>2026-05-03T12:37:02.275Z</time></trkpt><trkpt lat="44.369515" lon="6.6278633"><ele>1158.0</ele><time>2026-05-03T12:37:03.275Z</time></trkpt><trkpt lat="44.36972" lon="6.6278533"><ele>1158.0</ele><time>2026-05-03T12:37:04.275Z</time></trkpt><trkpt lat="44.36993" lon="6.6278467"><ele>1157.0</ele><time>2026-05-03T12:37:05.276Z</time></trkpt><trkpt lat="44.3701317" lon="6.6278433"><ele>1156.0</ele><time>2026-05-03T12:37:06.275Z</time></trkpt><trkpt lat="44.37034" lon="6.6278367"><ele>1155.0</ele><time>2026-05-03T12:37:07.275Z</time></trkpt><trkpt lat="44.370535" lon="6.6278233"><ele>1153.3333333333333</ele><time>2026-05-03T12:37:08.275Z</time></trkpt><trkpt lat="44.3707367" lon="6.6278067"><ele>1151.6666666666665</ele><time>2026-05-03T12:37:09.275Z</time></trkpt><trkpt lat="44.3709417" lon="6.62779"><ele>1150.0</ele><time>2026-05-03T12:37:10.275Z</time></trkpt><trkpt lat="44.3711467" lon="6.6277867"><ele>1150.0</ele><time>2026-05-03T12:37:11.275Z</time></trkpt><trkpt lat="44.3713533" lon="6.6277917"><ele>1150.0</ele><time>2026-05-03T12:37:12.276Z</time></trkpt><trkpt lat="44.3715683" lon="6.6277917"><ele>1150.0</ele><time>2026-05-03T12:37:13.275Z</time></trkpt><trkpt lat="44.3717767" lon="6.62779"><ele>1150.0</ele><time>2026-05-03T12:37:14.275Z</time></trkpt><trkpt lat="44.3719767" lon="6.6277867"><ele>1150.0</ele><time>2026-05-03T12:37:15.275Z</time></trkpt><trkpt lat="44.3721833" lon="6.6277767"><ele>1150.0</ele><time>2026-05-03T12:37:16.275Z</time></trkpt><trkpt lat="44.3723917" lon="6.6277717"><ele>1149.3333333333333</ele><time>2026-05-03T12:37:17.275Z</time></trkpt><trkpt lat="44.372595" lon="6.6277667"><ele>1148.6666666666667</ele><time>2026-05-03T12:37:18.275Z</time></trkpt><trkpt lat="44.3727833" lon="6.6277667"><ele>1148.0</ele><time>2026-05-03T12:37:19.275Z</time></trkpt><trkpt lat="44.3729783" lon="6.62777"><ele>1147.0</ele><time>2026-05-03T12:37:20.275Z</time></trkpt><trkpt lat="44.3731667" lon="6.627765"><ele>1146.0</ele><time>2026-05-03T12:37:21.275Z</time></trkpt><trkpt lat="44.373355" lon="6.6277617"><ele>1145.0</ele><time>2026-05-03T12:37:22.275Z</time></trkpt><trkpt lat="44.373545" lon="6.627755"><ele>1145.0</ele><time>2026-05-03T12:37:23.275Z</time></trkpt><trkpt lat="44.37374" lon="6.6277433"><ele>1145.0</ele><time>2026-05-03T12:37:24.275Z</time></trkpt><trkpt lat="44.37393" lon="6.6277367"><ele>1145.0</ele><time>2026-05-03T12:37:25.275Z</time></trkpt><trkpt lat="44.3741167" lon="6.627735"><ele>1144.3333333333335</ele><time>2026-05-03T12:37:26.275Z</time></trkpt><trkpt lat="44.3743033" lon="6.6277283"><ele>1143.6666666666667</ele><time>2026-05-03T12:37:27.275Z</time></trkpt><trkpt lat="44.3744867" lon="6.62773"><ele>1143.0</ele><time>2026-05-03T12:37:28.275Z</time></trkpt><trkpt lat="44.3746683" lon="6.6277283"><ele>1143.3333333333333</ele><time>2026-05-03T12:37:29.275Z</time></trkpt><trkpt lat="44.374845" lon="6.627715"><ele>1143.6666666666665</ele><time>2026-05-03T12:37:30.275Z</time></trkpt><trkpt lat="44.375015" lon="6.627705"><ele>1144.0</ele><time>2026-05-03T12:37:31.275Z</time></trkpt><trkpt lat="44.375175" lon="6.6276967"><ele>1144.0</ele><time>2026-05-03T12:37:32.275Z</time></trkpt><trkpt lat="44.375325" lon="6.62769"><ele>1144.0</ele><time>2026-05-03T12:37:33.275Z</time></trkpt><trkpt lat="44.375455" lon="6.6276867"><ele>1144.0</ele><time>2026-05-03T12:37:34.275Z</time></trkpt><trkpt lat="44.375555" lon="6.6276733"><ele>1144.0</ele><time>2026-05-03T12:37:35.275Z</time></trkpt><trkpt lat="44.37565" lon="6.6276683"><ele>1143.8</ele><time>2026-05-03T12:37:36.275Z</time></trkpt><trkpt lat="44.3757433" lon="6.627675"><ele>1143.6000000000001</ele><time>2026-05-03T12:37:37.275Z</time></trkpt><trkpt lat="44.3758417" lon="6.6277033"><ele>1143.4</ele><time>2026-05-03T12:37:38.275Z</time></trkpt><trkpt lat="44.3759533" lon="6.627735"><ele>1143.2</ele><time>2026-05-03T12:37:39.276Z</time></trkpt><trkpt lat="44.3760817" lon="6.6277683"><ele>1143.0</ele><time>2026-05-03T12:37:40.275Z</time></trkpt><trkpt lat="44.376215" lon="6.6278067"><ele>1143.0</ele><time>2026-05-03T12:37:41.275Z</time></trkpt><trkpt lat="44.3763583" lon="6.6278517"><ele>1143.0</ele><time>2026-05-03T12:37:42.275Z</time></trkpt><trkpt lat="44.3765033" lon="6.627885"><ele>1143.0</ele><time>2026-05-03T12:37:43.275Z</time></trkpt><trkpt lat="44.3766517" lon="6.627925"><ele>1143.0</ele><time>2026-05-03T12:37:44.275Z</time></trkpt><trkpt lat="44.3767967" lon="6.6279683"><ele>1143.0</ele><time>2026-05-03T12:37:45.275Z</time></trkpt><trkpt lat="44.3769433" lon="6.6280067"><ele>1143.0</ele><time>2026-05-03T12:37:46.275Z</time></trkpt><trkpt lat="44.377085" lon="6.6280517"><ele>1143.0</ele><time>2026-05-03T12:37:47.275Z</time></trkpt><trkpt lat="44.3772183" lon="6.6280867"><ele>1143.0</ele><time>2026-05-03T12:37:48.275Z</time></trkpt><trkpt lat="44.3773517" lon="6.6281183"><ele>1141.25</ele><time>2026-05-03T12:37:49.275Z</time></trkpt><trkpt lat="44.3774833" lon="6.628155"><ele>1139.5</ele><time>2026-05-03T12:37:50.275Z</time></trkpt><trkpt lat="44.377615" lon="6.62819"><ele>1137.75</ele><time>2026-05-03T12:37:51.276Z</time></trkpt><trkpt lat="44.3777467" lon="6.6282167"><ele>1136.0</ele><time>2026-05-03T12:37:52.275Z</time></trkpt><trkpt lat="44.3778717" lon="6.6282533"><ele>1136.0</ele><time>2026-05-03T12:37:53.275Z</time></trkpt><trkpt lat="44.3780067" lon="6.628295"><ele>1136.0</ele><time>2026-05-03T12:37:54.275Z</time></trkpt><trkpt lat="44.378145" lon="6.628325"><ele>1136.0</ele><time>2026-05-03T12:37:55.275Z</time></trkpt><trkpt lat="44.3782767" lon="6.6283683"><ele>1136.0</ele><time>2026-05-03T12:37:56.275Z</time></trkpt><trkpt lat="44.3784067" lon="6.6284083"><ele>1135.75</ele><time>2026-05-03T12:37:57.275Z</time></trkpt><trkpt lat="44.3785317" lon="6.6284383"><ele>1135.5</ele><time>2026-05-03T12:37:58.275Z</time></trkpt><trkpt lat="44.378665" lon="6.6284683"><ele>1135.25</ele><time>2026-05-03T12:37:59.275Z</time></trkpt><trkpt lat="44.3787983" lon="6.62851"><ele>1135.0</ele><time>2026-05-03T12:38:00.275Z</time></trkpt><trkpt lat="44.3789267" lon="6.6285683"><ele>1135.0</ele><time>2026-05-03T12:38:01.275Z</time></trkpt><trkpt lat="44.3790617" lon="6.6286283"><ele>1135.0</ele><time>2026-05-03T12:38:02.275Z</time></trkpt><trkpt lat="44.3791933" lon="6.6286917"><ele>1135.0</ele><time>2026-05-03T12:38:03.275Z</time></trkpt><trkpt lat="44.3793267" lon="6.6287617"><ele>1135.0</ele><time>2026-05-03T12:38:04.275Z</time></trkpt><trkpt lat="44.3794567" lon="6.62883"><ele>1135.25</ele><time>2026-05-03T12:38:05.275Z</time></trkpt><trkpt lat="44.3795833" lon="6.6289"><ele>1135.5</ele><time>2026-05-03T12:38:06.275Z</time></trkpt><trkpt lat="44.379705" lon="6.62897"><ele>1135.75</ele><time>2026-05-03T12:38:07.275Z</time></trkpt><trkpt lat="44.379835" lon="6.629035"><ele>1136.0</ele><time>2026-05-03T12:38:08.275Z</time></trkpt><trkpt lat="44.3799583" lon="6.6291033"><ele>1135.5</ele><time>2026-05-03T12:38:09.275Z</time></trkpt><trkpt lat="44.38009" lon="6.629175"><ele>1135.0</ele><time>2026-05-03T12:38:10.275Z</time></trkpt><trkpt lat="44.38022" lon="6.6292483"><ele>1134.5</ele><time>2026-05-03T12:38:11.275Z</time></trkpt><trkpt lat="44.3803467" lon="6.6293283"><ele>1134.0</ele><time>2026-05-03T12:38:12.276Z</time></trkpt><trkpt lat="44.3804767" lon="6.6293983"><ele>1132.5</ele><time>2026-05-03T12:38:13.276Z</time></trkpt><trkpt lat="44.3806067" lon="6.6294917"><ele>1131.0</ele><time>2026-05-03T12:38:14.275Z</time></trkpt><trkpt lat="44.3807267" lon="6.6295933"><ele>1129.5</ele><time>2026-05-03T12:38:15.276Z</time></trkpt><trkpt lat="44.380855" lon="6.6296967"><ele>1128.0</ele><time>2026-05-03T12:38:16.275Z</time></trkpt><trkpt lat="44.3809683" lon="6.62982"><ele>1128.0</ele><time>2026-05-03T12:38:17.275Z</time></trkpt><trkpt lat="44.3810867" lon="6.6299617"><ele>1128.0</ele><time>2026-05-03T12:38:18.275Z</time></trkpt><trkpt lat="44.3811967" lon="6.6301017"><ele>1128.0</ele><time>2026-05-03T12:38:19.276Z</time></trkpt><trkpt lat="44.3813083" lon="6.6302433"><ele>1128.25</ele><time>2026-05-03T12:38:20.275Z</time></trkpt><trkpt lat="44.3814217" lon="6.6303667"><ele>1128.5</ele><time>2026-05-03T12:38:21.275Z</time></trkpt><trkpt lat="44.381525" lon="6.630485"><ele>1128.75</ele><time>2026-05-03T12:38:22.275Z</time></trkpt><trkpt lat="44.38163" lon="6.6306017"><ele>1129.0</ele><time>2026-05-03T12:38:23.275Z</time></trkpt><trkpt lat="44.3817283" lon="6.6307183"><ele>1129.0</ele><time>2026-05-03T12:38:24.275Z</time></trkpt><trkpt lat="44.3818233" lon="6.6308383"><ele>1129.0</ele><time>2026-05-03T12:38:25.275Z</time></trkpt><trkpt lat="44.3819167" lon="6.63096"><ele>1129.0</ele><time>2026-05-03T12:38:26.275Z</time></trkpt><trkpt lat="44.382" lon="6.631105"><ele>1129.0</ele><time>2026-05-03T12:38:27.275Z</time></trkpt><trkpt lat="44.3820783" lon="6.6312567"><ele>1129.25</ele><time>2026-05-03T12:38:28.276Z</time></trkpt><trkpt lat="44.3821483" lon="6.63142"><ele>1129.5</ele><time>2026-05-03T12:38:29.276Z</time></trkpt><trkpt lat="44.3822017" lon="6.63159"><ele>1129.75</ele><time>2026-05-03T12:38:30.275Z</time></trkpt><trkpt lat="44.3822633" lon="6.6317733"><ele>1130.0</ele><time>2026-05-03T12:38:31.275Z</time></trkpt><trkpt lat="44.38232" lon="6.6319533"><ele>1129.5</ele><time>2026-05-03T12:38:32.275Z</time></trkpt><trkpt lat="44.3823717" lon="6.6321217"><ele>1129.0</ele><time>2026-05-03T12:38:33.275Z</time></trkpt><trkpt lat="44.38243" lon="6.6322983"><ele>1128.5</ele><time>2026-05-03T12:38:34.275Z</time></trkpt><trkpt lat="44.3824817" lon="6.63248"><ele>1128.0</ele><time>2026-05-03T12:38:35.275Z</time></trkpt><trkpt lat="44.3825317" lon="6.6326617"><ele>1126.75</ele><time>2026-05-03T12:38:36.275Z</time></trkpt><trkpt lat="44.382585" lon="6.63284"><ele>1125.5</ele><time>2026-05-03T12:38:37.275Z</time></trkpt><trkpt lat="44.3826333" lon="6.6330167"><ele>1124.25</ele><time>2026-05-03T12:38:38.275Z</time></trkpt><trkpt lat="44.382685" lon="6.6331983"><ele>1123.0</ele><time>2026-05-03T12:38:39.276Z</time></trkpt><trkpt lat="44.38274" lon="6.633375"><ele>1123.0</ele><time>2026-05-03T12:38:40.275Z</time></trkpt><trkpt lat="44.3827867" lon="6.633555"><ele>1123.0</ele><time>2026-05-03T12:38:41.275Z</time></trkpt><trkpt lat="44.3828267" lon="6.6337233"><ele>1123.0</ele><time>2026-05-03T12:38:42.275Z</time></trkpt><trkpt lat="44.3828567" lon="6.6339117"><ele>1123.0</ele><time>2026-05-03T12:38:43.275Z</time></trkpt><trkpt lat="44.3828783" lon="6.6341017"><ele>1123.5</ele><time>2026-05-03T12:38:44.275Z</time></trkpt><trkpt lat="44.3828967" lon="6.6342867"><ele>1124.0</ele><time>2026-05-03T12:38:45.276Z</time></trkpt><trkpt lat="44.38291" lon="6.6344767"><ele>1124.5</ele><time>2026-05-03T12:38:46.275Z</time></trkpt><trkpt lat="44.38292" lon="6.6346583"><ele>1125.0</ele><time>2026-05-03T12:38:47.276Z</time></trkpt><trkpt lat="44.3829317" lon="6.6348383"><ele>1125.75</ele><time>2026-05-03T12:38:48.275Z</time></trkpt><trkpt lat="44.3829467" lon="6.6350233"><ele>1126.5</ele><time>2026-05-03T12:38:49.275Z</time></trkpt><trkpt lat="44.3829583" lon="6.6352017"><ele>1127.25</ele><time>2026-05-03T12:38:50.275Z</time></trkpt><trkpt lat="44.3829683" lon="6.635385"><ele>1128.0</ele><time>2026-05-03T12:38:51.275Z</time></trkpt><trkpt lat="44.3829767" lon="6.635585"><ele>1128.5</ele><time>2026-05-03T12:38:52.276Z</time></trkpt><trkpt lat="44.3829867" lon="6.6357733"><ele>1129.0</ele><time>2026-05-03T12:38:53.275Z</time></trkpt><trkpt lat="44.382995" lon="6.6359583"><ele>1129.5</ele><time>2026-05-03T12:38:54.275Z</time></trkpt><trkpt lat="44.3830033" lon="6.6361383"><ele>1130.0</ele><time>2026-05-03T12:38:55.275Z</time></trkpt><trkpt lat="44.3830133" lon="6.6363217"><ele>1129.25</ele><time>2026-05-03T12:38:56.275Z</time></trkpt><trkpt lat="44.3830233" lon="6.6365167"><ele>1128.5</ele><time>2026-05-03T12:38:57.275Z</time></trkpt><trkpt lat="44.3830367" lon="6.6367067"><ele>1127.75</ele><time>2026-05-03T12:38:58.275Z</time></trkpt><trkpt lat="44.3830533" lon="6.636895"><ele>1127.0</ele><time>2026-05-03T12:38:59.275Z</time></trkpt><trkpt lat="44.3830733" lon="6.6370883"><ele>1127.0</ele><time>2026-05-03T12:39:00.276Z</time></trkpt><trkpt lat="44.3830933" lon="6.6372783"><ele>1127.0</ele><time>2026-05-03T12:39:01.275Z</time></trkpt><trkpt lat="44.3831183" lon="6.63748"><ele>1127.0</ele><time>2026-05-03T12:39:02.275Z</time></trkpt><trkpt lat="44.3831483" lon="6.637665"><ele>1127.0</ele><time>2026-05-03T12:39:03.275Z</time></trkpt><trkpt lat="44.38318" lon="6.6378533"><ele>1127.25</ele><time>2026-05-03T12:39:04.275Z</time></trkpt><trkpt lat="44.3832217" lon="6.6380417"><ele>1127.5</ele><time>2026-05-03T12:39:05.275Z</time></trkpt><trkpt lat="44.3832583" lon="6.63824"><ele>1127.75</ele><time>2026-05-03T12:39:06.275Z</time></trkpt><trkpt lat="44.3832883" lon="6.63844"><ele>1128.0</ele><time>2026-05-03T12:39:07.276Z</time></trkpt><trkpt lat="44.3833133" lon="6.6386317"><ele>1127.5</ele><time>2026-05-03T12:39:08.275Z</time></trkpt><trkpt lat="44.38334" lon="6.6388267"><ele>1127.0</ele><time>2026-05-03T12:39:09.275Z</time></trkpt><trkpt lat="44.3833667" lon="6.63902"><ele>1126.5</ele><time>2026-05-03T12:39:10.275Z</time></trkpt><trkpt lat="44.3833967" lon="6.6392083"><ele>1126.0</ele><time>2026-05-03T12:39:11.275Z</time></trkpt><trkpt lat="44.3834217" lon="6.6394033"><ele>1125.5</ele><time>2026-05-03T12:39:12.276Z</time></trkpt><trkpt lat="44.3834483" lon="6.639595"><ele>1125.0</ele><time>2026-05-03T12:39:13.276Z</time></trkpt><trkpt lat="44.383475" lon="6.63979"><ele>1124.5</ele><time>2026-05-03T12:39:14.275Z</time></trkpt><trkpt lat="44.3835017" lon="6.639985"><ele>1124.0</ele><time>2026-05-03T12:39:15.275Z</time></trkpt><trkpt lat="44.3835283" lon="6.6401767"><ele>1124.75</ele><time>2026-05-03T12:39:16.275Z</time></trkpt><trkpt lat="44.3835567" lon="6.6403733"><ele>1125.5</ele><time>2026-05-03T12:39:17.275Z</time></trkpt><trkpt lat="44.383585" lon="6.6405633"><ele>1126.25</ele><time>2026-05-03T12:39:18.275Z</time></trkpt><trkpt lat="44.38361" lon="6.6407583"><ele>1127.0</ele><time>2026-05-03T12:39:19.275Z</time></trkpt><trkpt lat="44.3836417" lon="6.6409533"><ele>1127.25</ele><time>2026-05-03T12:39:20.275Z</time></trkpt><trkpt lat="44.3836733" lon="6.641145"><ele>1127.5</ele><time>2026-05-03T12:39:21.275Z</time></trkpt><trkpt lat="44.3837017" lon="6.6413367"><ele>1127.75</ele><time>2026-05-03T12:39:22.275Z</time></trkpt><trkpt lat="44.3837233" lon="6.6415383"><ele>1128.0</ele><time>2026-05-03T12:39:23.275Z</time></trkpt><trkpt lat="44.3837467" lon="6.6417317"><ele>1128.0</ele><time>2026-05-03T12:39:24.275Z</time></trkpt><trkpt lat="44.383775" lon="6.6419317"><ele>1128.0</ele><time>2026-05-03T12:39:25.275Z</time></trkpt><trkpt lat="44.3838033" lon="6.64212"><ele>1128.0</ele><time>2026-05-03T12:39:26.275Z</time></trkpt><trkpt lat="44.3838317" lon="6.6423183"><ele>1128.0</ele><time>2026-05-03T12:39:27.275Z</time></trkpt><trkpt lat="44.383855" lon="6.642515"><ele>1128.5</ele><time>2026-05-03T12:39:28.275Z</time></trkpt><trkpt lat="44.383885" lon="6.6427"><ele>1129.0</ele><time>2026-05-03T12:39:29.275Z</time></trkpt><trkpt lat="44.3839017" lon="6.6428883"><ele>1129.5</ele><time>2026-05-03T12:39:30.275Z</time></trkpt><trkpt lat="44.3839317" lon="6.643075"><ele>1130.0</ele><time>2026-05-03T12:39:31.275Z</time></trkpt><trkpt lat="44.38396" lon="6.64326"><ele>1130.25</ele><time>2026-05-03T12:39:32.275Z</time></trkpt><trkpt lat="44.38399" lon="6.6434417"><ele>1130.5</ele><time>2026-05-03T12:39:33.275Z</time></trkpt><trkpt lat="44.3840167" lon="6.64363"><ele>1130.75</ele><time>2026-05-03T12:39:34.276Z</time></trkpt><trkpt lat="44.3840533" lon="6.6438083"><ele>1131.0</ele><time>2026-05-03T12:39:35.275Z</time></trkpt><trkpt lat="44.384085" lon="6.643995"><ele>1131.0</ele><time>2026-05-03T12:39:36.275Z</time></trkpt><trkpt lat="44.3841217" lon="6.6441767"><ele>1131.0</ele><time>2026-05-03T12:39:37.275Z</time></trkpt><trkpt lat="44.3841533" lon="6.6443617"><ele>1131.0</ele><time>2026-05-03T12:39:38.275Z</time></trkpt><trkpt lat="44.384185" lon="6.64455"><ele>1131.0</ele><time>2026-05-03T12:39:39.275Z</time></trkpt><trkpt lat="44.3842167" lon="6.6447317"><ele>1131.0</ele><time>2026-05-03T12:39:40.275Z</time></trkpt><trkpt lat="44.3842433" lon="6.64491"><ele>1131.0</ele><time>2026-05-03T12:39:41.276Z</time></trkpt><trkpt lat="44.384265" lon="6.6451033"><ele>1131.0</ele><time>2026-05-03T12:39:42.275Z</time></trkpt><trkpt lat="44.3842917" lon="6.6452867"><ele>1131.0</ele><time>2026-05-03T12:39:43.276Z</time></trkpt><trkpt lat="44.3843183" lon="6.645465"><ele>1130.75</ele><time>2026-05-03T12:39:44.275Z</time></trkpt><trkpt lat="44.3843483" lon="6.645655"><ele>1130.5</ele><time>2026-05-03T12:39:45.276Z</time></trkpt><trkpt lat="44.3843717" lon="6.6458267"><ele>1130.25</ele><time>2026-05-03T12:39:46.276Z</time></trkpt><trkpt lat="44.384395" lon="6.6459983"><ele>1130.0</ele><time>2026-05-03T12:39:47.276Z</time></trkpt><trkpt lat="44.3844167" lon="6.6461767"><ele>1130.5</ele><time>2026-05-03T12:39:48.276Z</time></trkpt><trkpt lat="44.384445" lon="6.6463517"><ele>1131.0</ele><time>2026-05-03T12:39:49.275Z</time></trkpt><trkpt lat="44.384465" lon="6.6465283"><ele>1131.5</ele><time>2026-05-03T12:39:50.275Z</time></trkpt><trkpt lat="44.3844767" lon="6.646705"><ele>1132.0</ele><time>2026-05-03T12:39:51.275Z</time></trkpt><trkpt lat="44.38449" lon="6.6468733"><ele>1132.25</ele><time>2026-05-03T12:39:52.275Z</time></trkpt><trkpt lat="44.3845067" lon="6.647055"><ele>1132.5</ele><time>2026-05-03T12:39:53.275Z</time></trkpt><trkpt lat="44.384515" lon="6.6472317"><ele>1132.75</ele><time>2026-05-03T12:39:54.275Z</time></trkpt><trkpt lat="44.384515" lon="6.647405"><ele>1133.0</ele><time>2026-05-03T12:39:55.275Z</time></trkpt><trkpt lat="44.3845117" lon="6.6475683"><ele>1133.0</ele><time>2026-05-03T12:39:56.275Z</time></trkpt><trkpt lat="44.3844967" lon="6.6477117"><ele>1133.0</ele><time>2026-05-03T12:39:57.275Z</time></trkpt><trkpt lat="44.3844767" lon="6.6478617"><ele>1133.0</ele><time>2026-05-03T12:39:58.275Z</time></trkpt><trkpt lat="44.3844467" lon="6.6479883"><ele>1133.0</ele><time>2026-05-03T12:39:59.275Z</time></trkpt><trkpt lat="44.3844317" lon="6.6481167"><ele>1133.0</ele><time>2026-05-03T12:40:00.275Z</time></trkpt><trkpt lat="44.384445" lon="6.6482433"><ele>1133.1666666666667</ele><time>2026-05-03T12:40:01.275Z</time></trkpt><trkpt lat="44.3844767" lon="6.6483617"><ele>1133.3333333333335</ele><time>2026-05-03T12:40:02.275Z</time></trkpt><trkpt lat="44.3845383" lon="6.6484633"><ele>1133.5</ele><time>2026-05-03T12:40:03.276Z</time></trkpt><trkpt lat="44.3846183" lon="6.6485417"><ele>1133.6666666666667</ele><time>2026-05-03T12:40:04.275Z</time></trkpt><trkpt lat="44.3847017" lon="6.6485883"><ele>1133.8333333333333</ele><time>2026-05-03T12:40:05.275Z</time></trkpt><trkpt lat="44.38477" lon="6.6486217"><ele>1134.0</ele><time>2026-05-03T12:40:06.275Z</time></trkpt><trkpt lat="44.3848733" lon="6.6486917"><ele>1134.6000000000001</ele><time>2026-05-03T12:40:08.275Z</time></trkpt><trkpt lat="44.3849733" lon="6.64878"><ele>1135.2</ele><time>2026-05-03T12:40:10.276Z</time></trkpt><trkpt lat="44.3850267" lon="6.6488467"><ele>1135.8000000000002</ele><time>2026-05-03T12:40:11.275Z</time></trkpt><trkpt lat="44.385085" lon="6.6489333"><ele>1136.4</ele><time>2026-05-03T12:40:12.275Z</time></trkpt><trkpt lat="44.3851467" lon="6.6490267"><ele>1137.0</ele><time>2026-05-03T12:40:13.275Z</time></trkpt><trkpt lat="44.3852067" lon="6.6491317"><ele>1137.0</ele><time>2026-05-03T12:40:14.275Z</time></trkpt><trkpt lat="44.3852567" lon="6.6492567"><ele>1137.0</ele><time>2026-05-03T12:40:15.275Z</time></trkpt><trkpt lat="44.385305" lon="6.64938"><ele>1137.0</ele><time>2026-05-03T12:40:16.276Z</time></trkpt><trkpt lat="44.385355" lon="6.6495083"><ele>1137.0</ele><time>2026-05-03T12:40:17.275Z</time></trkpt><trkpt lat="44.3853967" lon="6.6496333"><ele>1137.0</ele><time>2026-05-03T12:40:18.275Z</time></trkpt><trkpt lat="44.385445" lon="6.6497367"><ele>1137.0</ele><time>2026-05-03T12:40:19.275Z</time></trkpt><trkpt lat="44.3855" lon="6.6498617"><ele>1137.0</ele><time>2026-05-03T12:40:20.276Z</time></trkpt><trkpt lat="44.3855567" lon="6.6499833"><ele>1137.0</ele><time>2026-05-03T12:40:21.275Z</time></trkpt><trkpt lat="44.3856217" lon="6.6501"><ele>1137.0</ele><time>2026-05-03T12:40:22.275Z</time></trkpt><trkpt lat="44.385665" lon="6.650225"><ele>1137.0</ele><time>2026-05-03T12:40:23.275Z</time></trkpt><trkpt lat="44.3857083" lon="6.650355"><ele>1137.4</ele><time>2026-05-03T12:40:24.275Z</time></trkpt><trkpt lat="44.385745" lon="6.6504917"><ele>1137.8000000000002</ele><time>2026-05-03T12:40:25.275Z</time></trkpt><trkpt lat="44.3857833" lon="6.650625"><ele>1138.2</ele><time>2026-05-03T12:40:26.276Z</time></trkpt><trkpt lat="44.3858167" lon="6.650765"><ele>1138.6000000000001</ele><time>2026-05-03T12:40:27.275Z</time></trkpt><trkpt lat="44.38585" lon="6.6509017"><ele>1139.0</ele><time>2026-05-03T12:40:28.275Z</time></trkpt><trkpt lat="44.3858783" lon="6.65104"><ele>1139.0</ele><time>2026-05-03T12:40:29.275Z</time></trkpt><trkpt lat="44.3859083" lon="6.651175"><ele>1139.0</ele><time>2026-05-03T12:40:30.275Z</time></trkpt><trkpt lat="44.3859383" lon="6.6513083"><ele>1139.0</ele><time>2026-05-03T12:40:31.276Z</time></trkpt><trkpt lat="44.3859667" lon="6.6514333"><ele>1139.0</ele><time>2026-05-03T12:40:32.275Z</time></trkpt><trkpt lat="44.3859933" lon="6.6515583"><ele>1139.0</ele><time>2026-05-03T12:40:33.275Z</time></trkpt><trkpt lat="44.386015" lon="6.6516883"><ele>1139.0</ele><time>2026-05-03T12:40:34.276Z</time></trkpt><trkpt lat="44.3860383" lon="6.65182"><ele>1139.0</ele><time>2026-05-03T12:40:35.275Z</time></trkpt><trkpt lat="44.3860633" lon="6.6519483"><ele>1139.0</ele><time>2026-05-03T12:40:36.275Z</time></trkpt><trkpt lat="44.386085" lon="6.6520567"><ele>1139.0</ele><time>2026-05-03T12:40:37.275Z</time></trkpt><trkpt lat="44.3861" lon="6.6521483"><ele>1139.0</ele><time>2026-05-03T12:40:38.275Z</time></trkpt><trkpt lat="44.3861267" lon="6.6523"><ele>1139.0</ele><time>2026-05-03T12:40:40.275Z</time></trkpt><trkpt lat="44.3861233" lon="6.652435"><ele>1139.0</ele><time>2026-05-03T12:40:42.275Z</time></trkpt><trkpt lat="44.386035" lon="6.6525233"><ele>1139.0</ele><time>2026-05-03T12:40:44.276Z</time></trkpt><trkpt lat="44.3859617" lon="6.652535"><ele>1139.0</ele><time>2026-05-03T12:40:45.275Z</time></trkpt><trkpt lat="44.3858817" lon="6.652545"><ele>1139.0</ele><time>2026-05-03T12:40:46.275Z</time></trkpt><trkpt lat="44.3857933" lon="6.6525617"><ele>1139.0</ele><time>2026-05-03T12:40:47.275Z</time></trkpt><trkpt lat="44.3857" lon="6.652565"><ele>1139.0</ele><time>2026-05-03T12:40:48.275Z</time></trkpt><trkpt lat="44.3856" lon="6.65256"><ele>1139.0</ele><time>2026-05-03T12:40:49.275Z</time></trkpt><trkpt lat="44.3855017" lon="6.652565"><ele>1139.0</ele><time>2026-05-03T12:40:50.275Z</time></trkpt><trkpt lat="44.3854017" lon="6.652575"><ele>1139.0</ele><time>2026-05-03T12:40:51.275Z</time></trkpt><trkpt lat="44.3853083" lon="6.6525883"><ele>1139.0</ele><time>2026-05-03T12:40:52.275Z</time></trkpt><trkpt lat="44.3852333" lon="6.6526083"><ele>1139.0</ele><time>2026-05-03T12:40:53.275Z</time></trkpt><trkpt lat="44.38516" lon="6.6526483"><ele>1139.0</ele><time>2026-05-03T12:40:54.275Z</time></trkpt><trkpt lat="44.3851" lon="6.6527183"><ele>1139.0</ele><time>2026-05-03T12:40:55.276Z</time></trkpt><trkpt lat="44.3850467" lon="6.6527983"><ele>1139.0</ele><time>2026-05-03T12:40:56.275Z</time></trkpt><trkpt lat="44.385015" lon="6.6529067"><ele>1139.0</ele><time>2026-05-03T12:40:57.275Z</time></trkpt><trkpt lat="44.3850217" lon="6.6530467"><ele>1139.0</ele><time>2026-05-03T12:40:58.275Z</time></trkpt><trkpt lat="44.3850467" lon="6.6531933"><ele>1139.25</ele><time>2026-05-03T12:40:59.275Z</time></trkpt><trkpt lat="44.3850767" lon="6.6533433"><ele>1139.5</ele><time>2026-05-03T12:41:00.276Z</time></trkpt><trkpt lat="44.3851117" lon="6.6535067"><ele>1139.75</ele><time>2026-05-03T12:41:01.276Z</time></trkpt><trkpt lat="44.3851267" lon="6.6536667"><ele>1140.0</ele><time>2026-05-03T12:41:02.275Z</time></trkpt><trkpt lat="44.3851483" lon="6.6538167"><ele>1140.0</ele><time>2026-05-03T12:41:03.276Z</time></trkpt><trkpt lat="44.38517" lon="6.6539467"><ele>1140.0</ele><time>2026-05-03T12:41:04.275Z</time></trkpt><trkpt lat="44.38518" lon="6.654065"><ele>1140.0</ele><time>2026-05-03T12:41:05.275Z</time></trkpt><trkpt lat="44.38519" lon="6.6541783"><ele>1140.0</ele><time>2026-05-03T12:41:06.275Z</time></trkpt><trkpt lat="44.3852017" lon="6.6542933"><ele>1140.0</ele><time>2026-05-03T12:41:07.276Z</time></trkpt><trkpt lat="44.3852067" lon="6.6544033"><ele>1140.0</ele><time>2026-05-03T12:41:08.276Z</time></trkpt><trkpt lat="44.38521" lon="6.6545283"><ele>1140.2</ele><time>2026-05-03T12:41:09.275Z</time></trkpt><trkpt lat="44.3852167" lon="6.6546583"><ele>1140.4</ele><time>2026-05-03T12:41:10.275Z</time></trkpt><trkpt lat="44.385215" lon="6.6548083"><ele>1140.6</ele><time>2026-05-03T12:41:11.276Z</time></trkpt><trkpt lat="44.3852183" lon="6.654975"><ele>1140.8</ele><time>2026-05-03T12:41:12.275Z</time></trkpt><trkpt lat="44.385225" lon="6.65513"><ele>1141.0</ele><time>2026-05-03T12:41:13.275Z</time></trkpt><trkpt lat="44.38523" lon="6.6552967"><ele>1140.25</ele><time>2026-05-03T12:41:14.275Z</time></trkpt><trkpt lat="44.3852317" lon="6.65546"><ele>1139.5</ele><time>2026-05-03T12:41:15.275Z</time></trkpt><trkpt lat="44.385235" lon="6.6556267"><ele>1138.75</ele><time>2026-05-03T12:41:16.275Z</time></trkpt><trkpt lat="44.3852267" lon="6.6557917"><ele>1138.0</ele><time>2026-05-03T12:41:17.275Z</time></trkpt><trkpt lat="44.38522" lon="6.6559633"><ele>1138.5</ele><time>2026-05-03T12:41:18.275Z</time></trkpt><trkpt lat="44.3852167" lon="6.6561317"><ele>1139.0</ele><time>2026-05-03T12:41:19.275Z</time></trkpt><trkpt lat="44.38521" lon="6.6562983"><ele>1139.5</ele><time>2026-05-03T12:41:20.275Z</time></trkpt><trkpt lat="44.385205" lon="6.6564683"><ele>1140.0</ele><time>2026-05-03T12:41:21.276Z</time></trkpt><trkpt lat="44.3851983" lon="6.6566417"><ele>1140.0</ele><time>2026-05-03T12:41:22.275Z</time></trkpt><trkpt lat="44.3851917" lon="6.6568067"><ele>1140.0</ele><time>2026-05-03T12:41:23.275Z</time></trkpt><trkpt lat="44.3851817" lon="6.6569517"><ele>1140.0</ele><time>2026-05-03T12:41:24.275Z</time></trkpt><trkpt lat="44.385175" lon="6.6570917"><ele>1140.0</ele><time>2026-05-03T12:41:25.275Z</time></trkpt><trkpt lat="44.38517" lon="6.657215"><ele>1140.0</ele><time>2026-05-03T12:41:26.276Z</time></trkpt><trkpt lat="44.385175" lon="6.657335"><ele>1140.3333333333333</ele><time>2026-05-03T12:41:27.275Z</time></trkpt><trkpt lat="44.3851683" lon="6.6574283"><ele>1140.6666666666667</ele><time>2026-05-03T12:41:28.275Z</time></trkpt><trkpt lat="44.38516" lon="6.65754"><ele>1141.0</ele><time>2026-05-03T12:41:30.275Z</time></trkpt><trkpt lat="44.38516" lon="6.6576683"><ele>1141.3333333333335</ele><time>2026-05-03T12:41:33.275Z</time></trkpt><trkpt lat="44.3851533" lon="6.6578133"><ele>1141.6666666666667</ele><time>2026-05-03T12:41:35.275Z</time></trkpt><trkpt lat="44.3851533" lon="6.65792"><ele>1142.0</ele><time>2026-05-03T12:41:36.275Z</time></trkpt><trkpt lat="44.3851533" lon="6.6580333"><ele>1142.1666666666667</ele><time>2026-05-03T12:41:37.275Z</time></trkpt><trkpt lat="44.3851433" lon="6.6581517"><ele>1142.3333333333335</ele><time>2026-05-03T12:41:38.275Z</time></trkpt><trkpt lat="44.3851383" lon="6.6582767"><ele>1142.5</ele><time>2026-05-03T12:41:39.275Z</time></trkpt><trkpt lat="44.3851417" lon="6.6584017"><ele>1142.6666666666667</ele><time>2026-05-03T12:41:40.275Z</time></trkpt><trkpt lat="44.385135" lon="6.6585317"><ele>1142.8333333333333</ele><time>2026-05-03T12:41:41.275Z</time></trkpt><trkpt lat="44.3851333" lon="6.6586583"><ele>1143.0</ele><time>2026-05-03T12:41:42.275Z</time></trkpt><trkpt lat="44.3851283" lon="6.6587867"><ele>1142.2</ele><time>2026-05-03T12:41:43.275Z</time></trkpt><trkpt lat="44.3851283" lon="6.65891"><ele>1141.4</ele><time>2026-05-03T12:41:44.276Z</time></trkpt><trkpt lat="44.3851267" lon="6.6590333"><ele>1140.6000000000001</ele><time>2026-05-03T12:41:45.275Z</time></trkpt><trkpt lat="44.3851233" lon="6.65916"><ele>1139.8</ele><time>2026-05-03T12:41:46.275Z</time></trkpt><trkpt lat="44.3851183" lon="6.65929"><ele>1139.0</ele><time>2026-05-03T12:41:47.275Z</time></trkpt><trkpt lat="44.38511" lon="6.6594333"><ele>1139.4</ele><time>2026-05-03T12:41:48.275Z</time></trkpt><trkpt lat="44.3851033" lon="6.6595983"><ele>1139.8000000000002</ele><time>2026-05-03T12:41:49.275Z</time></trkpt><trkpt lat="44.3851017" lon="6.6597517"><ele>1140.1999999999998</ele><time>2026-05-03T12:41:50.275Z</time></trkpt><trkpt lat="44.385095" lon="6.6599067"><ele>1140.6</ele><time>2026-05-03T12:41:51.275Z</time></trkpt><trkpt lat="44.38509" lon="6.6600567"><ele>1141.0</ele><time>2026-05-03T12:41:52.275Z</time></trkpt><trkpt lat="44.3850917" lon="6.6601867"><ele>1141.0</ele><time>2026-05-03T12:41:53.275Z</time></trkpt><trkpt lat="44.385095" lon="6.6602933"><ele>1141.0</ele><time>2026-05-03T12:41:54.275Z</time></trkpt><trkpt lat="44.3850917" lon="6.6604117"><ele>1141.0</ele><time>2026-05-03T12:41:55.275Z</time></trkpt><trkpt lat="44.3850767" lon="6.6605167"><ele>1141.0</ele><time>2026-05-03T12:41:56.276Z</time></trkpt><trkpt lat="44.385035" lon="6.6606583"><ele>1141.0</ele><time>2026-05-03T12:41:58.275Z</time></trkpt><trkpt lat="44.3849883" lon="6.6607933"><ele>1141.0</ele><time>2026-05-03T12:42:04.275Z</time></trkpt><trkpt lat="44.3850417" lon="6.6609717"><ele>1141.0</ele><time>2026-05-03T12:42:06.275Z</time></trkpt><trkpt lat="44.3850983" lon="6.6610967"><ele>1141.0</ele><time>2026-05-03T12:42:07.275Z</time></trkpt><trkpt lat="44.3851633" lon="6.6612267"><ele>1141.0</ele><time>2026-05-03T12:42:08.275Z</time></trkpt><trkpt lat="44.38523" lon="6.6613483"><ele>1141.0</ele><time>2026-05-03T12:42:09.275Z</time></trkpt><trkpt lat="44.3852983" lon="6.6614783"><ele>1141.0</ele><time>2026-05-03T12:42:10.275Z</time></trkpt><trkpt lat="44.3853733" lon="6.6616217"><ele>1141.0</ele><time>2026-05-03T12:42:11.275Z</time></trkpt><trkpt lat="44.3854567" lon="6.66177"><ele>1141.0</ele><time>2026-05-03T12:42:12.275Z</time></trkpt><trkpt lat="44.3855467" lon="6.6619217"><ele>1140.75</ele><time>2026-05-03T12:42:13.275Z</time></trkpt><trkpt lat="44.3856417" lon="6.6620783"><ele>1140.5</ele><time>2026-05-03T12:42:14.275Z</time></trkpt><trkpt lat="44.385735" lon="6.6622333"><ele>1140.25</ele><time>2026-05-03T12:42:15.275Z</time></trkpt><trkpt lat="44.3858267" lon="6.6623917"><ele>1140.0</ele><time>2026-05-03T12:42:16.275Z</time></trkpt><trkpt lat="44.3859217" lon="6.6625533"><ele>1140.0</ele><time>2026-05-03T12:42:17.276Z</time></trkpt><trkpt lat="44.38602" lon="6.6626983"><ele>1140.0</ele><time>2026-05-03T12:42:18.275Z</time></trkpt><trkpt lat="44.3861183" lon="6.6628433"><ele>1140.0</ele><time>2026-05-03T12:42:19.275Z</time></trkpt><trkpt lat="44.3862167" lon="6.6629883"><ele>1140.0</ele><time>2026-05-03T12:42:20.275Z</time></trkpt><trkpt lat="44.3863117" lon="6.6631333"><ele>1140.75</ele><time>2026-05-03T12:42:21.275Z</time></trkpt><trkpt lat="44.3864083" lon="6.6632733"><ele>1141.5</ele><time>2026-05-03T12:42:22.275Z</time></trkpt><trkpt lat="44.3865067" lon="6.6634133"><ele>1142.25</ele><time>2026-05-03T12:42:23.275Z</time></trkpt><trkpt lat="44.3866" lon="6.66356"><ele>1143.0</ele><time>2026-05-03T12:42:24.275Z</time></trkpt><trkpt lat="44.3866983" lon="6.6637067"><ele>1143.0</ele><time>2026-05-03T12:42:25.275Z</time></trkpt><trkpt lat="44.3867967" lon="6.663855"><ele>1143.0</ele><time>2026-05-03T12:42:26.275Z</time></trkpt><trkpt lat="44.3868917" lon="6.6640033"><ele>1143.0</ele><time>2026-05-03T12:42:27.276Z</time></trkpt><trkpt lat="44.3869883" lon="6.6641517"><ele>1143.0</ele><time>2026-05-03T12:42:28.275Z</time></trkpt><trkpt lat="44.387085" lon="6.6643067"><ele>1143.5</ele><time>2026-05-03T12:42:29.275Z</time></trkpt><trkpt lat="44.38718" lon="6.6644517"><ele>1144.0</ele><time>2026-05-03T12:42:30.275Z</time></trkpt><trkpt lat="44.3872767" lon="6.6646033"><ele>1144.5</ele><time>2026-05-03T12:42:31.275Z</time></trkpt><trkpt lat="44.3873717" lon="6.664745"><ele>1145.0</ele><time>2026-05-03T12:42:32.276Z</time></trkpt><trkpt lat="44.3874683" lon="6.6648967"><ele>1145.0</ele><time>2026-05-03T12:42:33.275Z</time></trkpt><trkpt lat="44.3875633" lon="6.6650433"><ele>1145.0</ele><time>2026-05-03T12:42:34.275Z</time></trkpt><trkpt lat="44.3876583" lon="6.66519"><ele>1145.0</ele><time>2026-05-03T12:42:35.275Z</time></trkpt><trkpt lat="44.3877567" lon="6.66534"><ele>1145.0</ele><time>2026-05-03T12:42:36.275Z</time></trkpt><trkpt lat="44.38785" lon="6.6654867"><ele>1145.25</ele><time>2026-05-03T12:42:37.275Z</time></trkpt><trkpt lat="44.3879417" lon="6.665615"><ele>1145.5</ele><time>2026-05-03T12:42:38.275Z</time></trkpt><trkpt lat="44.388035" lon="6.6657483"><ele>1145.75</ele><time>2026-05-03T12:42:39.275Z</time></trkpt><trkpt lat="44.3881317" lon="6.6658833"><ele>1146.0</ele><time>2026-05-03T12:42:40.275Z</time></trkpt><trkpt lat="44.3882267" lon="6.6660283"><ele>1145.5</ele><time>2026-05-03T12:42:41.275Z</time></trkpt><trkpt lat="44.3883183" lon="6.66617"><ele>1145.0</ele><time>2026-05-03T12:42:42.276Z</time></trkpt><trkpt lat="44.3884117" lon="6.66631"><ele>1144.5</ele><time>2026-05-03T12:42:43.276Z</time></trkpt><trkpt lat="44.3885017" lon="6.66646"><ele>1144.0</ele><time>2026-05-03T12:42:44.275Z</time></trkpt><trkpt lat="44.3886" lon="6.6666083"><ele>1144.0</ele><time>2026-05-03T12:42:45.275Z</time></trkpt><trkpt lat="44.3887" lon="6.6667517"><ele>1144.0</ele><time>2026-05-03T12:42:46.275Z</time></trkpt><trkpt lat="44.388795" lon="6.66689"><ele>1144.0</ele><time>2026-05-03T12:42:47.275Z</time></trkpt><trkpt lat="44.3888817" lon="6.6670283"><ele>1144.0</ele><time>2026-05-03T12:42:48.275Z</time></trkpt><trkpt lat="44.38897" lon="6.6671583"><ele>1144.0</ele><time>2026-05-03T12:42:49.275Z</time></trkpt><trkpt lat="44.38906" lon="6.667275"><ele>1144.0</ele><time>2026-05-03T12:42:50.275Z</time></trkpt><trkpt lat="44.38914" lon="6.6673867"><ele>1144.0</ele><time>2026-05-03T12:42:51.275Z</time></trkpt><trkpt lat="44.3892183" lon="6.66748"><ele>1144.0</ele><time>2026-05-03T12:42:52.275Z</time></trkpt><trkpt lat="44.3893017" lon="6.6675583"><ele>1144.0</ele><time>2026-05-03T12:42:53.275Z</time></trkpt><trkpt lat="44.3893783" lon="6.667625"><ele>1144.0</ele><time>2026-05-03T12:42:54.275Z</time></trkpt><trkpt lat="44.3894367" lon="6.6676917"><ele>1144.0</ele><time>2026-05-03T12:42:55.276Z</time></trkpt><trkpt lat="44.3895067" lon="6.6678033"><ele>1144.0</ele><time>2026-05-03T12:42:57.275Z</time></trkpt><trkpt lat="44.3895867" lon="6.6678567"><ele>1144.0</ele><time>2026-05-03T12:42:59.275Z</time></trkpt><trkpt lat="44.389715" lon="6.6678933"><ele>1144.0</ele><time>2026-05-03T12:43:01.275Z</time></trkpt><trkpt lat="44.3897883" lon="6.6679167"><ele>1144.8</ele><time>2026-05-03T12:43:02.275Z</time></trkpt><trkpt lat="44.3898533" lon="6.6679367"><ele>1145.6000000000001</ele><time>2026-05-03T12:43:03.275Z</time></trkpt><trkpt lat="44.3899367" lon="6.667995"><ele>1146.4</ele><time>2026-05-03T12:43:05.275Z</time></trkpt><trkpt lat="44.39001" lon="6.66813"><ele>1147.2</ele><time>2026-05-03T12:43:07.275Z</time></trkpt><trkpt lat="44.3900417" lon="6.6682433"><ele>1148.0</ele><time>2026-05-03T12:43:08.275Z</time></trkpt><trkpt lat="44.3900633" lon="6.6683683"><ele>1148.0</ele><time>2026-05-03T12:43:09.275Z</time></trkpt><trkpt lat="44.3900967" lon="6.6684983"><ele>1148.0</ele><time>2026-05-03T12:43:10.275Z</time></trkpt><trkpt lat="44.39014" lon="6.6686367"><ele>1148.0</ele><time>2026-05-03T12:43:11.275Z</time></trkpt><trkpt lat="44.3901783" lon="6.6687867"><ele>1148.0</ele><time>2026-05-03T12:43:12.275Z</time></trkpt><trkpt lat="44.3902133" lon="6.6689417"><ele>1148.0</ele><time>2026-05-03T12:43:13.275Z</time></trkpt><trkpt lat="44.3902483" lon="6.6691067"><ele>1148.25</ele><time>2026-05-03T12:43:14.275Z</time></trkpt><trkpt lat="44.3902833" lon="6.6692767"><ele>1148.5</ele><time>2026-05-03T12:43:15.275Z</time></trkpt><trkpt lat="44.3903217" lon="6.6694433"><ele>1148.75</ele><time>2026-05-03T12:43:16.275Z</time></trkpt><trkpt lat="44.3903767" lon="6.669605"><ele>1149.0</ele><time>2026-05-03T12:43:17.275Z</time></trkpt><trkpt lat="44.3904567" lon="6.6697567"><ele>1149.5</ele><time>2026-05-03T12:43:18.275Z</time></trkpt><trkpt lat="44.3905633" lon="6.6698917"><ele>1150.0</ele><time>2026-05-03T12:43:19.275Z</time></trkpt><trkpt lat="44.3906833" lon="6.6699983"><ele>1150.5</ele><time>2026-05-03T12:43:20.275Z</time></trkpt><trkpt lat="44.390805" lon="6.6700983"><ele>1151.0</ele><time>2026-05-03T12:43:21.275Z</time></trkpt><trkpt lat="44.3909333" lon="6.6702217"><ele>1151.0</ele><time>2026-05-03T12:43:22.275Z</time></trkpt><trkpt lat="44.3910417" lon="6.6703633"><ele>1151.0</ele><time>2026-05-03T12:43:23.275Z</time></trkpt><trkpt lat="44.3911383" lon="6.6705317"><ele>1151.0</ele><time>2026-05-03T12:43:24.275Z</time></trkpt><trkpt lat="44.3912267" lon="6.6707117"><ele>1151.0</ele><time>2026-05-03T12:43:25.275Z</time></trkpt><trkpt lat="44.3912917" lon="6.6708983"><ele>1151.0</ele><time>2026-05-03T12:43:26.276Z</time></trkpt><trkpt lat="44.3913433" lon="6.6710983"><ele>1151.0</ele><time>2026-05-03T12:43:27.275Z</time></trkpt><trkpt lat="44.3913683" lon="6.6713067"><ele>1153.3333333333335</ele><time>2026-05-03T12:43:28.275Z</time></trkpt><trkpt lat="44.391375" lon="6.6715333"><ele>1155.6666666666667</ele><time>2026-05-03T12:43:29.275Z</time></trkpt><trkpt lat="44.3913733" lon="6.6717733"><ele>1158.0</ele><time>2026-05-03T12:43:30.275Z</time></trkpt><trkpt lat="44.3913783" lon="6.672005"><ele>1158.0</ele><time>2026-05-03T12:43:31.275Z</time></trkpt><trkpt lat="44.3913817" lon="6.672235"><ele>1158.0</ele><time>2026-05-03T12:43:32.276Z</time></trkpt><trkpt lat="44.3913833" lon="6.6724833"><ele>1158.0</ele><time>2026-05-03T12:43:33.275Z</time></trkpt><trkpt lat="44.391385" lon="6.6727417"><ele>1159.3333333333333</ele><time>2026-05-03T12:43:34.275Z</time></trkpt><trkpt lat="44.3913817" lon="6.6730083"><ele>1160.6666666666665</ele><time>2026-05-03T12:43:35.275Z</time></trkpt><trkpt lat="44.391385" lon="6.673275"><ele>1162.0</ele><time>2026-05-03T12:43:36.275Z</time></trkpt><trkpt lat="44.391395" lon="6.673545"><ele>1162.3333333333333</ele><time>2026-05-03T12:43:37.275Z</time></trkpt><trkpt lat="44.3914033" lon="6.6738183"><ele>1162.6666666666667</ele><time>2026-05-03T12:43:38.275Z</time></trkpt><trkpt lat="44.39141" lon="6.6741"><ele>1163.0</ele><time>2026-05-03T12:43:39.275Z</time></trkpt><trkpt lat="44.39141" lon="6.67438"><ele>1162.6666666666667</ele><time>2026-05-03T12:43:40.275Z</time></trkpt><trkpt lat="44.3914167" lon="6.6746483"><ele>1162.3333333333333</ele><time>2026-05-03T12:43:41.275Z</time></trkpt><trkpt lat="44.391425" lon="6.6749117"><ele>1162.0</ele><time>2026-05-03T12:43:42.275Z</time></trkpt><trkpt lat="44.3914283" lon="6.675185"><ele>1162.3333333333333</ele><time>2026-05-03T12:43:43.275Z</time></trkpt><trkpt lat="44.3914317" lon="6.6754533"><ele>1162.6666666666667</ele><time>2026-05-03T12:43:44.275Z</time></trkpt><trkpt lat="44.39144" lon="6.67571"><ele>1163.0</ele><time>2026-05-03T12:43:45.275Z</time></trkpt><trkpt lat="44.3914433" lon="6.6759683"><ele>1162.6666666666667</ele><time>2026-05-03T12:43:46.275Z</time></trkpt><trkpt lat="44.3914517" lon="6.676245"><ele>1162.3333333333333</ele><time>2026-05-03T12:43:47.276Z</time></trkpt><trkpt lat="44.3914583" lon="6.6765067"><ele>1162.0</ele><time>2026-05-03T12:43:48.275Z</time></trkpt><trkpt lat="44.3914667" lon="6.6767733"><ele>1162.3333333333333</ele><time>2026-05-03T12:43:49.275Z</time></trkpt><trkpt lat="44.3914733" lon="6.6770367"><ele>1162.6666666666667</ele><time>2026-05-03T12:43:50.275Z</time></trkpt><trkpt lat="44.3914717" lon="6.677315"><ele>1163.0</ele><time>2026-05-03T12:43:51.275Z</time></trkpt><trkpt lat="44.3914783" lon="6.677585"><ele>1163.3333333333335</ele><time>2026-05-03T12:43:52.275Z</time></trkpt><trkpt lat="44.391485" lon="6.677855"><ele>1163.6666666666667</ele><time>2026-05-03T12:43:53.275Z</time></trkpt><trkpt lat="44.39149" lon="6.67812"><ele>1164.0</ele><time>2026-05-03T12:43:54.275Z</time></trkpt><trkpt lat="44.3914967" lon="6.6783883"><ele>1164.3333333333333</ele><time>2026-05-03T12:43:55.275Z</time></trkpt><trkpt lat="44.391505" lon="6.6786633"><ele>1164.6666666666665</ele><time>2026-05-03T12:43:56.275Z</time></trkpt><trkpt lat="44.3915117" lon="6.6789433"><ele>1165.0</ele><time>2026-05-03T12:43:57.275Z</time></trkpt><trkpt lat="44.3915133" lon="6.6792233"><ele>1166.0</ele><time>2026-05-03T12:43:58.275Z</time></trkpt><trkpt lat="44.3915217" lon="6.67951"><ele>1167.0</ele><time>2026-05-03T12:43:59.275Z</time></trkpt><trkpt lat="44.3915283" lon="6.6797933"><ele>1168.0</ele><time>2026-05-03T12:44:00.275Z</time></trkpt><trkpt lat="44.391535" lon="6.68008"><ele>1167.6666666666665</ele><time>2026-05-03T12:44:01.275Z</time></trkpt><trkpt lat="44.3915383" lon="6.68038"><ele>1167.3333333333333</ele><time>2026-05-03T12:44:02.275Z</time></trkpt><trkpt lat="44.3915467" lon="6.680665"><ele>1167.0</ele><time>2026-05-03T12:44:03.275Z</time></trkpt><trkpt lat="44.3915533" lon="6.6809467"><ele>1166.6666666666667</ele><time>2026-05-03T12:44:04.275Z</time></trkpt><trkpt lat="44.3915583" lon="6.6812233"><ele>1166.3333333333335</ele><time>2026-05-03T12:44:05.275Z</time></trkpt><trkpt lat="44.391565" lon="6.6814983"><ele>1166.0</ele><time>2026-05-03T12:44:06.276Z</time></trkpt><trkpt lat="44.3915717" lon="6.6817633"><ele>1166.0</ele><time>2026-05-03T12:44:07.275Z</time></trkpt><trkpt lat="44.391575" lon="6.6820367"><ele>1166.0</ele><time>2026-05-03T12:44:08.275Z</time></trkpt><trkpt lat="44.3915817" lon="6.6823133"><ele>1166.0</ele><time>2026-05-03T12:44:09.275Z</time></trkpt><trkpt lat="44.3915883" lon="6.6825833"><ele>1166.0</ele><time>2026-05-03T12:44:10.275Z</time></trkpt><trkpt lat="44.3916067" lon="6.68285"><ele>1166.0</ele><time>2026-05-03T12:44:11.275Z</time></trkpt><trkpt lat="44.3916367" lon="6.68313"><ele>1166.0</ele><time>2026-05-03T12:44:12.275Z</time></trkpt><trkpt lat="44.3916883" lon="6.6833983"><ele>1166.0</ele><time>2026-05-03T12:44:13.275Z</time></trkpt><trkpt lat="44.3917517" lon="6.6836583"><ele>1166.0</ele><time>2026-05-03T12:44:14.275Z</time></trkpt><trkpt lat="44.39182" lon="6.683915"><ele>1166.0</ele><time>2026-05-03T12:44:15.275Z</time></trkpt><trkpt lat="44.3918933" lon="6.684175"><ele>1164.6666666666667</ele><time>2026-05-03T12:44:16.275Z</time></trkpt><trkpt lat="44.391965" lon="6.684435"><ele>1163.3333333333333</ele><time>2026-05-03T12:44:17.275Z</time></trkpt><trkpt lat="44.3920383" lon="6.68469"><ele>1162.0</ele><time>2026-05-03T12:44:18.275Z</time></trkpt><trkpt lat="44.39211" lon="6.684955"><ele>1164.6666666666665</ele><time>2026-05-03T12:44:19.275Z</time></trkpt><trkpt lat="44.3921833" lon="6.6852217"><ele>1167.3333333333333</ele><time>2026-05-03T12:44:20.275Z</time></trkpt><trkpt lat="44.392255" lon="6.685475"><ele>1170.0</ele><time>2026-05-03T12:44:21.275Z</time></trkpt><trkpt lat="44.392325" lon="6.6857333"><ele>1170.0</ele><time>2026-05-03T12:44:22.275Z</time></trkpt><trkpt lat="44.392395" lon="6.6859833"><ele>1170.0</ele><time>2026-05-03T12:44:23.275Z</time></trkpt><trkpt lat="44.3924817" lon="6.6862283"><ele>1170.0</ele><time>2026-05-03T12:44:24.275Z</time></trkpt><trkpt lat="44.39259" lon="6.68646"><ele>1169.0</ele><time>2026-05-03T12:44:25.275Z</time></trkpt><trkpt lat="44.3927033" lon="6.686675"><ele>1168.0</ele><time>2026-05-03T12:44:26.275Z</time></trkpt><trkpt lat="44.392825" lon="6.6868917"><ele>1167.0</ele><time>2026-05-03T12:44:27.275Z</time></trkpt><trkpt lat="44.392955" lon="6.687115"><ele>1167.6666666666667</ele><time>2026-05-03T12:44:28.275Z</time></trkpt><trkpt lat="44.3930817" lon="6.687325"><ele>1168.3333333333335</ele><time>2026-05-03T12:44:29.275Z</time></trkpt><trkpt lat="44.3932117" lon="6.68754"><ele>1169.0</ele><time>2026-05-03T12:44:30.275Z</time></trkpt><trkpt lat="44.3933433" lon="6.6877567"><ele>1168.3333333333335</ele><time>2026-05-03T12:44:31.275Z</time></trkpt><trkpt lat="44.3934717" lon="6.68797"><ele>1167.6666666666667</ele><time>2026-05-03T12:44:32.275Z</time></trkpt><trkpt lat="44.3936033" lon="6.6881833"><ele>1167.0</ele><time>2026-05-03T12:44:33.275Z</time></trkpt><trkpt lat="44.3937383" lon="6.6884083"><ele>1167.6666666666667</ele><time>2026-05-03T12:44:34.275Z</time></trkpt><trkpt lat="44.3938667" lon="6.68862"><ele>1168.3333333333335</ele><time>2026-05-03T12:44:35.275Z</time></trkpt><trkpt lat="44.394" lon="6.6888317"><ele>1169.0</ele><time>2026-05-03T12:44:36.275Z</time></trkpt><trkpt lat="44.3941333" lon="6.68904"><ele>1169.0</ele><time>2026-05-03T12:44:37.276Z</time></trkpt><trkpt lat="44.3942633" lon="6.6892483"><ele>1169.0</ele><time>2026-05-03T12:44:38.275Z</time></trkpt><trkpt lat="44.3943933" lon="6.689455"><ele>1169.0</ele><time>2026-05-03T12:44:39.275Z</time></trkpt><trkpt lat="44.3945267" lon="6.68965"><ele>1168.3333333333335</ele><time>2026-05-03T12:44:40.275Z</time></trkpt><trkpt lat="44.3946683" lon="6.68984"><ele>1167.6666666666667</ele><time>2026-05-03T12:44:41.275Z</time></trkpt><trkpt lat="44.39482" lon="6.6900233"><ele>1167.0</ele><time>2026-05-03T12:44:42.275Z</time></trkpt><trkpt lat="44.3949783" lon="6.6902017"><ele>1169.3333333333333</ele><time>2026-05-03T12:44:43.275Z</time></trkpt><trkpt lat="44.3951317" lon="6.6903767"><ele>1171.6666666666665</ele><time>2026-05-03T12:44:44.275Z</time></trkpt><trkpt lat="44.395285" lon="6.6905467"><ele>1174.0</ele><time>2026-05-03T12:44:45.275Z</time></trkpt><trkpt lat="44.39544" lon="6.6907233"><ele>1174.6666666666665</ele><time>2026-05-03T12:44:46.276Z</time></trkpt><trkpt lat="44.3956" lon="6.6908867"><ele>1175.3333333333333</ele><time>2026-05-03T12:44:47.275Z</time></trkpt><trkpt lat="44.3957683" lon="6.6910383"><ele>1176.0</ele><time>2026-05-03T12:44:48.275Z</time></trkpt><trkpt lat="44.39593" lon="6.691195"><ele>1176.0</ele><time>2026-05-03T12:44:49.275Z</time></trkpt><trkpt lat="44.3960867" lon="6.6913483"><ele>1176.0</ele><time>2026-05-03T12:44:50.275Z</time></trkpt><trkpt lat="44.396245" lon="6.6915"><ele>1176.0</ele><time>2026-05-03T12:44:51.275Z</time></trkpt><trkpt lat="44.3964017" lon="6.6916433"><ele>1176.0</ele><time>2026-05-03T12:44:52.275Z</time></trkpt><trkpt lat="44.39656" lon="6.6917867"><ele>1176.0</ele><time>2026-05-03T12:44:53.275Z</time></trkpt><trkpt lat="44.3967233" lon="6.691925"><ele>1176.0</ele><time>2026-05-03T12:44:54.275Z</time></trkpt><trkpt lat="44.3968867" lon="6.6920517"><ele>1176.0</ele><time>2026-05-03T12:44:55.275Z</time></trkpt><trkpt lat="44.39705" lon="6.6921817"><ele>1176.0</ele><time>2026-05-03T12:44:56.275Z</time></trkpt><trkpt lat="44.397215" lon="6.6923217"><ele>1176.0</ele><time>2026-05-03T12:44:57.276Z</time></trkpt><trkpt lat="44.3973833" lon="6.69246"><ele>1176.0</ele><time>2026-05-03T12:44:58.276Z</time></trkpt><trkpt lat="44.3975517" lon="6.6926067"><ele>1176.0</ele><time>2026-05-03T12:44:59.275Z</time></trkpt><trkpt lat="44.39772" lon="6.6927617"><ele>1176.0</ele><time>2026-05-03T12:45:00.275Z</time></trkpt><trkpt lat="44.3978833" lon="6.6929"><ele>1177.6666666666667</ele><time>2026-05-03T12:45:01.275Z</time></trkpt><trkpt lat="44.39805" lon="6.693035"><ele>1179.3333333333335</ele><time>2026-05-03T12:45:02.276Z</time></trkpt><trkpt lat="44.398215" lon="6.6931717"><ele>1181.0</ele><time>2026-05-03T12:45:03.276Z</time></trkpt><trkpt lat="44.3983883" lon="6.693305"><ele>1181.0</ele><time>2026-05-03T12:45:04.275Z</time></trkpt><trkpt lat="44.3985633" lon="6.6934433"><ele>1181.0</ele><time>2026-05-03T12:45:05.275Z</time></trkpt><trkpt lat="44.3987333" lon="6.6935767"><ele>1181.0</ele><time>2026-05-03T12:45:06.275Z</time></trkpt><trkpt lat="44.3989017" lon="6.693715"><ele>1179.6666666666667</ele><time>2026-05-03T12:45:07.275Z</time></trkpt><trkpt lat="44.399065" lon="6.6938533"><ele>1178.3333333333333</ele><time>2026-05-03T12:45:08.275Z</time></trkpt><trkpt lat="44.3992217" lon="6.6940017"><ele>1177.0</ele><time>2026-05-03T12:45:09.275Z</time></trkpt><trkpt lat="44.3993683" lon="6.6941767"><ele>1177.0</ele><time>2026-05-03T12:45:10.275Z</time></trkpt><trkpt lat="44.399505" lon="6.6943833"><ele>1177.0</ele><time>2026-05-03T12:45:11.275Z</time></trkpt><trkpt lat="44.3996117" lon="6.6946233"><ele>1177.0</ele><time>2026-05-03T12:45:12.276Z</time></trkpt><trkpt lat="44.3997083" lon="6.6948617"><ele>1177.0</ele><time>2026-05-03T12:45:13.275Z</time></trkpt><trkpt lat="44.3997967" lon="6.6951133"><ele>1177.0</ele><time>2026-05-03T12:45:14.275Z</time></trkpt><trkpt lat="44.39988" lon="6.6953617"><ele>1177.0</ele><time>2026-05-03T12:45:15.276Z</time></trkpt><trkpt lat="44.399965" lon="6.6956133"><ele>1177.3333333333333</ele><time>2026-05-03T12:45:16.276Z</time></trkpt><trkpt lat="44.400055" lon="6.6958667"><ele>1177.6666666666667</ele><time>2026-05-03T12:45:17.275Z</time></trkpt><trkpt lat="44.4001433" lon="6.6961183"><ele>1178.0</ele><time>2026-05-03T12:45:18.275Z</time></trkpt><trkpt lat="44.400235" lon="6.6963667"><ele>1176.3333333333335</ele><time>2026-05-03T12:45:19.275Z</time></trkpt><trkpt lat="44.4003283" lon="6.696615"><ele>1174.6666666666667</ele><time>2026-05-03T12:45:20.275Z</time></trkpt><trkpt lat="44.40042" lon="6.6968667"><ele>1173.0</ele><time>2026-05-03T12:45:21.276Z</time></trkpt><trkpt lat="44.4005033" lon="6.697125"><ele>1176.6666666666667</ele><time>2026-05-03T12:45:22.275Z</time></trkpt><trkpt lat="44.400595" lon="6.697385"><ele>1180.3333333333335</ele><time>2026-05-03T12:45:23.276Z</time></trkpt><trkpt lat="44.4006833" lon="6.6976267"><ele>1184.0</ele><time>2026-05-03T12:45:24.275Z</time></trkpt><trkpt lat="44.4007733" lon="6.697865"><ele>1184.0</ele><time>2026-05-03T12:45:25.275Z</time></trkpt><trkpt lat="44.4008583" lon="6.6981217"><ele>1184.0</ele><time>2026-05-03T12:45:26.276Z</time></trkpt><trkpt lat="44.4009467" lon="6.698375"><ele>1184.0</ele><time>2026-05-03T12:45:27.275Z</time></trkpt><trkpt lat="44.4010367" lon="6.6986217"><ele>1184.3333333333335</ele><time>2026-05-03T12:45:28.275Z</time></trkpt><trkpt lat="44.4011267" lon="6.69887"><ele>1184.6666666666667</ele><time>2026-05-03T12:45:29.276Z</time></trkpt><trkpt lat="44.401215" lon="6.6991167"><ele>1185.0</ele><time>2026-05-03T12:45:30.275Z</time></trkpt><trkpt lat="44.4013017" lon="6.6993633"><ele>1186.3333333333333</ele><time>2026-05-03T12:45:31.275Z</time></trkpt><trkpt lat="44.4013817" lon="6.69961"><ele>1187.6666666666665</ele><time>2026-05-03T12:45:32.275Z</time></trkpt><trkpt lat="44.4014583" lon="6.6998617"><ele>1189.0</ele><time>2026-05-03T12:45:33.276Z</time></trkpt><trkpt lat="44.4015417" lon="6.7001133"><ele>1188.3333333333333</ele><time>2026-05-03T12:45:34.275Z</time></trkpt><trkpt lat="44.4016333" lon="6.700365"><ele>1187.6666666666667</ele><time>2026-05-03T12:45:35.276Z</time></trkpt><trkpt lat="44.40172" lon="6.7006083"><ele>1187.0</ele><time>2026-05-03T12:45:36.275Z</time></trkpt><trkpt lat="44.40182" lon="6.70086"><ele>1187.0</ele><time>2026-05-03T12:45:37.276Z</time></trkpt><trkpt lat="44.4019383" lon="6.7010783"><ele>1187.0</ele><time>2026-05-03T12:45:38.275Z</time></trkpt><trkpt lat="44.4020783" lon="6.70127"><ele>1187.0</ele><time>2026-05-03T12:45:39.275Z</time></trkpt><trkpt lat="44.402245" lon="6.7014117"><ele>1187.6666666666667</ele><time>2026-05-03T12:45:40.275Z</time></trkpt><trkpt lat="44.4024317" lon="6.70151"><ele>1188.3333333333333</ele><time>2026-05-03T12:45:41.275Z</time></trkpt><trkpt lat="44.4026233" lon="6.7015833"><ele>1189.0</ele><time>2026-05-03T12:45:42.275Z</time></trkpt><trkpt lat="44.4028133" lon="6.7016517"><ele>1188.3333333333333</ele><time>2026-05-03T12:45:43.276Z</time></trkpt><trkpt lat="44.4030033" lon="6.7017083"><ele>1187.6666666666667</ele><time>2026-05-03T12:45:44.275Z</time></trkpt><trkpt lat="44.4032" lon="6.70178"><ele>1187.0</ele><time>2026-05-03T12:45:45.275Z</time></trkpt><trkpt lat="44.4033883" lon="6.70187"><ele>1185.6666666666667</ele><time>2026-05-03T12:45:46.275Z</time></trkpt><trkpt lat="44.4035683" lon="6.7019733"><ele>1184.3333333333333</ele><time>2026-05-03T12:45:47.275Z</time></trkpt><trkpt lat="44.40373" lon="6.7021167"><ele>1183.0</ele><time>2026-05-03T12:45:48.275Z</time></trkpt><trkpt lat="44.4038717" lon="6.702305"><ele>1183.0</ele><time>2026-05-03T12:45:49.275Z</time></trkpt><trkpt lat="44.4039817" lon="6.7025333"><ele>1183.0</ele><time>2026-05-03T12:45:50.275Z</time></trkpt><trkpt lat="44.4040667" lon="6.7027817"><ele>1183.0</ele><time>2026-05-03T12:45:51.275Z</time></trkpt><trkpt lat="44.4041333" lon="6.7030417"><ele>1183.0</ele><time>2026-05-03T12:45:52.275Z</time></trkpt><trkpt lat="44.4041967" lon="6.703305"><ele>1183.0</ele><time>2026-05-03T12:45:53.275Z</time></trkpt><trkpt lat="44.40426" lon="6.7035533"><ele>1183.0</ele><time>2026-05-03T12:45:54.275Z</time></trkpt><trkpt lat="44.4043217" lon="6.703815"><ele>1183.0</ele><time>2026-05-03T12:45:55.275Z</time></trkpt><trkpt lat="44.4043883" lon="6.70407"><ele>1183.0</ele><time>2026-05-03T12:45:56.275Z</time></trkpt><trkpt lat="44.4044583" lon="6.7043283"><ele>1183.0</ele><time>2026-05-03T12:45:57.275Z</time></trkpt><trkpt lat="44.4045267" lon="6.7045867"><ele>1182.3333333333333</ele><time>2026-05-03T12:45:58.275Z</time></trkpt><trkpt lat="44.4045883" lon="6.7048583"><ele>1181.6666666666667</ele><time>2026-05-03T12:45:59.275Z</time></trkpt><trkpt lat="44.404655" lon="6.7051183"><ele>1181.0</ele><time>2026-05-03T12:46:00.275Z</time></trkpt><trkpt lat="44.40472" lon="6.7053783"><ele>1180.6666666666667</ele><time>2026-05-03T12:46:01.275Z</time></trkpt><trkpt lat="44.4047783" lon="6.7056417"><ele>1180.3333333333333</ele><time>2026-05-03T12:46:02.275Z</time></trkpt><trkpt lat="44.4048183" lon="6.7059033"><ele>1180.0</ele><time>2026-05-03T12:46:03.276Z</time></trkpt><trkpt lat="44.4048317" lon="6.7061733"><ele>1180.0</ele><time>2026-05-03T12:46:04.275Z</time></trkpt><trkpt lat="44.404835" lon="6.7064417"><ele>1180.0</ele><time>2026-05-03T12:46:05.275Z</time></trkpt><trkpt lat="44.404835" lon="6.70672"><ele>1180.0</ele><time>2026-05-03T12:46:06.275Z</time></trkpt><trkpt lat="44.4048317" lon="6.7069983"><ele>1181.0</ele><time>2026-05-03T12:46:07.275Z</time></trkpt><trkpt lat="44.4048383" lon="6.7072817"><ele>1182.0</ele><time>2026-05-03T12:46:08.275Z</time></trkpt><trkpt lat="44.4048317" lon="6.7075633"><ele>1183.0</ele><time>2026-05-03T12:46:09.275Z</time></trkpt><trkpt lat="44.4048333" lon="6.7078433"><ele>1183.6666666666665</ele><time>2026-05-03T12:46:10.275Z</time></trkpt><trkpt lat="44.4048317" lon="6.7081233"><ele>1184.3333333333333</ele><time>2026-05-03T12:46:11.275Z</time></trkpt><trkpt lat="44.4048333" lon="6.7083933"><ele>1185.0</ele><time>2026-05-03T12:46:12.275Z</time></trkpt><trkpt lat="44.4048367" lon="6.7086683"><ele>1186.3333333333333</ele><time>2026-05-03T12:46:13.275Z</time></trkpt><trkpt lat="44.4048333" lon="6.7089533"><ele>1187.6666666666665</ele><time>2026-05-03T12:46:14.275Z</time></trkpt><trkpt lat="44.4048367" lon="6.7092233"><ele>1189.0</ele><time>2026-05-03T12:46:15.275Z</time></trkpt><trkpt lat="44.4048283" lon="6.7094833"><ele>1189.3333333333333</ele><time>2026-05-03T12:46:16.275Z</time></trkpt><trkpt lat="44.40483" lon="6.7097683"><ele>1189.6666666666667</ele><time>2026-05-03T12:46:17.275Z</time></trkpt><trkpt lat="44.404835" lon="6.7100283"><ele>1190.0</ele><time>2026-05-03T12:46:18.275Z</time></trkpt><trkpt lat="44.4048333" lon="6.7102883"><ele>1190.0</ele><time>2026-05-03T12:46:19.275Z</time></trkpt><trkpt lat="44.404835" lon="6.7105617"><ele>1190.0</ele><time>2026-05-03T12:46:20.275Z</time></trkpt><trkpt lat="44.4048367" lon="6.7108367"><ele>1190.0</ele><time>2026-05-03T12:46:21.275Z</time></trkpt><trkpt lat="44.404845" lon="6.7110933"><ele>1191.0</ele><time>2026-05-03T12:46:22.275Z</time></trkpt><trkpt lat="44.404855" lon="6.7113583"><ele>1192.0</ele><time>2026-05-03T12:46:23.275Z</time></trkpt><trkpt lat="44.4048767" lon="6.7116233"><ele>1193.0</ele><time>2026-05-03T12:46:24.275Z</time></trkpt><trkpt lat="44.4049067" lon="6.7118833"><ele>1193.3333333333335</ele><time>2026-05-03T12:46:25.275Z</time></trkpt><trkpt lat="44.4049483" lon="6.7121517"><ele>1193.6666666666667</ele><time>2026-05-03T12:46:26.275Z</time></trkpt><trkpt lat="44.4049883" lon="6.7124133"><ele>1194.0</ele><time>2026-05-03T12:46:27.275Z</time></trkpt><trkpt lat="44.4050317" lon="6.712675"><ele>1193.3333333333333</ele><time>2026-05-03T12:46:28.275Z</time></trkpt><trkpt lat="44.4050683" lon="6.71294"><ele>1192.6666666666665</ele><time>2026-05-03T12:46:29.275Z</time></trkpt><trkpt lat="44.4051083" lon="6.7132117"><ele>1192.0</ele><time>2026-05-03T12:46:30.275Z</time></trkpt><trkpt lat="44.4051517" lon="6.71348"><ele>1192.0</ele><time>2026-05-03T12:46:31.275Z</time></trkpt><trkpt lat="44.4051933" lon="6.7137517"><ele>1192.0</ele><time>2026-05-03T12:46:32.275Z</time></trkpt><trkpt lat="44.4052333" lon="6.71402"><ele>1192.0</ele><time>2026-05-03T12:46:33.276Z</time></trkpt><trkpt lat="44.4052767" lon="6.7142867"><ele>1192.0</ele><time>2026-05-03T12:46:34.275Z</time></trkpt><trkpt lat="44.40532" lon="6.7145633"><ele>1192.0</ele><time>2026-05-03T12:46:35.275Z</time></trkpt><trkpt lat="44.4053633" lon="6.7148367"><ele>1192.0</ele><time>2026-05-03T12:46:36.276Z</time></trkpt><trkpt lat="44.4054033" lon="6.7151133"><ele>1192.0</ele><time>2026-05-03T12:46:37.275Z</time></trkpt><trkpt lat="44.4054467" lon="6.7153867"><ele>1192.0</ele><time>2026-05-03T12:46:38.275Z</time></trkpt><trkpt lat="44.4054917" lon="6.7156567"><ele>1192.0</ele><time>2026-05-03T12:46:39.275Z</time></trkpt><trkpt lat="44.4055367" lon="6.7159333"><ele>1196.3333333333333</ele><time>2026-05-03T12:46:40.275Z</time></trkpt><trkpt lat="44.405575" lon="6.716205"><ele>1200.6666666666667</ele><time>2026-05-03T12:46:41.275Z</time></trkpt><trkpt lat="44.4056167" lon="6.7164717"><ele>1205.0</ele><time>2026-05-03T12:46:42.275Z</time></trkpt><trkpt lat="44.4056533" lon="6.7167383"><ele>1205.3333333333335</ele><time>2026-05-03T12:46:43.275Z</time></trkpt><trkpt lat="44.4056933" lon="6.71701"><ele>1205.6666666666667</ele><time>2026-05-03T12:46:44.275Z</time></trkpt><trkpt lat="44.4057283" lon="6.7172783"><ele>1206.0</ele><time>2026-05-03T12:46:45.275Z</time></trkpt><trkpt lat="44.4057733" lon="6.7175433"><ele>1204.6666666666667</ele><time>2026-05-03T12:46:46.275Z</time></trkpt><trkpt lat="44.4058267" lon="6.7178067"><ele>1203.3333333333335</ele><time>2026-05-03T12:46:47.275Z</time></trkpt><trkpt lat="44.40589" lon="6.7180617"><ele>1202.0</ele><time>2026-05-03T12:46:48.275Z</time></trkpt><trkpt lat="44.4059633" lon="6.7183167"><ele>1202.3333333333335</ele><time>2026-05-03T12:46:49.275Z</time></trkpt><trkpt lat="44.4060383" lon="6.7185733"><ele>1202.6666666666667</ele><time>2026-05-03T12:46:50.275Z</time></trkpt><trkpt lat="44.4061167" lon="6.718825"><ele>1203.0</ele><time>2026-05-03T12:46:51.276Z</time></trkpt><trkpt lat="44.4061917" lon="6.7190783"><ele>1203.0</ele><time>2026-05-03T12:46:52.276Z</time></trkpt><trkpt lat="44.4062683" lon="6.71933"><ele>1203.0</ele><time>2026-05-03T12:46:53.275Z</time></trkpt><trkpt lat="44.4063467" lon="6.7195833"><ele>1203.0</ele><time>2026-05-03T12:46:54.275Z</time></trkpt><trkpt lat="44.4064217" lon="6.719845"><ele>1205.6666666666667</ele><time>2026-05-03T12:46:55.275Z</time></trkpt><trkpt lat="44.406495" lon="6.720105"><ele>1208.3333333333335</ele><time>2026-05-03T12:46:56.275Z</time></trkpt><trkpt lat="44.4065683" lon="6.72036"><ele>1211.0</ele><time>2026-05-03T12:46:57.275Z</time></trkpt><trkpt lat="44.40665" lon="6.72062"><ele>1211.0</ele><time>2026-05-03T12:46:58.275Z</time></trkpt><trkpt lat="44.406725" lon="6.7208783"><ele>1211.0</ele><time>2026-05-03T12:46:59.275Z</time></trkpt><trkpt lat="44.4068033" lon="6.7211317"><ele>1211.0</ele><time>2026-05-03T12:47:00.275Z</time></trkpt><trkpt lat="44.4068817" lon="6.721385"><ele>1210.6666666666667</ele><time>2026-05-03T12:47:01.276Z</time></trkpt><trkpt lat="44.40696" lon="6.7216333"><ele>1210.3333333333333</ele><time>2026-05-03T12:47:02.275Z</time></trkpt><trkpt lat="44.40704" lon="6.7218817"><ele>1210.0</ele><time>2026-05-03T12:47:03.276Z</time></trkpt><trkpt lat="44.4071283" lon="6.7221267"><ele>1210.0</ele><time>2026-05-03T12:47:04.275Z</time></trkpt><trkpt lat="44.4072233" lon="6.7223717"><ele>1210.0</ele><time>2026-05-03T12:47:05.275Z</time></trkpt><trkpt lat="44.4073283" lon="6.7226117"><ele>1210.0</ele><time>2026-05-03T12:47:06.275Z</time></trkpt><trkpt lat="44.4074433" lon="6.7228567"><ele>1210.0</ele><time>2026-05-03T12:47:07.275Z</time></trkpt><trkpt lat="44.4075567" lon="6.7231"><ele>1210.0</ele><time>2026-05-03T12:47:08.275Z</time></trkpt><trkpt lat="44.4076667" lon="6.723335"><ele>1210.0</ele><time>2026-05-03T12:47:09.275Z</time></trkpt><trkpt lat="44.4077783" lon="6.7235817"><ele>1209.3333333333333</ele><time>2026-05-03T12:47:10.275Z</time></trkpt><trkpt lat="44.407895" lon="6.7238233"><ele>1208.6666666666667</ele><time>2026-05-03T12:47:11.275Z</time></trkpt><trkpt lat="44.4080167" lon="6.72406"><ele>1208.0</ele><time>2026-05-03T12:47:12.275Z</time></trkpt><trkpt lat="44.4081283" lon="6.7243"><ele>1209.3333333333335</ele><time>2026-05-03T12:47:13.275Z</time></trkpt><trkpt lat="44.408235" lon="6.7245433"><ele>1210.6666666666667</ele><time>2026-05-03T12:47:14.275Z</time></trkpt><trkpt lat="44.408345" lon="6.72478"><ele>1212.0</ele><time>2026-05-03T12:47:15.275Z</time></trkpt><trkpt lat="44.4084467" lon="6.725015"><ele>1211.0</ele><time>2026-05-03T12:47:16.275Z</time></trkpt><trkpt lat="44.40855" lon="6.7252467"><ele>1210.0</ele><time>2026-05-03T12:47:17.276Z</time></trkpt><trkpt lat="44.4086617" lon="6.7254867"><ele>1209.0</ele><time>2026-05-03T12:47:18.275Z</time></trkpt><trkpt lat="44.4087717" lon="6.7257117"><ele>1210.0</ele><time>2026-05-03T12:47:19.275Z</time></trkpt><trkpt lat="44.40888" lon="6.725935"><ele>1211.0</ele><time>2026-05-03T12:47:20.275Z</time></trkpt><trkpt lat="44.408995" lon="6.7261417"><ele>1212.0</ele><time>2026-05-03T12:47:21.276Z</time></trkpt><trkpt lat="44.4091083" lon="6.7263383"><ele>1212.0</ele><time>2026-05-03T12:47:22.275Z</time></trkpt><trkpt lat="44.4092167" lon="6.7265417"><ele>1212.0</ele><time>2026-05-03T12:47:23.275Z</time></trkpt><trkpt lat="44.4093217" lon="6.7267333"><ele>1212.0</ele><time>2026-05-03T12:47:24.275Z</time></trkpt><trkpt lat="44.4094317" lon="6.72691"><ele>1212.0</ele><time>2026-05-03T12:47:25.275Z</time></trkpt><trkpt lat="44.4095483" lon="6.7270767"><ele>1212.0</ele><time>2026-05-03T12:47:26.275Z</time></trkpt><trkpt lat="44.4096633" lon="6.7272467"><ele>1212.0</ele><time>2026-05-03T12:47:27.275Z</time></trkpt><trkpt lat="44.4097833" lon="6.7274133"><ele>1212.0</ele><time>2026-05-03T12:47:28.275Z</time></trkpt><trkpt lat="44.409905" lon="6.727565"><ele>1212.0</ele><time>2026-05-03T12:47:29.276Z</time></trkpt><trkpt lat="44.41002" lon="6.7277133"><ele>1212.0</ele><time>2026-05-03T12:47:30.275Z</time></trkpt><trkpt lat="44.4101417" lon="6.7278417"><ele>1212.0</ele><time>2026-05-03T12:47:31.275Z</time></trkpt><trkpt lat="44.41026" lon="6.72796"><ele>1212.0</ele><time>2026-05-03T12:47:32.275Z</time></trkpt><trkpt lat="44.410375" lon="6.7280683"><ele>1212.0</ele><time>2026-05-03T12:47:33.275Z</time></trkpt><trkpt lat="44.410495" lon="6.728175"><ele>1212.0</ele><time>2026-05-03T12:47:34.276Z</time></trkpt><trkpt lat="44.4106033" lon="6.7282783"><ele>1211.5</ele><time>2026-05-03T12:47:35.275Z</time></trkpt><trkpt lat="44.4107117" lon="6.7283667"><ele>1211.0</ele><time>2026-05-03T12:47:36.275Z</time></trkpt><trkpt lat="44.4108217" lon="6.72845"><ele>1210.5</ele><time>2026-05-03T12:47:37.275Z</time></trkpt><trkpt lat="44.4109333" lon="6.72853"><ele>1210.0</ele><time>2026-05-03T12:47:38.275Z</time></trkpt><trkpt lat="44.411055" lon="6.7285967"><ele>1210.0</ele><time>2026-05-03T12:47:39.275Z</time></trkpt><trkpt lat="44.4111833" lon="6.7286483"><ele>1210.0</ele><time>2026-05-03T12:47:40.276Z</time></trkpt><trkpt lat="44.411315" lon="6.7286967"><ele>1210.0</ele><time>2026-05-03T12:47:41.276Z</time></trkpt><trkpt lat="44.4114417" lon="6.7287433"><ele>1210.0</ele><time>2026-05-03T12:47:42.275Z</time></trkpt><trkpt lat="44.411575" lon="6.728785"><ele>1210.4</ele><time>2026-05-03T12:47:43.275Z</time></trkpt><trkpt lat="44.4116983" lon="6.72881"><ele>1210.8</ele><time>2026-05-03T12:47:44.276Z</time></trkpt><trkpt lat="44.4118117" lon="6.7288417"><ele>1211.2</ele><time>2026-05-03T12:47:45.275Z</time></trkpt><trkpt lat="44.411915" lon="6.72887"><ele>1211.6</ele><time>2026-05-03T12:47:46.275Z</time></trkpt><trkpt lat="44.41201" lon="6.7288933"><ele>1212.0</ele><time>2026-05-03T12:47:47.275Z</time></trkpt><trkpt lat="44.41211" lon="6.7289133"><ele>1212.4</ele><time>2026-05-03T12:47:48.275Z</time></trkpt><trkpt lat="44.412205" lon="6.72894"><ele>1212.8000000000002</ele><time>2026-05-03T12:47:49.275Z</time></trkpt><trkpt lat="44.4122983" lon="6.7289633"><ele>1213.2</ele><time>2026-05-03T12:47:50.275Z</time></trkpt><trkpt lat="44.412395" lon="6.72899"><ele>1213.6000000000001</ele><time>2026-05-03T12:47:51.276Z</time></trkpt><trkpt lat="44.412485" lon="6.7290217"><ele>1214.0</ele><time>2026-05-03T12:47:52.275Z</time></trkpt><trkpt lat="44.4125717" lon="6.7290417"><ele>1214.0</ele><time>2026-05-03T12:47:53.275Z</time></trkpt><trkpt lat="44.412655" lon="6.7290617"><ele>1214.0</ele><time>2026-05-03T12:47:54.275Z</time></trkpt><trkpt lat="44.41273" lon="6.7290783"><ele>1214.0</ele><time>2026-05-03T12:47:55.275Z</time></trkpt><trkpt lat="44.4128133" lon="6.7290817"><ele>1214.0</ele><time>2026-05-03T12:47:56.275Z</time></trkpt><trkpt lat="44.4129" lon="6.7290683"><ele>1214.0</ele><time>2026-05-03T12:47:57.275Z</time></trkpt><trkpt lat="44.4129967" lon="6.7290633"><ele>1214.0</ele><time>2026-05-03T12:47:58.275Z</time></trkpt><trkpt lat="44.4130983" lon="6.7290367"><ele>1214.2</ele><time>2026-05-03T12:47:59.275Z</time></trkpt><trkpt lat="44.4132017" lon="6.72901"><ele>1214.4</ele><time>2026-05-03T12:48:00.276Z</time></trkpt><trkpt lat="44.4133033" lon="6.728975"><ele>1214.6</ele><time>2026-05-03T12:48:01.275Z</time></trkpt><trkpt lat="44.4134083" lon="6.728935"><ele>1214.8</ele><time>2026-05-03T12:48:02.275Z</time></trkpt><trkpt lat="44.413505" lon="6.728895"><ele>1215.0</ele><time>2026-05-03T12:48:03.275Z</time></trkpt><trkpt lat="44.4136" lon="6.7288567"><ele>1215.0</ele><time>2026-05-03T12:48:04.275Z</time></trkpt><trkpt lat="44.413705" lon="6.728805"><ele>1215.0</ele><time>2026-05-03T12:48:05.275Z</time></trkpt><trkpt lat="44.41381" lon="6.7287617"><ele>1215.0</ele><time>2026-05-03T12:48:06.275Z</time></trkpt><trkpt lat="44.4139217" lon="6.7287167"><ele>1215.0</ele><time>2026-05-03T12:48:07.275Z</time></trkpt><trkpt lat="44.4140317" lon="6.72866"><ele>1215.0</ele><time>2026-05-03T12:48:08.275Z</time></trkpt><trkpt lat="44.4141367" lon="6.728625"><ele>1215.0</ele><time>2026-05-03T12:48:09.275Z</time></trkpt><trkpt lat="44.4142483" lon="6.7285833"><ele>1215.0</ele><time>2026-05-03T12:48:10.276Z</time></trkpt><trkpt lat="44.4143583" lon="6.72853"><ele>1215.0</ele><time>2026-05-03T12:48:11.275Z</time></trkpt><trkpt lat="44.4144667" lon="6.7284783"><ele>1215.2</ele><time>2026-05-03T12:48:12.275Z</time></trkpt><trkpt lat="44.414565" lon="6.7284317"><ele>1215.4</ele><time>2026-05-03T12:48:13.276Z</time></trkpt><trkpt lat="44.414675" lon="6.7283833"><ele>1215.6</ele><time>2026-05-03T12:48:14.275Z</time></trkpt><trkpt lat="44.41478" lon="6.728335"><ele>1215.8</ele><time>2026-05-03T12:48:15.275Z</time></trkpt><trkpt lat="44.4148767" lon="6.728295"><ele>1216.0</ele><time>2026-05-03T12:48:16.276Z</time></trkpt><trkpt lat="44.4149883" lon="6.72826"><ele>1216.0</ele><time>2026-05-03T12:48:17.275Z</time></trkpt><trkpt lat="44.4151067" lon="6.7282367"><ele>1216.0</ele><time>2026-05-03T12:48:18.275Z</time></trkpt><trkpt lat="44.4152133" lon="6.7282117"><ele>1216.0</ele><time>2026-05-03T12:48:19.275Z</time></trkpt><trkpt lat="44.4153167" lon="6.7282067"><ele>1216.0</ele><time>2026-05-03T12:48:20.275Z</time></trkpt><trkpt lat="44.4154283" lon="6.7282117"><ele>1216.0</ele><time>2026-05-03T12:48:21.275Z</time></trkpt><trkpt lat="44.41554" lon="6.7282317"><ele>1216.0</ele><time>2026-05-03T12:48:22.275Z</time></trkpt><trkpt lat="44.415655" lon="6.728265"><ele>1216.0</ele><time>2026-05-03T12:48:23.276Z</time></trkpt><trkpt lat="44.4157683" lon="6.728295"><ele>1216.0</ele><time>2026-05-03T12:48:24.276Z</time></trkpt><trkpt lat="44.4158733" lon="6.7283133"><ele>1216.0</ele><time>2026-05-03T12:48:25.275Z</time></trkpt><trkpt lat="44.41598" lon="6.72834"><ele>1216.0</ele><time>2026-05-03T12:48:26.275Z</time></trkpt><trkpt lat="44.4160783" lon="6.72838"><ele>1216.0</ele><time>2026-05-03T12:48:27.275Z</time></trkpt><trkpt lat="44.4161783" lon="6.7284233"><ele>1216.0</ele><time>2026-05-03T12:48:28.275Z</time></trkpt><trkpt lat="44.4162783" lon="6.7284667"><ele>1216.0</ele><time>2026-05-03T12:48:29.275Z</time></trkpt><trkpt lat="44.41637" lon="6.7285267"><ele>1216.0</ele><time>2026-05-03T12:48:30.275Z</time></trkpt><trkpt lat="44.4164667" lon="6.7286"><ele>1216.0</ele><time>2026-05-03T12:48:31.275Z</time></trkpt><trkpt lat="44.4165683" lon="6.72868"><ele>1215.6</ele><time>2026-05-03T12:48:32.275Z</time></trkpt><trkpt lat="44.4166733" lon="6.7287583"><ele>1215.1999999999998</ele><time>2026-05-03T12:48:33.275Z</time></trkpt><trkpt lat="44.4167583" lon="6.7288567"><ele>1214.8000000000002</ele><time>2026-05-03T12:48:34.275Z</time></trkpt><trkpt lat="44.41683" lon="6.7289633"><ele>1214.4</ele><time>2026-05-03T12:48:35.276Z</time></trkpt><trkpt lat="44.416905" lon="6.7290733"><ele>1214.0</ele><time>2026-05-03T12:48:36.275Z</time></trkpt><trkpt lat="44.416985" lon="6.7291867"><ele>1214.0</ele><time>2026-05-03T12:48:37.275Z</time></trkpt><trkpt lat="44.4170683" lon="6.72931"><ele>1214.0</ele><time>2026-05-03T12:48:38.275Z</time></trkpt><trkpt lat="44.4171483" lon="6.7294283"><ele>1214.0</ele><time>2026-05-03T12:48:39.275Z</time></trkpt><trkpt lat="44.417215" lon="6.72953"><ele>1214.0</ele><time>2026-05-03T12:48:40.275Z</time></trkpt><trkpt lat="44.41728" lon="6.72961"><ele>1214.0</ele><time>2026-05-03T12:48:41.275Z</time></trkpt><trkpt lat="44.41733" lon="6.72967"><ele>1213.8</ele><time>2026-05-03T12:48:42.275Z</time></trkpt><trkpt lat="44.417385" lon="6.7297617"><ele>1213.6000000000001</ele><time>2026-05-03T12:48:44.275Z</time></trkpt><trkpt lat="44.4174733" lon="6.7299033"><ele>1213.4</ele><time>2026-05-03T12:48:46.275Z</time></trkpt><trkpt lat="44.4175383" lon="6.7299967"><ele>1213.2</ele><time>2026-05-03T12:48:47.275Z</time></trkpt><trkpt lat="44.417615" lon="6.7301083"><ele>1213.0</ele><time>2026-05-03T12:48:48.276Z</time></trkpt><trkpt lat="44.4177033" lon="6.73023"><ele>1213.0</ele><time>2026-05-03T12:48:49.275Z</time></trkpt><trkpt lat="44.4177967" lon="6.730355"><ele>1213.0</ele><time>2026-05-03T12:48:50.275Z</time></trkpt><trkpt lat="44.417895" lon="6.730485"><ele>1213.0</ele><time>2026-05-03T12:48:51.275Z</time></trkpt><trkpt lat="44.4179933" lon="6.73062"><ele>1213.0</ele><time>2026-05-03T12:48:52.275Z</time></trkpt><trkpt lat="44.4180833" lon="6.7307617"><ele>1212.75</ele><time>2026-05-03T12:48:53.275Z</time></trkpt><trkpt lat="44.41817" lon="6.7309183"><ele>1212.5</ele><time>2026-05-03T12:48:54.275Z</time></trkpt><trkpt lat="44.4182533" lon="6.73107"><ele>1212.25</ele><time>2026-05-03T12:48:55.275Z</time></trkpt><trkpt lat="44.418335" lon="6.73123"><ele>1212.0</ele><time>2026-05-03T12:48:56.276Z</time></trkpt><trkpt lat="44.41839" lon="6.7314133"><ele>1212.0</ele><time>2026-05-03T12:48:57.275Z</time></trkpt><trkpt lat="44.418435" lon="6.731595"><ele>1212.0</ele><time>2026-05-03T12:48:58.275Z</time></trkpt><trkpt lat="44.418485" lon="6.7317767"><ele>1212.0</ele><time>2026-05-03T12:48:59.275Z</time></trkpt><trkpt lat="44.4185283" lon="6.7319583"><ele>1212.0</ele><time>2026-05-03T12:49:00.275Z</time></trkpt><trkpt lat="44.4185583" lon="6.7321517"><ele>1212.75</ele><time>2026-05-03T12:49:01.275Z</time></trkpt><trkpt lat="44.4185883" lon="6.73232"><ele>1213.5</ele><time>2026-05-03T12:49:02.275Z</time></trkpt><trkpt lat="44.4186167" lon="6.73247"><ele>1214.25</ele><time>2026-05-03T12:49:03.275Z</time></trkpt><trkpt lat="44.418645" lon="6.7326167"><ele>1215.0</ele><time>2026-05-03T12:49:04.275Z</time></trkpt><trkpt lat="44.418675" lon="6.7327667"><ele>1215.6</ele><time>2026-05-03T12:49:05.276Z</time></trkpt><trkpt lat="44.4186983" lon="6.7329"><ele>1216.2</ele><time>2026-05-03T12:49:06.275Z</time></trkpt><trkpt lat="44.418735" lon="6.7330367"><ele>1216.8</ele><time>2026-05-03T12:49:07.275Z</time></trkpt><trkpt lat="44.4187933" lon="6.73315"><ele>1217.4</ele><time>2026-05-03T12:49:08.275Z</time></trkpt><trkpt lat="44.418875" lon="6.733245"><ele>1218.0</ele><time>2026-05-03T12:49:09.275Z</time></trkpt><trkpt lat="44.4189583" lon="6.7333217"><ele>1218.2</ele><time>2026-05-03T12:49:10.275Z</time></trkpt><trkpt lat="44.41905" lon="6.7333933"><ele>1218.4</ele><time>2026-05-03T12:49:11.275Z</time></trkpt><trkpt lat="44.4191383" lon="6.7334683"><ele>1218.6000000000001</ele><time>2026-05-03T12:49:12.275Z</time></trkpt><trkpt lat="44.419235" lon="6.733555"><ele>1218.8</ele><time>2026-05-03T12:49:13.275Z</time></trkpt><trkpt lat="44.4193167" lon="6.7336383"><ele>1219.0</ele><time>2026-05-03T12:49:14.275Z</time></trkpt><trkpt lat="44.4193983" lon="6.7337483"><ele>1219.6000000000001</ele><time>2026-05-03T12:49:15.276Z</time></trkpt><trkpt lat="44.419465" lon="6.7338783"><ele>1220.2</ele><time>2026-05-03T12:49:16.275Z</time></trkpt><trkpt lat="44.4195267" lon="6.7340083"><ele>1220.8000000000002</ele><time>2026-05-03T12:49:17.275Z</time></trkpt><trkpt lat="44.4195833" lon="6.7341317"><ele>1221.4</ele><time>2026-05-03T12:49:18.275Z</time></trkpt><trkpt lat="44.4196283" lon="6.734255"><ele>1222.0</ele><time>2026-05-03T12:49:19.275Z</time></trkpt><trkpt lat="44.4196883" lon="6.7343667"><ele>1221.6</ele><time>2026-05-03T12:49:20.275Z</time></trkpt><trkpt lat="44.4197383" lon="6.7344883"><ele>1221.2</ele><time>2026-05-03T12:49:21.275Z</time></trkpt><trkpt lat="44.419785" lon="6.7346083"><ele>1220.8</ele><time>2026-05-03T12:49:22.275Z</time></trkpt><trkpt lat="44.4198317" lon="6.7347217"><ele>1220.4</ele><time>2026-05-03T12:49:23.275Z</time></trkpt><trkpt lat="44.4198717" lon="6.73483"><ele>1220.0</ele><time>2026-05-03T12:49:24.275Z</time></trkpt><trkpt lat="44.4199117" lon="6.7349333"><ele>1220.0</ele><time>2026-05-03T12:49:25.275Z</time></trkpt><trkpt lat="44.4199517" lon="6.735045"><ele>1220.0</ele><time>2026-05-03T12:49:26.275Z</time></trkpt><trkpt lat="44.4199883" lon="6.735155"><ele>1220.0</ele><time>2026-05-03T12:49:27.275Z</time></trkpt><trkpt lat="44.42002" lon="6.7352567"><ele>1220.0</ele><time>2026-05-03T12:49:28.275Z</time></trkpt><trkpt lat="44.4200517" lon="6.7353617"><ele>1220.0</ele><time>2026-05-03T12:49:29.275Z</time></trkpt><trkpt lat="44.4200817" lon="6.7354717"><ele>1220.0</ele><time>2026-05-03T12:49:30.275Z</time></trkpt><trkpt lat="44.4201017" lon="6.73558"><ele>1220.0</ele><time>2026-05-03T12:49:31.275Z</time></trkpt><trkpt lat="44.4201133" lon="6.7356933"><ele>1220.0</ele><time>2026-05-03T12:49:32.275Z</time></trkpt><trkpt lat="44.420115" lon="6.7358"><ele>1220.0</ele><time>2026-05-03T12:49:33.275Z</time></trkpt><trkpt lat="44.4201117" lon="6.7358933"><ele>1220.0</ele><time>2026-05-03T12:49:34.275Z</time></trkpt><trkpt lat="44.4201133" lon="6.7359933"><ele>1220.0</ele><time>2026-05-03T12:49:35.275Z</time></trkpt><trkpt lat="44.4201267" lon="6.736085"><ele>1220.0</ele><time>2026-05-03T12:49:36.276Z</time></trkpt><trkpt lat="44.4201517" lon="6.7361783"><ele>1220.0</ele><time>2026-05-03T12:49:37.275Z</time></trkpt><trkpt lat="44.42019" lon="6.7362683"><ele>1220.0</ele><time>2026-05-03T12:49:38.275Z</time></trkpt><trkpt lat="44.4202433" lon="6.7363467"><ele>1220.0</ele><time>2026-05-03T12:49:39.275Z</time></trkpt><trkpt lat="44.4202983" lon="6.73641"><ele>1220.0</ele><time>2026-05-03T12:49:40.275Z</time></trkpt><trkpt lat="44.4203517" lon="6.7364583"><ele>1220.0</ele><time>2026-05-03T12:49:41.275Z</time></trkpt><trkpt lat="44.42041" lon="6.73651"><ele>1220.0</ele><time>2026-05-03T12:49:42.275Z</time></trkpt><trkpt lat="44.4204817" lon="6.7365733"><ele>1220.0</ele><time>2026-05-03T12:49:43.275Z</time></trkpt><trkpt lat="44.420565" lon="6.7366317"><ele>1219.75</ele><time>2026-05-03T12:49:44.275Z</time></trkpt><trkpt lat="44.4206667" lon="6.7366933"><ele>1219.5</ele><time>2026-05-03T12:49:45.275Z</time></trkpt><trkpt lat="44.4207833" lon="6.7367467"><ele>1219.25</ele><time>2026-05-03T12:49:46.275Z</time></trkpt><trkpt lat="44.420905" lon="6.7368117"><ele>1219.0</ele><time>2026-05-03T12:49:47.275Z</time></trkpt><trkpt lat="44.4210417" lon="6.73687"><ele>1219.25</ele><time>2026-05-03T12:49:48.276Z</time></trkpt><trkpt lat="44.4211783" lon="6.73692"><ele>1219.5</ele><time>2026-05-03T12:49:49.275Z</time></trkpt><trkpt lat="44.42132" lon="6.7369817"><ele>1219.75</ele><time>2026-05-03T12:49:50.275Z</time></trkpt><trkpt lat="44.4214617" lon="6.737035"><ele>1220.0</ele><time>2026-05-03T12:49:51.275Z</time></trkpt><trkpt lat="44.4216033" lon="6.737085"><ele>1220.3333333333335</ele><time>2026-05-03T12:49:52.275Z</time></trkpt><trkpt lat="44.4217467" lon="6.737125"><ele>1220.6666666666667</ele><time>2026-05-03T12:49:53.276Z</time></trkpt><trkpt lat="44.4218983" lon="6.7371567"><ele>1221.0</ele><time>2026-05-03T12:49:54.275Z</time></trkpt><trkpt lat="44.422055" lon="6.737185"><ele>1222.5</ele><time>2026-05-03T12:49:55.275Z</time></trkpt><trkpt lat="44.4222067" lon="6.7372083"><ele>1224.0</ele><time>2026-05-03T12:49:56.275Z</time></trkpt><trkpt lat="44.4223533" lon="6.73722"><ele>1225.5</ele><time>2026-05-03T12:49:57.275Z</time></trkpt><trkpt lat="44.4225017" lon="6.737215"><ele>1227.0</ele><time>2026-05-03T12:49:58.275Z</time></trkpt><trkpt lat="44.4226483" lon="6.7372"><ele>1227.0</ele><time>2026-05-03T12:49:59.275Z</time></trkpt><trkpt lat="44.4228017" lon="6.7371867"><ele>1227.0</ele><time>2026-05-03T12:50:00.275Z</time></trkpt><trkpt lat="44.422955" lon="6.7371783"><ele>1227.0</ele><time>2026-05-03T12:50:01.275Z</time></trkpt><trkpt lat="44.4231067" lon="6.737165"><ele>1226.25</ele><time>2026-05-03T12:50:02.276Z</time></trkpt><trkpt lat="44.4232517" lon="6.7371467"><ele>1225.5</ele><time>2026-05-03T12:50:03.275Z</time></trkpt><trkpt lat="44.423395" lon="6.7371367"><ele>1224.75</ele><time>2026-05-03T12:50:04.276Z</time></trkpt><trkpt lat="44.4235417" lon="6.7371217"><ele>1224.0</ele><time>2026-05-03T12:50:05.275Z</time></trkpt><trkpt lat="44.4236883" lon="6.737105"><ele>1225.25</ele><time>2026-05-03T12:50:06.275Z</time></trkpt><trkpt lat="44.42383" lon="6.73711"><ele>1226.5</ele><time>2026-05-03T12:50:07.275Z</time></trkpt><trkpt lat="44.423965" lon="6.7371083"><ele>1227.75</ele><time>2026-05-03T12:50:08.275Z</time></trkpt><trkpt lat="44.4241033" lon="6.7371117"><ele>1229.0</ele><time>2026-05-03T12:50:09.275Z</time></trkpt><trkpt lat="44.42424" lon="6.737115"><ele>1229.0</ele><time>2026-05-03T12:50:10.275Z</time></trkpt><trkpt lat="44.4243667" lon="6.7370967"><ele>1229.0</ele><time>2026-05-03T12:50:11.275Z</time></trkpt><trkpt lat="44.4244983" lon="6.7370717"><ele>1229.0</ele><time>2026-05-03T12:50:12.276Z</time></trkpt><trkpt lat="44.42464" lon="6.737075"><ele>1229.0</ele><time>2026-05-03T12:50:13.275Z</time></trkpt><trkpt lat="44.424775" lon="6.7370617"><ele>1229.0</ele><time>2026-05-03T12:50:14.275Z</time></trkpt><trkpt lat="44.42492" lon="6.737045"><ele>1229.0</ele><time>2026-05-03T12:50:15.275Z</time></trkpt><trkpt lat="44.42506" lon="6.7370383"><ele>1229.0</ele><time>2026-05-03T12:50:16.275Z</time></trkpt><trkpt lat="44.4252067" lon="6.73703"><ele>1229.0</ele><time>2026-05-03T12:50:17.276Z</time></trkpt><trkpt lat="44.4253583" lon="6.7370183"><ele>1230.0</ele><time>2026-05-03T12:50:18.275Z</time></trkpt><trkpt lat="44.42551" lon="6.73701"><ele>1231.0</ele><time>2026-05-03T12:50:19.275Z</time></trkpt><trkpt lat="44.42566" lon="6.7370067"><ele>1232.0</ele><time>2026-05-03T12:50:20.275Z</time></trkpt><trkpt lat="44.4258133" lon="6.7370067"><ele>1232.0</ele><time>2026-05-03T12:50:21.275Z</time></trkpt><trkpt lat="44.4259633" lon="6.7370067"><ele>1232.0</ele><time>2026-05-03T12:50:22.275Z</time></trkpt><trkpt lat="44.426125" lon="6.7369967"><ele>1232.0</ele><time>2026-05-03T12:50:23.275Z</time></trkpt><trkpt lat="44.4262833" lon="6.7369967"><ele>1231.3333333333335</ele><time>2026-05-03T12:50:24.275Z</time></trkpt><trkpt lat="44.4264333" lon="6.7369933"><ele>1230.6666666666667</ele><time>2026-05-03T12:50:25.275Z</time></trkpt><trkpt lat="44.4265967" lon="6.7369933"><ele>1230.0</ele><time>2026-05-03T12:50:26.275Z</time></trkpt><trkpt lat="44.4267783" lon="6.7369933"><ele>1230.0</ele><time>2026-05-03T12:50:27.275Z</time></trkpt><trkpt lat="44.4269667" lon="6.7369767"><ele>1230.0</ele><time>2026-05-03T12:50:28.276Z</time></trkpt><trkpt lat="44.4271567" lon="6.7369467"><ele>1230.0</ele><time>2026-05-03T12:50:29.275Z</time></trkpt><trkpt lat="44.4273617" lon="6.7369017"><ele>1231.0</ele><time>2026-05-03T12:50:30.275Z</time></trkpt><trkpt lat="44.4275683" lon="6.736835"><ele>1232.0</ele><time>2026-05-03T12:50:31.275Z</time></trkpt><trkpt lat="44.4277583" lon="6.7367583"><ele>1233.0</ele><time>2026-05-03T12:50:32.275Z</time></trkpt><trkpt lat="44.427955" lon="6.7366667"><ele>1233.0</ele><time>2026-05-03T12:50:33.275Z</time></trkpt><trkpt lat="44.4281433" lon="6.7365683"><ele>1233.0</ele><time>2026-05-03T12:50:34.275Z</time></trkpt><trkpt lat="44.42833" lon="6.736485"><ele>1233.0</ele><time>2026-05-03T12:50:35.276Z</time></trkpt><trkpt lat="44.4285167" lon="6.7364067"><ele>1233.0</ele><time>2026-05-03T12:50:36.276Z</time></trkpt><trkpt lat="44.42871" lon="6.7363483"><ele>1233.0</ele><time>2026-05-03T12:50:37.275Z</time></trkpt><trkpt lat="44.4289133" lon="6.7363183"><ele>1233.0</ele><time>2026-05-03T12:50:38.275Z</time></trkpt><trkpt lat="44.4291083" lon="6.73632"><ele>1232.6666666666667</ele><time>2026-05-03T12:50:39.275Z</time></trkpt><trkpt lat="44.4293" lon="6.7363467"><ele>1232.3333333333335</ele><time>2026-05-03T12:50:40.275Z</time></trkpt><trkpt lat="44.4294833" lon="6.736405"><ele>1232.0</ele><time>2026-05-03T12:50:41.275Z</time></trkpt><trkpt lat="44.4296583" lon="6.7364967"><ele>1233.3333333333335</ele><time>2026-05-03T12:50:42.275Z</time></trkpt><trkpt lat="44.42982" lon="6.7366233"><ele>1234.6666666666667</ele><time>2026-05-03T12:50:43.275Z</time></trkpt><trkpt lat="44.429975" lon="6.7367883"><ele>1236.0</ele><time>2026-05-03T12:50:44.275Z</time></trkpt><trkpt lat="44.43012" lon="6.7369617"><ele>1236.0</ele><time>2026-05-03T12:50:45.275Z</time></trkpt><trkpt lat="44.4302433" lon="6.73716"><ele>1236.0</ele><time>2026-05-03T12:50:46.275Z</time></trkpt><trkpt lat="44.430355" lon="6.7373683"><ele>1236.0</ele><time>2026-05-03T12:50:47.275Z</time></trkpt><trkpt lat="44.430465" lon="6.7375767"><ele>1238.0</ele><time>2026-05-03T12:50:48.275Z</time></trkpt><trkpt lat="44.4305667" lon="6.7377917"><ele>1240.0</ele><time>2026-05-03T12:50:49.275Z</time></trkpt><trkpt lat="44.4306633" lon="6.7380133"><ele>1242.0</ele><time>2026-05-03T12:50:50.275Z</time></trkpt><trkpt lat="44.4307817" lon="6.73822"><ele>1242.0</ele><time>2026-05-03T12:50:51.275Z</time></trkpt><trkpt lat="44.430925" lon="6.7383933"><ele>1242.0</ele><time>2026-05-03T12:50:52.276Z</time></trkpt><trkpt lat="44.43108" lon="6.7384967"><ele>1242.0</ele><time>2026-05-03T12:50:53.275Z</time></trkpt><trkpt lat="44.4312383" lon="6.73857"><ele>1241.6666666666667</ele><time>2026-05-03T12:50:54.275Z</time></trkpt><trkpt lat="44.4314017" lon="6.7386267"><ele>1241.3333333333335</ele><time>2026-05-03T12:50:55.276Z</time></trkpt><trkpt lat="44.4315633" lon="6.7386883"><ele>1241.0</ele><time>2026-05-03T12:50:56.275Z</time></trkpt><trkpt lat="44.4317167" lon="6.73878"><ele>1241.0</ele><time>2026-05-03T12:50:57.276Z</time></trkpt><trkpt lat="44.4318433" lon="6.7389033"><ele>1241.0</ele><time>2026-05-03T12:50:58.275Z</time></trkpt><trkpt lat="44.43196" lon="6.7390833"><ele>1241.0</ele><time>2026-05-03T12:50:59.276Z</time></trkpt><trkpt lat="44.4320583" lon="6.7392783"><ele>1244.0</ele><time>2026-05-03T12:51:00.275Z</time></trkpt><trkpt lat="44.432145" lon="6.7394817"><ele>1247.0</ele><time>2026-05-03T12:51:01.275Z</time></trkpt><trkpt lat="44.4322483" lon="6.7396783"><ele>1250.0</ele><time>2026-05-03T12:51:02.275Z</time></trkpt><trkpt lat="44.432345" lon="6.7398683"><ele>1250.0</ele><time>2026-05-03T12:51:03.275Z</time></trkpt><trkpt lat="44.4324517" lon="6.74006"><ele>1250.0</ele><time>2026-05-03T12:51:04.276Z</time></trkpt><trkpt lat="44.4325733" lon="6.7402433"><ele>1250.0</ele><time>2026-05-03T12:51:05.275Z</time></trkpt><trkpt lat="44.4327033" lon="6.740415"><ele>1248.0</ele><time>2026-05-03T12:51:06.275Z</time></trkpt><trkpt lat="44.4328517" lon="6.740555"><ele>1246.0</ele><time>2026-05-03T12:51:07.275Z</time></trkpt><trkpt lat="44.4330067" lon="6.740695"><ele>1244.0</ele><time>2026-05-03T12:51:08.275Z</time></trkpt><trkpt lat="44.433165" lon="6.7408233"><ele>1244.0</ele><time>2026-05-03T12:51:09.275Z</time></trkpt><trkpt lat="44.433325" lon="6.74097"><ele>1244.0</ele><time>2026-05-03T12:51:10.275Z</time></trkpt><trkpt lat="44.433475" lon="6.7411367"><ele>1244.0</ele><time>2026-05-03T12:51:11.276Z</time></trkpt><trkpt lat="44.4336067" lon="6.741335"><ele>1241.3333333333335</ele><time>2026-05-03T12:51:12.275Z</time></trkpt><trkpt lat="44.4337017" lon="6.741565"><ele>1238.6666666666667</ele><time>2026-05-03T12:51:13.275Z</time></trkpt><trkpt lat="44.4337883" lon="6.7418167"><ele>1236.0</ele><time>2026-05-03T12:51:14.275Z</time></trkpt><trkpt lat="44.43386" lon="6.7420783"><ele>1241.0</ele><time>2026-05-03T12:51:15.275Z</time></trkpt><trkpt lat="44.43393" lon="6.7423417"><ele>1246.0</ele><time>2026-05-03T12:51:16.275Z</time></trkpt><trkpt lat="44.4339933" lon="6.7426083"><ele>1251.0</ele><time>2026-05-03T12:51:17.275Z</time></trkpt><trkpt lat="44.4340533" lon="6.742875"><ele>1251.0</ele><time>2026-05-03T12:51:18.275Z</time></trkpt><trkpt lat="44.4341167" lon="6.7431267"><ele>1251.0</ele><time>2026-05-03T12:51:19.275Z</time></trkpt><trkpt lat="44.434175" lon="6.7433617"><ele>1251.0</ele><time>2026-05-03T12:51:20.275Z</time></trkpt><trkpt lat="44.4342383" lon="6.7435783"><ele>1250.0</ele><time>2026-05-03T12:51:21.275Z</time></trkpt><trkpt lat="44.434305" lon="6.7437583"><ele>1249.0</ele><time>2026-05-03T12:51:22.275Z</time></trkpt><trkpt lat="44.4344067" lon="6.7438883"><ele>1248.0</ele><time>2026-05-03T12:51:23.276Z</time></trkpt><trkpt lat="44.4345367" lon="6.7439733"><ele>1247.0</ele><time>2026-05-03T12:51:24.275Z</time></trkpt><trkpt lat="44.434685" lon="6.7440167"><ele>1249.6666666666667</ele><time>2026-05-03T12:51:25.275Z</time></trkpt><trkpt lat="44.43485" lon="6.74404"><ele>1252.3333333333333</ele><time>2026-05-03T12:51:26.275Z</time></trkpt><trkpt lat="44.4350167" lon="6.74406"><ele>1255.0</ele><time>2026-05-03T12:51:27.275Z</time></trkpt><trkpt lat="44.43518" lon="6.7440667"><ele>1255.0</ele><time>2026-05-03T12:51:28.275Z</time></trkpt><trkpt lat="44.4353533" lon="6.744065"><ele>1255.0</ele><time>2026-05-03T12:51:29.276Z</time></trkpt><trkpt lat="44.4355133" lon="6.7440483"><ele>1255.0</ele><time>2026-05-03T12:51:30.275Z</time></trkpt><trkpt lat="44.4356667" lon="6.744"><ele>1253.6666666666665</ele><time>2026-05-03T12:51:31.275Z</time></trkpt><trkpt lat="44.43582" lon="6.7439117"><ele>1252.3333333333333</ele><time>2026-05-03T12:51:32.276Z</time></trkpt><trkpt lat="44.4359583" lon="6.743815"><ele>1251.0</ele><time>2026-05-03T12:51:33.275Z</time></trkpt><trkpt lat="44.4361017" lon="6.74373"><ele>1251.0</ele><time>2026-05-03T12:51:34.276Z</time></trkpt><trkpt lat="44.4362517" lon="6.7436967"><ele>1251.0</ele><time>2026-05-03T12:51:35.275Z</time></trkpt><trkpt lat="44.4364033" lon="6.7437467"><ele>1251.0</ele><time>2026-05-03T12:51:36.276Z</time></trkpt><trkpt lat="44.4365517" lon="6.7437917"><ele>1251.6666666666667</ele><time>2026-05-03T12:51:37.275Z</time></trkpt><trkpt lat="44.4367083" lon="6.74386"><ele>1252.3333333333335</ele><time>2026-05-03T12:51:38.276Z</time></trkpt><trkpt lat="44.4368717" lon="6.74392"><ele>1253.0</ele><time>2026-05-03T12:51:39.275Z</time></trkpt><trkpt lat="44.4370233" lon="6.7439833"><ele>1253.3333333333335</ele><time>2026-05-03T12:51:40.275Z</time></trkpt><trkpt lat="44.4371683" lon="6.7440483"><ele>1253.6666666666667</ele><time>2026-05-03T12:51:41.275Z</time></trkpt><trkpt lat="44.43732" lon="6.7440967"><ele>1254.0</ele><time>2026-05-03T12:51:42.276Z</time></trkpt><trkpt lat="44.43747" lon="6.7441167"><ele>1254.0</ele><time>2026-05-03T12:51:43.275Z</time></trkpt><trkpt lat="44.4376217" lon="6.7441"><ele>1254.0</ele><time>2026-05-03T12:51:44.275Z</time></trkpt><trkpt lat="44.43777" lon="6.7440367"><ele>1254.0</ele><time>2026-05-03T12:51:45.275Z</time></trkpt><trkpt lat="44.4379217" lon="6.7439617"><ele>1254.0</ele><time>2026-05-03T12:51:46.276Z</time></trkpt><trkpt lat="44.4380767" lon="6.7439083"><ele>1254.0</ele><time>2026-05-03T12:51:47.275Z</time></trkpt><trkpt lat="44.4382333" lon="6.743885"><ele>1254.0</ele><time>2026-05-03T12:51:48.275Z</time></trkpt><trkpt lat="44.4383817" lon="6.7439117"><ele>1254.0</ele><time>2026-05-03T12:51:49.275Z</time></trkpt><trkpt lat="44.43853" lon="6.7439617"><ele>1254.0</ele><time>2026-05-03T12:51:50.275Z</time></trkpt><trkpt lat="44.4386783" lon="6.7439717"><ele>1254.0</ele><time>2026-05-03T12:51:51.275Z</time></trkpt><trkpt lat="44.4388267" lon="6.743955"><ele>1254.3333333333333</ele><time>2026-05-03T12:51:52.275Z</time></trkpt><trkpt lat="44.4389683" lon="6.7439"><ele>1254.6666666666665</ele><time>2026-05-03T12:51:53.275Z</time></trkpt><trkpt lat="44.439105" lon="6.7438183"><ele>1255.0</ele><time>2026-05-03T12:51:54.275Z</time></trkpt><trkpt lat="44.4392333" lon="6.743685"><ele>1261.0</ele><time>2026-05-03T12:51:55.275Z</time></trkpt><trkpt lat="44.4393417" lon="6.7435167"><ele>1267.0</ele><time>2026-05-03T12:51:56.275Z</time></trkpt><trkpt lat="44.4394467" lon="6.7433267"><ele>1273.0</ele><time>2026-05-03T12:51:57.275Z</time></trkpt><trkpt lat="44.4395483" lon="6.7431533"><ele>1268.0</ele><time>2026-05-03T12:51:58.275Z</time></trkpt><trkpt lat="44.4396533" lon="6.7429883"><ele>1263.0</ele><time>2026-05-03T12:51:59.275Z</time></trkpt><trkpt lat="44.43977" lon="6.7428533"><ele>1258.0</ele><time>2026-05-03T12:52:00.275Z</time></trkpt><trkpt lat="44.4399033" lon="6.74276"><ele>1258.0</ele><time>2026-05-03T12:52:01.275Z</time></trkpt><trkpt lat="44.4400567" lon="6.7427233"><ele>1258.0</ele><time>2026-05-03T12:52:02.276Z</time></trkpt><trkpt lat="44.4402183" lon="6.74273"><ele>1258.0</ele><time>2026-05-03T12:52:03.276Z</time></trkpt><trkpt lat="44.440375" lon="6.7427617"><ele>1258.0</ele><time>2026-05-03T12:52:04.275Z</time></trkpt><trkpt lat="44.44054" lon="6.7427633"><ele>1258.0</ele><time>2026-05-03T12:52:05.276Z</time></trkpt><trkpt lat="44.4406833" lon="6.7427067"><ele>1258.0</ele><time>2026-05-03T12:52:06.275Z</time></trkpt><trkpt lat="44.4408367" lon="6.74265"><ele>1261.0</ele><time>2026-05-03T12:52:07.275Z</time></trkpt><trkpt lat="44.4409783" lon="6.74253"><ele>1264.0</ele><time>2026-05-03T12:52:08.275Z</time></trkpt><trkpt lat="44.4411117" lon="6.742395"><ele>1267.0</ele><time>2026-05-03T12:52:09.275Z</time></trkpt><trkpt lat="44.4412467" lon="6.74223"><ele>1264.0</ele><time>2026-05-03T12:52:10.275Z</time></trkpt><trkpt lat="44.441385" lon="6.7420967"><ele>1261.0</ele><time>2026-05-03T12:52:11.276Z</time></trkpt><trkpt lat="44.4415383" lon="6.74202"><ele>1258.0</ele><time>2026-05-03T12:52:12.276Z</time></trkpt><trkpt lat="44.4416983" lon="6.7419917"><ele>1258.0</ele><time>2026-05-03T12:52:13.275Z</time></trkpt><trkpt lat="44.441865" lon="6.7419983"><ele>1258.0</ele><time>2026-05-03T12:52:14.275Z</time></trkpt><trkpt lat="44.4420067" lon="6.742005"><ele>1258.0</ele><time>2026-05-03T12:52:15.275Z</time></trkpt><trkpt lat="44.44218" lon="6.7420467"><ele>1259.6666666666665</ele><time>2026-05-03T12:52:16.275Z</time></trkpt><trkpt lat="44.442355" lon="6.7420733"><ele>1261.3333333333333</ele><time>2026-05-03T12:52:17.276Z</time></trkpt><trkpt lat="44.4425483" lon="6.7420917"><ele>1263.0</ele><time>2026-05-03T12:52:18.275Z</time></trkpt><trkpt lat="44.4427383" lon="6.7421033"><ele>1263.0</ele><time>2026-05-03T12:52:19.276Z</time></trkpt><trkpt lat="44.4429267" lon="6.7421167"><ele>1263.0</ele><time>2026-05-03T12:52:20.275Z</time></trkpt><trkpt lat="44.4431067" lon="6.74215"><ele>1263.0</ele><time>2026-05-03T12:52:21.275Z</time></trkpt><trkpt lat="44.4432867" lon="6.7421867"><ele>1264.0</ele><time>2026-05-03T12:52:22.275Z</time></trkpt><trkpt lat="44.4434633" lon="6.7422433"><ele>1265.0</ele><time>2026-05-03T12:52:23.276Z</time></trkpt><trkpt lat="44.4436283" lon="6.74234"><ele>1266.0</ele><time>2026-05-03T12:52:24.275Z</time></trkpt><trkpt lat="44.4437917" lon="6.7424533"><ele>1269.0</ele><time>2026-05-03T12:52:25.275Z</time></trkpt><trkpt lat="44.4439467" lon="6.7425667"><ele>1272.0</ele><time>2026-05-03T12:52:26.275Z</time></trkpt><trkpt lat="44.4441167" lon="6.7426383"><ele>1275.0</ele><time>2026-05-03T12:52:27.275Z</time></trkpt><trkpt lat="44.4442833" lon="6.7426633"><ele>1275.0</ele><time>2026-05-03T12:52:28.275Z</time></trkpt><trkpt lat="44.4444583" lon="6.7426567"><ele>1275.0</ele><time>2026-05-03T12:52:29.275Z</time></trkpt><trkpt lat="44.4446367" lon="6.7426167"><ele>1275.0</ele><time>2026-05-03T12:52:30.275Z</time></trkpt><trkpt lat="44.4448183" lon="6.7425267"><ele>1272.0</ele><time>2026-05-03T12:52:31.276Z</time></trkpt><trkpt lat="44.4450083" lon="6.7424383"><ele>1269.0</ele><time>2026-05-03T12:52:32.275Z</time></trkpt><trkpt lat="44.4451817" lon="6.7423083"><ele>1266.0</ele><time>2026-05-03T12:52:33.276Z</time></trkpt><trkpt lat="44.44537" lon="6.7421883"><ele>1266.6666666666667</ele><time>2026-05-03T12:52:34.275Z</time></trkpt><trkpt lat="44.4455467" lon="6.7420467"><ele>1267.3333333333335</ele><time>2026-05-03T12:52:35.276Z</time></trkpt><trkpt lat="44.445725" lon="6.7419167"><ele>1268.0</ele><time>2026-05-03T12:52:36.275Z</time></trkpt><trkpt lat="44.445895" lon="6.7417717"><ele>1268.0</ele><time>2026-05-03T12:52:37.275Z</time></trkpt><trkpt lat="44.44606" lon="6.7416133"><ele>1268.0</ele><time>2026-05-03T12:52:38.275Z</time></trkpt><trkpt lat="44.4462133" lon="6.74144"><ele>1268.0</ele><time>2026-05-03T12:52:39.275Z</time></trkpt><trkpt lat="44.4463717" lon="6.7412667"><ele>1268.0</ele><time>2026-05-03T12:52:40.275Z</time></trkpt><trkpt lat="44.4465283" lon="6.7410983"><ele>1268.0</ele><time>2026-05-03T12:52:41.275Z</time></trkpt><trkpt lat="44.4466867" lon="6.7409333"><ele>1268.0</ele><time>2026-05-03T12:52:42.275Z</time></trkpt><trkpt lat="44.4468533" lon="6.74078"><ele>1268.0</ele><time>2026-05-03T12:52:43.275Z</time></trkpt><trkpt lat="44.4470183" lon="6.7406233"><ele>1268.0</ele><time>2026-05-03T12:52:44.275Z</time></trkpt><trkpt lat="44.44717" lon="6.74047"><ele>1268.0</ele><time>2026-05-03T12:52:45.275Z</time></trkpt><trkpt lat="44.447335" lon="6.7403333"><ele>1267.3333333333335</ele><time>2026-05-03T12:52:46.276Z</time></trkpt><trkpt lat="44.4475067" lon="6.7402367"><ele>1266.6666666666667</ele><time>2026-05-03T12:52:47.275Z</time></trkpt><trkpt lat="44.4476933" lon="6.7401817"><ele>1266.0</ele><time>2026-05-03T12:52:48.276Z</time></trkpt><trkpt lat="44.447885" lon="6.7401833"><ele>1265.0</ele><time>2026-05-03T12:52:49.275Z</time></trkpt><trkpt lat="44.44808" lon="6.74022"><ele>1264.0</ele><time>2026-05-03T12:52:50.275Z</time></trkpt><trkpt lat="44.44828" lon="6.7402867"><ele>1263.0</ele><time>2026-05-03T12:52:51.276Z</time></trkpt><trkpt lat="44.44848" lon="6.7403567"><ele>1263.0</ele><time>2026-05-03T12:52:52.275Z</time></trkpt><trkpt lat="44.4486967" lon="6.7404167"><ele>1263.0</ele><time>2026-05-03T12:52:53.275Z</time></trkpt><trkpt lat="44.448905" lon="6.7404783"><ele>1263.0</ele><time>2026-05-03T12:52:54.275Z</time></trkpt><trkpt lat="44.4491083" lon="6.7405333"><ele>1263.3333333333333</ele><time>2026-05-03T12:52:55.275Z</time></trkpt><trkpt lat="44.449315" lon="6.74058"><ele>1263.6666666666665</ele><time>2026-05-03T12:52:56.275Z</time></trkpt><trkpt lat="44.44951" lon="6.7406283"><ele>1264.0</ele><time>2026-05-03T12:52:57.275Z</time></trkpt><trkpt lat="44.4497033" lon="6.740675"><ele>1266.3333333333333</ele><time>2026-05-03T12:52:58.275Z</time></trkpt><trkpt lat="44.4498883" lon="6.7407417"><ele>1268.6666666666667</ele><time>2026-05-03T12:52:59.275Z</time></trkpt><trkpt lat="44.45006" lon="6.7408667"><ele>1271.0</ele><time>2026-05-03T12:53:00.275Z</time></trkpt><trkpt lat="44.450225" lon="6.7410233"><ele>1271.0</ele><time>2026-05-03T12:53:01.275Z</time></trkpt><trkpt lat="44.450385" lon="6.7412067"><ele>1271.0</ele><time>2026-05-03T12:53:02.276Z</time></trkpt><trkpt lat="44.4505333" lon="6.7413883"><ele>1271.0</ele><time>2026-05-03T12:53:03.276Z</time></trkpt><trkpt lat="44.4506817" lon="6.74158"><ele>1271.0</ele><time>2026-05-03T12:53:04.275Z</time></trkpt><trkpt lat="44.4508233" lon="6.7417533"><ele>1271.0</ele><time>2026-05-03T12:53:05.276Z</time></trkpt><trkpt lat="44.4509833" lon="6.741935"><ele>1271.0</ele><time>2026-05-03T12:53:06.275Z</time></trkpt><trkpt lat="44.4511417" lon="6.742115"><ele>1274.0</ele><time>2026-05-03T12:53:07.275Z</time></trkpt><trkpt lat="44.45131" lon="6.7422883"><ele>1277.0</ele><time>2026-05-03T12:53:08.275Z</time></trkpt><trkpt lat="44.4514767" lon="6.74245"><ele>1280.0</ele><time>2026-05-03T12:53:09.275Z</time></trkpt><trkpt lat="44.4516483" lon="6.742595"><ele>1277.0</ele><time>2026-05-03T12:53:10.275Z</time></trkpt><trkpt lat="44.4518167" lon="6.74273"><ele>1274.0</ele><time>2026-05-03T12:53:11.276Z</time></trkpt><trkpt lat="44.4519933" lon="6.7428533"><ele>1271.0</ele><time>2026-05-03T12:53:12.275Z</time></trkpt><trkpt lat="44.4521767" lon="6.7429467"><ele>1271.0</ele><time>2026-05-03T12:53:13.275Z</time></trkpt><trkpt lat="44.452365" lon="6.74305"><ele>1271.0</ele><time>2026-05-03T12:53:14.275Z</time></trkpt><trkpt lat="44.4525367" lon="6.74317"><ele>1271.0</ele><time>2026-05-03T12:53:15.275Z</time></trkpt><trkpt lat="44.4526833" lon="6.7433233"><ele>1271.0</ele><time>2026-05-03T12:53:16.276Z</time></trkpt><trkpt lat="44.45281" lon="6.7435033"><ele>1271.0</ele><time>2026-05-03T12:53:17.275Z</time></trkpt><trkpt lat="44.452925" lon="6.7436917"><ele>1271.0</ele><time>2026-05-03T12:53:18.275Z</time></trkpt><trkpt lat="44.4530633" lon="6.74382"><ele>1271.3333333333335</ele><time>2026-05-03T12:53:19.275Z</time></trkpt><trkpt lat="44.45322" lon="6.7439"><ele>1271.6666666666667</ele><time>2026-05-03T12:53:20.275Z</time></trkpt><trkpt lat="44.4533883" lon="6.7439233"><ele>1272.0</ele><time>2026-05-03T12:53:21.275Z</time></trkpt><trkpt lat="44.453555" lon="6.7439033"><ele>1272.0</ele><time>2026-05-03T12:53:22.275Z</time></trkpt><trkpt lat="44.453715" lon="6.7438233"><ele>1272.0</ele><time>2026-05-03T12:53:23.275Z</time></trkpt><trkpt lat="44.4538917" lon="6.743725"><ele>1272.0</ele><time>2026-05-03T12:53:24.275Z</time></trkpt><trkpt lat="44.4540533" lon="6.7436667"><ele>1272.3333333333333</ele><time>2026-05-03T12:53:25.275Z</time></trkpt><trkpt lat="44.45423" lon="6.7436383"><ele>1272.6666666666665</ele><time>2026-05-03T12:53:26.275Z</time></trkpt><trkpt lat="44.4544067" lon="6.7436417"><ele>1273.0</ele><time>2026-05-03T12:53:27.276Z</time></trkpt><trkpt lat="44.4545783" lon="6.7436767"><ele>1275.6666666666665</ele><time>2026-05-03T12:53:28.275Z</time></trkpt><trkpt lat="44.4547383" lon="6.7436917"><ele>1278.3333333333333</ele><time>2026-05-03T12:53:29.275Z</time></trkpt><trkpt lat="44.4548917" lon="6.7437017"><ele>1281.0</ele><time>2026-05-03T12:53:30.275Z</time></trkpt><trkpt lat="44.4550467" lon="6.7437117"><ele>1281.0</ele><time>2026-05-03T12:53:31.275Z</time></trkpt><trkpt lat="44.4551833" lon="6.7437133"><ele>1281.0</ele><time>2026-05-03T12:53:32.275Z</time></trkpt><trkpt lat="44.4552933" lon="6.7437317"><ele>1281.0</ele><time>2026-05-03T12:53:33.275Z</time></trkpt><trkpt lat="44.4554183" lon="6.74379"><ele>1281.0</ele><time>2026-05-03T12:53:34.276Z</time></trkpt><trkpt lat="44.4555367" lon="6.7438583"><ele>1281.75</ele><time>2026-05-03T12:53:35.276Z</time></trkpt><trkpt lat="44.4556583" lon="6.7439367"><ele>1282.5</ele><time>2026-05-03T12:53:36.275Z</time></trkpt><trkpt lat="44.4557667" lon="6.7439983"><ele>1283.25</ele><time>2026-05-03T12:53:37.275Z</time></trkpt><trkpt lat="44.4558683" lon="6.744065"><ele>1284.0</ele><time>2026-05-03T12:53:38.275Z</time></trkpt><trkpt lat="44.4559767" lon="6.7440917"><ele>1284.0</ele><time>2026-05-03T12:53:39.275Z</time></trkpt><trkpt lat="44.4560933" lon="6.744105"><ele>1284.0</ele><time>2026-05-03T12:53:40.275Z</time></trkpt><trkpt lat="44.4562117" lon="6.7441067"><ele>1284.0</ele><time>2026-05-03T12:53:41.276Z</time></trkpt><trkpt lat="44.45633" lon="6.7441033"><ele>1284.0</ele><time>2026-05-03T12:53:42.275Z</time></trkpt><trkpt lat="44.45646" lon="6.7440983"><ele>1285.0</ele><time>2026-05-03T12:53:43.275Z</time></trkpt><trkpt lat="44.4566" lon="6.7441133"><ele>1286.0</ele><time>2026-05-03T12:53:44.276Z</time></trkpt><trkpt lat="44.4567283" lon="6.744125"><ele>1287.0</ele><time>2026-05-03T12:53:45.275Z</time></trkpt><trkpt lat="44.4568467" lon="6.7441533"><ele>1288.0</ele><time>2026-05-03T12:53:46.275Z</time></trkpt><trkpt lat="44.45697" lon="6.7442133"><ele>1288.0</ele><time>2026-05-03T12:53:47.275Z</time></trkpt><trkpt lat="44.4570767" lon="6.7442833"><ele>1288.0</ele><time>2026-05-03T12:53:48.275Z</time></trkpt><trkpt lat="44.4571783" lon="6.74437"><ele>1288.0</ele><time>2026-05-03T12:53:49.275Z</time></trkpt><trkpt lat="44.457305" lon="6.7444617"><ele>1288.0</ele><time>2026-05-03T12:53:50.275Z</time></trkpt><trkpt lat="44.4574133" lon="6.7445383"><ele>1287.75</ele><time>2026-05-03T12:53:51.275Z</time></trkpt><trkpt lat="44.4575217" lon="6.7446033"><ele>1287.5</ele><time>2026-05-03T12:53:52.275Z</time></trkpt><trkpt lat="44.457625" lon="6.7446917"><ele>1287.25</ele><time>2026-05-03T12:53:53.275Z</time></trkpt><trkpt lat="44.45773" lon="6.74478"><ele>1287.0</ele><time>2026-05-03T12:53:54.275Z</time></trkpt><trkpt lat="44.45783" lon="6.7448783"><ele>1287.0</ele><time>2026-05-03T12:53:55.275Z</time></trkpt><trkpt lat="44.4579117" lon="6.744995"><ele>1287.0</ele><time>2026-05-03T12:53:56.275Z</time></trkpt><trkpt lat="44.4579933" lon="6.7451167"><ele>1287.0</ele><time>2026-05-03T12:53:57.275Z</time></trkpt><trkpt lat="44.45805" lon="6.7452517"><ele>1287.0</ele><time>2026-05-03T12:53:58.275Z</time></trkpt><trkpt lat="44.4580967" lon="6.74538"><ele>1287.5</ele><time>2026-05-03T12:53:59.275Z</time></trkpt><trkpt lat="44.45814" lon="6.74552"><ele>1288.0</ele><time>2026-05-03T12:54:00.275Z</time></trkpt><trkpt lat="44.4581533" lon="6.7456833"><ele>1288.5</ele><time>2026-05-03T12:54:01.275Z</time></trkpt><trkpt lat="44.4581667" lon="6.7458533"><ele>1289.0</ele><time>2026-05-03T12:54:02.275Z</time></trkpt><trkpt lat="44.45818" lon="6.7460267"><ele>1288.0</ele><time>2026-05-03T12:54:03.275Z</time></trkpt><trkpt lat="44.45821" lon="6.746185"><ele>1287.0</ele><time>2026-05-03T12:54:04.275Z</time></trkpt><trkpt lat="44.4582517" lon="6.7463367"><ele>1286.0</ele><time>2026-05-03T12:54:05.275Z</time></trkpt><trkpt lat="44.4583233" lon="6.7464783"><ele>1285.0</ele><time>2026-05-03T12:54:06.275Z</time></trkpt><trkpt lat="44.4584083" lon="6.7465917"><ele>1285.0</ele><time>2026-05-03T12:54:07.275Z</time></trkpt><trkpt lat="44.4585017" lon="6.74667"><ele>1285.0</ele><time>2026-05-03T12:54:08.275Z</time></trkpt><trkpt lat="44.4586083" lon="6.74672"><ele>1285.0</ele><time>2026-05-03T12:54:09.276Z</time></trkpt><trkpt lat="44.45872" lon="6.7467283"><ele>1285.0</ele><time>2026-05-03T12:54:10.275Z</time></trkpt><trkpt lat="44.458835" lon="6.7467267"><ele>1285.0</ele><time>2026-05-03T12:54:11.275Z</time></trkpt><trkpt lat="44.4589583" lon="6.74672"><ele>1287.75</ele><time>2026-05-03T12:54:12.275Z</time></trkpt><trkpt lat="44.45908" lon="6.74673"><ele>1290.5</ele><time>2026-05-03T12:54:13.275Z</time></trkpt><trkpt lat="44.4592067" lon="6.7467333"><ele>1293.25</ele><time>2026-05-03T12:54:14.275Z</time></trkpt><trkpt lat="44.4593417" lon="6.7467483"><ele>1296.0</ele><time>2026-05-03T12:54:15.275Z</time></trkpt><trkpt lat="44.4594667" lon="6.7467967"><ele>1296.0</ele><time>2026-05-03T12:54:16.275Z</time></trkpt><trkpt lat="44.4595917" lon="6.7468533"><ele>1296.0</ele><time>2026-05-03T12:54:17.275Z</time></trkpt><trkpt lat="44.4597233" lon="6.7469017"><ele>1296.0</ele><time>2026-05-03T12:54:18.275Z</time></trkpt><trkpt lat="44.459855" lon="6.7469583"><ele>1296.0</ele><time>2026-05-03T12:54:19.275Z</time></trkpt><trkpt lat="44.459985" lon="6.7470283"><ele>1296.75</ele><time>2026-05-03T12:54:20.275Z</time></trkpt><trkpt lat="44.4601167" lon="6.7471"><ele>1297.5</ele><time>2026-05-03T12:54:21.275Z</time></trkpt><trkpt lat="44.4602483" lon="6.7471817"><ele>1298.25</ele><time>2026-05-03T12:54:22.276Z</time></trkpt><trkpt lat="44.460375" lon="6.747275"><ele>1299.0</ele><time>2026-05-03T12:54:23.275Z</time></trkpt><trkpt lat="44.4605" lon="6.7473917"><ele>1299.0</ele><time>2026-05-03T12:54:24.275Z</time></trkpt><trkpt lat="44.4606133" lon="6.7475133"><ele>1299.0</ele><time>2026-05-03T12:54:25.275Z</time></trkpt><trkpt lat="44.4607217" lon="6.7476383"><ele>1299.0</ele><time>2026-05-03T12:54:26.275Z</time></trkpt><trkpt lat="44.4608283" lon="6.7477733"><ele>1299.0</ele><time>2026-05-03T12:54:27.275Z</time></trkpt><trkpt lat="44.4609283" lon="6.7479117"><ele>1295.3333333333333</ele><time>2026-05-03T12:54:28.275Z</time></trkpt><trkpt lat="44.4610317" lon="6.7480767"><ele>1291.6666666666665</ele><time>2026-05-03T12:54:29.276Z</time></trkpt><trkpt lat="44.4611233" lon="6.7482367"><ele>1288.0</ele><time>2026-05-03T12:54:30.275Z</time></trkpt><trkpt lat="44.46122" lon="6.7483917"><ele>1289.0</ele><time>2026-05-03T12:54:31.275Z</time></trkpt><trkpt lat="44.4613117" lon="6.74855"><ele>1290.0</ele><time>2026-05-03T12:54:32.275Z</time></trkpt><trkpt lat="44.461405" lon="6.7486983"><ele>1291.0</ele><time>2026-05-03T12:54:33.276Z</time></trkpt><trkpt lat="44.4615033" lon="6.7488533"><ele>1292.0</ele><time>2026-05-03T12:54:34.275Z</time></trkpt><trkpt lat="44.4616033" lon="6.7490017"><ele>1292.0</ele><time>2026-05-03T12:54:35.275Z</time></trkpt><trkpt lat="44.461705" lon="6.749155"><ele>1292.0</ele><time>2026-05-03T12:54:36.275Z</time></trkpt><trkpt lat="44.4618117" lon="6.7492933"><ele>1292.0</ele><time>2026-05-03T12:54:37.276Z</time></trkpt><trkpt lat="44.4619183" lon="6.7494317"><ele>1292.0</ele><time>2026-05-03T12:54:38.275Z</time></trkpt><trkpt lat="44.4620267" lon="6.74957"><ele>1292.75</ele><time>2026-05-03T12:54:39.275Z</time></trkpt><trkpt lat="44.4621333" lon="6.749715"><ele>1293.5</ele><time>2026-05-03T12:54:40.275Z</time></trkpt><trkpt lat="44.4622433" lon="6.74985"><ele>1294.25</ele><time>2026-05-03T12:54:41.275Z</time></trkpt><trkpt lat="44.462365" lon="6.749975"><ele>1295.0</ele><time>2026-05-03T12:54:42.275Z</time></trkpt><trkpt lat="44.46249" lon="6.7500783"><ele>1295.0</ele><time>2026-05-03T12:54:43.275Z</time></trkpt><trkpt lat="44.4626267" lon="6.7501583"><ele>1295.0</ele><time>2026-05-03T12:54:44.276Z</time></trkpt><trkpt lat="44.4627783" lon="6.7502167"><ele>1295.0</ele><time>2026-05-03T12:54:45.276Z</time></trkpt><trkpt lat="44.4629417" lon="6.750255"><ele>1295.0</ele><time>2026-05-03T12:54:46.275Z</time></trkpt><trkpt lat="44.4630917" lon="6.7503033"><ele>1295.0</ele><time>2026-05-03T12:54:47.275Z</time></trkpt><trkpt lat="44.4632417" lon="6.7503733"><ele>1295.0</ele><time>2026-05-03T12:54:48.275Z</time></trkpt><trkpt lat="44.4633883" lon="6.7504583"><ele>1295.0</ele><time>2026-05-03T12:54:49.275Z</time></trkpt><trkpt lat="44.463525" lon="6.7505667"><ele>1295.0</ele><time>2026-05-03T12:54:50.276Z</time></trkpt><trkpt lat="44.4636483" lon="6.7507183"><ele>1295.0</ele><time>2026-05-03T12:54:51.275Z</time></trkpt><trkpt lat="44.4637667" lon="6.75088"><ele>1294.0</ele><time>2026-05-03T12:54:52.275Z</time></trkpt><trkpt lat="44.4638917" lon="6.7510333"><ele>1293.0</ele><time>2026-05-03T12:54:53.276Z</time></trkpt><trkpt lat="44.4640167" lon="6.7511867"><ele>1292.0</ele><time>2026-05-03T12:54:54.276Z</time></trkpt><trkpt lat="44.4641467" lon="6.7513483"><ele>1292.0</ele><time>2026-05-03T12:54:55.275Z</time></trkpt><trkpt lat="44.4642817" lon="6.7515083"><ele>1292.0</ele><time>2026-05-03T12:54:56.275Z</time></trkpt><trkpt lat="44.4644167" lon="6.7516667"><ele>1292.0</ele><time>2026-05-03T12:54:57.276Z</time></trkpt><trkpt lat="44.464545" lon="6.75185"><ele>1295.3333333333335</ele><time>2026-05-03T12:54:58.275Z</time></trkpt><trkpt lat="44.4646667" lon="6.752045"><ele>1298.6666666666667</ele><time>2026-05-03T12:54:59.275Z</time></trkpt><trkpt lat="44.4647817" lon="6.752235"><ele>1302.0</ele><time>2026-05-03T12:55:00.275Z</time></trkpt><trkpt lat="44.46489" lon="6.752425"><ele>1302.0</ele><time>2026-05-03T12:55:01.275Z</time></trkpt><trkpt lat="44.4649883" lon="6.75262"><ele>1302.0</ele><time>2026-05-03T12:55:02.275Z</time></trkpt><trkpt lat="44.46508" lon="6.7528117"><ele>1302.0</ele><time>2026-05-03T12:55:03.276Z</time></trkpt><trkpt lat="44.4651567" lon="6.752995"><ele>1299.0</ele><time>2026-05-03T12:55:04.275Z</time></trkpt><trkpt lat="44.46521" lon="6.75318"><ele>1296.0</ele><time>2026-05-03T12:55:05.275Z</time></trkpt><trkpt lat="44.4652383" lon="6.75337"><ele>1293.0</ele><time>2026-05-03T12:55:06.275Z</time></trkpt><trkpt lat="44.4652517" lon="6.7535767"><ele>1290.0</ele><time>2026-05-03T12:55:07.275Z</time></trkpt><trkpt lat="44.4652583" lon="6.753785"><ele>1289.0</ele><time>2026-05-03T12:55:08.275Z</time></trkpt><trkpt lat="44.4652467" lon="6.753995"><ele>1288.0</ele><time>2026-05-03T12:55:09.275Z</time></trkpt><trkpt lat="44.4652283" lon="6.75421"><ele>1287.0</ele><time>2026-05-03T12:55:10.275Z</time></trkpt><trkpt lat="44.4651967" lon="6.75442"><ele>1287.0</ele><time>2026-05-03T12:55:11.275Z</time></trkpt><trkpt lat="44.4651617" lon="6.7546383"><ele>1287.0</ele><time>2026-05-03T12:55:12.275Z</time></trkpt><trkpt lat="44.465125" lon="6.7548617"><ele>1287.0</ele><time>2026-05-03T12:55:13.275Z</time></trkpt><trkpt lat="44.465085" lon="6.7550917"><ele>1287.3333333333333</ele><time>2026-05-03T12:55:14.275Z</time></trkpt><trkpt lat="44.4650483" lon="6.7553233"><ele>1287.6666666666665</ele><time>2026-05-03T12:55:15.275Z</time></trkpt><trkpt lat="44.4650133" lon="6.7555567"><ele>1288.0</ele><time>2026-05-03T12:55:16.276Z</time></trkpt><trkpt lat="44.4649817" lon="6.755785"><ele>1288.0</ele><time>2026-05-03T12:55:17.276Z</time></trkpt><trkpt lat="44.46495" lon="6.75601"><ele>1288.0</ele><time>2026-05-03T12:55:18.275Z</time></trkpt><trkpt lat="44.4649183" lon="6.75623"><ele>1288.0</ele><time>2026-05-03T12:55:19.275Z</time></trkpt><trkpt lat="44.4649117" lon="6.756475"><ele>1289.3333333333333</ele><time>2026-05-03T12:55:20.275Z</time></trkpt><trkpt lat="44.46492" lon="6.7567383"><ele>1290.6666666666667</ele><time>2026-05-03T12:55:21.276Z</time></trkpt><trkpt lat="44.464955" lon="6.7569983"><ele>1292.0</ele><time>2026-05-03T12:55:22.275Z</time></trkpt><trkpt lat="44.465025" lon="6.75724"><ele>1296.0</ele><time>2026-05-03T12:55:23.275Z</time></trkpt><trkpt lat="44.4651217" lon="6.75748"><ele>1300.0</ele><time>2026-05-03T12:55:24.275Z</time></trkpt><trkpt lat="44.4652367" lon="6.7577267"><ele>1304.0</ele><time>2026-05-03T12:55:25.275Z</time></trkpt><trkpt lat="44.465365" lon="6.7579717"><ele>1305.6666666666667</ele><time>2026-05-03T12:55:26.275Z</time></trkpt><trkpt lat="44.4654883" lon="6.758215"><ele>1307.3333333333333</ele><time>2026-05-03T12:55:27.275Z</time></trkpt><trkpt lat="44.465615" lon="6.7584533"><ele>1309.0</ele><time>2026-05-03T12:55:28.275Z</time></trkpt><trkpt lat="44.4657333" lon="6.7586867"><ele>1309.0</ele><time>2026-05-03T12:55:29.275Z</time></trkpt><trkpt lat="44.4658467" lon="6.7589217"><ele>1309.0</ele><time>2026-05-03T12:55:30.275Z</time></trkpt><trkpt lat="44.4659683" lon="6.7591483"><ele>1309.0</ele><time>2026-05-03T12:55:31.275Z</time></trkpt><trkpt lat="44.466085" lon="6.75936"><ele>1305.0</ele><time>2026-05-03T12:55:32.275Z</time></trkpt><trkpt lat="44.4662133" lon="6.7595683"><ele>1301.0</ele><time>2026-05-03T12:55:33.275Z</time></trkpt><trkpt lat="44.4663367" lon="6.7597833"><ele>1297.0</ele><time>2026-05-03T12:55:34.276Z</time></trkpt><trkpt lat="44.46646" lon="6.7599967"><ele>1299.6666666666665</ele><time>2026-05-03T12:55:35.275Z</time></trkpt><trkpt lat="44.466585" lon="6.7602033"><ele>1302.3333333333333</ele><time>2026-05-03T12:55:36.275Z</time></trkpt><trkpt lat="44.4667033" lon="6.760435"><ele>1305.0</ele><time>2026-05-03T12:55:37.275Z</time></trkpt><trkpt lat="44.466815" lon="6.7606617"><ele>1305.0</ele><time>2026-05-03T12:55:38.275Z</time></trkpt><trkpt lat="44.4669183" lon="6.7608767"><ele>1305.0</ele><time>2026-05-03T12:55:39.275Z</time></trkpt><trkpt lat="44.467015" lon="6.7611033"><ele>1305.0</ele><time>2026-05-03T12:55:40.275Z</time></trkpt><trkpt lat="44.4671217" lon="6.76133"><ele>1303.0</ele><time>2026-05-03T12:55:41.275Z</time></trkpt><trkpt lat="44.4672333" lon="6.761545"><ele>1301.0</ele><time>2026-05-03T12:55:42.275Z</time></trkpt><trkpt lat="44.4673567" lon="6.7617267"><ele>1299.0</ele><time>2026-05-03T12:55:43.275Z</time></trkpt><trkpt lat="44.4675133" lon="6.761865"><ele>1303.3333333333333</ele><time>2026-05-03T12:55:44.276Z</time></trkpt><trkpt lat="44.4676667" lon="6.7619867"><ele>1307.6666666666665</ele><time>2026-05-03T12:55:45.275Z</time></trkpt><trkpt lat="44.4678567" lon="6.7620667"><ele>1312.0</ele><time>2026-05-03T12:55:46.275Z</time></trkpt><trkpt lat="44.4680433" lon="6.7621483"><ele>1312.0</ele><time>2026-05-03T12:55:47.276Z</time></trkpt><trkpt lat="44.4682317" lon="6.7622283"><ele>1312.0</ele><time>2026-05-03T12:55:48.275Z</time></trkpt><trkpt lat="44.4684317" lon="6.7623133"><ele>1312.0</ele><time>2026-05-03T12:55:49.275Z</time></trkpt><trkpt lat="44.4686233" lon="6.76241"><ele>1308.6666666666665</ele><time>2026-05-03T12:55:50.275Z</time></trkpt><trkpt lat="44.46881" lon="6.762495"><ele>1305.3333333333333</ele><time>2026-05-03T12:55:51.275Z</time></trkpt><trkpt lat="44.4689933" lon="6.7625967"><ele>1302.0</ele><time>2026-05-03T12:55:52.275Z</time></trkpt><trkpt lat="44.46918" lon="6.7626967"><ele>1304.6666666666667</ele><time>2026-05-03T12:55:53.276Z</time></trkpt><trkpt lat="44.4693633" lon="6.7627917"><ele>1307.3333333333335</ele><time>2026-05-03T12:55:54.275Z</time></trkpt><trkpt lat="44.4695483" lon="6.76288"><ele>1310.0</ele><time>2026-05-03T12:55:55.276Z</time></trkpt><trkpt lat="44.4697317" lon="6.76297"><ele>1310.0</ele><time>2026-05-03T12:55:56.275Z</time></trkpt><trkpt lat="44.46991" lon="6.7630567"><ele>1310.0</ele><time>2026-05-03T12:55:57.275Z</time></trkpt><trkpt lat="44.4700917" lon="6.7631433"><ele>1310.0</ele><time>2026-05-03T12:55:58.275Z</time></trkpt><trkpt lat="44.47026" lon="6.76323"><ele>1310.0</ele><time>2026-05-03T12:55:59.275Z</time></trkpt><trkpt lat="44.4704117" lon="6.763335"><ele>1310.0</ele><time>2026-05-03T12:56:00.276Z</time></trkpt><trkpt lat="44.4705533" lon="6.7634483"><ele>1310.0</ele><time>2026-05-03T12:56:01.275Z</time></trkpt><trkpt lat="44.47068" lon="6.7635667"><ele>1312.25</ele><time>2026-05-03T12:56:02.275Z</time></trkpt><trkpt lat="44.4707933" lon="6.7636683"><ele>1314.5</ele><time>2026-05-03T12:56:03.275Z</time></trkpt><trkpt lat="44.470915" lon="6.76374"><ele>1316.75</ele><time>2026-05-03T12:56:04.275Z</time></trkpt><trkpt lat="44.4710483" lon="6.76378"><ele>1319.0</ele><time>2026-05-03T12:56:05.275Z</time></trkpt><trkpt lat="44.4711867" lon="6.7637883"><ele>1316.25</ele><time>2026-05-03T12:56:06.275Z</time></trkpt><trkpt lat="44.4713233" lon="6.7637717"><ele>1313.5</ele><time>2026-05-03T12:56:07.275Z</time></trkpt><trkpt lat="44.471455" lon="6.7637183"><ele>1310.75</ele><time>2026-05-03T12:56:08.275Z</time></trkpt><trkpt lat="44.471585" lon="6.7636433"><ele>1308.0</ele><time>2026-05-03T12:56:09.275Z</time></trkpt><trkpt lat="44.471715" lon="6.76355"><ele>1308.25</ele><time>2026-05-03T12:56:10.275Z</time></trkpt><trkpt lat="44.471835" lon="6.7634567"><ele>1308.5</ele><time>2026-05-03T12:56:11.275Z</time></trkpt><trkpt lat="44.471965" lon="6.76337"><ele>1308.75</ele><time>2026-05-03T12:56:12.275Z</time></trkpt><trkpt lat="44.4720967" lon="6.7632817"><ele>1309.0</ele><time>2026-05-03T12:56:13.276Z</time></trkpt><trkpt lat="44.4722317" lon="6.7632083"><ele>1309.0</ele><time>2026-05-03T12:56:14.275Z</time></trkpt><trkpt lat="44.47237" lon="6.76317"><ele>1309.0</ele><time>2026-05-03T12:56:15.275Z</time></trkpt><trkpt lat="44.47252" lon="6.7631633"><ele>1309.0</ele><time>2026-05-03T12:56:16.275Z</time></trkpt><trkpt lat="44.4726683" lon="6.7631967"><ele>1309.0</ele><time>2026-05-03T12:56:17.275Z</time></trkpt><trkpt lat="44.4727983" lon="6.76325"><ele>1309.0</ele><time>2026-05-03T12:56:18.275Z</time></trkpt><trkpt lat="44.47292" lon="6.7633233"><ele>1309.0</ele><time>2026-05-03T12:56:19.275Z</time></trkpt><trkpt lat="44.4730217" lon="6.7634367"><ele>1309.0</ele><time>2026-05-03T12:56:20.275Z</time></trkpt><trkpt lat="44.4731233" lon="6.7635617"><ele>1309.0</ele><time>2026-05-03T12:56:21.275Z</time></trkpt><trkpt lat="44.473215" lon="6.7637117"><ele>1310.0</ele><time>2026-05-03T12:56:22.275Z</time></trkpt><trkpt lat="44.4733067" lon="6.7638683"><ele>1311.0</ele><time>2026-05-03T12:56:23.275Z</time></trkpt><trkpt lat="44.4734017" lon="6.7640317"><ele>1312.0</ele><time>2026-05-03T12:56:24.276Z</time></trkpt><trkpt lat="44.4734933" lon="6.7641917"><ele>1313.0</ele><time>2026-05-03T12:56:25.275Z</time></trkpt><trkpt lat="44.473585" lon="6.7643583"><ele>1313.3333333333335</ele><time>2026-05-03T12:56:26.275Z</time></trkpt><trkpt lat="44.4736817" lon="6.7645317"><ele>1313.6666666666667</ele><time>2026-05-03T12:56:27.275Z</time></trkpt><trkpt lat="44.4737767" lon="6.7647067"><ele>1314.0</ele><time>2026-05-03T12:56:28.276Z</time></trkpt><trkpt lat="44.4738717" lon="6.7648817"><ele>1315.3333333333333</ele><time>2026-05-03T12:56:29.275Z</time></trkpt><trkpt lat="44.4739633" lon="6.7650583"><ele>1316.6666666666665</ele><time>2026-05-03T12:56:30.275Z</time></trkpt><trkpt lat="44.4740533" lon="6.7652317"><ele>1318.0</ele><time>2026-05-03T12:56:31.275Z</time></trkpt><trkpt lat="44.4741417" lon="6.7653967"><ele>1318.5</ele><time>2026-05-03T12:56:32.276Z</time></trkpt><trkpt lat="44.474245" lon="6.7655417"><ele>1319.0</ele><time>2026-05-03T12:56:33.276Z</time></trkpt><trkpt lat="44.47436" lon="6.765675"><ele>1319.5</ele><time>2026-05-03T12:56:34.275Z</time></trkpt><trkpt lat="44.4744967" lon="6.76576"><ele>1320.0</ele><time>2026-05-03T12:56:35.275Z</time></trkpt><trkpt lat="44.4746383" lon="6.7658167"><ele>1321.0</ele><time>2026-05-03T12:56:36.275Z</time></trkpt><trkpt lat="44.47479" lon="6.7658467"><ele>1322.0</ele><time>2026-05-03T12:56:37.276Z</time></trkpt><trkpt lat="44.47495" lon="6.7658367"><ele>1323.0</ele><time>2026-05-03T12:56:38.276Z</time></trkpt><trkpt lat="44.475115" lon="6.7658083"><ele>1323.0</ele><time>2026-05-03T12:56:39.275Z</time></trkpt><trkpt lat="44.4752783" lon="6.7657567"><ele>1323.0</ele><time>2026-05-03T12:56:40.275Z</time></trkpt><trkpt lat="44.47544" lon="6.765685"><ele>1323.0</ele><time>2026-05-03T12:56:41.275Z</time></trkpt><trkpt lat="44.4755967" lon="6.7655833"><ele>1322.6666666666667</ele><time>2026-05-03T12:56:42.275Z</time></trkpt><trkpt lat="44.475745" lon="6.7654633"><ele>1322.3333333333335</ele><time>2026-05-03T12:56:43.275Z</time></trkpt><trkpt lat="44.4758933" lon="6.765325"><ele>1322.0</ele><time>2026-05-03T12:56:44.275Z</time></trkpt><trkpt lat="44.4760383" lon="6.7651817"><ele>1321.0</ele><time>2026-05-03T12:56:45.275Z</time></trkpt><trkpt lat="44.4761783" lon="6.765055"><ele>1320.0</ele><time>2026-05-03T12:56:46.275Z</time></trkpt><trkpt lat="44.4763067" lon="6.7649217"><ele>1319.0</ele><time>2026-05-03T12:56:47.276Z</time></trkpt><trkpt lat="44.4764283" lon="6.7647683"><ele>1322.5</ele><time>2026-05-03T12:56:48.275Z</time></trkpt><trkpt lat="44.4765267" lon="6.764615"><ele>1326.0</ele><time>2026-05-03T12:56:49.275Z</time></trkpt><trkpt lat="44.4765933" lon="6.76444"><ele>1329.5</ele><time>2026-05-03T12:56:50.275Z</time></trkpt><trkpt lat="44.4766433" lon="6.7642467"><ele>1333.0</ele><time>2026-05-03T12:56:51.275Z</time></trkpt><trkpt lat="44.4766717" lon="6.7640433"><ele>1333.0</ele><time>2026-05-03T12:56:52.275Z</time></trkpt><trkpt lat="44.47672" lon="6.7638517"><ele>1333.0</ele><time>2026-05-03T12:56:53.275Z</time></trkpt><trkpt lat="44.476785" lon="6.76367"><ele>1333.0</ele><time>2026-05-03T12:56:54.275Z</time></trkpt><trkpt lat="44.47687" lon="6.763495"><ele>1333.0</ele><time>2026-05-03T12:56:55.275Z</time></trkpt><trkpt lat="44.4769617" lon="6.7633283"><ele>1330.3333333333333</ele><time>2026-05-03T12:56:56.275Z</time></trkpt><trkpt lat="44.47705" lon="6.7631383"><ele>1327.6666666666667</ele><time>2026-05-03T12:56:57.275Z</time></trkpt><trkpt lat="44.4771433" lon="6.7629367"><ele>1325.0</ele><time>2026-05-03T12:56:58.276Z</time></trkpt><trkpt lat="44.477245" lon="6.762745"><ele>1330.3333333333335</ele><time>2026-05-03T12:56:59.275Z</time></trkpt><trkpt lat="44.4773583" lon="6.7625683"><ele>1335.6666666666667</ele><time>2026-05-03T12:57:00.275Z</time></trkpt><trkpt lat="44.47747" lon="6.7624033"><ele>1341.0</ele><time>2026-05-03T12:57:01.275Z</time></trkpt><trkpt lat="44.4775717" lon="6.7622283"><ele>1341.0</ele><time>2026-05-03T12:57:02.275Z</time></trkpt><trkpt lat="44.4776617" lon="6.76206"><ele>1341.0</ele><time>2026-05-03T12:57:03.275Z</time></trkpt><trkpt lat="44.4777583" lon="6.761885"><ele>1341.0</ele><time>2026-05-03T12:57:04.275Z</time></trkpt><trkpt lat="44.477865" lon="6.7617267"><ele>1344.3333333333333</ele><time>2026-05-03T12:57:05.275Z</time></trkpt><trkpt lat="44.4779817" lon="6.7615933"><ele>1347.6666666666665</ele><time>2026-05-03T12:57:06.275Z</time></trkpt><trkpt lat="44.478115" lon="6.7614567"><ele>1351.0</ele><time>2026-05-03T12:57:07.275Z</time></trkpt><trkpt lat="44.4782467" lon="6.7613533"><ele>1351.0</ele><time>2026-05-03T12:57:08.275Z</time></trkpt><trkpt lat="44.47837" lon="6.761235"><ele>1351.0</ele><time>2026-05-03T12:57:09.275Z</time></trkpt><trkpt lat="44.4784733" lon="6.76109"><ele>1351.0</ele><time>2026-05-03T12:57:10.275Z</time></trkpt><trkpt lat="44.4785533" lon="6.76093"><ele>1351.0</ele><time>2026-05-03T12:57:11.275Z</time></trkpt><trkpt lat="44.4786183" lon="6.7607483"><ele>1352.6666666666665</ele><time>2026-05-03T12:57:12.275Z</time></trkpt><trkpt lat="44.47869" lon="6.7605467"><ele>1354.3333333333333</ele><time>2026-05-03T12:57:13.275Z</time></trkpt><trkpt lat="44.4787733" lon="6.7603467"><ele>1356.0</ele><time>2026-05-03T12:57:14.275Z</time></trkpt><trkpt lat="44.478865" lon="6.7601667"><ele>1356.0</ele><time>2026-05-03T12:57:15.275Z</time></trkpt><trkpt lat="44.4789767" lon="6.76002"><ele>1356.0</ele><time>2026-05-03T12:57:16.275Z</time></trkpt><trkpt lat="44.4791" lon="6.7598783"><ele>1356.0</ele><time>2026-05-03T12:57:17.275Z</time></trkpt><trkpt lat="44.4792267" lon="6.7597483"><ele>1356.0</ele><time>2026-05-03T12:57:18.275Z</time></trkpt><trkpt lat="44.4793583" lon="6.7596083"><ele>1356.0</ele><time>2026-05-03T12:57:19.275Z</time></trkpt><trkpt lat="44.4794633" lon="6.759455"><ele>1356.0</ele><time>2026-05-03T12:57:20.275Z</time></trkpt><trkpt lat="44.4795567" lon="6.7592933"><ele>1358.25</ele><time>2026-05-03T12:57:21.275Z</time></trkpt><trkpt lat="44.4796467" lon="6.759135"><ele>1360.5</ele><time>2026-05-03T12:57:22.275Z</time></trkpt><trkpt lat="44.479715" lon="6.7589783"><ele>1362.75</ele><time>2026-05-03T12:57:23.275Z</time></trkpt><trkpt lat="44.479775" lon="6.7588283"><ele>1365.0</ele><time>2026-05-03T12:57:24.275Z</time></trkpt><trkpt lat="44.4798333" lon="6.7586817"><ele>1365.0</ele><time>2026-05-03T12:57:25.275Z</time></trkpt><trkpt lat="44.4798933" lon="6.7585467"><ele>1365.0</ele><time>2026-05-03T12:57:26.275Z</time></trkpt><trkpt lat="44.4799567" lon="6.7584433"><ele>1365.0</ele><time>2026-05-03T12:57:27.275Z</time></trkpt><trkpt lat="44.48003" lon="6.7583733"><ele>1365.0</ele><time>2026-05-03T12:57:28.275Z</time></trkpt><trkpt lat="44.4801067" lon="6.7583667"><ele>1365.0</ele><time>2026-05-03T12:57:29.275Z</time></trkpt><trkpt lat="44.480165" lon="6.7584033"><ele>1365.0</ele><time>2026-05-03T12:57:30.275Z</time></trkpt><trkpt lat="44.4802033" lon="6.758495"><ele>1365.0</ele><time>2026-05-03T12:57:31.276Z</time></trkpt><trkpt lat="44.480225" lon="6.758625"><ele>1365.0</ele><time>2026-05-03T12:57:32.275Z</time></trkpt><trkpt lat="44.480195" lon="6.7587983"><ele>1365.0</ele><time>2026-05-03T12:57:33.275Z</time></trkpt><trkpt lat="44.4801117" lon="6.758965"><ele>1365.0</ele><time>2026-05-03T12:57:34.276Z</time></trkpt><trkpt lat="44.479995" lon="6.7591183"><ele>1365.0</ele><time>2026-05-03T12:57:35.275Z</time></trkpt><trkpt lat="44.4798667" lon="6.75926"><ele>1365.0</ele><time>2026-05-03T12:57:36.275Z</time></trkpt><trkpt lat="44.4797567" lon="6.759415"><ele>1365.0</ele><time>2026-05-03T12:57:37.275Z</time></trkpt><trkpt lat="44.4796567" lon="6.7595967"><ele>1362.0</ele><time>2026-05-03T12:57:38.275Z</time></trkpt><trkpt lat="44.47956" lon="6.7597867"><ele>1359.0</ele><time>2026-05-03T12:57:39.275Z</time></trkpt><trkpt lat="44.4794667" lon="6.7599867"><ele>1356.0</ele><time>2026-05-03T12:57:40.275Z</time></trkpt><trkpt lat="44.47938" lon="6.7601883"><ele>1359.6666666666667</ele><time>2026-05-03T12:57:41.275Z</time></trkpt><trkpt lat="44.4793067" lon="6.7604033"><ele>1363.3333333333335</ele><time>2026-05-03T12:57:42.275Z</time></trkpt><trkpt lat="44.4792267" lon="6.7606167"><ele>1367.0</ele><time>2026-05-03T12:57:43.275Z</time></trkpt><trkpt lat="44.4791533" lon="6.760835"><ele>1370.0</ele><time>2026-05-03T12:57:44.276Z</time></trkpt><trkpt lat="44.4791017" lon="6.7610583"><ele>1373.0</ele><time>2026-05-03T12:57:45.275Z</time></trkpt><trkpt lat="44.4790567" lon="6.7612883"><ele>1376.0</ele><time>2026-05-03T12:57:46.275Z</time></trkpt><trkpt lat="44.479005" lon="6.7615167"><ele>1376.0</ele><time>2026-05-03T12:57:47.275Z</time></trkpt><trkpt lat="44.478965" lon="6.7617533"><ele>1376.0</ele><time>2026-05-03T12:57:48.275Z</time></trkpt><trkpt lat="44.478905" lon="6.7619633"><ele>1376.0</ele><time>2026-05-03T12:57:49.275Z</time></trkpt><trkpt lat="44.4788183" lon="6.7621767"><ele>1377.0</ele><time>2026-05-03T12:57:50.276Z</time></trkpt><trkpt lat="44.4787217" lon="6.7623733"><ele>1378.0</ele><time>2026-05-03T12:57:51.275Z</time></trkpt><trkpt lat="44.4786283" lon="6.7625717"><ele>1379.0</ele><time>2026-05-03T12:57:52.276Z</time></trkpt><trkpt lat="44.4785483" lon="6.7627867"><ele>1379.0</ele><time>2026-05-03T12:57:53.276Z</time></trkpt><trkpt lat="44.4784867" lon="6.7630133"><ele>1379.0</ele><time>2026-05-03T12:57:54.277Z</time></trkpt><trkpt lat="44.4784367" lon="6.7632467"><ele>1379.0</ele><time>2026-05-03T12:57:55.277Z</time></trkpt><trkpt lat="44.4783683" lon="6.763475"><ele>1384.0</ele><time>2026-05-03T12:57:56.276Z</time></trkpt><trkpt lat="44.4782933" lon="6.7637033"><ele>1389.0</ele><time>2026-05-03T12:57:57.276Z</time></trkpt><trkpt lat="44.4782117" lon="6.763915"><ele>1394.0</ele><time>2026-05-03T12:57:58.276Z</time></trkpt><trkpt lat="44.4781267" lon="6.7641167"><ele>1394.0</ele><time>2026-05-03T12:57:59.276Z</time></trkpt><trkpt lat="44.4780233" lon="6.7643067"><ele>1394.0</ele><time>2026-05-03T12:58:00.276Z</time></trkpt><trkpt lat="44.4779067" lon="6.7644833"><ele>1394.0</ele><time>2026-05-03T12:58:01.276Z</time></trkpt><trkpt lat="44.477795" lon="6.7646883"><ele>1393.6666666666667</ele><time>2026-05-03T12:58:02.276Z</time></trkpt><trkpt lat="44.4777017" lon="6.7649167"><ele>1393.3333333333333</ele><time>2026-05-03T12:58:03.276Z</time></trkpt><trkpt lat="44.4776167" lon="6.7651333"><ele>1393.0</ele><time>2026-05-03T12:58:04.276Z</time></trkpt><trkpt lat="44.477545" lon="6.7653583"><ele>1393.0</ele><time>2026-05-03T12:58:05.276Z</time></trkpt><trkpt lat="44.4774833" lon="6.7655867"><ele>1393.0</ele><time>2026-05-03T12:58:06.276Z</time></trkpt><trkpt lat="44.4774267" lon="6.7658167"><ele>1393.0</ele><time>2026-05-03T12:58:07.276Z</time></trkpt><trkpt lat="44.4773717" lon="6.76604"><ele>1399.6666666666665</ele><time>2026-05-03T12:58:08.276Z</time></trkpt><trkpt lat="44.4773083" lon="6.7662433"><ele>1406.3333333333333</ele><time>2026-05-03T12:58:09.276Z</time></trkpt><trkpt lat="44.47722" lon="6.7664417"><ele>1413.0</ele><time>2026-05-03T12:58:10.276Z</time></trkpt><trkpt lat="44.477125" lon="6.7666267"><ele>1401.3333333333333</ele><time>2026-05-03T12:58:11.277Z</time></trkpt><trkpt lat="44.4770383" lon="6.7668283"><ele>1389.6666666666665</ele><time>2026-05-03T12:58:12.276Z</time></trkpt><trkpt lat="44.47698" lon="6.7670317"><ele>1378.0</ele><time>2026-05-03T12:58:13.277Z</time></trkpt><trkpt lat="44.47692" lon="6.7672467"><ele>1378.0</ele><time>2026-05-03T12:58:14.276Z</time></trkpt><trkpt lat="44.47684" lon="6.7674383"><ele>1378.0</ele><time>2026-05-03T12:58:15.276Z</time></trkpt><trkpt lat="44.4767483" lon="6.76761"><ele>1378.0</ele><time>2026-05-03T12:58:16.276Z</time></trkpt><trkpt lat="44.4766383" lon="6.767765"><ele>1387.25</ele><time>2026-05-03T12:58:17.276Z</time></trkpt><trkpt lat="44.4765333" lon="6.7679117"><ele>1396.5</ele><time>2026-05-03T12:58:18.276Z</time></trkpt><trkpt lat="44.4764417" lon="6.7680617"><ele>1405.75</ele><time>2026-05-03T12:58:19.276Z</time></trkpt><trkpt lat="44.47637" lon="6.7682267"><ele>1415.0</ele><time>2026-05-03T12:58:20.276Z</time></trkpt><trkpt lat="44.4763067" lon="6.7683783"><ele>1404.2</ele><time>2026-05-03T12:58:21.276Z</time></trkpt><trkpt lat="44.47626" lon="6.7685317"><ele>1393.4</ele><time>2026-05-03T12:58:22.276Z</time></trkpt><trkpt lat="44.4762267" lon="6.7686567"><ele>1382.6</ele><time>2026-05-03T12:58:23.277Z</time></trkpt><trkpt lat="44.4762033" lon="6.768775"><ele>1371.8</ele><time>2026-05-03T12:58:24.276Z</time></trkpt><trkpt lat="44.4761833" lon="6.7688883"><ele>1361.0</ele><time>2026-05-03T12:58:25.276Z</time></trkpt><trkpt lat="44.4761617" lon="6.7689867"><ele>1361.0</ele><time>2026-05-03T12:58:26.276Z</time></trkpt><trkpt lat="44.4761217" lon="6.7691383"><ele>1361.0</ele><time>2026-05-03T12:58:28.277Z</time></trkpt><trkpt lat="44.4761033" lon="6.7692433"><ele>1361.0</ele><time>2026-05-03T12:58:30.276Z</time></trkpt><trkpt lat="44.47609" lon="6.7693567"><ele>1361.0</ele><time>2026-05-03T13:03:38.276Z</time></trkpt><trkpt lat="44.4760867" lon="6.7694983"><ele>1361.0</ele><time>2026-05-03T13:03:40.276Z</time></trkpt><trkpt lat="44.4760917" lon="6.7695967"><ele>1361.0</ele><time>2026-05-03T13:03:41.277Z</time></trkpt><trkpt lat="44.4760983" lon="6.7696983"><ele>1360.5</ele><time>2026-05-03T13:03:42.276Z</time></trkpt><trkpt lat="44.4761117" lon="6.7698217"><ele>1360.0</ele><time>2026-05-03T13:03:43.276Z</time></trkpt><trkpt lat="44.4761333" lon="6.769945"><ele>1359.5</ele><time>2026-05-03T13:03:44.276Z</time></trkpt><trkpt lat="44.476155" lon="6.7700617"><ele>1359.0</ele><time>2026-05-03T13:03:45.277Z</time></trkpt><trkpt lat="44.476175" lon="6.770175"><ele>1358.5</ele><time>2026-05-03T13:03:46.276Z</time></trkpt><trkpt lat="44.4762033" lon="6.7702933"><ele>1358.0</ele><time>2026-05-03T13:03:47.277Z</time></trkpt><trkpt lat="44.4762417" lon="6.7704133"><ele>1358.0</ele><time>2026-05-03T13:03:48.276Z</time></trkpt><trkpt lat="44.476295" lon="6.7705317"><ele>1358.0</ele><time>2026-05-03T13:03:49.276Z</time></trkpt><trkpt lat="44.47636" lon="6.7706567"><ele>1358.0</ele><time>2026-05-03T13:03:50.276Z</time></trkpt><trkpt lat="44.4764233" lon="6.770795"><ele>1358.0</ele><time>2026-05-03T13:03:51.276Z</time></trkpt><trkpt lat="44.4764817" lon="6.77094"><ele>1358.0</ele><time>2026-05-03T13:03:52.276Z</time></trkpt><trkpt lat="44.4765317" lon="6.7710967"><ele>1358.0</ele><time>2026-05-03T13:03:53.276Z</time></trkpt><trkpt lat="44.4765817" lon="6.7712583"><ele>1358.0</ele><time>2026-05-03T13:03:54.276Z</time></trkpt><trkpt lat="44.4766167" lon="6.7714283"><ele>1358.0</ele><time>2026-05-03T13:03:55.276Z</time></trkpt><trkpt lat="44.4766483" lon="6.7715833"><ele>1358.0</ele><time>2026-05-03T13:03:56.277Z</time></trkpt><trkpt lat="44.47668" lon="6.771735"><ele>1371.25</ele><time>2026-05-03T13:03:57.276Z</time></trkpt><trkpt lat="44.4767" lon="6.7718717"><ele>1384.5</ele><time>2026-05-03T13:03:58.276Z</time></trkpt><trkpt lat="44.47671" lon="6.7720383"><ele>1397.75</ele><time>2026-05-03T13:03:59.277Z</time></trkpt><trkpt lat="44.476705" lon="6.772225"><ele>1411.0</ele><time>2026-05-03T13:04:00.276Z</time></trkpt><trkpt lat="44.4766767" lon="6.7723867"><ele>1411.0</ele><time>2026-05-03T13:04:01.276Z</time></trkpt><trkpt lat="44.4766317" lon="6.77252"><ele>1411.0</ele><time>2026-05-03T13:04:02.276Z</time></trkpt><trkpt lat="44.476585" lon="6.7726467"><ele>1411.0</ele><time>2026-05-03T13:04:03.276Z</time></trkpt><trkpt lat="44.4765333" lon="6.7727717"><ele>1411.0</ele><time>2026-05-03T13:04:04.276Z</time></trkpt><trkpt lat="44.47649" lon="6.7729067"><ele>1411.0</ele><time>2026-05-03T13:04:05.276Z</time></trkpt><trkpt lat="44.47645" lon="6.7730433"><ele>1414.5</ele><time>2026-05-03T13:04:06.276Z</time></trkpt><trkpt lat="44.476415" lon="6.7732033"><ele>1418.0</ele><time>2026-05-03T13:04:07.276Z</time></trkpt><trkpt lat="44.4764017" lon="6.7733833"><ele>1421.5</ele><time>2026-05-03T13:04:08.277Z</time></trkpt><trkpt lat="44.4763883" lon="6.7735667"><ele>1425.0</ele><time>2026-05-03T13:04:09.276Z</time></trkpt><trkpt lat="44.4763833" lon="6.7737417"><ele>1429.0</ele><time>2026-05-03T13:04:10.276Z</time></trkpt><trkpt lat="44.4763733" lon="6.773915"><ele>1433.0</ele><time>2026-05-03T13:04:11.277Z</time></trkpt><trkpt lat="44.4763683" lon="6.7740967"><ele>1437.0</ele><time>2026-05-03T13:04:12.276Z</time></trkpt><trkpt lat="44.47637" lon="6.77428"><ele>1441.0</ele><time>2026-05-03T13:04:13.276Z</time></trkpt><trkpt lat="44.4763733" lon="6.7744617"><ele>1441.0</ele><time>2026-05-03T13:04:14.276Z</time></trkpt><trkpt lat="44.476385" lon="6.7746283"><ele>1441.0</ele><time>2026-05-03T13:04:15.276Z</time></trkpt><trkpt lat="44.4763967" lon="6.7747783"><ele>1441.0</ele><time>2026-05-03T13:04:16.276Z</time></trkpt><trkpt lat="44.4764183" lon="6.77491"><ele>1441.0</ele><time>2026-05-03T13:04:17.276Z</time></trkpt><trkpt lat="44.4764483" lon="6.7750383"><ele>1441.0</ele><time>2026-05-03T13:04:18.276Z</time></trkpt><trkpt lat="44.4764717" lon="6.7751817"><ele>1439.4</ele><time>2026-05-03T13:04:19.276Z</time></trkpt><trkpt lat="44.4765117" lon="6.7753017"><ele>1437.8</ele><time>2026-05-03T13:04:20.276Z</time></trkpt><trkpt lat="44.4765717" lon="6.77542"><ele>1436.2</ele><time>2026-05-03T13:04:21.277Z</time></trkpt><trkpt lat="44.47664" lon="6.7755417"><ele>1434.6000000000001</ele><time>2026-05-03T13:04:22.276Z</time></trkpt><trkpt lat="44.4766867" lon="6.7756517"><ele>1433.0</ele><time>2026-05-03T13:04:23.276Z</time></trkpt><trkpt lat="44.4767167" lon="6.7757567"><ele>1433.0</ele><time>2026-05-03T13:04:24.277Z</time></trkpt><trkpt lat="44.4767333" lon="6.7758683"><ele>1433.0</ele><time>2026-05-03T13:04:25.276Z</time></trkpt><trkpt lat="44.4767317" lon="6.776"><ele>1433.0</ele><time>2026-05-03T13:04:26.276Z</time></trkpt><trkpt lat="44.476685" lon="6.7761283"><ele>1433.0</ele><time>2026-05-03T13:04:27.276Z</time></trkpt><trkpt lat="44.4766117" lon="6.7762317"><ele>1433.0</ele><time>2026-05-03T13:04:28.277Z</time></trkpt><trkpt lat="44.4765483" lon="6.7763533"><ele>1432.8000000000002</ele><time>2026-05-03T13:04:29.276Z</time></trkpt><trkpt lat="44.476505" lon="6.7764683"><ele>1432.6</ele><time>2026-05-03T13:04:30.276Z</time></trkpt><trkpt lat="44.4764883" lon="6.7766033"><ele>1432.4</ele><time>2026-05-03T13:04:31.276Z</time></trkpt><trkpt lat="44.4765033" lon="6.7767433"><ele>1432.1999999999998</ele><time>2026-05-03T13:04:32.276Z</time></trkpt><trkpt lat="44.476525" lon="6.7768817"><ele>1432.0</ele><time>2026-05-03T13:04:33.276Z</time></trkpt><trkpt lat="44.4765617" lon="6.7770217"><ele>1433.0</ele><time>2026-05-03T13:04:34.276Z</time></trkpt><trkpt lat="44.4765933" lon="6.7771783"><ele>1434.0</ele><time>2026-05-03T13:04:35.276Z</time></trkpt><trkpt lat="44.4766167" lon="6.77735"><ele>1435.0</ele><time>2026-05-03T13:04:36.276Z</time></trkpt><trkpt lat="44.4766283" lon="6.7775217"><ele>1436.0</ele><time>2026-05-03T13:04:37.276Z</time></trkpt><trkpt lat="44.4766383" lon="6.7777033"><ele>1437.3333333333335</ele><time>2026-05-03T13:04:38.276Z</time></trkpt><trkpt lat="44.4766317" lon="6.7779017"><ele>1438.6666666666667</ele><time>2026-05-03T13:04:39.276Z</time></trkpt><trkpt lat="44.4766233" lon="6.7781233"><ele>1440.0</ele><time>2026-05-03T13:04:40.277Z</time></trkpt><trkpt lat="44.476615" lon="6.7783333"><ele>1442.3333333333333</ele><time>2026-05-03T13:04:41.276Z</time></trkpt><trkpt lat="44.476615" lon="6.7785417"><ele>1444.6666666666665</ele><time>2026-05-03T13:04:42.276Z</time></trkpt><trkpt lat="44.4766267" lon="6.7787533"><ele>1447.0</ele><time>2026-05-03T13:04:43.276Z</time></trkpt><trkpt lat="44.4766383" lon="6.778965"><ele>1447.0</ele><time>2026-05-03T13:04:44.276Z</time></trkpt><trkpt lat="44.4766467" lon="6.779165"><ele>1447.0</ele><time>2026-05-03T13:04:45.276Z</time></trkpt><trkpt lat="44.4766467" lon="6.7793583"><ele>1447.0</ele><time>2026-05-03T13:04:46.276Z</time></trkpt><trkpt lat="44.4766367" lon="6.779535"><ele>1447.0</ele><time>2026-05-03T13:04:47.276Z</time></trkpt><trkpt lat="44.4766067" lon="6.7797167"><ele>1447.25</ele><time>2026-05-03T13:04:48.276Z</time></trkpt><trkpt lat="44.476565" lon="6.7799"><ele>1447.5</ele><time>2026-05-03T13:04:49.276Z</time></trkpt><trkpt lat="44.47654" lon="6.7800833"><ele>1447.75</ele><time>2026-05-03T13:04:50.276Z</time></trkpt><trkpt lat="44.47653" lon="6.7802583"><ele>1448.0</ele><time>2026-05-03T13:04:51.276Z</time></trkpt><trkpt lat="44.47653" lon="6.78043"><ele>1449.75</ele><time>2026-05-03T13:04:52.276Z</time></trkpt><trkpt lat="44.47652" lon="6.7806"><ele>1451.5</ele><time>2026-05-03T13:04:53.276Z</time></trkpt><trkpt lat="44.476495" lon="6.7807667"><ele>1453.25</ele><time>2026-05-03T13:04:54.276Z</time></trkpt><trkpt lat="44.476475" lon="6.78093"><ele>1455.0</ele><time>2026-05-03T13:04:55.276Z</time></trkpt><trkpt lat="44.47647" lon="6.7811017"><ele>1455.0</ele><time>2026-05-03T13:04:56.277Z</time></trkpt><trkpt lat="44.4764867" lon="6.7812833"><ele>1455.0</ele><time>2026-05-03T13:04:57.276Z</time></trkpt><trkpt lat="44.476515" lon="6.7814683"><ele>1455.0</ele><time>2026-05-03T13:04:58.277Z</time></trkpt><trkpt lat="44.4765267" lon="6.7816567"><ele>1455.0</ele><time>2026-05-03T13:04:59.276Z</time></trkpt><trkpt lat="44.4765283" lon="6.781835"><ele>1453.5</ele><time>2026-05-03T13:05:00.276Z</time></trkpt><trkpt lat="44.4765117" lon="6.7820233"><ele>1452.0</ele><time>2026-05-03T13:05:01.276Z</time></trkpt><trkpt lat="44.476505" lon="6.7822117"><ele>1450.5</ele><time>2026-05-03T13:05:02.276Z</time></trkpt><trkpt lat="44.476505" lon="6.7823983"><ele>1449.0</ele><time>2026-05-03T13:05:03.277Z</time></trkpt><trkpt lat="44.4765033" lon="6.7825917"><ele>1446.0</ele><time>2026-05-03T13:05:04.277Z</time></trkpt><trkpt lat="44.476525" lon="6.7827717"><ele>1443.0</ele><time>2026-05-03T13:05:05.276Z</time></trkpt><trkpt lat="44.4765483" lon="6.7829667"><ele>1440.0</ele><time>2026-05-03T13:05:06.276Z</time></trkpt><trkpt lat="44.47657" lon="6.783155"><ele>1437.0</ele><time>2026-05-03T13:05:07.277Z</time></trkpt><trkpt lat="44.4765933" lon="6.7833767"><ele>1437.0</ele><time>2026-05-03T13:05:08.276Z</time></trkpt><trkpt lat="44.4766133" lon="6.7835883"><ele>1437.0</ele><time>2026-05-03T13:05:09.276Z</time></trkpt><trkpt lat="44.4766167" lon="6.7838217"><ele>1437.0</ele><time>2026-05-03T13:05:10.276Z</time></trkpt><trkpt lat="44.4766283" lon="6.7840467"><ele>1436.5</ele><time>2026-05-03T13:05:11.276Z</time></trkpt><trkpt lat="44.4766483" lon="6.78425"><ele>1436.0</ele><time>2026-05-03T13:05:12.276Z</time></trkpt><trkpt lat="44.4766783" lon="6.7844583"><ele>1435.5</ele><time>2026-05-03T13:05:13.276Z</time></trkpt><trkpt lat="44.47671" lon="6.7846633"><ele>1435.0</ele><time>2026-05-03T13:05:14.276Z</time></trkpt><trkpt lat="44.4767233" lon="6.7848617"><ele>1435.0</ele><time>2026-05-03T13:05:15.276Z</time></trkpt><trkpt lat="44.47673" lon="6.7850583"><ele>1435.0</ele><time>2026-05-03T13:05:16.276Z</time></trkpt><trkpt lat="44.476725" lon="6.78526"><ele>1435.0</ele><time>2026-05-03T13:05:17.276Z</time></trkpt><trkpt lat="44.47674" lon="6.785435"><ele>1435.0</ele><time>2026-05-03T13:05:18.276Z</time></trkpt><trkpt lat="44.476795" lon="6.7856033"><ele>1436.75</ele><time>2026-05-03T13:05:19.276Z</time></trkpt><trkpt lat="44.4768717" lon="6.78577"><ele>1438.5</ele><time>2026-05-03T13:05:20.276Z</time></trkpt><trkpt lat="44.4769483" lon="6.7859483"><ele>1440.25</ele><time>2026-05-03T13:05:21.276Z</time></trkpt><trkpt lat="44.4770133" lon="6.7861383"><ele>1442.0</ele><time>2026-05-03T13:05:22.276Z</time></trkpt><trkpt lat="44.477075" lon="6.7863383"><ele>1455.3333333333335</ele><time>2026-05-03T13:05:23.276Z</time></trkpt><trkpt lat="44.4771317" lon="6.7865333"><ele>1468.6666666666667</ele><time>2026-05-03T13:05:24.276Z</time></trkpt><trkpt lat="44.4772" lon="6.7867317"><ele>1482.0</ele><time>2026-05-03T13:05:25.276Z</time></trkpt><trkpt lat="44.47726" lon="6.786935"><ele>1482.0</ele><time>2026-05-03T13:05:26.276Z</time></trkpt><trkpt lat="44.47731" lon="6.7871283"><ele>1482.0</ele><time>2026-05-03T13:05:27.276Z</time></trkpt><trkpt lat="44.4773567" lon="6.7873267"><ele>1482.0</ele><time>2026-05-03T13:05:28.276Z</time></trkpt><trkpt lat="44.4773667" lon="6.7875483"><ele>1479.3333333333333</ele><time>2026-05-03T13:05:29.276Z</time></trkpt><trkpt lat="44.4773917" lon="6.787775"><ele>1476.6666666666665</ele><time>2026-05-03T13:05:30.276Z</time></trkpt><trkpt lat="44.4774333" lon="6.7880183"><ele>1474.0</ele><time>2026-05-03T13:05:31.276Z</time></trkpt><trkpt lat="44.477515" lon="6.78827"><ele>1471.0</ele><time>2026-05-03T13:05:32.277Z</time></trkpt><trkpt lat="44.4776083" lon="6.7885367"><ele>1468.0</ele><time>2026-05-03T13:05:33.276Z</time></trkpt><trkpt lat="44.4776983" lon="6.78879"><ele>1465.0</ele><time>2026-05-03T13:05:34.276Z</time></trkpt><trkpt lat="44.4777833" lon="6.78904"><ele>1465.0</ele><time>2026-05-03T13:05:35.276Z</time></trkpt><trkpt lat="44.4778583" lon="6.789275"><ele>1465.0</ele><time>2026-05-03T13:05:36.276Z</time></trkpt><trkpt lat="44.4778917" lon="6.7895317"><ele>1465.0</ele><time>2026-05-03T13:05:37.276Z</time></trkpt><trkpt lat="44.4779183" lon="6.789775"><ele>1464.6666666666665</ele><time>2026-05-03T13:05:38.276Z</time></trkpt><trkpt lat="44.4779117" lon="6.7900083"><ele>1464.3333333333333</ele><time>2026-05-03T13:05:39.276Z</time></trkpt><trkpt lat="44.4778967" lon="6.79024"><ele>1464.0</ele><time>2026-05-03T13:05:40.276Z</time></trkpt><trkpt lat="44.477865" lon="6.7904417"><ele>1466.0</ele><time>2026-05-03T13:05:41.276Z</time></trkpt><trkpt lat="44.4778467" lon="6.7906517"><ele>1468.0</ele><time>2026-05-03T13:05:42.276Z</time></trkpt><trkpt lat="44.4778817" lon="6.79086"><ele>1470.0</ele><time>2026-05-03T13:05:43.277Z</time></trkpt><trkpt lat="44.477955" lon="6.7910583"><ele>1476.6666666666667</ele><time>2026-05-03T13:05:44.276Z</time></trkpt><trkpt lat="44.4780483" lon="6.79124"><ele>1483.3333333333335</ele><time>2026-05-03T13:05:45.276Z</time></trkpt><trkpt lat="44.4781433" lon="6.79142"><ele>1490.0</ele><time>2026-05-03T13:05:46.276Z</time></trkpt><trkpt lat="44.4782417" lon="6.79159"><ele>1490.0</ele><time>2026-05-03T13:05:47.276Z</time></trkpt><trkpt lat="44.4783283" lon="6.7917433"><ele>1490.0</ele><time>2026-05-03T13:05:48.276Z</time></trkpt><trkpt lat="44.47839" lon="6.7918983"><ele>1490.0</ele><time>2026-05-03T13:05:49.276Z</time></trkpt><trkpt lat="44.4784233" lon="6.7920533"><ele>1490.0</ele><time>2026-05-03T13:05:50.277Z</time></trkpt><trkpt lat="44.4784233" lon="6.7922033"><ele>1489.0</ele><time>2026-05-03T13:05:51.276Z</time></trkpt><trkpt lat="44.4783933" lon="6.792335"><ele>1488.0</ele><time>2026-05-03T13:05:52.276Z</time></trkpt><trkpt lat="44.47833" lon="6.7924633"><ele>1487.0</ele><time>2026-05-03T13:05:53.276Z</time></trkpt><trkpt lat="44.4782383" lon="6.7925667"><ele>1486.0</ele><time>2026-05-03T13:05:54.276Z</time></trkpt><trkpt lat="44.4781367" lon="6.7926717"><ele>1487.75</ele><time>2026-05-03T13:05:55.276Z</time></trkpt><trkpt lat="44.4780217" lon="6.792765"><ele>1489.5</ele><time>2026-05-03T13:05:56.276Z</time></trkpt><trkpt lat="44.4778883" lon="6.7928517"><ele>1491.25</ele><time>2026-05-03T13:05:57.276Z</time></trkpt><trkpt lat="44.4777417" lon="6.7929383"><ele>1493.0</ele><time>2026-05-03T13:05:58.277Z</time></trkpt><trkpt lat="44.4775967" lon="6.7930083"><ele>1493.0</ele><time>2026-05-03T13:05:59.276Z</time></trkpt><trkpt lat="44.4774533" lon="6.7930817"><ele>1493.0</ele><time>2026-05-03T13:06:00.276Z</time></trkpt><trkpt lat="44.4773067" lon="6.7931767"><ele>1493.0</ele><time>2026-05-03T13:06:01.276Z</time></trkpt><trkpt lat="44.47716" lon="6.7933"><ele>1494.0</ele><time>2026-05-03T13:06:02.276Z</time></trkpt><trkpt lat="44.47702" lon="6.7934417"><ele>1495.0</ele><time>2026-05-03T13:06:03.276Z</time></trkpt><trkpt lat="44.4768783" lon="6.7935883"><ele>1496.0</ele><time>2026-05-03T13:06:04.276Z</time></trkpt><trkpt lat="44.4767367" lon="6.793735"><ele>1496.0</ele><time>2026-05-03T13:06:05.276Z</time></trkpt><trkpt lat="44.4765983" lon="6.7938833"><ele>1496.0</ele><time>2026-05-03T13:06:06.276Z</time></trkpt><trkpt lat="44.4764783" lon="6.794055"><ele>1496.0</ele><time>2026-05-03T13:06:07.276Z</time></trkpt><trkpt lat="44.4763683" lon="6.7942633"><ele>1500.3333333333335</ele><time>2026-05-03T13:06:08.276Z</time></trkpt><trkpt lat="44.4762883" lon="6.7944867"><ele>1504.6666666666667</ele><time>2026-05-03T13:06:09.276Z</time></trkpt><trkpt lat="44.4762217" lon="6.794725"><ele>1509.0</ele><time>2026-05-03T13:06:10.276Z</time></trkpt><trkpt lat="44.4761583" lon="6.7949467"><ele>1504.3333333333333</ele><time>2026-05-03T13:06:11.276Z</time></trkpt><trkpt lat="44.4761133" lon="6.7951967"><ele>1499.6666666666665</ele><time>2026-05-03T13:06:12.276Z</time></trkpt><trkpt lat="44.4760783" lon="6.7954283"><ele>1495.0</ele><time>2026-05-03T13:06:13.276Z</time></trkpt><trkpt lat="44.47603" lon="6.7956417"><ele>1495.0</ele><time>2026-05-03T13:06:14.276Z</time></trkpt><trkpt lat="44.4759733" lon="6.7958283"><ele>1495.0</ele><time>2026-05-03T13:06:15.276Z</time></trkpt><trkpt lat="44.475925" lon="6.7959817"><ele>1495.0</ele><time>2026-05-03T13:06:16.276Z</time></trkpt><trkpt lat="44.4759067" lon="6.7960933"><ele>1495.0</ele><time>2026-05-03T13:06:17.276Z</time></trkpt><trkpt lat="44.47592" lon="6.7961933"><ele>1495.0</ele><time>2026-05-03T13:06:18.276Z</time></trkpt><trkpt lat="44.476" lon="6.7962833"><ele>1495.0</ele><time>2026-05-03T13:06:20.276Z</time></trkpt><trkpt lat="44.4761167" lon="6.7962033"><ele>1495.0</ele><time>2026-05-03T13:06:22.276Z</time></trkpt><trkpt lat="44.47617" lon="6.7960767"><ele>1495.0</ele><time>2026-05-03T13:06:23.276Z</time></trkpt><trkpt lat="44.476225" lon="6.795925"><ele>1495.0</ele><time>2026-05-03T13:06:24.276Z</time></trkpt><trkpt lat="44.4762933" lon="6.79578"><ele>1500.25</ele><time>2026-05-03T13:06:25.276Z</time></trkpt><trkpt lat="44.476375" lon="6.795655"><ele>1505.5</ele><time>2026-05-03T13:06:26.276Z</time></trkpt><trkpt lat="44.4764617" lon="6.795515"><ele>1510.75</ele><time>2026-05-03T13:06:27.276Z</time></trkpt><trkpt lat="44.4765233" lon="6.7953667"><ele>1516.0</ele><time>2026-05-03T13:06:28.276Z</time></trkpt><trkpt lat="44.47657" lon="6.7952083"><ele>1514.6</ele><time>2026-05-03T13:06:29.276Z</time></trkpt><trkpt lat="44.476615" lon="6.7950667"><ele>1513.1999999999998</ele><time>2026-05-03T13:06:30.276Z</time></trkpt><trkpt lat="44.4766517" lon="6.79497"><ele>1511.8000000000002</ele><time>2026-05-03T13:06:31.276Z</time></trkpt><trkpt lat="44.4767" lon="6.7948867"><ele>1510.4</ele><time>2026-05-03T13:06:32.276Z</time></trkpt><trkpt lat="44.4767917" lon="6.794865"><ele>1509.0</ele><time>2026-05-03T13:06:34.276Z</time></trkpt><trkpt lat="44.4768217" lon="6.795035"><ele>1509.0</ele><time>2026-05-03T13:06:36.276Z</time></trkpt><trkpt lat="44.47678" lon="6.7951667"><ele>1509.0</ele><time>2026-05-03T13:06:37.276Z</time></trkpt><trkpt lat="44.47673" lon="6.7952983"><ele>1509.0</ele><time>2026-05-03T13:06:38.276Z</time></trkpt><trkpt lat="44.4766933" lon="6.7954567"><ele>1509.0</ele><time>2026-05-03T13:06:39.276Z</time></trkpt><trkpt lat="44.4766767" lon="6.7956417"><ele>1511.3333333333333</ele><time>2026-05-03T13:06:40.276Z</time></trkpt><trkpt lat="44.4766683" lon="6.7958633"><ele>1513.6666666666665</ele><time>2026-05-03T13:06:41.276Z</time></trkpt><trkpt lat="44.4766567" lon="6.7960683"><ele>1516.0</ele><time>2026-05-03T13:06:42.276Z</time></trkpt><trkpt lat="44.4766517" lon="6.7962767"><ele>1517.5</ele><time>2026-05-03T13:06:43.276Z</time></trkpt><trkpt lat="44.476645" lon="6.7964767"><ele>1519.0</ele><time>2026-05-03T13:06:44.276Z</time></trkpt><trkpt lat="44.4766267" lon="6.7966617"><ele>1520.5</ele><time>2026-05-03T13:06:45.276Z</time></trkpt><trkpt lat="44.4765933" lon="6.7968267"><ele>1522.0</ele><time>2026-05-03T13:06:46.276Z</time></trkpt><trkpt lat="44.476515" lon="6.796975"><ele>1524.75</ele><time>2026-05-03T13:06:47.276Z</time></trkpt><trkpt lat="44.4764117" lon="6.797095"><ele>1527.5</ele><time>2026-05-03T13:06:48.276Z</time></trkpt><trkpt lat="44.4763" lon="6.79719"><ele>1530.25</ele><time>2026-05-03T13:06:49.276Z</time></trkpt><trkpt lat="44.4761933" lon="6.79729"><ele>1533.0</ele><time>2026-05-03T13:06:50.277Z</time></trkpt><trkpt lat="44.4760983" lon="6.7974033"><ele>1530.25</ele><time>2026-05-03T13:06:51.276Z</time></trkpt><trkpt lat="44.4760267" lon="6.7975383"><ele>1527.5</ele><time>2026-05-03T13:06:52.276Z</time></trkpt><trkpt lat="44.4759767" lon="6.7976867"><ele>1524.75</ele><time>2026-05-03T13:06:53.276Z</time></trkpt><trkpt lat="44.475935" lon="6.7978433"><ele>1522.0</ele><time>2026-05-03T13:06:54.276Z</time></trkpt><trkpt lat="44.4759067" lon="6.7980017"><ele>1522.0</ele><time>2026-05-03T13:06:55.277Z</time></trkpt><trkpt lat="44.4758767" lon="6.7981583"><ele>1522.0</ele><time>2026-05-03T13:06:56.276Z</time></trkpt><trkpt lat="44.4758483" lon="6.7983183"><ele>1522.0</ele><time>2026-05-03T13:06:57.276Z</time></trkpt><trkpt lat="44.47583" lon="6.7984833"><ele>1522.0</ele><time>2026-05-03T13:06:58.276Z</time></trkpt><trkpt lat="44.4758033" lon="6.7986567"><ele>1524.25</ele><time>2026-05-03T13:06:59.276Z</time></trkpt><trkpt lat="44.4757667" lon="6.7988283"><ele>1526.5</ele><time>2026-05-03T13:07:00.276Z</time></trkpt><trkpt lat="44.4757217" lon="6.7989867"><ele>1528.75</ele><time>2026-05-03T13:07:01.276Z</time></trkpt><trkpt lat="44.4756633" lon="6.79913"><ele>1531.0</ele><time>2026-05-03T13:07:02.276Z</time></trkpt><trkpt lat="44.475585" lon="6.7992617"><ele>1532.5</ele><time>2026-05-03T13:07:03.277Z</time></trkpt><trkpt lat="44.475505" lon="6.799395"><ele>1534.0</ele><time>2026-05-03T13:07:04.276Z</time></trkpt><trkpt lat="44.47543" lon="6.7995233"><ele>1535.5</ele><time>2026-05-03T13:07:05.276Z</time></trkpt><trkpt lat="44.4753567" lon="6.7996633"><ele>1537.0</ele><time>2026-05-03T13:07:06.276Z</time></trkpt><trkpt lat="44.47529" lon="6.799815"><ele>1536.75</ele><time>2026-05-03T13:07:07.276Z</time></trkpt><trkpt lat="44.4752283" lon="6.7999833"><ele>1536.5</ele><time>2026-05-03T13:07:08.276Z</time></trkpt><trkpt lat="44.4751667" lon="6.8001633"><ele>1536.25</ele><time>2026-05-03T13:07:09.276Z</time></trkpt><trkpt lat="44.4751033" lon="6.8003567"><ele>1536.0</ele><time>2026-05-03T13:07:10.277Z</time></trkpt><trkpt lat="44.4750267" lon="6.80053"><ele>1536.0</ele><time>2026-05-03T13:07:11.276Z</time></trkpt><trkpt lat="44.4749267" lon="6.80071"><ele>1536.0</ele><time>2026-05-03T13:07:12.276Z</time></trkpt><trkpt lat="44.4748133" lon="6.8008767"><ele>1536.0</ele><time>2026-05-03T13:07:13.276Z</time></trkpt><trkpt lat="44.4746933" lon="6.8010283"><ele>1536.3333333333335</ele><time>2026-05-03T13:07:14.277Z</time></trkpt><trkpt lat="44.4745783" lon="6.8011883"><ele>1536.6666666666667</ele><time>2026-05-03T13:07:15.276Z</time></trkpt><trkpt lat="44.474455" lon="6.80134"><ele>1537.0</ele><time>2026-05-03T13:07:16.276Z</time></trkpt><trkpt lat="44.474325" lon="6.801485"><ele>1537.0</ele><time>2026-05-03T13:07:17.276Z</time></trkpt><trkpt lat="44.4741967" lon="6.80163"><ele>1537.0</ele><time>2026-05-03T13:07:18.276Z</time></trkpt><trkpt lat="44.4740717" lon="6.8017833"><ele>1537.0</ele><time>2026-05-03T13:07:19.276Z</time></trkpt><trkpt lat="44.4739517" lon="6.8019383"><ele>1540.6666666666667</ele><time>2026-05-03T13:07:20.276Z</time></trkpt><trkpt lat="44.4738367" lon="6.8020883"><ele>1544.3333333333335</ele><time>2026-05-03T13:07:21.276Z</time></trkpt><trkpt lat="44.47372" lon="6.8022467"><ele>1548.0</ele><time>2026-05-03T13:07:22.276Z</time></trkpt><trkpt lat="44.47361" lon="6.802405"><ele>1548.0</ele><time>2026-05-03T13:07:23.277Z</time></trkpt><trkpt lat="44.4735083" lon="6.8025667"><ele>1548.0</ele><time>2026-05-03T13:07:24.277Z</time></trkpt><trkpt lat="44.473415" lon="6.802745"><ele>1548.0</ele><time>2026-05-03T13:07:25.276Z</time></trkpt><trkpt lat="44.473335" lon="6.8029283"><ele>1551.6666666666665</ele><time>2026-05-03T13:07:26.277Z</time></trkpt><trkpt lat="44.4732617" lon="6.8031317"><ele>1555.3333333333333</ele><time>2026-05-03T13:07:27.277Z</time></trkpt><trkpt lat="44.473165" lon="6.8033467"><ele>1559.0</ele><time>2026-05-03T13:07:28.277Z</time></trkpt><trkpt lat="44.4730633" lon="6.8035783"><ele>1560.3333333333333</ele><time>2026-05-03T13:07:29.277Z</time></trkpt><trkpt lat="44.47295" lon="6.803795"><ele>1561.6666666666665</ele><time>2026-05-03T13:07:30.276Z</time></trkpt><trkpt lat="44.4728283" lon="6.8040017"><ele>1563.0</ele><time>2026-05-03T13:07:31.276Z</time></trkpt><trkpt lat="44.4726917" lon="6.804215"><ele>1561.3333333333335</ele><time>2026-05-03T13:07:32.276Z</time></trkpt><trkpt lat="44.4725617" lon="6.80443"><ele>1559.6666666666667</ele><time>2026-05-03T13:07:33.276Z</time></trkpt><trkpt lat="44.4724283" lon="6.8046417"><ele>1558.0</ele><time>2026-05-03T13:07:34.276Z</time></trkpt><trkpt lat="44.4722883" lon="6.80486"><ele>1558.0</ele><time>2026-05-03T13:07:35.276Z</time></trkpt><trkpt lat="44.4721483" lon="6.8050833"><ele>1558.0</ele><time>2026-05-03T13:07:36.276Z</time></trkpt><trkpt lat="44.4720133" lon="6.8053083"><ele>1558.0</ele><time>2026-05-03T13:07:37.276Z</time></trkpt><trkpt lat="44.4718817" lon="6.805525"><ele>1558.3333333333335</ele><time>2026-05-03T13:07:38.276Z</time></trkpt><trkpt lat="44.47175" lon="6.80574"><ele>1558.6666666666665</ele><time>2026-05-03T13:07:39.276Z</time></trkpt><trkpt lat="44.4716183" lon="6.8059517"><ele>1559.0</ele><time>2026-05-03T13:07:40.276Z</time></trkpt><trkpt lat="44.4714917" lon="6.8061617"><ele>1559.0</ele><time>2026-05-03T13:07:41.276Z</time></trkpt><trkpt lat="44.4713683" lon="6.8063667"><ele>1559.0</ele><time>2026-05-03T13:07:42.277Z</time></trkpt><trkpt lat="44.4712517" lon="6.80657"><ele>1559.0</ele><time>2026-05-03T13:07:43.276Z</time></trkpt><trkpt lat="44.471135" lon="6.806765"><ele>1556.3333333333333</ele><time>2026-05-03T13:07:44.276Z</time></trkpt><trkpt lat="44.4710267" lon="6.80697"><ele>1553.6666666666665</ele><time>2026-05-03T13:07:45.276Z</time></trkpt><trkpt lat="44.4709367" lon="6.8071917"><ele>1551.0</ele><time>2026-05-03T13:07:46.276Z</time></trkpt><trkpt lat="44.4708667" lon="6.80744"><ele>1552.3333333333335</ele><time>2026-05-03T13:07:47.276Z</time></trkpt><trkpt lat="44.4708033" lon="6.807695"><ele>1553.6666666666667</ele><time>2026-05-03T13:07:48.277Z</time></trkpt><trkpt lat="44.4707583" lon="6.8079583"><ele>1555.0</ele><time>2026-05-03T13:07:49.276Z</time></trkpt><trkpt lat="44.4707217" lon="6.8082283"><ele>1555.0</ele><time>2026-05-03T13:07:50.276Z</time></trkpt><trkpt lat="44.4706933" lon="6.80849"><ele>1555.0</ele><time>2026-05-03T13:07:51.277Z</time></trkpt><trkpt lat="44.4706633" lon="6.80876"><ele>1555.0</ele><time>2026-05-03T13:07:52.276Z</time></trkpt><trkpt lat="44.4706283" lon="6.80903"><ele>1554.3333333333335</ele><time>2026-05-03T13:07:53.277Z</time></trkpt><trkpt lat="44.470595" lon="6.8093017"><ele>1553.6666666666665</ele><time>2026-05-03T13:07:54.276Z</time></trkpt><trkpt lat="44.47056" lon="6.8095717"><ele>1553.0</ele><time>2026-05-03T13:07:55.276Z</time></trkpt><trkpt lat="44.4705183" lon="6.8098417"><ele>1553.0</ele><time>2026-05-03T13:07:56.276Z</time></trkpt><trkpt lat="44.4704783" lon="6.8101017"><ele>1553.0</ele><time>2026-05-03T13:07:57.276Z</time></trkpt><trkpt lat="44.4704267" lon="6.81037"><ele>1553.0</ele><time>2026-05-03T13:07:58.276Z</time></trkpt><trkpt lat="44.4703617" lon="6.810625"><ele>1552.0</ele><time>2026-05-03T13:07:59.276Z</time></trkpt><trkpt lat="44.4702817" lon="6.8108717"><ele>1551.0</ele><time>2026-05-03T13:08:00.276Z</time></trkpt><trkpt lat="44.470175" lon="6.8111017"><ele>1550.0</ele><time>2026-05-03T13:08:01.276Z</time></trkpt><trkpt lat="44.4700683" lon="6.8113317"><ele>1552.0</ele><time>2026-05-03T13:08:02.276Z</time></trkpt><trkpt lat="44.4699417" lon="6.8115483"><ele>1554.0</ele><time>2026-05-03T13:08:03.276Z</time></trkpt><trkpt lat="44.4698067" lon="6.8117433"><ele>1556.0</ele><time>2026-05-03T13:08:04.277Z</time></trkpt><trkpt lat="44.4696817" lon="6.8119367"><ele>1555.3333333333333</ele><time>2026-05-03T13:08:05.276Z</time></trkpt><trkpt lat="44.4695517" lon="6.8121333"><ele>1554.6666666666665</ele><time>2026-05-03T13:08:06.276Z</time></trkpt><trkpt lat="44.4694283" lon="6.8123133"><ele>1554.0</ele><time>2026-05-03T13:08:07.276Z</time></trkpt><trkpt lat="44.4693367" lon="6.8124817"><ele>1554.0</ele><time>2026-05-03T13:08:08.276Z</time></trkpt><trkpt lat="44.46926" lon="6.8126417"><ele>1554.0</ele><time>2026-05-03T13:08:09.276Z</time></trkpt><trkpt lat="44.4692033" lon="6.8128283"><ele>1554.0</ele><time>2026-05-03T13:08:10.276Z</time></trkpt><trkpt lat="44.4691717" lon="6.8130267"><ele>1554.0</ele><time>2026-05-03T13:08:11.276Z</time></trkpt><trkpt lat="44.4691683" lon="6.8132583"><ele>1556.0</ele><time>2026-05-03T13:08:12.276Z</time></trkpt><trkpt lat="44.4691883" lon="6.813495"><ele>1558.0</ele><time>2026-05-03T13:08:13.276Z</time></trkpt><trkpt lat="44.4692133" lon="6.8137383"><ele>1560.0</ele><time>2026-05-03T13:08:14.276Z</time></trkpt><trkpt lat="44.4692467" lon="6.813985"><ele>1560.0</ele><time>2026-05-03T13:08:15.276Z</time></trkpt><trkpt lat="44.4692867" lon="6.8142367"><ele>1560.0</ele><time>2026-05-03T13:08:16.276Z</time></trkpt><trkpt lat="44.4693367" lon="6.8144733"><ele>1560.0</ele><time>2026-05-03T13:08:17.276Z</time></trkpt><trkpt lat="44.4693917" lon="6.8146967"><ele>1560.25</ele><time>2026-05-03T13:08:18.276Z</time></trkpt><trkpt lat="44.46944" lon="6.814905"><ele>1560.5</ele><time>2026-05-03T13:08:19.277Z</time></trkpt><trkpt lat="44.4694517" lon="6.815105"><ele>1560.75</ele><time>2026-05-03T13:08:20.276Z</time></trkpt><trkpt lat="44.4694233" lon="6.8153033"><ele>1561.0</ele><time>2026-05-03T13:08:21.276Z</time></trkpt><trkpt lat="44.4693433" lon="6.815505"><ele>1563.3333333333335</ele><time>2026-05-03T13:08:22.277Z</time></trkpt><trkpt lat="44.46922" lon="6.81568"><ele>1565.6666666666665</ele><time>2026-05-03T13:08:23.277Z</time></trkpt><trkpt lat="44.4690767" lon="6.8158467"><ele>1568.0</ele><time>2026-05-03T13:08:24.276Z</time></trkpt><trkpt lat="44.4689533" lon="6.8160133"><ele>1571.3333333333333</ele><time>2026-05-03T13:08:25.276Z</time></trkpt><trkpt lat="44.4688217" lon="6.8161867"><ele>1574.6666666666665</ele><time>2026-05-03T13:08:26.276Z</time></trkpt><trkpt lat="44.468685" lon="6.816355"><ele>1578.0</ele><time>2026-05-03T13:08:27.276Z</time></trkpt><trkpt lat="44.46853" lon="6.81649"><ele>1578.0</ele><time>2026-05-03T13:08:28.276Z</time></trkpt><trkpt lat="44.4683667" lon="6.8166"><ele>1578.0</ele><time>2026-05-03T13:08:29.277Z</time></trkpt><trkpt lat="44.4681967" lon="6.8166983"><ele>1578.0</ele><time>2026-05-03T13:08:30.277Z</time></trkpt><trkpt lat="44.468" lon="6.816765"><ele>1581.0</ele><time>2026-05-03T13:08:31.277Z</time></trkpt><trkpt lat="44.46782" lon="6.8168433"><ele>1584.0</ele><time>2026-05-03T13:08:32.276Z</time></trkpt><trkpt lat="44.46764" lon="6.8169233"><ele>1587.0</ele><time>2026-05-03T13:08:33.276Z</time></trkpt><trkpt lat="44.4674667" lon="6.8170267"><ele>1587.0</ele><time>2026-05-03T13:08:34.276Z</time></trkpt><trkpt lat="44.4672933" lon="6.8171417"><ele>1587.0</ele><time>2026-05-03T13:08:35.276Z</time></trkpt><trkpt lat="44.4671167" lon="6.8172667"><ele>1587.0</ele><time>2026-05-03T13:08:36.276Z</time></trkpt><trkpt lat="44.46694" lon="6.817405"><ele>1581.6666666666665</ele><time>2026-05-03T13:08:37.276Z</time></trkpt><trkpt lat="44.4667767" lon="6.817545"><ele>1576.3333333333333</ele><time>2026-05-03T13:08:38.276Z</time></trkpt><trkpt lat="44.466615" lon="6.817695"><ele>1571.0</ele><time>2026-05-03T13:08:39.276Z</time></trkpt><trkpt lat="44.4664567" lon="6.81785"><ele>1571.3333333333333</ele><time>2026-05-03T13:08:40.277Z</time></trkpt><trkpt lat="44.4662883" lon="6.8179917"><ele>1571.6666666666665</ele><time>2026-05-03T13:08:41.276Z</time></trkpt><trkpt lat="44.4661333" lon="6.8181467"><ele>1572.0</ele><time>2026-05-03T13:08:42.276Z</time></trkpt><trkpt lat="44.4659833" lon="6.818275"><ele>1572.0</ele><time>2026-05-03T13:08:43.276Z</time></trkpt><trkpt lat="44.465845" lon="6.8183967"><ele>1572.0</ele><time>2026-05-03T13:08:44.276Z</time></trkpt><trkpt lat="44.4657367" lon="6.8185367"><ele>1572.0</ele><time>2026-05-03T13:08:45.276Z</time></trkpt><trkpt lat="44.4656633" lon="6.81868"><ele>1572.0</ele><time>2026-05-03T13:08:46.276Z</time></trkpt><trkpt lat="44.465635" lon="6.81887"><ele>1574.5</ele><time>2026-05-03T13:08:47.276Z</time></trkpt><trkpt lat="44.46561" lon="6.8190733"><ele>1577.0</ele><time>2026-05-03T13:08:48.276Z</time></trkpt><trkpt lat="44.4655783" lon="6.8192783"><ele>1579.5</ele><time>2026-05-03T13:08:49.276Z</time></trkpt><trkpt lat="44.4655267" lon="6.8194717"><ele>1582.0</ele><time>2026-05-03T13:08:50.276Z</time></trkpt><trkpt lat="44.4654383" lon="6.8196583"><ele>1582.0</ele><time>2026-05-03T13:08:51.276Z</time></trkpt><trkpt lat="44.4653033" lon="6.819835"><ele>1582.0</ele><time>2026-05-03T13:08:52.276Z</time></trkpt><trkpt lat="44.465185" lon="6.8199867"><ele>1582.0</ele><time>2026-05-03T13:08:53.277Z</time></trkpt><trkpt lat="44.4650883" lon="6.82014"><ele>1589.0</ele><time>2026-05-03T13:08:54.276Z</time></trkpt><trkpt lat="44.4650083" lon="6.82031"><ele>1596.0</ele><time>2026-05-03T13:08:55.276Z</time></trkpt><trkpt lat="44.4649583" lon="6.8205133"><ele>1603.0</ele><time>2026-05-03T13:08:56.276Z</time></trkpt><trkpt lat="44.46491" lon="6.8207183"><ele>1603.0</ele><time>2026-05-03T13:08:57.276Z</time></trkpt><trkpt lat="44.4648533" lon="6.8209283"><ele>1603.0</ele><time>2026-05-03T13:08:58.276Z</time></trkpt><trkpt lat="44.46478" lon="6.8211267"><ele>1603.0</ele><time>2026-05-03T13:08:59.276Z</time></trkpt><trkpt lat="44.4647" lon="6.82132"><ele>1606.0</ele><time>2026-05-03T13:09:00.276Z</time></trkpt><trkpt lat="44.4646067" lon="6.8215283"><ele>1609.0</ele><time>2026-05-03T13:09:01.276Z</time></trkpt><trkpt lat="44.4645267" lon="6.821745"><ele>1612.0</ele><time>2026-05-03T13:09:02.276Z</time></trkpt><trkpt lat="44.4644483" lon="6.821955"><ele>1612.0</ele><time>2026-05-03T13:09:03.276Z</time></trkpt><trkpt lat="44.4643567" lon="6.8221583"><ele>1612.0</ele><time>2026-05-03T13:09:04.276Z</time></trkpt><trkpt lat="44.4642517" lon="6.8223517"><ele>1612.0</ele><time>2026-05-03T13:09:05.276Z</time></trkpt><trkpt lat="44.4641117" lon="6.8225117"><ele>1612.0</ele><time>2026-05-03T13:09:06.276Z</time></trkpt><trkpt lat="44.4639617" lon="6.822615"><ele>1612.0</ele><time>2026-05-03T13:09:07.277Z</time></trkpt><trkpt lat="44.463795" lon="6.8226783"><ele>1612.0</ele><time>2026-05-03T13:09:08.276Z</time></trkpt><trkpt lat="44.4636367" lon="6.8227333"><ele>1615.6666666666667</ele><time>2026-05-03T13:09:09.276Z</time></trkpt><trkpt lat="44.4634833" lon="6.822805"><ele>1619.3333333333335</ele><time>2026-05-03T13:09:10.276Z</time></trkpt><trkpt lat="44.4633283" lon="6.8228883"><ele>1623.0</ele><time>2026-05-03T13:09:11.276Z</time></trkpt><trkpt lat="44.4631817" lon="6.82298"><ele>1623.0</ele><time>2026-05-03T13:09:12.277Z</time></trkpt><trkpt lat="44.4630417" lon="6.8230933"><ele>1623.0</ele><time>2026-05-03T13:09:13.276Z</time></trkpt><trkpt lat="44.4629033" lon="6.8232133"><ele>1623.0</ele><time>2026-05-03T13:09:14.276Z</time></trkpt><trkpt lat="44.462755" lon="6.8233233"><ele>1623.6666666666665</ele><time>2026-05-03T13:09:15.276Z</time></trkpt><trkpt lat="44.4626017" lon="6.82344"><ele>1624.3333333333333</ele><time>2026-05-03T13:09:16.277Z</time></trkpt><trkpt lat="44.4624567" lon="6.8235567"><ele>1625.0</ele><time>2026-05-03T13:09:17.276Z</time></trkpt><trkpt lat="44.46231" lon="6.8236617"><ele>1625.0</ele><time>2026-05-03T13:09:18.276Z</time></trkpt><trkpt lat="44.4621633" lon="6.8237817"><ele>1625.0</ele><time>2026-05-03T13:09:19.276Z</time></trkpt><trkpt lat="44.462015" lon="6.823905"><ele>1625.0</ele><time>2026-05-03T13:09:20.276Z</time></trkpt><trkpt lat="44.4618683" lon="6.8240317"><ele>1626.6666666666665</ele><time>2026-05-03T13:09:21.276Z</time></trkpt><trkpt lat="44.461715" lon="6.824155"><ele>1628.3333333333335</ele><time>2026-05-03T13:09:22.276Z</time></trkpt><trkpt lat="44.46156" lon="6.8242533"><ele>1630.0</ele><time>2026-05-03T13:09:23.276Z</time></trkpt><trkpt lat="44.4614" lon="6.8243367"><ele>1625.0</ele><time>2026-05-03T13:09:24.276Z</time></trkpt><trkpt lat="44.4612317" lon="6.8244067"><ele>1620.0</ele><time>2026-05-03T13:09:25.276Z</time></trkpt><trkpt lat="44.4610683" lon="6.82449"><ele>1615.0</ele><time>2026-05-03T13:09:26.276Z</time></trkpt><trkpt lat="44.46091" lon="6.824595"><ele>1615.0</ele><time>2026-05-03T13:09:27.277Z</time></trkpt><trkpt lat="44.4607567" lon="6.8247233"><ele>1615.0</ele><time>2026-05-03T13:09:28.276Z</time></trkpt><trkpt lat="44.4606333" lon="6.824885"><ele>1615.0</ele><time>2026-05-03T13:09:29.276Z</time></trkpt><trkpt lat="44.460525" lon="6.82507"><ele>1610.6666666666667</ele><time>2026-05-03T13:09:30.276Z</time></trkpt><trkpt lat="44.4604383" lon="6.825285"><ele>1606.3333333333335</ele><time>2026-05-03T13:09:31.276Z</time></trkpt><trkpt lat="44.460365" lon="6.8255217"><ele>1602.0</ele><time>2026-05-03T13:09:32.276Z</time></trkpt><trkpt lat="44.460295" lon="6.8257617"><ele>1604.6666666666665</ele><time>2026-05-03T13:09:33.276Z</time></trkpt><trkpt lat="44.46024" lon="6.825995"><ele>1607.3333333333333</ele><time>2026-05-03T13:09:34.276Z</time></trkpt><trkpt lat="44.4601833" lon="6.8262467"><ele>1610.0</ele><time>2026-05-03T13:09:35.276Z</time></trkpt><trkpt lat="44.4601533" lon="6.82651"><ele>1610.0</ele><time>2026-05-03T13:09:36.276Z</time></trkpt><trkpt lat="44.46014" lon="6.826775"><ele>1610.0</ele><time>2026-05-03T13:09:37.276Z</time></trkpt><trkpt lat="44.4601283" lon="6.8270383"><ele>1610.0</ele><time>2026-05-03T13:09:38.276Z</time></trkpt><trkpt lat="44.46009" lon="6.82728"><ele>1613.0</ele><time>2026-05-03T13:09:39.276Z</time></trkpt><trkpt lat="44.4600367" lon="6.8275217"><ele>1616.0</ele><time>2026-05-03T13:09:40.277Z</time></trkpt><trkpt lat="44.459955" lon="6.8277417"><ele>1619.0</ele><time>2026-05-03T13:09:41.276Z</time></trkpt><trkpt lat="44.459855" lon="6.827955"><ele>1618.0</ele><time>2026-05-03T13:09:42.277Z</time></trkpt><trkpt lat="44.4597367" lon="6.8281717"><ele>1617.0</ele><time>2026-05-03T13:09:43.276Z</time></trkpt><trkpt lat="44.45962" lon="6.8283817"><ele>1616.0</ele><time>2026-05-03T13:09:44.277Z</time></trkpt><trkpt lat="44.4595067" lon="6.8286033"><ele>1616.0</ele><time>2026-05-03T13:09:45.276Z</time></trkpt><trkpt lat="44.459385" lon="6.828825"><ele>1616.0</ele><time>2026-05-03T13:09:46.276Z</time></trkpt><trkpt lat="44.4592667" lon="6.8290417"><ele>1616.0</ele><time>2026-05-03T13:09:47.276Z</time></trkpt><trkpt lat="44.459155" lon="6.82928"><ele>1625.0</ele><time>2026-05-03T13:09:48.276Z</time></trkpt><trkpt lat="44.4590467" lon="6.8295117"><ele>1634.0</ele><time>2026-05-03T13:09:49.276Z</time></trkpt><trkpt lat="44.45894" lon="6.8297367"><ele>1643.0</ele><time>2026-05-03T13:09:50.277Z</time></trkpt><trkpt lat="44.4588417" lon="6.8299717"><ele>1637.3333333333333</ele><time>2026-05-03T13:09:51.276Z</time></trkpt><trkpt lat="44.458745" lon="6.8302017"><ele>1631.6666666666665</ele><time>2026-05-03T13:09:52.276Z</time></trkpt><trkpt lat="44.4586433" lon="6.8304367"><ele>1626.0</ele><time>2026-05-03T13:09:53.276Z</time></trkpt><trkpt lat="44.4585533" lon="6.83067"><ele>1626.0</ele><time>2026-05-03T13:09:54.276Z</time></trkpt><trkpt lat="44.458495" lon="6.8309017"><ele>1626.0</ele><time>2026-05-03T13:09:55.276Z</time></trkpt><trkpt lat="44.4584417" lon="6.8311433"><ele>1626.0</ele><time>2026-05-03T13:09:56.276Z</time></trkpt><trkpt lat="44.4583767" lon="6.8313683"><ele>1630.3333333333335</ele><time>2026-05-03T13:09:57.277Z</time></trkpt><trkpt lat="44.4582883" lon="6.83159"><ele>1634.6666666666667</ele><time>2026-05-03T13:09:58.276Z</time></trkpt><trkpt lat="44.4581817" lon="6.8317883"><ele>1639.0</ele><time>2026-05-03T13:09:59.276Z</time></trkpt><trkpt lat="44.4580567" lon="6.8319583"><ele>1642.0</ele><time>2026-05-03T13:10:00.277Z</time></trkpt><trkpt lat="44.45792" lon="6.8321017"><ele>1645.0</ele><time>2026-05-03T13:10:01.277Z</time></trkpt><trkpt lat="44.4578" lon="6.832185"><ele>1648.0</ele><time>2026-05-03T13:10:02.276Z</time></trkpt><trkpt lat="44.457645" lon="6.8322383"><ele>1648.0</ele><time>2026-05-03T13:10:03.276Z</time></trkpt><trkpt lat="44.45748" lon="6.8322633"><ele>1648.0</ele><time>2026-05-03T13:10:04.276Z</time></trkpt><trkpt lat="44.4573083" lon="6.8322933"><ele>1648.0</ele><time>2026-05-03T13:10:05.276Z</time></trkpt><trkpt lat="44.457155" lon="6.83235"><ele>1643.3333333333335</ele><time>2026-05-03T13:10:06.276Z</time></trkpt><trkpt lat="44.457005" lon="6.8324083"><ele>1638.6666666666665</ele><time>2026-05-03T13:10:07.276Z</time></trkpt><trkpt lat="44.45686" lon="6.8324633"><ele>1634.0</ele><time>2026-05-03T13:10:08.276Z</time></trkpt><trkpt lat="44.4567167" lon="6.8325383"><ele>1634.0</ele><time>2026-05-03T13:10:09.276Z</time></trkpt><trkpt lat="44.45659" lon="6.83263"><ele>1634.0</ele><time>2026-05-03T13:10:10.276Z</time></trkpt><trkpt lat="44.456475" lon="6.8327467"><ele>1634.0</ele><time>2026-05-03T13:10:11.276Z</time></trkpt><trkpt lat="44.456395" lon="6.8329133"><ele>1634.0</ele><time>2026-05-03T13:10:12.276Z</time></trkpt><trkpt lat="44.4563283" lon="6.833115"><ele>1636.6666666666665</ele><time>2026-05-03T13:10:13.276Z</time></trkpt><trkpt lat="44.456265" lon="6.83332"><ele>1639.3333333333335</ele><time>2026-05-03T13:10:14.277Z</time></trkpt><trkpt lat="44.4561867" lon="6.83351"><ele>1642.0</ele><time>2026-05-03T13:10:15.276Z</time></trkpt><trkpt lat="44.4560817" lon="6.83366"><ele>1648.6666666666667</ele><time>2026-05-03T13:10:16.277Z</time></trkpt><trkpt lat="44.4559367" lon="6.83376"><ele>1655.3333333333335</ele><time>2026-05-03T13:10:17.276Z</time></trkpt><trkpt lat="44.45577" lon="6.8338117"><ele>1662.0</ele><time>2026-05-03T13:10:18.276Z</time></trkpt><trkpt lat="44.4555983" lon="6.8338767"><ele>1657.0</ele><time>2026-05-03T13:10:19.276Z</time></trkpt><trkpt lat="44.4554267" lon="6.8339667"><ele>1652.0</ele><time>2026-05-03T13:10:20.276Z</time></trkpt><trkpt lat="44.4552617" lon="6.83407"><ele>1647.0</ele><time>2026-05-03T13:10:21.276Z</time></trkpt><trkpt lat="44.4551067" lon="6.8342"><ele>1654.0</ele><time>2026-05-03T13:10:22.276Z</time></trkpt><trkpt lat="44.4549567" lon="6.8343433"><ele>1661.0</ele><time>2026-05-03T13:10:23.276Z</time></trkpt><trkpt lat="44.454815" lon="6.8345167"><ele>1668.0</ele><time>2026-05-03T13:10:24.276Z</time></trkpt><trkpt lat="44.4546917" lon="6.834715"><ele>1663.3333333333335</ele><time>2026-05-03T13:10:25.276Z</time></trkpt><trkpt lat="44.4545733" lon="6.8349"><ele>1658.6666666666667</ele><time>2026-05-03T13:10:26.276Z</time></trkpt><trkpt lat="44.45448" lon="6.835105"><ele>1654.0</ele><time>2026-05-03T13:10:27.276Z</time></trkpt><trkpt lat="44.4544067" lon="6.835345"><ele>1654.0</ele><time>2026-05-03T13:10:28.276Z</time></trkpt><trkpt lat="44.45435" lon="6.8355767"><ele>1654.0</ele><time>2026-05-03T13:10:29.276Z</time></trkpt><trkpt lat="44.4543117" lon="6.8358383"><ele>1654.0</ele><time>2026-05-03T13:10:30.276Z</time></trkpt><trkpt lat="44.4542617" lon="6.83611"><ele>1656.3333333333335</ele><time>2026-05-03T13:10:31.276Z</time></trkpt><trkpt lat="44.454195" lon="6.83634"><ele>1658.6666666666665</ele><time>2026-05-03T13:10:32.276Z</time></trkpt><trkpt lat="44.454095" lon="6.8365633"><ele>1661.0</ele><time>2026-05-03T13:10:33.276Z</time></trkpt><trkpt lat="44.4539683" lon="6.83677"><ele>1663.6666666666665</ele><time>2026-05-03T13:10:34.277Z</time></trkpt><trkpt lat="44.4538333" lon="6.8369483"><ele>1666.3333333333335</ele><time>2026-05-03T13:10:35.277Z</time></trkpt><trkpt lat="44.45368" lon="6.8371017"><ele>1669.0</ele><time>2026-05-03T13:10:36.276Z</time></trkpt><trkpt lat="44.4535133" lon="6.8371983"><ele>1669.0</ele><time>2026-05-03T13:10:37.276Z</time></trkpt><trkpt lat="44.453335" lon="6.8372433"><ele>1669.0</ele><time>2026-05-03T13:10:38.276Z</time></trkpt><trkpt lat="44.453175" lon="6.837305"><ele>1669.0</ele><time>2026-05-03T13:10:39.276Z</time></trkpt><trkpt lat="44.4530367" lon="6.8374117"><ele>1669.6666666666667</ele><time>2026-05-03T13:10:40.276Z</time></trkpt><trkpt lat="44.45292" lon="6.8375717"><ele>1670.3333333333335</ele><time>2026-05-03T13:10:41.276Z</time></trkpt><trkpt lat="44.4528233" lon="6.8377583"><ele>1671.0</ele><time>2026-05-03T13:10:42.277Z</time></trkpt><trkpt lat="44.4527517" lon="6.8379717"><ele>1671.0</ele><time>2026-05-03T13:10:43.277Z</time></trkpt><trkpt lat="44.45268" lon="6.838205"><ele>1671.0</ele><time>2026-05-03T13:10:44.276Z</time></trkpt><trkpt lat="44.452605" lon="6.8384467"><ele>1671.0</ele><time>2026-05-03T13:10:45.276Z</time></trkpt><trkpt lat="44.4525317" lon="6.838685"><ele>1671.6666666666665</ele><time>2026-05-03T13:10:46.276Z</time></trkpt><trkpt lat="44.4524633" lon="6.8389183"><ele>1672.3333333333333</ele><time>2026-05-03T13:10:47.276Z</time></trkpt><trkpt lat="44.4524233" lon="6.83915"><ele>1673.0</ele><time>2026-05-03T13:10:48.277Z</time></trkpt><trkpt lat="44.4524033" lon="6.8393867"><ele>1673.0</ele><time>2026-05-03T13:10:49.276Z</time></trkpt><trkpt lat="44.4524033" lon="6.839645"><ele>1673.0</ele><time>2026-05-03T13:10:50.276Z</time></trkpt><trkpt lat="44.452415" lon="6.8398833"><ele>1673.0</ele><time>2026-05-03T13:10:51.276Z</time></trkpt><trkpt lat="44.45243" lon="6.8401"><ele>1674.0</ele><time>2026-05-03T13:10:52.276Z</time></trkpt><trkpt lat="44.45245" lon="6.84032"><ele>1675.0</ele><time>2026-05-03T13:10:53.277Z</time></trkpt><trkpt lat="44.452465" lon="6.8405317"><ele>1676.0</ele><time>2026-05-03T13:10:54.276Z</time></trkpt><trkpt lat="44.452485" lon="6.8407233"><ele>1677.0</ele><time>2026-05-03T13:10:55.277Z</time></trkpt><trkpt lat="44.4525017" lon="6.840905"><ele>1676.25</ele><time>2026-05-03T13:10:56.276Z</time></trkpt><trkpt lat="44.45252" lon="6.841065"><ele>1675.5</ele><time>2026-05-03T13:10:57.277Z</time></trkpt><trkpt lat="44.4525317" lon="6.841235"><ele>1674.75</ele><time>2026-05-03T13:10:58.276Z</time></trkpt><trkpt lat="44.4525467" lon="6.8414133"><ele>1674.0</ele><time>2026-05-03T13:10:59.277Z</time></trkpt><trkpt lat="44.45256" lon="6.84159"><ele>1674.0</ele><time>2026-05-03T13:11:00.276Z</time></trkpt><trkpt lat="44.4525767" lon="6.8417683"><ele>1674.0</ele><time>2026-05-03T13:11:01.276Z</time></trkpt><trkpt lat="44.4525967" lon="6.841955"><ele>1674.0</ele><time>2026-05-03T13:11:02.276Z</time></trkpt><trkpt lat="44.4526033" lon="6.84213"><ele>1674.0</ele><time>2026-05-03T13:11:03.277Z</time></trkpt><trkpt lat="44.4526117" lon="6.8423117"><ele>1673.5</ele><time>2026-05-03T13:11:04.276Z</time></trkpt><trkpt lat="44.45263" lon="6.8424817"><ele>1673.0</ele><time>2026-05-03T13:11:05.276Z</time></trkpt><trkpt lat="44.45264" lon="6.8426533"><ele>1672.5</ele><time>2026-05-03T13:11:06.276Z</time></trkpt><trkpt lat="44.4526517" lon="6.842825"><ele>1672.0</ele><time>2026-05-03T13:11:07.276Z</time></trkpt><trkpt lat="44.4526583" lon="6.8429933"><ele>1673.0</ele><time>2026-05-03T13:11:08.276Z</time></trkpt><trkpt lat="44.4526633" lon="6.843165"><ele>1674.0</ele><time>2026-05-03T13:11:09.277Z</time></trkpt><trkpt lat="44.4526567" lon="6.8433317"><ele>1675.0</ele><time>2026-05-03T13:11:10.277Z</time></trkpt><trkpt lat="44.4526483" lon="6.843505"><ele>1676.0</ele><time>2026-05-03T13:11:11.276Z</time></trkpt><trkpt lat="44.4526333" lon="6.8436667"><ele>1676.25</ele><time>2026-05-03T13:11:12.276Z</time></trkpt><trkpt lat="44.4526067" lon="6.8438283"><ele>1676.5</ele><time>2026-05-03T13:11:13.276Z</time></trkpt><trkpt lat="44.4525867" lon="6.8439833"><ele>1676.75</ele><time>2026-05-03T13:11:14.276Z</time></trkpt><trkpt lat="44.4525633" lon="6.8441383"><ele>1677.0</ele><time>2026-05-03T13:11:15.276Z</time></trkpt><trkpt lat="44.4525333" lon="6.8442933"><ele>1677.0</ele><time>2026-05-03T13:11:16.276Z</time></trkpt><trkpt lat="44.4524817" lon="6.8444217"><ele>1677.0</ele><time>2026-05-03T13:11:17.276Z</time></trkpt><trkpt lat="44.4524117" lon="6.844545"><ele>1677.0</ele><time>2026-05-03T13:11:18.276Z</time></trkpt><trkpt lat="44.4523217" lon="6.8446533"><ele>1677.0</ele><time>2026-05-03T13:11:19.276Z</time></trkpt><trkpt lat="44.4522283" lon="6.8447383"><ele>1677.0</ele><time>2026-05-03T13:11:20.276Z</time></trkpt><trkpt lat="44.4521333" lon="6.8448217"><ele>1677.0</ele><time>2026-05-03T13:11:21.276Z</time></trkpt><trkpt lat="44.45204" lon="6.8449133"><ele>1677.0</ele><time>2026-05-03T13:11:22.276Z</time></trkpt><trkpt lat="44.4519517" lon="6.8449983"><ele>1677.0</ele><time>2026-05-03T13:11:23.276Z</time></trkpt><trkpt lat="44.451865" lon="6.8450717"><ele>1677.0</ele><time>2026-05-03T13:11:24.276Z</time></trkpt><trkpt lat="44.4517683" lon="6.84515"><ele>1677.0</ele><time>2026-05-03T13:11:25.276Z</time></trkpt><trkpt lat="44.4516733" lon="6.8452317"><ele>1677.8</ele><time>2026-05-03T13:11:26.276Z</time></trkpt><trkpt lat="44.451595" lon="6.84532"><ele>1678.6</ele><time>2026-05-03T13:11:27.276Z</time></trkpt><trkpt lat="44.4515167" lon="6.84541"><ele>1679.3999999999999</ele><time>2026-05-03T13:11:28.277Z</time></trkpt><trkpt lat="44.451445" lon="6.845515"><ele>1680.1999999999998</ele><time>2026-05-03T13:11:29.276Z</time></trkpt><trkpt lat="44.451375" lon="6.8456317"><ele>1681.0</ele><time>2026-05-03T13:11:30.276Z</time></trkpt><trkpt lat="44.45131" lon="6.8457483"><ele>1680.8</ele><time>2026-05-03T13:11:31.276Z</time></trkpt><trkpt lat="44.4512367" lon="6.8458583"><ele>1680.6</ele><time>2026-05-03T13:11:32.276Z</time></trkpt><trkpt lat="44.4511733" lon="6.84597"><ele>1680.4</ele><time>2026-05-03T13:11:33.276Z</time></trkpt><trkpt lat="44.4511067" lon="6.8460717"><ele>1680.2</ele><time>2026-05-03T13:11:34.277Z</time></trkpt><trkpt lat="44.451035" lon="6.84618"><ele>1680.0</ele><time>2026-05-03T13:11:35.276Z</time></trkpt><trkpt lat="44.4509617" lon="6.8463033"><ele>1680.0</ele><time>2026-05-03T13:11:36.276Z</time></trkpt><trkpt lat="44.4508933" lon="6.8464217"><ele>1680.0</ele><time>2026-05-03T13:11:37.276Z</time></trkpt><trkpt lat="44.4508317" lon="6.8465367"><ele>1680.0</ele><time>2026-05-03T13:11:38.276Z</time></trkpt><trkpt lat="44.450765" lon="6.846655"><ele>1680.0</ele><time>2026-05-03T13:11:39.277Z</time></trkpt><trkpt lat="44.4507033" lon="6.8467767"><ele>1680.0</ele><time>2026-05-03T13:11:40.276Z</time></trkpt><trkpt lat="44.4506467" lon="6.8469017"><ele>1679.6</ele><time>2026-05-03T13:11:41.276Z</time></trkpt><trkpt lat="44.4505933" lon="6.847035"><ele>1679.2</ele><time>2026-05-03T13:11:42.276Z</time></trkpt><trkpt lat="44.450545" lon="6.84717"><ele>1678.8000000000002</ele><time>2026-05-03T13:11:43.276Z</time></trkpt><trkpt lat="44.4505083" lon="6.847305"><ele>1678.4</ele><time>2026-05-03T13:11:44.276Z</time></trkpt><trkpt lat="44.450475" lon="6.8474517"><ele>1678.0</ele><time>2026-05-03T13:11:45.276Z</time></trkpt><trkpt lat="44.4504517" lon="6.847605"><ele>1678.8000000000002</ele><time>2026-05-03T13:11:46.276Z</time></trkpt><trkpt lat="44.4504467" lon="6.8477517"><ele>1679.6</ele><time>2026-05-03T13:11:47.277Z</time></trkpt><trkpt lat="44.4504383" lon="6.8479033"><ele>1680.4</ele><time>2026-05-03T13:11:48.276Z</time></trkpt><trkpt lat="44.450435" lon="6.8480483"><ele>1681.1999999999998</ele><time>2026-05-03T13:11:49.276Z</time></trkpt><trkpt lat="44.4504233" lon="6.848205"><ele>1682.0</ele><time>2026-05-03T13:11:50.276Z</time></trkpt><trkpt lat="44.4504017" lon="6.8483783"><ele>1683.3333333333333</ele><time>2026-05-03T13:11:51.277Z</time></trkpt><trkpt lat="44.4503733" lon="6.8485683"><ele>1684.6666666666665</ele><time>2026-05-03T13:11:52.276Z</time></trkpt><trkpt lat="44.4503283" lon="6.848775"><ele>1686.0</ele><time>2026-05-03T13:11:53.276Z</time></trkpt><trkpt lat="44.45027" lon="6.8490017"><ele>1686.0</ele><time>2026-05-03T13:11:54.276Z</time></trkpt><trkpt lat="44.4502117" lon="6.84923"><ele>1686.0</ele><time>2026-05-03T13:11:55.276Z</time></trkpt><trkpt lat="44.4501517" lon="6.8494483"><ele>1686.0</ele><time>2026-05-03T13:11:56.276Z</time></trkpt><trkpt lat="44.45009" lon="6.849675"><ele>1688.0</ele><time>2026-05-03T13:11:57.276Z</time></trkpt><trkpt lat="44.4500317" lon="6.8499133"><ele>1690.0</ele><time>2026-05-03T13:11:58.276Z</time></trkpt><trkpt lat="44.4499683" lon="6.850165"><ele>1692.0</ele><time>2026-05-03T13:11:59.276Z</time></trkpt><trkpt lat="44.449905" lon="6.8504183"><ele>1694.0</ele><time>2026-05-03T13:12:00.276Z</time></trkpt><trkpt lat="44.4498517" lon="6.850675"><ele>1696.0</ele><time>2026-05-03T13:12:01.276Z</time></trkpt><trkpt lat="44.4498133" lon="6.8509483"><ele>1698.0</ele><time>2026-05-03T13:12:02.276Z</time></trkpt><trkpt lat="44.44979" lon="6.8512217"><ele>1700.6666666666665</ele><time>2026-05-03T13:12:03.277Z</time></trkpt><trkpt lat="44.4497733" lon="6.85148"><ele>1703.3333333333333</ele><time>2026-05-03T13:12:04.276Z</time></trkpt><trkpt lat="44.4497633" lon="6.8517083"><ele>1706.0</ele><time>2026-05-03T13:12:05.276Z</time></trkpt><trkpt lat="44.4497817" lon="6.8519267"><ele>1708.25</ele><time>2026-05-03T13:12:06.276Z</time></trkpt><trkpt lat="44.4498017" lon="6.852135"><ele>1710.5</ele><time>2026-05-03T13:12:07.276Z</time></trkpt><trkpt lat="44.4497883" lon="6.8523267"><ele>1712.75</ele><time>2026-05-03T13:12:08.276Z</time></trkpt><trkpt lat="44.4497367" lon="6.852485"><ele>1715.0</ele><time>2026-05-03T13:12:09.276Z</time></trkpt><trkpt lat="44.449645" lon="6.8525983"><ele>1716.5</ele><time>2026-05-03T13:12:10.276Z</time></trkpt><trkpt lat="44.4495133" lon="6.8526567"><ele>1718.0</ele><time>2026-05-03T13:12:11.277Z</time></trkpt><trkpt lat="44.4493767" lon="6.85271"><ele>1719.5</ele><time>2026-05-03T13:12:12.276Z</time></trkpt><trkpt lat="44.4492567" lon="6.85282"><ele>1721.0</ele><time>2026-05-03T13:12:13.277Z</time></trkpt><trkpt lat="44.4491717" lon="6.8529917"><ele>1721.0</ele><time>2026-05-03T13:12:14.276Z</time></trkpt><trkpt lat="44.4490933" lon="6.8531583"><ele>1721.0</ele><time>2026-05-03T13:12:15.276Z</time></trkpt><trkpt lat="44.449" lon="6.8533"><ele>1721.0</ele><time>2026-05-03T13:12:16.276Z</time></trkpt><trkpt lat="44.4488717" lon="6.8534"><ele>1721.0</ele><time>2026-05-03T13:12:17.276Z</time></trkpt><trkpt lat="44.4487283" lon="6.8534567"><ele>1722.6666666666665</ele><time>2026-05-03T13:12:18.276Z</time></trkpt><trkpt lat="44.4485683" lon="6.8534833"><ele>1724.3333333333335</ele><time>2026-05-03T13:12:19.276Z</time></trkpt><trkpt lat="44.4484083" lon="6.85355"><ele>1726.0</ele><time>2026-05-03T13:12:20.276Z</time></trkpt><trkpt lat="44.4482567" lon="6.8536483"><ele>1726.0</ele><time>2026-05-03T13:12:21.276Z</time></trkpt><trkpt lat="44.4481183" lon="6.8537817"><ele>1726.0</ele><time>2026-05-03T13:12:22.276Z</time></trkpt><trkpt lat="44.447985" lon="6.8539267"><ele>1726.0</ele><time>2026-05-03T13:12:23.276Z</time></trkpt><trkpt lat="44.4478583" lon="6.8540817"><ele>1727.0</ele><time>2026-05-03T13:12:24.276Z</time></trkpt><trkpt lat="44.44773" lon="6.8542533"><ele>1728.0</ele><time>2026-05-03T13:12:25.276Z</time></trkpt><trkpt lat="44.4476133" lon="6.85443"><ele>1729.0</ele><time>2026-05-03T13:12:26.276Z</time></trkpt><trkpt lat="44.4475033" lon="6.8546183"><ele>1729.0</ele><time>2026-05-03T13:12:27.276Z</time></trkpt><trkpt lat="44.4473917" lon="6.8548217"><ele>1729.0</ele><time>2026-05-03T13:12:28.276Z</time></trkpt><trkpt lat="44.447295" lon="6.8550217"><ele>1729.0</ele><time>2026-05-03T13:12:29.276Z</time></trkpt><trkpt lat="44.4472117" lon="6.8552517"><ele>1725.3333333333335</ele><time>2026-05-03T13:12:30.276Z</time></trkpt><trkpt lat="44.4471233" lon="6.855485"><ele>1721.6666666666665</ele><time>2026-05-03T13:12:31.276Z</time></trkpt><trkpt lat="44.4470383" lon="6.855715"><ele>1718.0</ele><time>2026-05-03T13:12:32.276Z</time></trkpt><trkpt lat="44.4469533" lon="6.8559417"><ele>1724.3333333333333</ele><time>2026-05-03T13:12:33.276Z</time></trkpt><trkpt lat="44.446865" lon="6.8561667"><ele>1730.6666666666665</ele><time>2026-05-03T13:12:34.276Z</time></trkpt><trkpt lat="44.4467633" lon="6.8563717"><ele>1737.0</ele><time>2026-05-03T13:12:35.276Z</time></trkpt><trkpt lat="44.446645" lon="6.8565533"><ele>1737.0</ele><time>2026-05-03T13:12:36.276Z</time></trkpt><trkpt lat="44.4465067" lon="6.8567067"><ele>1737.0</ele><time>2026-05-03T13:12:37.276Z</time></trkpt><trkpt lat="44.4463467" lon="6.8568283"><ele>1737.0</ele><time>2026-05-03T13:12:38.277Z</time></trkpt><trkpt lat="44.44619" lon="6.8569533"><ele>1736.6666666666665</ele><time>2026-05-03T13:12:39.277Z</time></trkpt><trkpt lat="44.44606" lon="6.8571033"><ele>1736.3333333333333</ele><time>2026-05-03T13:12:40.276Z</time></trkpt><trkpt lat="44.445945" lon="6.857275"><ele>1736.0</ele><time>2026-05-03T13:12:41.276Z</time></trkpt><trkpt lat="44.4458417" lon="6.8574717"><ele>1742.0</ele><time>2026-05-03T13:12:42.276Z</time></trkpt><trkpt lat="44.4457517" lon="6.8576633"><ele>1748.0</ele><time>2026-05-03T13:12:43.277Z</time></trkpt><trkpt lat="44.4456833" lon="6.85787"><ele>1754.0</ele><time>2026-05-03T13:12:44.276Z</time></trkpt><trkpt lat="44.4456433" lon="6.858075"><ele>1754.0</ele><time>2026-05-03T13:12:45.277Z</time></trkpt><trkpt lat="44.4456167" lon="6.858275"><ele>1754.0</ele><time>2026-05-03T13:12:46.276Z</time></trkpt><trkpt lat="44.4455733" lon="6.858465"><ele>1754.0</ele><time>2026-05-03T13:12:47.276Z</time></trkpt><trkpt lat="44.44549" lon="6.8586483"><ele>1754.0</ele><time>2026-05-03T13:12:48.276Z</time></trkpt><trkpt lat="44.4453767" lon="6.8587967"><ele>1752.3333333333333</ele><time>2026-05-03T13:12:49.276Z</time></trkpt><trkpt lat="44.4452217" lon="6.8589017"><ele>1750.6666666666665</ele><time>2026-05-03T13:12:50.276Z</time></trkpt><trkpt lat="44.445055" lon="6.8589633"><ele>1749.0</ele><time>2026-05-03T13:12:51.277Z</time></trkpt><trkpt lat="44.4448817" lon="6.8590117"><ele>1749.0</ele><time>2026-05-03T13:12:52.276Z</time></trkpt><trkpt lat="44.4447183" lon="6.859075"><ele>1749.0</ele><time>2026-05-03T13:12:53.276Z</time></trkpt><trkpt lat="44.4445767" lon="6.8591683"><ele>1749.0</ele><time>2026-05-03T13:12:54.276Z</time></trkpt><trkpt lat="44.4444483" lon="6.8593067"><ele>1751.6666666666665</ele><time>2026-05-03T13:12:55.276Z</time></trkpt><trkpt lat="44.4443417" lon="6.85948"><ele>1754.3333333333333</ele><time>2026-05-03T13:12:56.276Z</time></trkpt><trkpt lat="44.4442417" lon="6.8596817"><ele>1757.0</ele><time>2026-05-03T13:12:57.276Z</time></trkpt><trkpt lat="44.44414" lon="6.859885"><ele>1757.0</ele><time>2026-05-03T13:12:58.276Z</time></trkpt><trkpt lat="44.444025" lon="6.86008"><ele>1757.0</ele><time>2026-05-03T13:12:59.276Z</time></trkpt><trkpt lat="44.4439017" lon="6.8602683"><ele>1757.0</ele><time>2026-05-03T13:13:00.276Z</time></trkpt><trkpt lat="44.44377" lon="6.86046"><ele>1757.6666666666665</ele><time>2026-05-03T13:13:01.276Z</time></trkpt><trkpt lat="44.443625" lon="6.860645"><ele>1758.3333333333335</ele><time>2026-05-03T13:13:02.276Z</time></trkpt><trkpt lat="44.44348" lon="6.8608167"><ele>1759.0</ele><time>2026-05-03T13:13:03.276Z</time></trkpt><trkpt lat="44.4433167" lon="6.8609767"><ele>1760.6666666666667</ele><time>2026-05-03T13:13:04.276Z</time></trkpt><trkpt lat="44.4431467" lon="6.861125"><ele>1762.3333333333335</ele><time>2026-05-03T13:13:05.277Z</time></trkpt><trkpt lat="44.4429717" lon="6.8612667"><ele>1764.0</ele><time>2026-05-03T13:13:06.276Z</time></trkpt><trkpt lat="44.4427983" lon="6.8613983"><ele>1764.0</ele><time>2026-05-03T13:13:07.277Z</time></trkpt><trkpt lat="44.4426333" lon="6.8615217"><ele>1764.0</ele><time>2026-05-03T13:13:08.276Z</time></trkpt><trkpt lat="44.4424683" lon="6.861645"><ele>1764.0</ele><time>2026-05-03T13:13:09.276Z</time></trkpt><trkpt lat="44.44232" lon="6.8617733"><ele>1764.6666666666665</ele><time>2026-05-03T13:13:10.276Z</time></trkpt><trkpt lat="44.4421783" lon="6.86193"><ele>1765.3333333333333</ele><time>2026-05-03T13:13:11.276Z</time></trkpt><trkpt lat="44.4420467" lon="6.8621083"><ele>1766.0</ele><time>2026-05-03T13:13:12.276Z</time></trkpt><trkpt lat="44.44193" lon="6.862305"><ele>1766.0</ele><time>2026-05-03T13:13:13.276Z</time></trkpt><trkpt lat="44.4418083" lon="6.8625033"><ele>1766.0</ele><time>2026-05-03T13:13:14.276Z</time></trkpt><trkpt lat="44.4416833" lon="6.8627"><ele>1766.0</ele><time>2026-05-03T13:13:15.276Z</time></trkpt><trkpt lat="44.4415683" lon="6.8628917"><ele>1770.0</ele><time>2026-05-03T13:13:16.276Z</time></trkpt><trkpt lat="44.4414617" lon="6.8630983"><ele>1774.0</ele><time>2026-05-03T13:13:17.276Z</time></trkpt><trkpt lat="44.4413733" lon="6.8633233"><ele>1778.0</ele><time>2026-05-03T13:13:18.276Z</time></trkpt><trkpt lat="44.4412883" lon="6.8635667"><ele>1778.0</ele><time>2026-05-03T13:13:19.276Z</time></trkpt><trkpt lat="44.44122" lon="6.86382"><ele>1778.0</ele><time>2026-05-03T13:13:20.276Z</time></trkpt><trkpt lat="44.4411417" lon="6.8640733"><ele>1778.0</ele><time>2026-05-03T13:13:21.276Z</time></trkpt><trkpt lat="44.4410533" lon="6.864315"><ele>1781.6666666666665</ele><time>2026-05-03T13:13:22.276Z</time></trkpt><trkpt lat="44.4409633" lon="6.86454"><ele>1785.3333333333335</ele><time>2026-05-03T13:13:23.276Z</time></trkpt><trkpt lat="44.4408633" lon="6.8647517"><ele>1789.0</ele><time>2026-05-03T13:13:24.276Z</time></trkpt><trkpt lat="44.440765" lon="6.8649433"><ele>1789.0</ele><time>2026-05-03T13:13:25.276Z</time></trkpt><trkpt lat="44.4406567" lon="6.865085"><ele>1789.0</ele><time>2026-05-03T13:13:26.276Z</time></trkpt><trkpt lat="44.440535" lon="6.8651667"><ele>1789.0</ele><time>2026-05-03T13:13:27.276Z</time></trkpt><trkpt lat="44.4404033" lon="6.865185"><ele>1789.0</ele><time>2026-05-03T13:13:28.276Z</time></trkpt><trkpt lat="44.440265" lon="6.86515"><ele>1787.25</ele><time>2026-05-03T13:13:29.276Z</time></trkpt><trkpt lat="44.44014" lon="6.8650983"><ele>1785.5</ele><time>2026-05-03T13:13:30.277Z</time></trkpt><trkpt lat="44.4400067" lon="6.86508"><ele>1783.75</ele><time>2026-05-03T13:13:31.276Z</time></trkpt><trkpt lat="44.43987" lon="6.8650917"><ele>1782.0</ele><time>2026-05-03T13:13:32.276Z</time></trkpt><trkpt lat="44.4397367" lon="6.8651533"><ele>1784.3333333333335</ele><time>2026-05-03T13:13:33.277Z</time></trkpt><trkpt lat="44.43961" lon="6.8652683"><ele>1786.6666666666667</ele><time>2026-05-03T13:13:34.276Z</time></trkpt><trkpt lat="44.4395033" lon="6.8654167"><ele>1789.0</ele><time>2026-05-03T13:13:35.276Z</time></trkpt><trkpt lat="44.4393983" lon="6.8655817"><ele>1789.0</ele><time>2026-05-03T13:13:36.276Z</time></trkpt><trkpt lat="44.439295" lon="6.8657367"><ele>1789.0</ele><time>2026-05-03T13:13:37.276Z</time></trkpt><trkpt lat="44.4391983" lon="6.8659"><ele>1789.0</ele><time>2026-05-03T13:13:38.276Z</time></trkpt><trkpt lat="44.4391233" lon="6.8660817"><ele>1793.0</ele><time>2026-05-03T13:13:39.276Z</time></trkpt><trkpt lat="44.4390667" lon="6.8662783"><ele>1797.0</ele><time>2026-05-03T13:13:40.276Z</time></trkpt><trkpt lat="44.439035" lon="6.8664983"><ele>1801.0</ele><time>2026-05-03T13:13:41.276Z</time></trkpt><trkpt lat="44.4390117" lon="6.8667367"><ele>1803.6666666666667</ele><time>2026-05-03T13:13:42.276Z</time></trkpt><trkpt lat="44.4389733" lon="6.866975"><ele>1806.3333333333335</ele><time>2026-05-03T13:13:43.276Z</time></trkpt><trkpt lat="44.4389083" lon="6.8671933"><ele>1809.0</ele><time>2026-05-03T13:13:44.276Z</time></trkpt><trkpt lat="44.4388083" lon="6.86741"><ele>1808.3333333333335</ele><time>2026-05-03T13:13:45.276Z</time></trkpt><trkpt lat="44.43869" lon="6.8676033"><ele>1807.6666666666667</ele><time>2026-05-03T13:13:46.276Z</time></trkpt><trkpt lat="44.438565" lon="6.8677833"><ele>1807.0</ele><time>2026-05-03T13:13:47.276Z</time></trkpt><trkpt lat="44.4384517" lon="6.8679783"><ele>1807.0</ele><time>2026-05-03T13:13:48.277Z</time></trkpt><trkpt lat="44.4383567" lon="6.86819"><ele>1807.0</ele><time>2026-05-03T13:13:49.276Z</time></trkpt><trkpt lat="44.43827" lon="6.8683983"><ele>1807.0</ele><time>2026-05-03T13:13:50.276Z</time></trkpt><trkpt lat="44.4381683" lon="6.868615"><ele>1806.6666666666667</ele><time>2026-05-03T13:13:51.276Z</time></trkpt><trkpt lat="44.4380533" lon="6.86881"><ele>1806.3333333333335</ele><time>2026-05-03T13:13:52.277Z</time></trkpt><trkpt lat="44.4379133" lon="6.8689717"><ele>1806.0</ele><time>2026-05-03T13:13:53.276Z</time></trkpt><trkpt lat="44.437755" lon="6.8691083"><ele>1806.0</ele><time>2026-05-03T13:13:54.277Z</time></trkpt><trkpt lat="44.43762" lon="6.8692733"><ele>1806.0</ele><time>2026-05-03T13:13:55.277Z</time></trkpt><trkpt lat="44.4374833" lon="6.8694733"><ele>1806.0</ele><time>2026-05-03T13:13:56.276Z</time></trkpt><trkpt lat="44.4373517" lon="6.869675"><ele>1804.3333333333335</ele><time>2026-05-03T13:13:57.276Z</time></trkpt><trkpt lat="44.437225" lon="6.8698733"><ele>1802.6666666666667</ele><time>2026-05-03T13:13:58.276Z</time></trkpt><trkpt lat="44.4371" lon="6.8700717"><ele>1801.0</ele><time>2026-05-03T13:13:59.276Z</time></trkpt><trkpt lat="44.436975" lon="6.8702683"><ele>1809.0</ele><time>2026-05-03T13:14:00.276Z</time></trkpt><trkpt lat="44.4368433" lon="6.8704667"><ele>1817.0</ele><time>2026-05-03T13:14:01.277Z</time></trkpt><trkpt lat="44.4367117" lon="6.8706717"><ele>1825.0</ele><time>2026-05-03T13:14:02.276Z</time></trkpt><trkpt lat="44.43658" lon="6.8708667"><ele>1823.3333333333335</ele><time>2026-05-03T13:14:03.276Z</time></trkpt><trkpt lat="44.4364467" lon="6.87107"><ele>1821.6666666666665</ele><time>2026-05-03T13:14:04.276Z</time></trkpt><trkpt lat="44.4363217" lon="6.8712767"><ele>1820.0</ele><time>2026-05-03T13:14:05.276Z</time></trkpt><trkpt lat="44.4362033" lon="6.8714933"><ele>1820.0</ele><time>2026-05-03T13:14:06.276Z</time></trkpt><trkpt lat="44.43609" lon="6.8717133"><ele>1820.0</ele><time>2026-05-03T13:14:07.276Z</time></trkpt><trkpt lat="44.4359783" lon="6.8719333"><ele>1820.0</ele><time>2026-05-03T13:14:08.276Z</time></trkpt><trkpt lat="44.4358633" lon="6.8721467"><ele>1825.3333333333333</ele><time>2026-05-03T13:14:09.276Z</time></trkpt><trkpt lat="44.4357467" lon="6.8723683"><ele>1830.6666666666665</ele><time>2026-05-03T13:14:10.277Z</time></trkpt><trkpt lat="44.4356183" lon="6.8726"><ele>1836.0</ele><time>2026-05-03T13:14:11.277Z</time></trkpt><trkpt lat="44.4354833" lon="6.8728083"><ele>1833.3333333333335</ele><time>2026-05-03T13:14:12.276Z</time></trkpt><trkpt lat="44.4353383" lon="6.8729783"><ele>1830.6666666666667</ele><time>2026-05-03T13:14:13.276Z</time></trkpt><trkpt lat="44.43521" lon="6.87315"><ele>1828.0</ele><time>2026-05-03T13:14:14.277Z</time></trkpt><trkpt lat="44.4351083" lon="6.8733333"><ele>1832.6666666666667</ele><time>2026-05-03T13:14:15.276Z</time></trkpt><trkpt lat="44.4350383" lon="6.873545"><ele>1837.3333333333335</ele><time>2026-05-03T13:14:16.276Z</time></trkpt><trkpt lat="44.4349967" lon="6.873765"><ele>1842.0</ele><time>2026-05-03T13:14:17.276Z</time></trkpt><trkpt lat="44.4349717" lon="6.8739683"><ele>1842.0</ele><time>2026-05-03T13:14:18.276Z</time></trkpt><trkpt lat="44.43493" lon="6.8741583"><ele>1842.0</ele><time>2026-05-03T13:14:19.276Z</time></trkpt><trkpt lat="44.4348517" lon="6.874335"><ele>1842.0</ele><time>2026-05-03T13:14:20.276Z</time></trkpt><trkpt lat="44.43474" lon="6.87449"><ele>1842.0</ele><time>2026-05-03T13:14:21.276Z</time></trkpt><trkpt lat="44.4345967" lon="6.874625"><ele>1842.0</ele><time>2026-05-03T13:14:22.276Z</time></trkpt><trkpt lat="44.4344517" lon="6.874725"><ele>1842.0</ele><time>2026-05-03T13:14:23.276Z</time></trkpt><trkpt lat="44.4343033" lon="6.8748233"><ele>1842.0</ele><time>2026-05-03T13:14:24.276Z</time></trkpt><trkpt lat="44.4341817" lon="6.8749083"><ele>1842.0</ele><time>2026-05-03T13:14:25.276Z</time></trkpt><trkpt lat="44.4340783" lon="6.8750033"><ele>1841.9999999999998</ele><time>2026-05-03T13:14:26.277Z</time></trkpt><trkpt lat="44.434" lon="6.8751117"><ele>1841.9999999999998</ele><time>2026-05-03T13:14:27.276Z</time></trkpt><trkpt lat="44.433955" lon="6.87523"><ele>1842.0</ele><time>2026-05-03T13:14:28.276Z</time></trkpt><trkpt lat="44.43392" lon="6.8753717"><ele>1842.0</ele><time>2026-05-03T13:14:29.276Z</time></trkpt><trkpt lat="44.433915" lon="6.8755283"><ele>1845.25</ele><time>2026-05-03T13:14:30.277Z</time></trkpt><trkpt lat="44.4339683" lon="6.87566"><ele>1848.5</ele><time>2026-05-03T13:14:31.276Z</time></trkpt><trkpt lat="44.4340617" lon="6.8757417"><ele>1851.75</ele><time>2026-05-03T13:14:32.276Z</time></trkpt><trkpt lat="44.4341733" lon="6.8757717"><ele>1855.0</ele><time>2026-05-03T13:14:33.277Z</time></trkpt><trkpt lat="44.4342917" lon="6.8757417"><ele>1855.0</ele><time>2026-05-03T13:14:34.276Z</time></trkpt><trkpt lat="44.434405" lon="6.8756517"><ele>1855.0</ele><time>2026-05-03T13:14:35.276Z</time></trkpt><trkpt lat="44.43454" lon="6.8755117"><ele>1855.0</ele><time>2026-05-03T13:14:36.276Z</time></trkpt><trkpt lat="44.434685" lon="6.8753633"><ele>1855.3333333333335</ele><time>2026-05-03T13:14:37.276Z</time></trkpt><trkpt lat="44.434825" lon="6.8752133"><ele>1855.6666666666665</ele><time>2026-05-03T13:14:38.276Z</time></trkpt><trkpt lat="44.434955" lon="6.8750617"><ele>1856.0</ele><time>2026-05-03T13:14:39.276Z</time></trkpt><trkpt lat="44.4350567" lon="6.874895"><ele>1856.0</ele><time>2026-05-03T13:14:40.276Z</time></trkpt><trkpt lat="44.4351333" lon="6.874735"><ele>1856.0</ele><time>2026-05-03T13:14:41.276Z</time></trkpt><trkpt lat="44.4351983" lon="6.8745967"><ele>1856.0</ele><time>2026-05-03T13:14:42.276Z</time></trkpt><trkpt lat="44.435265" lon="6.8745183"><ele>1856.0</ele><time>2026-05-03T13:14:43.276Z</time></trkpt><trkpt lat="44.43535" lon="6.8744817"><ele>1856.0</ele><time>2026-05-03T13:14:44.276Z</time></trkpt><trkpt lat="44.4354183" lon="6.8744983"><ele>1856.0</ele><time>2026-05-03T13:14:45.277Z</time></trkpt><trkpt lat="44.4354667" lon="6.87456"><ele>1856.0</ele><time>2026-05-03T13:14:46.276Z</time></trkpt><trkpt lat="44.43548" lon="6.8746667"><ele>1856.0</ele><time>2026-05-03T13:14:47.276Z</time></trkpt><trkpt lat="44.4354417" lon="6.874785"><ele>1856.0</ele><time>2026-05-03T13:14:48.276Z</time></trkpt><trkpt lat="44.4353667" lon="6.87491"><ele>1856.0</ele><time>2026-05-03T13:14:49.276Z</time></trkpt><trkpt lat="44.4352633" lon="6.87503"><ele>1859.0</ele><time>2026-05-03T13:14:50.276Z</time></trkpt><trkpt lat="44.4351567" lon="6.8751583"><ele>1862.0</ele><time>2026-05-03T13:14:51.276Z</time></trkpt><trkpt lat="44.4350567" lon="6.8753083"><ele>1865.0</ele><time>2026-05-03T13:14:52.276Z</time></trkpt><trkpt lat="44.4349633" lon="6.8754633"><ele>1868.0</ele><time>2026-05-03T13:14:53.276Z</time></trkpt><trkpt lat="44.4348783" lon="6.8756317"><ele>1868.0</ele><time>2026-05-03T13:14:54.276Z</time></trkpt><trkpt lat="44.4347867" lon="6.8758133"><ele>1868.0</ele><time>2026-05-03T13:14:55.276Z</time></trkpt><trkpt lat="44.4346967" lon="6.8759983"><ele>1868.0</ele><time>2026-05-03T13:14:56.276Z</time></trkpt><trkpt lat="44.4345983" lon="6.8761933"><ele>1867.3333333333333</ele><time>2026-05-03T13:14:57.276Z</time></trkpt><trkpt lat="44.434485" lon="6.8763883"><ele>1866.6666666666665</ele><time>2026-05-03T13:14:58.276Z</time></trkpt><trkpt lat="44.4343533" lon="6.8765717"><ele>1866.0</ele><time>2026-05-03T13:14:59.276Z</time></trkpt><trkpt lat="44.4342133" lon="6.87675"><ele>1868.3333333333335</ele><time>2026-05-03T13:15:00.276Z</time></trkpt><trkpt lat="44.4340717" lon="6.8769217"><ele>1870.6666666666667</ele><time>2026-05-03T13:15:01.276Z</time></trkpt><trkpt lat="44.4339317" lon="6.8771117"><ele>1873.0</ele><time>2026-05-03T13:15:02.276Z</time></trkpt><trkpt lat="44.4337933" lon="6.87731"><ele>1873.0</ele><time>2026-05-03T13:15:03.276Z</time></trkpt><trkpt lat="44.4336533" lon="6.8774967"><ele>1873.0</ele><time>2026-05-03T13:15:04.276Z</time></trkpt><trkpt lat="44.433505" lon="6.8776883"><ele>1873.0</ele><time>2026-05-03T13:15:05.276Z</time></trkpt><trkpt lat="44.4333617" lon="6.8778833"><ele>1872.0</ele><time>2026-05-03T13:15:06.276Z</time></trkpt><trkpt lat="44.4332283" lon="6.87807"><ele>1871.0</ele><time>2026-05-03T13:15:07.276Z</time></trkpt><trkpt lat="44.4330933" lon="6.8782483"><ele>1870.0</ele><time>2026-05-03T13:15:08.276Z</time></trkpt><trkpt lat="44.43295" lon="6.8784183"><ele>1875.3333333333335</ele><time>2026-05-03T13:15:09.276Z</time></trkpt><trkpt lat="44.4327983" lon="6.8785867"><ele>1880.6666666666665</ele><time>2026-05-03T13:15:10.276Z</time></trkpt><trkpt lat="44.4326433" lon="6.8787417"><ele>1886.0</ele><time>2026-05-03T13:15:11.276Z</time></trkpt><trkpt lat="44.4324833" lon="6.8788817"><ele>1886.0</ele><time>2026-05-03T13:15:12.277Z</time></trkpt><trkpt lat="44.4323283" lon="6.87902"><ele>1886.0</ele><time>2026-05-03T13:15:13.277Z</time></trkpt><trkpt lat="44.4321867" lon="6.8791617"><ele>1886.0</ele><time>2026-05-03T13:15:14.276Z</time></trkpt><trkpt lat="44.4320667" lon="6.879295"><ele>1886.5</ele><time>2026-05-03T13:15:15.276Z</time></trkpt><trkpt lat="44.4319667" lon="6.8794383"><ele>1887.0</ele><time>2026-05-03T13:15:16.276Z</time></trkpt><trkpt lat="44.431875" lon="6.8796"><ele>1887.5</ele><time>2026-05-03T13:15:17.276Z</time></trkpt><trkpt lat="44.4317867" lon="6.8797833"><ele>1888.0</ele><time>2026-05-03T13:15:18.276Z</time></trkpt><trkpt lat="44.4317017" lon="6.87998"><ele>1891.6666666666667</ele><time>2026-05-03T13:15:19.276Z</time></trkpt><trkpt lat="44.431625" lon="6.8801733"><ele>1895.3333333333335</ele><time>2026-05-03T13:15:20.276Z</time></trkpt><trkpt lat="44.43155" lon="6.8803667"><ele>1899.0</ele><time>2026-05-03T13:15:21.276Z</time></trkpt><trkpt lat="44.431475" lon="6.8805617"><ele>1899.0</ele><time>2026-05-03T13:15:22.276Z</time></trkpt><trkpt lat="44.4314183" lon="6.8807517"><ele>1899.0</ele><time>2026-05-03T13:15:23.276Z</time></trkpt><trkpt lat="44.4313833" lon="6.880945"><ele>1899.0</ele><time>2026-05-03T13:15:24.276Z</time></trkpt><trkpt lat="44.4313783" lon="6.8811167"><ele>1899.0</ele><time>2026-05-03T13:15:25.276Z</time></trkpt><trkpt lat="44.4313683" lon="6.8812967"><ele>1900.75</ele><time>2026-05-03T13:15:26.276Z</time></trkpt><trkpt lat="44.431345" lon="6.8814733"><ele>1902.5</ele><time>2026-05-03T13:15:27.276Z</time></trkpt><trkpt lat="44.4313067" lon="6.8816583"><ele>1904.25</ele><time>2026-05-03T13:15:28.277Z</time></trkpt><trkpt lat="44.4312483" lon="6.88183"><ele>1906.0</ele><time>2026-05-03T13:15:29.276Z</time></trkpt><trkpt lat="44.431165" lon="6.882"><ele>1906.0</ele><time>2026-05-03T13:15:30.276Z</time></trkpt><trkpt lat="44.4310583" lon="6.8821667"><ele>1906.0</ele><time>2026-05-03T13:15:31.276Z</time></trkpt><trkpt lat="44.4309417" lon="6.8823233"><ele>1906.0</ele><time>2026-05-03T13:15:32.276Z</time></trkpt><trkpt lat="44.4308283" lon="6.882505"><ele>1912.0</ele><time>2026-05-03T13:15:33.276Z</time></trkpt><trkpt lat="44.4307217" lon="6.8827167"><ele>1918.0</ele><time>2026-05-03T13:15:34.277Z</time></trkpt><trkpt lat="44.43061" lon="6.8829217"><ele>1924.0</ele><time>2026-05-03T13:15:35.276Z</time></trkpt><trkpt lat="44.430495" lon="6.8831417"><ele>1920.3333333333335</ele><time>2026-05-03T13:15:36.276Z</time></trkpt><trkpt lat="44.4303867" lon="6.883355"><ele>1916.6666666666665</ele><time>2026-05-03T13:15:37.276Z</time></trkpt><trkpt lat="44.430275" lon="6.8835767"><ele>1913.0</ele><time>2026-05-03T13:15:38.276Z</time></trkpt><trkpt lat="44.43016" lon="6.88379"><ele>1913.0</ele><time>2026-05-03T13:15:39.276Z</time></trkpt><trkpt lat="44.4300433" lon="6.8840067"><ele>1913.0</ele><time>2026-05-03T13:15:40.276Z</time></trkpt><trkpt lat="44.4299367" lon="6.8842433"><ele>1913.0</ele><time>2026-05-03T13:15:41.277Z</time></trkpt><trkpt lat="44.4298483" lon="6.8844833"><ele>1914.6666666666665</ele><time>2026-05-03T13:15:42.276Z</time></trkpt><trkpt lat="44.4297617" lon="6.8847383"><ele>1916.3333333333335</ele><time>2026-05-03T13:15:43.276Z</time></trkpt><trkpt lat="44.42968" lon="6.884985"><ele>1918.0</ele><time>2026-05-03T13:15:44.276Z</time></trkpt><trkpt lat="44.4295733" lon="6.8852117"><ele>1918.0</ele><time>2026-05-03T13:15:45.276Z</time></trkpt><trkpt lat="44.42945" lon="6.8854067"><ele>1918.0</ele><time>2026-05-03T13:15:46.277Z</time></trkpt><trkpt lat="44.4293" lon="6.8855783"><ele>1918.0</ele><time>2026-05-03T13:15:47.276Z</time></trkpt><trkpt lat="44.4291567" lon="6.8857517"><ele>1914.6666666666667</ele><time>2026-05-03T13:15:48.276Z</time></trkpt><trkpt lat="44.4290267" lon="6.8859383"><ele>1911.3333333333335</ele><time>2026-05-03T13:15:49.276Z</time></trkpt><trkpt lat="44.4289083" lon="6.8861517"><ele>1908.0</ele><time>2026-05-03T13:15:50.276Z</time></trkpt><trkpt lat="44.428795" lon="6.8863583"><ele>1908.0</ele><time>2026-05-03T13:15:51.276Z</time></trkpt><trkpt lat="44.4286867" lon="6.8865583"><ele>1908.0</ele><time>2026-05-03T13:15:52.276Z</time></trkpt><trkpt lat="44.4285833" lon="6.8867517"><ele>1908.0</ele><time>2026-05-03T13:15:53.276Z</time></trkpt><trkpt lat="44.4284867" lon="6.8869417"><ele>1914.3333333333335</ele><time>2026-05-03T13:15:54.276Z</time></trkpt><trkpt lat="44.4283917" lon="6.887125"><ele>1920.6666666666667</ele><time>2026-05-03T13:15:55.276Z</time></trkpt><trkpt lat="44.4282983" lon="6.8873033"><ele>1927.0</ele><time>2026-05-03T13:15:56.276Z</time></trkpt><trkpt lat="44.4282067" lon="6.887485"><ele>1927.0</ele><time>2026-05-03T13:15:57.276Z</time></trkpt><trkpt lat="44.428125" lon="6.8876583"><ele>1927.0</ele><time>2026-05-03T13:15:58.276Z</time></trkpt><trkpt lat="44.42804" lon="6.8878367"><ele>1927.0</ele><time>2026-05-03T13:15:59.276Z</time></trkpt><trkpt lat="44.4279583" lon="6.8880133"><ele>1927.0</ele><time>2026-05-03T13:16:00.276Z</time></trkpt><trkpt lat="44.4278717" lon="6.88819"><ele>1927.0</ele><time>2026-05-03T13:16:01.277Z</time></trkpt><trkpt lat="44.4277833" lon="6.8883633"><ele>1927.0</ele><time>2026-05-03T13:16:02.276Z</time></trkpt><trkpt lat="44.427695" lon="6.8885183"><ele>1927.0</ele><time>2026-05-03T13:16:03.276Z</time></trkpt><trkpt lat="44.4276067" lon="6.8886717"><ele>1928.25</ele><time>2026-05-03T13:16:04.276Z</time></trkpt><trkpt lat="44.4275233" lon="6.8888433"><ele>1929.5</ele><time>2026-05-03T13:16:05.276Z</time></trkpt><trkpt lat="44.4274567" lon="6.8890167"><ele>1930.75</ele><time>2026-05-03T13:16:06.276Z</time></trkpt><trkpt lat="44.4274083" lon="6.8891833"><ele>1932.0</ele><time>2026-05-03T13:16:07.277Z</time></trkpt><trkpt lat="44.4273867" lon="6.889345"><ele>1933.25</ele><time>2026-05-03T13:16:08.277Z</time></trkpt><trkpt lat="44.427405" lon="6.8895167"><ele>1934.5</ele><time>2026-05-03T13:16:09.276Z</time></trkpt><trkpt lat="44.4274433" lon="6.8897017"><ele>1935.75</ele><time>2026-05-03T13:16:10.276Z</time></trkpt><trkpt lat="44.4274967" lon="6.8899167"><ele>1937.0</ele><time>2026-05-03T13:16:11.276Z</time></trkpt><trkpt lat="44.4275533" lon="6.89017"><ele>1939.0</ele><time>2026-05-03T13:16:12.276Z</time></trkpt><trkpt lat="44.4275933" lon="6.8904333"><ele>1941.0</ele><time>2026-05-03T13:16:13.276Z</time></trkpt><trkpt lat="44.4276233" lon="6.8906883"><ele>1943.0</ele><time>2026-05-03T13:16:14.276Z</time></trkpt><trkpt lat="44.427645" lon="6.89094"><ele>1945.0</ele><time>2026-05-03T13:16:15.276Z</time></trkpt><trkpt lat="44.4276283" lon="6.8911833"><ele>1947.0</ele><time>2026-05-03T13:16:16.276Z</time></trkpt><trkpt lat="44.4275867" lon="6.8914183"><ele>1949.0</ele><time>2026-05-03T13:16:17.276Z</time></trkpt><trkpt lat="44.4275317" lon="6.8916567"><ele>1951.3333333333333</ele><time>2026-05-03T13:16:18.276Z</time></trkpt><trkpt lat="44.4274567" lon="6.8918817"><ele>1953.6666666666665</ele><time>2026-05-03T13:16:19.276Z</time></trkpt><trkpt lat="44.4273767" lon="6.892085"><ele>1956.0</ele><time>2026-05-03T13:16:20.277Z</time></trkpt><trkpt lat="44.4272933" lon="6.89226"><ele>1956.0</ele><time>2026-05-03T13:16:21.276Z</time></trkpt><trkpt lat="44.42718" lon="6.892415"><ele>1956.0</ele><time>2026-05-03T13:16:22.276Z</time></trkpt><trkpt lat="44.4270483" lon="6.8925283"><ele>1956.0</ele><time>2026-05-03T13:16:23.276Z</time></trkpt><trkpt lat="44.4268833" lon="6.8925883"><ele>1958.3333333333335</ele><time>2026-05-03T13:16:24.276Z</time></trkpt><trkpt lat="44.4267183" lon="6.8926617"><ele>1960.6666666666667</ele><time>2026-05-03T13:16:25.276Z</time></trkpt><trkpt lat="44.4265717" lon="6.8927733"><ele>1963.0</ele><time>2026-05-03T13:16:26.276Z</time></trkpt><trkpt lat="44.4264367" lon="6.89291"><ele>1963.6666666666667</ele><time>2026-05-03T13:16:27.276Z</time></trkpt><trkpt lat="44.4263067" lon="6.8930633"><ele>1964.3333333333335</ele><time>2026-05-03T13:16:28.276Z</time></trkpt><trkpt lat="44.4261767" lon="6.8932333"><ele>1965.0</ele><time>2026-05-03T13:16:29.276Z</time></trkpt><trkpt lat="44.4260517" lon="6.8934267"><ele>1965.0</ele><time>2026-05-03T13:16:30.277Z</time></trkpt><trkpt lat="44.42593" lon="6.8936483"><ele>1965.0</ele><time>2026-05-03T13:16:31.276Z</time></trkpt><trkpt lat="44.4258083" lon="6.8938717"><ele>1965.0</ele><time>2026-05-03T13:16:32.276Z</time></trkpt><trkpt lat="44.42569" lon="6.8941017"><ele>1967.0</ele><time>2026-05-03T13:16:33.276Z</time></trkpt><trkpt lat="44.4255683" lon="6.8943367"><ele>1969.0</ele><time>2026-05-03T13:16:34.276Z</time></trkpt><trkpt lat="44.4254383" lon="6.8945533"><ele>1971.0</ele><time>2026-05-03T13:16:35.276Z</time></trkpt><trkpt lat="44.42531" lon="6.8947733"><ele>1972.3333333333335</ele><time>2026-05-03T13:16:36.276Z</time></trkpt><trkpt lat="44.4251767" lon="6.89498"><ele>1973.6666666666667</ele><time>2026-05-03T13:16:37.276Z</time></trkpt><trkpt lat="44.4250433" lon="6.8951717"><ele>1975.0</ele><time>2026-05-03T13:16:38.276Z</time></trkpt><trkpt lat="44.4249117" lon="6.895355"><ele>1975.3333333333335</ele><time>2026-05-03T13:16:39.276Z</time></trkpt><trkpt lat="44.4247667" lon="6.8955167"><ele>1975.6666666666665</ele><time>2026-05-03T13:16:40.276Z</time></trkpt><trkpt lat="44.4246117" lon="6.89564"><ele>1976.0</ele><time>2026-05-03T13:16:41.276Z</time></trkpt><trkpt lat="44.4244283" lon="6.8957317"><ele>1976.0</ele><time>2026-05-03T13:16:42.276Z</time></trkpt><trkpt lat="44.42424" lon="6.8957767"><ele>1976.0</ele><time>2026-05-03T13:16:43.276Z</time></trkpt><trkpt lat="44.4240533" lon="6.89582"><ele>1976.0</ele><time>2026-05-03T13:16:44.276Z</time></trkpt><trkpt lat="44.42388" lon="6.895875"><ele>1979.6666666666665</ele><time>2026-05-03T13:16:45.276Z</time></trkpt><trkpt lat="44.4237233" lon="6.89595"><ele>1983.3333333333335</ele><time>2026-05-03T13:16:46.276Z</time></trkpt><trkpt lat="44.4235783" lon="6.896045"><ele>1987.0</ele><time>2026-05-03T13:16:47.276Z</time></trkpt><trkpt lat="44.4234417" lon="6.896155"><ele>1987.0</ele><time>2026-05-03T13:16:48.276Z</time></trkpt><trkpt lat="44.423315" lon="6.8962917"><ele>1987.0</ele><time>2026-05-03T13:16:49.276Z</time></trkpt><trkpt lat="44.423195" lon="6.8964283"><ele>1987.0</ele><time>2026-05-03T13:16:50.276Z</time></trkpt><trkpt lat="44.4230733" lon="6.8965783"><ele>1989.0</ele><time>2026-05-03T13:16:51.276Z</time></trkpt><trkpt lat="44.4229567" lon="6.8967333"><ele>1991.0</ele><time>2026-05-03T13:16:52.276Z</time></trkpt><trkpt lat="44.4228433" lon="6.8968917"><ele>1993.0</ele><time>2026-05-03T13:16:53.276Z</time></trkpt><trkpt lat="44.4227317" lon="6.8970583"><ele>1993.0</ele><time>2026-05-03T13:16:54.276Z</time></trkpt><trkpt lat="44.4226233" lon="6.8972233"><ele>1993.0</ele><time>2026-05-03T13:16:55.276Z</time></trkpt><trkpt lat="44.42251" lon="6.8973817"><ele>1993.0</ele><time>2026-05-03T13:16:56.276Z</time></trkpt><trkpt lat="44.4224" lon="6.897535"><ele>1992.75</ele><time>2026-05-03T13:16:57.276Z</time></trkpt><trkpt lat="44.4222967" lon="6.8976767"><ele>1992.5</ele><time>2026-05-03T13:16:58.276Z</time></trkpt><trkpt lat="44.4222033" lon="6.89781"><ele>1992.25</ele><time>2026-05-03T13:16:59.276Z</time></trkpt><trkpt lat="44.42212" lon="6.8979433"><ele>1992.0</ele><time>2026-05-03T13:17:00.276Z</time></trkpt><trkpt lat="44.4220433" lon="6.8980633"><ele>1992.5</ele><time>2026-05-03T13:17:01.276Z</time></trkpt><trkpt lat="44.4219767" lon="6.8981583"><ele>1993.0</ele><time>2026-05-03T13:17:02.276Z</time></trkpt><trkpt lat="44.4219133" lon="6.8982483"><ele>1993.5</ele><time>2026-05-03T13:17:03.276Z</time></trkpt><trkpt lat="44.42187" lon="6.898315"><ele>1994.0</ele><time>2026-05-03T13:17:04.276Z</time></trkpt><trkpt lat="44.4218017" lon="6.8984033"><ele>1994.5</ele><time>2026-05-03T13:17:06.277Z</time></trkpt><trkpt lat="44.4217317" lon="6.89847"><ele>1995.0</ele><time>2026-05-03T13:17:09.276Z</time></trkpt><trkpt lat="44.4216917" lon="6.8985783"><ele>1995.0</ele><time>2026-05-03T13:19:58.276Z</time></trkpt><trkpt lat="44.4216667" lon="6.89868"><ele>1995.0</ele><time>2026-05-03T13:20:00.276Z</time></trkpt><trkpt lat="44.421605" lon="6.8988"><ele>1995.0</ele><time>2026-05-03T13:20:02.276Z</time></trkpt><trkpt lat="44.421555" lon="6.8988783"><ele>1995.0</ele><time>2026-05-03T13:20:03.276Z</time></trkpt><trkpt lat="44.4215067" lon="6.898965"><ele>1995.0</ele><time>2026-05-03T13:20:04.276Z</time></trkpt><trkpt lat="44.42145" lon="6.8990517"><ele>1995.0</ele><time>2026-05-03T13:20:05.276Z</time></trkpt><trkpt lat="44.4213933" lon="6.8991383"><ele>1995.0</ele><time>2026-05-03T13:20:06.276Z</time></trkpt><trkpt lat="44.42133" lon="6.8992367"><ele>1995.0</ele><time>2026-05-03T13:20:07.276Z</time></trkpt><trkpt lat="44.4212667" lon="6.8993383"><ele>1995.0</ele><time>2026-05-03T13:20:08.276Z</time></trkpt><trkpt lat="44.4211917" lon="6.8994417"><ele>1995.0</ele><time>2026-05-03T13:20:09.276Z</time></trkpt><trkpt lat="44.42111" lon="6.8995467"><ele>1995.0</ele><time>2026-05-03T13:20:10.276Z</time></trkpt><trkpt lat="44.4210267" lon="6.8996533"><ele>1994.6</ele><time>2026-05-03T13:20:11.276Z</time></trkpt><trkpt lat="44.420945" lon="6.8997567"><ele>1994.2</ele><time>2026-05-03T13:20:12.276Z</time></trkpt><trkpt lat="44.42086" lon="6.8998533"><ele>1993.8000000000002</ele><time>2026-05-03T13:20:13.276Z</time></trkpt><trkpt lat="44.420775" lon="6.8999483"><ele>1993.4</ele><time>2026-05-03T13:20:14.276Z</time></trkpt><trkpt lat="44.420685" lon="6.9000467"><ele>1993.0</ele><time>2026-05-03T13:20:15.276Z</time></trkpt><trkpt lat="44.420595" lon="6.900165"><ele>1991.75</ele><time>2026-05-03T13:20:16.276Z</time></trkpt><trkpt lat="44.42049" lon="6.9002933"><ele>1990.5</ele><time>2026-05-03T13:20:17.276Z</time></trkpt><trkpt lat="44.420365" lon="6.900415"><ele>1989.25</ele><time>2026-05-03T13:20:18.276Z</time></trkpt><trkpt lat="44.4202283" lon="6.900515"><ele>1988.0</ele><time>2026-05-03T13:20:19.276Z</time></trkpt><trkpt lat="44.42008" lon="6.9005933"><ele>1988.0</ele><time>2026-05-03T13:20:20.276Z</time></trkpt><trkpt lat="44.4199333" lon="6.9006517"><ele>1988.0</ele><time>2026-05-03T13:20:21.277Z</time></trkpt><trkpt lat="44.4198017" lon="6.9007033"><ele>1988.0</ele><time>2026-05-03T13:20:22.276Z</time></trkpt><trkpt lat="44.4196817" lon="6.90078"><ele>1988.0</ele><time>2026-05-03T13:20:23.276Z</time></trkpt><trkpt lat="44.4195733" lon="6.90088"><ele>1985.3333333333333</ele><time>2026-05-03T13:20:24.276Z</time></trkpt><trkpt lat="44.4194733" lon="6.90103"><ele>1982.6666666666665</ele><time>2026-05-03T13:20:25.277Z</time></trkpt><trkpt lat="44.4193967" lon="6.901215"><ele>1980.0</ele><time>2026-05-03T13:20:26.276Z</time></trkpt><trkpt lat="44.4193283" lon="6.90141"><ele>1980.0</ele><time>2026-05-03T13:20:27.277Z</time></trkpt><trkpt lat="44.4192517" lon="6.9016067"><ele>1980.0</ele><time>2026-05-03T13:20:28.276Z</time></trkpt><trkpt lat="44.4191767" lon="6.9018"><ele>1980.0</ele><time>2026-05-03T13:20:29.276Z</time></trkpt><trkpt lat="44.4191" lon="6.9019883"><ele>1981.0</ele><time>2026-05-03T13:20:30.276Z</time></trkpt><trkpt lat="44.4190233" lon="6.90217"><ele>1982.0</ele><time>2026-05-03T13:20:31.276Z</time></trkpt><trkpt lat="44.418945" lon="6.9023667"><ele>1983.0</ele><time>2026-05-03T13:20:32.276Z</time></trkpt><trkpt lat="44.4188733" lon="6.9025717"><ele>1979.0</ele><time>2026-05-03T13:20:33.276Z</time></trkpt><trkpt lat="44.4188183" lon="6.902805"><ele>1975.0</ele><time>2026-05-03T13:20:34.277Z</time></trkpt><trkpt lat="44.418765" lon="6.9030417"><ele>1971.0</ele><time>2026-05-03T13:20:35.276Z</time></trkpt><trkpt lat="44.4187267" lon="6.903285"><ele>1971.6666666666665</ele><time>2026-05-03T13:20:36.276Z</time></trkpt><trkpt lat="44.4186917" lon="6.90353"><ele>1972.3333333333333</ele><time>2026-05-03T13:20:37.276Z</time></trkpt><trkpt lat="44.4186567" lon="6.9037733"><ele>1973.0</ele><time>2026-05-03T13:20:38.276Z</time></trkpt><trkpt lat="44.4186083" lon="6.9040117"><ele>1974.6666666666665</ele><time>2026-05-03T13:20:39.277Z</time></trkpt><trkpt lat="44.4185583" lon="6.9042567"><ele>1976.3333333333335</ele><time>2026-05-03T13:20:40.276Z</time></trkpt><trkpt lat="44.4185067" lon="6.904495"><ele>1978.0</ele><time>2026-05-03T13:20:41.277Z</time></trkpt><trkpt lat="44.4184467" lon="6.9047117"><ele>1978.0</ele><time>2026-05-03T13:20:42.276Z</time></trkpt><trkpt lat="44.4183867" lon="6.9049283"><ele>1978.0</ele><time>2026-05-03T13:20:43.276Z</time></trkpt><trkpt lat="44.4183233" lon="6.9051083"><ele>1978.0</ele><time>2026-05-03T13:20:44.276Z</time></trkpt><trkpt lat="44.41827" lon="6.9052817"><ele>1978.0</ele><time>2026-05-03T13:20:45.276Z</time></trkpt><trkpt lat="44.4182083" lon="6.9054383"><ele>1976.5</ele><time>2026-05-03T13:20:46.276Z</time></trkpt><trkpt lat="44.4181117" lon="6.9055633"><ele>1975.0</ele><time>2026-05-03T13:20:47.276Z</time></trkpt><trkpt lat="44.417985" lon="6.9056417"><ele>1973.5</ele><time>2026-05-03T13:20:48.277Z</time></trkpt><trkpt lat="44.41783" lon="6.9056567"><ele>1972.0</ele><time>2026-05-03T13:20:49.276Z</time></trkpt><trkpt lat="44.417675" lon="6.905655"><ele>1972.0</ele><time>2026-05-03T13:20:50.276Z</time></trkpt><trkpt lat="44.4175083" lon="6.9056567"><ele>1972.0</ele><time>2026-05-03T13:20:51.276Z</time></trkpt><trkpt lat="44.4173417" lon="6.9056667"><ele>1972.0</ele><time>2026-05-03T13:20:52.276Z</time></trkpt><trkpt lat="44.4171817" lon="6.9056817"><ele>1971.3333333333335</ele><time>2026-05-03T13:20:53.277Z</time></trkpt><trkpt lat="44.4170217" lon="6.9057"><ele>1970.6666666666665</ele><time>2026-05-03T13:20:54.276Z</time></trkpt><trkpt lat="44.4168683" lon="6.9057467"><ele>1970.0</ele><time>2026-05-03T13:20:55.276Z</time></trkpt><trkpt lat="44.4167133" lon="6.9057967"><ele>1970.0</ele><time>2026-05-03T13:20:56.276Z</time></trkpt><trkpt lat="44.4165533" lon="6.905845"><ele>1970.0</ele><time>2026-05-03T13:20:57.276Z</time></trkpt><trkpt lat="44.4163983" lon="6.9058967"><ele>1970.0</ele><time>2026-05-03T13:20:58.276Z</time></trkpt><trkpt lat="44.4162383" lon="6.905955"><ele>1971.6666666666665</ele><time>2026-05-03T13:20:59.276Z</time></trkpt><trkpt lat="44.416095" lon="6.9060283"><ele>1973.3333333333335</ele><time>2026-05-03T13:21:00.276Z</time></trkpt><trkpt lat="44.4159667" lon="6.9061367"><ele>1975.0</ele><time>2026-05-03T13:21:01.277Z</time></trkpt><trkpt lat="44.4158533" lon="6.9062783"><ele>1975.0</ele><time>2026-05-03T13:21:02.276Z</time></trkpt><trkpt lat="44.4157367" lon="6.9064433"><ele>1975.0</ele><time>2026-05-03T13:21:03.277Z</time></trkpt><trkpt lat="44.4156167" lon="6.9066167"><ele>1975.0</ele><time>2026-05-03T13:21:04.277Z</time></trkpt><trkpt lat="44.4155017" lon="6.9068367"><ele>1973.6666666666667</ele><time>2026-05-03T13:21:05.276Z</time></trkpt><trkpt lat="44.4153917" lon="6.90707"><ele>1972.3333333333335</ele><time>2026-05-03T13:21:06.276Z</time></trkpt><trkpt lat="44.4152867" lon="6.9073283"><ele>1971.0</ele><time>2026-05-03T13:21:07.276Z</time></trkpt><trkpt lat="44.4151683" lon="6.9075667"><ele>1972.3333333333335</ele><time>2026-05-03T13:21:08.276Z</time></trkpt><trkpt lat="44.4150483" lon="6.9078117"><ele>1973.6666666666667</ele><time>2026-05-03T13:21:09.276Z</time></trkpt><trkpt lat="44.4149267" lon="6.9080567"><ele>1975.0</ele><time>2026-05-03T13:21:10.276Z</time></trkpt><trkpt lat="44.4148067" lon="6.9083033"><ele>1975.0</ele><time>2026-05-03T13:21:11.276Z</time></trkpt><trkpt lat="44.4147" lon="6.9085317"><ele>1975.0</ele><time>2026-05-03T13:21:12.276Z</time></trkpt><trkpt lat="44.41456" lon="6.90873"><ele>1975.0</ele><time>2026-05-03T13:21:13.276Z</time></trkpt><trkpt lat="44.41441" lon="6.9089167"><ele>1975.0</ele><time>2026-05-03T13:21:14.276Z</time></trkpt><trkpt lat="44.4142633" lon="6.9091033"><ele>1975.0</ele><time>2026-05-03T13:21:15.277Z</time></trkpt><trkpt lat="44.4141233" lon="6.9093"><ele>1975.0</ele><time>2026-05-03T13:21:16.276Z</time></trkpt><trkpt lat="44.4139833" lon="6.9094967"><ele>1975.0</ele><time>2026-05-03T13:21:17.277Z</time></trkpt><trkpt lat="44.4138517" lon="6.9097133"><ele>1975.0</ele><time>2026-05-03T13:21:18.276Z</time></trkpt><trkpt lat="44.413725" lon="6.9099317"><ele>1975.0</ele><time>2026-05-03T13:21:19.276Z</time></trkpt><trkpt lat="44.4135983" lon="6.9101683"><ele>1972.3333333333335</ele><time>2026-05-03T13:21:20.276Z</time></trkpt><trkpt lat="44.4134717" lon="6.910405"><ele>1969.6666666666665</ele><time>2026-05-03T13:21:21.276Z</time></trkpt><trkpt lat="44.413345" lon="6.9106483"><ele>1967.0</ele><time>2026-05-03T13:21:22.276Z</time></trkpt><trkpt lat="44.4132167" lon="6.9108933"><ele>1966.6666666666665</ele><time>2026-05-03T13:21:23.276Z</time></trkpt><trkpt lat="44.4130867" lon="6.911135"><ele>1966.3333333333335</ele><time>2026-05-03T13:21:24.276Z</time></trkpt><trkpt lat="44.4129583" lon="6.9113933"><ele>1966.0</ele><time>2026-05-03T13:21:25.276Z</time></trkpt><trkpt lat="44.4128433" lon="6.9116517"><ele>1965.6666666666667</ele><time>2026-05-03T13:21:26.277Z</time></trkpt><trkpt lat="44.4127417" lon="6.9119217"><ele>1965.3333333333335</ele><time>2026-05-03T13:21:27.276Z</time></trkpt><trkpt lat="44.4126483" lon="6.91219"><ele>1965.0</ele><time>2026-05-03T13:21:28.276Z</time></trkpt><trkpt lat="44.412565" lon="6.9124433"><ele>1968.0</ele><time>2026-05-03T13:21:29.276Z</time></trkpt><trkpt lat="44.4124883" lon="6.91268"><ele>1971.0</ele><time>2026-05-03T13:21:30.276Z</time></trkpt><trkpt lat="44.4124033" lon="6.912915"><ele>1974.0</ele><time>2026-05-03T13:21:31.276Z</time></trkpt><trkpt lat="44.412295" lon="6.91316"><ele>1974.0</ele><time>2026-05-03T13:21:32.276Z</time></trkpt><trkpt lat="44.41217" lon="6.9133817"><ele>1974.0</ele><time>2026-05-03T13:21:33.276Z</time></trkpt><trkpt lat="44.4120267" lon="6.9135933"><ele>1974.0</ele><time>2026-05-03T13:21:34.276Z</time></trkpt><trkpt lat="44.4118783" lon="6.9138033"><ele>1971.0</ele><time>2026-05-03T13:21:35.276Z</time></trkpt><trkpt lat="44.41172" lon="6.9140133"><ele>1968.0</ele><time>2026-05-03T13:21:36.276Z</time></trkpt><trkpt lat="44.411555" lon="6.9142217"><ele>1965.0</ele><time>2026-05-03T13:21:37.277Z</time></trkpt><trkpt lat="44.411375" lon="6.9144083"><ele>1964.0</ele><time>2026-05-03T13:21:38.277Z</time></trkpt><trkpt lat="44.4111983" lon="6.9145933"><ele>1963.0</ele><time>2026-05-03T13:21:39.277Z</time></trkpt><trkpt lat="44.4110133" lon="6.9147683"><ele>1962.0</ele><time>2026-05-03T13:21:40.276Z</time></trkpt><trkpt lat="44.41083" lon="6.9149367"><ele>1962.6666666666665</ele><time>2026-05-03T13:21:41.276Z</time></trkpt><trkpt lat="44.4106517" lon="6.915105"><ele>1963.3333333333333</ele><time>2026-05-03T13:21:42.276Z</time></trkpt><trkpt lat="44.4104733" lon="6.91525"><ele>1964.0</ele><time>2026-05-03T13:21:43.276Z</time></trkpt><trkpt lat="44.410295" lon="6.915395"><ele>1964.0</ele><time>2026-05-03T13:21:44.276Z</time></trkpt><trkpt lat="44.41013" lon="6.91553"><ele>1964.0</ele><time>2026-05-03T13:21:45.276Z</time></trkpt><trkpt lat="44.4099717" lon="6.91565"><ele>1964.0</ele><time>2026-05-03T13:21:46.277Z</time></trkpt><trkpt lat="44.409805" lon="6.91573"><ele>1963.0</ele><time>2026-05-03T13:21:47.276Z</time></trkpt><trkpt lat="44.4096417" lon="6.9157933"><ele>1962.0</ele><time>2026-05-03T13:21:48.276Z</time></trkpt><trkpt lat="44.4094667" lon="6.9158633"><ele>1961.0</ele><time>2026-05-03T13:21:49.276Z</time></trkpt><trkpt lat="44.4093" lon="6.9159633"><ele>1961.0</ele><time>2026-05-03T13:21:50.276Z</time></trkpt><trkpt lat="44.4091367" lon="6.91609"><ele>1961.0</ele><time>2026-05-03T13:21:51.276Z</time></trkpt><trkpt lat="44.408975" lon="6.9162333"><ele>1961.0</ele><time>2026-05-03T13:21:52.276Z</time></trkpt><trkpt lat="44.408825" lon="6.9163733"><ele>1957.3333333333333</ele><time>2026-05-03T13:21:53.276Z</time></trkpt><trkpt lat="44.4086917" lon="6.9165317"><ele>1953.6666666666665</ele><time>2026-05-03T13:21:54.276Z</time></trkpt><trkpt lat="44.4085717" lon="6.9166967"><ele>1950.0</ele><time>2026-05-03T13:21:55.277Z</time></trkpt><trkpt lat="44.4084633" lon="6.9169267"><ele>1950.0</ele><time>2026-05-03T13:21:56.276Z</time></trkpt><trkpt lat="44.4083717" lon="6.9171433"><ele>1950.0</ele><time>2026-05-03T13:21:57.276Z</time></trkpt><trkpt lat="44.40827" lon="6.91737"><ele>1950.0</ele><time>2026-05-03T13:21:58.276Z</time></trkpt><trkpt lat="44.40818" lon="6.917585"><ele>1946.0</ele><time>2026-05-03T13:21:59.276Z</time></trkpt><trkpt lat="44.408075" lon="6.917785"><ele>1942.0</ele><time>2026-05-03T13:22:00.276Z</time></trkpt><trkpt lat="44.4079533" lon="6.9179733"><ele>1938.0</ele><time>2026-05-03T13:22:01.276Z</time></trkpt><trkpt lat="44.4078183" lon="6.9181283"><ele>1938.0</ele><time>2026-05-03T13:22:02.277Z</time></trkpt><trkpt lat="44.4076983" lon="6.9182817"><ele>1938.0</ele><time>2026-05-03T13:22:03.276Z</time></trkpt><trkpt lat="44.407595" lon="6.91844"><ele>1938.0</ele><time>2026-05-03T13:22:04.276Z</time></trkpt><trkpt lat="44.40752" lon="6.9186317"><ele>1938.0</ele><time>2026-05-03T13:22:05.276Z</time></trkpt><trkpt lat="44.4074783" lon="6.9188317"><ele>1938.0</ele><time>2026-05-03T13:22:06.276Z</time></trkpt><trkpt lat="44.407475" lon="6.9190483"><ele>1938.0</ele><time>2026-05-03T13:22:07.276Z</time></trkpt><trkpt lat="44.407475" lon="6.9192533"><ele>1938.0</ele><time>2026-05-03T13:22:08.276Z</time></trkpt><trkpt lat="44.4074633" lon="6.919445"><ele>1938.0</ele><time>2026-05-03T13:22:09.276Z</time></trkpt><trkpt lat="44.40743" lon="6.91961"><ele>1938.0</ele><time>2026-05-03T13:22:10.276Z</time></trkpt><trkpt lat="44.4073633" lon="6.9197667"><ele>1938.0</ele><time>2026-05-03T13:22:11.276Z</time></trkpt><trkpt lat="44.407265" lon="6.9199033"><ele>1934.5</ele><time>2026-05-03T13:22:12.276Z</time></trkpt><trkpt lat="44.4071467" lon="6.919995"><ele>1931.0</ele><time>2026-05-03T13:22:13.276Z</time></trkpt><trkpt lat="44.4070167" lon="6.9200467"><ele>1927.5</ele><time>2026-05-03T13:22:14.276Z</time></trkpt><trkpt lat="44.4069017" lon="6.92008"><ele>1924.0</ele><time>2026-05-03T13:22:15.276Z</time></trkpt><trkpt lat="44.4068117" lon="6.9201533"><ele>1924.0</ele><time>2026-05-03T13:22:16.276Z</time></trkpt><trkpt lat="44.4067383" lon="6.9202517"><ele>1924.0</ele><time>2026-05-03T13:22:17.277Z</time></trkpt><trkpt lat="44.4066917" lon="6.920375"><ele>1924.0</ele><time>2026-05-03T13:22:18.276Z</time></trkpt><trkpt lat="44.406655" lon="6.9204933"><ele>1924.0</ele><time>2026-05-03T13:22:19.276Z</time></trkpt><trkpt lat="44.40662" lon="6.9205683"><ele>1924.0</ele><time>2026-05-03T13:22:20.277Z</time></trkpt><trkpt lat="44.4065283" lon="6.920595"><ele>1924.0000000000002</ele><time>2026-05-03T13:22:22.277Z</time></trkpt><trkpt lat="44.4065083" lon="6.9204633"><ele>1924.0</ele><time>2026-05-03T13:22:24.276Z</time></trkpt><trkpt lat="44.4065467" lon="6.9203733"><ele>1924.0</ele><time>2026-05-03T13:22:25.276Z</time></trkpt><trkpt lat="44.40658" lon="6.92027"><ele>1924.0</ele><time>2026-05-03T13:22:26.276Z</time></trkpt><trkpt lat="44.4065933" lon="6.92017"><ele>1924.0000000000002</ele><time>2026-05-03T13:22:27.276Z</time></trkpt><trkpt lat="44.4065317" lon="6.92008"><ele>1924.0</ele><time>2026-05-03T13:22:29.277Z</time></trkpt><trkpt lat="44.4064717" lon="6.9201133"><ele>1924.0</ele><time>2026-05-03T13:22:30.276Z</time></trkpt><trkpt lat="44.406405" lon="6.9202067"><ele>1924.0</ele><time>2026-05-03T13:22:31.276Z</time></trkpt><trkpt lat="44.40634" lon="6.920345"><ele>1924.0</ele><time>2026-05-03T13:22:32.276Z</time></trkpt><trkpt lat="44.4062833" lon="6.9205117"><ele>1924.0</ele><time>2026-05-03T13:22:33.276Z</time></trkpt><trkpt lat="44.40622" lon="6.920695"><ele>1918.25</ele><time>2026-05-03T13:22:34.276Z</time></trkpt><trkpt lat="44.40617" lon="6.9208783"><ele>1912.5</ele><time>2026-05-03T13:22:35.276Z</time></trkpt><trkpt lat="44.4061083" lon="6.9210567"><ele>1906.75</ele><time>2026-05-03T13:22:36.276Z</time></trkpt><trkpt lat="44.40604" lon="6.92121"><ele>1901.0</ele><time>2026-05-03T13:22:37.276Z</time></trkpt><trkpt lat="44.40597" lon="6.9213667"><ele>1901.0</ele><time>2026-05-03T13:22:38.276Z</time></trkpt><trkpt lat="44.4058983" lon="6.9215067"><ele>1901.0</ele><time>2026-05-03T13:22:39.276Z</time></trkpt><trkpt lat="44.4058333" lon="6.92165"><ele>1901.0</ele><time>2026-05-03T13:22:40.277Z</time></trkpt><trkpt lat="44.4057783" lon="6.9217933"><ele>1901.0</ele><time>2026-05-03T13:22:41.277Z</time></trkpt><trkpt lat="44.4057317" lon="6.9219417"><ele>1904.1999999999998</ele><time>2026-05-03T13:22:42.276Z</time></trkpt><trkpt lat="44.4057067" lon="6.922085"><ele>1907.3999999999999</ele><time>2026-05-03T13:22:43.276Z</time></trkpt><trkpt lat="44.4056817" lon="6.9222017"><ele>1910.6</ele><time>2026-05-03T13:22:44.276Z</time></trkpt><trkpt lat="44.4056483" lon="6.9222817"><ele>1913.8</ele><time>2026-05-03T13:22:45.276Z</time></trkpt><trkpt lat="44.4055533" lon="6.922305"><ele>1917.0</ele><time>2026-05-03T13:22:47.276Z</time></trkpt><trkpt lat="44.4055267" lon="6.9221217"><ele>1917.0</ele><time>2026-05-03T13:22:49.276Z</time></trkpt><trkpt lat="44.40555" lon="6.9219867"><ele>1916.9999999999998</ele><time>2026-05-03T13:22:50.276Z</time></trkpt><trkpt lat="44.4055933" lon="6.9218583"><ele>1916.9999999999998</ele><time>2026-05-03T13:22:51.276Z</time></trkpt><trkpt lat="44.4056367" lon="6.9217383"><ele>1917.0</ele><time>2026-05-03T13:22:52.276Z</time></trkpt><trkpt lat="44.405665" lon="6.9216433"><ele>1917.0</ele><time>2026-05-03T13:22:53.277Z</time></trkpt><trkpt lat="44.4056533" lon="6.9214917"><ele>1913.8</ele><time>2026-05-03T13:22:55.277Z</time></trkpt><trkpt lat="44.4055617" lon="6.921455"><ele>1910.6</ele><time>2026-05-03T13:22:57.276Z</time></trkpt><trkpt lat="44.4054817" lon="6.9215767"><ele>1907.3999999999999</ele><time>2026-05-03T13:22:59.276Z</time></trkpt><trkpt lat="44.40544" lon="6.92168"><ele>1904.1999999999998</ele><time>2026-05-03T13:23:00.276Z</time></trkpt><trkpt lat="44.4054167" lon="6.9217967"><ele>1901.0</ele><time>2026-05-03T13:23:01.276Z</time></trkpt><trkpt lat="44.405395" lon="6.92194"><ele>1900.25</ele><time>2026-05-03T13:23:02.276Z</time></trkpt><trkpt lat="44.4053683" lon="6.9221067"><ele>1899.5</ele><time>2026-05-03T13:23:03.276Z</time></trkpt><trkpt lat="44.40533" lon="6.9222683"><ele>1898.75</ele><time>2026-05-03T13:23:04.276Z</time></trkpt><trkpt lat="44.4052833" lon="6.9224267"><ele>1898.0</ele><time>2026-05-03T13:23:05.277Z</time></trkpt><trkpt lat="44.405225" lon="6.9225917"><ele>1898.0</ele><time>2026-05-03T13:23:06.276Z</time></trkpt><trkpt lat="44.405145" lon="6.92275"><ele>1898.0</ele><time>2026-05-03T13:23:07.276Z</time></trkpt><trkpt lat="44.405055" lon="6.92291"><ele>1898.0</ele><time>2026-05-03T13:23:08.276Z</time></trkpt><trkpt lat="44.40496" lon="6.9230517"><ele>1898.0</ele><time>2026-05-03T13:23:09.276Z</time></trkpt><trkpt lat="44.40486" lon="6.9231833"><ele>1898.0</ele><time>2026-05-03T13:23:10.276Z</time></trkpt><trkpt lat="44.4047383" lon="6.9233"><ele>1898.0</ele><time>2026-05-03T13:23:11.276Z</time></trkpt><trkpt lat="44.4046117" lon="6.9233917"><ele>1898.0</ele><time>2026-05-03T13:23:12.276Z</time></trkpt><trkpt lat="44.404485" lon="6.9234767"><ele>1898.0</ele><time>2026-05-03T13:23:13.276Z</time></trkpt><trkpt lat="44.4043683" lon="6.923575"><ele>1894.5</ele><time>2026-05-03T13:23:14.276Z</time></trkpt><trkpt lat="44.4042583" lon="6.9236767"><ele>1891.0</ele><time>2026-05-03T13:23:15.276Z</time></trkpt><trkpt lat="44.40416" lon="6.9237933"><ele>1887.5</ele><time>2026-05-03T13:23:16.276Z</time></trkpt><trkpt lat="44.4040617" lon="6.92393"><ele>1884.0</ele><time>2026-05-03T13:23:17.276Z</time></trkpt><trkpt lat="44.4039617" lon="6.92407"><ele>1884.0</ele><time>2026-05-03T13:23:18.276Z</time></trkpt><trkpt lat="44.40386" lon="6.9242167"><ele>1884.0</ele><time>2026-05-03T13:23:19.276Z</time></trkpt><trkpt lat="44.40375" lon="6.924335"><ele>1884.0</ele><time>2026-05-03T13:23:20.276Z</time></trkpt><trkpt lat="44.4036383" lon="6.9244183"><ele>1884.0</ele><time>2026-05-03T13:23:21.276Z</time></trkpt><trkpt lat="44.4035033" lon="6.9244617"><ele>1885.0</ele><time>2026-05-03T13:23:22.277Z</time></trkpt><trkpt lat="44.4033567" lon="6.924495"><ele>1886.0</ele><time>2026-05-03T13:23:23.276Z</time></trkpt><trkpt lat="44.4032183" lon="6.9245533"><ele>1887.0</ele><time>2026-05-03T13:23:24.276Z</time></trkpt><trkpt lat="44.403075" lon="6.9246233"><ele>1888.0</ele><time>2026-05-03T13:23:25.276Z</time></trkpt><trkpt lat="44.4029567" lon="6.9247183"><ele>1883.5</ele><time>2026-05-03T13:23:26.276Z</time></trkpt><trkpt lat="44.4028367" lon="6.9248417"><ele>1879.0</ele><time>2026-05-03T13:23:27.276Z</time></trkpt><trkpt lat="44.4027383" lon="6.92499"><ele>1874.5</ele><time>2026-05-03T13:23:28.277Z</time></trkpt><trkpt lat="44.4026667" lon="6.9251617"><ele>1870.0</ele><time>2026-05-03T13:23:29.276Z</time></trkpt><trkpt lat="44.4026217" lon="6.92534"><ele>1869.5</ele><time>2026-05-03T13:23:30.276Z</time></trkpt><trkpt lat="44.40261" lon="6.925535"><ele>1869.0</ele><time>2026-05-03T13:23:31.276Z</time></trkpt><trkpt lat="44.402625" lon="6.925725"><ele>1868.5</ele><time>2026-05-03T13:23:32.276Z</time></trkpt><trkpt lat="44.40266" lon="6.925905"><ele>1868.0</ele><time>2026-05-03T13:23:33.276Z</time></trkpt><trkpt lat="44.4027" lon="6.926075"><ele>1867.4</ele><time>2026-05-03T13:23:34.277Z</time></trkpt><trkpt lat="44.4027383" lon="6.9262217"><ele>1866.8000000000002</ele><time>2026-05-03T13:23:35.276Z</time></trkpt><trkpt lat="44.402755" lon="6.9263483"><ele>1866.2</ele><time>2026-05-03T13:23:36.276Z</time></trkpt><trkpt lat="44.40275" lon="6.9264733"><ele>1865.6</ele><time>2026-05-03T13:23:37.276Z</time></trkpt><trkpt lat="44.4027233" lon="6.9265767"><ele>1865.0</ele><time>2026-05-03T13:23:38.276Z</time></trkpt><trkpt lat="44.4026667" lon="6.926655"><ele>1865.0</ele><time>2026-05-03T13:23:39.276Z</time></trkpt><trkpt lat="44.402595" lon="6.9266733"><ele>1865.0</ele><time>2026-05-03T13:23:40.276Z</time></trkpt><trkpt lat="44.4025217" lon="6.9266417"><ele>1865.0</ele><time>2026-05-03T13:23:41.277Z</time></trkpt><trkpt lat="44.402455" lon="6.9265233"><ele>1865.0</ele><time>2026-05-03T13:23:42.276Z</time></trkpt><trkpt lat="44.4024233" lon="6.92635"><ele>1865.0</ele><time>2026-05-03T13:23:43.276Z</time></trkpt><trkpt lat="44.4024233" lon="6.9261267"><ele>1866.0</ele><time>2026-05-03T13:23:44.276Z</time></trkpt><trkpt lat="44.402445" lon="6.9258767"><ele>1867.0</ele><time>2026-05-03T13:23:45.276Z</time></trkpt><trkpt lat="44.402445" lon="6.9256517"><ele>1868.0</ele><time>2026-05-03T13:23:46.276Z</time></trkpt><trkpt lat="44.4024117" lon="6.9254567"><ele>1868.0</ele><time>2026-05-03T13:23:47.276Z</time></trkpt><trkpt lat="44.4023583" lon="6.9253133"><ele>1868.0</ele><time>2026-05-03T13:23:48.277Z</time></trkpt><trkpt lat="44.40228" lon="6.925185"><ele>1868.0</ele><time>2026-05-03T13:23:49.277Z</time></trkpt><trkpt lat="44.402175" lon="6.9250583"><ele>1868.0</ele><time>2026-05-03T13:23:50.277Z</time></trkpt><trkpt lat="44.402065" lon="6.9249367"><ele>1862.5</ele><time>2026-05-03T13:23:51.276Z</time></trkpt><trkpt lat="44.401955" lon="6.9248267"><ele>1857.0</ele><time>2026-05-03T13:23:52.276Z</time></trkpt><trkpt lat="44.4018517" lon="6.9247283"><ele>1851.5</ele><time>2026-05-03T13:23:53.276Z</time></trkpt><trkpt lat="44.40174" lon="6.9246467"><ele>1846.0</ele><time>2026-05-03T13:23:54.276Z</time></trkpt><trkpt lat="44.401645" lon="6.92461"><ele>1846.0</ele><time>2026-05-03T13:23:55.276Z</time></trkpt><trkpt lat="44.4015533" lon="6.9246233"><ele>1846.0</ele><time>2026-05-03T13:23:56.276Z</time></trkpt><trkpt lat="44.4014767" lon="6.9246933"><ele>1846.0</ele><time>2026-05-03T13:23:57.276Z</time></trkpt><trkpt lat="44.4014367" lon="6.92481"><ele>1846.0</ele><time>2026-05-03T13:23:58.276Z</time></trkpt><trkpt lat="44.4014367" lon="6.9249383"><ele>1846.0</ele><time>2026-05-03T13:23:59.276Z</time></trkpt><trkpt lat="44.4014733" lon="6.9250533"><ele>1844.5</ele><time>2026-05-03T13:24:00.276Z</time></trkpt><trkpt lat="44.4015467" lon="6.9251583"><ele>1843.0</ele><time>2026-05-03T13:24:01.277Z</time></trkpt><trkpt lat="44.4016483" lon="6.9252783"><ele>1841.5</ele><time>2026-05-03T13:24:02.276Z</time></trkpt><trkpt lat="44.4017517" lon="6.9254117"><ele>1840.0</ele><time>2026-05-03T13:24:03.277Z</time></trkpt><trkpt lat="44.4018417" lon="6.9255517"><ele>1840.0</ele><time>2026-05-03T13:24:04.276Z</time></trkpt><trkpt lat="44.4019133" lon="6.9257017"><ele>1840.0</ele><time>2026-05-03T13:24:05.276Z</time></trkpt><trkpt lat="44.4019717" lon="6.9258717"><ele>1840.0</ele><time>2026-05-03T13:24:06.276Z</time></trkpt><trkpt lat="44.40202" lon="6.9260467"><ele>1840.0</ele><time>2026-05-03T13:24:07.276Z</time></trkpt><trkpt lat="44.40205" lon="6.9262333"><ele>1838.0</ele><time>2026-05-03T13:24:08.276Z</time></trkpt><trkpt lat="44.402055" lon="6.9264233"><ele>1836.0</ele><time>2026-05-03T13:24:09.277Z</time></trkpt><trkpt lat="44.402055" lon="6.9266083"><ele>1834.0</ele><time>2026-05-03T13:24:10.276Z</time></trkpt><trkpt lat="44.402045" lon="6.9267833"><ele>1832.0</ele><time>2026-05-03T13:24:11.276Z</time></trkpt><trkpt lat="44.40203" lon="6.9269583"><ele>1832.0</ele><time>2026-05-03T13:24:12.276Z</time></trkpt><trkpt lat="44.402005" lon="6.927135"><ele>1831.9999999999998</ele><time>2026-05-03T13:24:13.276Z</time></trkpt><trkpt lat="44.40198" lon="6.927295"><ele>1831.9999999999998</ele><time>2026-05-03T13:24:14.276Z</time></trkpt><trkpt lat="44.4019533" lon="6.92743"><ele>1832.0</ele><time>2026-05-03T13:24:15.276Z</time></trkpt><trkpt lat="44.4019133" lon="6.92754"><ele>1832.0</ele><time>2026-05-03T13:24:16.277Z</time></trkpt><trkpt lat="44.4018517" lon="6.9276083"><ele>1832.0</ele><time>2026-05-03T13:24:17.276Z</time></trkpt><trkpt lat="44.401725" lon="6.9276083"><ele>1832.0</ele><time>2026-05-03T13:24:19.276Z</time></trkpt><trkpt lat="44.4016533" lon="6.927505"><ele>1832.0</ele><time>2026-05-03T13:24:20.276Z</time></trkpt><trkpt lat="44.4015817" lon="6.9273267"><ele>1832.0</ele><time>2026-05-03T13:24:21.277Z</time></trkpt><trkpt lat="44.4015183" lon="6.92713"><ele>1832.0</ele><time>2026-05-03T13:24:22.276Z</time></trkpt><trkpt lat="44.401465" lon="6.9269383"><ele>1832.0</ele><time>2026-05-03T13:24:23.276Z</time></trkpt><trkpt lat="44.401405" lon="6.9267533"><ele>1832.0</ele><time>2026-05-03T13:24:24.276Z</time></trkpt><trkpt lat="44.4013467" lon="6.92657"><ele>1832.0</ele><time>2026-05-03T13:24:25.276Z</time></trkpt><trkpt lat="44.4012917" lon="6.9263867"><ele>1827.5</ele><time>2026-05-03T13:24:26.276Z</time></trkpt><trkpt lat="44.401235" lon="6.926195"><ele>1823.0</ele><time>2026-05-03T13:24:27.276Z</time></trkpt><trkpt lat="44.4011833" lon="6.9260067"><ele>1818.5</ele><time>2026-05-03T13:24:28.276Z</time></trkpt><trkpt lat="44.4011417" lon="6.9258183"><ele>1814.0</ele><time>2026-05-03T13:24:29.277Z</time></trkpt><trkpt lat="44.4011267" lon="6.9256267"><ele>1814.0</ele><time>2026-05-03T13:24:30.276Z</time></trkpt><trkpt lat="44.4011167" lon="6.92545"><ele>1814.0</ele><time>2026-05-03T13:24:31.276Z</time></trkpt><trkpt lat="44.401105" lon="6.92529"><ele>1814.0</ele><time>2026-05-03T13:24:32.276Z</time></trkpt><trkpt lat="44.4010817" lon="6.9251433"><ele>1814.0</ele><time>2026-05-03T13:24:33.276Z</time></trkpt><trkpt lat="44.4010367" lon="6.9250317"><ele>1814.0</ele><time>2026-05-03T13:24:34.276Z</time></trkpt><trkpt lat="44.4009717" lon="6.924975"><ele>1814.0</ele><time>2026-05-03T13:24:35.276Z</time></trkpt><trkpt lat="44.4008883" lon="6.924965"><ele>1814.0</ele><time>2026-05-03T13:24:36.276Z</time></trkpt><trkpt lat="44.4008083" lon="6.924995"><ele>1814.0</ele><time>2026-05-03T13:24:37.276Z</time></trkpt><trkpt lat="44.40074" lon="6.9250733"><ele>1814.0</ele><time>2026-05-03T13:24:38.276Z</time></trkpt><trkpt lat="44.4006983" lon="6.925205"><ele>1814.0</ele><time>2026-05-03T13:24:39.276Z</time></trkpt><trkpt lat="44.4006817" lon="6.9253667"><ele>1814.0</ele><time>2026-05-03T13:24:40.276Z</time></trkpt><trkpt lat="44.4006967" lon="6.9255633"><ele>1814.0</ele><time>2026-05-03T13:24:41.276Z</time></trkpt><trkpt lat="44.4007383" lon="6.9257933"><ele>1814.0</ele><time>2026-05-03T13:24:42.276Z</time></trkpt><trkpt lat="44.4007683" lon="6.9260183"><ele>1813.0</ele><time>2026-05-03T13:24:43.276Z</time></trkpt><trkpt lat="44.400785" lon="6.9262433"><ele>1812.0</ele><time>2026-05-03T13:24:44.276Z</time></trkpt><trkpt lat="44.400795" lon="6.92646"><ele>1811.0</ele><time>2026-05-03T13:24:45.276Z</time></trkpt><trkpt lat="44.400795" lon="6.926675"><ele>1811.0</ele><time>2026-05-03T13:24:46.276Z</time></trkpt><trkpt lat="44.4007867" lon="6.9269033"><ele>1811.0</ele><time>2026-05-03T13:24:47.276Z</time></trkpt><trkpt lat="44.4007783" lon="6.92713"><ele>1811.0</ele><time>2026-05-03T13:24:48.276Z</time></trkpt><trkpt lat="44.4007583" lon="6.9273633"><ele>1811.3333333333333</ele><time>2026-05-03T13:24:49.276Z</time></trkpt><trkpt lat="44.4007333" lon="6.9276"><ele>1811.6666666666665</ele><time>2026-05-03T13:24:50.276Z</time></trkpt><trkpt lat="44.400715" lon="6.9278233"><ele>1812.0</ele><time>2026-05-03T13:24:51.276Z</time></trkpt><trkpt lat="44.4006933" lon="6.9280383"><ele>1812.0</ele><time>2026-05-03T13:24:52.276Z</time></trkpt><trkpt lat="44.40068" lon="6.9282467"><ele>1812.0</ele><time>2026-05-03T13:24:53.276Z</time></trkpt><trkpt lat="44.4006683" lon="6.928425"><ele>1812.0</ele><time>2026-05-03T13:24:54.276Z</time></trkpt><trkpt lat="44.40065" lon="6.9285717"><ele>1812.0</ele><time>2026-05-03T13:24:55.276Z</time></trkpt><trkpt lat="44.4006183" lon="6.9286683"><ele>1813.1999999999998</ele><time>2026-05-03T13:24:56.277Z</time></trkpt><trkpt lat="44.4005667" lon="6.9287333"><ele>1814.3999999999999</ele><time>2026-05-03T13:24:57.276Z</time></trkpt><trkpt lat="44.4004617" lon="6.9287017"><ele>1815.6000000000001</ele><time>2026-05-03T13:24:59.276Z</time></trkpt><trkpt lat="44.4004333" lon="6.9285883"><ele>1816.8000000000002</ele><time>2026-05-03T13:25:00.276Z</time></trkpt><trkpt lat="44.4004267" lon="6.928415"><ele>1818.0</ele><time>2026-05-03T13:25:01.276Z</time></trkpt><trkpt lat="44.4004383" lon="6.928205"><ele>1815.6666666666665</ele><time>2026-05-03T13:25:02.276Z</time></trkpt><trkpt lat="44.4004583" lon="6.927965"><ele>1813.3333333333333</ele><time>2026-05-03T13:25:03.276Z</time></trkpt><trkpt lat="44.4004817" lon="6.9277517"><ele>1811.0</ele><time>2026-05-03T13:25:04.276Z</time></trkpt><trkpt lat="44.4005067" lon="6.9275483"><ele>1811.0</ele><time>2026-05-03T13:25:05.276Z</time></trkpt><trkpt lat="44.4005267" lon="6.9273733"><ele>1811.0</ele><time>2026-05-03T13:25:06.276Z</time></trkpt><trkpt lat="44.4005433" lon="6.9272267"><ele>1811.0</ele><time>2026-05-03T13:25:07.276Z</time></trkpt><trkpt lat="44.4005467" lon="6.927085"><ele>1811.0</ele><time>2026-05-03T13:25:08.276Z</time></trkpt><trkpt lat="44.40052" lon="6.92698"><ele>1811.0</ele><time>2026-05-03T13:25:09.276Z</time></trkpt><trkpt lat="44.4004617" lon="6.9269267"><ele>1806.0</ele><time>2026-05-03T13:25:10.276Z</time></trkpt><trkpt lat="44.40039" lon="6.9269083"><ele>1801.0</ele><time>2026-05-03T13:25:11.276Z</time></trkpt><trkpt lat="44.40032" lon="6.926945"><ele>1796.0</ele><time>2026-05-03T13:25:12.276Z</time></trkpt><trkpt lat="44.400255" lon="6.92703"><ele>1791.0</ele><time>2026-05-03T13:25:13.277Z</time></trkpt><trkpt lat="44.4001967" lon="6.9271683"><ele>1786.0</ele><time>2026-05-03T13:25:14.277Z</time></trkpt><trkpt lat="44.4001383" lon="6.9273867"><ele>1786.0</ele><time>2026-05-03T13:25:15.276Z</time></trkpt><trkpt lat="44.4000767" lon="6.927635"><ele>1786.0</ele><time>2026-05-03T13:25:16.276Z</time></trkpt><trkpt lat="44.40003" lon="6.927855"><ele>1786.0</ele><time>2026-05-03T13:25:17.276Z</time></trkpt><trkpt lat="44.3999817" lon="6.9280783"><ele>1786.0</ele><time>2026-05-03T13:25:18.276Z</time></trkpt><trkpt lat="44.3999517" lon="6.9283017"><ele>1786.0</ele><time>2026-05-03T13:25:19.276Z</time></trkpt><trkpt lat="44.399945" lon="6.9285083"><ele>1786.0</ele><time>2026-05-03T13:25:20.276Z</time></trkpt><trkpt lat="44.3999533" lon="6.9286833"><ele>1786.0</ele><time>2026-05-03T13:25:21.276Z</time></trkpt><trkpt lat="44.3999583" lon="6.9288383"><ele>1786.3333333333335</ele><time>2026-05-03T13:25:22.276Z</time></trkpt><trkpt lat="44.39995" lon="6.9289633"><ele>1786.6666666666667</ele><time>2026-05-03T13:25:23.276Z</time></trkpt><trkpt lat="44.3999267" lon="6.9290633"><ele>1787.0</ele><time>2026-05-03T13:25:24.276Z</time></trkpt><trkpt lat="44.3998617" lon="6.92911"><ele>1787.3333333333335</ele><time>2026-05-03T13:25:25.276Z</time></trkpt><trkpt lat="44.3997933" lon="6.9291"><ele>1787.6666666666667</ele><time>2026-05-03T13:25:26.276Z</time></trkpt><trkpt lat="44.3997317" lon="6.92905"><ele>1788.0</ele><time>2026-05-03T13:25:27.276Z</time></trkpt><trkpt lat="44.3996883" lon="6.9289333"><ele>1782.5</ele><time>2026-05-03T13:25:28.276Z</time></trkpt><trkpt lat="44.3996583" lon="6.9287483"><ele>1777.0</ele><time>2026-05-03T13:25:29.276Z</time></trkpt><trkpt lat="44.3996283" lon="6.9285367"><ele>1771.5</ele><time>2026-05-03T13:25:30.276Z</time></trkpt><trkpt lat="44.3996083" lon="6.92832"><ele>1766.0</ele><time>2026-05-03T13:25:31.276Z</time></trkpt><trkpt lat="44.39959" lon="6.92812"><ele>1766.0</ele><time>2026-05-03T13:25:32.276Z</time></trkpt><trkpt lat="44.3995633" lon="6.9279467"><ele>1766.0</ele><time>2026-05-03T13:25:33.276Z</time></trkpt><trkpt lat="44.3995517" lon="6.927775"><ele>1766.0</ele><time>2026-05-03T13:25:34.276Z</time></trkpt><trkpt lat="44.3995483" lon="6.9276117"><ele>1766.0</ele><time>2026-05-03T13:25:35.276Z</time></trkpt><trkpt lat="44.3995583" lon="6.9274533"><ele>1765.6</ele><time>2026-05-03T13:25:36.277Z</time></trkpt><trkpt lat="44.3995833" lon="6.9273"><ele>1765.1999999999998</ele><time>2026-05-03T13:25:37.276Z</time></trkpt><trkpt lat="44.399615" lon="6.9271667"><ele>1764.8000000000002</ele><time>2026-05-03T13:25:38.276Z</time></trkpt><trkpt lat="44.399645" lon="6.927035"><ele>1764.4</ele><time>2026-05-03T13:25:39.276Z</time></trkpt><trkpt lat="44.3996683" lon="6.9269133"><ele>1764.0</ele><time>2026-05-03T13:25:40.276Z</time></trkpt><trkpt lat="44.3996833" lon="6.926795"><ele>1764.0</ele><time>2026-05-03T13:25:41.276Z</time></trkpt><trkpt lat="44.39968" lon="6.9266917"><ele>1764.0</ele><time>2026-05-03T13:25:42.276Z</time></trkpt><trkpt lat="44.3996483" lon="6.9266067"><ele>1764.0</ele><time>2026-05-03T13:25:43.276Z</time></trkpt><trkpt lat="44.39953" lon="6.926565"><ele>1764.0</ele><time>2026-05-03T13:25:45.277Z</time></trkpt><trkpt lat="44.3994567" lon="6.9266183"><ele>1764.0</ele><time>2026-05-03T13:25:46.277Z</time></trkpt><trkpt lat="44.3993883" lon="6.9267383"><ele>1764.0</ele><time>2026-05-03T13:25:47.276Z</time></trkpt><trkpt lat="44.3993333" lon="6.9269"><ele>1764.0</ele><time>2026-05-03T13:25:48.276Z</time></trkpt><trkpt lat="44.399285" lon="6.9270883"><ele>1764.0</ele><time>2026-05-03T13:25:49.276Z</time></trkpt><trkpt lat="44.3992417" lon="6.927275"><ele>1764.0</ele><time>2026-05-03T13:25:50.276Z</time></trkpt><trkpt lat="44.3992033" lon="6.927445"><ele>1764.5</ele><time>2026-05-03T13:25:51.276Z</time></trkpt><trkpt lat="44.3991667" lon="6.9276183"><ele>1765.0</ele><time>2026-05-03T13:25:52.276Z</time></trkpt><trkpt lat="44.3991333" lon="6.9277933"><ele>1765.5</ele><time>2026-05-03T13:25:53.277Z</time></trkpt><trkpt lat="44.3991267" lon="6.9279717"><ele>1766.0</ele><time>2026-05-03T13:25:54.277Z</time></trkpt><trkpt lat="44.39913" lon="6.92816"><ele>1766.0</ele><time>2026-05-03T13:25:55.276Z</time></trkpt><trkpt lat="44.3991483" lon="6.9283183"><ele>1766.0</ele><time>2026-05-03T13:25:56.276Z</time></trkpt><trkpt lat="44.3991633" lon="6.9284717"><ele>1766.0</ele><time>2026-05-03T13:25:57.276Z</time></trkpt><trkpt lat="44.3991667" lon="6.9286117"><ele>1766.0</ele><time>2026-05-03T13:25:58.277Z</time></trkpt><trkpt lat="44.3991667" lon="6.92874"><ele>1766.0</ele><time>2026-05-03T13:25:59.276Z</time></trkpt><trkpt lat="44.39916" lon="6.9288517"><ele>1765.4</ele><time>2026-05-03T13:26:00.276Z</time></trkpt><trkpt lat="44.3991333" lon="6.9289317"><ele>1764.8</ele><time>2026-05-03T13:26:01.276Z</time></trkpt><trkpt lat="44.39902" lon="6.9289717"><ele>1764.2000000000003</ele><time>2026-05-03T13:26:03.276Z</time></trkpt><trkpt lat="44.39895" lon="6.9289133"><ele>1763.6000000000001</ele><time>2026-05-03T13:26:04.276Z</time></trkpt><trkpt lat="44.3988817" lon="6.9287867"><ele>1763.0</ele><time>2026-05-03T13:26:05.276Z</time></trkpt><trkpt lat="44.3988233" lon="6.928635"><ele>1758.75</ele><time>2026-05-03T13:26:06.276Z</time></trkpt><trkpt lat="44.3987683" lon="6.9284717"><ele>1754.5</ele><time>2026-05-03T13:26:07.276Z</time></trkpt><trkpt lat="44.398725" lon="6.928275"><ele>1750.25</ele><time>2026-05-03T13:26:08.276Z</time></trkpt><trkpt lat="44.3986983" lon="6.92807"><ele>1746.0</ele><time>2026-05-03T13:26:09.276Z</time></trkpt><trkpt lat="44.398665" lon="6.9278933"><ele>1746.0</ele><time>2026-05-03T13:26:10.276Z</time></trkpt><trkpt lat="44.3986433" lon="6.9277183"><ele>1746.0</ele><time>2026-05-03T13:26:11.276Z</time></trkpt><trkpt lat="44.3986483" lon="6.9275517"><ele>1746.0</ele><time>2026-05-03T13:26:12.277Z</time></trkpt><trkpt lat="44.3986617" lon="6.9273917"><ele>1746.0</ele><time>2026-05-03T13:26:13.276Z</time></trkpt><trkpt lat="44.3986883" lon="6.9272483"><ele>1745.8333333333333</ele><time>2026-05-03T13:26:14.276Z</time></trkpt><trkpt lat="44.3987233" lon="6.9271233"><ele>1745.6666666666665</ele><time>2026-05-03T13:26:15.276Z</time></trkpt><trkpt lat="44.398755" lon="6.92701"><ele>1745.5</ele><time>2026-05-03T13:26:16.276Z</time></trkpt><trkpt lat="44.3987817" lon="6.9269083"><ele>1745.3333333333333</ele><time>2026-05-03T13:26:17.276Z</time></trkpt><trkpt lat="44.3987983" lon="6.9268133"><ele>1745.1666666666665</ele><time>2026-05-03T13:26:18.276Z</time></trkpt><trkpt lat="44.39879" lon="6.9267183"><ele>1745.0</ele><time>2026-05-03T13:26:19.276Z</time></trkpt><trkpt lat="44.39871" lon="6.9266117"><ele>1745.0</ele><time>2026-05-03T13:26:21.276Z</time></trkpt><trkpt lat="44.3986383" lon="6.9266017"><ele>1745.0</ele><time>2026-05-03T13:26:22.276Z</time></trkpt><trkpt lat="44.398565" lon="6.9266517"><ele>1745.0</ele><time>2026-05-03T13:26:23.276Z</time></trkpt><trkpt lat="44.398495" lon="6.9267383"><ele>1745.0</ele><time>2026-05-03T13:26:24.276Z</time></trkpt><trkpt lat="44.398435" lon="6.9268767"><ele>1745.0</ele><time>2026-05-03T13:26:25.276Z</time></trkpt><trkpt lat="44.3983733" lon="6.9270683"><ele>1745.0</ele><time>2026-05-03T13:26:26.276Z</time></trkpt><trkpt lat="44.398315" lon="6.9273017"><ele>1745.0</ele><time>2026-05-03T13:26:27.277Z</time></trkpt><trkpt lat="44.3982567" lon="6.9275117"><ele>1745.0</ele><time>2026-05-03T13:26:28.276Z</time></trkpt><trkpt lat="44.3981867" lon="6.927705"><ele>1745.25</ele><time>2026-05-03T13:26:29.276Z</time></trkpt><trkpt lat="44.39811" lon="6.9278867"><ele>1745.5</ele><time>2026-05-03T13:26:30.276Z</time></trkpt><trkpt lat="44.39804" lon="6.92806"><ele>1745.75</ele><time>2026-05-03T13:26:31.277Z</time></trkpt><trkpt lat="44.3979733" lon="6.9282417"><ele>1746.0</ele><time>2026-05-03T13:26:32.276Z</time></trkpt><trkpt lat="44.39792" lon="6.9284283"><ele>1742.0</ele><time>2026-05-03T13:26:33.276Z</time></trkpt><trkpt lat="44.3978817" lon="6.92862"><ele>1738.0</ele><time>2026-05-03T13:26:34.276Z</time></trkpt><trkpt lat="44.39788" lon="6.9288117"><ele>1734.0</ele><time>2026-05-03T13:26:35.277Z</time></trkpt><trkpt lat="44.3978833" lon="6.929"><ele>1730.0</ele><time>2026-05-03T13:26:36.276Z</time></trkpt><trkpt lat="44.3978883" lon="6.92919"><ele>1728.75</ele><time>2026-05-03T13:26:37.276Z</time></trkpt><trkpt lat="44.39789" lon="6.92938"><ele>1727.5</ele><time>2026-05-03T13:26:38.276Z</time></trkpt><trkpt lat="44.3978817" lon="6.92956"><ele>1726.25</ele><time>2026-05-03T13:26:39.276Z</time></trkpt><trkpt lat="44.3978667" lon="6.92974"><ele>1725.0</ele><time>2026-05-03T13:26:40.276Z</time></trkpt><trkpt lat="44.3978383" lon="6.9299067"><ele>1724.25</ele><time>2026-05-03T13:26:41.277Z</time></trkpt><trkpt lat="44.3977883" lon="6.9300617"><ele>1723.5</ele><time>2026-05-03T13:26:42.276Z</time></trkpt><trkpt lat="44.3977517" lon="6.93021"><ele>1722.75</ele><time>2026-05-03T13:26:43.276Z</time></trkpt><trkpt lat="44.3977067" lon="6.9303633"><ele>1722.0</ele><time>2026-05-03T13:26:44.276Z</time></trkpt><trkpt lat="44.39767" lon="6.930515"><ele>1722.0</ele><time>2026-05-03T13:26:45.276Z</time></trkpt><trkpt lat="44.3976433" lon="6.9306833"><ele>1722.0</ele><time>2026-05-03T13:26:46.276Z</time></trkpt><trkpt lat="44.3976467" lon="6.9308633"><ele>1722.0</ele><time>2026-05-03T13:26:47.276Z</time></trkpt><trkpt lat="44.3976767" lon="6.9310517"><ele>1722.0</ele><time>2026-05-03T13:26:48.277Z</time></trkpt><trkpt lat="44.397705" lon="6.9312483"><ele>1721.5</ele><time>2026-05-03T13:26:49.277Z</time></trkpt><trkpt lat="44.3977183" lon="6.9314533"><ele>1721.0</ele><time>2026-05-03T13:26:50.276Z</time></trkpt><trkpt lat="44.3977217" lon="6.9316567"><ele>1720.5</ele><time>2026-05-03T13:26:51.276Z</time></trkpt><trkpt lat="44.397715" lon="6.93187"><ele>1720.0</ele><time>2026-05-03T13:26:52.276Z</time></trkpt><trkpt lat="44.3976983" lon="6.9320833"><ele>1718.0</ele><time>2026-05-03T13:26:53.276Z</time></trkpt><trkpt lat="44.3976717" lon="6.9322983"><ele>1716.0</ele><time>2026-05-03T13:26:54.276Z</time></trkpt><trkpt lat="44.3976283" lon="6.9324967"><ele>1714.0</ele><time>2026-05-03T13:26:55.276Z</time></trkpt><trkpt lat="44.3975717" lon="6.932685"><ele>1713.6666666666667</ele><time>2026-05-03T13:26:56.276Z</time></trkpt><trkpt lat="44.3975233" lon="6.932895"><ele>1713.3333333333335</ele><time>2026-05-03T13:26:57.276Z</time></trkpt><trkpt lat="44.397475" lon="6.933135"><ele>1713.0</ele><time>2026-05-03T13:26:58.276Z</time></trkpt><trkpt lat="44.3974183" lon="6.9333783"><ele>1714.3333333333335</ele><time>2026-05-03T13:26:59.276Z</time></trkpt><trkpt lat="44.3973567" lon="6.933615"><ele>1715.6666666666667</ele><time>2026-05-03T13:27:00.277Z</time></trkpt><trkpt lat="44.3972867" lon="6.9338383"><ele>1717.0</ele><time>2026-05-03T13:27:01.276Z</time></trkpt><trkpt lat="44.397215" lon="6.9340467"><ele>1710.0</ele><time>2026-05-03T13:27:02.276Z</time></trkpt><trkpt lat="44.3971517" lon="6.9342417"><ele>1703.0</ele><time>2026-05-03T13:27:03.276Z</time></trkpt><trkpt lat="44.3970817" lon="6.9344317"><ele>1696.0</ele><time>2026-05-03T13:27:04.276Z</time></trkpt><trkpt lat="44.397025" lon="6.9346183"><ele>1696.0</ele><time>2026-05-03T13:27:05.276Z</time></trkpt><trkpt lat="44.3969883" lon="6.9347867"><ele>1696.0</ele><time>2026-05-03T13:27:06.276Z</time></trkpt><trkpt lat="44.3969567" lon="6.9349617"><ele>1696.0</ele><time>2026-05-03T13:27:07.276Z</time></trkpt><trkpt lat="44.3969267" lon="6.9351383"><ele>1696.0</ele><time>2026-05-03T13:27:08.277Z</time></trkpt><trkpt lat="44.396915" lon="6.9353117"><ele>1696.6</ele><time>2026-05-03T13:27:09.276Z</time></trkpt><trkpt lat="44.39691" lon="6.93547"><ele>1697.1999999999998</ele><time>2026-05-03T13:27:10.277Z</time></trkpt><trkpt lat="44.3969033" lon="6.9356217"><ele>1697.8000000000002</ele><time>2026-05-03T13:27:11.276Z</time></trkpt><trkpt lat="44.3968883" lon="6.935775"><ele>1698.4</ele><time>2026-05-03T13:27:12.276Z</time></trkpt><trkpt lat="44.396865" lon="6.935925"><ele>1699.0</ele><time>2026-05-03T13:27:13.276Z</time></trkpt><trkpt lat="44.396815" lon="6.93607"><ele>1699.5</ele><time>2026-05-03T13:27:14.277Z</time></trkpt><trkpt lat="44.3967533" lon="6.93622"><ele>1700.0</ele><time>2026-05-03T13:27:15.276Z</time></trkpt><trkpt lat="44.3966917" lon="6.9363583"><ele>1700.5</ele><time>2026-05-03T13:27:16.276Z</time></trkpt><trkpt lat="44.39662" lon="6.9365"><ele>1701.0</ele><time>2026-05-03T13:27:17.276Z</time></trkpt><trkpt lat="44.3965583" lon="6.936645"><ele>1701.5</ele><time>2026-05-03T13:27:18.276Z</time></trkpt><trkpt lat="44.3964983" lon="6.9367733"><ele>1702.0</ele><time>2026-05-03T13:27:19.277Z</time></trkpt><trkpt lat="44.3964367" lon="6.9369133"><ele>1702.5</ele><time>2026-05-03T13:27:20.276Z</time></trkpt><trkpt lat="44.39638" lon="6.937075"><ele>1703.0</ele><time>2026-05-03T13:27:21.276Z</time></trkpt><trkpt lat="44.39634" lon="6.9372283"><ele>1700.75</ele><time>2026-05-03T13:27:22.276Z</time></trkpt><trkpt lat="44.396315" lon="6.9373933"><ele>1698.5</ele><time>2026-05-03T13:27:23.276Z</time></trkpt><trkpt lat="44.396275" lon="6.9375533"><ele>1696.25</ele><time>2026-05-03T13:27:24.276Z</time></trkpt><trkpt lat="44.3962217" lon="6.9377033"><ele>1694.0</ele><time>2026-05-03T13:27:25.277Z</time></trkpt><trkpt lat="44.3961683" lon="6.9378367"><ele>1693.75</ele><time>2026-05-03T13:27:26.276Z</time></trkpt><trkpt lat="44.3961167" lon="6.938"><ele>1693.5</ele><time>2026-05-03T13:27:27.276Z</time></trkpt><trkpt lat="44.3960567" lon="6.9381383"><ele>1693.25</ele><time>2026-05-03T13:27:28.277Z</time></trkpt><trkpt lat="44.3960017" lon="6.9382967"><ele>1693.0</ele><time>2026-05-03T13:27:29.276Z</time></trkpt><trkpt lat="44.39594" lon="6.9384583"><ele>1692.5</ele><time>2026-05-03T13:27:30.276Z</time></trkpt><trkpt lat="44.3958683" lon="6.9386217"><ele>1692.0</ele><time>2026-05-03T13:27:31.276Z</time></trkpt><trkpt lat="44.3958183" lon="6.9387767"><ele>1691.5</ele><time>2026-05-03T13:27:32.276Z</time></trkpt><trkpt lat="44.3957783" lon="6.93895"><ele>1691.0</ele><time>2026-05-03T13:27:33.276Z</time></trkpt><trkpt lat="44.3957383" lon="6.9391383"><ele>1692.25</ele><time>2026-05-03T13:27:34.276Z</time></trkpt><trkpt lat="44.3957" lon="6.9393283"><ele>1693.5</ele><time>2026-05-03T13:27:35.276Z</time></trkpt><trkpt lat="44.3956633" lon="6.9395033"><ele>1694.75</ele><time>2026-05-03T13:27:36.276Z</time></trkpt><trkpt lat="44.3956167" lon="6.9396883"><ele>1696.0</ele><time>2026-05-03T13:27:37.277Z</time></trkpt><trkpt lat="44.3955667" lon="6.939865"><ele>1696.0</ele><time>2026-05-03T13:27:38.276Z</time></trkpt><trkpt lat="44.39551" lon="6.9400483"><ele>1696.0</ele><time>2026-05-03T13:27:39.276Z</time></trkpt><trkpt lat="44.3954267" lon="6.9402667"><ele>1696.0</ele><time>2026-05-03T13:27:40.276Z</time></trkpt><trkpt lat="44.39534" lon="6.9405167"><ele>1690.6666666666667</ele><time>2026-05-03T13:27:41.276Z</time></trkpt><trkpt lat="44.3952483" lon="6.9407833"><ele>1685.3333333333335</ele><time>2026-05-03T13:27:42.276Z</time></trkpt><trkpt lat="44.3951533" lon="6.9410567"><ele>1680.0</ele><time>2026-05-03T13:27:43.276Z</time></trkpt><trkpt lat="44.395055" lon="6.9413317"><ele>1680.0</ele><time>2026-05-03T13:27:44.276Z</time></trkpt><trkpt lat="44.3949417" lon="6.9416067"><ele>1680.0</ele><time>2026-05-03T13:27:45.276Z</time></trkpt><trkpt lat="44.3948367" lon="6.94189"><ele>1681.0</ele><time>2026-05-03T13:27:46.276Z</time></trkpt><trkpt lat="44.39473" lon="6.9421583"><ele>1682.0</ele><time>2026-05-03T13:27:47.276Z</time></trkpt><trkpt lat="44.39463" lon="6.9424217"><ele>1683.0</ele><time>2026-05-03T13:27:48.276Z</time></trkpt><trkpt lat="44.39453" lon="6.94267"><ele>1679.6666666666665</ele><time>2026-05-03T13:27:49.276Z</time></trkpt><trkpt lat="44.3944383" lon="6.942915"><ele>1676.3333333333333</ele><time>2026-05-03T13:27:50.276Z</time></trkpt><trkpt lat="44.3943483" lon="6.94317"><ele>1673.0</ele><time>2026-05-03T13:27:51.276Z</time></trkpt><trkpt lat="44.394265" lon="6.943435"><ele>1673.0</ele><time>2026-05-03T13:27:52.276Z</time></trkpt><trkpt lat="44.3942183" lon="6.943705"><ele>1673.0</ele><time>2026-05-03T13:27:53.276Z</time></trkpt><trkpt lat="44.3941767" lon="6.9440033"><ele>1673.0</ele><time>2026-05-03T13:27:54.276Z</time></trkpt><trkpt lat="44.3941517" lon="6.9443183"><ele>1673.0</ele><time>2026-05-03T13:27:55.276Z</time></trkpt><trkpt lat="44.39415" lon="6.9446233"><ele>1673.0</ele><time>2026-05-03T13:27:56.277Z</time></trkpt><trkpt lat="44.394155" lon="6.9449167"><ele>1673.0</ele><time>2026-05-03T13:27:57.277Z</time></trkpt><trkpt lat="44.3941533" lon="6.9452033"><ele>1672.0</ele><time>2026-05-03T13:27:58.276Z</time></trkpt><trkpt lat="44.3941533" lon="6.9454883"><ele>1671.0</ele><time>2026-05-03T13:27:59.276Z</time></trkpt><trkpt lat="44.3941467" lon="6.94576"><ele>1670.0</ele><time>2026-05-03T13:28:00.276Z</time></trkpt><trkpt lat="44.3941517" lon="6.9460217"><ele>1669.6666666666665</ele><time>2026-05-03T13:28:01.277Z</time></trkpt><trkpt lat="44.3941533" lon="6.9462817"><ele>1669.3333333333335</ele><time>2026-05-03T13:28:02.276Z</time></trkpt><trkpt lat="44.394155" lon="6.946555"><ele>1669.0</ele><time>2026-05-03T13:28:03.276Z</time></trkpt><trkpt lat="44.394155" lon="6.94683"><ele>1669.0</ele><time>2026-05-03T13:28:04.276Z</time></trkpt><trkpt lat="44.3941567" lon="6.9471033"><ele>1669.0</ele><time>2026-05-03T13:28:05.276Z</time></trkpt><trkpt lat="44.3941533" lon="6.9473833"><ele>1669.0</ele><time>2026-05-03T13:28:06.276Z</time></trkpt><trkpt lat="44.39415" lon="6.9476633"><ele>1668.6666666666667</ele><time>2026-05-03T13:28:07.276Z</time></trkpt><trkpt lat="44.3941333" lon="6.947935"><ele>1668.3333333333335</ele><time>2026-05-03T13:28:08.276Z</time></trkpt><trkpt lat="44.3941033" lon="6.9481867"><ele>1668.0</ele><time>2026-05-03T13:28:09.277Z</time></trkpt><trkpt lat="44.394055" lon="6.94843"><ele>1666.6666666666665</ele><time>2026-05-03T13:28:10.276Z</time></trkpt><trkpt lat="44.3940033" lon="6.9486533"><ele>1665.3333333333333</ele><time>2026-05-03T13:28:11.276Z</time></trkpt><trkpt lat="44.3939417" lon="6.9488717"><ele>1664.0</ele><time>2026-05-03T13:28:12.276Z</time></trkpt><trkpt lat="44.3938817" lon="6.9490733"><ele>1662.0</ele><time>2026-05-03T13:28:13.276Z</time></trkpt><trkpt lat="44.3938267" lon="6.9492667"><ele>1660.0</ele><time>2026-05-03T13:28:14.276Z</time></trkpt><trkpt lat="44.393775" lon="6.94944"><ele>1658.0</ele><time>2026-05-03T13:28:15.276Z</time></trkpt><trkpt lat="44.3937317" lon="6.9496167"><ele>1656.0</ele><time>2026-05-03T13:28:16.276Z</time></trkpt><trkpt lat="44.3936933" lon="6.949805"><ele>1656.0</ele><time>2026-05-03T13:28:17.276Z</time></trkpt><trkpt lat="44.39368" lon="6.95001"><ele>1656.0</ele><time>2026-05-03T13:28:18.276Z</time></trkpt><trkpt lat="44.3936783" lon="6.9502367"><ele>1656.0</ele><time>2026-05-03T13:28:19.276Z</time></trkpt><trkpt lat="44.3936783" lon="6.95049"><ele>1655.3333333333335</ele><time>2026-05-03T13:28:20.276Z</time></trkpt><trkpt lat="44.3936817" lon="6.9507583"><ele>1654.6666666666667</ele><time>2026-05-03T13:28:21.277Z</time></trkpt><trkpt lat="44.39368" lon="6.951025"><ele>1654.0</ele><time>2026-05-03T13:28:22.276Z</time></trkpt><trkpt lat="44.3936883" lon="6.95128"><ele>1654.0</ele><time>2026-05-03T13:28:23.276Z</time></trkpt><trkpt lat="44.3936933" lon="6.95153"><ele>1654.0</ele><time>2026-05-03T13:28:24.277Z</time></trkpt><trkpt lat="44.3936983" lon="6.9517767"><ele>1654.0</ele><time>2026-05-03T13:28:25.276Z</time></trkpt><trkpt lat="44.39368" lon="6.9520233"><ele>1653.3333333333335</ele><time>2026-05-03T13:28:26.276Z</time></trkpt><trkpt lat="44.3936317" lon="6.9522567"><ele>1652.6666666666665</ele><time>2026-05-03T13:28:27.276Z</time></trkpt><trkpt lat="44.39356" lon="6.9525"><ele>1652.0</ele><time>2026-05-03T13:28:28.276Z</time></trkpt><trkpt lat="44.3934533" lon="6.952745"><ele>1653.6666666666665</ele><time>2026-05-03T13:28:29.276Z</time></trkpt><trkpt lat="44.3933233" lon="6.9529917"><ele>1655.3333333333335</ele><time>2026-05-03T13:28:30.276Z</time></trkpt><trkpt lat="44.3931883" lon="6.9532483"><ele>1657.0</ele><time>2026-05-03T13:28:31.276Z</time></trkpt><trkpt lat="44.39305" lon="6.9535"><ele>1654.3333333333335</ele><time>2026-05-03T13:28:32.276Z</time></trkpt><trkpt lat="44.3929133" lon="6.9537467"><ele>1651.6666666666665</ele><time>2026-05-03T13:28:33.277Z</time></trkpt><trkpt lat="44.3927817" lon="6.95399"><ele>1649.0</ele><time>2026-05-03T13:28:34.277Z</time></trkpt><trkpt lat="44.3926717" lon="6.9542267"><ele>1648.6666666666665</ele><time>2026-05-03T13:28:35.276Z</time></trkpt><trkpt lat="44.3925967" lon="6.9544817"><ele>1648.3333333333335</ele><time>2026-05-03T13:28:36.277Z</time></trkpt><trkpt lat="44.39255" lon="6.9547383"><ele>1648.0</ele><time>2026-05-03T13:28:37.276Z</time></trkpt><trkpt lat="44.3925433" lon="6.955015"><ele>1648.3333333333335</ele><time>2026-05-03T13:28:38.276Z</time></trkpt><trkpt lat="44.3925633" lon="6.9552917"><ele>1648.6666666666665</ele><time>2026-05-03T13:28:39.276Z</time></trkpt><trkpt lat="44.3925967" lon="6.95557"><ele>1649.0</ele><time>2026-05-03T13:28:40.277Z</time></trkpt><trkpt lat="44.3926283" lon="6.95585"><ele>1649.6666666666665</ele><time>2026-05-03T13:28:41.276Z</time></trkpt><trkpt lat="44.3926417" lon="6.9561267"><ele>1650.3333333333335</ele><time>2026-05-03T13:28:42.276Z</time></trkpt><trkpt lat="44.3926283" lon="6.9564067"><ele>1651.0</ele><time>2026-05-03T13:28:43.276Z</time></trkpt><trkpt lat="44.3925767" lon="6.956645"><ele>1649.3333333333335</ele><time>2026-05-03T13:28:44.277Z</time></trkpt><trkpt lat="44.3924833" lon="6.9568783"><ele>1647.6666666666665</ele><time>2026-05-03T13:28:45.276Z</time></trkpt><trkpt lat="44.39233" lon="6.9570833"><ele>1646.0</ele><time>2026-05-03T13:28:46.276Z</time></trkpt><trkpt lat="44.392165" lon="6.9572967"><ele>1646.0</ele><time>2026-05-03T13:28:47.276Z</time></trkpt><trkpt lat="44.391995" lon="6.9575017"><ele>1646.0</ele><time>2026-05-03T13:28:48.276Z</time></trkpt><trkpt lat="44.3918317" lon="6.9577117"><ele>1646.0</ele><time>2026-05-03T13:28:49.276Z</time></trkpt><trkpt lat="44.391665" lon="6.9579183"><ele>1645.6666666666665</ele><time>2026-05-03T13:28:50.276Z</time></trkpt><trkpt lat="44.3915033" lon="6.9581283"><ele>1645.3333333333335</ele><time>2026-05-03T13:28:51.276Z</time></trkpt><trkpt lat="44.3913383" lon="6.9583383"><ele>1645.0</ele><time>2026-05-03T13:28:52.276Z</time></trkpt><trkpt lat="44.3911767" lon="6.9585533"><ele>1645.0</ele><time>2026-05-03T13:28:53.276Z</time></trkpt><trkpt lat="44.391025" lon="6.9587733"><ele>1645.0</ele><time>2026-05-03T13:28:54.276Z</time></trkpt><trkpt lat="44.3908783" lon="6.9590117"><ele>1645.0</ele><time>2026-05-03T13:28:55.276Z</time></trkpt><trkpt lat="44.3907517" lon="6.9592517"><ele>1646.3333333333335</ele><time>2026-05-03T13:28:56.276Z</time></trkpt><trkpt lat="44.39063" lon="6.9595133"><ele>1647.6666666666665</ele><time>2026-05-03T13:28:57.276Z</time></trkpt><trkpt lat="44.39051" lon="6.9597633"><ele>1649.0</ele><time>2026-05-03T13:28:58.276Z</time></trkpt><trkpt lat="44.390365" lon="6.959995"><ele>1647.6666666666665</ele><time>2026-05-03T13:28:59.276Z</time></trkpt><trkpt lat="44.3901967" lon="6.9602017"><ele>1646.3333333333335</ele><time>2026-05-03T13:29:00.276Z</time></trkpt><trkpt lat="44.390015" lon="6.96038"><ele>1645.0</ele><time>2026-05-03T13:29:01.276Z</time></trkpt><trkpt lat="44.3898217" lon="6.960545"><ele>1646.5</ele><time>2026-05-03T13:29:02.276Z</time></trkpt><trkpt lat="44.38963" lon="6.9607233"><ele>1648.0</ele><time>2026-05-03T13:29:03.276Z</time></trkpt><trkpt lat="44.38945" lon="6.9609067"><ele>1652.0</ele><time>2026-05-03T13:29:04.276Z</time></trkpt><trkpt lat="44.39368" lon="6.9520233"><ele>1652.0</ele><time>2026-05-03T13:28:26.276Z</time></trkpt><trkpt lat="44.3936317" lon="6.9522567"><ele>1652.0</ele><time>2026-05-03T13:28:27.276Z</time></trkpt><trkpt lat="44.39356" lon="6.9525"><ele>1652.0</ele><time>2026-05-03T13:28:28.276Z</time></trkpt><trkpt lat="44.3934533" lon="6.952745"><ele>1653.6666666666665</ele><time>2026-05-03T13:28:29.276Z</time></trkpt><trkpt lat="44.3933233" lon="6.9529917"><ele>1655.3333333333335</ele><time>2026-05-03T13:28:30.276Z</time></trkpt><trkpt lat="44.3931883" lon="6.9532483"><ele>1657.0</ele><time>2026-05-03T13:28:31.276Z</time></trkpt><trkpt lat="44.39305" lon="6.9535"><ele>1654.3333333333335</ele><time>2026-05-03T13:28:32.276Z</time></trkpt><trkpt lat="44.3929133" lon="6.9537467"><ele>1651.6666666666665</ele><time>2026-05-03T13:28:33.277Z</time></trkpt><trkpt lat="44.3927817" lon="6.95399"><ele>1649.0</ele><time>2026-05-03T13:28:34.277Z</time></trkpt><trkpt lat="44.3926717" lon="6.9542267"><ele>1648.6666666666665</ele><time>2026-05-03T13:28:35.276Z</time></trkpt><trkpt lat="44.3925967" lon="6.9544817"><ele>1648.3333333333335</ele><time>2026-05-03T13:28:36.277Z</time></trkpt><trkpt lat="44.39255" lon="6.9547383"><ele>1648.0</ele><time>2026-05-03T13:28:37.276Z</time></trkpt><trkpt lat="44.3925433" lon="6.955015"><ele>1648.3333333333335</ele><time>2026-05-03T13:28:38.276Z</time></trkpt><trkpt lat="44.3925633" lon="6.9552917"><ele>1648.6666666666665</ele><time>2026-05-03T13:28:39.276Z</time></trkpt><trkpt lat="44.3925967" lon="6.95557"><ele>1649.0</ele><time>2026-05-03T13:28:40.277Z</time></trkpt><trkpt lat="44.3926283" lon="6.95585"><ele>1649.6666666666665</ele><time>2026-05-03T13:28:41.276Z</time></trkpt><trkpt lat="44.3926417" lon="6.9561267"><ele>1650.3333333333335</ele><time>2026-05-03T13:28:42.276Z</time></trkpt><trkpt lat="44.3926283" lon="6.9564067"><ele>1651.0</ele><time>2026-05-03T13:28:43.276Z</time></trkpt><trkpt lat="44.3925767" lon="6.956645"><ele>1649.3333333333335</ele><time>2026-05-03T13:28:44.277Z</time></trkpt><trkpt lat="44.3924833" lon="6.9568783"><ele>1647.6666666666665</ele><time>2026-05-03T13:28:45.276Z</time></trkpt><trkpt lat="44.39233" lon="6.9570833"><ele>1646.0</ele><time>2026-05-03T13:28:46.276Z</time></trkpt><trkpt lat="44.392165" lon="6.9572967"><ele>1646.0</ele><time>2026-05-03T13:28:47.276Z</time></trkpt><trkpt lat="44.391995" lon="6.9575017"><ele>1646.0</ele><time>2026-05-03T13:28:48.276Z</time></trkpt><trkpt lat="44.3918317" lon="6.9577117"><ele>1646.0</ele><time>2026-05-03T13:28:49.276Z</time></trkpt><trkpt lat="44.391665" lon="6.9579183"><ele>1645.6666666666665</ele><time>2026-05-03T13:28:50.276Z</time></trkpt><trkpt lat="44.3915033" lon="6.9581283"><ele>1645.3333333333335</ele><time>2026-05-03T13:28:51.276Z</time></trkpt><trkpt lat="44.3913383" lon="6.9583383"><ele>1645.0</ele><time>2026-05-03T13:28:52.276Z</time></trkpt><trkpt lat="44.3911767" lon="6.9585533"><ele>1645.0</ele><time>2026-05-03T13:28:53.276Z</time></trkpt><trkpt lat="44.391025" lon="6.9587733"><ele>1645.0</ele><time>2026-05-03T13:28:54.276Z</time></trkpt><trkpt lat="44.3908783" lon="6.9590117"><ele>1645.0</ele><time>2026-05-03T13:28:55.276Z</time></trkpt><trkpt lat="44.3907517" lon="6.9592517"><ele>1646.3333333333335</ele><time>2026-05-03T13:28:56.276Z</time></trkpt><trkpt lat="44.39063" lon="6.9595133"><ele>1647.6666666666665</ele><time>2026-05-03T13:28:57.276Z</time></trkpt><trkpt lat="44.39051" lon="6.9597633"><ele>1649.0</ele><time>2026-05-03T13:28:58.276Z</time></trkpt><trkpt lat="44.390365" lon="6.959995"><ele>1647.6666666666665</ele><time>2026-05-03T13:28:59.276Z</time></trkpt><trkpt lat="44.3901967" lon="6.9602017"><ele>1646.3333333333335</ele><time>2026-05-03T13:29:00.276Z</time></trkpt><trkpt lat="44.390015" lon="6.96038"><ele>1645.0</ele><time>2026-05-03T13:29:01.276Z</time></trkpt><trkpt lat="44.3898217" lon="6.960545"><ele>1646.5</ele><time>2026-05-03T13:29:02.276Z</time></trkpt><trkpt lat="44.38963" lon="6.9607233"><ele>1648.0</ele><time>2026-05-03T13:29:03.276Z</time></trkpt><trkpt lat="44.38945" lon="6.9609067"><ele>1648.0</ele><time>2026-05-03T13:29:04.276Z</time></trkpt><trkpt lat="44.38928" lon="6.9610867"><ele>1648.0</ele><time>2026-05-03T13:29:05.276Z</time></trkpt><trkpt lat="44.3891017" lon="6.9612667"><ele>1648.0</ele><time>2026-05-03T13:29:06.276Z</time></trkpt><trkpt lat="44.3889183" lon="6.96144"><ele>1646.6666666666667</ele><time>2026-05-03T13:29:07.276Z</time></trkpt><trkpt lat="44.388745" lon="6.9616133"><ele>1645.3333333333335</ele><time>2026-05-03T13:29:08.276Z</time></trkpt><trkpt lat="44.3885767" lon="6.9617767"><ele>1644.0</ele><time>2026-05-03T13:29:09.277Z</time></trkpt><trkpt lat="44.3884217" lon="6.9619417"><ele>1644.0</ele><time>2026-05-03T13:29:10.276Z</time></trkpt><trkpt lat="44.3882667" lon="6.962105"><ele>1644.0</ele><time>2026-05-03T13:29:11.276Z</time></trkpt><trkpt lat="44.388115" lon="6.96226"><ele>1644.0</ele><time>2026-05-03T13:29:12.276Z</time></trkpt><trkpt lat="44.3879867" lon="6.9624167"><ele>1640.3333333333335</ele><time>2026-05-03T13:29:13.277Z</time></trkpt><trkpt lat="44.387865" lon="6.962595"><ele>1636.6666666666667</ele><time>2026-05-03T13:29:14.276Z</time></trkpt><trkpt lat="44.3877683" lon="6.9627967"><ele>1633.0</ele><time>2026-05-03T13:29:15.276Z</time></trkpt><trkpt lat="44.3876833" lon="6.9630017"><ele>1633.0</ele><time>2026-05-03T13:29:16.276Z</time></trkpt><trkpt lat="44.38759" lon="6.9632033"><ele>1633.0</ele><time>2026-05-03T13:29:17.276Z</time></trkpt><trkpt lat="44.387475" lon="6.963405"><ele>1633.0</ele><time>2026-05-03T13:29:18.276Z</time></trkpt><trkpt lat="44.3873483" lon="6.9635717"><ele>1631.6666666666667</ele><time>2026-05-03T13:29:19.276Z</time></trkpt><trkpt lat="44.38721" lon="6.9637183"><ele>1630.3333333333335</ele><time>2026-05-03T13:29:20.276Z</time></trkpt><trkpt lat="44.38707" lon="6.9638517"><ele>1629.0</ele><time>2026-05-03T13:29:21.276Z</time></trkpt><trkpt lat="44.3869333" lon="6.9639917"><ele>1629.0</ele><time>2026-05-03T13:29:22.276Z</time></trkpt><trkpt lat="44.386805" lon="6.964135"><ele>1629.0</ele><time>2026-05-03T13:29:23.276Z</time></trkpt><trkpt lat="44.3866733" lon="6.964275"><ele>1629.0</ele><time>2026-05-03T13:29:24.276Z</time></trkpt><trkpt lat="44.3865367" lon="6.9644017"><ele>1629.0</ele><time>2026-05-03T13:29:25.276Z</time></trkpt><trkpt lat="44.3863933" lon="6.9645117"><ele>1629.0</ele><time>2026-05-03T13:29:26.276Z</time></trkpt><trkpt lat="44.38623" lon="6.964585"><ele>1629.0</ele><time>2026-05-03T13:29:27.276Z</time></trkpt><trkpt lat="44.3860533" lon="6.96462"><ele>1629.0</ele><time>2026-05-03T13:29:28.276Z</time></trkpt><trkpt lat="44.3858817" lon="6.9646533"><ele>1629.0</ele><time>2026-05-03T13:29:29.276Z</time></trkpt><trkpt lat="44.3857133" lon="6.96468"><ele>1629.0</ele><time>2026-05-03T13:29:30.276Z</time></trkpt><trkpt lat="44.385535" lon="6.9647083"><ele>1628.6666666666665</ele><time>2026-05-03T13:29:31.276Z</time></trkpt><trkpt lat="44.3853567" lon="6.96475"><ele>1628.3333333333333</ele><time>2026-05-03T13:29:32.276Z</time></trkpt><trkpt lat="44.385185" lon="6.9647917"><ele>1628.0</ele><time>2026-05-03T13:29:33.276Z</time></trkpt><trkpt lat="44.385005" lon="6.96482"><ele>1628.0</ele><time>2026-05-03T13:29:34.277Z</time></trkpt><trkpt lat="44.38483" lon="6.9648433"><ele>1628.0</ele><time>2026-05-03T13:29:35.276Z</time></trkpt><trkpt lat="44.3846533" lon="6.9648667"><ele>1628.0</ele><time>2026-05-03T13:29:36.277Z</time></trkpt><trkpt lat="44.384475" lon="6.96489"><ele>1629.0</ele><time>2026-05-03T13:29:37.276Z</time></trkpt><trkpt lat="44.3843017" lon="6.9649217"><ele>1630.0</ele><time>2026-05-03T13:29:38.276Z</time></trkpt><trkpt lat="44.3841217" lon="6.9649517"><ele>1631.0</ele><time>2026-05-03T13:29:39.277Z</time></trkpt><trkpt lat="44.383945" lon="6.964985"><ele>1632.6666666666665</ele><time>2026-05-03T13:29:40.276Z</time></trkpt><trkpt lat="44.3837767" lon="6.9650333"><ele>1634.3333333333335</ele><time>2026-05-03T13:29:41.277Z</time></trkpt><trkpt lat="44.3836033" lon="6.9651017"><ele>1636.0</ele><time>2026-05-03T13:29:42.276Z</time></trkpt><trkpt lat="44.383435" lon="6.9652067"><ele>1636.0</ele><time>2026-05-03T13:29:43.276Z</time></trkpt><trkpt lat="44.3832567" lon="6.9653317"><ele>1636.0</ele><time>2026-05-03T13:29:44.276Z</time></trkpt><trkpt lat="44.3830733" lon="6.9654767"><ele>1636.0</ele><time>2026-05-03T13:29:45.276Z</time></trkpt><trkpt lat="44.38289" lon="6.9656033"><ele>1636.0</ele><time>2026-05-03T13:29:46.276Z</time></trkpt><trkpt lat="44.3827133" lon="6.9657167"><ele>1636.0</ele><time>2026-05-03T13:29:47.276Z</time></trkpt><trkpt lat="44.3825383" lon="6.9658183"><ele>1636.0</ele><time>2026-05-03T13:29:48.276Z</time></trkpt><trkpt lat="44.3823633" lon="6.9659233"><ele>1636.0</ele><time>2026-05-03T13:29:49.276Z</time></trkpt><trkpt lat="44.3822" lon="6.9660367"><ele>1636.0</ele><time>2026-05-03T13:29:50.276Z</time></trkpt><trkpt lat="44.3820433" lon="6.9661517"><ele>1636.0</ele><time>2026-05-03T13:29:51.277Z</time></trkpt><trkpt lat="44.3818917" lon="6.96627"><ele>1634.0</ele><time>2026-05-03T13:29:52.276Z</time></trkpt><trkpt lat="44.3817533" lon="6.9664067"><ele>1632.0</ele><time>2026-05-03T13:29:53.276Z</time></trkpt><trkpt lat="44.3816233" lon="6.9665433"><ele>1630.0</ele><time>2026-05-03T13:29:54.276Z</time></trkpt><trkpt lat="44.3814983" lon="6.9666667"><ele>1628.75</ele><time>2026-05-03T13:29:55.276Z</time></trkpt><trkpt lat="44.3813733" lon="6.96678"><ele>1627.5</ele><time>2026-05-03T13:29:56.276Z</time></trkpt><trkpt lat="44.3812633" lon="6.9668883"><ele>1626.25</ele><time>2026-05-03T13:29:57.276Z</time></trkpt><trkpt lat="44.3811633" lon="6.9669867"><ele>1625.0</ele><time>2026-05-03T13:29:58.277Z</time></trkpt><trkpt lat="44.3810683" lon="6.9670883"><ele>1625.0</ele><time>2026-05-03T13:29:59.276Z</time></trkpt><trkpt lat="44.3809667" lon="6.9671917"><ele>1625.0</ele><time>2026-05-03T13:30:00.276Z</time></trkpt><trkpt lat="44.3808667" lon="6.9673017"><ele>1625.0</ele><time>2026-05-03T13:30:01.276Z</time></trkpt><trkpt lat="44.3807683" lon="6.967415"><ele>1625.0</ele><time>2026-05-03T13:30:02.276Z</time></trkpt><trkpt lat="44.3806667" lon="6.9675217"><ele>1624.5</ele><time>2026-05-03T13:30:03.276Z</time></trkpt><trkpt lat="44.3805633" lon="6.9676417"><ele>1624.0</ele><time>2026-05-03T13:30:04.277Z</time></trkpt><trkpt lat="44.3804583" lon="6.9677733"><ele>1623.5</ele><time>2026-05-03T13:30:05.276Z</time></trkpt><trkpt lat="44.38036" lon="6.9679133"><ele>1623.0</ele><time>2026-05-03T13:30:06.276Z</time></trkpt><trkpt lat="44.380275" lon="6.9680583"><ele>1623.0</ele><time>2026-05-03T13:30:07.276Z</time></trkpt><trkpt lat="44.38019" lon="6.9682083"><ele>1623.0</ele><time>2026-05-03T13:30:08.276Z</time></trkpt><trkpt lat="44.3800933" lon="6.9683517"><ele>1623.0</ele><time>2026-05-03T13:30:09.276Z</time></trkpt><trkpt lat="44.380005" lon="6.9685033"><ele>1623.0</ele><time>2026-05-03T13:30:10.276Z</time></trkpt><trkpt lat="44.3799083" lon="6.9686417"><ele>1623.25</ele><time>2026-05-03T13:30:11.276Z</time></trkpt><trkpt lat="44.3798017" lon="6.9687717"><ele>1623.5</ele><time>2026-05-03T13:30:12.277Z</time></trkpt><trkpt lat="44.3796783" lon="6.9688817"><ele>1623.75</ele><time>2026-05-03T13:30:13.276Z</time></trkpt><trkpt lat="44.3795433" lon="6.9689517"><ele>1624.0</ele><time>2026-05-03T13:30:14.276Z</time></trkpt><trkpt lat="44.37941" lon="6.96901"><ele>1622.75</ele><time>2026-05-03T13:30:15.276Z</time></trkpt><trkpt lat="44.379275" lon="6.9690867"><ele>1621.5</ele><time>2026-05-03T13:30:16.276Z</time></trkpt><trkpt lat="44.379145" lon="6.9691667"><ele>1620.25</ele><time>2026-05-03T13:30:17.276Z</time></trkpt><trkpt lat="44.37901" lon="6.9692717"><ele>1619.0</ele><time>2026-05-03T13:30:18.277Z</time></trkpt><trkpt lat="44.3788817" lon="6.9693683"><ele>1615.75</ele><time>2026-05-03T13:30:19.276Z</time></trkpt><trkpt lat="44.3787667" lon="6.9694467"><ele>1612.5</ele><time>2026-05-03T13:30:20.276Z</time></trkpt><trkpt lat="44.378635" lon="6.9695167"><ele>1609.25</ele><time>2026-05-03T13:30:21.277Z</time></trkpt><trkpt lat="44.3785017" lon="6.96957"><ele>1606.0</ele><time>2026-05-03T13:30:22.276Z</time></trkpt><trkpt lat="44.3783667" lon="6.9696367"><ele>1606.0</ele><time>2026-05-03T13:30:23.277Z</time></trkpt><trkpt lat="44.3782383" lon="6.9697283"><ele>1606.0</ele><time>2026-05-03T13:30:24.276Z</time></trkpt><trkpt lat="44.3781183" lon="6.9698483"><ele>1606.0</ele><time>2026-05-03T13:30:25.277Z</time></trkpt><trkpt lat="44.378005" lon="6.96999"><ele>1606.0</ele><time>2026-05-03T13:30:26.276Z</time></trkpt><trkpt lat="44.3779" lon="6.9701633"><ele>1602.6666666666667</ele><time>2026-05-03T13:30:27.276Z</time></trkpt><trkpt lat="44.3777983" lon="6.970365"><ele>1599.3333333333335</ele><time>2026-05-03T13:30:28.276Z</time></trkpt><trkpt lat="44.3776917" lon="6.97055"><ele>1596.0</ele><time>2026-05-03T13:30:29.276Z</time></trkpt><trkpt lat="44.37758" lon="6.970715"><ele>1597.0</ele><time>2026-05-03T13:30:30.276Z</time></trkpt><trkpt lat="44.3774633" lon="6.9708817"><ele>1598.0</ele><time>2026-05-03T13:30:31.276Z</time></trkpt><trkpt lat="44.377335" lon="6.9710383"><ele>1599.0</ele><time>2026-05-03T13:30:32.276Z</time></trkpt><trkpt lat="44.37722" lon="6.97119"><ele>1593.3333333333335</ele><time>2026-05-03T13:30:33.276Z</time></trkpt><trkpt lat="44.3770983" lon="6.971345"><ele>1587.6666666666667</ele><time>2026-05-03T13:30:34.276Z</time></trkpt><trkpt lat="44.3769767" lon="6.9714983"><ele>1582.0</ele><time>2026-05-03T13:30:35.276Z</time></trkpt><trkpt lat="44.3768433" lon="6.971665"><ele>1584.0</ele><time>2026-05-03T13:30:36.277Z</time></trkpt><trkpt lat="44.37672" lon="6.9718233"><ele>1586.0</ele><time>2026-05-03T13:30:37.276Z</time></trkpt><trkpt lat="44.37658" lon="6.97199"><ele>1588.0</ele><time>2026-05-03T13:30:38.276Z</time></trkpt><trkpt lat="44.376445" lon="6.9721583"><ele>1585.6666666666667</ele><time>2026-05-03T13:30:39.277Z</time></trkpt><trkpt lat="44.3763067" lon="6.9723267"><ele>1583.3333333333335</ele><time>2026-05-03T13:30:40.276Z</time></trkpt><trkpt lat="44.3761667" lon="6.9725"><ele>1581.0</ele><time>2026-05-03T13:30:41.276Z</time></trkpt><trkpt lat="44.3760217" lon="6.9726733"><ele>1581.0</ele><time>2026-05-03T13:30:42.276Z</time></trkpt><trkpt lat="44.3758767" lon="6.9728483"><ele>1581.0</ele><time>2026-05-03T13:30:43.276Z</time></trkpt><trkpt lat="44.3757333" lon="6.9730267"><ele>1581.0</ele><time>2026-05-03T13:30:44.276Z</time></trkpt><trkpt lat="44.37561" lon="6.973225"><ele>1576.3333333333335</ele><time>2026-05-03T13:30:45.276Z</time></trkpt><trkpt lat="44.375495" lon="6.9734467"><ele>1571.6666666666667</ele><time>2026-05-03T13:30:46.276Z</time></trkpt><trkpt lat="44.3753867" lon="6.9736817"><ele>1567.0</ele><time>2026-05-03T13:30:47.276Z</time></trkpt><trkpt lat="44.3752767" lon="6.9739233"><ele>1567.0</ele><time>2026-05-03T13:30:48.276Z</time></trkpt><trkpt lat="44.3751533" lon="6.9741417"><ele>1567.0</ele><time>2026-05-03T13:30:49.276Z</time></trkpt><trkpt lat="44.3750283" lon="6.9743633"><ele>1567.0</ele><time>2026-05-03T13:30:50.276Z</time></trkpt><trkpt lat="44.3749083" lon="6.974575"><ele>1566.6666666666667</ele><time>2026-05-03T13:30:51.276Z</time></trkpt><trkpt lat="44.374785" lon="6.9747733"><ele>1566.3333333333335</ele><time>2026-05-03T13:30:52.276Z</time></trkpt><trkpt lat="44.374655" lon="6.9749667"><ele>1566.0</ele><time>2026-05-03T13:30:53.276Z</time></trkpt><trkpt lat="44.3745333" lon="6.9751517"><ele>1561.0</ele><time>2026-05-03T13:30:54.276Z</time></trkpt><trkpt lat="44.3744167" lon="6.9753283"><ele>1556.0</ele><time>2026-05-03T13:30:55.276Z</time></trkpt><trkpt lat="44.37432" lon="6.9754967"><ele>1551.0</ele><time>2026-05-03T13:30:56.276Z</time></trkpt><trkpt lat="44.3742433" lon="6.9756617"><ele>1551.0</ele><time>2026-05-03T13:30:57.276Z</time></trkpt><trkpt lat="44.374195" lon="6.97585"><ele>1551.0</ele><time>2026-05-03T13:30:58.276Z</time></trkpt><trkpt lat="44.374185" lon="6.976035"><ele>1551.0</ele><time>2026-05-03T13:30:59.276Z</time></trkpt><trkpt lat="44.3742067" lon="6.9762283"><ele>1551.0</ele><time>2026-05-03T13:31:00.276Z</time></trkpt><trkpt lat="44.3742317" lon="6.9763983"><ele>1551.4</ele><time>2026-05-03T13:31:01.276Z</time></trkpt><trkpt lat="44.3742467" lon="6.976555"><ele>1551.8</ele><time>2026-05-03T13:31:02.276Z</time></trkpt><trkpt lat="44.3742267" lon="6.976695"><ele>1552.2</ele><time>2026-05-03T13:31:03.277Z</time></trkpt><trkpt lat="44.3741833" lon="6.9768033"><ele>1552.6000000000001</ele><time>2026-05-03T13:31:04.276Z</time></trkpt><trkpt lat="44.3741217" lon="6.9768583"><ele>1553.0</ele><time>2026-05-03T13:31:05.276Z</time></trkpt><trkpt lat="44.3740417" lon="6.97686"><ele>1553.0</ele><time>2026-05-03T13:31:06.276Z</time></trkpt><trkpt lat="44.3739717" lon="6.976825"><ele>1553.0</ele><time>2026-05-03T13:31:07.276Z</time></trkpt><trkpt lat="44.3739183" lon="6.9766917"><ele>1553.0</ele><time>2026-05-03T13:31:08.276Z</time></trkpt><trkpt lat="44.373895" lon="6.9764967"><ele>1553.0</ele><time>2026-05-03T13:31:09.276Z</time></trkpt><trkpt lat="44.37389" lon="6.9762617"><ele>1553.25</ele><time>2026-05-03T13:31:10.276Z</time></trkpt><trkpt lat="44.3738833" lon="6.97603"><ele>1553.5</ele><time>2026-05-03T13:31:11.277Z</time></trkpt><trkpt lat="44.3738667" lon="6.9758317"><ele>1553.75</ele><time>2026-05-03T13:31:12.276Z</time></trkpt><trkpt lat="44.3738583" lon="6.9756517"><ele>1554.0</ele><time>2026-05-03T13:31:13.276Z</time></trkpt><trkpt lat="44.3738417" lon="6.97549"><ele>1550.8333333333333</ele><time>2026-05-03T13:31:14.276Z</time></trkpt><trkpt lat="44.3737967" lon="6.9753717"><ele>1547.6666666666667</ele><time>2026-05-03T13:31:15.276Z</time></trkpt><trkpt lat="44.3737333" lon="6.975305"><ele>1544.5</ele><time>2026-05-03T13:31:16.276Z</time></trkpt><trkpt lat="44.3736533" lon="6.9752983"><ele>1541.3333333333335</ele><time>2026-05-03T13:31:17.277Z</time></trkpt><trkpt lat="44.3735883" lon="6.9753367"><ele>1538.1666666666667</ele><time>2026-05-03T13:31:18.276Z</time></trkpt><trkpt lat="44.3735333" lon="6.9754283"><ele>1535.0</ele><time>2026-05-03T13:31:19.276Z</time></trkpt><trkpt lat="44.3735" lon="6.9755767"><ele>1535.0</ele><time>2026-05-03T13:31:20.277Z</time></trkpt><trkpt lat="44.3734817" lon="6.975775"><ele>1535.0</ele><time>2026-05-03T13:31:21.276Z</time></trkpt><trkpt lat="44.373465" lon="6.97602"><ele>1535.0</ele><time>2026-05-03T13:31:22.276Z</time></trkpt><trkpt lat="44.3734433" lon="6.97624"><ele>1534.75</ele><time>2026-05-03T13:31:23.277Z</time></trkpt><trkpt lat="44.3734267" lon="6.9764467"><ele>1534.5</ele><time>2026-05-03T13:31:24.276Z</time></trkpt><trkpt lat="44.373425" lon="6.97664"><ele>1534.25</ele><time>2026-05-03T13:31:25.276Z</time></trkpt><trkpt lat="44.3734367" lon="6.97682"><ele>1534.0</ele><time>2026-05-03T13:31:26.276Z</time></trkpt><trkpt lat="44.373455" lon="6.9769867"><ele>1534.0</ele><time>2026-05-03T13:31:27.276Z</time></trkpt><trkpt lat="44.3734833" lon="6.9771417"><ele>1534.0</ele><time>2026-05-03T13:31:28.276Z</time></trkpt><trkpt lat="44.37351" lon="6.9772933"><ele>1534.0</ele><time>2026-05-03T13:31:29.277Z</time></trkpt><trkpt lat="44.3735233" lon="6.9774217"><ele>1534.0</ele><time>2026-05-03T13:31:30.276Z</time></trkpt><trkpt lat="44.3735067" lon="6.9775317"><ele>1534.0</ele><time>2026-05-03T13:31:31.276Z</time></trkpt><trkpt lat="44.3734617" lon="6.9776183"><ele>1534.0</ele><time>2026-05-03T13:31:32.276Z</time></trkpt><trkpt lat="44.3733617" lon="6.977615"><ele>1534.0</ele><time>2026-05-03T13:31:34.276Z</time></trkpt><trkpt lat="44.3733167" lon="6.97752"><ele>1534.0</ele><time>2026-05-03T13:31:35.276Z</time></trkpt><trkpt lat="44.3732783" lon="6.9773583"><ele>1534.0</ele><time>2026-05-03T13:31:36.276Z</time></trkpt><trkpt lat="44.3732533" lon="6.9771517"><ele>1534.0</ele><time>2026-05-03T13:31:37.276Z</time></trkpt><trkpt lat="44.3732233" lon="6.9769217"><ele>1534.0</ele><time>2026-05-03T13:31:38.277Z</time></trkpt><trkpt lat="44.3731967" lon="6.9767033"><ele>1534.0</ele><time>2026-05-03T13:31:39.276Z</time></trkpt><trkpt lat="44.373175" lon="6.97651"><ele>1534.25</ele><time>2026-05-03T13:31:40.276Z</time></trkpt><trkpt lat="44.3731583" lon="6.9763267"><ele>1534.5</ele><time>2026-05-03T13:31:41.276Z</time></trkpt><trkpt lat="44.37314" lon="6.9761583"><ele>1534.75</ele><time>2026-05-03T13:31:42.276Z</time></trkpt><trkpt lat="44.3731283" lon="6.9759917"><ele>1535.0</ele><time>2026-05-03T13:31:43.277Z</time></trkpt><trkpt lat="44.3731183" lon="6.9758417"><ele>1535.0</ele><time>2026-05-03T13:31:44.276Z</time></trkpt><trkpt lat="44.3731033" lon="6.9757033"><ele>1535.0</ele><time>2026-05-03T13:31:45.276Z</time></trkpt><trkpt lat="44.37306" lon="6.9756033"><ele>1535.0</ele><time>2026-05-03T13:31:46.276Z</time></trkpt><trkpt lat="44.3729867" lon="6.9755483"><ele>1535.0</ele><time>2026-05-03T13:31:47.277Z</time></trkpt><trkpt lat="44.3729217" lon="6.975535"><ele>1535.0</ele><time>2026-05-03T13:31:48.277Z</time></trkpt><trkpt lat="44.3741833" lon="6.9768033"><ele>1538.6</ele><time>2026-05-03T13:31:04.276Z</time></trkpt><trkpt lat="44.3741217" lon="6.9768583"><ele>1542.2</ele><time>2026-05-03T13:31:05.276Z</time></trkpt><trkpt lat="44.3740417" lon="6.97686"><ele>1545.8000000000002</ele><time>2026-05-03T13:31:06.276Z</time></trkpt><trkpt lat="44.3739717" lon="6.976825"><ele>1549.4</ele><time>2026-05-03T13:31:07.276Z</time></trkpt><trkpt lat="44.3739183" lon="6.9766917"><ele>1553.0</ele><time>2026-05-03T13:31:08.276Z</time></trkpt><trkpt lat="44.373895" lon="6.9764967"><ele>1553.3333333333333</ele><time>2026-05-03T13:31:09.276Z</time></trkpt><trkpt lat="44.37389" lon="6.9762617"><ele>1553.6666666666665</ele><time>2026-05-03T13:31:10.276Z</time></trkpt><trkpt lat="44.3738833" lon="6.97603"><ele>1554.0</ele><time>2026-05-03T13:31:11.277Z</time></trkpt><trkpt lat="44.3738667" lon="6.9758317"><ele>1553.4</ele><time>2026-05-03T13:31:12.276Z</time></trkpt><trkpt lat="44.3738583" lon="6.9756517"><ele>1552.8000000000002</ele><time>2026-05-03T13:31:13.276Z</time></trkpt><trkpt lat="44.3738417" lon="6.97549"><ele>1552.1999999999998</ele><time>2026-05-03T13:31:14.276Z</time></trkpt><trkpt lat="44.3737967" lon="6.9753717"><ele>1551.6</ele><time>2026-05-03T13:31:15.276Z</time></trkpt><trkpt lat="44.3737333" lon="6.975305"><ele>1551.0</ele><time>2026-05-03T13:31:16.276Z</time></trkpt><trkpt lat="44.3736533" lon="6.9752983"><ele>1548.1999999999998</ele><time>2026-05-03T13:31:17.277Z</time></trkpt><trkpt lat="44.3735883" lon="6.9753367"><ele>1545.3999999999999</ele><time>2026-05-03T13:31:18.276Z</time></trkpt><trkpt lat="44.3735333" lon="6.9754283"><ele>1542.6</ele><time>2026-05-03T13:31:19.276Z</time></trkpt><trkpt lat="44.3735" lon="6.9755767"><ele>1539.8</ele><time>2026-05-03T13:31:20.277Z</time></trkpt><trkpt lat="44.3734817" lon="6.975775"><ele>1537.0</ele><time>2026-05-03T13:31:21.276Z</time></trkpt><trkpt lat="44.373465" lon="6.97602"><ele>1537.0</ele><time>2026-05-03T13:31:22.276Z</time></trkpt><trkpt lat="44.3734433" lon="6.97624"><ele>1537.0</ele><time>2026-05-03T13:31:23.277Z</time></trkpt><trkpt lat="44.3734267" lon="6.9764467"><ele>1537.0</ele><time>2026-05-03T13:31:24.276Z</time></trkpt><trkpt lat="44.373425" lon="6.97664"><ele>1537.0</ele><time>2026-05-03T13:31:25.276Z</time></trkpt><trkpt lat="44.3734367" lon="6.97682"><ele>1536.3999999999999</ele><time>2026-05-03T13:31:26.276Z</time></trkpt><trkpt lat="44.373455" lon="6.9769867"><ele>1535.8</ele><time>2026-05-03T13:31:27.276Z</time></trkpt><trkpt lat="44.3734833" lon="6.9771417"><ele>1535.2</ele><time>2026-05-03T13:31:28.276Z</time></trkpt><trkpt lat="44.37351" lon="6.9772933"><ele>1534.6</ele><time>2026-05-03T13:31:29.277Z</time></trkpt><trkpt lat="44.3735233" lon="6.9774217"><ele>1534.0</ele><time>2026-05-03T13:31:30.276Z</time></trkpt><trkpt lat="44.3735067" lon="6.9775317"><ele>1534.0</ele><time>2026-05-03T13:31:31.276Z</time></trkpt><trkpt lat="44.3734617" lon="6.9776183"><ele>1534.0</ele><time>2026-05-03T13:31:32.276Z</time></trkpt><trkpt lat="44.3733617" lon="6.977615"><ele>1534.0</ele><time>2026-05-03T13:31:34.276Z</time></trkpt><trkpt lat="44.3733167" lon="6.97752"><ele>1534.0</ele><time>2026-05-03T13:31:35.276Z</time></trkpt><trkpt lat="44.3732783" lon="6.9773583"><ele>1534.0</ele><time>2026-05-03T13:31:36.276Z</time></trkpt><trkpt lat="44.3732533" lon="6.9771517"><ele>1534.0</ele><time>2026-05-03T13:31:37.276Z</time></trkpt><trkpt lat="44.3732233" lon="6.9769217"><ele>1534.0</ele><time>2026-05-03T13:31:38.277Z</time></trkpt><trkpt lat="44.3731967" lon="6.9767033"><ele>1534.0</ele><time>2026-05-03T13:31:39.276Z</time></trkpt><trkpt lat="44.373175" lon="6.97651"><ele>1534.25</ele><time>2026-05-03T13:31:40.276Z</time></trkpt><trkpt lat="44.3731583" lon="6.9763267"><ele>1534.5</ele><time>2026-05-03T13:31:41.276Z</time></trkpt><trkpt lat="44.37314" lon="6.9761583"><ele>1534.75</ele><time>2026-05-03T13:31:42.276Z</time></trkpt><trkpt lat="44.3731283" lon="6.9759917"><ele>1535.0</ele><time>2026-05-03T13:31:43.277Z</time></trkpt><trkpt lat="44.3731183" lon="6.9758417"><ele>1535.0</ele><time>2026-05-03T13:31:44.276Z</time></trkpt><trkpt lat="44.3731033" lon="6.9757033"><ele>1535.0</ele><time>2026-05-03T13:31:45.276Z</time></trkpt><trkpt lat="44.37306" lon="6.9756033"><ele>1535.0</ele><time>2026-05-03T13:31:46.276Z</time></trkpt><trkpt lat="44.3729867" lon="6.9755483"><ele>1535.0</ele><time>2026-05-03T13:31:47.277Z</time></trkpt><trkpt lat="44.3729217" lon="6.975535"><ele>1535.0</ele><time>2026-05-03T13:31:48.277Z</time></trkpt><trkpt lat="44.3728167" lon="6.9756483"><ele>1533.5</ele><time>2026-05-03T13:31:50.276Z</time></trkpt><trkpt lat="44.3727967" lon="6.9758017"><ele>1532.0</ele><time>2026-05-03T13:31:51.276Z</time></trkpt><trkpt lat="44.372805" lon="6.975985"><ele>1530.5</ele><time>2026-05-03T13:31:52.277Z</time></trkpt><trkpt lat="44.3728" lon="6.9761567"><ele>1529.0</ele><time>2026-05-03T13:31:53.276Z</time></trkpt><trkpt lat="44.3727733" lon="6.97629"><ele>1527.8000000000002</ele><time>2026-05-03T13:31:54.276Z</time></trkpt><trkpt lat="44.37272" lon="6.9763867"><ele>1526.6000000000001</ele><time>2026-05-03T13:31:55.276Z</time></trkpt><trkpt lat="44.3726317" lon="6.9764433"><ele>1525.4</ele><time>2026-05-03T13:31:56.276Z</time></trkpt><trkpt lat="44.3725283" lon="6.97648"><ele>1524.2</ele><time>2026-05-03T13:31:57.276Z</time></trkpt><trkpt lat="44.372425" lon="6.976545"><ele>1523.0</ele><time>2026-05-03T13:31:58.277Z</time></trkpt><trkpt lat="44.3723383" lon="6.9766467"><ele>1523.0</ele><time>2026-05-03T13:31:59.276Z</time></trkpt><trkpt lat="44.3722767" lon="6.976775"><ele>1523.0</ele><time>2026-05-03T13:32:00.276Z</time></trkpt><trkpt lat="44.3722317" lon="6.97692"><ele>1523.0</ele><time>2026-05-03T13:32:01.276Z</time></trkpt><trkpt lat="44.3721867" lon="6.97708"><ele>1523.0</ele><time>2026-05-03T13:32:02.276Z</time></trkpt><trkpt lat="44.3721433" lon="6.9772533"><ele>1523.0</ele><time>2026-05-03T13:32:03.276Z</time></trkpt><trkpt lat="44.3720867" lon="6.9774233"><ele>1523.0</ele><time>2026-05-03T13:32:04.276Z</time></trkpt><trkpt lat="44.372015" lon="6.97761"><ele>1523.0</ele><time>2026-05-03T13:32:05.276Z</time></trkpt><trkpt lat="44.3719317" lon="6.9778033"><ele>1523.0</ele><time>2026-05-03T13:32:06.276Z</time></trkpt><trkpt lat="44.3718383" lon="6.9779983"><ele>1520.6666666666667</ele><time>2026-05-03T13:32:07.276Z</time></trkpt><trkpt lat="44.37173" lon="6.9781933"><ele>1518.3333333333333</ele><time>2026-05-03T13:32:08.276Z</time></trkpt><trkpt lat="44.3716167" lon="6.978395"><ele>1516.0</ele><time>2026-05-03T13:32:09.276Z</time></trkpt><trkpt lat="44.3714967" lon="6.9786"><ele>1514.0</ele><time>2026-05-03T13:32:10.276Z</time></trkpt><trkpt lat="44.3713833" lon="6.9788183"><ele>1512.0</ele><time>2026-05-03T13:32:11.276Z</time></trkpt><trkpt lat="44.37127" lon="6.9790417"><ele>1510.0</ele><time>2026-05-03T13:32:12.276Z</time></trkpt><trkpt lat="44.3711533" lon="6.9792717"><ele>1508.3333333333333</ele><time>2026-05-03T13:32:13.276Z</time></trkpt><trkpt lat="44.3710267" lon="6.9795"><ele>1506.6666666666667</ele><time>2026-05-03T13:32:14.276Z</time></trkpt><trkpt lat="44.37088" lon="6.979735"><ele>1505.0</ele><time>2026-05-03T13:32:15.276Z</time></trkpt><trkpt lat="44.3707417" lon="6.9799683"><ele>1505.3333333333335</ele><time>2026-05-03T13:32:16.276Z</time></trkpt><trkpt lat="44.3706117" lon="6.9802117"><ele>1505.6666666666667</ele><time>2026-05-03T13:32:17.276Z</time></trkpt><trkpt lat="44.370485" lon="6.980455"><ele>1506.0</ele><time>2026-05-03T13:32:18.276Z</time></trkpt><trkpt lat="44.37035" lon="6.9806983"><ele>1503.0</ele><time>2026-05-03T13:32:19.276Z</time></trkpt><trkpt lat="44.3702167" lon="6.98095"><ele>1500.0</ele><time>2026-05-03T13:32:20.276Z</time></trkpt><trkpt lat="44.3700817" lon="6.9811967"><ele>1497.0</ele><time>2026-05-03T13:32:21.276Z</time></trkpt><trkpt lat="44.3699583" lon="6.9814367"><ele>1497.0</ele><time>2026-05-03T13:32:22.276Z</time></trkpt><trkpt lat="44.3698383" lon="6.98168"><ele>1497.0</ele><time>2026-05-03T13:32:23.276Z</time></trkpt><trkpt lat="44.3697117" lon="6.9819183"><ele>1497.0</ele><time>2026-05-03T13:32:24.276Z</time></trkpt><trkpt lat="44.3695883" lon="6.9821533"><ele>1495.3333333333333</ele><time>2026-05-03T13:32:25.276Z</time></trkpt><trkpt lat="44.36946" lon="6.9823883"><ele>1493.6666666666665</ele><time>2026-05-03T13:32:26.276Z</time></trkpt><trkpt lat="44.3693333" lon="6.9826133"><ele>1492.0</ele><time>2026-05-03T13:32:27.276Z</time></trkpt><trkpt lat="44.3692067" lon="6.982845"><ele>1491.0</ele><time>2026-05-03T13:32:28.276Z</time></trkpt><trkpt lat="44.3690833" lon="6.98308"><ele>1490.0</ele><time>2026-05-03T13:32:29.277Z</time></trkpt><trkpt lat="44.3689617" lon="6.9833133"><ele>1489.0</ele><time>2026-05-03T13:32:30.276Z</time></trkpt><trkpt lat="44.3688433" lon="6.98355"><ele>1487.0</ele><time>2026-05-03T13:32:31.276Z</time></trkpt><trkpt lat="44.368725" lon="6.983785"><ele>1485.0</ele><time>2026-05-03T13:32:32.276Z</time></trkpt><trkpt lat="44.368605" lon="6.9840167"><ele>1483.0</ele><time>2026-05-03T13:32:33.276Z</time></trkpt><trkpt lat="44.3684817" lon="6.9842483"><ele>1482.3333333333333</ele><time>2026-05-03T13:32:34.276Z</time></trkpt><trkpt lat="44.3683567" lon="6.9844783"><ele>1481.6666666666667</ele><time>2026-05-03T13:32:35.276Z</time></trkpt><trkpt lat="44.3682283" lon="6.9847067"><ele>1481.0</ele><time>2026-05-03T13:32:36.276Z</time></trkpt><trkpt lat="44.3681067" lon="6.9849367"><ele>1478.0</ele><time>2026-05-03T13:32:37.276Z</time></trkpt><trkpt lat="44.367995" lon="6.9851667"><ele>1475.0</ele><time>2026-05-03T13:32:38.276Z</time></trkpt><trkpt lat="44.3678783" lon="6.9853867"><ele>1472.0</ele><time>2026-05-03T13:32:39.276Z</time></trkpt><trkpt lat="44.3677533" lon="6.9856117"><ele>1472.0</ele><time>2026-05-03T13:32:40.276Z</time></trkpt><trkpt lat="44.367625" lon="6.98583"><ele>1472.0</ele><time>2026-05-03T13:32:41.277Z</time></trkpt><trkpt lat="44.3674867" lon="6.986045"><ele>1472.0</ele><time>2026-05-03T13:32:42.276Z</time></trkpt><trkpt lat="44.367345" lon="6.9862433"><ele>1471.6666666666667</ele><time>2026-05-03T13:32:43.276Z</time></trkpt><trkpt lat="44.3671717" lon="6.986425"><ele>1471.3333333333333</ele><time>2026-05-03T13:32:44.277Z</time></trkpt><trkpt lat="44.3669933" lon="6.986575"><ele>1471.0</ele><time>2026-05-03T13:32:45.277Z</time></trkpt><trkpt lat="44.366815" lon="6.9867283"><ele>1470.3333333333333</ele><time>2026-05-03T13:32:46.277Z</time></trkpt><trkpt lat="44.3666317" lon="6.9868733"><ele>1469.6666666666667</ele><time>2026-05-03T13:32:47.276Z</time></trkpt><trkpt lat="44.3664533" lon="6.9870267"><ele>1469.0</ele><time>2026-05-03T13:32:48.276Z</time></trkpt><trkpt lat="44.366295" lon="6.9872017"><ele>1468.6666666666667</ele><time>2026-05-03T13:32:49.276Z</time></trkpt><trkpt lat="44.36615" lon="6.987415"><ele>1468.3333333333333</ele><time>2026-05-03T13:32:50.276Z</time></trkpt><trkpt lat="44.3660317" lon="6.9876617"><ele>1468.0</ele><time>2026-05-03T13:32:51.276Z</time></trkpt><trkpt lat="44.3659433" lon="6.9879233"><ele>1467.6666666666665</ele><time>2026-05-03T13:32:52.277Z</time></trkpt><trkpt lat="44.365875" lon="6.9882083"><ele>1467.3333333333333</ele><time>2026-05-03T13:32:53.276Z</time></trkpt><trkpt lat="44.3658017" lon="6.9884867"><ele>1467.0</ele><time>2026-05-03T13:32:54.276Z</time></trkpt><trkpt lat="44.3657067" lon="6.9887467"><ele>1467.0</ele><time>2026-05-03T13:32:55.276Z</time></trkpt><trkpt lat="44.3655983" lon="6.9889967"><ele>1467.0</ele><time>2026-05-03T13:32:56.276Z</time></trkpt><trkpt lat="44.36546" lon="6.9892267"><ele>1467.0</ele><time>2026-05-03T13:32:57.276Z</time></trkpt><trkpt lat="44.3653033" lon="6.9894267"><ele>1462.0</ele><time>2026-05-03T13:32:58.276Z</time></trkpt><trkpt lat="44.3651233" lon="6.9896217"><ele>1457.0</ele><time>2026-05-03T13:32:59.276Z</time></trkpt><trkpt lat="44.3649617" lon="6.989835"><ele>1456.0</ele><time>2026-05-03T13:33:00.276Z</time></trkpt><trkpt lat="44.3647967" lon="6.990045"><ele>1455.0</ele><time>2026-05-03T13:33:01.276Z</time></trkpt><trkpt lat="44.364625" lon="6.9902567"><ele>1455.0</ele><time>2026-05-03T13:33:02.276Z</time></trkpt><trkpt lat="44.3644717" lon="6.990485"><ele>1455.0</ele><time>2026-05-03T13:33:03.277Z</time></trkpt><trkpt lat="44.3643183" lon="6.9907167"><ele>1457.3333333333333</ele><time>2026-05-03T13:33:04.276Z</time></trkpt><trkpt lat="44.3641717" lon="6.990955"><ele>1459.6666666666665</ele><time>2026-05-03T13:33:05.276Z</time></trkpt><trkpt lat="44.3640317" lon="6.9912"><ele>1462.0</ele><time>2026-05-03T13:33:06.276Z</time></trkpt><trkpt lat="44.3638933" lon="6.99145"><ele>1460.5</ele><time>2026-05-03T13:33:07.276Z</time></trkpt><trkpt lat="44.3637483" lon="6.9916983"><ele>1459.0</ele><time>2026-05-03T13:33:08.276Z</time></trkpt><trkpt lat="44.3635933" lon="6.991925"><ele>1459.0</ele><time>2026-05-03T13:33:09.276Z</time></trkpt><trkpt lat="44.3634417" lon="6.99217"><ele>1459.0</ele><time>2026-05-03T13:33:10.276Z</time></trkpt><trkpt lat="44.3632933" lon="6.9924117"><ele>1457.6666666666665</ele><time>2026-05-03T13:33:11.276Z</time></trkpt><trkpt lat="44.363155" lon="6.9926383"><ele>1456.3333333333333</ele><time>2026-05-03T13:33:12.276Z</time></trkpt><trkpt lat="44.3630183" lon="6.99286"><ele>1455.0</ele><time>2026-05-03T13:33:13.277Z</time></trkpt><trkpt lat="44.36287" lon="6.99306"><ele>1455.0</ele><time>2026-05-03T13:33:14.276Z</time></trkpt><trkpt lat="44.3627017" lon="6.9932117"><ele>1455.0</ele><time>2026-05-03T13:33:15.277Z</time></trkpt><trkpt lat="44.3625233" lon="6.99335"><ele>1455.0</ele><time>2026-05-03T13:33:16.276Z</time></trkpt><trkpt lat="44.3623267" lon="6.993455"><ele>1456.3333333333333</ele><time>2026-05-03T13:33:17.276Z</time></trkpt><trkpt lat="44.36213" lon="6.99356"><ele>1457.6666666666665</ele><time>2026-05-03T13:33:18.276Z</time></trkpt><trkpt lat="44.3619467" lon="6.9936917"><ele>1459.0</ele><time>2026-05-03T13:33:19.276Z</time></trkpt><trkpt lat="44.36178" lon="6.9938717"><ele>1459.0</ele><time>2026-05-03T13:33:20.276Z</time></trkpt><trkpt lat="44.3616317" lon="6.9940667"><ele>1459.0</ele><time>2026-05-03T13:33:21.276Z</time></trkpt><trkpt lat="44.3614783" lon="6.994275"><ele>1459.0</ele><time>2026-05-03T13:33:22.276Z</time></trkpt><trkpt lat="44.36133" lon="6.99448"><ele>1458.0</ele><time>2026-05-03T13:33:23.277Z</time></trkpt><trkpt lat="44.3611833" lon="6.99468"><ele>1457.0</ele><time>2026-05-03T13:33:24.276Z</time></trkpt><trkpt lat="44.3610417" lon="6.9948683"><ele>1456.0</ele><time>2026-05-03T13:33:25.276Z</time></trkpt><trkpt lat="44.3609" lon="6.9950333"><ele>1453.6666666666665</ele><time>2026-05-03T13:33:26.276Z</time></trkpt><trkpt lat="44.36077" lon="6.995185"><ele>1451.3333333333333</ele><time>2026-05-03T13:33:27.276Z</time></trkpt><trkpt lat="44.3606333" lon="6.99529"><ele>1449.0</ele><time>2026-05-03T13:33:28.276Z</time></trkpt><trkpt lat="44.3604917" lon="6.9953483"><ele>1449.0</ele><time>2026-05-03T13:33:29.276Z</time></trkpt><trkpt lat="44.3603467" lon="6.9953467"><ele>1449.0</ele><time>2026-05-03T13:33:30.276Z</time></trkpt><trkpt lat="44.3602167" lon="6.9953367"><ele>1449.0</ele><time>2026-05-03T13:33:31.276Z</time></trkpt><trkpt lat="44.3601" lon="6.9953633"><ele>1449.0</ele><time>2026-05-03T13:33:32.276Z</time></trkpt><trkpt lat="44.35999" lon="6.9954383"><ele>1449.0</ele><time>2026-05-03T13:33:33.276Z</time></trkpt><trkpt lat="44.359885" lon="6.9955583"><ele>1449.0</ele><time>2026-05-03T13:33:34.277Z</time></trkpt><trkpt lat="44.3597817" lon="6.9956933"><ele>1449.0</ele><time>2026-05-03T13:33:35.277Z</time></trkpt><trkpt lat="44.3596717" lon="6.9958167"><ele>1449.0</ele><time>2026-05-03T13:33:36.276Z</time></trkpt><trkpt lat="44.359565" lon="6.9959383"><ele>1446.25</ele><time>2026-05-03T13:33:37.276Z</time></trkpt><trkpt lat="44.3594767" lon="6.9960767"><ele>1443.5</ele><time>2026-05-03T13:33:38.276Z</time></trkpt><trkpt lat="44.3594083" lon="6.9962317"><ele>1440.75</ele><time>2026-05-03T13:33:39.276Z</time></trkpt><trkpt lat="44.3593783" lon="6.9964233"><ele>1438.0</ele><time>2026-05-03T13:33:40.276Z</time></trkpt><trkpt lat="44.3593883" lon="6.9966133"><ele>1437.25</ele><time>2026-05-03T13:33:41.276Z</time></trkpt><trkpt lat="44.3594183" lon="6.9968067"><ele>1436.5</ele><time>2026-05-03T13:33:42.276Z</time></trkpt><trkpt lat="44.3594383" lon="6.9970133"><ele>1435.75</ele><time>2026-05-03T13:33:43.276Z</time></trkpt><trkpt lat="44.35943" lon="6.9972233"><ele>1435.0</ele><time>2026-05-03T13:33:44.276Z</time></trkpt><trkpt lat="44.35942" lon="6.99742"><ele>1433.25</ele><time>2026-05-03T13:33:45.277Z</time></trkpt><trkpt lat="44.35939" lon="6.99762"><ele>1431.5</ele><time>2026-05-03T13:33:46.276Z</time></trkpt><trkpt lat="44.35937" lon="6.9978117"><ele>1429.75</ele><time>2026-05-03T13:33:47.276Z</time></trkpt><trkpt lat="44.3593783" lon="6.99799"><ele>1428.0</ele><time>2026-05-03T13:33:48.276Z</time></trkpt><trkpt lat="44.3594233" lon="6.9981583"><ele>1428.0</ele><time>2026-05-03T13:33:49.276Z</time></trkpt><trkpt lat="44.3594883" lon="6.9983033"><ele>1428.0</ele><time>2026-05-03T13:33:50.276Z</time></trkpt><trkpt lat="44.3595683" lon="6.9984333"><ele>1428.0</ele><time>2026-05-03T13:33:51.276Z</time></trkpt><trkpt lat="44.3596517" lon="6.9985417"><ele>1428.0</ele><time>2026-05-03T13:33:52.276Z</time></trkpt><trkpt lat="44.3597133" lon="6.998645"><ele>1427.3333333333333</ele><time>2026-05-03T13:33:53.276Z</time></trkpt><trkpt lat="44.35975" lon="6.99876"><ele>1426.6666666666667</ele><time>2026-05-03T13:33:54.276Z</time></trkpt><trkpt lat="44.3597533" lon="6.998885"><ele>1426.0</ele><time>2026-05-03T13:33:55.276Z</time></trkpt><trkpt lat="44.3597233" lon="6.9989733"><ele>1425.3333333333335</ele><time>2026-05-03T13:33:56.276Z</time></trkpt><trkpt lat="44.3596633" lon="6.999005"><ele>1424.6666666666667</ele><time>2026-05-03T13:33:57.276Z</time></trkpt><trkpt lat="44.359575" lon="6.9989467"><ele>1424.0</ele><time>2026-05-03T13:33:58.276Z</time></trkpt><trkpt lat="44.3594733" lon="6.9988083"><ele>1422.6666666666667</ele><time>2026-05-03T13:33:59.276Z</time></trkpt><trkpt lat="44.3593717" lon="6.9986317"><ele>1421.3333333333333</ele><time>2026-05-03T13:34:00.276Z</time></trkpt><trkpt lat="44.3592617" lon="6.998465"><ele>1420.0</ele><time>2026-05-03T13:34:01.276Z</time></trkpt><trkpt lat="44.3591533" lon="6.9983117"><ele>1419.5</ele><time>2026-05-03T13:34:02.276Z</time></trkpt><trkpt lat="44.3590533" lon="6.99817"><ele>1419.0</ele><time>2026-05-03T13:34:03.276Z</time></trkpt><trkpt lat="44.3589583" lon="6.998035"><ele>1418.5</ele><time>2026-05-03T13:34:04.276Z</time></trkpt><trkpt lat="44.3588617" lon="6.9978967"><ele>1418.0</ele><time>2026-05-03T13:34:05.276Z</time></trkpt><trkpt lat="44.3587817" lon="6.9977717"><ele>1418.0</ele><time>2026-05-03T13:34:06.276Z</time></trkpt><trkpt lat="44.358705" lon="6.99767"><ele>1418.0</ele><time>2026-05-03T13:34:07.276Z</time></trkpt><trkpt lat="44.358635" lon="6.9976017"><ele>1418.0</ele><time>2026-05-03T13:34:08.277Z</time></trkpt><trkpt lat="44.3585583" lon="6.99758"><ele>1418.0</ele><time>2026-05-03T13:34:09.277Z</time></trkpt><trkpt lat="44.358495" lon="6.9976"><ele>1418.0</ele><time>2026-05-03T13:34:10.276Z</time></trkpt><trkpt lat="44.3584533" lon="6.99767"><ele>1418.0</ele><time>2026-05-03T13:34:11.276Z</time></trkpt><trkpt lat="44.3584367" lon="6.9977983"><ele>1418.0</ele><time>2026-05-03T13:34:12.276Z</time></trkpt><trkpt lat="44.358455" lon="6.9979567"><ele>1418.0</ele><time>2026-05-03T13:34:13.276Z</time></trkpt><trkpt lat="44.3585083" lon="6.9981433"><ele>1418.0</ele><time>2026-05-03T13:34:14.276Z</time></trkpt><trkpt lat="44.3585667" lon="6.9983383"><ele>1418.0</ele><time>2026-05-03T13:34:15.276Z</time></trkpt><trkpt lat="44.3586233" lon="6.9985333"><ele>1416.3333333333335</ele><time>2026-05-03T13:34:16.277Z</time></trkpt><trkpt lat="44.3586767" lon="6.9987317"><ele>1414.6666666666667</ele><time>2026-05-03T13:34:17.276Z</time></trkpt><trkpt lat="44.3587267" lon="6.9989433"><ele>1413.0</ele><time>2026-05-03T13:34:18.276Z</time></trkpt><trkpt lat="44.3587633" lon="6.99915"><ele>1413.0</ele><time>2026-05-03T13:34:19.276Z</time></trkpt><trkpt lat="44.3587983" lon="6.9993617"><ele>1413.0</ele><time>2026-05-03T13:34:20.277Z</time></trkpt><trkpt lat="44.358825" lon="6.9995767"><ele>1413.0</ele><time>2026-05-03T13:34:21.276Z</time></trkpt><trkpt lat="44.35884" lon="6.9997933"><ele>1413.0</ele><time>2026-05-03T13:34:22.276Z</time></trkpt><trkpt lat="44.35884" lon="7.0000033"><ele>1413.0</ele><time>2026-05-03T13:34:23.276Z</time></trkpt><trkpt lat="44.3588333" lon="7.0002217"><ele>1413.0</ele><time>2026-05-03T13:34:24.276Z</time></trkpt><trkpt lat="44.35882" lon="7.00043"><ele>1413.0</ele><time>2026-05-03T13:34:25.276Z</time></trkpt><trkpt lat="44.35881" lon="7.0006217"><ele>1413.0</ele><time>2026-05-03T13:34:26.277Z</time></trkpt><trkpt lat="44.3588" lon="7.0008167"><ele>1413.0</ele><time>2026-05-03T13:34:27.276Z</time></trkpt><trkpt lat="44.3587883" lon="7.0010033"><ele>1413.0</ele><time>2026-05-03T13:34:28.277Z</time></trkpt><trkpt lat="44.358785" lon="7.0011817"><ele>1415.5</ele><time>2026-05-03T13:34:29.276Z</time></trkpt><trkpt lat="44.358775" lon="7.00136"><ele>1418.0</ele><time>2026-05-03T13:34:30.276Z</time></trkpt><trkpt lat="44.358765" lon="7.0015333"><ele>1420.5</ele><time>2026-05-03T13:34:31.276Z</time></trkpt><trkpt lat="44.358755" lon="7.001695"><ele>1423.0</ele><time>2026-05-03T13:34:32.276Z</time></trkpt><trkpt lat="44.35874" lon="7.0018733"><ele>1426.75</ele><time>2026-05-03T13:34:33.276Z</time></trkpt><trkpt lat="44.3587183" lon="7.002065"><ele>1430.5</ele><time>2026-05-03T13:34:34.276Z</time></trkpt><trkpt lat="44.3586917" lon="7.0022483"><ele>1434.25</ele><time>2026-05-03T13:34:35.276Z</time></trkpt><trkpt lat="44.3586533" lon="7.002425"><ele>1438.0</ele><time>2026-05-03T13:34:36.276Z</time></trkpt><trkpt lat="44.35863" lon="7.0026183"><ele>1438.0</ele><time>2026-05-03T13:34:37.276Z</time></trkpt><trkpt lat="44.35856" lon="7.0027983"><ele>1438.0</ele><time>2026-05-03T13:34:38.276Z</time></trkpt><trkpt lat="44.3584833" lon="7.00298"><ele>1438.0</ele><time>2026-05-03T13:34:39.277Z</time></trkpt><trkpt lat="44.3584333" lon="7.0031733"><ele>1438.0</ele><time>2026-05-03T13:34:40.276Z</time></trkpt><trkpt lat="44.35838" lon="7.0033683"><ele>1435.25</ele><time>2026-05-03T13:34:41.276Z</time></trkpt><trkpt lat="44.358335" lon="7.0035583"><ele>1432.5</ele><time>2026-05-03T13:34:42.276Z</time></trkpt><trkpt lat="44.3582917" lon="7.0037483"><ele>1429.75</ele><time>2026-05-03T13:34:43.276Z</time></trkpt><trkpt lat="44.3582483" lon="7.0039383"><ele>1427.0</ele><time>2026-05-03T13:34:44.276Z</time></trkpt><trkpt lat="44.3582017" lon="7.004135"><ele>1423.3333333333335</ele><time>2026-05-03T13:34:45.276Z</time></trkpt><trkpt lat="44.35816" lon="7.0043217"><ele>1419.6666666666667</ele><time>2026-05-03T13:34:46.276Z</time></trkpt><trkpt lat="44.3581167" lon="7.0045133"><ele>1416.0</ele><time>2026-05-03T13:34:47.276Z</time></trkpt><trkpt lat="44.355235" lon="7.0099983"><ele>1404.3333333333333</ele><time>2026-05-03T13:35:14.273Z</time></trkpt><trkpt lat="44.3550133" lon="7.010055"><ele>1392.6666666666665</ele><time>2026-05-03T13:35:15.273Z</time></trkpt><trkpt lat="44.3548133" lon="7.0101033"><ele>1381.0</ele><time>2026-05-03T13:35:16.273Z</time></trkpt><trkpt lat="44.354615" lon="7.010165"><ele>1381.0</ele><time>2026-05-03T13:35:17.274Z</time></trkpt><trkpt lat="44.3544367" lon="7.0102683"><ele>1381.0</ele><time>2026-05-03T13:35:18.273Z</time></trkpt><trkpt lat="44.354265" lon="7.010395"><ele>1381.0</ele><time>2026-05-03T13:35:19.273Z</time></trkpt><trkpt lat="44.354095" lon="7.0105567"><ele>1381.0</ele><time>2026-05-03T13:35:20.273Z</time></trkpt><trkpt lat="44.35396" lon="7.0107567"><ele>1381.0</ele><time>2026-05-03T13:35:21.273Z</time></trkpt><trkpt lat="44.3538283" lon="7.0109783"><ele>1381.0</ele><time>2026-05-03T13:35:22.273Z</time></trkpt><trkpt lat="44.3537183" lon="7.0112167"><ele>1383.0</ele><time>2026-05-03T13:35:23.273Z</time></trkpt><trkpt lat="44.35358" lon="7.011445"><ele>1385.0</ele><time>2026-05-03T13:35:24.273Z</time></trkpt><trkpt lat="44.353445" lon="7.011675"><ele>1387.0</ele><time>2026-05-03T13:35:25.273Z</time></trkpt><trkpt lat="44.3533117" lon="7.0119317"><ele>1382.0</ele><time>2026-05-03T13:35:26.273Z</time></trkpt><trkpt lat="44.3531867" lon="7.0121867"><ele>1377.0</ele><time>2026-05-03T13:35:27.273Z</time></trkpt><trkpt lat="44.353055" lon="7.0124317"><ele>1372.0</ele><time>2026-05-03T13:35:28.274Z</time></trkpt><trkpt lat="44.3529217" lon="7.0126717"><ele>1372.0</ele><time>2026-05-03T13:35:29.273Z</time></trkpt><trkpt lat="44.3528067" lon="7.0129233"><ele>1372.0</ele><time>2026-05-03T13:35:30.273Z</time></trkpt><trkpt lat="44.3526883" lon="7.01317"><ele>1372.0</ele><time>2026-05-03T13:35:31.273Z</time></trkpt><trkpt lat="44.3525717" lon="7.0134017"><ele>1364.6666666666665</ele><time>2026-05-03T13:35:32.273Z</time></trkpt><trkpt lat="44.3524617" lon="7.013635"><ele>1357.3333333333333</ele><time>2026-05-03T13:35:33.273Z</time></trkpt><trkpt lat="44.3523533" lon="7.01387"><ele>1350.0</ele><time>2026-05-03T13:35:34.273Z</time></trkpt><trkpt lat="44.3522583" lon="7.0141117"><ele>1356.3333333333333</ele><time>2026-05-03T13:35:35.273Z</time></trkpt><trkpt lat="44.3521633" lon="7.0143533"><ele>1362.6666666666665</ele><time>2026-05-03T13:35:36.273Z</time></trkpt><trkpt lat="44.352075" lon="7.0145983"><ele>1369.0</ele><time>2026-05-03T13:35:37.273Z</time></trkpt><trkpt lat="44.3520083" lon="7.014865"><ele>1365.6666666666665</ele><time>2026-05-03T13:35:38.274Z</time></trkpt><trkpt lat="44.3519617" lon="7.0151183"><ele>1362.3333333333333</ele><time>2026-05-03T13:35:39.273Z</time></trkpt><trkpt lat="44.3519183" lon="7.0153817"><ele>1359.0</ele><time>2026-05-03T13:35:40.273Z</time></trkpt><trkpt lat="44.3518767" lon="7.0156233"><ele>1355.3333333333333</ele><time>2026-05-03T13:35:41.274Z</time></trkpt><trkpt lat="44.351845" lon="7.0158617"><ele>1351.6666666666665</ele><time>2026-05-03T13:35:42.273Z</time></trkpt><trkpt lat="44.3518283" lon="7.0160817"><ele>1348.0</ele><time>2026-05-03T13:35:43.273Z</time></trkpt><trkpt lat="44.3518083" lon="7.01629"><ele>1348.0</ele><time>2026-05-03T13:35:44.273Z</time></trkpt><trkpt lat="44.3517883" lon="7.01648"><ele>1348.0</ele><time>2026-05-03T13:35:45.274Z</time></trkpt><trkpt lat="44.3517533" lon="7.0166367"><ele>1348.0</ele><time>2026-05-03T13:35:46.273Z</time></trkpt><trkpt lat="44.3517117" lon="7.0167817"><ele>1348.0</ele><time>2026-05-03T13:35:47.273Z</time></trkpt><trkpt lat="44.3516633" lon="7.0168933"><ele>1347.0</ele><time>2026-05-03T13:35:48.273Z</time></trkpt><trkpt lat="44.351595" lon="7.0169683"><ele>1346.0</ele><time>2026-05-03T13:35:49.273Z</time></trkpt><trkpt lat="44.3515167" lon="7.0170033"><ele>1345.0</ele><time>2026-05-03T13:35:50.273Z</time></trkpt><trkpt lat="44.3514117" lon="7.0170083"><ele>1344.0</ele><time>2026-05-03T13:35:51.273Z</time></trkpt><trkpt lat="44.351285" lon="7.0170067"><ele>1343.0</ele><time>2026-05-03T13:35:52.273Z</time></trkpt><trkpt lat="44.3511433" lon="7.0170117"><ele>1343.0</ele><time>2026-05-03T13:35:53.273Z</time></trkpt><trkpt lat="44.3509983" lon="7.017025"><ele>1343.0</ele><time>2026-05-03T13:35:54.273Z</time></trkpt><trkpt lat="44.3508583" lon="7.0170367"><ele>1343.0</ele><time>2026-05-03T13:35:55.273Z</time></trkpt><trkpt lat="44.3507283" lon="7.01702"><ele>1343.0</ele><time>2026-05-03T13:35:56.274Z</time></trkpt><trkpt lat="44.350615" lon="7.016955"><ele>1338.25</ele><time>2026-05-03T13:35:57.273Z</time></trkpt><trkpt lat="44.350505" lon="7.0168933"><ele>1333.5</ele><time>2026-05-03T13:35:58.273Z</time></trkpt><trkpt lat="44.35039" lon="7.0168317"><ele>1328.75</ele><time>2026-05-03T13:35:59.273Z</time></trkpt><trkpt lat="44.35027" lon="7.0167783"><ele>1324.0</ele><time>2026-05-03T13:36:00.273Z</time></trkpt><trkpt lat="44.3501417" lon="7.01673"><ele>1324.0</ele><time>2026-05-03T13:36:01.273Z</time></trkpt><trkpt lat="44.3500217" lon="7.016655"><ele>1324.0</ele><time>2026-05-03T13:36:02.273Z</time></trkpt><trkpt lat="44.349895" lon="7.0165333"><ele>1324.0</ele><time>2026-05-03T13:36:03.273Z</time></trkpt><trkpt lat="44.3497733" lon="7.016395"><ele>1324.0</ele><time>2026-05-03T13:36:04.273Z</time></trkpt><trkpt lat="44.3496433" lon="7.0162483"><ele>1322.0</ele><time>2026-05-03T13:36:05.273Z</time></trkpt><trkpt lat="44.3495167" lon="7.0160967"><ele>1320.0</ele><time>2026-05-03T13:36:06.273Z</time></trkpt><trkpt lat="44.34939" lon="7.0159517"><ele>1318.0</ele><time>2026-05-03T13:36:07.274Z</time></trkpt><trkpt lat="44.34927" lon="7.0157783"><ele>1322.6666666666665</ele><time>2026-05-03T13:36:08.273Z</time></trkpt><trkpt lat="44.3491633" lon="7.0156"><ele>1327.3333333333333</ele><time>2026-05-03T13:36:09.273Z</time></trkpt><trkpt lat="44.3490533" lon="7.0154283"><ele>1332.0</ele><time>2026-05-03T13:36:10.273Z</time></trkpt><trkpt lat="44.34894" lon="7.0152517"><ele>1329.3333333333333</ele><time>2026-05-03T13:36:11.273Z</time></trkpt><trkpt lat="44.3488233" lon="7.01508"><ele>1326.6666666666665</ele><time>2026-05-03T13:36:12.273Z</time></trkpt><trkpt lat="44.3487133" lon="7.014905"><ele>1324.0</ele><time>2026-05-03T13:36:13.273Z</time></trkpt><trkpt lat="44.3486133" lon="7.01475"><ele>1324.0</ele><time>2026-05-03T13:36:14.273Z</time></trkpt><trkpt lat="44.3485183" lon="7.0145983"><ele>1324.0</ele><time>2026-05-03T13:36:15.273Z</time></trkpt><trkpt lat="44.348425" lon="7.0144533"><ele>1324.0</ele><time>2026-05-03T13:36:16.273Z</time></trkpt><trkpt lat="44.34833" lon="7.01434"><ele>1324.0</ele><time>2026-05-03T13:36:17.273Z</time></trkpt><trkpt lat="44.34821" lon="7.0142733"><ele>1324.0</ele><time>2026-05-03T13:36:18.273Z</time></trkpt><trkpt lat="44.348085" lon="7.014265"><ele>1324.0</ele><time>2026-05-03T13:36:19.273Z</time></trkpt><trkpt lat="44.3479633" lon="7.01429"><ele>1324.0</ele><time>2026-05-03T13:36:20.273Z</time></trkpt><trkpt lat="44.347855" lon="7.0143717"><ele>1324.0</ele><time>2026-05-03T13:36:21.273Z</time></trkpt><trkpt lat="44.347755" lon="7.01449"><ele>1326.25</ele><time>2026-05-03T13:36:22.273Z</time></trkpt><trkpt lat="44.3476967" lon="7.0146517"><ele>1328.5</ele><time>2026-05-03T13:36:23.273Z</time></trkpt><trkpt lat="44.34768" lon="7.0148317"><ele>1330.75</ele><time>2026-05-03T13:36:24.273Z</time></trkpt><trkpt lat="44.3477083" lon="7.0150133"><ele>1333.0</ele><time>2026-05-03T13:36:25.273Z</time></trkpt><trkpt lat="44.3477683" lon="7.0151917"><ele>1333.6666666666665</ele><time>2026-05-03T13:36:26.273Z</time></trkpt><trkpt lat="44.347865" lon="7.0153383"><ele>1334.3333333333333</ele><time>2026-05-03T13:36:27.273Z</time></trkpt><trkpt lat="44.3479883" lon="7.0154533"><ele>1335.0</ele><time>2026-05-03T13:36:28.273Z</time></trkpt><trkpt lat="44.3481333" lon="7.0155567"><ele>1326.3333333333333</ele><time>2026-05-03T13:36:29.273Z</time></trkpt><trkpt lat="44.3482717" lon="7.0156617"><ele>1317.6666666666665</ele><time>2026-05-03T13:36:30.273Z</time></trkpt><trkpt lat="44.34841" lon="7.01576"><ele>1309.0</ele><time>2026-05-03T13:36:31.273Z</time></trkpt><trkpt lat="44.3485483" lon="7.01587"><ele>1307.0</ele><time>2026-05-03T13:36:32.273Z</time></trkpt><trkpt lat="44.3486817" lon="7.0159983"><ele>1305.0</ele><time>2026-05-03T13:36:33.273Z</time></trkpt><trkpt lat="44.3488" lon="7.0161567"><ele>1303.0</ele><time>2026-05-03T13:36:34.273Z</time></trkpt><trkpt lat="44.3489067" lon="7.016345"><ele>1302.3333333333333</ele><time>2026-05-03T13:36:35.273Z</time></trkpt><trkpt lat="44.3489833" lon="7.0165517"><ele>1301.6666666666667</ele><time>2026-05-03T13:36:36.273Z</time></trkpt><trkpt lat="44.34904" lon="7.0167783"><ele>1301.0</ele><time>2026-05-03T13:36:37.273Z</time></trkpt><trkpt lat="44.3490867" lon="7.017015"><ele>1301.0</ele><time>2026-05-03T13:36:38.274Z</time></trkpt><trkpt lat="44.3491183" lon="7.0172617"><ele>1301.0</ele><time>2026-05-03T13:36:39.273Z</time></trkpt><trkpt lat="44.34915" lon="7.0175083"><ele>1301.0</ele><time>2026-05-03T13:36:40.273Z</time></trkpt><trkpt lat="44.349175" lon="7.0177817"><ele>1298.0</ele><time>2026-05-03T13:36:41.273Z</time></trkpt><trkpt lat="44.3491767" lon="7.0180433"><ele>1295.0</ele><time>2026-05-03T13:36:42.273Z</time></trkpt><trkpt lat="44.3491583" lon="7.0183067"><ele>1292.0</ele><time>2026-05-03T13:36:43.273Z</time></trkpt><trkpt lat="44.3491117" lon="7.0185917"><ele>1288.6666666666667</ele><time>2026-05-03T13:36:44.273Z</time></trkpt><trkpt lat="44.34905" lon="7.01888"><ele>1285.3333333333333</ele><time>2026-05-03T13:36:45.274Z</time></trkpt><trkpt lat="44.34897" lon="7.0191567"><ele>1282.0</ele><time>2026-05-03T13:36:46.273Z</time></trkpt><trkpt lat="44.3488717" lon="7.019445"><ele>1277.5</ele><time>2026-05-03T13:36:47.273Z</time></trkpt><trkpt lat="44.3487733" lon="7.0197367"><ele>1273.0</ele><time>2026-05-03T13:36:48.273Z</time></trkpt><trkpt lat="44.3486833" lon="7.0200317"><ele>1273.0</ele><time>2026-05-03T13:36:49.273Z</time></trkpt><trkpt lat="44.3485883" lon="7.0203167"><ele>1273.0</ele><time>2026-05-03T13:36:50.273Z</time></trkpt><trkpt lat="44.348495" lon="7.0206133"><ele>1275.0</ele><time>2026-05-03T13:36:51.273Z</time></trkpt><trkpt lat="44.348405" lon="7.0209067"><ele>1277.0</ele><time>2026-05-03T13:36:52.273Z</time></trkpt><trkpt lat="44.3483167" lon="7.021195"><ele>1277.0</ele><time>2026-05-03T13:36:53.274Z</time></trkpt><trkpt lat="44.3482317" lon="7.0214867"><ele>1277.0</ele><time>2026-05-03T13:36:54.273Z</time></trkpt><trkpt lat="44.3481417" lon="7.021775"><ele>1276.0</ele><time>2026-05-03T13:36:55.273Z</time></trkpt><trkpt lat="44.3480467" lon="7.022065"><ele>1275.0</ele><time>2026-05-03T13:36:56.273Z</time></trkpt><trkpt lat="44.3479567" lon="7.0223633"><ele>1271.6666666666667</ele><time>2026-05-03T13:36:57.273Z</time></trkpt><trkpt lat="44.3478683" lon="7.02265"><ele>1268.3333333333335</ele><time>2026-05-03T13:36:58.273Z</time></trkpt><trkpt lat="44.3477783" lon="7.0229333"><ele>1265.0</ele><time>2026-05-03T13:36:59.273Z</time></trkpt><trkpt lat="44.3476883" lon="7.023215"><ele>1265.3333333333335</ele><time>2026-05-03T13:37:00.273Z</time></trkpt><trkpt lat="44.3476017" lon="7.0234883"><ele>1265.6666666666667</ele><time>2026-05-03T13:37:01.273Z</time></trkpt><trkpt lat="44.3474817" lon="7.02375"><ele>1266.0</ele><time>2026-05-03T13:37:02.274Z</time></trkpt><trkpt lat="44.3473417" lon="7.0240067"><ele>1265.3333333333333</ele><time>2026-05-03T13:37:03.273Z</time></trkpt><trkpt lat="44.3472" lon="7.024255"><ele>1264.6666666666665</ele><time>2026-05-03T13:37:04.274Z</time></trkpt><trkpt lat="44.3470717" lon="7.0245017"><ele>1264.0</ele><time>2026-05-03T13:37:05.273Z</time></trkpt><trkpt lat="44.34696" lon="7.0247617"><ele>1262.0</ele><time>2026-05-03T13:37:06.273Z</time></trkpt><trkpt lat="44.3468717" lon="7.0250367"><ele>1260.0</ele><time>2026-05-03T13:37:07.273Z</time></trkpt><trkpt lat="44.3468017" lon="7.0253383"><ele>1258.0</ele><time>2026-05-03T13:37:08.273Z</time></trkpt><trkpt lat="44.3467433" lon="7.0256433"><ele>1258.3333333333333</ele><time>2026-05-03T13:37:09.273Z</time></trkpt><trkpt lat="44.3467217" lon="7.025955"><ele>1258.6666666666667</ele><time>2026-05-03T13:37:10.273Z</time></trkpt><trkpt lat="44.346685" lon="7.0262583"><ele>1259.0</ele><time>2026-05-03T13:37:11.274Z</time></trkpt><trkpt lat="44.3466283" lon="7.0265517"><ele>1259.0</ele><time>2026-05-03T13:37:12.273Z</time></trkpt><trkpt lat="44.3465467" lon="7.0268367"><ele>1259.0</ele><time>2026-05-03T13:37:13.273Z</time></trkpt><trkpt lat="44.3464317" lon="7.0271033"><ele>1259.0</ele><time>2026-05-03T13:37:14.273Z</time></trkpt><trkpt lat="44.346305" lon="7.0273333"><ele>1255.6666666666667</ele><time>2026-05-03T13:37:15.273Z</time></trkpt><trkpt lat="44.3461867" lon="7.0275617"><ele>1252.3333333333333</ele><time>2026-05-03T13:37:16.274Z</time></trkpt><trkpt lat="44.3460867" lon="7.0277983"><ele>1249.0</ele><time>2026-05-03T13:37:17.273Z</time></trkpt><trkpt lat="44.345995" lon="7.0280433"><ele>1249.0</ele><time>2026-05-03T13:37:18.273Z</time></trkpt><trkpt lat="44.34592" lon="7.0283"><ele>1249.0</ele><time>2026-05-03T13:37:19.274Z</time></trkpt><trkpt lat="44.34587" lon="7.028555"><ele>1249.0</ele><time>2026-05-03T13:37:20.273Z</time></trkpt><trkpt lat="44.345835" lon="7.0288133"><ele>1250.6666666666665</ele><time>2026-05-03T13:37:21.273Z</time></trkpt><trkpt lat="44.34579" lon="7.0290583"><ele>1252.3333333333333</ele><time>2026-05-03T13:37:22.273Z</time></trkpt><trkpt lat="44.3457617" lon="7.0292983"><ele>1254.0</ele><time>2026-05-03T13:37:23.274Z</time></trkpt><trkpt lat="44.34573" lon="7.029525"><ele>1255.3333333333333</ele><time>2026-05-03T13:37:24.273Z</time></trkpt><trkpt lat="44.3456967" lon="7.029755"><ele>1256.6666666666665</ele><time>2026-05-03T13:37:25.273Z</time></trkpt><trkpt lat="44.3456467" lon="7.0299833"><ele>1258.0</ele><time>2026-05-03T13:37:26.273Z</time></trkpt><trkpt lat="44.3455767" lon="7.030195"><ele>1255.6666666666665</ele><time>2026-05-03T13:37:27.273Z</time></trkpt><trkpt lat="44.3454717" lon="7.03038"><ele>1253.3333333333333</ele><time>2026-05-03T13:37:28.273Z</time></trkpt><trkpt lat="44.3453433" lon="7.0305183"><ele>1251.0</ele><time>2026-05-03T13:37:29.273Z</time></trkpt><trkpt lat="44.34522" lon="7.0306617"><ele>1251.0</ele><time>2026-05-03T13:37:30.273Z</time></trkpt><trkpt lat="44.345075" lon="7.0307767"><ele>1251.0</ele><time>2026-05-03T13:37:31.273Z</time></trkpt><trkpt lat="44.3449283" lon="7.0308767"><ele>1251.0</ele><time>2026-05-03T13:37:32.274Z</time></trkpt><trkpt lat="44.3447883" lon="7.0309867"><ele>1248.25</ele><time>2026-05-03T13:37:33.273Z</time></trkpt><trkpt lat="44.3446567" lon="7.0310833"><ele>1245.5</ele><time>2026-05-03T13:37:34.273Z</time></trkpt><trkpt lat="44.344525" lon="7.0311883"><ele>1242.75</ele><time>2026-05-03T13:37:35.274Z</time></trkpt><trkpt lat="44.3444183" lon="7.0312983"><ele>1240.0</ele><time>2026-05-03T13:37:36.273Z</time></trkpt><trkpt lat="44.3443333" lon="7.03146"><ele>1240.0</ele><time>2026-05-03T13:37:37.273Z</time></trkpt><trkpt lat="44.3442833" lon="7.0316317"><ele>1240.0</ele><time>2026-05-03T13:37:38.273Z</time></trkpt><trkpt lat="44.3442617" lon="7.0318267"><ele>1240.0</ele><time>2026-05-03T13:37:39.273Z</time></trkpt><trkpt lat="44.34423" lon="7.0320167"><ele>1240.0</ele><time>2026-05-03T13:37:40.273Z</time></trkpt><trkpt lat="44.3441983" lon="7.0322183"><ele>1239.5</ele><time>2026-05-03T13:37:41.274Z</time></trkpt><trkpt lat="44.34417" lon="7.032415"><ele>1239.0</ele><time>2026-05-03T13:37:42.274Z</time></trkpt><trkpt lat="44.344145" lon="7.0326117"><ele>1238.5</ele><time>2026-05-03T13:37:43.274Z</time></trkpt><trkpt lat="44.3441067" lon="7.03281"><ele>1238.0</ele><time>2026-05-03T13:37:44.273Z</time></trkpt><trkpt lat="44.34408" lon="7.03301"><ele>1238.0</ele><time>2026-05-03T13:37:45.273Z</time></trkpt><trkpt lat="44.3440683" lon="7.0332133"><ele>1238.0</ele><time>2026-05-03T13:37:46.273Z</time></trkpt><trkpt lat="44.34406" lon="7.0334117"><ele>1238.0</ele><time>2026-05-03T13:37:47.273Z</time></trkpt><trkpt lat="44.3440567" lon="7.033625"><ele>1238.0</ele><time>2026-05-03T13:37:48.273Z</time></trkpt><trkpt lat="44.3440283" lon="7.0338333"><ele>1239.0</ele><time>2026-05-03T13:37:49.273Z</time></trkpt><trkpt lat="44.3440017" lon="7.0340417"><ele>1240.0</ele><time>2026-05-03T13:37:50.273Z</time></trkpt><trkpt lat="44.343975" lon="7.0342433"><ele>1241.0</ele><time>2026-05-03T13:37:51.273Z</time></trkpt><trkpt lat="44.343935" lon="7.0344267"><ele>1242.0</ele><time>2026-05-03T13:37:52.273Z</time></trkpt><trkpt lat="44.3439017" lon="7.03461"><ele>1238.0</ele><time>2026-05-03T13:37:53.273Z</time></trkpt><trkpt lat="44.3438533" lon="7.034775"><ele>1234.0</ele><time>2026-05-03T13:37:54.273Z</time></trkpt><trkpt lat="44.3438033" lon="7.03495"><ele>1230.0</ele><time>2026-05-03T13:37:55.273Z</time></trkpt><trkpt lat="44.3437367" lon="7.0351183"><ele>1226.0</ele><time>2026-05-03T13:37:56.273Z</time></trkpt><trkpt lat="44.3436583" lon="7.0352883"><ele>1226.0</ele><time>2026-05-03T13:37:57.273Z</time></trkpt><trkpt lat="44.3435733" lon="7.0354617"><ele>1226.0</ele><time>2026-05-03T13:37:58.273Z</time></trkpt><trkpt lat="44.3434783" lon="7.0356"><ele>1226.0</ele><time>2026-05-03T13:37:59.273Z</time></trkpt><trkpt lat="44.343385" lon="7.0357117"><ele>1226.0</ele><time>2026-05-03T13:38:00.273Z</time></trkpt><trkpt lat="44.34328" lon="7.03581"><ele>1225.3999999999999</ele><time>2026-05-03T13:38:01.273Z</time></trkpt><trkpt lat="44.343175" lon="7.0358933"><ele>1224.8</ele><time>2026-05-03T13:38:02.274Z</time></trkpt><trkpt lat="44.3430983" lon="7.0359783"><ele>1224.1999999999998</ele><time>2026-05-03T13:38:03.274Z</time></trkpt><trkpt lat="44.34305" lon="7.0360833"><ele>1223.6</ele><time>2026-05-03T13:38:04.273Z</time></trkpt><trkpt lat="44.3430333" lon="7.0362067"><ele>1223.0</ele><time>2026-05-03T13:38:05.274Z</time></trkpt><trkpt lat="44.343035" lon="7.0363383"><ele>1224.75</ele><time>2026-05-03T13:38:06.273Z</time></trkpt><trkpt lat="44.3430517" lon="7.0364867"><ele>1226.5</ele><time>2026-05-03T13:38:07.273Z</time></trkpt><trkpt lat="44.3430933" lon="7.0366483"><ele>1228.25</ele><time>2026-05-03T13:38:08.273Z</time></trkpt><trkpt lat="44.3431583" lon="7.0368183"><ele>1230.0</ele><time>2026-05-03T13:38:09.273Z</time></trkpt><trkpt lat="44.3432383" lon="7.0369817"><ele>1230.0</ele><time>2026-05-03T13:38:10.273Z</time></trkpt><trkpt lat="44.3433333" lon="7.0371433"><ele>1230.0</ele><time>2026-05-03T13:38:11.273Z</time></trkpt><trkpt lat="44.3434217" lon="7.0373317"><ele>1230.0</ele><time>2026-05-03T13:38:12.274Z</time></trkpt><trkpt lat="44.3434917" lon="7.03751"><ele>1227.75</ele><time>2026-05-03T13:38:13.273Z</time></trkpt><trkpt lat="44.343555" lon="7.0376883"><ele>1225.5</ele><time>2026-05-03T13:38:14.274Z</time></trkpt><trkpt lat="44.3436167" lon="7.0378667"><ele>1223.25</ele><time>2026-05-03T13:38:15.273Z</time></trkpt><trkpt lat="44.3436783" lon="7.0380567"><ele>1221.0</ele><time>2026-05-03T13:38:16.273Z</time></trkpt><trkpt lat="44.343735" lon="7.0382567"><ele>1219.6666666666667</ele><time>2026-05-03T13:38:17.273Z</time></trkpt><trkpt lat="44.3437933" lon="7.03847"><ele>1218.3333333333335</ele><time>2026-05-03T13:38:18.273Z</time></trkpt><trkpt lat="44.34385" lon="7.0386733"><ele>1217.0</ele><time>2026-05-03T13:38:19.273Z</time></trkpt><trkpt lat="44.343915" lon="7.0388733"><ele>1224.3333333333335</ele><time>2026-05-03T13:38:20.273Z</time></trkpt><trkpt lat="44.3439833" lon="7.03907"><ele>1231.6666666666667</ele><time>2026-05-03T13:38:21.273Z</time></trkpt><trkpt lat="44.34403" lon="7.0393"><ele>1239.0</ele><time>2026-05-03T13:38:22.273Z</time></trkpt><trkpt lat="44.3440683" lon="7.039525"><ele>1240.0</ele><time>2026-05-03T13:38:23.273Z</time></trkpt><trkpt lat="44.3440817" lon="7.0397733"><ele>1241.0</ele><time>2026-05-03T13:38:24.274Z</time></trkpt><trkpt lat="44.3440667" lon="7.040035"><ele>1242.0</ele><time>2026-05-03T13:38:25.273Z</time></trkpt><trkpt lat="44.344045" lon="7.040285"><ele>1239.3333333333333</ele><time>2026-05-03T13:38:26.273Z</time></trkpt><trkpt lat="44.3440133" lon="7.0405467"><ele>1236.6666666666665</ele><time>2026-05-03T13:38:27.273Z</time></trkpt><trkpt lat="44.3439767" lon="7.040805"><ele>1234.0</ele><time>2026-05-03T13:38:28.273Z</time></trkpt><trkpt lat="44.3439367" lon="7.041065"><ele>1233.6666666666665</ele><time>2026-05-03T13:38:29.274Z</time></trkpt><trkpt lat="44.3438983" lon="7.0413317"><ele>1233.3333333333333</ele><time>2026-05-03T13:38:30.273Z</time></trkpt><trkpt lat="44.3438617" lon="7.0415883"><ele>1233.0</ele><time>2026-05-03T13:38:31.273Z</time></trkpt><trkpt lat="44.34383" lon="7.0418467"><ele>1223.6666666666667</ele><time>2026-05-03T13:38:32.273Z</time></trkpt><trkpt lat="44.343775" lon="7.042105"><ele>1214.3333333333335</ele><time>2026-05-03T13:38:33.273Z</time></trkpt><trkpt lat="44.34371" lon="7.04235"><ele>1205.0</ele><time>2026-05-03T13:38:34.273Z</time></trkpt><trkpt lat="44.3436217" lon="7.04258"><ele>1205.0</ele><time>2026-05-03T13:38:35.273Z</time></trkpt><trkpt lat="44.3435183" lon="7.04279"><ele>1205.0</ele><time>2026-05-03T13:38:36.273Z</time></trkpt><trkpt lat="44.3433817" lon="7.042975"><ele>1205.0</ele><time>2026-05-03T13:38:37.273Z</time></trkpt><trkpt lat="44.3432567" lon="7.0431567"><ele>1208.0</ele><time>2026-05-03T13:38:38.273Z</time></trkpt><trkpt lat="44.343125" lon="7.0433633"><ele>1211.0</ele><time>2026-05-03T13:38:39.273Z</time></trkpt><trkpt lat="44.3430117" lon="7.0435733"><ele>1214.0</ele><time>2026-05-03T13:38:40.273Z</time></trkpt><trkpt lat="44.34291" lon="7.0437833"><ele>1208.6666666666667</ele><time>2026-05-03T13:38:41.274Z</time></trkpt><trkpt lat="44.342835" lon="7.0439917"><ele>1203.3333333333333</ele><time>2026-05-03T13:38:42.273Z</time></trkpt><trkpt lat="44.3427767" lon="7.0442167"><ele>1198.0</ele><time>2026-05-03T13:38:43.273Z</time></trkpt><trkpt lat="44.342735" lon="7.0444767"><ele>1198.0</ele><time>2026-05-03T13:38:44.273Z</time></trkpt><trkpt lat="44.342695" lon="7.04472"><ele>1198.0</ele><time>2026-05-03T13:38:45.273Z</time></trkpt><trkpt lat="44.3426567" lon="7.0449817"><ele>1198.0</ele><time>2026-05-03T13:38:46.274Z</time></trkpt><trkpt lat="44.3426083" lon="7.0452383"><ele>1198.6666666666665</ele><time>2026-05-03T13:38:47.273Z</time></trkpt><trkpt lat="44.3425633" lon="7.0454817"><ele>1199.3333333333333</ele><time>2026-05-03T13:38:48.273Z</time></trkpt><trkpt lat="44.342525" lon="7.04573"><ele>1200.0</ele><time>2026-05-03T13:38:49.273Z</time></trkpt><trkpt lat="44.342485" lon="7.0459817"><ele>1201.6666666666667</ele><time>2026-05-03T13:38:50.273Z</time></trkpt><trkpt lat="44.3424533" lon="7.04624"><ele>1203.3333333333335</ele><time>2026-05-03T13:38:51.273Z</time></trkpt><trkpt lat="44.3424183" lon="7.0465067"><ele>1205.0</ele><time>2026-05-03T13:38:52.273Z</time></trkpt><trkpt lat="44.3423933" lon="7.0467667"><ele>1208.3333333333335</ele><time>2026-05-03T13:38:53.273Z</time></trkpt><trkpt lat="44.3423683" lon="7.0470283"><ele>1211.6666666666667</ele><time>2026-05-03T13:38:54.273Z</time></trkpt><trkpt lat="44.342335" lon="7.0472933"><ele>1215.0</ele><time>2026-05-03T13:38:55.274Z</time></trkpt><trkpt lat="44.3422817" lon="7.0475467"><ele>1218.0</ele><time>2026-05-03T13:38:56.274Z</time></trkpt><trkpt lat="44.3422233" lon="7.0477983"><ele>1221.0</ele><time>2026-05-03T13:38:57.273Z</time></trkpt><trkpt lat="44.342165" lon="7.048055"><ele>1224.0</ele><time>2026-05-03T13:38:58.273Z</time></trkpt><trkpt lat="44.3421083" lon="7.048305"><ele>1211.3333333333333</ele><time>2026-05-03T13:38:59.273Z</time></trkpt><trkpt lat="44.342045" lon="7.0485467"><ele>1198.6666666666665</ele><time>2026-05-03T13:39:00.274Z</time></trkpt><trkpt lat="44.3419883" lon="7.048795"><ele>1186.0</ele><time>2026-05-03T13:39:01.273Z</time></trkpt><trkpt lat="44.3419317" lon="7.0490483"><ele>1186.3333333333333</ele><time>2026-05-03T13:39:02.273Z</time></trkpt><trkpt lat="44.3418867" lon="7.0492983"><ele>1186.6666666666667</ele><time>2026-05-03T13:39:03.273Z</time></trkpt><trkpt lat="44.3418683" lon="7.0495533"><ele>1187.0</ele><time>2026-05-03T13:39:04.274Z</time></trkpt><trkpt lat="44.3418667" lon="7.0497983"><ele>1186.3333333333335</ele><time>2026-05-03T13:39:05.274Z</time></trkpt><trkpt lat="44.3418767" lon="7.0500483"><ele>1185.6666666666667</ele><time>2026-05-03T13:39:06.273Z</time></trkpt><trkpt lat="44.3418817" lon="7.0502867"><ele>1185.0</ele><time>2026-05-03T13:39:07.273Z</time></trkpt><trkpt lat="44.34187" lon="7.0504983"><ele>1185.0</ele><time>2026-05-03T13:39:08.274Z</time></trkpt><trkpt lat="44.341835" lon="7.0507083"><ele>1185.0</ele><time>2026-05-03T13:39:09.273Z</time></trkpt><trkpt lat="44.341805" lon="7.0509217"><ele>1185.0</ele><time>2026-05-03T13:39:10.273Z</time></trkpt><trkpt lat="44.3418033" lon="7.0511267"><ele>1185.0</ele><time>2026-05-03T13:39:11.273Z</time></trkpt><trkpt lat="44.3418117" lon="7.0513317"><ele>1185.0</ele><time>2026-05-03T13:39:12.273Z</time></trkpt><trkpt lat="44.34183" lon="7.0515383"><ele>1185.0</ele><time>2026-05-03T13:39:13.273Z</time></trkpt><trkpt lat="44.3418517" lon="7.0517417"><ele>1185.0</ele><time>2026-05-03T13:39:14.273Z</time></trkpt><trkpt lat="44.3418617" lon="7.051945"><ele>1184.0</ele><time>2026-05-03T13:39:15.273Z</time></trkpt><trkpt lat="44.3418667" lon="7.052155"><ele>1183.0</ele><time>2026-05-03T13:39:16.274Z</time></trkpt><trkpt lat="44.3418567" lon="7.0523667"><ele>1182.0</ele><time>2026-05-03T13:39:17.273Z</time></trkpt><trkpt lat="44.341825" lon="7.05257"><ele>1181.6666666666667</ele><time>2026-05-03T13:39:18.274Z</time></trkpt><trkpt lat="44.3417733" lon="7.052775"><ele>1181.3333333333335</ele><time>2026-05-03T13:39:19.274Z</time></trkpt><trkpt lat="44.3417233" lon="7.052995"><ele>1181.0</ele><time>2026-05-03T13:39:20.273Z</time></trkpt><trkpt lat="44.3416733" lon="7.053215"><ele>1183.0</ele><time>2026-05-03T13:39:21.273Z</time></trkpt><trkpt lat="44.3416417" lon="7.0534417"><ele>1185.0</ele><time>2026-05-03T13:39:22.273Z</time></trkpt><trkpt lat="44.3416067" lon="7.0536633"><ele>1187.0</ele><time>2026-05-03T13:39:23.273Z</time></trkpt><trkpt lat="44.3415583" lon="7.0538717"><ele>1187.0</ele><time>2026-05-03T13:39:24.273Z</time></trkpt><trkpt lat="44.3414983" lon="7.054075"><ele>1187.0</ele><time>2026-05-03T13:39:25.273Z</time></trkpt><trkpt lat="44.3414183" lon="7.0542683"><ele>1187.0</ele><time>2026-05-03T13:39:26.273Z</time></trkpt><trkpt lat="44.3413417" lon="7.0544583"><ele>1183.3333333333335</ele><time>2026-05-03T13:39:27.273Z</time></trkpt><trkpt lat="44.341275" lon="7.0546667"><ele>1179.6666666666667</ele><time>2026-05-03T13:39:28.274Z</time></trkpt><trkpt lat="44.3412083" lon="7.0548717"><ele>1176.0</ele><time>2026-05-03T13:39:29.273Z</time></trkpt><trkpt lat="44.34116" lon="7.055085"><ele>1175.3333333333333</ele><time>2026-05-03T13:39:30.273Z</time></trkpt><trkpt lat="44.341115" lon="7.055305"><ele>1174.6666666666665</ele><time>2026-05-03T13:39:31.273Z</time></trkpt><trkpt lat="44.3410767" lon="7.0555317"><ele>1174.0</ele><time>2026-05-03T13:39:32.273Z</time></trkpt><trkpt lat="44.3410333" lon="7.05576"><ele>1174.3333333333333</ele><time>2026-05-03T13:39:33.273Z</time></trkpt><trkpt lat="44.340995" lon="7.0559883"><ele>1174.6666666666667</ele><time>2026-05-03T13:39:34.274Z</time></trkpt><trkpt lat="44.340955" lon="7.05624"><ele>1175.0</ele><time>2026-05-03T13:39:35.273Z</time></trkpt><trkpt lat="44.34093" lon="7.056515"><ele>1173.6666666666667</ele><time>2026-05-03T13:39:36.274Z</time></trkpt><trkpt lat="44.3409083" lon="7.0567733"><ele>1172.3333333333333</ele><time>2026-05-03T13:39:37.273Z</time></trkpt><trkpt lat="44.3408883" lon="7.0570383"><ele>1171.0</ele><time>2026-05-03T13:39:38.273Z</time></trkpt><trkpt lat="44.3408633" lon="7.0573117"><ele>1172.0</ele><time>2026-05-03T13:39:39.273Z</time></trkpt><trkpt lat="44.340835" lon="7.0575833"><ele>1173.0</ele><time>2026-05-03T13:39:40.274Z</time></trkpt><trkpt lat="44.3408017" lon="7.057845"><ele>1174.0</ele><time>2026-05-03T13:39:41.273Z</time></trkpt><trkpt lat="44.3407583" lon="7.0581083"><ele>1175.0</ele><time>2026-05-03T13:39:42.273Z</time></trkpt><trkpt lat="44.3407" lon="7.0583733"><ele>1176.0</ele><time>2026-05-03T13:39:43.273Z</time></trkpt><trkpt lat="44.3406283" lon="7.0586217"><ele>1177.0</ele><time>2026-05-03T13:39:44.274Z</time></trkpt><trkpt lat="44.3405483" lon="7.05888"><ele>1170.6666666666665</ele><time>2026-05-03T13:39:45.273Z</time></trkpt><trkpt lat="44.3404767" lon="7.0591283"><ele>1164.3333333333333</ele><time>2026-05-03T13:39:46.274Z</time></trkpt><trkpt lat="44.34041" lon="7.05936"><ele>1158.0</ele><time>2026-05-03T13:39:47.274Z</time></trkpt><trkpt lat="44.3403367" lon="7.05961"><ele>1158.0</ele><time>2026-05-03T13:39:48.273Z</time></trkpt><trkpt lat="44.3402783" lon="7.0598483"><ele>1158.0</ele><time>2026-05-03T13:39:49.274Z</time></trkpt><trkpt lat="44.340235" lon="7.0600883"><ele>1158.0</ele><time>2026-05-03T13:39:50.273Z</time></trkpt><trkpt lat="44.3401817" lon="7.0603233"><ele>1159.3333333333333</ele><time>2026-05-03T13:39:51.273Z</time></trkpt><trkpt lat="44.34012" lon="7.0605367"><ele>1160.6666666666665</ele><time>2026-05-03T13:39:52.273Z</time></trkpt><trkpt lat="44.3400417" lon="7.0607367"><ele>1162.0</ele><time>2026-05-03T13:39:53.274Z</time></trkpt><trkpt lat="44.3399417" lon="7.06092"><ele>1163.5</ele><time>2026-05-03T13:39:54.273Z</time></trkpt><trkpt lat="44.33984" lon="7.0610717"><ele>1165.0</ele><time>2026-05-03T13:39:55.273Z</time></trkpt><trkpt lat="44.33973" lon="7.0612133"><ele>1166.5</ele><time>2026-05-03T13:39:56.274Z</time></trkpt><trkpt lat="44.339625" lon="7.0613583"><ele>1168.0</ele><time>2026-05-03T13:39:57.273Z</time></trkpt><trkpt lat="44.339525" lon="7.0615133"><ele>1166.0</ele><time>2026-05-03T13:39:58.273Z</time></trkpt><trkpt lat="44.33943" lon="7.0616733"><ele>1164.0</ele><time>2026-05-03T13:39:59.274Z</time></trkpt><trkpt lat="44.3393467" lon="7.061845"><ele>1162.0</ele><time>2026-05-03T13:40:00.274Z</time></trkpt><trkpt lat="44.339285" lon="7.0620317"><ele>1160.0</ele><time>2026-05-03T13:40:01.273Z</time></trkpt><trkpt lat="44.3392317" lon="7.0622433"><ele>1160.3333333333335</ele><time>2026-05-03T13:40:02.273Z</time></trkpt><trkpt lat="44.339185" lon="7.0624533"><ele>1160.6666666666667</ele><time>2026-05-03T13:40:03.273Z</time></trkpt><trkpt lat="44.339135" lon="7.0626583"><ele>1161.0</ele><time>2026-05-03T13:40:04.273Z</time></trkpt><trkpt lat="44.3390917" lon="7.0628683"><ele>1161.0</ele><time>2026-05-03T13:40:05.273Z</time></trkpt><trkpt lat="44.33905" lon="7.0630917"><ele>1161.0</ele><time>2026-05-03T13:40:06.273Z</time></trkpt><trkpt lat="44.3390033" lon="7.0633117"><ele>1161.0</ele><time>2026-05-03T13:40:07.273Z</time></trkpt><trkpt lat="44.338945" lon="7.0635333"><ele>1157.3333333333333</ele><time>2026-05-03T13:40:08.274Z</time></trkpt><trkpt lat="44.3388833" lon="7.06375"><ele>1153.6666666666665</ele><time>2026-05-03T13:40:09.273Z</time></trkpt><trkpt lat="44.3388017" lon="7.06396"><ele>1150.0</ele><time>2026-05-03T13:40:10.273Z</time></trkpt><trkpt lat="44.3387083" lon="7.064175"><ele>1149.0</ele><time>2026-05-03T13:40:11.273Z</time></trkpt><trkpt lat="44.3386117" lon="7.0643817"><ele>1148.0</ele><time>2026-05-03T13:40:12.273Z</time></trkpt><trkpt lat="44.338505" lon="7.0645817"><ele>1147.0</ele><time>2026-05-03T13:40:13.273Z</time></trkpt><trkpt lat="44.338395" lon="7.0647683"><ele>1147.6666666666665</ele><time>2026-05-03T13:40:14.273Z</time></trkpt><trkpt lat="44.3382933" lon="7.0649483"><ele>1148.3333333333333</ele><time>2026-05-03T13:40:15.273Z</time></trkpt><trkpt lat="44.3381983" lon="7.06512"><ele>1149.0</ele><time>2026-05-03T13:40:16.273Z</time></trkpt><trkpt lat="44.3381017" lon="7.065285"><ele>1147.75</ele><time>2026-05-03T13:40:17.274Z</time></trkpt><trkpt lat="44.338025" lon="7.0654483"><ele>1146.5</ele><time>2026-05-03T13:40:18.273Z</time></trkpt><trkpt lat="44.337975" lon="7.0656167"><ele>1145.25</ele><time>2026-05-03T13:40:19.274Z</time></trkpt><trkpt lat="44.3379583" lon="7.0657983"><ele>1144.0</ele><time>2026-05-03T13:40:20.273Z</time></trkpt><trkpt lat="44.3379733" lon="7.066025"><ele>1144.0</ele><time>2026-05-03T13:40:21.273Z</time></trkpt><trkpt lat="44.3380033" lon="7.066285"><ele>1144.0</ele><time>2026-05-03T13:40:22.273Z</time></trkpt><trkpt lat="44.3380217" lon="7.0665767"><ele>1144.0</ele><time>2026-05-03T13:40:23.273Z</time></trkpt><trkpt lat="44.3380167" lon="7.0668783"><ele>1140.5</ele><time>2026-05-03T13:40:24.273Z</time></trkpt><trkpt lat="44.3379717" lon="7.0671967"><ele>1137.0</ele><time>2026-05-03T13:40:25.273Z</time></trkpt><trkpt lat="44.3379033" lon="7.0674933"><ele>1134.0</ele><time>2026-05-03T13:40:26.273Z</time></trkpt><trkpt lat="44.337825" lon="7.0677717"><ele>1131.0</ele><time>2026-05-03T13:40:27.273Z</time></trkpt><trkpt lat="44.337745" lon="7.0680333"><ele>1128.0</ele><time>2026-05-03T13:40:28.273Z</time></trkpt><trkpt lat="44.3376683" lon="7.0682917"><ele>1128.0</ele><time>2026-05-03T13:40:29.273Z</time></trkpt><trkpt lat="44.3375833" lon="7.0685133"><ele>1128.0</ele><time>2026-05-03T13:40:30.273Z</time></trkpt><trkpt lat="44.3374733" lon="7.0687317"><ele>1128.0</ele><time>2026-05-03T13:40:31.273Z</time></trkpt><trkpt lat="44.337375" lon="7.0689283"><ele>1128.3333333333333</ele><time>2026-05-03T13:40:32.273Z</time></trkpt><trkpt lat="44.3372933" lon="7.0691417"><ele>1128.6666666666665</ele><time>2026-05-03T13:40:33.274Z</time></trkpt><trkpt lat="44.337245" lon="7.0693733"><ele>1129.0</ele><time>2026-05-03T13:40:34.274Z</time></trkpt><trkpt lat="44.3372017" lon="7.06961"><ele>1128.3333333333333</ele><time>2026-05-03T13:40:35.273Z</time></trkpt><trkpt lat="44.337165" lon="7.0698567"><ele>1127.6666666666667</ele><time>2026-05-03T13:40:36.273Z</time></trkpt><trkpt lat="44.3371267" lon="7.0701117"><ele>1127.0</ele><time>2026-05-03T13:40:37.274Z</time></trkpt><trkpt lat="44.3370833" lon="7.0703617"><ele>1127.0</ele><time>2026-05-03T13:40:38.273Z</time></trkpt><trkpt lat="44.33704" lon="7.0706167"><ele>1127.0</ele><time>2026-05-03T13:40:39.273Z</time></trkpt><trkpt lat="44.3369967" lon="7.0708767"><ele>1127.0</ele><time>2026-05-03T13:40:40.273Z</time></trkpt><trkpt lat="44.33694" lon="7.0711283"><ele>1125.6666666666667</ele><time>2026-05-03T13:40:41.273Z</time></trkpt><trkpt lat="44.3368617" lon="7.0713617"><ele>1124.3333333333333</ele><time>2026-05-03T13:40:42.273Z</time></trkpt><trkpt lat="44.33677" lon="7.0715967"><ele>1123.0</ele><time>2026-05-03T13:40:43.273Z</time></trkpt><trkpt lat="44.33665" lon="7.0718017"><ele>1123.0</ele><time>2026-05-03T13:40:44.273Z</time></trkpt><trkpt lat="44.33652" lon="7.0719983"><ele>1123.0</ele><time>2026-05-03T13:40:45.273Z</time></trkpt><trkpt lat="44.336365" lon="7.07215"><ele>1123.0</ele><time>2026-05-03T13:40:46.273Z</time></trkpt><trkpt lat="44.3362017" lon="7.072285"><ele>1121.6666666666665</ele><time>2026-05-03T13:40:47.273Z</time></trkpt><trkpt lat="44.336035" lon="7.0724267"><ele>1120.3333333333333</ele><time>2026-05-03T13:40:48.273Z</time></trkpt><trkpt lat="44.3358733" lon="7.0725783"><ele>1119.0</ele><time>2026-05-03T13:40:49.273Z</time></trkpt><trkpt lat="44.3357083" lon="7.0727417"><ele>1118.3333333333333</ele><time>2026-05-03T13:40:50.273Z</time></trkpt><trkpt lat="44.3355467" lon="7.0729067"><ele>1117.6666666666665</ele><time>2026-05-03T13:40:51.273Z</time></trkpt><trkpt lat="44.3353983" lon="7.0730733"><ele>1117.0</ele><time>2026-05-03T13:40:52.273Z</time></trkpt><trkpt lat="44.335255" lon="7.073235"><ele>1115.0</ele><time>2026-05-03T13:40:53.273Z</time></trkpt><trkpt lat="44.3351167" lon="7.0733867"><ele>1113.0</ele><time>2026-05-03T13:40:54.273Z</time></trkpt><trkpt lat="44.3349833" lon="7.073525"><ele>1111.0</ele><time>2026-05-03T13:40:55.273Z</time></trkpt><trkpt lat="44.3348617" lon="7.0736617"><ele>1115.5</ele><time>2026-05-03T13:40:56.274Z</time></trkpt><trkpt lat="44.3347167" lon="7.073755"><ele>1120.0</ele><time>2026-05-03T13:40:57.273Z</time></trkpt><trkpt lat="44.3345767" lon="7.073815"><ele>1124.5</ele><time>2026-05-03T13:40:58.273Z</time></trkpt><trkpt lat="44.3344383" lon="7.0738633"><ele>1129.0</ele><time>2026-05-03T13:40:59.273Z</time></trkpt><trkpt lat="44.33432" lon="7.07395"><ele>1129.0</ele><time>2026-05-03T13:41:00.273Z</time></trkpt><trkpt lat="44.3342133" lon="7.0740717"><ele>1129.0</ele><time>2026-05-03T13:41:01.273Z</time></trkpt><trkpt lat="44.3341333" lon="7.0742267"><ele>1129.0</ele><time>2026-05-03T13:41:02.273Z</time></trkpt><trkpt lat="44.3340667" lon="7.0744"><ele>1129.0</ele><time>2026-05-03T13:41:03.273Z</time></trkpt><trkpt lat="44.3339933" lon="7.0745683"><ele>1128.0</ele><time>2026-05-03T13:41:04.273Z</time></trkpt><trkpt lat="44.3339233" lon="7.0747317"><ele>1127.0</ele><time>2026-05-03T13:41:05.273Z</time></trkpt><trkpt lat="44.3338633" lon="7.0748983"><ele>1126.0</ele><time>2026-05-03T13:41:06.273Z</time></trkpt><trkpt lat="44.3338317" lon="7.0750733"><ele>1125.0</ele><time>2026-05-03T13:41:07.274Z</time></trkpt><trkpt lat="44.333825" lon="7.0752567"><ele>1125.0</ele><time>2026-05-03T13:41:08.274Z</time></trkpt><trkpt lat="44.3338383" lon="7.0754683"><ele>1125.0</ele><time>2026-05-03T13:41:09.273Z</time></trkpt><trkpt lat="44.333845" lon="7.0757"><ele>1125.0</ele><time>2026-05-03T13:41:10.274Z</time></trkpt><trkpt lat="44.33384" lon="7.0759233"><ele>1117.6666666666667</ele><time>2026-05-03T13:41:11.274Z</time></trkpt><trkpt lat="44.33383" lon="7.0761367"><ele>1110.3333333333335</ele><time>2026-05-03T13:41:12.273Z</time></trkpt><trkpt lat="44.333825" lon="7.0763533"><ele>1103.0</ele><time>2026-05-03T13:41:13.273Z</time></trkpt><trkpt lat="44.33382" lon="7.0765533"><ele>1101.0</ele><time>2026-05-03T13:41:14.273Z</time></trkpt><trkpt lat="44.3337967" lon="7.0767467"><ele>1099.0</ele><time>2026-05-03T13:41:15.273Z</time></trkpt><trkpt lat="44.33375" lon="7.0769217"><ele>1097.0</ele><time>2026-05-03T13:41:16.273Z</time></trkpt><trkpt lat="44.3336833" lon="7.0770833"><ele>1095.0</ele><time>2026-05-03T13:41:17.273Z</time></trkpt><trkpt lat="44.33359" lon="7.077195"><ele>1095.0</ele><time>2026-05-03T13:41:18.273Z</time></trkpt><trkpt lat="44.3334683" lon="7.0772933"><ele>1095.0</ele><time>2026-05-03T13:41:19.273Z</time></trkpt><trkpt lat="44.333345" lon="7.077385"><ele>1095.0</ele><time>2026-05-03T13:41:20.273Z</time></trkpt><trkpt lat="44.3332167" lon="7.07747"><ele>1095.0</ele><time>2026-05-03T13:41:21.274Z</time></trkpt><trkpt lat="44.3330733" lon="7.0775567"><ele>1094.0</ele><time>2026-05-03T13:41:22.274Z</time></trkpt><trkpt lat="44.3329333" lon="7.0776533"><ele>1093.0</ele><time>2026-05-03T13:41:23.273Z</time></trkpt><trkpt lat="44.3327917" lon="7.0777567"><ele>1092.0</ele><time>2026-05-03T13:41:24.273Z</time></trkpt><trkpt lat="44.33266" lon="7.0778617"><ele>1092.0</ele><time>2026-05-03T13:41:25.274Z</time></trkpt><trkpt lat="44.332535" lon="7.0779817"><ele>1092.0</ele><time>2026-05-03T13:41:26.273Z</time></trkpt><trkpt lat="44.3324183" lon="7.0781183"><ele>1092.0</ele><time>2026-05-03T13:41:27.273Z</time></trkpt><trkpt lat="44.332315" lon="7.0782783"><ele>1092.75</ele><time>2026-05-03T13:41:28.273Z</time></trkpt><trkpt lat="44.3322367" lon="7.0784417"><ele>1093.5</ele><time>2026-05-03T13:41:29.273Z</time></trkpt><trkpt lat="44.3321767" lon="7.078615"><ele>1094.25</ele><time>2026-05-03T13:41:30.273Z</time></trkpt><trkpt lat="44.332135" lon="7.0787933"><ele>1095.0</ele><time>2026-05-03T13:41:31.273Z</time></trkpt><trkpt lat="44.3321" lon="7.0789617"><ele>1092.5</ele><time>2026-05-03T13:41:32.273Z</time></trkpt><trkpt lat="44.332065" lon="7.0791333"><ele>1090.0</ele><time>2026-05-03T13:41:33.273Z</time></trkpt><trkpt lat="44.3320383" lon="7.0793133"><ele>1087.5</ele><time>2026-05-03T13:41:34.273Z</time></trkpt><trkpt lat="44.33201" lon="7.0795117"><ele>1085.0</ele><time>2026-05-03T13:41:35.273Z</time></trkpt><trkpt lat="44.33198" lon="7.07971"><ele>1085.0</ele><time>2026-05-03T13:41:36.273Z</time></trkpt><trkpt lat="44.33195" lon="7.0799133"><ele>1085.0</ele><time>2026-05-03T13:41:37.273Z</time></trkpt><trkpt lat="44.33193" lon="7.0801083"><ele>1085.0</ele><time>2026-05-03T13:41:38.273Z</time></trkpt><trkpt lat="44.3318983" lon="7.0803183"><ele>1085.0</ele><time>2026-05-03T13:41:39.274Z</time></trkpt><trkpt lat="44.3318417" lon="7.0805183"><ele>1084.6666666666667</ele><time>2026-05-03T13:41:40.274Z</time></trkpt><trkpt lat="44.3317683" lon="7.08071"><ele>1084.3333333333333</ele><time>2026-05-03T13:41:41.273Z</time></trkpt><trkpt lat="44.33167" lon="7.080875"><ele>1084.0</ele><time>2026-05-03T13:41:42.273Z</time></trkpt><trkpt lat="44.3315467" lon="7.0810333"><ele>1085.3333333333333</ele><time>2026-05-03T13:41:43.273Z</time></trkpt><trkpt lat="44.3314117" lon="7.08118"><ele>1086.6666666666667</ele><time>2026-05-03T13:41:44.274Z</time></trkpt><trkpt lat="44.33127" lon="7.081315"><ele>1088.0</ele><time>2026-05-03T13:41:45.273Z</time></trkpt><trkpt lat="44.3311367" lon="7.0814667"><ele>1085.0</ele><time>2026-05-03T13:41:46.273Z</time></trkpt><trkpt lat="44.3310133" lon="7.081645"><ele>1082.0</ele><time>2026-05-03T13:41:47.273Z</time></trkpt><trkpt lat="44.3308883" lon="7.0818567"><ele>1079.0</ele><time>2026-05-03T13:41:48.274Z</time></trkpt><trkpt lat="44.3307733" lon="7.0820833"><ele>1079.0</ele><time>2026-05-03T13:41:49.273Z</time></trkpt><trkpt lat="44.33066" lon="7.0823167"><ele>1079.0</ele><time>2026-05-03T13:41:50.273Z</time></trkpt><trkpt lat="44.330555" lon="7.08254"><ele>1079.0</ele><time>2026-05-03T13:41:51.273Z</time></trkpt><trkpt lat="44.3304583" lon="7.082755"><ele>1077.3333333333335</ele><time>2026-05-03T13:41:52.273Z</time></trkpt><trkpt lat="44.3303733" lon="7.082955"><ele>1075.6666666666667</ele><time>2026-05-03T13:41:53.273Z</time></trkpt><trkpt lat="44.3302933" lon="7.0831533"><ele>1074.0</ele><time>2026-05-03T13:41:54.274Z</time></trkpt><trkpt lat="44.3302133" lon="7.0833433"><ele>1074.0</ele><time>2026-05-03T13:41:55.273Z</time></trkpt><trkpt lat="44.330125" lon="7.0835167"><ele>1074.0</ele><time>2026-05-03T13:41:56.273Z</time></trkpt><trkpt lat="44.3300233" lon="7.0837017"><ele>1074.0</ele><time>2026-05-03T13:41:57.274Z</time></trkpt><trkpt lat="44.3299183" lon="7.0838883"><ele>1074.0</ele><time>2026-05-03T13:41:58.273Z</time></trkpt><trkpt lat="44.3298" lon="7.0840683"><ele>1074.0</ele><time>2026-05-03T13:41:59.274Z</time></trkpt><trkpt lat="44.3296883" lon="7.0842483"><ele>1074.0</ele><time>2026-05-03T13:42:00.273Z</time></trkpt><trkpt lat="44.3295733" lon="7.08443"><ele>1072.0</ele><time>2026-05-03T13:42:01.273Z</time></trkpt><trkpt lat="44.32945" lon="7.0846"><ele>1070.0</ele><time>2026-05-03T13:42:02.273Z</time></trkpt><trkpt lat="44.3293317" lon="7.0847633"><ele>1068.0</ele><time>2026-05-03T13:42:03.273Z</time></trkpt><trkpt lat="44.3292033" lon="7.084925"><ele>1067.3333333333333</ele><time>2026-05-03T13:42:04.273Z</time></trkpt><trkpt lat="44.3290583" lon="7.0850917"><ele>1066.6666666666665</ele><time>2026-05-03T13:42:05.273Z</time></trkpt><trkpt lat="44.3289183" lon="7.0852567"><ele>1066.0</ele><time>2026-05-03T13:42:06.274Z</time></trkpt><trkpt lat="44.3287717" lon="7.085405"><ele>1066.0</ele><time>2026-05-03T13:42:07.273Z</time></trkpt><trkpt lat="44.3286267" lon="7.085545"><ele>1066.0</ele><time>2026-05-03T13:42:08.274Z</time></trkpt><trkpt lat="44.3284883" lon="7.0856967"><ele>1066.0</ele><time>2026-05-03T13:42:09.273Z</time></trkpt><trkpt lat="44.328345" lon="7.0858567"><ele>1065.6666666666665</ele><time>2026-05-03T13:42:10.273Z</time></trkpt><trkpt lat="44.3282067" lon="7.0860217"><ele>1065.3333333333333</ele><time>2026-05-03T13:42:11.273Z</time></trkpt><trkpt lat="44.3280583" lon="7.086175"><ele>1065.0</ele><time>2026-05-03T13:42:12.273Z</time></trkpt><trkpt lat="44.32793" lon="7.0863317"><ele>1065.0</ele><time>2026-05-03T13:42:13.273Z</time></trkpt><trkpt lat="44.3278033" lon="7.086495"><ele>1065.0</ele><time>2026-05-03T13:42:14.273Z</time></trkpt><trkpt lat="44.3276817" lon="7.0866567"><ele>1065.0</ele><time>2026-05-03T13:42:15.273Z</time></trkpt><trkpt lat="44.3275683" lon="7.0868217"><ele>1066.0</ele><time>2026-05-03T13:42:16.273Z</time></trkpt><trkpt lat="44.3274467" lon="7.086985"><ele>1067.0</ele><time>2026-05-03T13:42:17.273Z</time></trkpt><trkpt lat="44.3273117" lon="7.0871583"><ele>1068.0</ele><time>2026-05-03T13:42:18.273Z</time></trkpt><trkpt lat="44.3271783" lon="7.0873283"><ele>1064.6666666666667</ele><time>2026-05-03T13:42:19.274Z</time></trkpt><trkpt lat="44.327025" lon="7.087485"><ele>1061.3333333333335</ele><time>2026-05-03T13:42:20.273Z</time></trkpt><trkpt lat="44.3268433" lon="7.08765"><ele>1058.0</ele><time>2026-05-03T13:42:21.273Z</time></trkpt><trkpt lat="44.3266483" lon="7.08782"><ele>1058.0</ele><time>2026-05-03T13:42:22.274Z</time></trkpt><trkpt lat="44.3264417" lon="7.0879717"><ele>1058.0</ele><time>2026-05-03T13:42:23.273Z</time></trkpt><trkpt lat="44.3262417" lon="7.0881167"><ele>1058.3333333333335</ele><time>2026-05-03T13:42:24.273Z</time></trkpt><trkpt lat="44.326055" lon="7.088255"><ele>1058.6666666666667</ele><time>2026-05-03T13:42:25.273Z</time></trkpt><trkpt lat="44.325875" lon="7.0883917"><ele>1059.0</ele><time>2026-05-03T13:42:26.274Z</time></trkpt><trkpt lat="44.3257117" lon="7.08852"><ele>1057.6666666666667</ele><time>2026-05-03T13:42:27.273Z</time></trkpt><trkpt lat="44.3255567" lon="7.088635"><ele>1056.3333333333335</ele><time>2026-05-03T13:42:28.273Z</time></trkpt><trkpt lat="44.3254133" lon="7.0887267"><ele>1055.0</ele><time>2026-05-03T13:42:29.273Z</time></trkpt><trkpt lat="44.3252717" lon="7.0887933"><ele>1055.0</ele><time>2026-05-03T13:42:30.274Z</time></trkpt><trkpt lat="44.3251283" lon="7.0888317"><ele>1055.0</ele><time>2026-05-03T13:42:31.273Z</time></trkpt><trkpt lat="44.3249833" lon="7.08884"><ele>1055.0</ele><time>2026-05-03T13:42:32.273Z</time></trkpt><trkpt lat="44.3248433" lon="7.0888317"><ele>1055.0</ele><time>2026-05-03T13:42:33.273Z</time></trkpt><trkpt lat="44.3247067" lon="7.0888217"><ele>1055.25</ele><time>2026-05-03T13:42:34.273Z</time></trkpt><trkpt lat="44.3245783" lon="7.0888167"><ele>1055.5</ele><time>2026-05-03T13:42:35.273Z</time></trkpt><trkpt lat="44.3244483" lon="7.0888133"><ele>1055.75</ele><time>2026-05-03T13:42:36.274Z</time></trkpt><trkpt lat="44.32432" lon="7.088815"><ele>1056.0</ele><time>2026-05-03T13:42:37.273Z</time></trkpt><trkpt lat="44.3241933" lon="7.0888283"><ele>1056.0</ele><time>2026-05-03T13:42:38.273Z</time></trkpt><trkpt lat="44.32407" lon="7.0888617"><ele>1056.0</ele><time>2026-05-03T13:42:39.273Z</time></trkpt><trkpt lat="44.3239583" lon="7.0889367"><ele>1056.0</ele><time>2026-05-03T13:42:40.273Z</time></trkpt><trkpt lat="44.3238633" lon="7.089035"><ele>1056.0</ele><time>2026-05-03T13:42:41.274Z</time></trkpt><trkpt lat="44.32378" lon="7.0891767"><ele>1056.0</ele><time>2026-05-03T13:42:42.273Z</time></trkpt><trkpt lat="44.3237017" lon="7.089365"><ele>1056.0</ele><time>2026-05-03T13:42:43.273Z</time></trkpt><trkpt lat="44.323615" lon="7.0895783"><ele>1056.0</ele><time>2026-05-03T13:42:44.273Z</time></trkpt><trkpt lat="44.323505" lon="7.0897883"><ele>1055.6666666666667</ele><time>2026-05-03T13:42:45.275Z</time></trkpt><trkpt lat="44.323385" lon="7.0899817"><ele>1055.3333333333335</ele><time>2026-05-03T13:42:46.274Z</time></trkpt><trkpt lat="44.3232817" lon="7.0901717"><ele>1055.0</ele><time>2026-05-03T13:42:47.274Z</time></trkpt><trkpt lat="44.3231933" lon="7.090355"><ele>1055.0</ele><time>2026-05-03T13:42:48.274Z</time></trkpt><trkpt lat="44.3230933" lon="7.0905233"><ele>1055.0</ele><time>2026-05-03T13:42:49.274Z</time></trkpt><trkpt lat="44.3229867" lon="7.0906767"><ele>1055.0</ele><time>2026-05-03T13:42:50.274Z</time></trkpt><trkpt lat="44.3228767" lon="7.0908133"><ele>1054.0</ele><time>2026-05-03T13:42:51.274Z</time></trkpt><trkpt lat="44.3227717" lon="7.0909433"><ele>1053.0</ele><time>2026-05-03T13:42:52.274Z</time></trkpt><trkpt lat="44.322665" lon="7.0910417"><ele>1052.0</ele><time>2026-05-03T13:42:53.274Z</time></trkpt><trkpt lat="44.32256" lon="7.0911317"><ele>1051.0</ele><time>2026-05-03T13:42:54.274Z</time></trkpt><trkpt lat="44.3224683" lon="7.0912317"><ele>1051.0</ele><time>2026-05-03T13:42:55.274Z</time></trkpt><trkpt lat="44.3223983" lon="7.0913567"><ele>1051.0</ele><time>2026-05-03T13:42:56.275Z</time></trkpt><trkpt lat="44.322345" lon="7.0915"><ele>1051.0</ele><time>2026-05-03T13:42:57.274Z</time></trkpt><trkpt lat="44.322305" lon="7.0916583"><ele>1051.0</ele><time>2026-05-03T13:42:58.275Z</time></trkpt><trkpt lat="44.3222533" lon="7.0918333"><ele>1052.3333333333333</ele><time>2026-05-03T13:42:59.275Z</time></trkpt><trkpt lat="44.3221917" lon="7.092035"><ele>1053.6666666666667</ele><time>2026-05-03T13:43:00.275Z</time></trkpt><trkpt lat="44.3221283" lon="7.09223"><ele>1055.0</ele><time>2026-05-03T13:43:01.274Z</time></trkpt><trkpt lat="44.3220567" lon="7.0924183"><ele>1051.25</ele><time>2026-05-03T13:43:02.274Z</time></trkpt><trkpt lat="44.3219767" lon="7.09258"><ele>1047.5</ele><time>2026-05-03T13:43:03.274Z</time></trkpt><trkpt lat="44.321895" lon="7.0927283"><ele>1043.75</ele><time>2026-05-03T13:43:04.274Z</time></trkpt><trkpt lat="44.321815" lon="7.0928717"><ele>1040.0</ele><time>2026-05-03T13:43:05.274Z</time></trkpt><trkpt lat="44.3217367" lon="7.093015"><ele>1040.0</ele><time>2026-05-03T13:43:06.275Z</time></trkpt><trkpt lat="44.3216567" lon="7.0931783"><ele>1040.0</ele><time>2026-05-03T13:43:07.274Z</time></trkpt><trkpt lat="44.3215783" lon="7.093335"><ele>1040.0</ele><time>2026-05-03T13:43:08.274Z</time></trkpt><trkpt lat="44.321485" lon="7.0934933"><ele>1040.0</ele><time>2026-05-03T13:43:09.274Z</time></trkpt><trkpt lat="44.3213917" lon="7.09367"><ele>1039.0</ele><time>2026-05-03T13:43:10.274Z</time></trkpt><trkpt lat="44.321295" lon="7.0938533"><ele>1038.0</ele><time>2026-05-03T13:43:11.274Z</time></trkpt><trkpt lat="44.3212083" lon="7.0940333"><ele>1037.0</ele><time>2026-05-03T13:43:12.274Z</time></trkpt><trkpt lat="44.3211117" lon="7.0942117"><ele>1037.0</ele><time>2026-05-03T13:43:13.274Z</time></trkpt><trkpt lat="44.3210017" lon="7.0944067"><ele>1037.0</ele><time>2026-05-03T13:43:14.274Z</time></trkpt><trkpt lat="44.3208867" lon="7.0945933"><ele>1037.0</ele><time>2026-05-03T13:43:15.275Z</time></trkpt><trkpt lat="44.3207617" lon="7.0947717"><ele>1036.3333333333335</ele><time>2026-05-03T13:43:16.274Z</time></trkpt><trkpt lat="44.320615" lon="7.0949517"><ele>1035.6666666666667</ele><time>2026-05-03T13:43:17.275Z</time></trkpt><trkpt lat="44.320465" lon="7.0951383"><ele>1035.0</ele><time>2026-05-03T13:43:18.274Z</time></trkpt><trkpt lat="44.3202917" lon="7.09532"><ele>1035.0</ele><time>2026-05-03T13:43:19.274Z</time></trkpt><trkpt lat="44.320105" lon="7.0955167"><ele>1035.0</ele><time>2026-05-03T13:43:20.274Z</time></trkpt><trkpt lat="44.3198967" lon="7.0957267"><ele>1036.5</ele><time>2026-05-03T13:43:21.274Z</time></trkpt><trkpt lat="44.3196717" lon="7.0959467"><ele>1038.0</ele><time>2026-05-03T13:43:22.274Z</time></trkpt><trkpt lat="44.3194367" lon="7.09617"><ele>1038.0</ele><time>2026-05-03T13:43:23.274Z</time></trkpt><trkpt lat="44.3192217" lon="7.096385"><ele>1038.0</ele><time>2026-05-03T13:43:24.274Z</time></trkpt><trkpt lat="44.3190033" lon="7.0965917"><ele>1034.0</ele><time>2026-05-03T13:43:25.274Z</time></trkpt><trkpt lat="44.3187967" lon="7.096785"><ele>1030.0</ele><time>2026-05-03T13:43:26.274Z</time></trkpt><trkpt lat="44.3185883" lon="7.0969683"><ele>1030.0</ele><time>2026-05-03T13:43:27.274Z</time></trkpt><trkpt lat="44.3183967" lon="7.0971533"><ele>1030.0</ele><time>2026-05-03T13:43:28.274Z</time></trkpt><trkpt lat="44.318215" lon="7.097325"><ele>1028.3333333333333</ele><time>2026-05-03T13:43:29.274Z</time></trkpt><trkpt lat="44.31805" lon="7.0974933"><ele>1026.6666666666667</ele><time>2026-05-03T13:43:30.275Z</time></trkpt><trkpt lat="44.31789" lon="7.0976717"><ele>1025.0</ele><time>2026-05-03T13:43:31.274Z</time></trkpt><trkpt lat="44.3177367" lon="7.09787"><ele>1025.0</ele><time>2026-05-03T13:43:32.274Z</time></trkpt><trkpt lat="44.3175917" lon="7.0980733"><ele>1025.0</ele><time>2026-05-03T13:43:33.274Z</time></trkpt><trkpt lat="44.3174483" lon="7.09827"><ele>1025.0</ele><time>2026-05-03T13:43:34.274Z</time></trkpt><trkpt lat="44.3173083" lon="7.0984633"><ele>1026.0</ele><time>2026-05-03T13:43:35.274Z</time></trkpt><trkpt lat="44.3171717" lon="7.0986683"><ele>1027.0</ele><time>2026-05-03T13:43:36.274Z</time></trkpt><trkpt lat="44.3170267" lon="7.0988783"><ele>1028.0</ele><time>2026-05-03T13:43:37.274Z</time></trkpt><trkpt lat="44.3165533" lon="7.0995133"><ele>1028.0</ele><time>2026-05-03T13:43:40.275Z</time></trkpt><trkpt lat="44.3164617" lon="7.0996983"><ele>1028.0</ele><time>2026-05-03T13:43:41.275Z</time></trkpt><trkpt lat="44.3163317" lon="7.0998867"><ele>1028.0</ele><time>2026-05-03T13:43:42.275Z</time></trkpt><trkpt lat="44.3161917" lon="7.1000633"><ele>1026.3333333333335</ele><time>2026-05-03T13:43:43.275Z</time></trkpt><trkpt lat="44.3160633" lon="7.1002517"><ele>1024.6666666666667</ele><time>2026-05-03T13:43:44.275Z</time></trkpt><trkpt lat="44.3159283" lon="7.10045"><ele>1023.0</ele><time>2026-05-03T13:43:45.276Z</time></trkpt><trkpt lat="44.315795" lon="7.1006417"><ele>1023.3333333333333</ele><time>2026-05-03T13:43:46.276Z</time></trkpt><trkpt lat="44.31566" lon="7.1008317"><ele>1023.6666666666666</ele><time>2026-05-03T13:43:47.275Z</time></trkpt><trkpt lat="44.3155233" lon="7.1010217"><ele>1024.0</ele><time>2026-05-03T13:43:48.275Z</time></trkpt><trkpt lat="44.315375" lon="7.1012083"><ele>1024.0</ele><time>2026-05-03T13:43:49.275Z</time></trkpt><trkpt lat="44.3152267" lon="7.1014"><ele>1024.0</ele><time>2026-05-03T13:43:50.275Z</time></trkpt><trkpt lat="44.3150683" lon="7.10156"><ele>1024.0</ele><time>2026-05-03T13:43:51.275Z</time></trkpt><trkpt lat="44.31484" lon="7.101615"><ele>1027.6666666666665</ele><time>2026-05-03T13:43:52.275Z</time></trkpt><trkpt lat="44.3146633" lon="7.1017033"><ele>1031.3333333333333</ele><time>2026-05-03T13:43:53.276Z</time></trkpt><trkpt lat="44.314475" lon="7.1017833"><ele>1035.0</ele><time>2026-05-03T13:43:54.275Z</time></trkpt><trkpt lat="44.31428" lon="7.10187"><ele>1035.0</ele><time>2026-05-03T13:43:55.275Z</time></trkpt><trkpt lat="44.314085" lon="7.101965"><ele>1035.0</ele><time>2026-05-03T13:43:56.276Z</time></trkpt><trkpt lat="44.3139017" lon="7.1020983"><ele>1035.0</ele><time>2026-05-03T13:43:57.275Z</time></trkpt><trkpt lat="44.3137383" lon="7.1022533"><ele>1034.6666666666667</ele><time>2026-05-03T13:43:58.276Z</time></trkpt><trkpt lat="44.31359" lon="7.10244"><ele>1034.3333333333335</ele><time>2026-05-03T13:43:59.275Z</time></trkpt><trkpt lat="44.3134467" lon="7.1026533"><ele>1034.0</ele><time>2026-05-03T13:44:00.275Z</time></trkpt><trkpt lat="44.3132867" lon="7.10288"><ele>1034.0</ele><time>2026-05-03T13:44:01.275Z</time></trkpt><trkpt lat="44.31313" lon="7.1031"><ele>1034.0</ele><time>2026-05-03T13:44:02.275Z</time></trkpt><trkpt lat="44.312955" lon="7.1033167"><ele>1023.5</ele><time>2026-05-03T13:44:03.275Z</time></trkpt><trkpt lat="44.312775" lon="7.10348"><ele>1013.0</ele><time>2026-05-03T13:44:04.275Z</time></trkpt><trkpt lat="44.3125683" lon="7.1036467"><ele>1013.0</ele><time>2026-05-03T13:44:05.276Z</time></trkpt><trkpt lat="44.3123633" lon="7.1037833"><ele>1013.0</ele><time>2026-05-03T13:44:06.275Z</time></trkpt><trkpt lat="44.3121667" lon="7.1039417"><ele>1016.0</ele><time>2026-05-03T13:44:07.275Z</time></trkpt><trkpt lat="44.3119733" lon="7.1041217"><ele>1019.0</ele><time>2026-05-03T13:44:08.275Z</time></trkpt><trkpt lat="44.3117767" lon="7.104325"><ele>1019.0</ele><time>2026-05-03T13:44:09.275Z</time></trkpt><trkpt lat="44.3115933" lon="7.1045383"><ele>1019.0</ele><time>2026-05-03T13:44:10.275Z</time></trkpt><trkpt lat="44.311405" lon="7.1047567"><ele>1013.0</ele><time>2026-05-03T13:44:11.275Z</time></trkpt><trkpt lat="44.311215" lon="7.1049683"><ele>1007.0</ele><time>2026-05-03T13:44:12.275Z</time></trkpt><trkpt lat="44.31104" lon="7.1052017"><ele>1007.0</ele><time>2026-05-03T13:44:13.275Z</time></trkpt><trkpt lat="44.3108517" lon="7.1054217"><ele>1007.0</ele><time>2026-05-03T13:44:14.275Z</time></trkpt><trkpt lat="44.3106567" lon="7.1056333"><ele>1005.0</ele><time>2026-05-03T13:44:15.275Z</time></trkpt><trkpt lat="44.3104733" lon="7.105825"><ele>1003.0</ele><time>2026-05-03T13:44:16.275Z</time></trkpt><trkpt lat="44.310285" lon="7.1059817"><ele>1001.0</ele><time>2026-05-03T13:44:17.275Z</time></trkpt><trkpt lat="44.3100883" lon="7.1061433"><ele>1001.0</ele><time>2026-05-03T13:44:18.275Z</time></trkpt><trkpt lat="44.3099067" lon="7.106315"><ele>1001.0</ele><time>2026-05-03T13:44:19.275Z</time></trkpt><trkpt lat="44.3097283" lon="7.106505"><ele>1001.0</ele><time>2026-05-03T13:44:20.275Z</time></trkpt><trkpt lat="44.3095567" lon="7.106705"><ele>999.0</ele><time>2026-05-03T13:44:21.275Z</time></trkpt><trkpt lat="44.30939" lon="7.106905"><ele>997.0</ele><time>2026-05-03T13:44:22.275Z</time></trkpt><trkpt lat="44.3092167" lon="7.107115"><ele>995.0</ele><time>2026-05-03T13:44:23.275Z</time></trkpt><trkpt lat="44.3090583" lon="7.10735"><ele>991.5</ele><time>2026-05-03T13:44:24.275Z</time></trkpt><trkpt lat="44.3089183" lon="7.1075967"><ele>988.0</ele><time>2026-05-03T13:44:25.275Z</time></trkpt><trkpt lat="44.3087567" lon="7.1078433"><ele>988.0</ele><time>2026-05-03T13:44:26.275Z</time></trkpt><trkpt lat="44.3085717" lon="7.1080783"><ele>988.0</ele><time>2026-05-03T13:44:27.275Z</time></trkpt><trkpt lat="44.30837" lon="7.10828"><ele>987.0</ele><time>2026-05-03T13:44:28.276Z</time></trkpt><trkpt lat="44.3081817" lon="7.1084833"><ele>986.0</ele><time>2026-05-03T13:44:29.275Z</time></trkpt><trkpt lat="44.3079817" lon="7.108685"><ele>986.0</ele><time>2026-05-03T13:44:30.275Z</time></trkpt><trkpt lat="44.30778" lon="7.1088783"><ele>986.0</ele><time>2026-05-03T13:44:31.275Z</time></trkpt><trkpt lat="44.307565" lon="7.1090883"><ele>985.0</ele><time>2026-05-03T13:44:32.275Z</time></trkpt><trkpt lat="44.30737" lon="7.1092833"><ele>984.0</ele><time>2026-05-03T13:44:33.275Z</time></trkpt><trkpt lat="44.3071617" lon="7.1095233"><ele>984.0</ele><time>2026-05-03T13:44:34.276Z</time></trkpt><trkpt lat="44.3069533" lon="7.1097817"><ele>984.0</ele><time>2026-05-03T13:44:35.275Z</time></trkpt><trkpt lat="44.3067383" lon="7.110015"><ele>980.5</ele><time>2026-05-03T13:44:36.275Z</time></trkpt><trkpt lat="44.3065317" lon="7.1102383"><ele>977.0</ele><time>2026-05-03T13:44:37.275Z</time></trkpt><trkpt lat="44.3063217" lon="7.11046"><ele>977.0</ele><time>2026-05-03T13:44:38.275Z</time></trkpt><trkpt lat="44.3061183" lon="7.110675"><ele>977.0</ele><time>2026-05-03T13:44:39.276Z</time></trkpt><trkpt lat="44.30591" lon="7.1108833"><ele>976.5</ele><time>2026-05-03T13:44:40.275Z</time></trkpt><trkpt lat="44.3056983" lon="7.1110967"><ele>976.0</ele><time>2026-05-03T13:44:41.275Z</time></trkpt><trkpt lat="44.3054883" lon="7.11131"><ele>975.5</ele><time>2026-05-03T13:44:42.275Z</time></trkpt><trkpt lat="44.3052817" lon="7.11153"><ele>975.0</ele><time>2026-05-03T13:44:43.275Z</time></trkpt><trkpt lat="44.3050667" lon="7.1117333"><ele>975.0</ele><time>2026-05-03T13:44:44.275Z</time></trkpt><trkpt lat="44.3048567" lon="7.1119383"><ele>975.0</ele><time>2026-05-03T13:44:45.275Z</time></trkpt><trkpt lat="44.30465" lon="7.1121367"><ele>973.5</ele><time>2026-05-03T13:44:46.275Z</time></trkpt><trkpt lat="44.3044533" lon="7.1123283"><ele>972.0</ele><time>2026-05-03T13:44:47.276Z</time></trkpt><trkpt lat="44.30427" lon="7.1125083"><ele>972.0</ele><time>2026-05-03T13:44:48.275Z</time></trkpt><trkpt lat="44.3040983" lon="7.1126867"><ele>972.0</ele><time>2026-05-03T13:44:49.275Z</time></trkpt><trkpt lat="44.303925" lon="7.1128583"><ele>972.0</ele><time>2026-05-03T13:44:50.275Z</time></trkpt><trkpt lat="44.3037667" lon="7.1130517"><ele>971.3333333333333</ele><time>2026-05-03T13:44:51.275Z</time></trkpt><trkpt lat="44.3036383" lon="7.1132533"><ele>970.6666666666666</ele><time>2026-05-03T13:44:52.275Z</time></trkpt><trkpt lat="44.3035367" lon="7.11348"><ele>970.0</ele><time>2026-05-03T13:44:53.275Z</time></trkpt><trkpt lat="44.30344" lon="7.1137033"><ele>970.0</ele><time>2026-05-03T13:44:54.276Z</time></trkpt><trkpt lat="44.3033417" lon="7.1139083"><ele>970.0</ele><time>2026-05-03T13:44:55.275Z</time></trkpt><trkpt lat="44.3032367" lon="7.114085"><ele>970.0</ele><time>2026-05-03T13:44:56.275Z</time></trkpt><trkpt lat="44.3031317" lon="7.1142333"><ele>969.0</ele><time>2026-05-03T13:44:57.275Z</time></trkpt><trkpt lat="44.303035" lon="7.1143617"><ele>968.0</ele><time>2026-05-03T13:44:58.275Z</time></trkpt><trkpt lat="44.30295" lon="7.1144867"><ele>967.0</ele><time>2026-05-03T13:44:59.275Z</time></trkpt><trkpt lat="44.3028983" lon="7.1146167"><ele>966.0</ele><time>2026-05-03T13:45:00.275Z</time></trkpt><trkpt lat="44.3028683" lon="7.11476"><ele>964.5</ele><time>2026-05-03T13:45:01.275Z</time></trkpt><trkpt lat="44.3028633" lon="7.1149117"><ele>963.0</ele><time>2026-05-03T13:45:02.275Z</time></trkpt><trkpt lat="44.3028683" lon="7.1150867"><ele>961.5</ele><time>2026-05-03T13:45:03.275Z</time></trkpt><trkpt lat="44.3028767" lon="7.115285"><ele>960.0</ele><time>2026-05-03T13:45:04.275Z</time></trkpt><trkpt lat="44.30287" lon="7.1154883"><ele>960.0</ele><time>2026-05-03T13:45:05.275Z</time></trkpt><trkpt lat="44.302845" lon="7.1156917"><ele>960.0</ele><time>2026-05-03T13:45:06.276Z</time></trkpt><trkpt lat="44.3027917" lon="7.1158883"><ele>960.0</ele><time>2026-05-03T13:45:07.275Z</time></trkpt><trkpt lat="44.3027317" lon="7.1160783"><ele>960.0</ele><time>2026-05-03T13:45:08.276Z</time></trkpt><trkpt lat="44.302655" lon="7.11626"><ele>960.0</ele><time>2026-05-03T13:45:09.275Z</time></trkpt><trkpt lat="44.3025633" lon="7.1164483"><ele>960.0</ele><time>2026-05-03T13:45:10.275Z</time></trkpt><trkpt lat="44.3024583" lon="7.11663"><ele>960.0</ele><time>2026-05-03T13:45:11.275Z</time></trkpt><trkpt lat="44.3023483" lon="7.1168167"><ele>959.0</ele><time>2026-05-03T13:45:12.275Z</time></trkpt><trkpt lat="44.3022317" lon="7.117015"><ele>958.0</ele><time>2026-05-03T13:45:13.275Z</time></trkpt><trkpt lat="44.3021067" lon="7.1172167"><ele>957.0</ele><time>2026-05-03T13:45:14.275Z</time></trkpt><trkpt lat="44.301975" lon="7.1174233"><ele>957.0</ele><time>2026-05-03T13:45:15.275Z</time></trkpt><trkpt lat="44.3018483" lon="7.117635"><ele>957.0</ele><time>2026-05-03T13:45:16.275Z</time></trkpt><trkpt lat="44.301725" lon="7.1178417"><ele>957.0</ele><time>2026-05-03T13:45:17.276Z</time></trkpt><trkpt lat="44.3016033" lon="7.1180483"><ele>960.3333333333333</ele><time>2026-05-03T13:45:18.275Z</time></trkpt><trkpt lat="44.30149" lon="7.1182567"><ele>963.6666666666666</ele><time>2026-05-03T13:45:19.275Z</time></trkpt><trkpt lat="44.3013733" lon="7.1184583"><ele>967.0</ele><time>2026-05-03T13:45:20.275Z</time></trkpt><trkpt lat="44.3012833" lon="7.11865"><ele>967.6666666666666</ele><time>2026-05-03T13:45:21.275Z</time></trkpt><trkpt lat="44.3012183" lon="7.118865"><ele>968.3333333333333</ele><time>2026-05-03T13:45:22.275Z</time></trkpt><trkpt lat="44.3011817" lon="7.1190933"><ele>969.0</ele><time>2026-05-03T13:45:23.275Z</time></trkpt><trkpt lat="44.3011817" lon="7.1193367"><ele>969.3333333333333</ele><time>2026-05-03T13:45:24.275Z</time></trkpt><trkpt lat="44.30121" lon="7.1195867"><ele>969.6666666666666</ele><time>2026-05-03T13:45:25.276Z</time></trkpt><trkpt lat="44.30125" lon="7.11983"><ele>970.0</ele><time>2026-05-03T13:45:26.275Z</time></trkpt><trkpt lat="44.3013" lon="7.1200883"><ele>969.0</ele><time>2026-05-03T13:45:27.276Z</time></trkpt><trkpt lat="44.3013283" lon="7.1203633"><ele>968.0</ele><time>2026-05-03T13:45:28.275Z</time></trkpt><trkpt lat="44.30134" lon="7.1206233"><ele>967.0</ele><time>2026-05-03T13:45:29.275Z</time></trkpt><trkpt lat="44.3013083" lon="7.1208667"><ele>963.0</ele><time>2026-05-03T13:45:30.275Z</time></trkpt><trkpt lat="44.301235" lon="7.1210867"><ele>959.0</ele><time>2026-05-03T13:45:31.275Z</time></trkpt><trkpt lat="44.30113" lon="7.1212833"><ele>955.0</ele><time>2026-05-03T13:45:32.275Z</time></trkpt><trkpt lat="44.3009817" lon="7.1214717"><ele>955.6666666666666</ele><time>2026-05-03T13:45:33.275Z</time></trkpt><trkpt lat="44.300825" lon="7.1216183"><ele>956.3333333333333</ele><time>2026-05-03T13:45:34.275Z</time></trkpt><trkpt lat="44.300685" lon="7.12176"><ele>957.0</ele><time>2026-05-03T13:45:35.275Z</time></trkpt><trkpt lat="44.300545" lon="7.12191"><ele>959.6666666666667</ele><time>2026-05-03T13:45:36.276Z</time></trkpt><trkpt lat="44.30042" lon="7.12206"><ele>962.3333333333334</ele><time>2026-05-03T13:45:37.276Z</time></trkpt><trkpt lat="44.3003133" lon="7.1222117"><ele>965.0</ele><time>2026-05-03T13:45:38.275Z</time></trkpt><trkpt lat="44.3002383" lon="7.1223833"><ele>961.25</ele><time>2026-05-03T13:45:39.275Z</time></trkpt><trkpt lat="44.3001733" lon="7.12257"><ele>957.5</ele><time>2026-05-03T13:45:40.275Z</time></trkpt><trkpt lat="44.300115" lon="7.1227467"><ele>953.75</ele><time>2026-05-03T13:45:41.275Z</time></trkpt><trkpt lat="44.30006" lon="7.122925"><ele>950.0</ele><time>2026-05-03T13:45:42.275Z</time></trkpt><trkpt lat="44.3000167" lon="7.1230817"><ele>949.6</ele><time>2026-05-03T13:45:43.275Z</time></trkpt><trkpt lat="44.2999717" lon="7.1232317"><ele>949.2</ele><time>2026-05-03T13:45:44.275Z</time></trkpt><trkpt lat="44.2999483" lon="7.1233633"><ele>948.8</ele><time>2026-05-03T13:45:45.275Z</time></trkpt><trkpt lat="44.2999317" lon="7.1234817"><ele>948.4</ele><time>2026-05-03T13:45:46.275Z</time></trkpt><trkpt lat="44.299945" lon="7.1236117"><ele>948.0</ele><time>2026-05-03T13:45:47.275Z</time></trkpt><trkpt lat="44.2999967" lon="7.1237583"><ele>948.0</ele><time>2026-05-03T13:45:48.275Z</time></trkpt><trkpt lat="44.300065" lon="7.12391"><ele>948.0</ele><time>2026-05-03T13:45:49.275Z</time></trkpt><trkpt lat="44.3001267" lon="7.12402"><ele>948.0</ele><time>2026-05-03T13:45:50.275Z</time></trkpt><trkpt lat="44.3002033" lon="7.12421"><ele>948.0</ele><time>2026-05-03T13:45:51.275Z</time></trkpt><trkpt lat="44.3002717" lon="7.124425"><ele>946.3333333333333</ele><time>2026-05-03T13:45:52.275Z</time></trkpt><trkpt lat="44.3003467" lon="7.1246467"><ele>944.6666666666666</ele><time>2026-05-03T13:45:53.275Z</time></trkpt><trkpt lat="44.3004083" lon="7.12486"><ele>943.0</ele><time>2026-05-03T13:45:54.276Z</time></trkpt><trkpt lat="44.300465" lon="7.125065"><ele>942.0</ele><time>2026-05-03T13:45:55.275Z</time></trkpt><trkpt lat="44.3005117" lon="7.1252583"><ele>941.0</ele><time>2026-05-03T13:45:56.275Z</time></trkpt><trkpt lat="44.3005517" lon="7.1254517"><ele>940.0</ele><time>2026-05-03T13:45:57.275Z</time></trkpt><trkpt lat="44.30059" lon="7.1256533"><ele>939.0</ele><time>2026-05-03T13:45:58.275Z</time></trkpt><trkpt lat="44.300615" lon="7.125845"><ele>942.5</ele><time>2026-05-03T13:45:59.275Z</time></trkpt><trkpt lat="44.3006383" lon="7.12604"><ele>946.0</ele><time>2026-05-03T13:46:00.275Z</time></trkpt><trkpt lat="44.3006683" lon="7.1262383"><ele>949.5</ele><time>2026-05-03T13:46:01.275Z</time></trkpt><trkpt lat="44.3006933" lon="7.1264233"><ele>953.0</ele><time>2026-05-03T13:46:02.275Z</time></trkpt><trkpt lat="44.300715" lon="7.1266033"><ele>953.0</ele><time>2026-05-03T13:46:03.275Z</time></trkpt><trkpt lat="44.3007283" lon="7.1267733"><ele>953.0</ele><time>2026-05-03T13:46:04.275Z</time></trkpt><trkpt lat="44.3007383" lon="7.126955"><ele>953.0</ele><time>2026-05-03T13:46:05.275Z</time></trkpt><trkpt lat="44.300745" lon="7.1271367"><ele>953.0</ele><time>2026-05-03T13:46:06.275Z</time></trkpt><trkpt lat="44.3007467" lon="7.1273117"><ele>953.25</ele><time>2026-05-03T13:46:07.275Z</time></trkpt><trkpt lat="44.3007417" lon="7.1275"><ele>953.5</ele><time>2026-05-03T13:46:08.275Z</time></trkpt><trkpt lat="44.30074" lon="7.1276967"><ele>953.75</ele><time>2026-05-03T13:46:09.275Z</time></trkpt><trkpt lat="44.3007333" lon="7.1279083"><ele>954.0</ele><time>2026-05-03T13:46:10.275Z</time></trkpt><trkpt lat="44.3006717" lon="7.1280433"><ele>946.3333333333333</ele><time>2026-05-03T13:46:11.275Z</time></trkpt><trkpt lat="44.30054" lon="7.1282167"><ele>938.6666666666666</ele><time>2026-05-03T13:46:12.275Z</time></trkpt><trkpt lat="44.3004267" lon="7.12843"><ele>931.0</ele><time>2026-05-03T13:46:13.276Z</time></trkpt><trkpt lat="44.3003733" lon="7.1286633"><ele>929.0</ele><time>2026-05-03T13:46:14.275Z</time></trkpt><trkpt lat="44.3003483" lon="7.1289283"><ele>927.0</ele><time>2026-05-03T13:46:15.275Z</time></trkpt><trkpt lat="44.300355" lon="7.1292417"><ele>925.0</ele><time>2026-05-03T13:46:16.275Z</time></trkpt><trkpt lat="44.3003417" lon="7.1295517"><ele>925.0</ele><time>2026-05-03T13:46:17.275Z</time></trkpt><trkpt lat="44.3003283" lon="7.129865"><ele>925.0</ele><time>2026-05-03T13:46:18.275Z</time></trkpt><trkpt lat="44.3003117" lon="7.13017"><ele>925.0</ele><time>2026-05-03T13:46:19.275Z</time></trkpt><trkpt lat="44.300305" lon="7.1304533"><ele>923.0</ele><time>2026-05-03T13:46:20.275Z</time></trkpt><trkpt lat="44.3002983" lon="7.1307333"><ele>921.0</ele><time>2026-05-03T13:46:21.275Z</time></trkpt><trkpt lat="44.3003" lon="7.1310133"><ele>919.0</ele><time>2026-05-03T13:46:22.276Z</time></trkpt><trkpt lat="44.3003" lon="7.1313033"><ele>918.6666666666666</ele><time>2026-05-03T13:46:23.275Z</time></trkpt><trkpt lat="44.3002917" lon="7.13159"><ele>918.3333333333333</ele><time>2026-05-03T13:46:24.275Z</time></trkpt><trkpt lat="44.3002817" lon="7.1318733"><ele>918.0</ele><time>2026-05-03T13:46:25.275Z</time></trkpt><trkpt lat="44.300275" lon="7.13215"><ele>918.3333333333333</ele><time>2026-05-03T13:46:26.275Z</time></trkpt><trkpt lat="44.3002683" lon="7.132435"><ele>918.6666666666666</ele><time>2026-05-03T13:46:27.276Z</time></trkpt><trkpt lat="44.30027" lon="7.1327333"><ele>919.0</ele><time>2026-05-03T13:46:28.275Z</time></trkpt><trkpt lat="44.3002683" lon="7.1330367"><ele>920.0</ele><time>2026-05-03T13:46:29.276Z</time></trkpt><trkpt lat="44.3002517" lon="7.133345"><ele>921.0</ele><time>2026-05-03T13:46:30.276Z</time></trkpt><trkpt lat="44.3002317" lon="7.133665"><ele>921.0</ele><time>2026-05-03T13:46:31.275Z</time></trkpt><trkpt lat="44.3002017" lon="7.1339783"><ele>921.0</ele><time>2026-05-03T13:46:32.276Z</time></trkpt><trkpt lat="44.300155" lon="7.1342933"><ele>921.5</ele><time>2026-05-03T13:46:33.275Z</time></trkpt><trkpt lat="44.300125" lon="7.1346083"><ele>922.0</ele><time>2026-05-03T13:46:34.275Z</time></trkpt><trkpt lat="44.3000867" lon="7.1349283"><ele>921.0</ele><time>2026-05-03T13:46:35.275Z</time></trkpt><trkpt lat="44.3000533" lon="7.1352483"><ele>920.0</ele><time>2026-05-03T13:46:36.276Z</time></trkpt><trkpt lat="44.30002" lon="7.1355767"><ele>919.0</ele><time>2026-05-03T13:46:37.276Z</time></trkpt><trkpt lat="44.2999867" lon="7.1359017"><ele>918.0</ele><time>2026-05-03T13:46:38.275Z</time></trkpt><trkpt lat="44.2999467" lon="7.1362233"><ele>918.0</ele><time>2026-05-03T13:46:39.275Z</time></trkpt><trkpt lat="44.2999083" lon="7.1365433"><ele>918.0</ele><time>2026-05-03T13:46:40.275Z</time></trkpt><trkpt lat="44.299865" lon="7.1368683"><ele>919.0</ele><time>2026-05-03T13:46:41.275Z</time></trkpt><trkpt lat="44.2998133" lon="7.1371917"><ele>920.0</ele><time>2026-05-03T13:46:42.275Z</time></trkpt><trkpt lat="44.2997817" lon="7.1375117"><ele>915.0</ele><time>2026-05-03T13:46:43.275Z</time></trkpt><trkpt lat="44.299745" lon="7.1378383"><ele>910.0</ele><time>2026-05-03T13:46:44.275Z</time></trkpt><trkpt lat="44.2997067" lon="7.1381633"><ele>909.0</ele><time>2026-05-03T13:46:45.275Z</time></trkpt><trkpt lat="44.2996667" lon="7.1384733"><ele>908.0</ele><time>2026-05-03T13:46:46.275Z</time></trkpt><trkpt lat="44.2996283" lon="7.1387867"><ele>908.0</ele><time>2026-05-03T13:46:47.275Z</time></trkpt><trkpt lat="44.2995867" lon="7.1390917"><ele>908.0</ele><time>2026-05-03T13:46:48.275Z</time></trkpt><trkpt lat="44.2995483" lon="7.1393983"><ele>908.0</ele><time>2026-05-03T13:46:49.275Z</time></trkpt><trkpt lat="44.2995167" lon="7.1396983"><ele>908.6666666666667</ele><time>2026-05-03T13:46:50.275Z</time></trkpt><trkpt lat="44.2994833" lon="7.1399933"><ele>909.3333333333333</ele><time>2026-05-03T13:46:51.275Z</time></trkpt><trkpt lat="44.2994517" lon="7.1402833"><ele>910.0</ele><time>2026-05-03T13:46:52.275Z</time></trkpt><trkpt lat="44.2994333" lon="7.1405717"><ele>909.6666666666666</ele><time>2026-05-03T13:46:53.275Z</time></trkpt><trkpt lat="44.2994417" lon="7.1408583"><ele>909.3333333333333</ele><time>2026-05-03T13:46:54.275Z</time></trkpt><trkpt lat="44.299485" lon="7.1411383"><ele>909.0</ele><time>2026-05-03T13:46:55.275Z</time></trkpt><trkpt lat="44.2995633" lon="7.1414"><ele>908.3333333333333</ele><time>2026-05-03T13:46:56.275Z</time></trkpt><trkpt lat="44.2996617" lon="7.14164"><ele>907.6666666666666</ele><time>2026-05-03T13:46:57.275Z</time></trkpt><trkpt lat="44.2997783" lon="7.1418617"><ele>907.0</ele><time>2026-05-03T13:46:58.275Z</time></trkpt><trkpt lat="44.29991" lon="7.1420433"><ele>906.3333333333333</ele><time>2026-05-03T13:46:59.275Z</time></trkpt><trkpt lat="44.3000517" lon="7.1422067"><ele>905.6666666666667</ele><time>2026-05-03T13:47:00.276Z</time></trkpt><trkpt lat="44.30019" lon="7.1423467"><ele>905.0</ele><time>2026-05-03T13:47:01.275Z</time></trkpt><trkpt lat="44.3003283" lon="7.14247"><ele>905.0</ele><time>2026-05-03T13:47:02.275Z</time></trkpt><trkpt lat="44.3004583" lon="7.14261"><ele>905.0</ele><time>2026-05-03T13:47:03.275Z</time></trkpt><trkpt lat="44.3005717" lon="7.1427733"><ele>905.0</ele><time>2026-05-03T13:47:04.275Z</time></trkpt><trkpt lat="44.3006933" lon="7.14296"><ele>905.6666666666667</ele><time>2026-05-03T13:47:05.275Z</time></trkpt><trkpt lat="44.300825" lon="7.1431717"><ele>906.3333333333333</ele><time>2026-05-03T13:47:06.275Z</time></trkpt><trkpt lat="44.3009567" lon="7.1433983"><ele>907.0</ele><time>2026-05-03T13:47:07.275Z</time></trkpt><trkpt lat="44.301085" lon="7.143625"><ele>907.0</ele><time>2026-05-03T13:47:08.275Z</time></trkpt><trkpt lat="44.3012133" lon="7.143865"><ele>907.0</ele><time>2026-05-03T13:47:09.276Z</time></trkpt><trkpt lat="44.3013217" lon="7.1441033"><ele>907.0</ele><time>2026-05-03T13:47:10.275Z</time></trkpt><trkpt lat="44.3014183" lon="7.144345"><ele>911.0</ele><time>2026-05-03T13:47:11.276Z</time></trkpt><trkpt lat="44.3014933" lon="7.144595"><ele>915.0</ele><time>2026-05-03T13:47:12.275Z</time></trkpt><trkpt lat="44.3015533" lon="7.144855"><ele>919.0</ele><time>2026-05-03T13:47:13.275Z</time></trkpt><trkpt lat="44.3015983" lon="7.1451383"><ele>919.0</ele><time>2026-05-03T13:47:14.275Z</time></trkpt><trkpt lat="44.3016583" lon="7.145425"><ele>919.0</ele><time>2026-05-03T13:47:15.276Z</time></trkpt><trkpt lat="44.301725" lon="7.1457183"><ele>919.0</ele><time>2026-05-03T13:47:16.275Z</time></trkpt><trkpt lat="44.3017833" lon="7.1460233"><ele>914.0</ele><time>2026-05-03T13:47:17.275Z</time></trkpt><trkpt lat="44.3018383" lon="7.1463283"><ele>909.0</ele><time>2026-05-03T13:47:18.275Z</time></trkpt><trkpt lat="44.3018883" lon="7.146635"><ele>908.0</ele><time>2026-05-03T13:47:19.275Z</time></trkpt><trkpt lat="44.3019333" lon="7.1469483"><ele>907.0</ele><time>2026-05-03T13:47:20.275Z</time></trkpt><trkpt lat="44.3019733" lon="7.1472667"><ele>904.0</ele><time>2026-05-03T13:47:21.275Z</time></trkpt><trkpt lat="44.301995" lon="7.1475867"><ele>901.0</ele><time>2026-05-03T13:47:22.275Z</time></trkpt><trkpt lat="44.3020083" lon="7.1479033"><ele>900.0</ele><time>2026-05-03T13:47:23.275Z</time></trkpt><trkpt lat="44.3020233" lon="7.1482167"><ele>899.0</ele><time>2026-05-03T13:47:24.275Z</time></trkpt><trkpt lat="44.30204" lon="7.148535"><ele>899.0</ele><time>2026-05-03T13:47:25.275Z</time></trkpt><trkpt lat="44.302065" lon="7.1488567"><ele>899.0</ele><time>2026-05-03T13:47:26.276Z</time></trkpt><trkpt lat="44.3021033" lon="7.1491617"><ele>897.3333333333334</ele><time>2026-05-03T13:47:27.275Z</time></trkpt><trkpt lat="44.3021583" lon="7.1494583"><ele>895.6666666666667</ele><time>2026-05-03T13:47:28.275Z</time></trkpt><trkpt lat="44.3022283" lon="7.1497467"><ele>894.0</ele><time>2026-05-03T13:47:29.275Z</time></trkpt><trkpt lat="44.3023117" lon="7.1500267"><ele>894.0</ele><time>2026-05-03T13:47:30.275Z</time></trkpt><trkpt lat="44.3024133" lon="7.1502783"><ele>894.0</ele><time>2026-05-03T13:47:31.276Z</time></trkpt><trkpt lat="44.3025383" lon="7.1505033"><ele>894.0</ele><time>2026-05-03T13:47:32.275Z</time></trkpt><trkpt lat="44.3026833" lon="7.150725"><ele>894.0</ele><time>2026-05-03T13:47:33.275Z</time></trkpt><trkpt lat="44.3028383" lon="7.150925"><ele>894.0</ele><time>2026-05-03T13:47:34.275Z</time></trkpt><trkpt lat="44.3029767" lon="7.1511117"><ele>894.0</ele><time>2026-05-03T13:47:35.275Z</time></trkpt><trkpt lat="44.3030983" lon="7.1513183"><ele>896.6666666666667</ele><time>2026-05-03T13:47:36.276Z</time></trkpt><trkpt lat="44.303205" lon="7.151545"><ele>899.3333333333334</ele><time>2026-05-03T13:47:37.275Z</time></trkpt><trkpt lat="44.3033033" lon="7.15178"><ele>902.0</ele><time>2026-05-03T13:47:38.275Z</time></trkpt><trkpt lat="44.3033967" lon="7.1520117"><ele>902.0</ele><time>2026-05-03T13:47:39.275Z</time></trkpt><trkpt lat="44.3035" lon="7.1522417"><ele>902.0</ele><time>2026-05-03T13:47:40.275Z</time></trkpt><trkpt lat="44.3036033" lon="7.15247"><ele>902.0</ele><time>2026-05-03T13:47:41.276Z</time></trkpt><trkpt lat="44.3037183" lon="7.1526817"><ele>904.0</ele><time>2026-05-03T13:47:42.275Z</time></trkpt><trkpt lat="44.3038483" lon="7.1529033"><ele>906.0</ele><time>2026-05-03T13:47:43.275Z</time></trkpt><trkpt lat="44.3039617" lon="7.15313"><ele>908.0</ele><time>2026-05-03T13:47:44.275Z</time></trkpt><trkpt lat="44.3040683" lon="7.15336"><ele>908.0</ele><time>2026-05-03T13:47:45.275Z</time></trkpt><trkpt lat="44.3041717" lon="7.1535983"><ele>908.0</ele><time>2026-05-03T13:47:46.275Z</time></trkpt><trkpt lat="44.304255" lon="7.1538417"><ele>908.0</ele><time>2026-05-03T13:47:47.275Z</time></trkpt><trkpt lat="44.3043167" lon="7.1541133"><ele>903.6666666666667</ele><time>2026-05-03T13:47:48.275Z</time></trkpt><trkpt lat="44.3043617" lon="7.154395"><ele>899.3333333333333</ele><time>2026-05-03T13:47:49.275Z</time></trkpt><trkpt lat="44.304405" lon="7.1546633"><ele>895.0</ele><time>2026-05-03T13:47:50.275Z</time></trkpt><trkpt lat="44.3044517" lon="7.1549517"><ele>892.0</ele><time>2026-05-03T13:47:51.275Z</time></trkpt><trkpt lat="44.3045" lon="7.1552417"><ele>889.0</ele><time>2026-05-03T13:47:52.275Z</time></trkpt><trkpt lat="44.304545" lon="7.1555317"><ele>886.0</ele><time>2026-05-03T13:47:53.275Z</time></trkpt><trkpt lat="44.3045883" lon="7.15582"><ele>885.0</ele><time>2026-05-03T13:47:54.275Z</time></trkpt><trkpt lat="44.3046283" lon="7.1561133"><ele>884.0</ele><time>2026-05-03T13:47:55.275Z</time></trkpt><trkpt lat="44.3046733" lon="7.1564083"><ele>883.0</ele><time>2026-05-03T13:47:56.276Z</time></trkpt><trkpt lat="44.3047267" lon="7.1567083"><ele>885.3333333333333</ele><time>2026-05-03T13:47:57.275Z</time></trkpt><trkpt lat="44.304795" lon="7.156995"><ele>887.6666666666667</ele><time>2026-05-03T13:47:58.275Z</time></trkpt><trkpt lat="44.3048683" lon="7.15727"><ele>890.0</ele><time>2026-05-03T13:47:59.276Z</time></trkpt><trkpt lat="44.3049567" lon="7.15755"><ele>890.0</ele><time>2026-05-03T13:48:00.275Z</time></trkpt><trkpt lat="44.305045" lon="7.1578167"><ele>890.0</ele><time>2026-05-03T13:48:01.276Z</time></trkpt><trkpt lat="44.3051217" lon="7.1580917"><ele>890.0</ele><time>2026-05-03T13:48:02.275Z</time></trkpt><trkpt lat="44.3052083" lon="7.1583683"><ele>888.0</ele><time>2026-05-03T13:48:03.276Z</time></trkpt><trkpt lat="44.3053" lon="7.1586483"><ele>886.0</ele><time>2026-05-03T13:48:04.275Z</time></trkpt><trkpt lat="44.3053917" lon="7.1589267"><ele>884.0</ele><time>2026-05-03T13:48:05.275Z</time></trkpt><trkpt lat="44.305485" lon="7.1592033"><ele>882.3333333333334</ele><time>2026-05-03T13:48:06.275Z</time></trkpt><trkpt lat="44.305575" lon="7.1594733"><ele>880.6666666666667</ele><time>2026-05-03T13:48:07.275Z</time></trkpt><trkpt lat="44.30566" lon="7.159745"><ele>879.0</ele><time>2026-05-03T13:48:08.275Z</time></trkpt><trkpt lat="44.3057383" lon="7.1600133"><ele>881.6666666666667</ele><time>2026-05-03T13:48:09.275Z</time></trkpt><trkpt lat="44.3058133" lon="7.1602867"><ele>884.3333333333334</ele><time>2026-05-03T13:48:10.275Z</time></trkpt><trkpt lat="44.30588" lon="7.16057"><ele>887.0</ele><time>2026-05-03T13:48:11.275Z</time></trkpt><trkpt lat="44.3059367" lon="7.16088"><ele>887.0</ele><time>2026-05-03T13:48:12.275Z</time></trkpt><trkpt lat="44.3059783" lon="7.1611883"><ele>887.0</ele><time>2026-05-03T13:48:13.276Z</time></trkpt><trkpt lat="44.306" lon="7.161495"><ele>887.0</ele><time>2026-05-03T13:48:14.275Z</time></trkpt><trkpt lat="44.3059933" lon="7.1617917"><ele>886.3333333333334</ele><time>2026-05-03T13:48:15.275Z</time></trkpt><trkpt lat="44.305965" lon="7.1620883"><ele>885.6666666666667</ele><time>2026-05-03T13:48:16.275Z</time></trkpt><trkpt lat="44.3059267" lon="7.1623733"><ele>885.0</ele><time>2026-05-03T13:48:17.275Z</time></trkpt><trkpt lat="44.3058967" lon="7.162655"><ele>883.6666666666667</ele><time>2026-05-03T13:48:18.275Z</time></trkpt><trkpt lat="44.3058967" lon="7.1629517"><ele>882.3333333333334</ele><time>2026-05-03T13:48:19.275Z</time></trkpt><trkpt lat="44.305915" lon="7.163255"><ele>881.0</ele><time>2026-05-03T13:48:20.275Z</time></trkpt><trkpt lat="44.3059683" lon="7.16354"><ele>880.3333333333334</ele><time>2026-05-03T13:48:21.275Z</time></trkpt><trkpt lat="44.30605" lon="7.163805"><ele>879.6666666666667</ele><time>2026-05-03T13:48:22.275Z</time></trkpt><trkpt lat="44.306145" lon="7.164075"><ele>879.0</ele><time>2026-05-03T13:48:23.275Z</time></trkpt><trkpt lat="44.3062383" lon="7.16434"><ele>878.3333333333333</ele><time>2026-05-03T13:48:24.275Z</time></trkpt><trkpt lat="44.3063433" lon="7.1645983"><ele>877.6666666666666</ele><time>2026-05-03T13:48:25.275Z</time></trkpt><trkpt lat="44.30645" lon="7.16486"><ele>877.0</ele><time>2026-05-03T13:48:26.275Z</time></trkpt><trkpt lat="44.3065483" lon="7.165135"><ele>880.6666666666666</ele><time>2026-05-03T13:48:27.275Z</time></trkpt><trkpt lat="44.3066317" lon="7.165415"><ele>884.3333333333333</ele><time>2026-05-03T13:48:28.275Z</time></trkpt><trkpt lat="44.30671" lon="7.1656917"><ele>888.0</ele><time>2026-05-03T13:48:29.275Z</time></trkpt><trkpt lat="44.3067917" lon="7.165975"><ele>888.0</ele><time>2026-05-03T13:48:30.275Z</time></trkpt><trkpt lat="44.3068667" lon="7.1662433"><ele>888.0</ele><time>2026-05-03T13:48:31.275Z</time></trkpt><trkpt lat="44.3069433" lon="7.1665067"><ele>888.0</ele><time>2026-05-03T13:48:32.275Z</time></trkpt><trkpt lat="44.30702" lon="7.1667733"><ele>887.3333333333333</ele><time>2026-05-03T13:48:33.275Z</time></trkpt><trkpt lat="44.307095" lon="7.1670317"><ele>886.6666666666666</ele><time>2026-05-03T13:48:34.275Z</time></trkpt><trkpt lat="44.3071567" lon="7.1672833"><ele>886.0</ele><time>2026-05-03T13:48:35.275Z</time></trkpt><trkpt lat="44.30721" lon="7.1675267"><ele>895.3333333333333</ele><time>2026-05-03T13:48:36.275Z</time></trkpt><trkpt lat="44.3072483" lon="7.1677667"><ele>904.6666666666667</ele><time>2026-05-03T13:48:37.276Z</time></trkpt><trkpt lat="44.3072783" lon="7.16801"><ele>914.0</ele><time>2026-05-03T13:48:38.275Z</time></trkpt><trkpt lat="44.3072933" lon="7.168245"><ele>914.0</ele><time>2026-05-03T13:48:39.275Z</time></trkpt><trkpt lat="44.3073183" lon="7.1684817"><ele>914.0</ele><time>2026-05-03T13:48:40.275Z</time></trkpt><trkpt lat="44.3073533" lon="7.168725"><ele>914.0</ele><time>2026-05-03T13:48:41.275Z</time></trkpt><trkpt lat="44.3074033" lon="7.1689567"><ele>913.0</ele><time>2026-05-03T13:48:42.275Z</time></trkpt><trkpt lat="44.30745" lon="7.1691883"><ele>912.0</ele><time>2026-05-03T13:48:43.276Z</time></trkpt><trkpt lat="44.3074783" lon="7.1694233"><ele>911.0</ele><time>2026-05-03T13:48:44.275Z</time></trkpt><trkpt lat="44.3074883" lon="7.1696533"><ele>911.0</ele><time>2026-05-03T13:48:45.275Z</time></trkpt><trkpt lat="44.30746" lon="7.1698483"><ele>911.0</ele><time>2026-05-03T13:48:46.275Z</time></trkpt><trkpt lat="44.3074133" lon="7.17003"><ele>911.0</ele><time>2026-05-03T13:48:47.275Z</time></trkpt><trkpt lat="44.3073483" lon="7.1702067"><ele>911.0</ele><time>2026-05-03T13:48:48.275Z</time></trkpt><trkpt lat="44.3072833" lon="7.17039"><ele>907.6666666666667</ele><time>2026-05-03T13:48:49.275Z</time></trkpt><trkpt lat="44.3072133" lon="7.1705867"><ele>904.3333333333333</ele><time>2026-05-03T13:48:50.275Z</time></trkpt><trkpt lat="44.3071333" lon="7.1707783"><ele>901.0</ele><time>2026-05-03T13:48:51.276Z</time></trkpt><trkpt lat="44.307055" lon="7.1709583"><ele>901.0</ele><time>2026-05-03T13:48:52.275Z</time></trkpt><trkpt lat="44.3069783" lon="7.1711317"><ele>901.0</ele><time>2026-05-03T13:48:53.275Z</time></trkpt><trkpt lat="44.30691" lon="7.1713"><ele>901.0</ele><time>2026-05-03T13:48:54.275Z</time></trkpt><trkpt lat="44.3068433" lon="7.1714583"><ele>901.0</ele><time>2026-05-03T13:48:55.275Z</time></trkpt><trkpt lat="44.306775" lon="7.1716133"><ele>901.0</ele><time>2026-05-03T13:48:56.276Z</time></trkpt><trkpt lat="44.3067133" lon="7.1717667"><ele>901.0</ele><time>2026-05-03T13:48:57.275Z</time></trkpt><trkpt lat="44.306655" lon="7.171925"><ele>901.0</ele><time>2026-05-03T13:48:58.275Z</time></trkpt><trkpt lat="44.3066083" lon="7.1720817"><ele>901.0</ele><time>2026-05-03T13:48:59.275Z</time></trkpt><trkpt lat="44.30658" lon="7.1722433"><ele>901.25</ele><time>2026-05-03T13:49:00.276Z</time></trkpt><trkpt lat="44.3065583" lon="7.1724067"><ele>901.5</ele><time>2026-05-03T13:49:01.275Z</time></trkpt><trkpt lat="44.306545" lon="7.1725617"><ele>901.75</ele><time>2026-05-03T13:49:02.275Z</time></trkpt><trkpt lat="44.3065333" lon="7.172715"><ele>902.0</ele><time>2026-05-03T13:49:03.275Z</time></trkpt><trkpt lat="44.3065317" lon="7.17288"><ele>902.0</ele><time>2026-05-03T13:49:04.275Z</time></trkpt><trkpt lat="44.3065317" lon="7.1730467"><ele>902.0</ele><time>2026-05-03T13:49:05.275Z</time></trkpt><trkpt lat="44.30654" lon="7.1732083"><ele>902.0</ele><time>2026-05-03T13:49:06.275Z</time></trkpt><trkpt lat="44.306555" lon="7.1733683"><ele>902.0</ele><time>2026-05-03T13:49:07.275Z</time></trkpt><trkpt lat="44.3065683" lon="7.173505"><ele>902.0</ele><time>2026-05-03T13:49:08.275Z</time></trkpt><trkpt lat="44.3065817" lon="7.1736567"><ele>902.25</ele><time>2026-05-03T13:49:09.276Z</time></trkpt><trkpt lat="44.3065933" lon="7.1738083"><ele>902.5</ele><time>2026-05-03T13:49:10.275Z</time></trkpt><trkpt lat="44.3066017" lon="7.1739583"><ele>902.75</ele><time>2026-05-03T13:49:11.275Z</time></trkpt><trkpt lat="44.3066167" lon="7.1741167"><ele>903.0</ele><time>2026-05-03T13:49:12.275Z</time></trkpt><trkpt lat="44.30663" lon="7.1742867"><ele>903.0</ele><time>2026-05-03T13:49:13.275Z</time></trkpt><trkpt lat="44.3066467" lon="7.1744683"><ele>903.0</ele><time>2026-05-03T13:49:14.275Z</time></trkpt><trkpt lat="44.3066617" lon="7.1746533"><ele>903.0</ele><time>2026-05-03T13:49:15.275Z</time></trkpt><trkpt lat="44.3066817" lon="7.174835"><ele>903.0</ele><time>2026-05-03T13:49:16.275Z</time></trkpt><trkpt lat="44.306715" lon="7.17502"><ele>902.0</ele><time>2026-05-03T13:49:17.276Z</time></trkpt><trkpt lat="44.3067583" lon="7.175205"><ele>901.0</ele><time>2026-05-03T13:49:18.275Z</time></trkpt><trkpt lat="44.3068267" lon="7.1753783"><ele>900.0</ele><time>2026-05-03T13:49:19.275Z</time></trkpt><trkpt lat="44.3069117" lon="7.17554"><ele>899.0</ele><time>2026-05-03T13:49:20.275Z</time></trkpt><trkpt lat="44.3070067" lon="7.1756733"><ele>898.75</ele><time>2026-05-03T13:49:21.275Z</time></trkpt><trkpt lat="44.3071117" lon="7.1757883"><ele>898.5</ele><time>2026-05-03T13:49:22.276Z</time></trkpt><trkpt lat="44.307215" lon="7.1758917"><ele>898.25</ele><time>2026-05-03T13:49:23.275Z</time></trkpt><trkpt lat="44.3073167" lon="7.1759883"><ele>898.0</ele><time>2026-05-03T13:49:24.275Z</time></trkpt><trkpt lat="44.3074133" lon="7.176085"><ele>898.0</ele><time>2026-05-03T13:49:25.275Z</time></trkpt><trkpt lat="44.3075167" lon="7.1761883"><ele>898.0</ele><time>2026-05-03T13:49:26.275Z</time></trkpt><trkpt lat="44.3076167" lon="7.1762867"><ele>898.0</ele><time>2026-05-03T13:49:27.275Z</time></trkpt><trkpt lat="44.3077117" lon="7.176375"><ele>898.0</ele><time>2026-05-03T13:49:28.275Z</time></trkpt><trkpt lat="44.3078" lon="7.176465"><ele>897.2</ele><time>2026-05-03T13:49:29.275Z</time></trkpt><trkpt lat="44.3078767" lon="7.176545"><ele>896.4</ele><time>2026-05-03T13:49:30.275Z</time></trkpt><trkpt lat="44.30796" lon="7.1766267"><ele>895.6000000000001</ele><time>2026-05-03T13:49:31.275Z</time></trkpt><trkpt lat="44.3080617" lon="7.1767117"><ele>894.8000000000001</ele><time>2026-05-03T13:49:32.275Z</time></trkpt><trkpt lat="44.308165" lon="7.1767983"><ele>894.0</ele><time>2026-05-03T13:49:33.275Z</time></trkpt><trkpt lat="44.3082783" lon="7.1769117"><ele>894.0</ele><time>2026-05-03T13:49:34.275Z</time></trkpt><trkpt lat="44.3083833" lon="7.177035"><ele>894.0</ele><time>2026-05-03T13:49:35.275Z</time></trkpt><trkpt lat="44.3084833" lon="7.17714"><ele>894.0</ele><time>2026-05-03T13:49:36.276Z</time></trkpt><trkpt lat="44.3085817" lon="7.177235"><ele>894.0</ele><time>2026-05-03T13:49:37.275Z</time></trkpt><trkpt lat="44.3086733" lon="7.17732"><ele>894.6</ele><time>2026-05-03T13:49:38.275Z</time></trkpt><trkpt lat="44.3087617" lon="7.1774033"><ele>895.2</ele><time>2026-05-03T13:49:39.275Z</time></trkpt><trkpt lat="44.3088483" lon="7.17749"><ele>895.8000000000001</ele><time>2026-05-03T13:49:40.275Z</time></trkpt><trkpt lat="44.30893" lon="7.1775833"><ele>896.4000000000001</ele><time>2026-05-03T13:49:41.275Z</time></trkpt><trkpt lat="44.3090083" lon="7.1776733"><ele>897.0</ele><time>2026-05-03T13:49:42.275Z</time></trkpt><trkpt lat="44.3090717" lon="7.1777583"><ele>897.0</ele><time>2026-05-03T13:49:43.275Z</time></trkpt><trkpt lat="44.309125" lon="7.1778417"><ele>897.0</ele><time>2026-05-03T13:49:44.276Z</time></trkpt><trkpt lat="44.3091633" lon="7.1779217"><ele>897.0</ele><time>2026-05-03T13:49:45.275Z</time></trkpt><trkpt lat="44.309195" lon="7.1780133"><ele>897.0</ele><time>2026-05-03T13:49:46.276Z</time></trkpt><trkpt lat="44.309225" lon="7.1781217"><ele>897.0</ele><time>2026-05-03T13:49:47.275Z</time></trkpt><trkpt lat="44.309255" lon="7.1782333"><ele>897.0</ele><time>2026-05-03T13:49:48.275Z</time></trkpt><trkpt lat="44.309275" lon="7.1783533"><ele>895.6</ele><time>2026-05-03T13:49:49.275Z</time></trkpt><trkpt lat="44.3092917" lon="7.17847"><ele>894.2</ele><time>2026-05-03T13:49:50.275Z</time></trkpt><trkpt lat="44.309315" lon="7.178585"><ele>892.8</ele><time>2026-05-03T13:49:51.275Z</time></trkpt><trkpt lat="44.30934" lon="7.178715"><ele>891.4</ele><time>2026-05-03T13:49:52.275Z</time></trkpt><trkpt lat="44.30937" lon="7.1788567"><ele>890.0</ele><time>2026-05-03T13:49:53.275Z</time></trkpt><trkpt lat="44.3093967" lon="7.1789867"><ele>889.4285714285714</ele><time>2026-05-03T13:49:54.275Z</time></trkpt><trkpt lat="44.3094183" lon="7.1790967"><ele>888.8571428571428</ele><time>2026-05-03T13:49:55.275Z</time></trkpt><trkpt lat="44.3094367" lon="7.1791833"><ele>888.2857142857142</ele><time>2026-05-03T13:49:56.275Z</time></trkpt><trkpt lat="44.3094483" lon="7.1793"><ele>887.7142857142858</ele><time>2026-05-03T13:49:58.275Z</time></trkpt><trkpt lat="44.309465" lon="7.1794033"><ele>887.1428571428571</ele><time>2026-05-03T13:50:01.275Z</time></trkpt><trkpt lat="44.3095317" lon="7.1793917"><ele>886.5714285714286</ele><time>2026-05-03T13:50:24.275Z</time></trkpt><trkpt lat="44.3095117" lon="7.1792933"><ele>886.0</ele><time>2026-05-03T13:50:26.275Z</time></trkpt><trkpt lat="44.3094733" lon="7.1791433"><ele>886.0</ele><time>2026-05-03T13:50:28.275Z</time></trkpt><trkpt lat="44.3094417" lon="7.1790217"><ele>885.9999999999999</ele><time>2026-05-03T13:50:30.275Z</time></trkpt><trkpt lat="44.3094083" lon="7.1788983"><ele>885.9999999999999</ele><time>2026-05-03T13:50:32.276Z</time></trkpt><trkpt lat="44.309365" lon="7.178725"><ele>886.0</ele><time>2026-05-03T13:50:34.275Z</time></trkpt><trkpt lat="44.3093417" lon="7.1786083"><ele>886.0</ele><time>2026-05-03T13:50:35.275Z</time></trkpt><trkpt lat="44.3093183" lon="7.1784917"><ele>887.0</ele><time>2026-05-03T13:50:36.275Z</time></trkpt><trkpt lat="44.309295" lon="7.1783717"><ele>888.0</ele><time>2026-05-03T13:50:37.275Z</time></trkpt><trkpt lat="44.3092467" lon="7.178125"><ele>889.0</ele><time>2026-05-03T13:50:39.275Z</time></trkpt><trkpt lat="44.30921" lon="7.178005"><ele>890.0</ele><time>2026-05-03T13:50:40.275Z</time></trkpt><trkpt lat="44.3091667" lon="7.1778683"><ele>888.75</ele><time>2026-05-03T13:50:41.276Z</time></trkpt><trkpt lat="44.3091" lon="7.177745"><ele>887.5</ele><time>2026-05-03T13:50:42.275Z</time></trkpt><trkpt lat="44.3090167" lon="7.17763"><ele>886.25</ele><time>2026-05-03T13:50:43.275Z</time></trkpt><trkpt lat="44.30891" lon="7.1775067"><ele>885.0</ele><time>2026-05-03T13:50:44.275Z</time></trkpt><trkpt lat="44.3087983" lon="7.1773917"><ele>888.0</ele><time>2026-05-03T13:50:45.276Z</time></trkpt><trkpt lat="44.3086783" lon="7.1772683"><ele>891.0</ele><time>2026-05-03T13:50:46.276Z</time></trkpt><trkpt lat="44.3085517" lon="7.1771467"><ele>894.0</ele><time>2026-05-03T13:50:47.275Z</time></trkpt><trkpt lat="44.30843" lon="7.1770317"><ele>894.0</ele><time>2026-05-03T13:50:48.275Z</time></trkpt><trkpt lat="44.3083233" lon="7.17692"><ele>894.0</ele><time>2026-05-03T13:50:49.276Z</time></trkpt><trkpt lat="44.3082233" lon="7.176835"><ele>894.0</ele><time>2026-05-03T13:50:50.276Z</time></trkpt><trkpt lat="44.3081283" lon="7.1767567"><ele>894.0</ele><time>2026-05-03T13:50:51.275Z</time></trkpt><trkpt lat="44.3080433" lon="7.1766783"><ele>894.6666666666666</ele><time>2026-05-03T13:50:52.275Z</time></trkpt><trkpt lat="44.3079683" lon="7.1766117"><ele>895.3333333333333</ele><time>2026-05-03T13:50:53.275Z</time></trkpt><trkpt lat="44.3079067" lon="7.1765517"><ele>896.0</ele><time>2026-05-03T13:50:54.275Z</time></trkpt><trkpt lat="44.3078233" lon="7.1764633"><ele>896.6666666666666</ele><time>2026-05-03T13:50:56.275Z</time></trkpt><trkpt lat="44.307755" lon="7.1764983"><ele>897.3333333333333</ele><time>2026-05-03T13:50:59.275Z</time></trkpt><trkpt lat="44.3077617" lon="7.176615"><ele>898.0</ele><time>2026-05-03T13:51:01.275Z</time></trkpt><trkpt lat="44.3077883" lon="7.1767133"><ele>896.2</ele><time>2026-05-03T13:51:02.275Z</time></trkpt><trkpt lat="44.307835" lon="7.17685"><ele>894.4</ele><time>2026-05-03T13:51:03.275Z</time></trkpt><trkpt lat="44.30788" lon="7.1770067"><ele>892.6000000000001</ele><time>2026-05-03T13:51:04.275Z</time></trkpt><trkpt lat="44.3079233" lon="7.177145"><ele>890.8000000000001</ele><time>2026-05-03T13:51:05.275Z</time></trkpt><trkpt lat="44.307955" lon="7.177275"><ele>889.0</ele><time>2026-05-03T13:51:06.275Z</time></trkpt><trkpt lat="44.3079883" lon="7.1774"><ele>888.2</ele><time>2026-05-03T13:51:07.275Z</time></trkpt><trkpt lat="44.3080267" lon="7.17753"><ele>887.4000000000001</ele><time>2026-05-03T13:51:08.275Z</time></trkpt><trkpt lat="44.3080583" lon="7.1776683"><ele>886.6</ele><time>2026-05-03T13:51:09.276Z</time></trkpt><trkpt lat="44.308095" lon="7.1778167"><ele>885.8</ele><time>2026-05-03T13:51:10.275Z</time></trkpt><trkpt lat="44.3081333" lon="7.1779733"><ele>885.0</ele><time>2026-05-03T13:51:11.275Z</time></trkpt><trkpt lat="44.30818" lon="7.1781417"><ele>883.25</ele><time>2026-05-03T13:51:12.275Z</time></trkpt><trkpt lat="44.308225" lon="7.1783167"><ele>881.5</ele><time>2026-05-03T13:51:13.275Z</time></trkpt><trkpt lat="44.308265" lon="7.1784783"><ele>879.75</ele><time>2026-05-03T13:51:14.275Z</time></trkpt><trkpt lat="44.308305" lon="7.1786317"><ele>878.0</ele><time>2026-05-03T13:51:15.275Z</time></trkpt><trkpt lat="44.308335" lon="7.1787867"><ele>878.0</ele><time>2026-05-03T13:51:16.275Z</time></trkpt><trkpt lat="44.30837" lon="7.178935"><ele>878.0</ele><time>2026-05-03T13:51:17.275Z</time></trkpt><trkpt lat="44.3084017" lon="7.1790817"><ele>878.0</ele><time>2026-05-03T13:51:18.275Z</time></trkpt><trkpt lat="44.30844" lon="7.1792467"><ele>878.0</ele><time>2026-05-03T13:51:19.275Z</time></trkpt><trkpt lat="44.308485" lon="7.17941"><ele>876.75</ele><time>2026-05-03T13:51:20.275Z</time></trkpt><trkpt lat="44.30852" lon="7.1795733"><ele>875.5</ele><time>2026-05-03T13:51:21.276Z</time></trkpt><trkpt lat="44.30856" lon="7.1797183"><ele>874.25</ele><time>2026-05-03T13:51:22.275Z</time></trkpt><trkpt lat="44.3086117" lon="7.1798617"><ele>873.0</ele><time>2026-05-03T13:51:23.276Z</time></trkpt><trkpt lat="44.30868" lon="7.17999"><ele>874.0</ele><time>2026-05-03T13:51:24.275Z</time></trkpt><trkpt lat="44.3087633" lon="7.1801"><ele>875.0</ele><time>2026-05-03T13:51:25.275Z</time></trkpt><trkpt lat="44.30886" lon="7.1802217"><ele>876.0</ele><time>2026-05-03T13:51:26.275Z</time></trkpt><trkpt lat="44.3089567" lon="7.1803467"><ele>877.0</ele><time>2026-05-03T13:51:27.275Z</time></trkpt><trkpt lat="44.3090433" lon="7.1804933"><ele>877.0</ele><time>2026-05-03T13:51:28.275Z</time></trkpt><trkpt lat="44.30912" lon="7.180665"><ele>877.0</ele><time>2026-05-03T13:51:29.275Z</time></trkpt><trkpt lat="44.3091783" lon="7.1808483"><ele>877.0</ele><time>2026-05-03T13:51:30.275Z</time></trkpt><trkpt lat="44.3092167" lon="7.1810367"><ele>877.0</ele><time>2026-05-03T13:51:31.276Z</time></trkpt><trkpt lat="44.3092417" lon="7.18124"><ele>875.25</ele><time>2026-05-03T13:51:32.275Z</time></trkpt><trkpt lat="44.3092583" lon="7.1814417"><ele>873.5</ele><time>2026-05-03T13:51:33.276Z</time></trkpt><trkpt lat="44.3092717" lon="7.18164"><ele>871.75</ele><time>2026-05-03T13:51:34.275Z</time></trkpt><trkpt lat="44.3092833" lon="7.1818417"><ele>870.0</ele><time>2026-05-03T13:51:35.275Z</time></trkpt><trkpt lat="44.3093017" lon="7.182045"><ele>868.0</ele><time>2026-05-03T13:51:36.275Z</time></trkpt><trkpt lat="44.3093183" lon="7.18225"><ele>866.0</ele><time>2026-05-03T13:51:37.275Z</time></trkpt><trkpt lat="44.309335" lon="7.1824483"><ele>864.0</ele><time>2026-05-03T13:51:38.275Z</time></trkpt><trkpt lat="44.3093283" lon="7.1826483"><ele>862.0</ele><time>2026-05-03T13:51:39.275Z</time></trkpt><trkpt lat="44.309305" lon="7.1828433"><ele>858.3333333333333</ele><time>2026-05-03T13:51:40.275Z</time></trkpt><trkpt lat="44.309265" lon="7.183035"><ele>854.6666666666667</ele><time>2026-05-03T13:51:41.275Z</time></trkpt><trkpt lat="44.3092" lon="7.1832383"><ele>851.0</ele><time>2026-05-03T13:51:42.275Z</time></trkpt><trkpt lat="44.30913" lon="7.183435"><ele>849.75</ele><time>2026-05-03T13:51:43.275Z</time></trkpt><trkpt lat="44.3090667" lon="7.18363"><ele>848.5</ele><time>2026-05-03T13:51:44.275Z</time></trkpt><trkpt lat="44.3090083" lon="7.1838233"><ele>847.25</ele><time>2026-05-03T13:51:45.275Z</time></trkpt><trkpt lat="44.308955" lon="7.1840117"><ele>846.0</ele><time>2026-05-03T13:51:46.275Z</time></trkpt><trkpt lat="44.3088967" lon="7.1842"><ele>845.6666666666667</ele><time>2026-05-03T13:51:47.275Z</time></trkpt><trkpt lat="44.308815" lon="7.18437"><ele>845.3333333333334</ele><time>2026-05-03T13:51:48.275Z</time></trkpt><trkpt lat="44.3087067" lon="7.1845217"><ele>845.0</ele><time>2026-05-03T13:51:49.275Z</time></trkpt><trkpt lat="44.30859" lon="7.18466"><ele>845.0</ele><time>2026-05-03T13:51:50.275Z</time></trkpt><trkpt lat="44.3084717" lon="7.1847933"><ele>845.0</ele><time>2026-05-03T13:51:51.276Z</time></trkpt><trkpt lat="44.3083517" lon="7.1849383"><ele>845.0</ele><time>2026-05-03T13:51:52.275Z</time></trkpt><trkpt lat="44.30823" lon="7.18508"><ele>844.0</ele><time>2026-05-03T13:51:53.275Z</time></trkpt><trkpt lat="44.3081067" lon="7.1852217"><ele>843.0</ele><time>2026-05-03T13:51:54.276Z</time></trkpt><trkpt lat="44.307985" lon="7.185365"><ele>842.0</ele><time>2026-05-03T13:51:55.275Z</time></trkpt><trkpt lat="44.3078567" lon="7.1855217"><ele>841.6666666666667</ele><time>2026-05-03T13:51:56.275Z</time></trkpt><trkpt lat="44.30773" lon="7.1856783"><ele>841.3333333333333</ele><time>2026-05-03T13:51:57.276Z</time></trkpt><trkpt lat="44.3075983" lon="7.1858233"><ele>841.0</ele><time>2026-05-03T13:51:58.275Z</time></trkpt><trkpt lat="44.3074633" lon="7.18596"><ele>842.0</ele><time>2026-05-03T13:51:59.275Z</time></trkpt><trkpt lat="44.30733" lon="7.1861067"><ele>843.0</ele><time>2026-05-03T13:52:00.275Z</time></trkpt><trkpt lat="44.3072" lon="7.1862633"><ele>844.0</ele><time>2026-05-03T13:52:01.275Z</time></trkpt><trkpt lat="44.3070917" lon="7.18643"><ele>843.6666666666666</ele><time>2026-05-03T13:52:02.275Z</time></trkpt><trkpt lat="44.3070033" lon="7.1866233"><ele>843.3333333333333</ele><time>2026-05-03T13:52:03.275Z</time></trkpt><trkpt lat="44.30692" lon="7.1868217"><ele>843.0</ele><time>2026-05-03T13:52:04.276Z</time></trkpt><trkpt lat="44.3068333" lon="7.1870167"><ele>843.0</ele><time>2026-05-03T13:52:05.275Z</time></trkpt><trkpt lat="44.306745" lon="7.1872033"><ele>843.0</ele><time>2026-05-03T13:52:06.275Z</time></trkpt><trkpt lat="44.3066617" lon="7.187385"><ele>843.0</ele><time>2026-05-03T13:52:07.275Z</time></trkpt><trkpt lat="44.3065733" lon="7.1875533"><ele>843.0</ele><time>2026-05-03T13:52:08.275Z</time></trkpt><trkpt lat="44.3064917" lon="7.1877217"><ele>843.0</ele><time>2026-05-03T13:52:09.275Z</time></trkpt><trkpt lat="44.3064183" lon="7.1878733"><ele>843.0</ele><time>2026-05-03T13:52:10.275Z</time></trkpt><trkpt lat="44.30635" lon="7.18801"><ele>843.0</ele><time>2026-05-03T13:52:11.275Z</time></trkpt><trkpt lat="44.3062833" lon="7.1881383"><ele>843.0</ele><time>2026-05-03T13:52:12.275Z</time></trkpt><trkpt lat="44.3062217" lon="7.18826"><ele>843.0</ele><time>2026-05-03T13:52:13.275Z</time></trkpt><trkpt lat="44.3061617" lon="7.1883717"><ele>843.0</ele><time>2026-05-03T13:52:14.275Z</time></trkpt><trkpt lat="44.3061" lon="7.188475"><ele>843.0</ele><time>2026-05-03T13:52:15.275Z</time></trkpt><trkpt lat="44.3060383" lon="7.1885833"><ele>843.0</ele><time>2026-05-03T13:52:16.275Z</time></trkpt><trkpt lat="44.3059867" lon="7.1887017"><ele>843.0</ele><time>2026-05-03T13:52:17.275Z</time></trkpt><trkpt lat="44.305925" lon="7.1888167"><ele>843.0</ele><time>2026-05-03T13:52:18.275Z</time></trkpt><trkpt lat="44.3058567" lon="7.18895"><ele>843.0</ele><time>2026-05-03T13:52:19.275Z</time></trkpt><trkpt lat="44.3057917" lon="7.1890883"><ele>843.0</ele><time>2026-05-03T13:52:20.276Z</time></trkpt><trkpt lat="44.305725" lon="7.1892233"><ele>843.0</ele><time>2026-05-03T13:52:21.275Z</time></trkpt><trkpt lat="44.3056783" lon="7.1893617"><ele>843.0</ele><time>2026-05-03T13:52:22.275Z</time></trkpt><trkpt lat="44.3056517" lon="7.1895233"><ele>843.0</ele><time>2026-05-03T13:52:23.275Z</time></trkpt><trkpt lat="44.3056517" lon="7.189695"><ele>843.0</ele><time>2026-05-03T13:52:24.276Z</time></trkpt><trkpt lat="44.305665" lon="7.1898733"><ele>842.5</ele><time>2026-05-03T13:52:25.275Z</time></trkpt><trkpt lat="44.3056983" lon="7.1900583"><ele>842.0</ele><time>2026-05-03T13:52:26.275Z</time></trkpt><trkpt lat="44.305735" lon="7.1902417"><ele>841.5</ele><time>2026-05-03T13:52:27.275Z</time></trkpt><trkpt lat="44.3057767" lon="7.1904283"><ele>841.0</ele><time>2026-05-03T13:52:28.275Z</time></trkpt><trkpt lat="44.30582" lon="7.1906167"><ele>841.3333333333333</ele><time>2026-05-03T13:52:29.275Z</time></trkpt><trkpt lat="44.30585" lon="7.1907917"><ele>841.6666666666667</ele><time>2026-05-03T13:52:30.275Z</time></trkpt><trkpt lat="44.3058867" lon="7.190995"><ele>842.0</ele><time>2026-05-03T13:52:31.275Z</time></trkpt><trkpt lat="44.305935" lon="7.1912383"><ele>842.0</ele><time>2026-05-03T13:52:32.275Z</time></trkpt><trkpt lat="44.3059767" lon="7.19149"><ele>842.0</ele><time>2026-05-03T13:52:33.275Z</time></trkpt><trkpt lat="44.3060167" lon="7.1917133"><ele>842.0</ele><time>2026-05-03T13:52:34.276Z</time></trkpt><trkpt lat="44.3060417" lon="7.1919133"><ele>841.0</ele><time>2026-05-03T13:52:35.275Z</time></trkpt><trkpt lat="44.3060383" lon="7.1921167"><ele>840.0</ele><time>2026-05-03T13:52:36.275Z</time></trkpt><trkpt lat="44.3060117" lon="7.1923067"><ele>839.0</ele><time>2026-05-03T13:52:37.275Z</time></trkpt><trkpt lat="44.30596" lon="7.1924817"><ele>838.0</ele><time>2026-05-03T13:52:38.275Z</time></trkpt><trkpt lat="44.3058933" lon="7.192665"><ele>837.6666666666666</ele><time>2026-05-03T13:52:39.275Z</time></trkpt><trkpt lat="44.305835" lon="7.1928717"><ele>837.3333333333333</ele><time>2026-05-03T13:52:40.275Z</time></trkpt><trkpt lat="44.3057683" lon="7.1930883"><ele>837.0</ele><time>2026-05-03T13:52:41.275Z</time></trkpt><trkpt lat="44.3057" lon="7.193335"><ele>836.3333333333333</ele><time>2026-05-03T13:52:42.275Z</time></trkpt><trkpt lat="44.30562" lon="7.1935683"><ele>835.6666666666666</ele><time>2026-05-03T13:52:43.275Z</time></trkpt><trkpt lat="44.3055383" lon="7.193795"><ele>835.0</ele><time>2026-05-03T13:52:44.275Z</time></trkpt><trkpt lat="44.30546" lon="7.1940217"><ele>838.0</ele><time>2026-05-03T13:52:45.275Z</time></trkpt><trkpt lat="44.3053883" lon="7.19425"><ele>841.0</ele><time>2026-05-03T13:52:46.275Z</time></trkpt><trkpt lat="44.30532" lon="7.1944567"><ele>844.0</ele><time>2026-05-03T13:52:47.275Z</time></trkpt><trkpt lat="44.3052517" lon="7.19466"><ele>841.6666666666666</ele><time>2026-05-03T13:52:48.275Z</time></trkpt><trkpt lat="44.30521" lon="7.1948717"><ele>839.3333333333333</ele><time>2026-05-03T13:52:49.275Z</time></trkpt><trkpt lat="44.305145" lon="7.19506"><ele>837.0</ele><time>2026-05-03T13:52:50.275Z</time></trkpt><trkpt lat="44.3050833" lon="7.195255"><ele>837.0</ele><time>2026-05-03T13:52:51.275Z</time></trkpt><trkpt lat="44.3050183" lon="7.1954467"><ele>837.0</ele><time>2026-05-03T13:52:52.275Z</time></trkpt><trkpt lat="44.30496" lon="7.19563"><ele>837.0</ele><time>2026-05-03T13:52:53.275Z</time></trkpt><trkpt lat="44.3049033" lon="7.19581"><ele>837.0</ele><time>2026-05-03T13:52:54.275Z</time></trkpt><trkpt lat="44.3048767" lon="7.196005"><ele>835.3333333333333</ele><time>2026-05-03T13:52:55.275Z</time></trkpt><trkpt lat="44.3048517" lon="7.19622"><ele>833.6666666666666</ele><time>2026-05-03T13:52:56.275Z</time></trkpt><trkpt lat="44.3048317" lon="7.1964717"><ele>832.0</ele><time>2026-05-03T13:52:57.275Z</time></trkpt><trkpt lat="44.30481" lon="7.1967133"><ele>832.0</ele><time>2026-05-03T13:52:58.276Z</time></trkpt><trkpt lat="44.304785" lon="7.196935"><ele>832.0</ele><time>2026-05-03T13:52:59.275Z</time></trkpt><trkpt lat="44.3047767" lon="7.1971367"><ele>832.0</ele><time>2026-05-03T13:53:00.275Z</time></trkpt><trkpt lat="44.3047817" lon="7.1973233"><ele>832.0</ele><time>2026-05-03T13:53:01.275Z</time></trkpt><trkpt lat="44.3047867" lon="7.1975117"><ele>832.0</ele><time>2026-05-03T13:53:02.275Z</time></trkpt><trkpt lat="44.3048283" lon="7.1976833"><ele>832.0</ele><time>2026-05-03T13:53:03.275Z</time></trkpt><trkpt lat="44.3048867" lon="7.1978867"><ele>832.0</ele><time>2026-05-03T13:53:04.275Z</time></trkpt><trkpt lat="44.3049567" lon="7.198115"><ele>832.0</ele><time>2026-05-03T13:53:05.275Z</time></trkpt><trkpt lat="44.3050317" lon="7.1983733"><ele>832.0</ele><time>2026-05-03T13:53:06.275Z</time></trkpt><trkpt lat="44.3050967" lon="7.1986317"><ele>832.0</ele><time>2026-05-03T13:53:07.275Z</time></trkpt><trkpt lat="44.3051517" lon="7.1988917"><ele>832.0</ele><time>2026-05-03T13:53:08.275Z</time></trkpt><trkpt lat="44.3052" lon="7.1991567"><ele>832.0</ele><time>2026-05-03T13:53:09.275Z</time></trkpt><trkpt lat="44.3052167" lon="7.1994367"><ele>832.0</ele><time>2026-05-03T13:53:10.275Z</time></trkpt><trkpt lat="44.305215" lon="7.1997183"><ele>831.0</ele><time>2026-05-03T13:53:11.275Z</time></trkpt><trkpt lat="44.3052067" lon="7.2"><ele>830.0</ele><time>2026-05-03T13:53:12.275Z</time></trkpt><trkpt lat="44.305195" lon="7.2002917"><ele>829.0</ele><time>2026-05-03T13:53:13.275Z</time></trkpt><trkpt lat="44.3051983" lon="7.2005833"><ele>829.0</ele><time>2026-05-03T13:53:14.275Z</time></trkpt><trkpt lat="44.3052267" lon="7.200865"><ele>829.0</ele><time>2026-05-03T13:53:15.275Z</time></trkpt><trkpt lat="44.3052733" lon="7.2011317"><ele>829.0</ele><time>2026-05-03T13:53:16.275Z</time></trkpt><trkpt lat="44.3053067" lon="7.2013767"><ele>829.0</ele><time>2026-05-03T13:53:17.275Z</time></trkpt><trkpt lat="44.3053017" lon="7.2016117"><ele>829.0</ele><time>2026-05-03T13:53:18.275Z</time></trkpt><trkpt lat="44.3052667" lon="7.2018383"><ele>829.0</ele><time>2026-05-03T13:53:19.275Z</time></trkpt><trkpt lat="44.3052217" lon="7.2020533"><ele>829.0</ele><time>2026-05-03T13:53:20.275Z</time></trkpt><trkpt lat="44.3051783" lon="7.202265"><ele>829.0</ele><time>2026-05-03T13:53:21.275Z</time></trkpt><trkpt lat="44.3051683" lon="7.2024867"><ele>829.0</ele><time>2026-05-03T13:53:22.275Z</time></trkpt><trkpt lat="44.3051817" lon="7.202715"><ele>828.3333333333333</ele><time>2026-05-03T13:53:23.275Z</time></trkpt><trkpt lat="44.305225" lon="7.2029533"><ele>827.6666666666667</ele><time>2026-05-03T13:53:24.275Z</time></trkpt><trkpt lat="44.3052817" lon="7.2031833"><ele>827.0</ele><time>2026-05-03T13:53:25.275Z</time></trkpt><trkpt lat="44.3053367" lon="7.2034233"><ele>828.3333333333334</ele><time>2026-05-03T13:53:26.275Z</time></trkpt><trkpt lat="44.3053767" lon="7.203675"><ele>829.6666666666667</ele><time>2026-05-03T13:53:27.275Z</time></trkpt><trkpt lat="44.305405" lon="7.2039217"><ele>831.0</ele><time>2026-05-03T13:53:28.275Z</time></trkpt><trkpt lat="44.305425" lon="7.2041617"><ele>831.3333333333333</ele><time>2026-05-03T13:53:29.275Z</time></trkpt><trkpt lat="44.3054483" lon="7.204395"><ele>831.6666666666666</ele><time>2026-05-03T13:53:30.275Z</time></trkpt><trkpt lat="44.3054767" lon="7.2046133"><ele>832.0</ele><time>2026-05-03T13:53:31.275Z</time></trkpt><trkpt lat="44.3055333" lon="7.2048233"><ele>831.0</ele><time>2026-05-03T13:53:32.275Z</time></trkpt><trkpt lat="44.3056233" lon="7.205005"><ele>830.0</ele><time>2026-05-03T13:53:33.275Z</time></trkpt><trkpt lat="44.3057267" lon="7.2051983"><ele>829.0</ele><time>2026-05-03T13:53:34.275Z</time></trkpt><trkpt lat="44.3058433" lon="7.2053917"><ele>829.0</ele><time>2026-05-03T13:53:35.275Z</time></trkpt><trkpt lat="44.30597" lon="7.20557"><ele>829.0</ele><time>2026-05-03T13:53:36.275Z</time></trkpt><trkpt lat="44.3061033" lon="7.2057367"><ele>829.0</ele><time>2026-05-03T13:53:37.275Z</time></trkpt><trkpt lat="44.3062367" lon="7.2059017"><ele>830.3333333333333</ele><time>2026-05-03T13:53:38.275Z</time></trkpt><trkpt lat="44.3063567" lon="7.20605"><ele>831.6666666666667</ele><time>2026-05-03T13:53:39.275Z</time></trkpt><trkpt lat="44.30646" lon="7.206215"><ele>833.0</ele><time>2026-05-03T13:53:40.276Z</time></trkpt><trkpt lat="44.3065483" lon="7.2064"><ele>831.6666666666667</ele><time>2026-05-03T13:53:41.275Z</time></trkpt><trkpt lat="44.3065983" lon="7.20661"><ele>830.3333333333333</ele><time>2026-05-03T13:53:42.276Z</time></trkpt><trkpt lat="44.3066333" lon="7.2068317"><ele>829.0</ele><time>2026-05-03T13:53:43.275Z</time></trkpt><trkpt lat="44.3066583" lon="7.2070567"><ele>829.0</ele><time>2026-05-03T13:53:44.275Z</time></trkpt><trkpt lat="44.3066833" lon="7.2072917"><ele>829.0</ele><time>2026-05-03T13:53:45.276Z</time></trkpt><trkpt lat="44.3067183" lon="7.2075317"><ele>829.0</ele><time>2026-05-03T13:53:46.276Z</time></trkpt><trkpt lat="44.3067533" lon="7.2077717"><ele>830.0</ele><time>2026-05-03T13:53:47.275Z</time></trkpt><trkpt lat="44.3067917" lon="7.20801"><ele>831.0</ele><time>2026-05-03T13:53:48.275Z</time></trkpt><trkpt lat="44.3068267" lon="7.2082383"><ele>832.0</ele><time>2026-05-03T13:53:49.275Z</time></trkpt><trkpt lat="44.306855" lon="7.2084533"><ele>832.6666666666666</ele><time>2026-05-03T13:53:50.275Z</time></trkpt><trkpt lat="44.3068783" lon="7.2086917"><ele>833.3333333333333</ele><time>2026-05-03T13:53:51.275Z</time></trkpt><trkpt lat="44.3068983" lon="7.2089283"><ele>834.0</ele><time>2026-05-03T13:53:52.275Z</time></trkpt><trkpt lat="44.3069067" lon="7.209155"><ele>834.0</ele><time>2026-05-03T13:53:53.275Z</time></trkpt><trkpt lat="44.306915" lon="7.2093833"><ele>834.0</ele><time>2026-05-03T13:53:54.275Z</time></trkpt><trkpt lat="44.3069217" lon="7.209605"><ele>834.0</ele><time>2026-05-03T13:53:55.275Z</time></trkpt><trkpt lat="44.3069333" lon="7.2098383"><ele>834.0</ele><time>2026-05-03T13:53:56.275Z</time></trkpt><trkpt lat="44.30694" lon="7.2100817"><ele>834.0</ele><time>2026-05-03T13:53:57.275Z</time></trkpt><trkpt lat="44.30695" lon="7.2103333"><ele>834.0</ele><time>2026-05-03T13:53:58.275Z</time></trkpt><trkpt lat="44.3069533" lon="7.21059"><ele>833.6666666666667</ele><time>2026-05-03T13:53:59.275Z</time></trkpt><trkpt lat="44.3069567" lon="7.2108583"><ele>833.3333333333334</ele><time>2026-05-03T13:54:00.275Z</time></trkpt><trkpt lat="44.3069533" lon="7.2111483"><ele>833.0</ele><time>2026-05-03T13:54:01.276Z</time></trkpt><trkpt lat="44.306945" lon="7.2114467"><ele>831.0</ele><time>2026-05-03T13:54:02.275Z</time></trkpt><trkpt lat="44.306945" lon="7.2117467"><ele>829.0</ele><time>2026-05-03T13:54:03.275Z</time></trkpt><trkpt lat="44.3069483" lon="7.212065"><ele>827.0</ele><time>2026-05-03T13:54:04.275Z</time></trkpt><trkpt lat="44.3069633" lon="7.2123933"><ele>824.5</ele><time>2026-05-03T13:54:05.275Z</time></trkpt><trkpt lat="44.3069817" lon="7.2127183"><ele>822.0</ele><time>2026-05-03T13:54:06.275Z</time></trkpt><trkpt lat="44.3070067" lon="7.2130467"><ele>821.0</ele><time>2026-05-03T13:54:07.275Z</time></trkpt><trkpt lat="44.307025" lon="7.2133783"><ele>820.0</ele><time>2026-05-03T13:54:08.276Z</time></trkpt><trkpt lat="44.30704" lon="7.2137217"><ele>818.0</ele><time>2026-05-03T13:54:09.275Z</time></trkpt><trkpt lat="44.3070517" lon="7.2140683"><ele>816.0</ele><time>2026-05-03T13:54:10.275Z</time></trkpt><trkpt lat="44.3070683" lon="7.2144183"><ele>816.0</ele><time>2026-05-03T13:54:11.275Z</time></trkpt><trkpt lat="44.3070883" lon="7.2147667"><ele>816.0</ele><time>2026-05-03T13:54:12.275Z</time></trkpt><trkpt lat="44.3071067" lon="7.2151067"><ele>814.0</ele><time>2026-05-03T13:54:13.275Z</time></trkpt><trkpt lat="44.3071183" lon="7.215455"><ele>812.0</ele><time>2026-05-03T13:54:14.275Z</time></trkpt><trkpt lat="44.3071233" lon="7.21581"><ele>811.0</ele><time>2026-05-03T13:54:15.275Z</time></trkpt><trkpt lat="44.30713" lon="7.2161517"><ele>810.0</ele><time>2026-05-03T13:54:16.275Z</time></trkpt><trkpt lat="44.3071417" lon="7.2164917"><ele>809.5</ele><time>2026-05-03T13:54:17.275Z</time></trkpt><trkpt lat="44.3071383" lon="7.2168333"><ele>809.0</ele><time>2026-05-03T13:54:18.275Z</time></trkpt><trkpt lat="44.307135" lon="7.21717"><ele>809.0</ele><time>2026-05-03T13:54:19.275Z</time></trkpt><trkpt lat="44.3071367" lon="7.217505"><ele>809.0</ele><time>2026-05-03T13:54:20.275Z</time></trkpt><trkpt lat="44.30713" lon="7.2178333"><ele>809.5</ele><time>2026-05-03T13:54:21.275Z</time></trkpt><trkpt lat="44.3071317" lon="7.2181683"><ele>810.0</ele><time>2026-05-03T13:54:22.275Z</time></trkpt><trkpt lat="44.307125" lon="7.2184917"><ele>810.0</ele><time>2026-05-03T13:54:23.275Z</time></trkpt><trkpt lat="44.307125" lon="7.2188083"><ele>810.0</ele><time>2026-05-03T13:54:24.275Z</time></trkpt><trkpt lat="44.30713" lon="7.21912"><ele>811.3333333333333</ele><time>2026-05-03T13:54:25.275Z</time></trkpt><trkpt lat="44.3071233" lon="7.21943"><ele>812.6666666666666</ele><time>2026-05-03T13:54:26.275Z</time></trkpt><trkpt lat="44.30712" lon="7.2197167"><ele>814.0</ele><time>2026-05-03T13:54:27.276Z</time></trkpt><trkpt lat="44.3071183" lon="7.2200067"><ele>815.0</ele><time>2026-05-03T13:54:28.275Z</time></trkpt><trkpt lat="44.3071217" lon="7.220285"><ele>816.0</ele><time>2026-05-03T13:54:29.275Z</time></trkpt><trkpt lat="44.3071317" lon="7.2205617"><ele>817.0</ele><time>2026-05-03T13:54:30.275Z</time></trkpt><trkpt lat="44.3071417" lon="7.2208217"><ele>817.0</ele><time>2026-05-03T13:54:31.275Z</time></trkpt><trkpt lat="44.3071567" lon="7.2210783"><ele>817.0</ele><time>2026-05-03T13:54:32.276Z</time></trkpt><trkpt lat="44.3071717" lon="7.2213183"><ele>817.0</ele><time>2026-05-03T13:54:33.275Z</time></trkpt><trkpt lat="44.3071967" lon="7.22155"><ele>817.3333333333333</ele><time>2026-05-03T13:54:34.275Z</time></trkpt><trkpt lat="44.3072283" lon="7.22178"><ele>817.6666666666667</ele><time>2026-05-03T13:54:35.275Z</time></trkpt><trkpt lat="44.3072633" lon="7.2220083"><ele>818.0</ele><time>2026-05-03T13:54:36.275Z</time></trkpt><trkpt lat="44.3073" lon="7.2222483"><ele>814.6666666666667</ele><time>2026-05-03T13:54:37.275Z</time></trkpt><trkpt lat="44.30733" lon="7.2224967"><ele>811.3333333333333</ele><time>2026-05-03T13:54:38.276Z</time></trkpt><trkpt lat="44.3073567" lon="7.2227583"><ele>808.0</ele><time>2026-05-03T13:54:39.275Z</time></trkpt><trkpt lat="44.3073867" lon="7.2230267"><ele>808.6666666666666</ele><time>2026-05-03T13:54:40.275Z</time></trkpt><trkpt lat="44.30742" lon="7.2232833"><ele>809.3333333333333</ele><time>2026-05-03T13:54:41.275Z</time></trkpt><trkpt lat="44.3074533" lon="7.22355"><ele>810.0</ele><time>2026-05-03T13:54:42.275Z</time></trkpt><trkpt lat="44.3074817" lon="7.2238267"><ele>809.6666666666667</ele><time>2026-05-03T13:54:43.275Z</time></trkpt><trkpt lat="44.30749" lon="7.2241"><ele>809.3333333333334</ele><time>2026-05-03T13:54:44.275Z</time></trkpt><trkpt lat="44.3074833" lon="7.2244"><ele>809.0</ele><time>2026-05-03T13:54:45.275Z</time></trkpt><trkpt lat="44.3074733" lon="7.2246933"><ele>808.3333333333334</ele><time>2026-05-03T13:54:46.275Z</time></trkpt><trkpt lat="44.3074417" lon="7.2249917"><ele>807.6666666666667</ele><time>2026-05-03T13:54:47.275Z</time></trkpt><trkpt lat="44.3074167" lon="7.2252917"><ele>807.0</ele><time>2026-05-03T13:54:48.276Z</time></trkpt><trkpt lat="44.3073883" lon="7.2255967"><ele>805.6666666666667</ele><time>2026-05-03T13:54:49.276Z</time></trkpt><trkpt lat="44.3073633" lon="7.2259083"><ele>804.3333333333334</ele><time>2026-05-03T13:54:50.275Z</time></trkpt><trkpt lat="44.3073383" lon="7.2262167"><ele>803.0</ele><time>2026-05-03T13:54:51.275Z</time></trkpt><trkpt lat="44.307315" lon="7.2265217"><ele>802.6666666666667</ele><time>2026-05-03T13:54:52.275Z</time></trkpt><trkpt lat="44.307295" lon="7.2268333"><ele>802.3333333333333</ele><time>2026-05-03T13:54:53.275Z</time></trkpt><trkpt lat="44.3072783" lon="7.2271417"><ele>802.0</ele><time>2026-05-03T13:54:54.276Z</time></trkpt><trkpt lat="44.30725" lon="7.22745"><ele>802.3333333333333</ele><time>2026-05-03T13:54:55.275Z</time></trkpt><trkpt lat="44.307225" lon="7.2277617"><ele>802.6666666666667</ele><time>2026-05-03T13:54:56.275Z</time></trkpt><trkpt lat="44.3072083" lon="7.2280733"><ele>803.0</ele><time>2026-05-03T13:54:57.275Z</time></trkpt><trkpt lat="44.3071833" lon="7.2283833"><ele>801.6666666666667</ele><time>2026-05-03T13:54:58.275Z</time></trkpt><trkpt lat="44.3071567" lon="7.2286933"><ele>800.3333333333333</ele><time>2026-05-03T13:54:59.276Z</time></trkpt><trkpt lat="44.307135" lon="7.2290033"><ele>799.0</ele><time>2026-05-03T13:55:00.275Z</time></trkpt><trkpt lat="44.30711" lon="7.2293217"><ele>798.6666666666666</ele><time>2026-05-03T13:55:01.275Z</time></trkpt><trkpt lat="44.3070883" lon="7.2296333"><ele>798.3333333333333</ele><time>2026-05-03T13:55:02.275Z</time></trkpt><trkpt lat="44.3070667" lon="7.2299467"><ele>798.0</ele><time>2026-05-03T13:55:03.275Z</time></trkpt><trkpt lat="44.3070483" lon="7.2302517"><ele>797.6666666666667</ele><time>2026-05-03T13:55:04.275Z</time></trkpt><trkpt lat="44.3070233" lon="7.2305583"><ele>797.3333333333334</ele><time>2026-05-03T13:55:05.275Z</time></trkpt><trkpt lat="44.3070017" lon="7.2308667"><ele>797.0</ele><time>2026-05-03T13:55:06.275Z</time></trkpt><trkpt lat="44.30699" lon="7.2311667"><ele>796.6666666666667</ele><time>2026-05-03T13:55:07.275Z</time></trkpt><trkpt lat="44.30699" lon="7.2314417"><ele>796.3333333333333</ele><time>2026-05-03T13:55:08.275Z</time></trkpt><trkpt lat="44.3070167" lon="7.231715"><ele>796.0</ele><time>2026-05-03T13:55:09.275Z</time></trkpt><trkpt lat="44.30707" lon="7.2319667"><ele>796.0</ele><time>2026-05-03T13:55:10.275Z</time></trkpt><trkpt lat="44.3071617" lon="7.2322167"><ele>796.0</ele><time>2026-05-03T13:55:11.276Z</time></trkpt><trkpt lat="44.3072633" lon="7.2324733"><ele>796.0</ele><time>2026-05-03T13:55:12.276Z</time></trkpt><trkpt lat="44.30738" lon="7.23274"><ele>796.3333333333333</ele><time>2026-05-03T13:55:13.275Z</time></trkpt><trkpt lat="44.3074883" lon="7.2330033"><ele>796.6666666666667</ele><time>2026-05-03T13:55:14.275Z</time></trkpt><trkpt lat="44.3075917" lon="7.2332517"><ele>797.0</ele><time>2026-05-03T13:55:15.275Z</time></trkpt><trkpt lat="44.3076867" lon="7.2334867"><ele>797.0</ele><time>2026-05-03T13:55:16.276Z</time></trkpt><trkpt lat="44.3077833" lon="7.2337067"><ele>797.0</ele><time>2026-05-03T13:55:17.275Z</time></trkpt><trkpt lat="44.3078783" lon="7.23394"><ele>797.0</ele><time>2026-05-03T13:55:18.275Z</time></trkpt><trkpt lat="44.3079617" lon="7.2341667"><ele>798.0</ele><time>2026-05-03T13:55:19.275Z</time></trkpt><trkpt lat="44.3080067" lon="7.2344283"><ele>799.0</ele><time>2026-05-03T13:55:20.275Z</time></trkpt><trkpt lat="44.3080233" lon="7.23471"><ele>800.0</ele><time>2026-05-03T13:55:21.275Z</time></trkpt><trkpt lat="44.3080383" lon="7.2350033"><ele>800.6666666666667</ele><time>2026-05-03T13:55:22.276Z</time></trkpt><trkpt lat="44.3080383" lon="7.2352917"><ele>801.3333333333333</ele><time>2026-05-03T13:55:23.275Z</time></trkpt><trkpt lat="44.3080267" lon="7.2355767"><ele>802.0</ele><time>2026-05-03T13:55:24.275Z</time></trkpt><trkpt lat="44.3080283" lon="7.23585"><ele>804.6666666666666</ele><time>2026-05-03T13:55:25.275Z</time></trkpt><trkpt lat="44.3080283" lon="7.2361167"><ele>807.3333333333333</ele><time>2026-05-03T13:55:26.276Z</time></trkpt><trkpt lat="44.3080267" lon="7.2363867"><ele>810.0</ele><time>2026-05-03T13:55:27.276Z</time></trkpt><trkpt lat="44.30802" lon="7.236655"><ele>814.0</ele><time>2026-05-03T13:55:28.275Z</time></trkpt><trkpt lat="44.30801" lon="7.2369233"><ele>818.0</ele><time>2026-05-03T13:55:29.275Z</time></trkpt><trkpt lat="44.3080183" lon="7.23719"><ele>822.0</ele><time>2026-05-03T13:55:30.275Z</time></trkpt><trkpt lat="44.30805" lon="7.2374533"><ele>818.0</ele><time>2026-05-03T13:55:31.275Z</time></trkpt><trkpt lat="44.3081033" lon="7.237715"><ele>814.0</ele><time>2026-05-03T13:55:32.276Z</time></trkpt><trkpt lat="44.30819" lon="7.2379767"><ele>810.0</ele><time>2026-05-03T13:55:33.275Z</time></trkpt><trkpt lat="44.3083" lon="7.23823"><ele>810.0</ele><time>2026-05-03T13:55:34.276Z</time></trkpt><trkpt lat="44.3084" lon="7.23847"><ele>810.0</ele><time>2026-05-03T13:55:35.275Z</time></trkpt><trkpt lat="44.3084817" lon="7.2387083"><ele>810.0</ele><time>2026-05-03T13:55:36.275Z</time></trkpt><trkpt lat="44.30856" lon="7.238945"><ele>813.3333333333333</ele><time>2026-05-03T13:55:37.275Z</time></trkpt><trkpt lat="44.3086317" lon="7.23917"><ele>816.6666666666666</ele><time>2026-05-03T13:55:38.275Z</time></trkpt><trkpt lat="44.3087017" lon="7.2393833"><ele>820.0</ele><time>2026-05-03T13:55:39.275Z</time></trkpt><trkpt lat="44.308755" lon="7.2395917"><ele>819.3333333333333</ele><time>2026-05-03T13:55:40.275Z</time></trkpt><trkpt lat="44.3088183" lon="7.239805"><ele>818.6666666666667</ele><time>2026-05-03T13:55:41.275Z</time></trkpt><trkpt lat="44.3088917" lon="7.240025"><ele>818.0</ele><time>2026-05-03T13:55:42.275Z</time></trkpt><trkpt lat="44.3089617" lon="7.2402533"><ele>814.0</ele><time>2026-05-03T13:55:43.276Z</time></trkpt><trkpt lat="44.3090317" lon="7.2404783"><ele>810.0</ele><time>2026-05-03T13:55:44.275Z</time></trkpt><trkpt lat="44.3091033" lon="7.2407"><ele>806.0</ele><time>2026-05-03T13:55:45.275Z</time></trkpt><trkpt lat="44.3091667" lon="7.2409117"><ele>806.0</ele><time>2026-05-03T13:55:46.275Z</time></trkpt><trkpt lat="44.309215" lon="7.2411083"><ele>806.0</ele><time>2026-05-03T13:55:47.275Z</time></trkpt><trkpt lat="44.30924" lon="7.2412983"><ele>806.0</ele><time>2026-05-03T13:55:48.276Z</time></trkpt><trkpt lat="44.3092533" lon="7.24152"><ele>806.0</ele><time>2026-05-03T13:55:49.275Z</time></trkpt><trkpt lat="44.3092317" lon="7.2417383"><ele>806.0</ele><time>2026-05-03T13:55:50.275Z</time></trkpt><trkpt lat="44.3091883" lon="7.2419683"><ele>806.0</ele><time>2026-05-03T13:55:51.275Z</time></trkpt><trkpt lat="44.3091267" lon="7.242225"><ele>806.0</ele><time>2026-05-03T13:55:52.276Z</time></trkpt><trkpt lat="44.3090617" lon="7.2424983"><ele>806.0</ele><time>2026-05-03T13:55:53.275Z</time></trkpt><trkpt lat="44.3089867" lon="7.2427783"><ele>806.0</ele><time>2026-05-03T13:55:54.275Z</time></trkpt><trkpt lat="44.3089083" lon="7.243075"><ele>806.0</ele><time>2026-05-03T13:55:55.275Z</time></trkpt><trkpt lat="44.30883" lon="7.24336"><ele>808.0</ele><time>2026-05-03T13:55:56.275Z</time></trkpt><trkpt lat="44.3087567" lon="7.2436233"><ele>810.0</ele><time>2026-05-03T13:55:57.275Z</time></trkpt><trkpt lat="44.3086933" lon="7.243885"><ele>812.0</ele><time>2026-05-03T13:55:58.275Z</time></trkpt><trkpt lat="44.3086317" lon="7.2441317"><ele>812.0</ele><time>2026-05-03T13:55:59.275Z</time></trkpt><trkpt lat="44.3085733" lon="7.24436"><ele>812.0</ele><time>2026-05-03T13:56:00.275Z</time></trkpt><trkpt lat="44.3085233" lon="7.24457"><ele>812.0</ele><time>2026-05-03T13:56:01.275Z</time></trkpt><trkpt lat="44.308475" lon="7.24477"><ele>811.75</ele><time>2026-05-03T13:56:02.275Z</time></trkpt><trkpt lat="44.3084283" lon="7.24496"><ele>811.5</ele><time>2026-05-03T13:56:03.276Z</time></trkpt><trkpt lat="44.3083833" lon="7.245155"><ele>811.25</ele><time>2026-05-03T13:56:04.275Z</time></trkpt><trkpt lat="44.3083317" lon="7.2453383"><ele>811.0</ele><time>2026-05-03T13:56:05.276Z</time></trkpt><trkpt lat="44.3082717" lon="7.24552"><ele>810.5</ele><time>2026-05-03T13:56:06.275Z</time></trkpt><trkpt lat="44.3082067" lon="7.2457033"><ele>810.0</ele><time>2026-05-03T13:56:07.275Z</time></trkpt><trkpt lat="44.308135" lon="7.245885"><ele>809.5</ele><time>2026-05-03T13:56:08.275Z</time></trkpt><trkpt lat="44.3080617" lon="7.2460717"><ele>809.0</ele><time>2026-05-03T13:56:09.275Z</time></trkpt><trkpt lat="44.3079867" lon="7.2462567"><ele>811.3333333333334</ele><time>2026-05-03T13:56:10.275Z</time></trkpt><trkpt lat="44.3079183" lon="7.246475"><ele>813.6666666666667</ele><time>2026-05-03T13:56:11.276Z</time></trkpt><trkpt lat="44.3078417" lon="7.2466833"><ele>816.0</ele><time>2026-05-03T13:56:12.275Z</time></trkpt><trkpt lat="44.307775" lon="7.2469067"><ele>816.0</ele><time>2026-05-03T13:56:13.275Z</time></trkpt><trkpt lat="44.3077117" lon="7.24713"><ele>816.0</ele><time>2026-05-03T13:56:14.276Z</time></trkpt><trkpt lat="44.3076483" lon="7.24735"><ele>816.0</ele><time>2026-05-03T13:56:15.275Z</time></trkpt><trkpt lat="44.3075867" lon="7.24757"><ele>815.0</ele><time>2026-05-03T13:56:16.276Z</time></trkpt><trkpt lat="44.3075383" lon="7.2478033"><ele>814.0</ele><time>2026-05-03T13:56:17.275Z</time></trkpt><trkpt lat="44.307505" lon="7.2480267"><ele>813.0</ele><time>2026-05-03T13:56:18.275Z</time></trkpt><trkpt lat="44.3074817" lon="7.248235"><ele>812.3333333333333</ele><time>2026-05-03T13:56:19.276Z</time></trkpt><trkpt lat="44.30747" lon="7.2484533"><ele>811.6666666666666</ele><time>2026-05-03T13:56:20.275Z</time></trkpt><trkpt lat="44.3074617" lon="7.2486617"><ele>811.0</ele><time>2026-05-03T13:56:21.275Z</time></trkpt><trkpt lat="44.3074433" lon="7.248885"><ele>810.6666666666666</ele><time>2026-05-03T13:56:22.275Z</time></trkpt><trkpt lat="44.3074117" lon="7.249105"><ele>810.3333333333333</ele><time>2026-05-03T13:56:23.275Z</time></trkpt><trkpt lat="44.3073767" lon="7.24934"><ele>810.0</ele><time>2026-05-03T13:56:24.276Z</time></trkpt><trkpt lat="44.307335" lon="7.2495783"><ele>810.6666666666667</ele><time>2026-05-03T13:56:25.275Z</time></trkpt><trkpt lat="44.307285" lon="7.249805"><ele>811.3333333333334</ele><time>2026-05-03T13:56:26.275Z</time></trkpt><trkpt lat="44.3072433" lon="7.2500333"><ele>812.0</ele><time>2026-05-03T13:56:27.275Z</time></trkpt><trkpt lat="44.3071917" lon="7.2502567"><ele>811.6666666666667</ele><time>2026-05-03T13:56:28.275Z</time></trkpt><trkpt lat="44.3071467" lon="7.25049"><ele>811.3333333333333</ele><time>2026-05-03T13:56:29.275Z</time></trkpt><trkpt lat="44.307105" lon="7.2507267"><ele>811.0</ele><time>2026-05-03T13:56:30.275Z</time></trkpt><trkpt lat="44.3070617" lon="7.250965"><ele>811.0</ele><time>2026-05-03T13:56:31.275Z</time></trkpt><trkpt lat="44.3070117" lon="7.2511967"><ele>811.0</ele><time>2026-05-03T13:56:32.275Z</time></trkpt><trkpt lat="44.3069583" lon="7.251435"><ele>811.0</ele><time>2026-05-03T13:56:33.275Z</time></trkpt><trkpt lat="44.30691" lon="7.2516767"><ele>811.3333333333333</ele><time>2026-05-03T13:56:34.276Z</time></trkpt><trkpt lat="44.306865" lon="7.251915"><ele>811.6666666666667</ele><time>2026-05-03T13:56:35.275Z</time></trkpt><trkpt lat="44.3068167" lon="7.2521417"><ele>812.0</ele><time>2026-05-03T13:56:36.275Z</time></trkpt><trkpt lat="44.3067783" lon="7.25237"><ele>812.0</ele><time>2026-05-03T13:56:37.275Z</time></trkpt><trkpt lat="44.30674" lon="7.2525883"><ele>812.0</ele><time>2026-05-03T13:56:38.275Z</time></trkpt><trkpt lat="44.306705" lon="7.2527917"><ele>812.0</ele><time>2026-05-03T13:56:39.276Z</time></trkpt><trkpt lat="44.3066683" lon="7.2530033"><ele>811.25</ele><time>2026-05-03T13:56:40.275Z</time></trkpt><trkpt lat="44.3066317" lon="7.2532117"><ele>810.5</ele><time>2026-05-03T13:56:41.275Z</time></trkpt><trkpt lat="44.3066133" lon="7.2534083"><ele>809.75</ele><time>2026-05-03T13:56:42.275Z</time></trkpt><trkpt lat="44.3066233" lon="7.2536033"><ele>809.0</ele><time>2026-05-03T13:56:43.275Z</time></trkpt><trkpt lat="44.306675" lon="7.2537933"><ele>809.0</ele><time>2026-05-03T13:56:44.275Z</time></trkpt><trkpt lat="44.3067417" lon="7.25398"><ele>809.0</ele><time>2026-05-03T13:56:45.275Z</time></trkpt><trkpt lat="44.3068267" lon="7.2541867"><ele>809.0</ele><time>2026-05-03T13:56:46.275Z</time></trkpt><trkpt lat="44.3069183" lon="7.254405"><ele>809.0</ele><time>2026-05-03T13:56:47.275Z</time></trkpt><trkpt lat="44.3070117" lon="7.2546267"><ele>809.0</ele><time>2026-05-03T13:56:48.275Z</time></trkpt><trkpt lat="44.3071067" lon="7.2548567"><ele>809.0</ele><time>2026-05-03T13:56:49.276Z</time></trkpt><trkpt lat="44.3072067" lon="7.2550817"><ele>806.3333333333334</ele><time>2026-05-03T13:56:50.275Z</time></trkpt><trkpt lat="44.3072933" lon="7.2553167"><ele>803.6666666666667</ele><time>2026-05-03T13:56:51.275Z</time></trkpt><trkpt lat="44.3073733" lon="7.25554"><ele>801.0</ele><time>2026-05-03T13:56:52.275Z</time></trkpt><trkpt lat="44.3074583" lon="7.2557767"><ele>800.0</ele><time>2026-05-03T13:56:53.275Z</time></trkpt><trkpt lat="44.307525" lon="7.2560417"><ele>799.0</ele><time>2026-05-03T13:56:54.275Z</time></trkpt><trkpt lat="44.3075867" lon="7.2563033"><ele>798.0</ele><time>2026-05-03T13:56:55.276Z</time></trkpt><trkpt lat="44.3076467" lon="7.256575"><ele>797.0</ele><time>2026-05-03T13:56:56.275Z</time></trkpt><trkpt lat="44.3077033" lon="7.2568517"><ele>796.0</ele><time>2026-05-03T13:56:57.276Z</time></trkpt><trkpt lat="44.3077667" lon="7.2571217"><ele>795.0</ele><time>2026-05-03T13:56:58.275Z</time></trkpt><trkpt lat="44.3078367" lon="7.2573983"><ele>793.6666666666667</ele><time>2026-05-03T13:56:59.275Z</time></trkpt><trkpt lat="44.3079083" lon="7.2576833"><ele>792.3333333333334</ele><time>2026-05-03T13:57:00.275Z</time></trkpt><trkpt lat="44.3079733" lon="7.2579533"><ele>791.0</ele><time>2026-05-03T13:57:01.276Z</time></trkpt><trkpt lat="44.3080433" lon="7.25822"><ele>788.0</ele><time>2026-05-03T13:57:02.276Z</time></trkpt><trkpt lat="44.3081067" lon="7.25847"><ele>785.0</ele><time>2026-05-03T13:57:03.275Z</time></trkpt><trkpt lat="44.3081667" lon="7.2587217"><ele>782.0</ele><time>2026-05-03T13:57:04.276Z</time></trkpt><trkpt lat="44.308235" lon="7.2589933"><ele>782.0</ele><time>2026-05-03T13:57:05.275Z</time></trkpt><trkpt lat="44.308305" lon="7.2592583"><ele>782.0</ele><time>2026-05-03T13:57:06.275Z</time></trkpt><trkpt lat="44.3083717" lon="7.2595233"><ele>782.0</ele><time>2026-05-03T13:57:07.275Z</time></trkpt><trkpt lat="44.3084317" lon="7.259785"><ele>781.0</ele><time>2026-05-03T13:57:08.275Z</time></trkpt><trkpt lat="44.3084867" lon="7.260045"><ele>780.0</ele><time>2026-05-03T13:57:09.275Z</time></trkpt><trkpt lat="44.3085233" lon="7.2603117"><ele>779.0</ele><time>2026-05-03T13:57:10.275Z</time></trkpt><trkpt lat="44.30855" lon="7.2605883"><ele>777.6666666666667</ele><time>2026-05-03T13:57:11.275Z</time></trkpt><trkpt lat="44.3085717" lon="7.2608767"><ele>776.3333333333333</ele><time>2026-05-03T13:57:12.275Z</time></trkpt><trkpt lat="44.3085683" lon="7.261165"><ele>775.0</ele><time>2026-05-03T13:57:13.275Z</time></trkpt><trkpt lat="44.3085617" lon="7.261455"><ele>774.0</ele><time>2026-05-03T13:57:14.275Z</time></trkpt><trkpt lat="44.3085567" lon="7.2617483"><ele>773.0</ele><time>2026-05-03T13:57:15.275Z</time></trkpt><trkpt lat="44.3085467" lon="7.26206"><ele>772.0</ele><time>2026-05-03T13:57:16.275Z</time></trkpt><trkpt lat="44.30854" lon="7.2623683"><ele>771.0</ele><time>2026-05-03T13:57:17.275Z</time></trkpt><trkpt lat="44.308535" lon="7.26269"><ele>770.0</ele><time>2026-05-03T13:57:18.275Z</time></trkpt><trkpt lat="44.3085333" lon="7.2629983"><ele>769.0</ele><time>2026-05-03T13:57:19.276Z</time></trkpt><trkpt lat="44.3085267" lon="7.263295"><ele>768.0</ele><time>2026-05-03T13:57:20.275Z</time></trkpt><trkpt lat="44.3085283" lon="7.2635867"><ele>767.0</ele><time>2026-05-03T13:57:21.275Z</time></trkpt><trkpt lat="44.308525" lon="7.2638683"><ele>766.3333333333333</ele><time>2026-05-03T13:57:22.276Z</time></trkpt><trkpt lat="44.3085233" lon="7.264155"><ele>765.6666666666666</ele><time>2026-05-03T13:57:23.275Z</time></trkpt><trkpt lat="44.3085167" lon="7.2644333"><ele>765.0</ele><time>2026-05-03T13:57:24.275Z</time></trkpt><trkpt lat="44.3085133" lon="7.2647117"><ele>765.3333333333334</ele><time>2026-05-03T13:57:25.275Z</time></trkpt><trkpt lat="44.308505" lon="7.2649917"><ele>765.6666666666667</ele><time>2026-05-03T13:57:26.275Z</time></trkpt><trkpt lat="44.3085" lon="7.2652833"><ele>766.0</ele><time>2026-05-03T13:57:27.275Z</time></trkpt><trkpt lat="44.308495" lon="7.2655733"><ele>765.6666666666667</ele><time>2026-05-03T13:57:28.275Z</time></trkpt><trkpt lat="44.30849" lon="7.2658633"><ele>765.3333333333334</ele><time>2026-05-03T13:57:29.275Z</time></trkpt><trkpt lat="44.308485" lon="7.2661533"><ele>765.0</ele><time>2026-05-03T13:57:30.275Z</time></trkpt><trkpt lat="44.3084833" lon="7.26645"><ele>764.0</ele><time>2026-05-03T13:57:31.275Z</time></trkpt><trkpt lat="44.30848" lon="7.26674"><ele>763.0</ele><time>2026-05-03T13:57:32.275Z</time></trkpt><trkpt lat="44.3084783" lon="7.2670217"><ele>762.0</ele><time>2026-05-03T13:57:33.275Z</time></trkpt><trkpt lat="44.30848" lon="7.267325"><ele>761.6666666666666</ele><time>2026-05-03T13:57:34.275Z</time></trkpt><trkpt lat="44.3084867" lon="7.2676133"><ele>761.3333333333333</ele><time>2026-05-03T13:57:35.275Z</time></trkpt><trkpt lat="44.3085" lon="7.2679167"><ele>761.0</ele><time>2026-05-03T13:57:36.275Z</time></trkpt><trkpt lat="44.3085217" lon="7.268225"><ele>760.6666666666666</ele><time>2026-05-03T13:57:37.275Z</time></trkpt><trkpt lat="44.3085517" lon="7.2685283"><ele>760.3333333333334</ele><time>2026-05-03T13:57:38.276Z</time></trkpt><trkpt lat="44.3085833" lon="7.268825"><ele>760.0</ele><time>2026-05-03T13:57:39.275Z</time></trkpt><trkpt lat="44.308605" lon="7.2691267"><ele>760.0</ele><time>2026-05-03T13:57:40.275Z</time></trkpt><trkpt lat="44.3086233" lon="7.2694267"><ele>760.0</ele><time>2026-05-03T13:57:41.275Z</time></trkpt><trkpt lat="44.3086467" lon="7.26973"><ele>760.0</ele><time>2026-05-03T13:57:42.275Z</time></trkpt><trkpt lat="44.308665" lon="7.270035"><ele>760.3333333333334</ele><time>2026-05-03T13:57:43.275Z</time></trkpt><trkpt lat="44.3086917" lon="7.2703467"><ele>760.6666666666666</ele><time>2026-05-03T13:57:44.275Z</time></trkpt><trkpt lat="44.3087117" lon="7.2706483"><ele>761.0</ele><time>2026-05-03T13:57:45.276Z</time></trkpt><trkpt lat="44.3087333" lon="7.2709417"><ele>761.0</ele><time>2026-05-03T13:57:46.275Z</time></trkpt><trkpt lat="44.3087567" lon="7.2712417"><ele>761.0</ele><time>2026-05-03T13:57:47.275Z</time></trkpt><trkpt lat="44.308785" lon="7.27155"><ele>761.0</ele><time>2026-05-03T13:57:48.275Z</time></trkpt><trkpt lat="44.3088033" lon="7.2718567"><ele>759.6666666666666</ele><time>2026-05-03T13:57:49.275Z</time></trkpt><trkpt lat="44.3088217" lon="7.2721683"><ele>758.3333333333334</ele><time>2026-05-03T13:57:50.276Z</time></trkpt><trkpt lat="44.308845" lon="7.2724717"><ele>757.0</ele><time>2026-05-03T13:57:51.275Z</time></trkpt><trkpt lat="44.308865" lon="7.2727717"><ele>756.0</ele><time>2026-05-03T13:57:52.275Z</time></trkpt><trkpt lat="44.30888" lon="7.2730883"><ele>755.0</ele><time>2026-05-03T13:57:53.275Z</time></trkpt><trkpt lat="44.3089017" lon="7.2734033"><ele>753.6666666666666</ele><time>2026-05-03T13:57:54.276Z</time></trkpt><trkpt lat="44.308925" lon="7.273715"><ele>752.3333333333334</ele><time>2026-05-03T13:57:55.275Z</time></trkpt><trkpt lat="44.3089467" lon="7.2740167"><ele>751.0</ele><time>2026-05-03T13:57:56.275Z</time></trkpt><trkpt lat="44.3089717" lon="7.2743217"><ele>751.0</ele><time>2026-05-03T13:57:57.275Z</time></trkpt><trkpt lat="44.3089917" lon="7.2746133"><ele>751.0</ele><time>2026-05-03T13:57:58.275Z</time></trkpt><trkpt lat="44.3090133" lon="7.274905"><ele>751.0</ele><time>2026-05-03T13:57:59.275Z</time></trkpt><trkpt lat="44.30904" lon="7.27519"><ele>751.0</ele><time>2026-05-03T13:58:00.275Z</time></trkpt><trkpt lat="44.3090617" lon="7.2754867"><ele>751.0</ele><time>2026-05-03T13:58:01.275Z</time></trkpt><trkpt lat="44.30909" lon="7.27576"><ele>751.0</ele><time>2026-05-03T13:58:02.275Z</time></trkpt><trkpt lat="44.3091067" lon="7.27603"><ele>751.0</ele><time>2026-05-03T13:58:03.275Z</time></trkpt><trkpt lat="44.3091133" lon="7.2762883"><ele>751.0</ele><time>2026-05-03T13:58:04.276Z</time></trkpt><trkpt lat="44.309125" lon="7.2765267"><ele>751.0</ele><time>2026-05-03T13:58:05.275Z</time></trkpt><trkpt lat="44.3091383" lon="7.2767533"><ele>751.0</ele><time>2026-05-03T13:58:06.275Z</time></trkpt><trkpt lat="44.3091583" lon="7.2769717"><ele>751.0</ele><time>2026-05-03T13:58:07.275Z</time></trkpt><trkpt lat="44.30917" lon="7.2771783"><ele>751.0</ele><time>2026-05-03T13:58:08.275Z</time></trkpt><trkpt lat="44.3092017" lon="7.2773833"><ele>750.75</ele><time>2026-05-03T13:58:09.275Z</time></trkpt><trkpt lat="44.3092" lon="7.277565"><ele>750.5</ele><time>2026-05-03T13:58:10.275Z</time></trkpt><trkpt lat="44.3091667" lon="7.2777267"><ele>750.25</ele><time>2026-05-03T13:58:11.275Z</time></trkpt><trkpt lat="44.3091217" lon="7.277885"><ele>750.0</ele><time>2026-05-03T13:58:12.276Z</time></trkpt><trkpt lat="44.3090483" lon="7.2780317"><ele>750.0</ele><time>2026-05-03T13:58:13.275Z</time></trkpt><trkpt lat="44.30894" lon="7.278175"><ele>750.0</ele><time>2026-05-03T13:58:14.275Z</time></trkpt><trkpt lat="44.3088267" lon="7.2783183"><ele>750.0</ele><time>2026-05-03T13:58:15.275Z</time></trkpt><trkpt lat="44.3087133" lon="7.2784733"><ele>751.0</ele><time>2026-05-03T13:58:16.275Z</time></trkpt><trkpt lat="44.3085983" lon="7.2786167"><ele>752.0</ele><time>2026-05-03T13:58:17.275Z</time></trkpt><trkpt lat="44.3084967" lon="7.278765"><ele>753.0</ele><time>2026-05-03T13:58:18.275Z</time></trkpt><trkpt lat="44.3083833" lon="7.27893"><ele>752.0</ele><time>2026-05-03T13:58:19.276Z</time></trkpt><trkpt lat="44.30828" lon="7.2790917"><ele>751.0</ele><time>2026-05-03T13:58:20.275Z</time></trkpt><trkpt lat="44.3081717" lon="7.2792517"><ele>750.0</ele><time>2026-05-03T13:58:21.275Z</time></trkpt><trkpt lat="44.3080567" lon="7.279415"><ele>751.3333333333334</ele><time>2026-05-03T13:58:22.275Z</time></trkpt><trkpt lat="44.3079333" lon="7.2796"><ele>752.6666666666667</ele><time>2026-05-03T13:58:23.275Z</time></trkpt><trkpt lat="44.3078133" lon="7.2797817"><ele>754.0</ele><time>2026-05-03T13:58:24.275Z</time></trkpt><trkpt lat="44.3077117" lon="7.279965"><ele>754.0</ele><time>2026-05-03T13:58:25.275Z</time></trkpt><trkpt lat="44.30761" lon="7.2801767"><ele>754.0</ele><time>2026-05-03T13:58:26.275Z</time></trkpt><trkpt lat="44.3075283" lon="7.2803867"><ele>754.0</ele><time>2026-05-03T13:58:27.275Z</time></trkpt><trkpt lat="44.3074583" lon="7.2806083"><ele>752.6666666666667</ele><time>2026-05-03T13:58:28.275Z</time></trkpt><trkpt lat="44.307395" lon="7.28083"><ele>751.3333333333334</ele><time>2026-05-03T13:58:29.275Z</time></trkpt><trkpt lat="44.3073267" lon="7.2810683"><ele>750.0</ele><time>2026-05-03T13:58:30.275Z</time></trkpt><trkpt lat="44.307245" lon="7.2812867"><ele>752.6666666666666</ele><time>2026-05-03T13:58:31.275Z</time></trkpt><trkpt lat="44.307145" lon="7.28149"><ele>755.3333333333333</ele><time>2026-05-03T13:58:32.275Z</time></trkpt><trkpt lat="44.3070517" lon="7.281675"><ele>758.0</ele><time>2026-05-03T13:58:33.275Z</time></trkpt><trkpt lat="44.3069683" lon="7.2818733"><ele>758.0</ele><time>2026-05-03T13:58:34.275Z</time></trkpt><trkpt lat="44.30691" lon="7.2820683"><ele>758.0</ele><time>2026-05-03T13:58:35.275Z</time></trkpt><trkpt lat="44.3068733" lon="7.2823067"><ele>758.0</ele><time>2026-05-03T13:58:36.275Z</time></trkpt><trkpt lat="44.3068667" lon="7.2825583"><ele>758.0</ele><time>2026-05-03T13:58:37.275Z</time></trkpt><trkpt lat="44.3068917" lon="7.28283"><ele>758.0</ele><time>2026-05-03T13:58:38.276Z</time></trkpt><trkpt lat="44.3069383" lon="7.2831"><ele>758.0</ele><time>2026-05-03T13:58:39.275Z</time></trkpt><trkpt lat="44.3069917" lon="7.2833483"><ele>759.0</ele><time>2026-05-03T13:58:40.275Z</time></trkpt><trkpt lat="44.30705" lon="7.28359"><ele>760.0</ele><time>2026-05-03T13:58:41.275Z</time></trkpt><trkpt lat="44.30711" lon="7.2838217"><ele>761.0</ele><time>2026-05-03T13:58:42.275Z</time></trkpt><trkpt lat="44.30717" lon="7.2840533"><ele>762.3333333333333</ele><time>2026-05-03T13:58:43.275Z</time></trkpt><trkpt lat="44.30721" lon="7.28427"><ele>763.6666666666666</ele><time>2026-05-03T13:58:44.275Z</time></trkpt><trkpt lat="44.307235" lon="7.2844983"><ele>765.0</ele><time>2026-05-03T13:58:45.275Z</time></trkpt><trkpt lat="44.3072433" lon="7.28473"><ele>759.0</ele><time>2026-05-03T13:58:46.276Z</time></trkpt><trkpt lat="44.3072583" lon="7.2849583"><ele>753.0</ele><time>2026-05-03T13:58:47.275Z</time></trkpt><trkpt lat="44.3072717" lon="7.2851967"><ele>747.0</ele><time>2026-05-03T13:58:48.275Z</time></trkpt><trkpt lat="44.3072633" lon="7.28542"><ele>753.0</ele><time>2026-05-03T13:58:49.275Z</time></trkpt><trkpt lat="44.30723" lon="7.2856267"><ele>759.0</ele><time>2026-05-03T13:58:50.275Z</time></trkpt><trkpt lat="44.307185" lon="7.2858333"><ele>765.0</ele><time>2026-05-03T13:58:51.275Z</time></trkpt><trkpt lat="44.3071167" lon="7.2860367"><ele>765.0</ele><time>2026-05-03T13:58:52.276Z</time></trkpt><trkpt lat="44.3070333" lon="7.2862417"><ele>765.0</ele><time>2026-05-03T13:58:53.275Z</time></trkpt><trkpt lat="44.3069433" lon="7.28643"><ele>765.0</ele><time>2026-05-03T13:58:54.276Z</time></trkpt><trkpt lat="44.3068517" lon="7.28661"><ele>763.0</ele><time>2026-05-03T13:58:55.275Z</time></trkpt><trkpt lat="44.3067533" lon="7.286785"><ele>761.0</ele><time>2026-05-03T13:58:56.275Z</time></trkpt><trkpt lat="44.306645" lon="7.2869533"><ele>759.0</ele><time>2026-05-03T13:58:57.276Z</time></trkpt><trkpt lat="44.3065217" lon="7.287115"><ele>767.3333333333333</ele><time>2026-05-03T13:58:58.275Z</time></trkpt><trkpt lat="44.306395" lon="7.28726"><ele>775.6666666666666</ele><time>2026-05-03T13:58:59.275Z</time></trkpt><trkpt lat="44.30628" lon="7.2873917"><ele>784.0</ele><time>2026-05-03T13:59:00.275Z</time></trkpt><trkpt lat="44.3061783" lon="7.28753"><ele>784.0</ele><time>2026-05-03T13:59:01.276Z</time></trkpt><trkpt lat="44.3060933" lon="7.2876867"><ele>784.0</ele><time>2026-05-03T13:59:02.275Z</time></trkpt><trkpt lat="44.30603" lon="7.287855"><ele>784.0</ele><time>2026-05-03T13:59:03.275Z</time></trkpt><trkpt lat="44.3059983" lon="7.2880383"><ele>784.0</ele><time>2026-05-03T13:59:04.275Z</time></trkpt><trkpt lat="44.3059933" lon="7.28823"><ele>783.3333333333333</ele><time>2026-05-03T13:59:05.275Z</time></trkpt><trkpt lat="44.306" lon="7.2884283"><ele>782.6666666666667</ele><time>2026-05-03T13:59:06.276Z</time></trkpt><trkpt lat="44.306005" lon="7.288645"><ele>782.0</ele><time>2026-05-03T13:59:07.275Z</time></trkpt><trkpt lat="44.306015" lon="7.2888633"><ele>782.0</ele><time>2026-05-03T13:59:08.275Z</time></trkpt><trkpt lat="44.3060233" lon="7.2890833"><ele>782.0</ele><time>2026-05-03T13:59:09.275Z</time></trkpt><trkpt lat="44.30603" lon="7.2892817"><ele>782.0</ele><time>2026-05-03T13:59:10.275Z</time></trkpt><trkpt lat="44.3060317" lon="7.2894667"><ele>782.0</ele><time>2026-05-03T13:59:11.274Z</time></trkpt><trkpt lat="44.30601" lon="7.289635"><ele>783.0</ele><time>2026-05-03T13:59:12.274Z</time></trkpt><trkpt lat="44.305995" lon="7.289805"><ele>784.0</ele><time>2026-05-03T13:59:13.274Z</time></trkpt><trkpt lat="44.305955" lon="7.2899617"><ele>785.0</ele><time>2026-05-03T13:59:14.274Z</time></trkpt><trkpt lat="44.3059283" lon="7.290115"><ele>786.0</ele><time>2026-05-03T13:59:15.274Z</time></trkpt><trkpt lat="44.3059233" lon="7.2902583"><ele>786.0</ele><time>2026-05-03T13:59:16.274Z</time></trkpt><trkpt lat="44.3059233" lon="7.290375"><ele>786.0</ele><time>2026-05-03T13:59:17.274Z</time></trkpt><trkpt lat="44.305915" lon="7.2905083"><ele>786.0</ele><time>2026-05-03T13:59:18.274Z</time></trkpt><trkpt lat="44.30589" lon="7.2906533"><ele>786.0</ele><time>2026-05-03T13:59:19.275Z</time></trkpt><trkpt lat="44.3058483" lon="7.290795"><ele>786.0</ele><time>2026-05-03T13:59:20.274Z</time></trkpt><trkpt lat="44.3057917" lon="7.2909267"><ele>785.0</ele><time>2026-05-03T13:59:21.274Z</time></trkpt><trkpt lat="44.3057233" lon="7.2910583"><ele>784.0</ele><time>2026-05-03T13:59:22.274Z</time></trkpt><trkpt lat="44.3056717" lon="7.2912017"><ele>783.0</ele><time>2026-05-03T13:59:23.274Z</time></trkpt><trkpt lat="44.3056617" lon="7.2913467"><ele>782.0</ele><time>2026-05-03T13:59:24.274Z</time></trkpt><trkpt lat="44.3056733" lon="7.2914967"><ele>781.0</ele><time>2026-05-03T13:59:25.274Z</time></trkpt><trkpt lat="44.3056883" lon="7.2916433"><ele>780.0</ele><time>2026-05-03T13:59:26.274Z</time></trkpt><trkpt lat="44.30569" lon="7.2917883"><ele>779.0</ele><time>2026-05-03T13:59:27.274Z</time></trkpt><trkpt lat="44.30567" lon="7.29192"><ele>778.0</ele><time>2026-05-03T13:59:28.274Z</time></trkpt><trkpt lat="44.3056217" lon="7.29205"><ele>777.0</ele><time>2026-05-03T13:59:29.274Z</time></trkpt><trkpt lat="44.3055517" lon="7.2921467"><ele>776.0</ele><time>2026-05-03T13:59:30.274Z</time></trkpt><trkpt lat="44.3054733" lon="7.29222"><ele>782.1999999999999</ele><time>2026-05-03T13:59:31.274Z</time></trkpt><trkpt lat="44.30541" lon="7.2923067"><ele>788.4</ele><time>2026-05-03T13:59:32.274Z</time></trkpt><trkpt lat="44.305365" lon="7.292425"><ele>794.6</ele><time>2026-05-03T13:59:33.274Z</time></trkpt><trkpt lat="44.3053533" lon="7.2925683"><ele>800.8</ele><time>2026-05-03T13:59:34.274Z</time></trkpt><trkpt lat="44.3053767" lon="7.29272"><ele>807.0</ele><time>2026-05-03T13:59:35.274Z</time></trkpt><trkpt lat="44.3054483" lon="7.2929233"><ele>806.5</ele><time>2026-05-03T13:59:36.274Z</time></trkpt><trkpt lat="44.3055133" lon="7.2931283"><ele>806.0</ele><time>2026-05-03T13:59:37.274Z</time></trkpt><trkpt lat="44.3055517" lon="7.2933267"><ele>805.5</ele><time>2026-05-03T13:59:38.274Z</time></trkpt><trkpt lat="44.305575" lon="7.293505"><ele>805.0</ele><time>2026-05-03T13:59:39.275Z</time></trkpt><trkpt lat="44.3055767" lon="7.293695"><ele>805.0</ele><time>2026-05-03T13:59:40.274Z</time></trkpt><trkpt lat="44.3055767" lon="7.2938767"><ele>805.0</ele><time>2026-05-03T13:59:41.274Z</time></trkpt><trkpt lat="44.3055567" lon="7.2940117"><ele>805.0</ele><time>2026-05-03T13:59:42.274Z</time></trkpt><trkpt lat="44.30552" lon="7.2941217"><ele>805.0</ele><time>2026-05-03T13:59:43.274Z</time></trkpt><trkpt lat="44.305495" lon="7.294235"><ele>805.0</ele><time>2026-05-03T13:59:44.274Z</time></trkpt><trkpt lat="44.3054917" lon="7.2943517"><ele>805.5</ele><time>2026-05-03T13:59:45.274Z</time></trkpt><trkpt lat="44.3055033" lon="7.2944767"><ele>806.0</ele><time>2026-05-03T13:59:46.274Z</time></trkpt><trkpt lat="44.30553" lon="7.2946283"><ele>806.5</ele><time>2026-05-03T13:59:47.274Z</time></trkpt><trkpt lat="44.3055717" lon="7.2948067"><ele>807.0</ele><time>2026-05-03T13:59:48.274Z</time></trkpt><trkpt lat="44.305595" lon="7.2950017"><ele>793.6666666666666</ele><time>2026-05-03T13:59:49.274Z</time></trkpt><trkpt lat="44.305615" lon="7.2952133"><ele>780.3333333333333</ele><time>2026-05-03T13:59:50.274Z</time></trkpt><trkpt lat="44.3056283" lon="7.29543"><ele>767.0</ele><time>2026-05-03T13:59:51.274Z</time></trkpt><trkpt lat="44.3056467" lon="7.2956617"><ele>767.0</ele><time>2026-05-03T13:59:52.274Z</time></trkpt><trkpt lat="44.3056717" lon="7.295895"><ele>767.0</ele><time>2026-05-03T13:59:53.274Z</time></trkpt><trkpt lat="44.3056983" lon="7.2961367"><ele>767.0</ele><time>2026-05-03T13:59:54.274Z</time></trkpt><trkpt lat="44.3057233" lon="7.2963667"><ele>766.6666666666666</ele><time>2026-05-03T13:59:55.274Z</time></trkpt><trkpt lat="44.3057483" lon="7.2966"><ele>766.3333333333334</ele><time>2026-05-03T13:59:56.275Z</time></trkpt><trkpt lat="44.3057817" lon="7.2968117"><ele>766.0</ele><time>2026-05-03T13:59:57.274Z</time></trkpt><trkpt lat="44.30582" lon="7.2970067"><ele>766.0</ele><time>2026-05-03T13:59:58.274Z</time></trkpt><trkpt lat="44.30587" lon="7.2971883"><ele>766.0</ele><time>2026-05-03T13:59:59.274Z</time></trkpt><trkpt lat="44.3059167" lon="7.297355"><ele>766.0</ele><time>2026-05-03T14:00:00.275Z</time></trkpt><trkpt lat="44.30594" lon="7.297535"><ele>766.0</ele><time>2026-05-03T14:00:01.274Z</time></trkpt><trkpt lat="44.30595" lon="7.29771"><ele>766.0</ele><time>2026-05-03T14:00:02.274Z</time></trkpt><trkpt lat="44.3059683" lon="7.2979133"><ele>766.0</ele><time>2026-05-03T14:00:03.274Z</time></trkpt><trkpt lat="44.3059683" lon="7.298105"><ele>766.0</ele><time>2026-05-03T14:00:04.274Z</time></trkpt><trkpt lat="44.3059783" lon="7.298325"><ele>766.0</ele><time>2026-05-03T14:00:05.274Z</time></trkpt><trkpt lat="44.3059883" lon="7.2985467"><ele>766.0</ele><time>2026-05-03T14:00:06.274Z</time></trkpt><trkpt lat="44.3059967" lon="7.29877"><ele>766.0</ele><time>2026-05-03T14:00:07.274Z</time></trkpt><trkpt lat="44.3059933" lon="7.2989917"><ele>766.0</ele><time>2026-05-03T14:00:08.274Z</time></trkpt><trkpt lat="44.3059917" lon="7.2992317"><ele>764.3333333333334</ele><time>2026-05-03T14:00:09.274Z</time></trkpt><trkpt lat="44.3059483" lon="7.2994533"><ele>762.6666666666666</ele><time>2026-05-03T14:00:10.274Z</time></trkpt><trkpt lat="44.3059017" lon="7.2996733"><ele>761.0</ele><time>2026-05-03T14:00:11.274Z</time></trkpt><trkpt lat="44.3058633" lon="7.2998783"><ele>757.5</ele><time>2026-05-03T14:00:12.274Z</time></trkpt><trkpt lat="44.305815" lon="7.3000783"><ele>754.0</ele><time>2026-05-03T14:00:13.274Z</time></trkpt><trkpt lat="44.3057483" lon="7.3002633"><ele>750.5</ele><time>2026-05-03T14:00:14.274Z</time></trkpt><trkpt lat="44.30567" lon="7.3004417"><ele>747.0</ele><time>2026-05-03T14:00:15.274Z</time></trkpt><trkpt lat="44.30558" lon="7.3006267"><ele>754.6666666666667</ele><time>2026-05-03T14:00:16.275Z</time></trkpt><trkpt lat="44.3054867" lon="7.3008217"><ele>762.3333333333334</ele><time>2026-05-03T14:00:17.274Z</time></trkpt><trkpt lat="44.305395" lon="7.301005"><ele>770.0</ele><time>2026-05-03T14:00:18.274Z</time></trkpt><trkpt lat="44.3053083" lon="7.3012"><ele>770.0</ele><time>2026-05-03T14:00:19.274Z</time></trkpt><trkpt lat="44.3051967" lon="7.3013717"><ele>770.0</ele><time>2026-05-03T14:00:20.275Z</time></trkpt><trkpt lat="44.3051033" lon="7.3015583"><ele>770.0</ele><time>2026-05-03T14:00:21.274Z</time></trkpt><trkpt lat="44.3049967" lon="7.301735"><ele>766.0</ele><time>2026-05-03T14:00:22.274Z</time></trkpt><trkpt lat="44.3049" lon="7.301915"><ele>762.0</ele><time>2026-05-03T14:00:23.274Z</time></trkpt><trkpt lat="44.3048067" lon="7.302115"><ele>758.0</ele><time>2026-05-03T14:00:24.274Z</time></trkpt><trkpt lat="44.3047333" lon="7.3023283"><ele>758.0</ele><time>2026-05-03T14:00:25.275Z</time></trkpt><trkpt lat="44.304675" lon="7.302555"><ele>758.0</ele><time>2026-05-03T14:00:26.274Z</time></trkpt><trkpt lat="44.3046267" lon="7.3027917"><ele>758.0</ele><time>2026-05-03T14:00:27.274Z</time></trkpt><trkpt lat="44.3045967" lon="7.3030283"><ele>757.3333333333333</ele><time>2026-05-03T14:00:28.274Z</time></trkpt><trkpt lat="44.3045767" lon="7.3032633"><ele>756.6666666666666</ele><time>2026-05-03T14:00:29.274Z</time></trkpt><trkpt lat="44.3045633" lon="7.303485"><ele>756.0</ele><time>2026-05-03T14:00:30.274Z</time></trkpt><trkpt lat="44.30457" lon="7.30369"><ele>756.0</ele><time>2026-05-03T14:00:31.274Z</time></trkpt><trkpt lat="44.3045817" lon="7.3038983"><ele>756.0</ele><time>2026-05-03T14:00:32.275Z</time></trkpt><trkpt lat="44.30462" lon="7.3040733"><ele>756.0</ele><time>2026-05-03T14:00:33.274Z</time></trkpt><trkpt lat="44.3046733" lon="7.3042417"><ele>756.0</ele><time>2026-05-03T14:00:34.274Z</time></trkpt><trkpt lat="44.3047267" lon="7.3044183"><ele>752.0</ele><time>2026-05-03T14:00:35.274Z</time></trkpt><trkpt lat="44.3047683" lon="7.3045683"><ele>748.0</ele><time>2026-05-03T14:00:36.274Z</time></trkpt><trkpt lat="44.3047783" lon="7.3047433"><ele>744.0</ele><time>2026-05-03T14:00:37.275Z</time></trkpt><trkpt lat="44.304785" lon="7.3049333"><ele>740.0</ele><time>2026-05-03T14:00:38.274Z</time></trkpt><trkpt lat="44.30477" lon="7.30513"><ele>740.0</ele><time>2026-05-03T14:00:39.274Z</time></trkpt><trkpt lat="44.3047567" lon="7.3053467"><ele>740.0</ele><time>2026-05-03T14:00:40.274Z</time></trkpt><trkpt lat="44.3047383" lon="7.3055767"><ele>740.0</ele><time>2026-05-03T14:00:41.274Z</time></trkpt><trkpt lat="44.3047167" lon="7.3058067"><ele>744.6666666666666</ele><time>2026-05-03T14:00:42.274Z</time></trkpt><trkpt lat="44.3047017" lon="7.3060383"><ele>749.3333333333334</ele><time>2026-05-03T14:00:43.274Z</time></trkpt><trkpt lat="44.30468" lon="7.3062617"><ele>754.0</ele><time>2026-05-03T14:00:44.274Z</time></trkpt><trkpt lat="44.304665" lon="7.306495"><ele>754.0</ele><time>2026-05-03T14:00:45.274Z</time></trkpt><trkpt lat="44.3046467" lon="7.30673"><ele>754.0</ele><time>2026-05-03T14:00:46.274Z</time></trkpt><trkpt lat="44.304625" lon="7.3069667"><ele>754.0</ele><time>2026-05-03T14:00:47.274Z</time></trkpt><trkpt lat="44.3046017" lon="7.3072133"><ele>754.0</ele><time>2026-05-03T14:00:48.274Z</time></trkpt><trkpt lat="44.3045883" lon="7.30746"><ele>754.0</ele><time>2026-05-03T14:00:49.275Z</time></trkpt><trkpt lat="44.304575" lon="7.3077067"><ele>754.0</ele><time>2026-05-03T14:00:50.274Z</time></trkpt><trkpt lat="44.3045633" lon="7.3079617"><ele>753.6666666666667</ele><time>2026-05-03T14:00:51.274Z</time></trkpt><trkpt lat="44.3045433" lon="7.30822"><ele>753.3333333333334</ele><time>2026-05-03T14:00:52.274Z</time></trkpt><trkpt lat="44.3045283" lon="7.3084733"><ele>753.0</ele><time>2026-05-03T14:00:53.275Z</time></trkpt><trkpt lat="44.3045117" lon="7.30874"><ele>750.3333333333334</ele><time>2026-05-03T14:00:54.275Z</time></trkpt><trkpt lat="44.3044967" lon="7.3089933"><ele>747.6666666666667</ele><time>2026-05-03T14:00:55.275Z</time></trkpt><trkpt lat="44.3044867" lon="7.3092667"><ele>745.0</ele><time>2026-05-03T14:00:56.274Z</time></trkpt><trkpt lat="44.30447" lon="7.3095233"><ele>744.0</ele><time>2026-05-03T14:00:57.274Z</time></trkpt><trkpt lat="44.304445" lon="7.3097983"><ele>743.0</ele><time>2026-05-03T14:00:58.275Z</time></trkpt><trkpt lat="44.304425" lon="7.3100817"><ele>742.0</ele><time>2026-05-03T14:00:59.274Z</time></trkpt><trkpt lat="44.3044083" lon="7.3103633"><ele>740.6666666666667</ele><time>2026-05-03T14:01:00.274Z</time></trkpt><trkpt lat="44.3043883" lon="7.310645"><ele>739.3333333333334</ele><time>2026-05-03T14:01:01.274Z</time></trkpt><trkpt lat="44.304355" lon="7.3109133"><ele>738.0</ele><time>2026-05-03T14:01:02.274Z</time></trkpt><trkpt lat="44.3043217" lon="7.3111733"><ele>735.6666666666666</ele><time>2026-05-03T14:01:03.275Z</time></trkpt><trkpt lat="44.3042683" lon="7.31144"><ele>733.3333333333333</ele><time>2026-05-03T14:01:04.274Z</time></trkpt><trkpt lat="44.304195" lon="7.31168"><ele>731.0</ele><time>2026-05-03T14:01:05.274Z</time></trkpt><trkpt lat="44.30412" lon="7.3119017"><ele>731.0</ele><time>2026-05-03T14:01:06.274Z</time></trkpt><trkpt lat="44.304035" lon="7.312105"><ele>731.0</ele><time>2026-05-03T14:01:07.274Z</time></trkpt><trkpt lat="44.30395" lon="7.3123"><ele>731.0</ele><time>2026-05-03T14:01:08.274Z</time></trkpt><trkpt lat="44.30387" lon="7.3125017"><ele>733.0</ele><time>2026-05-03T14:01:09.275Z</time></trkpt><trkpt lat="44.30379" lon="7.3127067"><ele>735.0</ele><time>2026-05-03T14:01:10.274Z</time></trkpt><trkpt lat="44.3037117" lon="7.312895"><ele>737.0</ele><time>2026-05-03T14:01:11.274Z</time></trkpt><trkpt lat="44.3036383" lon="7.3130883"><ele>737.0</ele><time>2026-05-03T14:01:12.274Z</time></trkpt><trkpt lat="44.30357" lon="7.313275"><ele>737.0</ele><time>2026-05-03T14:01:13.274Z</time></trkpt><trkpt lat="44.3035017" lon="7.31347"><ele>737.0</ele><time>2026-05-03T14:01:14.274Z</time></trkpt><trkpt lat="44.3034233" lon="7.31367"><ele>737.0</ele><time>2026-05-03T14:01:15.274Z</time></trkpt><trkpt lat="44.3033483" lon="7.31388"><ele>737.0</ele><time>2026-05-03T14:01:16.275Z</time></trkpt><trkpt lat="44.303265" lon="7.3140783"><ele>737.0</ele><time>2026-05-03T14:01:17.274Z</time></trkpt><trkpt lat="44.3031833" lon="7.3142967"><ele>735.3333333333333</ele><time>2026-05-03T14:01:18.274Z</time></trkpt><trkpt lat="44.3031133" lon="7.31451"><ele>733.6666666666666</ele><time>2026-05-03T14:01:19.274Z</time></trkpt><trkpt lat="44.3030633" lon="7.31474"><ele>732.0</ele><time>2026-05-03T14:01:20.274Z</time></trkpt><trkpt lat="44.303015" lon="7.31497"><ele>733.6666666666666</ele><time>2026-05-03T14:01:21.275Z</time></trkpt><trkpt lat="44.302985" lon="7.3152183"><ele>735.3333333333333</ele><time>2026-05-03T14:01:22.274Z</time></trkpt><trkpt lat="44.3029433" lon="7.3154717"><ele>737.0</ele><time>2026-05-03T14:01:23.274Z</time></trkpt><trkpt lat="44.3028783" lon="7.31571"><ele>737.0</ele><time>2026-05-03T14:01:24.274Z</time></trkpt><trkpt lat="44.3027933" lon="7.315955"><ele>737.0</ele><time>2026-05-03T14:01:25.274Z</time></trkpt><trkpt lat="44.3026967" lon="7.3162183"><ele>737.0</ele><time>2026-05-03T14:01:26.274Z</time></trkpt><trkpt lat="44.3025933" lon="7.3164817"><ele>733.6666666666666</ele><time>2026-05-03T14:01:27.274Z</time></trkpt><trkpt lat="44.3025117" lon="7.31675"><ele>730.3333333333334</ele><time>2026-05-03T14:01:28.274Z</time></trkpt><trkpt lat="44.3024333" lon="7.31701"><ele>727.0</ele><time>2026-05-03T14:01:29.274Z</time></trkpt><trkpt lat="44.3023733" lon="7.3172933"><ele>726.3333333333334</ele><time>2026-05-03T14:01:30.274Z</time></trkpt><trkpt lat="44.3023067" lon="7.3175683"><ele>725.6666666666666</ele><time>2026-05-03T14:01:31.274Z</time></trkpt><trkpt lat="44.3022617" lon="7.3178583"><ele>725.0</ele><time>2026-05-03T14:01:32.275Z</time></trkpt><trkpt lat="44.3022083" lon="7.3181383"><ele>725.6666666666666</ele><time>2026-05-03T14:01:33.275Z</time></trkpt><trkpt lat="44.3021483" lon="7.3184233"><ele>726.3333333333334</ele><time>2026-05-03T14:01:34.275Z</time></trkpt><trkpt lat="44.3020933" lon="7.3187033"><ele>727.0</ele><time>2026-05-03T14:01:35.274Z</time></trkpt><trkpt lat="44.3020133" lon="7.318975"><ele>727.0</ele><time>2026-05-03T14:01:36.274Z</time></trkpt><trkpt lat="44.3019233" lon="7.3192467"><ele>727.0</ele><time>2026-05-03T14:01:37.274Z</time></trkpt><trkpt lat="44.3018217" lon="7.3195167"><ele>727.0</ele><time>2026-05-03T14:01:38.274Z</time></trkpt><trkpt lat="44.30172" lon="7.3197817"><ele>726.3333333333334</ele><time>2026-05-03T14:01:39.274Z</time></trkpt><trkpt lat="44.3016067" lon="7.3200283"><ele>725.6666666666666</ele><time>2026-05-03T14:01:40.274Z</time></trkpt><trkpt lat="44.3015" lon="7.32027"><ele>725.0</ele><time>2026-05-03T14:01:41.274Z</time></trkpt><trkpt lat="44.3013833" lon="7.32051"><ele>726.3333333333333</ele><time>2026-05-03T14:01:42.275Z</time></trkpt><trkpt lat="44.3012633" lon="7.320745"><ele>727.6666666666666</ele><time>2026-05-03T14:01:43.274Z</time></trkpt><trkpt lat="44.3011533" lon="7.3209733"><ele>729.0</ele><time>2026-05-03T14:01:44.274Z</time></trkpt><trkpt lat="44.3010467" lon="7.32121"><ele>727.3333333333334</ele><time>2026-05-03T14:01:45.274Z</time></trkpt><trkpt lat="44.3009483" lon="7.32144"><ele>725.6666666666667</ele><time>2026-05-03T14:01:46.274Z</time></trkpt><trkpt lat="44.3008633" lon="7.3216667"><ele>724.0</ele><time>2026-05-03T14:01:47.274Z</time></trkpt><trkpt lat="44.3008117" lon="7.321895"><ele>724.0</ele><time>2026-05-03T14:01:48.274Z</time></trkpt><trkpt lat="44.300795" lon="7.322155"><ele>724.0</ele><time>2026-05-03T14:01:49.274Z</time></trkpt><trkpt lat="44.300795" lon="7.3224333"><ele>724.0</ele><time>2026-05-03T14:01:50.274Z</time></trkpt><trkpt lat="44.3008183" lon="7.3227183"><ele>723.6666666666667</ele><time>2026-05-03T14:01:51.274Z</time></trkpt><trkpt lat="44.300845" lon="7.3230117"><ele>723.3333333333334</ele><time>2026-05-03T14:01:52.274Z</time></trkpt><trkpt lat="44.3008667" lon="7.3232933"><ele>723.0</ele><time>2026-05-03T14:01:53.275Z</time></trkpt><trkpt lat="44.300885" lon="7.323575"><ele>722.6666666666666</ele><time>2026-05-03T14:01:54.274Z</time></trkpt><trkpt lat="44.3009183" lon="7.3238567"><ele>722.3333333333333</ele><time>2026-05-03T14:01:55.274Z</time></trkpt><trkpt lat="44.300945" lon="7.3241517"><ele>722.0</ele><time>2026-05-03T14:01:56.274Z</time></trkpt><trkpt lat="44.3009783" lon="7.3244333"><ele>721.6666666666666</ele><time>2026-05-03T14:01:57.274Z</time></trkpt><trkpt lat="44.3010083" lon="7.3247183"><ele>721.3333333333334</ele><time>2026-05-03T14:01:58.274Z</time></trkpt><trkpt lat="44.30103" lon="7.3249933"><ele>721.0</ele><time>2026-05-03T14:01:59.274Z</time></trkpt><trkpt lat="44.3010533" lon="7.3252617"><ele>721.0</ele><time>2026-05-03T14:02:00.274Z</time></trkpt><trkpt lat="44.301075" lon="7.3255167"><ele>721.0</ele><time>2026-05-03T14:02:01.274Z</time></trkpt><trkpt lat="44.3011" lon="7.32576"><ele>721.0</ele><time>2026-05-03T14:02:02.274Z</time></trkpt><trkpt lat="44.3011233" lon="7.325985"><ele>721.6666666666667</ele><time>2026-05-03T14:02:03.274Z</time></trkpt><trkpt lat="44.30115" lon="7.326205"><ele>722.3333333333334</ele><time>2026-05-03T14:02:04.275Z</time></trkpt><trkpt lat="44.301185" lon="7.3264233"><ele>723.0</ele><time>2026-05-03T14:02:05.274Z</time></trkpt><trkpt lat="44.3012333" lon="7.3266433"><ele>723.0</ele><time>2026-05-03T14:02:06.274Z</time></trkpt><trkpt lat="44.3013067" lon="7.3268717"><ele>723.0</ele><time>2026-05-03T14:02:07.274Z</time></trkpt><trkpt lat="44.3013917" lon="7.3270817"><ele>723.0</ele><time>2026-05-03T14:02:08.275Z</time></trkpt><trkpt lat="44.3014767" lon="7.3272717"><ele>723.0</ele><time>2026-05-03T14:02:09.274Z</time></trkpt><trkpt lat="44.3015533" lon="7.32746"><ele>723.0</ele><time>2026-05-03T14:02:10.274Z</time></trkpt><trkpt lat="44.3016283" lon="7.32764"><ele>723.0</ele><time>2026-05-03T14:02:11.274Z</time></trkpt><trkpt lat="44.30169" lon="7.32781"><ele>723.0</ele><time>2026-05-03T14:02:12.274Z</time></trkpt><trkpt lat="44.3017567" lon="7.3279767"><ele>724.0</ele><time>2026-05-03T14:02:13.275Z</time></trkpt><trkpt lat="44.3018167" lon="7.3281333"><ele>725.0</ele><time>2026-05-03T14:02:14.274Z</time></trkpt><trkpt lat="44.3018783" lon="7.3282933"><ele>726.0</ele><time>2026-05-03T14:02:15.274Z</time></trkpt><trkpt lat="44.3019433" lon="7.3284433"><ele>727.0</ele><time>2026-05-03T14:02:16.274Z</time></trkpt><trkpt lat="44.302005" lon="7.32858"><ele>727.0</ele><time>2026-05-03T14:02:17.274Z</time></trkpt><trkpt lat="44.3020633" lon="7.3287217"><ele>727.0</ele><time>2026-05-03T14:02:18.274Z</time></trkpt><trkpt lat="44.3021183" lon="7.32886"><ele>727.0</ele><time>2026-05-03T14:02:19.274Z</time></trkpt><trkpt lat="44.30217" lon="7.3289983"><ele>727.0</ele><time>2026-05-03T14:02:20.274Z</time></trkpt><trkpt lat="44.3022283" lon="7.32915"><ele>726.0</ele><time>2026-05-03T14:02:21.274Z</time></trkpt><trkpt lat="44.3022917" lon="7.3293017"><ele>725.0</ele><time>2026-05-03T14:02:22.274Z</time></trkpt><trkpt lat="44.30235" lon="7.3294617"><ele>724.0</ele><time>2026-05-03T14:02:23.274Z</time></trkpt><trkpt lat="44.3024067" lon="7.329625"><ele>723.0</ele><time>2026-05-03T14:02:24.274Z</time></trkpt><trkpt lat="44.3024617" lon="7.3298083"><ele>723.0</ele><time>2026-05-03T14:02:25.274Z</time></trkpt><trkpt lat="44.30251" lon="7.3300167"><ele>723.0</ele><time>2026-05-03T14:02:26.274Z</time></trkpt><trkpt lat="44.3025483" lon="7.330235"><ele>723.0</ele><time>2026-05-03T14:02:27.274Z</time></trkpt><trkpt lat="44.3025767" lon="7.3304733"><ele>723.3333333333334</ele><time>2026-05-03T14:02:28.275Z</time></trkpt><trkpt lat="44.3025983" lon="7.3307033"><ele>723.6666666666667</ele><time>2026-05-03T14:02:29.274Z</time></trkpt><trkpt lat="44.3026317" lon="7.330915"><ele>724.0</ele><time>2026-05-03T14:02:30.274Z</time></trkpt><trkpt lat="44.3026567" lon="7.3311167"><ele>724.0</ele><time>2026-05-03T14:02:31.275Z</time></trkpt><trkpt lat="44.3026833" lon="7.3313117"><ele>724.0</ele><time>2026-05-03T14:02:32.275Z</time></trkpt><trkpt lat="44.30271" lon="7.3315017"><ele>724.0</ele><time>2026-05-03T14:02:33.274Z</time></trkpt><trkpt lat="44.30273" lon="7.3317017"><ele>724.0</ele><time>2026-05-03T14:02:34.274Z</time></trkpt><trkpt lat="44.3027533" lon="7.3318933"><ele>724.0</ele><time>2026-05-03T14:02:35.274Z</time></trkpt><trkpt lat="44.3027667" lon="7.3320817"><ele>724.0</ele><time>2026-05-03T14:02:36.274Z</time></trkpt><trkpt lat="44.3027683" lon="7.33228"><ele>724.0</ele><time>2026-05-03T14:02:37.274Z</time></trkpt><trkpt lat="44.302765" lon="7.332465"><ele>724.0</ele><time>2026-05-03T14:02:38.274Z</time></trkpt><trkpt lat="44.3027533" lon="7.332635"><ele>724.0</ele><time>2026-05-03T14:02:39.274Z</time></trkpt><trkpt lat="44.3027367" lon="7.3328033"><ele>724.0</ele><time>2026-05-03T14:02:40.275Z</time></trkpt><trkpt lat="44.3026917" lon="7.33296"><ele>724.0</ele><time>2026-05-03T14:02:41.274Z</time></trkpt><trkpt lat="44.3026467" lon="7.3331233"><ele>724.0</ele><time>2026-05-03T14:02:42.274Z</time></trkpt><trkpt lat="44.302595" lon="7.3332833"><ele>724.0</ele><time>2026-05-03T14:02:43.275Z</time></trkpt><trkpt lat="44.302555" lon="7.3334483"><ele>724.0</ele><time>2026-05-03T14:02:44.274Z</time></trkpt><trkpt lat="44.3025167" lon="7.3335967"><ele>724.0</ele><time>2026-05-03T14:02:45.274Z</time></trkpt><trkpt lat="44.30248" lon="7.3337367"><ele>724.0</ele><time>2026-05-03T14:02:46.274Z</time></trkpt><trkpt lat="44.30245" lon="7.33388"><ele>723.75</ele><time>2026-05-03T14:02:47.274Z</time></trkpt><trkpt lat="44.302425" lon="7.3340433"><ele>723.5</ele><time>2026-05-03T14:02:48.274Z</time></trkpt><trkpt lat="44.3024067" lon="7.334245"><ele>723.25</ele><time>2026-05-03T14:02:49.274Z</time></trkpt><trkpt lat="44.302395" lon="7.3344733"><ele>723.0</ele><time>2026-05-03T14:02:50.274Z</time></trkpt><trkpt lat="44.30237" lon="7.3346983"><ele>722.5</ele><time>2026-05-03T14:02:51.274Z</time></trkpt><trkpt lat="44.302345" lon="7.3348967"><ele>722.0</ele><time>2026-05-03T14:02:52.275Z</time></trkpt><trkpt lat="44.3023283" lon="7.3350783"><ele>721.5</ele><time>2026-05-03T14:02:53.274Z</time></trkpt><trkpt lat="44.302305" lon="7.3352383"><ele>721.0</ele><time>2026-05-03T14:02:54.274Z</time></trkpt><trkpt lat="44.3022883" lon="7.3353783"><ele>721.0</ele><time>2026-05-03T14:02:55.274Z</time></trkpt><trkpt lat="44.30228" lon="7.3355233"><ele>721.0</ele><time>2026-05-03T14:02:56.275Z</time></trkpt><trkpt lat="44.3022917" lon="7.3356733"><ele>721.0</ele><time>2026-05-03T14:02:57.274Z</time></trkpt><trkpt lat="44.3023383" lon="7.3358233"><ele>721.0</ele><time>2026-05-03T14:02:58.274Z</time></trkpt><trkpt lat="44.3024033" lon="7.335955"><ele>721.0</ele><time>2026-05-03T14:02:59.274Z</time></trkpt><trkpt lat="44.3024683" lon="7.336075"><ele>722.4</ele><time>2026-05-03T14:03:00.274Z</time></trkpt><trkpt lat="44.3025267" lon="7.3362017"><ele>723.8</ele><time>2026-05-03T14:03:01.274Z</time></trkpt><trkpt lat="44.3025733" lon="7.3363383"><ele>725.1999999999999</ele><time>2026-05-03T14:03:02.275Z</time></trkpt><trkpt lat="44.3026017" lon="7.33649"><ele>726.5999999999999</ele><time>2026-05-03T14:03:03.274Z</time></trkpt><trkpt lat="44.302615" lon="7.336645"><ele>728.0</ele><time>2026-05-03T14:03:04.274Z</time></trkpt><trkpt lat="44.3026317" lon="7.3368033"><ele>728.75</ele><time>2026-05-03T14:03:05.274Z</time></trkpt><trkpt lat="44.3026383" lon="7.3369567"><ele>729.5</ele><time>2026-05-03T14:03:06.274Z</time></trkpt><trkpt lat="44.3026333" lon="7.3371217"><ele>730.25</ele><time>2026-05-03T14:03:07.274Z</time></trkpt><trkpt lat="44.3026267" lon="7.3373"><ele>731.0</ele><time>2026-05-03T14:03:08.275Z</time></trkpt><trkpt lat="44.30261" lon="7.3374583"><ele>731.0</ele><time>2026-05-03T14:03:09.274Z</time></trkpt><trkpt lat="44.3025867" lon="7.3376317"><ele>731.0</ele><time>2026-05-03T14:03:10.274Z</time></trkpt><trkpt lat="44.3025533" lon="7.3378067"><ele>731.0</ele><time>2026-05-03T14:03:11.275Z</time></trkpt><trkpt lat="44.3025183" lon="7.337965"><ele>731.0</ele><time>2026-05-03T14:03:12.274Z</time></trkpt><trkpt lat="44.302485" lon="7.3381233"><ele>730.5999999999999</ele><time>2026-05-03T14:03:13.274Z</time></trkpt><trkpt lat="44.3024517" lon="7.3382617"><ele>730.2</ele><time>2026-05-03T14:03:14.274Z</time></trkpt><trkpt lat="44.3024017" lon="7.3383767"><ele>729.8</ele><time>2026-05-03T14:03:15.274Z</time></trkpt><trkpt lat="44.3023467" lon="7.338475"><ele>729.4000000000001</ele><time>2026-05-03T14:03:16.274Z</time></trkpt><trkpt lat="44.3022633" lon="7.338565"><ele>729.0</ele><time>2026-05-03T14:03:17.274Z</time></trkpt><trkpt lat="44.302165" lon="7.33863"><ele>729.0</ele><time>2026-05-03T14:03:18.274Z</time></trkpt><trkpt lat="44.3020533" lon="7.3386683"><ele>729.0</ele><time>2026-05-03T14:03:19.274Z</time></trkpt><trkpt lat="44.3019417" lon="7.3387067"><ele>729.0</ele><time>2026-05-03T14:03:20.274Z</time></trkpt><trkpt lat="44.3018483" lon="7.3387717"><ele>729.0</ele><time>2026-05-03T14:03:21.274Z</time></trkpt><trkpt lat="44.3017667" lon="7.3388883"><ele>728.6666666666666</ele><time>2026-05-03T14:03:22.274Z</time></trkpt><trkpt lat="44.3017083" lon="7.33906"><ele>728.3333333333333</ele><time>2026-05-03T14:03:23.274Z</time></trkpt><trkpt lat="44.3016767" lon="7.3392867"><ele>728.0</ele><time>2026-05-03T14:03:24.274Z</time></trkpt><trkpt lat="44.30166" lon="7.33954"><ele>728.3333333333333</ele><time>2026-05-03T14:03:25.274Z</time></trkpt><trkpt lat="44.3016517" lon="7.339805"><ele>728.6666666666666</ele><time>2026-05-03T14:03:26.274Z</time></trkpt><trkpt lat="44.3016483" lon="7.3400783"><ele>729.0</ele><time>2026-05-03T14:03:27.274Z</time></trkpt><trkpt lat="44.3016467" lon="7.3403617"><ele>729.0</ele><time>2026-05-03T14:03:28.274Z</time></trkpt><trkpt lat="44.3016717" lon="7.3406317"><ele>729.0</ele><time>2026-05-03T14:03:29.274Z</time></trkpt><trkpt lat="44.3016967" lon="7.3409033"><ele>729.0</ele><time>2026-05-03T14:03:30.274Z</time></trkpt><trkpt lat="44.301715" lon="7.34117"><ele>729.3333333333334</ele><time>2026-05-03T14:03:31.274Z</time></trkpt><trkpt lat="44.3017317" lon="7.3414267"><ele>729.6666666666667</ele><time>2026-05-03T14:03:32.274Z</time></trkpt><trkpt lat="44.30175" lon="7.3416717"><ele>730.0</ele><time>2026-05-03T14:03:33.274Z</time></trkpt><trkpt lat="44.30177" lon="7.3419083"><ele>730.0</ele><time>2026-05-03T14:03:34.274Z</time></trkpt><trkpt lat="44.301795" lon="7.3421167"><ele>730.0</ele><time>2026-05-03T14:03:35.274Z</time></trkpt><trkpt lat="44.3018083" lon="7.3423067"><ele>730.0</ele><time>2026-05-03T14:03:36.274Z</time></trkpt><trkpt lat="44.30182" lon="7.3424733"><ele>730.0</ele><time>2026-05-03T14:03:37.274Z</time></trkpt><trkpt lat="44.3018333" lon="7.342615"><ele>730.6</ele><time>2026-05-03T14:03:38.274Z</time></trkpt><trkpt lat="44.3018567" lon="7.3427433"><ele>731.2</ele><time>2026-05-03T14:03:39.274Z</time></trkpt><trkpt lat="44.301915" lon="7.3428533"><ele>731.8</ele><time>2026-05-03T14:03:40.274Z</time></trkpt><trkpt lat="44.3019867" lon="7.3429633"><ele>732.4</ele><time>2026-05-03T14:03:41.274Z</time></trkpt><trkpt lat="44.302065" lon="7.34308"><ele>733.0</ele><time>2026-05-03T14:03:42.274Z</time></trkpt><trkpt lat="44.30214" lon="7.3431833"><ele>733.5</ele><time>2026-05-03T14:03:43.274Z</time></trkpt><trkpt lat="44.3022383" lon="7.3432533"><ele>734.0</ele><time>2026-05-03T14:03:44.274Z</time></trkpt><trkpt lat="44.3023517" lon="7.3432717"><ele>734.5</ele><time>2026-05-03T14:03:45.275Z</time></trkpt><trkpt lat="44.302485" lon="7.3432533"><ele>735.0</ele><time>2026-05-03T14:03:46.274Z</time></trkpt><trkpt lat="44.3026433" lon="7.3432233"><ele>730.6666666666666</ele><time>2026-05-03T14:03:47.274Z</time></trkpt><trkpt lat="44.3028117" lon="7.3431917"><ele>726.3333333333333</ele><time>2026-05-03T14:03:48.274Z</time></trkpt><trkpt lat="44.3029817" lon="7.3431667"><ele>722.0</ele><time>2026-05-03T14:03:49.274Z</time></trkpt><trkpt lat="44.3031533" lon="7.3431733"><ele>719.3333333333333</ele><time>2026-05-03T14:03:50.274Z</time></trkpt><trkpt lat="44.30332" lon="7.3431733"><ele>716.6666666666666</ele><time>2026-05-03T14:03:51.274Z</time></trkpt><trkpt lat="44.3034833" lon="7.3431783"><ele>714.0</ele><time>2026-05-03T14:03:52.274Z</time></trkpt><trkpt lat="44.30365" lon="7.3431917"><ele>714.0</ele><time>2026-05-03T14:03:53.274Z</time></trkpt><trkpt lat="44.303805" lon="7.3432167"><ele>714.0</ele><time>2026-05-03T14:03:54.274Z</time></trkpt><trkpt lat="44.3039533" lon="7.3432583"><ele>714.0</ele><time>2026-05-03T14:03:55.274Z</time></trkpt><trkpt lat="44.3040933" lon="7.3433217"><ele>712.6666666666666</ele><time>2026-05-03T14:03:56.274Z</time></trkpt><trkpt lat="44.3042367" lon="7.3433917"><ele>711.3333333333333</ele><time>2026-05-03T14:03:57.274Z</time></trkpt><trkpt lat="44.3043767" lon="7.3434767"><ele>710.0</ele><time>2026-05-03T14:03:58.274Z</time></trkpt><trkpt lat="44.304515" lon="7.343575"><ele>710.0</ele><time>2026-05-03T14:03:59.275Z</time></trkpt><trkpt lat="44.30465" lon="7.3436533"><ele>710.0</ele><time>2026-05-03T14:04:00.274Z</time></trkpt><trkpt lat="44.3048033" lon="7.34372"><ele>710.0</ele><time>2026-05-03T14:04:01.274Z</time></trkpt><trkpt lat="44.304965" lon="7.3437783"><ele>708.6666666666666</ele><time>2026-05-03T14:04:02.274Z</time></trkpt><trkpt lat="44.3051383" lon="7.343845"><ele>707.3333333333334</ele><time>2026-05-03T14:04:03.274Z</time></trkpt><trkpt lat="44.30532" lon="7.343895"><ele>706.0</ele><time>2026-05-03T14:04:04.274Z</time></trkpt><trkpt lat="44.3055117" lon="7.3439433"><ele>704.0</ele><time>2026-05-03T14:04:05.274Z</time></trkpt><trkpt lat="44.3057067" lon="7.3439783"><ele>702.0</ele><time>2026-05-03T14:04:06.274Z</time></trkpt><trkpt lat="44.3058983" lon="7.3440267"><ele>700.0</ele><time>2026-05-03T14:04:07.274Z</time></trkpt><trkpt lat="44.30609" lon="7.3440617"><ele>700.0</ele><time>2026-05-03T14:04:08.274Z</time></trkpt><trkpt lat="44.3062883" lon="7.3440917"><ele>700.0</ele><time>2026-05-03T14:04:09.274Z</time></trkpt><trkpt lat="44.30648" lon="7.3441267"><ele>700.0</ele><time>2026-05-03T14:04:10.274Z</time></trkpt><trkpt lat="44.306665" lon="7.34416"><ele>698.6666666666667</ele><time>2026-05-03T14:04:11.275Z</time></trkpt><trkpt lat="44.306855" lon="7.3441833"><ele>697.3333333333334</ele><time>2026-05-03T14:04:12.274Z</time></trkpt><trkpt lat="44.307045" lon="7.3442217"><ele>696.0</ele><time>2026-05-03T14:04:13.274Z</time></trkpt><trkpt lat="44.3072367" lon="7.344265"><ele>696.0</ele><time>2026-05-03T14:04:14.274Z</time></trkpt><trkpt lat="44.307425" lon="7.344285"><ele>696.0</ele><time>2026-05-03T14:04:15.274Z</time></trkpt><trkpt lat="44.30761" lon="7.344315"><ele>696.0</ele><time>2026-05-03T14:04:16.274Z</time></trkpt><trkpt lat="44.3077917" lon="7.3443417"><ele>696.0</ele><time>2026-05-03T14:04:17.274Z</time></trkpt><trkpt lat="44.3079833" lon="7.34438"><ele>696.0</ele><time>2026-05-03T14:04:18.274Z</time></trkpt><trkpt lat="44.3081683" lon="7.344415"><ele>696.0</ele><time>2026-05-03T14:04:19.274Z</time></trkpt><trkpt lat="44.3083517" lon="7.3444417"><ele>696.3333333333334</ele><time>2026-05-03T14:04:20.274Z</time></trkpt><trkpt lat="44.3085417" lon="7.3444633"><ele>696.6666666666667</ele><time>2026-05-03T14:04:21.274Z</time></trkpt><trkpt lat="44.3087333" lon="7.34448"><ele>697.0</ele><time>2026-05-03T14:04:22.274Z</time></trkpt><trkpt lat="44.308915" lon="7.344495"><ele>697.0</ele><time>2026-05-03T14:04:23.274Z</time></trkpt><trkpt lat="44.3091033" lon="7.3445"><ele>697.0</ele><time>2026-05-03T14:04:24.274Z</time></trkpt><trkpt lat="44.3092933" lon="7.344515"><ele>697.0</ele><time>2026-05-03T14:04:25.274Z</time></trkpt><trkpt lat="44.30949" lon="7.3445283"><ele>697.0</ele><time>2026-05-03T14:04:26.275Z</time></trkpt><trkpt lat="44.30969" lon="7.3445433"><ele>697.0</ele><time>2026-05-03T14:04:27.274Z</time></trkpt><trkpt lat="44.3098817" lon="7.344575"><ele>697.0</ele><time>2026-05-03T14:04:28.274Z</time></trkpt><trkpt lat="44.31008" lon="7.34459"><ele>697.0</ele><time>2026-05-03T14:04:29.274Z</time></trkpt><trkpt lat="44.310275" lon="7.3446083"><ele>697.0</ele><time>2026-05-03T14:04:30.274Z</time></trkpt><trkpt lat="44.3104683" lon="7.34463"><ele>697.0</ele><time>2026-05-03T14:04:31.274Z</time></trkpt><trkpt lat="44.3106567" lon="7.3446467"><ele>697.0</ele><time>2026-05-03T14:04:32.274Z</time></trkpt><trkpt lat="44.3108383" lon="7.3446667"><ele>697.0</ele><time>2026-05-03T14:04:33.274Z</time></trkpt><trkpt lat="44.3110233" lon="7.344685"><ele>697.0</ele><time>2026-05-03T14:04:34.275Z</time></trkpt><trkpt lat="44.3112067" lon="7.34472"><ele>696.6666666666667</ele><time>2026-05-03T14:04:35.274Z</time></trkpt><trkpt lat="44.3113967" lon="7.3447433"><ele>696.3333333333334</ele><time>2026-05-03T14:04:36.274Z</time></trkpt><trkpt lat="44.3115733" lon="7.3447567"><ele>696.0</ele><time>2026-05-03T14:04:37.274Z</time></trkpt><trkpt lat="44.311745" lon="7.3447667"><ele>695.0</ele><time>2026-05-03T14:04:38.274Z</time></trkpt><trkpt lat="44.3119083" lon="7.3447867"><ele>694.0</ele><time>2026-05-03T14:04:39.274Z</time></trkpt><trkpt lat="44.3120583" lon="7.3448067"><ele>693.0</ele><time>2026-05-03T14:04:40.275Z</time></trkpt><trkpt lat="44.3122" lon="7.3448317"><ele>694.0</ele><time>2026-05-03T14:04:41.274Z</time></trkpt><trkpt lat="44.31234" lon="7.3448483"><ele>695.0</ele><time>2026-05-03T14:04:42.275Z</time></trkpt><trkpt lat="44.3124633" lon="7.3448633"><ele>696.0</ele><time>2026-05-03T14:04:43.274Z</time></trkpt><trkpt lat="44.3125633" lon="7.3448933"><ele>697.0</ele><time>2026-05-03T14:04:44.274Z</time></trkpt><trkpt lat="44.3126533" lon="7.344935"><ele>697.0</ele><time>2026-05-03T14:04:45.274Z</time></trkpt><trkpt lat="44.31272" lon="7.3450067"><ele>697.0</ele><time>2026-05-03T14:04:46.274Z</time></trkpt><trkpt lat="44.3127667" lon="7.3451117"><ele>697.0</ele><time>2026-05-03T14:04:47.274Z</time></trkpt><trkpt lat="44.3127917" lon="7.34525"><ele>697.0</ele><time>2026-05-03T14:04:48.274Z</time></trkpt><trkpt lat="44.3127933" lon="7.3454233"><ele>697.0</ele><time>2026-05-03T14:04:49.274Z</time></trkpt><trkpt lat="44.3127667" lon="7.3456217"><ele>696.3333333333334</ele><time>2026-05-03T14:04:50.274Z</time></trkpt><trkpt lat="44.3127267" lon="7.3458383"><ele>695.6666666666666</ele><time>2026-05-03T14:04:51.274Z</time></trkpt><trkpt lat="44.3126983" lon="7.3460667"><ele>695.0</ele><time>2026-05-03T14:04:52.274Z</time></trkpt><trkpt lat="44.3126683" lon="7.3463017"><ele>694.6666666666666</ele><time>2026-05-03T14:04:53.274Z</time></trkpt><trkpt lat="44.3126367" lon="7.3465517"><ele>694.3333333333334</ele><time>2026-05-03T14:04:54.274Z</time></trkpt><trkpt lat="44.312605" lon="7.3468067"><ele>694.0</ele><time>2026-05-03T14:04:55.274Z</time></trkpt><trkpt lat="44.3125733" lon="7.3470933"><ele>694.3333333333334</ele><time>2026-05-03T14:04:56.274Z</time></trkpt><trkpt lat="44.3125383" lon="7.3473717"><ele>694.6666666666666</ele><time>2026-05-03T14:04:57.275Z</time></trkpt><trkpt lat="44.3124967" lon="7.347645"><ele>695.0</ele><time>2026-05-03T14:04:58.274Z</time></trkpt><trkpt lat="44.3124567" lon="7.3479233"><ele>694.0</ele><time>2026-05-03T14:04:59.274Z</time></trkpt><trkpt lat="44.31241" lon="7.3482117"><ele>693.0</ele><time>2026-05-03T14:05:00.274Z</time></trkpt><trkpt lat="44.3123767" lon="7.3485033"><ele>692.0</ele><time>2026-05-03T14:05:01.274Z</time></trkpt><trkpt lat="44.31233" lon="7.3487967"><ele>692.0</ele><time>2026-05-03T14:05:02.275Z</time></trkpt><trkpt lat="44.3122883" lon="7.3490967"><ele>692.0</ele><time>2026-05-03T14:05:03.274Z</time></trkpt><trkpt lat="44.3122417" lon="7.3494033"><ele>692.0</ele><time>2026-05-03T14:05:04.274Z</time></trkpt><trkpt lat="44.3122" lon="7.3496967"><ele>692.0</ele><time>2026-05-03T14:05:05.274Z</time></trkpt><trkpt lat="44.3121683" lon="7.3499883"><ele>692.0</ele><time>2026-05-03T14:05:06.275Z</time></trkpt><trkpt lat="44.3121267" lon="7.3502867"><ele>692.0</ele><time>2026-05-03T14:05:07.274Z</time></trkpt><trkpt lat="44.3120917" lon="7.3505733"><ele>692.0</ele><time>2026-05-03T14:05:08.274Z</time></trkpt><trkpt lat="44.31204" lon="7.350865"><ele>692.0</ele><time>2026-05-03T14:05:09.274Z</time></trkpt><trkpt lat="44.3119883" lon="7.3511667"><ele>692.0</ele><time>2026-05-03T14:05:10.274Z</time></trkpt><trkpt lat="44.3119417" lon="7.3514633"><ele>692.3333333333333</ele><time>2026-05-03T14:05:11.274Z</time></trkpt><trkpt lat="44.311895" lon="7.35176"><ele>692.6666666666666</ele><time>2026-05-03T14:05:12.274Z</time></trkpt><trkpt lat="44.311865" lon="7.35205"><ele>693.0</ele><time>2026-05-03T14:05:13.274Z</time></trkpt><trkpt lat="44.31183" lon="7.3523583"><ele>693.3333333333334</ele><time>2026-05-03T14:05:14.274Z</time></trkpt><trkpt lat="44.311795" lon="7.35266"><ele>693.6666666666667</ele><time>2026-05-03T14:05:15.275Z</time></trkpt><trkpt lat="44.3117583" lon="7.3529683"><ele>694.0</ele><time>2026-05-03T14:05:16.274Z</time></trkpt><trkpt lat="44.3117117" lon="7.3532733"><ele>695.5</ele><time>2026-05-03T14:05:17.274Z</time></trkpt><trkpt lat="44.31166" lon="7.3535833"><ele>697.0</ele><time>2026-05-03T14:05:18.274Z</time></trkpt><trkpt lat="44.3116167" lon="7.3539133"><ele>698.5</ele><time>2026-05-03T14:05:19.274Z</time></trkpt><trkpt lat="44.3115783" lon="7.35424"><ele>700.0</ele><time>2026-05-03T14:05:20.274Z</time></trkpt><trkpt lat="44.31154" lon="7.3545567"><ele>700.5</ele><time>2026-05-03T14:05:21.274Z</time></trkpt><trkpt lat="44.31149" lon="7.354875"><ele>701.0</ele><time>2026-05-03T14:05:22.274Z</time></trkpt><trkpt lat="44.3114483" lon="7.35519"><ele>695.5</ele><time>2026-05-03T14:05:23.274Z</time></trkpt><trkpt lat="44.3114033" lon="7.3555167"><ele>690.0</ele><time>2026-05-03T14:05:24.274Z</time></trkpt><trkpt lat="44.31136" lon="7.355845"><ele>690.0</ele><time>2026-05-03T14:05:25.274Z</time></trkpt><trkpt lat="44.3113167" lon="7.3561683"><ele>690.0</ele><time>2026-05-03T14:05:26.274Z</time></trkpt><trkpt lat="44.3112767" lon="7.3564983"><ele>691.0</ele><time>2026-05-03T14:05:27.274Z</time></trkpt><trkpt lat="44.3112467" lon="7.356825"><ele>692.0</ele><time>2026-05-03T14:05:28.274Z</time></trkpt><trkpt lat="44.3112083" lon="7.357145"><ele>691.0</ele><time>2026-05-03T14:05:29.274Z</time></trkpt><trkpt lat="44.3111783" lon="7.3574667"><ele>690.0</ele><time>2026-05-03T14:05:30.274Z</time></trkpt><trkpt lat="44.3111483" lon="7.35779"><ele>689.5</ele><time>2026-05-03T14:05:31.274Z</time></trkpt><trkpt lat="44.3111183" lon="7.3581233"><ele>689.0</ele><time>2026-05-03T14:05:32.274Z</time></trkpt><trkpt lat="44.3110883" lon="7.358455"><ele>689.0</ele><time>2026-05-03T14:05:33.274Z</time></trkpt><trkpt lat="44.311055" lon="7.358785"><ele>689.0</ele><time>2026-05-03T14:05:34.274Z</time></trkpt><trkpt lat="44.3110217" lon="7.359115"><ele>688.5</ele><time>2026-05-03T14:05:35.274Z</time></trkpt><trkpt lat="44.3109983" lon="7.3594567"><ele>688.0</ele><time>2026-05-03T14:05:36.274Z</time></trkpt><trkpt lat="44.310975" lon="7.35978"><ele>689.0</ele><time>2026-05-03T14:05:37.274Z</time></trkpt><trkpt lat="44.31095" lon="7.360105"><ele>690.0</ele><time>2026-05-03T14:05:38.274Z</time></trkpt><trkpt lat="44.3109183" lon="7.3604167"><ele>689.5</ele><time>2026-05-03T14:05:39.274Z</time></trkpt><trkpt lat="44.3108883" lon="7.3607417"><ele>689.0</ele><time>2026-05-03T14:05:40.274Z</time></trkpt><trkpt lat="44.310865" lon="7.361065"><ele>689.0</ele><time>2026-05-03T14:05:41.274Z</time></trkpt><trkpt lat="44.3108367" lon="7.36138"><ele>689.0</ele><time>2026-05-03T14:05:42.274Z</time></trkpt><trkpt lat="44.3108117" lon="7.361695"><ele>689.0</ele><time>2026-05-03T14:05:43.274Z</time></trkpt><trkpt lat="44.3107833" lon="7.3620083"><ele>689.0</ele><time>2026-05-03T14:05:44.274Z</time></trkpt><trkpt lat="44.3107533" lon="7.3623117"><ele>689.0</ele><time>2026-05-03T14:05:45.274Z</time></trkpt><trkpt lat="44.3107267" lon="7.3626333"><ele>688.0</ele><time>2026-05-03T14:05:46.274Z</time></trkpt><trkpt lat="44.310695" lon="7.3629533"><ele>687.0</ele><time>2026-05-03T14:05:47.274Z</time></trkpt><trkpt lat="44.3106717" lon="7.3632767"><ele>685.5</ele><time>2026-05-03T14:05:48.274Z</time></trkpt><trkpt lat="44.310635" lon="7.3636"><ele>684.0</ele><time>2026-05-03T14:05:49.274Z</time></trkpt><trkpt lat="44.3106083" lon="7.36392"><ele>684.0</ele><time>2026-05-03T14:05:50.274Z</time></trkpt><trkpt lat="44.310585" lon="7.36423"><ele>684.0</ele><time>2026-05-03T14:05:51.274Z</time></trkpt><trkpt lat="44.3105583" lon="7.36455"><ele>682.5</ele><time>2026-05-03T14:05:52.274Z</time></trkpt><trkpt lat="44.3105233" lon="7.36487"><ele>681.0</ele><time>2026-05-03T14:05:53.274Z</time></trkpt><trkpt lat="44.3104917" lon="7.3651933"><ele>681.0</ele><time>2026-05-03T14:05:54.274Z</time></trkpt><trkpt lat="44.3104683" lon="7.3655167"><ele>681.0</ele><time>2026-05-03T14:05:55.274Z</time></trkpt><trkpt lat="44.3104367" lon="7.3658367"><ele>681.5</ele><time>2026-05-03T14:05:56.274Z</time></trkpt><trkpt lat="44.31041" lon="7.36616"><ele>682.0</ele><time>2026-05-03T14:05:57.274Z</time></trkpt><trkpt lat="44.3103833" lon="7.3664717"><ele>682.5</ele><time>2026-05-03T14:05:58.275Z</time></trkpt><trkpt lat="44.3103567" lon="7.36679"><ele>683.0</ele><time>2026-05-03T14:05:59.274Z</time></trkpt><trkpt lat="44.3103417" lon="7.3671017"><ele>682.6666666666666</ele><time>2026-05-03T14:06:00.274Z</time></trkpt><trkpt lat="44.3103417" lon="7.367405"><ele>682.3333333333334</ele><time>2026-05-03T14:06:01.274Z</time></trkpt><trkpt lat="44.3103633" lon="7.36771"><ele>682.0</ele><time>2026-05-03T14:06:02.274Z</time></trkpt><trkpt lat="44.3104" lon="7.368015"><ele>681.0</ele><time>2026-05-03T14:06:03.274Z</time></trkpt><trkpt lat="44.3104583" lon="7.3683133"><ele>680.0</ele><time>2026-05-03T14:06:04.274Z</time></trkpt><trkpt lat="44.310525" lon="7.3686067"><ele>679.0</ele><time>2026-05-03T14:06:05.274Z</time></trkpt><trkpt lat="44.3105933" lon="7.3688983"><ele>680.3333333333334</ele><time>2026-05-03T14:06:06.274Z</time></trkpt><trkpt lat="44.310665" lon="7.369185"><ele>681.6666666666666</ele><time>2026-05-03T14:06:07.274Z</time></trkpt><trkpt lat="44.3107333" lon="7.36947"><ele>683.0</ele><time>2026-05-03T14:06:08.275Z</time></trkpt><trkpt lat="44.3108" lon="7.3697533"><ele>683.0</ele><time>2026-05-03T14:06:09.274Z</time></trkpt><trkpt lat="44.3108683" lon="7.3700283"><ele>683.0</ele><time>2026-05-03T14:06:10.274Z</time></trkpt><trkpt lat="44.3109417" lon="7.3703067"><ele>683.0</ele><time>2026-05-03T14:06:11.274Z</time></trkpt><trkpt lat="44.3110133" lon="7.3705817"><ele>682.6666666666666</ele><time>2026-05-03T14:06:12.274Z</time></trkpt><trkpt lat="44.3110767" lon="7.37085"><ele>682.3333333333334</ele><time>2026-05-03T14:06:13.274Z</time></trkpt><trkpt lat="44.3111433" lon="7.3711133"><ele>682.0</ele><time>2026-05-03T14:06:14.274Z</time></trkpt><trkpt lat="44.3112033" lon="7.3713733"><ele>682.6666666666667</ele><time>2026-05-03T14:06:15.274Z</time></trkpt><trkpt lat="44.3112683" lon="7.371645"><ele>683.3333333333334</ele><time>2026-05-03T14:06:16.274Z</time></trkpt><trkpt lat="44.3113333" lon="7.3719167"><ele>684.0</ele><time>2026-05-03T14:06:17.274Z</time></trkpt><trkpt lat="44.31141" lon="7.3722067"><ele>684.0</ele><time>2026-05-03T14:06:18.274Z</time></trkpt><trkpt lat="44.3114917" lon="7.3724983"><ele>684.0</ele><time>2026-05-03T14:06:19.274Z</time></trkpt><trkpt lat="44.31157" lon="7.3728017"><ele>682.0</ele><time>2026-05-03T14:06:20.274Z</time></trkpt><trkpt lat="44.31164" lon="7.3731183"><ele>680.0</ele><time>2026-05-03T14:06:21.274Z</time></trkpt><trkpt lat="44.3117117" lon="7.37343"><ele>680.0</ele><time>2026-05-03T14:06:22.274Z</time></trkpt><trkpt lat="44.3117733" lon="7.37375"><ele>680.0</ele><time>2026-05-03T14:06:23.275Z</time></trkpt><trkpt lat="44.3118367" lon="7.3740717"><ele>679.0</ele><time>2026-05-03T14:06:24.274Z</time></trkpt><trkpt lat="44.3119" lon="7.3743883"><ele>678.0</ele><time>2026-05-03T14:06:25.274Z</time></trkpt><trkpt lat="44.3119733" lon="7.3747"><ele>676.5</ele><time>2026-05-03T14:06:26.274Z</time></trkpt><trkpt lat="44.3120517" lon="7.375015"><ele>675.0</ele><time>2026-05-03T14:06:27.274Z</time></trkpt><trkpt lat="44.3121233" lon="7.375325"><ele>677.0</ele><time>2026-05-03T14:06:28.275Z</time></trkpt><trkpt lat="44.3122" lon="7.3756417"><ele>679.0</ele><time>2026-05-03T14:06:29.274Z</time></trkpt><trkpt lat="44.3122783" lon="7.3759467"><ele>682.0</ele><time>2026-05-03T14:06:30.274Z</time></trkpt><trkpt lat="44.312355" lon="7.3762467"><ele>685.0</ele><time>2026-05-03T14:06:31.274Z</time></trkpt><trkpt lat="44.3124233" lon="7.3765567"><ele>685.0</ele><time>2026-05-03T14:06:32.274Z</time></trkpt><trkpt lat="44.312495" lon="7.37685"><ele>685.0</ele><time>2026-05-03T14:06:33.274Z</time></trkpt><trkpt lat="44.3125567" lon="7.37714"><ele>685.0</ele><time>2026-05-03T14:06:34.274Z</time></trkpt><trkpt lat="44.3126267" lon="7.377435"><ele>684.0</ele><time>2026-05-03T14:06:35.274Z</time></trkpt><trkpt lat="44.3127" lon="7.3777267"><ele>683.0</ele><time>2026-05-03T14:06:36.274Z</time></trkpt><trkpt lat="44.3127733" lon="7.378015"><ele>682.0</ele><time>2026-05-03T14:06:37.274Z</time></trkpt><trkpt lat="44.3128317" lon="7.3783017"><ele>680.0</ele><time>2026-05-03T14:06:38.274Z</time></trkpt><trkpt lat="44.3128967" lon="7.3785867"><ele>678.0</ele><time>2026-05-03T14:06:39.274Z</time></trkpt><trkpt lat="44.312965" lon="7.3788617"><ele>676.0</ele><time>2026-05-03T14:06:40.274Z</time></trkpt><trkpt lat="44.313035" lon="7.37914"><ele>680.0</ele><time>2026-05-03T14:06:41.274Z</time></trkpt><trkpt lat="44.3131" lon="7.37942"><ele>684.0</ele><time>2026-05-03T14:06:42.274Z</time></trkpt><trkpt lat="44.3131517" lon="7.3797083"><ele>688.0</ele><time>2026-05-03T14:06:43.274Z</time></trkpt><trkpt lat="44.3132067" lon="7.3799933"><ele>688.0</ele><time>2026-05-03T14:06:44.274Z</time></trkpt><trkpt lat="44.313265" lon="7.3802767"><ele>688.0</ele><time>2026-05-03T14:06:45.274Z</time></trkpt><trkpt lat="44.313305" lon="7.380555"><ele>688.0</ele><time>2026-05-03T14:06:46.275Z</time></trkpt><trkpt lat="44.3133517" lon="7.3808283"><ele>687.6666666666667</ele><time>2026-05-03T14:06:47.275Z</time></trkpt><trkpt lat="44.31339" lon="7.3810983"><ele>687.3333333333334</ele><time>2026-05-03T14:06:48.274Z</time></trkpt><trkpt lat="44.3134233" lon="7.3813683"><ele>687.0</ele><time>2026-05-03T14:06:49.274Z</time></trkpt><trkpt lat="44.3134583" lon="7.3816283"><ele>685.3333333333334</ele><time>2026-05-03T14:06:50.274Z</time></trkpt><trkpt lat="44.3134883" lon="7.3818633"><ele>683.6666666666667</ele><time>2026-05-03T14:06:51.274Z</time></trkpt><trkpt lat="44.3135267" lon="7.382105"><ele>682.0</ele><time>2026-05-03T14:06:52.274Z</time></trkpt><trkpt lat="44.3135717" lon="7.3823417"><ele>680.3333333333334</ele><time>2026-05-03T14:06:53.274Z</time></trkpt><trkpt lat="44.3136167" lon="7.382585"><ele>678.6666666666666</ele><time>2026-05-03T14:06:54.274Z</time></trkpt><trkpt lat="44.31366" lon="7.3828183"><ele>677.0</ele><time>2026-05-03T14:06:55.274Z</time></trkpt><trkpt lat="44.3137217" lon="7.383055"><ele>676.0</ele><time>2026-05-03T14:06:56.275Z</time></trkpt><trkpt lat="44.31379" lon="7.383275"><ele>675.0</ele><time>2026-05-03T14:06:57.274Z</time></trkpt><trkpt lat="44.31387" lon="7.3834717"><ele>674.0</ele><time>2026-05-03T14:06:58.274Z</time></trkpt><trkpt lat="44.3139633" lon="7.3836633"><ele>673.75</ele><time>2026-05-03T14:06:59.275Z</time></trkpt><trkpt lat="44.314055" lon="7.383825"><ele>673.5</ele><time>2026-05-03T14:07:00.274Z</time></trkpt><trkpt lat="44.31415" lon="7.3839783"><ele>673.25</ele><time>2026-05-03T14:07:01.274Z</time></trkpt><trkpt lat="44.314235" lon="7.384135"><ele>673.0</ele><time>2026-05-03T14:07:02.274Z</time></trkpt><trkpt lat="44.3143217" lon="7.3842983"><ele>673.0</ele><time>2026-05-03T14:07:03.274Z</time></trkpt><trkpt lat="44.3144217" lon="7.3844617"><ele>673.0</ele><time>2026-05-03T14:07:04.274Z</time></trkpt><trkpt lat="44.314515" lon="7.384625"><ele>673.0</ele><time>2026-05-03T14:07:05.275Z</time></trkpt><trkpt lat="44.3146217" lon="7.3847783"><ele>675.3333333333334</ele><time>2026-05-03T14:07:06.274Z</time></trkpt><trkpt lat="44.3147383" lon="7.384915"><ele>677.6666666666666</ele><time>2026-05-03T14:07:07.274Z</time></trkpt><trkpt lat="44.3148567" lon="7.3850467"><ele>680.0</ele><time>2026-05-03T14:07:08.274Z</time></trkpt><trkpt lat="44.3149917" lon="7.3851683"><ele>680.0</ele><time>2026-05-03T14:07:09.274Z</time></trkpt><trkpt lat="44.3151217" lon="7.3852883"><ele>680.0</ele><time>2026-05-03T14:07:10.274Z</time></trkpt><trkpt lat="44.3152583" lon="7.3853983"><ele>680.0</ele><time>2026-05-03T14:07:11.275Z</time></trkpt><trkpt lat="44.3154067" lon="7.3855083"><ele>679.6666666666666</ele><time>2026-05-03T14:07:12.274Z</time></trkpt><trkpt lat="44.3155533" lon="7.38563"><ele>679.3333333333334</ele><time>2026-05-03T14:07:13.275Z</time></trkpt><trkpt lat="44.3156933" lon="7.385745"><ele>679.0</ele><time>2026-05-03T14:07:14.274Z</time></trkpt><trkpt lat="44.3158483" lon="7.3858583"><ele>679.0</ele><time>2026-05-03T14:07:15.274Z</time></trkpt><trkpt lat="44.31602" lon="7.3859583"><ele>679.0</ele><time>2026-05-03T14:07:16.274Z</time></trkpt><trkpt lat="44.3162" lon="7.3860333"><ele>679.0</ele><time>2026-05-03T14:07:17.274Z</time></trkpt><trkpt lat="44.316375" lon="7.386095"><ele>682.6666666666667</ele><time>2026-05-03T14:07:18.274Z</time></trkpt><trkpt lat="44.3165383" lon="7.3861533"><ele>686.3333333333334</ele><time>2026-05-03T14:07:19.274Z</time></trkpt><trkpt lat="44.3167083" lon="7.3862017"><ele>690.0</ele><time>2026-05-03T14:07:20.275Z</time></trkpt><trkpt lat="44.316865" lon="7.3862583"><ele>690.0</ele><time>2026-05-03T14:07:21.274Z</time></trkpt><trkpt lat="44.3170017" lon="7.3863383"><ele>690.0</ele><time>2026-05-03T14:07:22.274Z</time></trkpt><trkpt lat="44.317135" lon="7.386435"><ele>690.0</ele><time>2026-05-03T14:07:23.275Z</time></trkpt><trkpt lat="44.3172533" lon="7.3865317"><ele>690.0</ele><time>2026-05-03T14:07:24.274Z</time></trkpt><trkpt lat="44.3173733" lon="7.3866483"><ele>689.0</ele><time>2026-05-03T14:07:25.274Z</time></trkpt><trkpt lat="44.3174817" lon="7.3867667"><ele>688.0</ele><time>2026-05-03T14:07:26.274Z</time></trkpt><trkpt lat="44.317585" lon="7.3868783"><ele>687.0</ele><time>2026-05-03T14:07:27.275Z</time></trkpt><trkpt lat="44.3176667" lon="7.38699"><ele>686.0</ele><time>2026-05-03T14:07:28.274Z</time></trkpt><trkpt lat="44.3177517" lon="7.387095"><ele>686.0</ele><time>2026-05-03T14:07:29.274Z</time></trkpt><trkpt lat="44.3178283" lon="7.3871983"><ele>686.0</ele><time>2026-05-03T14:07:30.274Z</time></trkpt><trkpt lat="44.3179033" lon="7.3873033"><ele>686.0</ele><time>2026-05-03T14:07:31.274Z</time></trkpt><trkpt lat="44.3179783" lon="7.387395"><ele>686.0</ele><time>2026-05-03T14:07:32.274Z</time></trkpt><trkpt lat="44.31805" lon="7.3874867"><ele>686.0</ele><time>2026-05-03T14:07:33.274Z</time></trkpt><trkpt lat="44.3181183" lon="7.3875833"><ele>686.0</ele><time>2026-05-03T14:07:34.274Z</time></trkpt><trkpt lat="44.318185" lon="7.3876783"><ele>686.0</ele><time>2026-05-03T14:07:35.274Z</time></trkpt><trkpt lat="44.318255" lon="7.38777"><ele>686.0</ele><time>2026-05-03T14:07:36.274Z</time></trkpt><trkpt lat="44.31832" lon="7.387875"><ele>686.0</ele><time>2026-05-03T14:07:37.274Z</time></trkpt><trkpt lat="44.3183867" lon="7.3879833"><ele>686.0</ele><time>2026-05-03T14:07:38.274Z</time></trkpt><trkpt lat="44.31845" lon="7.38809"><ele>685.5999999999999</ele><time>2026-05-03T14:07:39.274Z</time></trkpt><trkpt lat="44.318515" lon="7.3881933"><ele>685.2</ele><time>2026-05-03T14:07:40.274Z</time></trkpt><trkpt lat="44.3185817" lon="7.3883017"><ele>684.8</ele><time>2026-05-03T14:07:41.274Z</time></trkpt><trkpt lat="44.3186417" lon="7.3884067"><ele>684.4000000000001</ele><time>2026-05-03T14:07:42.274Z</time></trkpt><trkpt lat="44.31871" lon="7.38852"><ele>684.0</ele><time>2026-05-03T14:07:43.274Z</time></trkpt><trkpt lat="44.3187833" lon="7.3886317"><ele>684.0</ele><time>2026-05-03T14:07:44.274Z</time></trkpt><trkpt lat="44.31886" lon="7.388735"><ele>684.0</ele><time>2026-05-03T14:07:45.275Z</time></trkpt><trkpt lat="44.3189317" lon="7.38885"><ele>684.0</ele><time>2026-05-03T14:07:46.274Z</time></trkpt><trkpt lat="44.3190033" lon="7.3889517"><ele>684.0</ele><time>2026-05-03T14:07:47.274Z</time></trkpt><trkpt lat="44.319075" lon="7.389045"><ele>684.0</ele><time>2026-05-03T14:07:48.274Z</time></trkpt><trkpt lat="44.3191533" lon="7.3891433"><ele>685.0</ele><time>2026-05-03T14:07:49.274Z</time></trkpt><trkpt lat="44.31923" lon="7.3892383"><ele>686.0</ele><time>2026-05-03T14:07:50.274Z</time></trkpt><trkpt lat="44.31931" lon="7.3893517"><ele>687.0</ele><time>2026-05-03T14:07:51.274Z</time></trkpt><trkpt lat="44.319395" lon="7.38946"><ele>688.0</ele><time>2026-05-03T14:07:52.274Z</time></trkpt><trkpt lat="44.319475" lon="7.38956"><ele>689.0</ele><time>2026-05-03T14:07:53.274Z</time></trkpt><trkpt lat="44.3195617" lon="7.38966"><ele>689.0</ele><time>2026-05-03T14:07:54.274Z</time></trkpt><trkpt lat="44.31965" lon="7.3897533"><ele>689.0</ele><time>2026-05-03T14:07:55.274Z</time></trkpt><trkpt lat="44.3197367" lon="7.3898483"><ele>689.0</ele><time>2026-05-03T14:07:56.274Z</time></trkpt><trkpt lat="44.3198217" lon="7.3899417"><ele>689.0</ele><time>2026-05-03T14:07:57.274Z</time></trkpt><trkpt lat="44.31991" lon="7.3900283"><ele>689.0</ele><time>2026-05-03T14:07:58.274Z</time></trkpt><trkpt lat="44.3200083" lon="7.3901167"><ele>689.0</ele><time>2026-05-03T14:07:59.274Z</time></trkpt><trkpt lat="44.32011" lon="7.39021"><ele>689.0</ele><time>2026-05-03T14:08:00.274Z</time></trkpt><trkpt lat="44.320205" lon="7.3903017"><ele>689.0</ele><time>2026-05-03T14:08:01.274Z</time></trkpt><trkpt lat="44.3203033" lon="7.39039"><ele>689.0</ele><time>2026-05-03T14:08:02.274Z</time></trkpt><trkpt lat="44.3204067" lon="7.3904683"><ele>688.5</ele><time>2026-05-03T14:08:03.274Z</time></trkpt><trkpt lat="44.3205133" lon="7.3905583"><ele>688.0</ele><time>2026-05-03T14:08:04.274Z</time></trkpt><trkpt lat="44.32062" lon="7.3906483"><ele>687.5</ele><time>2026-05-03T14:08:05.274Z</time></trkpt><trkpt lat="44.3207517" lon="7.3907567"><ele>687.0</ele><time>2026-05-03T14:08:06.274Z</time></trkpt><trkpt lat="44.3209" lon="7.3908783"><ele>687.0</ele><time>2026-05-03T14:08:07.274Z</time></trkpt><trkpt lat="44.3210633" lon="7.39101"><ele>687.0</ele><time>2026-05-03T14:08:08.274Z</time></trkpt><trkpt lat="44.321235" lon="7.3911683"><ele>687.0</ele><time>2026-05-03T14:08:09.274Z</time></trkpt><trkpt lat="44.32143" lon="7.3913317"><ele>685.5</ele><time>2026-05-03T14:08:10.274Z</time></trkpt><trkpt lat="44.3216317" lon="7.3915017"><ele>684.0</ele><time>2026-05-03T14:08:11.274Z</time></trkpt><trkpt lat="44.3218467" lon="7.3916817"><ele>684.0</ele><time>2026-05-03T14:08:12.274Z</time></trkpt><trkpt lat="44.32206" lon="7.3918683"><ele>684.0</ele><time>2026-05-03T14:08:13.274Z</time></trkpt><trkpt lat="44.3222733" lon="7.3920433"><ele>686.5</ele><time>2026-05-03T14:08:14.274Z</time></trkpt><trkpt lat="44.3224783" lon="7.3922283"><ele>689.0</ele><time>2026-05-03T14:08:15.274Z</time></trkpt><trkpt lat="44.3226783" lon="7.392415"><ele>689.0</ele><time>2026-05-03T14:08:16.275Z</time></trkpt><trkpt lat="44.322865" lon="7.3925817"><ele>689.0</ele><time>2026-05-03T14:08:17.275Z</time></trkpt><trkpt lat="44.323045" lon="7.3927383"><ele>689.0</ele><time>2026-05-03T14:08:18.274Z</time></trkpt><trkpt lat="44.3232283" lon="7.3928933"><ele>688.0</ele><time>2026-05-03T14:08:19.274Z</time></trkpt><trkpt lat="44.3234117" lon="7.3930467"><ele>687.0</ele><time>2026-05-03T14:08:20.274Z</time></trkpt><trkpt lat="44.3235967" lon="7.39321"><ele>686.0</ele><time>2026-05-03T14:08:21.275Z</time></trkpt><trkpt lat="44.323785" lon="7.3933717"><ele>688.3333333333333</ele><time>2026-05-03T14:08:22.274Z</time></trkpt><trkpt lat="44.3239667" lon="7.39354"><ele>690.6666666666666</ele><time>2026-05-03T14:08:23.274Z</time></trkpt><trkpt lat="44.3241267" lon="7.3937317"><ele>693.0</ele><time>2026-05-03T14:08:24.274Z</time></trkpt><trkpt lat="44.3242683" lon="7.39392"><ele>693.0</ele><time>2026-05-03T14:08:25.274Z</time></trkpt><trkpt lat="44.32441" lon="7.394155"><ele>693.0</ele><time>2026-05-03T14:08:26.274Z</time></trkpt><trkpt lat="44.3245383" lon="7.39442"><ele>693.0</ele><time>2026-05-03T14:08:27.274Z</time></trkpt><trkpt lat="44.324645" lon="7.3946783"><ele>699.3333333333334</ele><time>2026-05-03T14:08:28.274Z</time></trkpt><trkpt lat="44.3247533" lon="7.3949283"><ele>705.6666666666667</ele><time>2026-05-03T14:08:29.274Z</time></trkpt><trkpt lat="44.3248567" lon="7.3951917"><ele>712.0</ele><time>2026-05-03T14:08:30.274Z</time></trkpt><trkpt lat="44.3249567" lon="7.3954417"><ele>706.0</ele><time>2026-05-03T14:08:31.275Z</time></trkpt><trkpt lat="44.32506" lon="7.3956833"><ele>700.0</ele><time>2026-05-03T14:08:32.274Z</time></trkpt><trkpt lat="44.3251717" lon="7.39592"><ele>694.0</ele><time>2026-05-03T14:08:33.274Z</time></trkpt><trkpt lat="44.32528" lon="7.396155"><ele>696.0</ele><time>2026-05-03T14:08:34.274Z</time></trkpt><trkpt lat="44.32539" lon="7.3963467"><ele>698.0</ele><time>2026-05-03T14:08:35.274Z</time></trkpt><trkpt lat="44.3255033" lon="7.39652"><ele>700.0</ele><time>2026-05-03T14:08:36.274Z</time></trkpt><trkpt lat="44.3256217" lon="7.3966683"><ele>700.0</ele><time>2026-05-03T14:08:37.275Z</time></trkpt><trkpt lat="44.3257383" lon="7.396785"><ele>700.0</ele><time>2026-05-03T14:08:38.274Z</time></trkpt><trkpt lat="44.325865" lon="7.3968833"><ele>700.0</ele><time>2026-05-03T14:08:39.274Z</time></trkpt><trkpt lat="44.3259983" lon="7.3969367"><ele>700.0</ele><time>2026-05-03T14:08:40.274Z</time></trkpt><trkpt lat="44.326135" lon="7.3969617"><ele>700.0</ele><time>2026-05-03T14:08:41.274Z</time></trkpt><trkpt lat="44.3262817" lon="7.39698"><ele>700.0</ele><time>2026-05-03T14:08:42.274Z</time></trkpt><trkpt lat="44.3264367" lon="7.3969517"><ele>700.0</ele><time>2026-05-03T14:08:43.274Z</time></trkpt><trkpt lat="44.32658" lon="7.3968967"><ele>702.6666666666667</ele><time>2026-05-03T14:08:44.274Z</time></trkpt><trkpt lat="44.3267367" lon="7.396835"><ele>705.3333333333334</ele><time>2026-05-03T14:08:45.274Z</time></trkpt><trkpt lat="44.3268867" lon="7.396775"><ele>708.0</ele><time>2026-05-03T14:08:46.274Z</time></trkpt><trkpt lat="44.32703" lon="7.3967033"><ele>708.0</ele><time>2026-05-03T14:08:47.274Z</time></trkpt><trkpt lat="44.3271733" lon="7.3966467"><ele>708.0</ele><time>2026-05-03T14:08:48.274Z</time></trkpt><trkpt lat="44.32732" lon="7.396595"><ele>708.0</ele><time>2026-05-03T14:08:49.274Z</time></trkpt><trkpt lat="44.3274683" lon="7.396535"><ele>704.0</ele><time>2026-05-03T14:08:50.274Z</time></trkpt><trkpt lat="44.32761" lon="7.3964767"><ele>700.0</ele><time>2026-05-03T14:08:51.274Z</time></trkpt><trkpt lat="44.3277567" lon="7.396415"><ele>696.0</ele><time>2026-05-03T14:08:52.274Z</time></trkpt><trkpt lat="44.3279033" lon="7.3963517"><ele>699.0</ele><time>2026-05-03T14:08:53.275Z</time></trkpt><trkpt lat="44.3280567" lon="7.3962883"><ele>702.0</ele><time>2026-05-03T14:08:54.274Z</time></trkpt><trkpt lat="44.328205" lon="7.3962183"><ele>705.0</ele><time>2026-05-03T14:08:55.274Z</time></trkpt><trkpt lat="44.3283567" lon="7.3961567"><ele>705.0</ele><time>2026-05-03T14:08:56.274Z</time></trkpt><trkpt lat="44.328515" lon="7.3961"><ele>705.0</ele><time>2026-05-03T14:08:57.274Z</time></trkpt><trkpt lat="44.3286717" lon="7.39603"><ele>705.0</ele><time>2026-05-03T14:08:58.275Z</time></trkpt><trkpt lat="44.3288283" lon="7.3959667"><ele>704.6666666666666</ele><time>2026-05-03T14:08:59.274Z</time></trkpt><trkpt lat="44.3289917" lon="7.3958983"><ele>704.3333333333333</ele><time>2026-05-03T14:09:00.274Z</time></trkpt><trkpt lat="44.3291517" lon="7.3958317"><ele>704.0</ele><time>2026-05-03T14:09:01.274Z</time></trkpt><trkpt lat="44.3293067" lon="7.3957633"><ele>704.0</ele><time>2026-05-03T14:09:02.274Z</time></trkpt><trkpt lat="44.329465" lon="7.3957133"><ele>704.0</ele><time>2026-05-03T14:09:03.274Z</time></trkpt><trkpt lat="44.3296283" lon="7.3956817"><ele>704.0</ele><time>2026-05-03T14:09:04.275Z</time></trkpt><trkpt lat="44.3297833" lon="7.3956633"><ele>704.3333333333333</ele><time>2026-05-03T14:09:05.274Z</time></trkpt><trkpt lat="44.329935" lon="7.3956667"><ele>704.6666666666666</ele><time>2026-05-03T14:09:06.274Z</time></trkpt><trkpt lat="44.33009" lon="7.3956883"><ele>705.0</ele><time>2026-05-03T14:09:07.274Z</time></trkpt><trkpt lat="44.33024" lon="7.3957217"><ele>705.0</ele><time>2026-05-03T14:09:08.274Z</time></trkpt><trkpt lat="44.3303883" lon="7.3957883"><ele>705.0</ele><time>2026-05-03T14:09:09.274Z</time></trkpt><trkpt lat="44.3305267" lon="7.3958433"><ele>705.0</ele><time>2026-05-03T14:09:10.274Z</time></trkpt><trkpt lat="44.33066" lon="7.39592"><ele>705.0</ele><time>2026-05-03T14:09:11.274Z</time></trkpt><trkpt lat="44.3307933" lon="7.3960233"><ele>706.3333333333334</ele><time>2026-05-03T14:09:12.274Z</time></trkpt><trkpt lat="44.33093" lon="7.3961383"><ele>707.6666666666667</ele><time>2026-05-03T14:09:13.274Z</time></trkpt><trkpt lat="44.3310633" lon="7.39626"><ele>709.0</ele><time>2026-05-03T14:09:14.274Z</time></trkpt><trkpt lat="44.3311883" lon="7.3963933"><ele>707.6666666666667</ele><time>2026-05-03T14:09:15.274Z</time></trkpt><trkpt lat="44.3313117" lon="7.3965383"><ele>706.3333333333334</ele><time>2026-05-03T14:09:16.274Z</time></trkpt><trkpt lat="44.331445" lon="7.3966683"><ele>705.0</ele><time>2026-05-03T14:09:17.274Z</time></trkpt><trkpt lat="44.33158" lon="7.3968167"><ele>705.0</ele><time>2026-05-03T14:09:18.274Z</time></trkpt><trkpt lat="44.33171" lon="7.396955"><ele>705.0</ele><time>2026-05-03T14:09:19.275Z</time></trkpt><trkpt lat="44.3318167" lon="7.3971283"><ele>705.0</ele><time>2026-05-03T14:09:20.274Z</time></trkpt><trkpt lat="44.33191" lon="7.3973017"><ele>705.3333333333334</ele><time>2026-05-03T14:09:21.274Z</time></trkpt><trkpt lat="44.3319917" lon="7.397495"><ele>705.6666666666667</ele><time>2026-05-03T14:09:22.275Z</time></trkpt><trkpt lat="44.33206" lon="7.3976883"><ele>706.0</ele><time>2026-05-03T14:09:23.274Z</time></trkpt><trkpt lat="44.3321167" lon="7.3978867"><ele>705.6666666666667</ele><time>2026-05-03T14:09:24.274Z</time></trkpt><trkpt lat="44.332175" lon="7.3980983"><ele>705.3333333333334</ele><time>2026-05-03T14:09:25.275Z</time></trkpt><trkpt lat="44.33222" lon="7.39831"><ele>705.0</ele><time>2026-05-03T14:09:26.275Z</time></trkpt><trkpt lat="44.3322467" lon="7.3985283"><ele>706.6666666666666</ele><time>2026-05-03T14:09:27.274Z</time></trkpt><trkpt lat="44.332275" lon="7.3987417"><ele>708.3333333333333</ele><time>2026-05-03T14:09:28.274Z</time></trkpt><trkpt lat="44.33231" lon="7.39895"><ele>710.0</ele><time>2026-05-03T14:09:29.274Z</time></trkpt><trkpt lat="44.3323417" lon="7.39916"><ele>710.0</ele><time>2026-05-03T14:09:30.274Z</time></trkpt><trkpt lat="44.3323683" lon="7.3993733"><ele>710.0</ele><time>2026-05-03T14:09:31.274Z</time></trkpt><trkpt lat="44.3324" lon="7.3995883"><ele>710.0</ele><time>2026-05-03T14:09:32.275Z</time></trkpt><trkpt lat="44.332435" lon="7.3997983"><ele>709.0</ele><time>2026-05-03T14:09:33.274Z</time></trkpt><trkpt lat="44.3324717" lon="7.4000167"><ele>708.0</ele><time>2026-05-03T14:09:34.274Z</time></trkpt><trkpt lat="44.3325083" lon="7.4002283"><ele>707.0</ele><time>2026-05-03T14:09:35.274Z</time></trkpt><trkpt lat="44.3325467" lon="7.4004383"><ele>706.0</ele><time>2026-05-03T14:09:36.274Z</time></trkpt><trkpt lat="44.3325783" lon="7.4006667"><ele>705.0</ele><time>2026-05-03T14:09:37.274Z</time></trkpt><trkpt lat="44.3326033" lon="7.40087"><ele>704.0</ele><time>2026-05-03T14:09:38.274Z</time></trkpt><trkpt lat="44.3326317" lon="7.4010683"><ele>704.0</ele><time>2026-05-03T14:09:39.274Z</time></trkpt><trkpt lat="44.3326617" lon="7.4012783"><ele>704.0</ele><time>2026-05-03T14:09:40.274Z</time></trkpt><trkpt lat="44.3326933" lon="7.4014933"><ele>704.0</ele><time>2026-05-03T14:09:41.274Z</time></trkpt><trkpt lat="44.3327267" lon="7.4017067"><ele>703.3333333333333</ele><time>2026-05-03T14:09:42.274Z</time></trkpt><trkpt lat="44.33276" lon="7.401925"><ele>702.6666666666666</ele><time>2026-05-03T14:09:43.274Z</time></trkpt><trkpt lat="44.332795" lon="7.4021333"><ele>702.0</ele><time>2026-05-03T14:09:44.274Z</time></trkpt><trkpt lat="44.33283" lon="7.4023417"><ele>701.0</ele><time>2026-05-03T14:09:45.274Z</time></trkpt><trkpt lat="44.3328583" lon="7.402545"><ele>700.0</ele><time>2026-05-03T14:09:46.274Z</time></trkpt><trkpt lat="44.3328933" lon="7.4027483"><ele>699.0</ele><time>2026-05-03T14:09:47.274Z</time></trkpt><trkpt lat="44.3329183" lon="7.4029617"><ele>699.0</ele><time>2026-05-03T14:09:48.274Z</time></trkpt><trkpt lat="44.3329467" lon="7.4031717"><ele>699.0</ele><time>2026-05-03T14:09:49.275Z</time></trkpt><trkpt lat="44.332975" lon="7.4033667"><ele>699.0</ele><time>2026-05-03T14:09:50.274Z</time></trkpt><trkpt lat="44.333" lon="7.4035417"><ele>699.0</ele><time>2026-05-03T14:09:51.274Z</time></trkpt><trkpt lat="44.3330267" lon="7.40371"><ele>699.25</ele><time>2026-05-03T14:09:52.274Z</time></trkpt><trkpt lat="44.3330567" lon="7.40388"><ele>699.5</ele><time>2026-05-03T14:09:53.274Z</time></trkpt><trkpt lat="44.3330833" lon="7.4040583"><ele>699.75</ele><time>2026-05-03T14:09:54.275Z</time></trkpt><trkpt lat="44.33311" lon="7.4042383"><ele>700.0</ele><time>2026-05-03T14:09:55.274Z</time></trkpt><trkpt lat="44.3331333" lon="7.4044083"><ele>700.0</ele><time>2026-05-03T14:09:56.274Z</time></trkpt><trkpt lat="44.3331583" lon="7.404585"><ele>700.0</ele><time>2026-05-03T14:09:57.275Z</time></trkpt><trkpt lat="44.333185" lon="7.4047683"><ele>700.0</ele><time>2026-05-03T14:09:58.274Z</time></trkpt><trkpt lat="44.3332117" lon="7.404945"><ele>700.0</ele><time>2026-05-03T14:09:59.274Z</time></trkpt><trkpt lat="44.3332317" lon="7.4051117"><ele>699.75</ele><time>2026-05-03T14:10:00.274Z</time></trkpt><trkpt lat="44.3332583" lon="7.4052833"><ele>699.5</ele><time>2026-05-03T14:10:01.274Z</time></trkpt><trkpt lat="44.3332933" lon="7.4054383"><ele>699.25</ele><time>2026-05-03T14:10:02.274Z</time></trkpt><trkpt lat="44.333325" lon="7.405595"><ele>699.0</ele><time>2026-05-03T14:10:03.274Z</time></trkpt><trkpt lat="44.33335" lon="7.4057483"><ele>699.0</ele><time>2026-05-03T14:10:04.274Z</time></trkpt><trkpt lat="44.333365" lon="7.4059033"><ele>699.0</ele><time>2026-05-03T14:10:05.274Z</time></trkpt><trkpt lat="44.3334033" lon="7.40606"><ele>699.0</ele><time>2026-05-03T14:10:06.274Z</time></trkpt><trkpt lat="44.3334433" lon="7.40621"><ele>699.0</ele><time>2026-05-03T14:10:07.275Z</time></trkpt><trkpt lat="44.3334967" lon="7.4063617"><ele>698.5</ele><time>2026-05-03T14:10:08.274Z</time></trkpt><trkpt lat="44.3335483" lon="7.4065117"><ele>698.0</ele><time>2026-05-03T14:10:09.274Z</time></trkpt><trkpt lat="44.3336017" lon="7.40666"><ele>697.5</ele><time>2026-05-03T14:10:10.274Z</time></trkpt><trkpt lat="44.333675" lon="7.40679"><ele>697.0</ele><time>2026-05-03T14:10:11.274Z</time></trkpt><trkpt lat="44.3337533" lon="7.4069117"><ele>697.0</ele><time>2026-05-03T14:10:12.274Z</time></trkpt><trkpt lat="44.333835" lon="7.4070283"><ele>697.0</ele><time>2026-05-03T14:10:13.274Z</time></trkpt><trkpt lat="44.33391" lon="7.4071417"><ele>697.0</ele><time>2026-05-03T14:10:14.274Z</time></trkpt><trkpt lat="44.3339917" lon="7.4072583"><ele>697.0</ele><time>2026-05-03T14:10:15.274Z</time></trkpt><trkpt lat="44.3340667" lon="7.4073717"><ele>696.5</ele><time>2026-05-03T14:10:16.274Z</time></trkpt><trkpt lat="44.33415" lon="7.4074933"><ele>696.0</ele><time>2026-05-03T14:10:17.274Z</time></trkpt><trkpt lat="44.3342333" lon="7.4076167"><ele>695.5</ele><time>2026-05-03T14:10:18.274Z</time></trkpt><trkpt lat="44.3343183" lon="7.40774"><ele>695.0</ele><time>2026-05-03T14:10:19.274Z</time></trkpt><trkpt lat="44.3344017" lon="7.4078633"><ele>695.0</ele><time>2026-05-03T14:10:20.274Z</time></trkpt><trkpt lat="44.33448" lon="7.407985"><ele>695.0</ele><time>2026-05-03T14:10:21.274Z</time></trkpt><trkpt lat="44.334555" lon="7.4080983"><ele>695.0</ele><time>2026-05-03T14:10:22.275Z</time></trkpt><trkpt lat="44.33463" lon="7.408205"><ele>695.0</ele><time>2026-05-03T14:10:23.274Z</time></trkpt><trkpt lat="44.334705" lon="7.4083183"><ele>695.0</ele><time>2026-05-03T14:10:24.274Z</time></trkpt><trkpt lat="44.334785" lon="7.40843"><ele>694.6</ele><time>2026-05-03T14:10:25.274Z</time></trkpt><trkpt lat="44.3348617" lon="7.4085333"><ele>694.2</ele><time>2026-05-03T14:10:26.275Z</time></trkpt><trkpt lat="44.334935" lon="7.4086417"><ele>693.8</ele><time>2026-05-03T14:10:27.275Z</time></trkpt><trkpt lat="44.3350117" lon="7.4087467"><ele>693.4</ele><time>2026-05-03T14:10:28.274Z</time></trkpt><trkpt lat="44.335085" lon="7.4088517"><ele>693.0</ele><time>2026-05-03T14:10:29.274Z</time></trkpt><trkpt lat="44.3351567" lon="7.40896"><ele>693.0</ele><time>2026-05-03T14:10:30.274Z</time></trkpt><trkpt lat="44.33523" lon="7.40907"><ele>693.0</ele><time>2026-05-03T14:10:31.274Z</time></trkpt><trkpt lat="44.3353067" lon="7.4091783"><ele>693.0</ele><time>2026-05-03T14:10:32.274Z</time></trkpt><trkpt lat="44.335385" lon="7.4092833"><ele>693.0</ele><time>2026-05-03T14:10:33.274Z</time></trkpt><trkpt lat="44.3354617" lon="7.4093917"><ele>693.0</ele><time>2026-05-03T14:10:34.274Z</time></trkpt><trkpt lat="44.33553" lon="7.40949"><ele>693.0</ele><time>2026-05-03T14:10:35.274Z</time></trkpt><trkpt lat="44.335605" lon="7.4095983"><ele>693.0</ele><time>2026-05-03T14:10:36.274Z</time></trkpt><trkpt lat="44.33567" lon="7.40971"><ele>693.0</ele><time>2026-05-03T14:10:37.274Z</time></trkpt><trkpt lat="44.335745" lon="7.409815"><ele>693.0</ele><time>2026-05-03T14:10:38.275Z</time></trkpt><trkpt lat="44.3358083" lon="7.4099383"><ele>693.0</ele><time>2026-05-03T14:10:39.274Z</time></trkpt><trkpt lat="44.3358717" lon="7.4100817"><ele>692.5</ele><time>2026-05-03T14:10:40.274Z</time></trkpt><trkpt lat="44.3359317" lon="7.4102417"><ele>692.0</ele><time>2026-05-03T14:10:41.274Z</time></trkpt><trkpt lat="44.33599" lon="7.4104067"><ele>691.5</ele><time>2026-05-03T14:10:42.274Z</time></trkpt><trkpt lat="44.336055" lon="7.410575"><ele>691.0</ele><time>2026-05-03T14:10:43.274Z</time></trkpt><trkpt lat="44.336115" lon="7.41075"><ele>690.25</ele><time>2026-05-03T14:10:44.274Z</time></trkpt><trkpt lat="44.3361767" lon="7.41092"><ele>689.5</ele><time>2026-05-03T14:10:45.275Z</time></trkpt><trkpt lat="44.3362383" lon="7.4111"><ele>688.75</ele><time>2026-05-03T14:10:46.274Z</time></trkpt><trkpt lat="44.3362917" lon="7.4112783"><ele>688.0</ele><time>2026-05-03T14:10:47.275Z</time></trkpt><trkpt lat="44.33636" lon="7.41145"><ele>687.75</ele><time>2026-05-03T14:10:48.274Z</time></trkpt><trkpt lat="44.336425" lon="7.411625"><ele>687.5</ele><time>2026-05-03T14:10:49.274Z</time></trkpt><trkpt lat="44.33649" lon="7.4117967"><ele>687.25</ele><time>2026-05-03T14:10:50.274Z</time></trkpt><trkpt lat="44.3365583" lon="7.41197"><ele>687.0</ele><time>2026-05-03T14:10:51.274Z</time></trkpt><trkpt lat="44.336625" lon="7.4121517"><ele>686.5</ele><time>2026-05-03T14:10:52.274Z</time></trkpt><trkpt lat="44.3366967" lon="7.4123283"><ele>686.0</ele><time>2026-05-03T14:10:53.274Z</time></trkpt><trkpt lat="44.3367633" lon="7.4124933"><ele>685.5</ele><time>2026-05-03T14:10:54.274Z</time></trkpt><trkpt lat="44.336825" lon="7.41267"><ele>685.0</ele><time>2026-05-03T14:10:55.274Z</time></trkpt><trkpt lat="44.3368867" lon="7.4128483"><ele>684.5</ele><time>2026-05-03T14:10:56.275Z</time></trkpt><trkpt lat="44.336955" lon="7.4130267"><ele>684.0</ele><time>2026-05-03T14:10:57.274Z</time></trkpt><trkpt lat="44.3370167" lon="7.4132067"><ele>683.5</ele><time>2026-05-03T14:10:58.274Z</time></trkpt><trkpt lat="44.3370817" lon="7.4133917"><ele>683.0</ele><time>2026-05-03T14:10:59.274Z</time></trkpt><trkpt lat="44.3371467" lon="7.413575"><ele>683.0</ele><time>2026-05-03T14:11:00.274Z</time></trkpt><trkpt lat="44.3372033" lon="7.4137667"><ele>683.0</ele><time>2026-05-03T14:11:01.274Z</time></trkpt><trkpt lat="44.3372467" lon="7.4139583"><ele>683.0</ele><time>2026-05-03T14:11:02.274Z</time></trkpt><trkpt lat="44.3372733" lon="7.4141483"><ele>683.0</ele><time>2026-05-03T14:11:03.274Z</time></trkpt><trkpt lat="44.3372767" lon="7.414345"><ele>683.0</ele><time>2026-05-03T14:11:04.275Z</time></trkpt><trkpt lat="44.3372617" lon="7.4145467"><ele>683.0</ele><time>2026-05-03T14:11:05.274Z</time></trkpt><trkpt lat="44.337215" lon="7.41476"><ele>683.0</ele><time>2026-05-03T14:11:06.274Z</time></trkpt><trkpt lat="44.3371717" lon="7.414915"><ele>683.0</ele><time>2026-05-03T14:11:07.275Z</time></trkpt><trkpt lat="44.337115" lon="7.4151083"><ele>682.0</ele><time>2026-05-03T14:11:08.274Z</time></trkpt><trkpt lat="44.3370533" lon="7.4152967"><ele>681.0</ele><time>2026-05-03T14:11:09.274Z</time></trkpt><trkpt lat="44.3369867" lon="7.4154933"><ele>680.0</ele><time>2026-05-03T14:11:10.274Z</time></trkpt><trkpt lat="44.3369183" lon="7.4156967"><ele>678.6666666666666</ele><time>2026-05-03T14:11:11.274Z</time></trkpt><trkpt lat="44.336855" lon="7.4158917"><ele>677.3333333333334</ele><time>2026-05-03T14:11:12.274Z</time></trkpt><trkpt lat="44.33679" lon="7.4160933"><ele>676.0</ele><time>2026-05-03T14:11:13.274Z</time></trkpt><trkpt lat="44.33673" lon="7.4162967"><ele>673.0</ele><time>2026-05-03T14:11:14.274Z</time></trkpt><trkpt lat="44.33667" lon="7.4164817"><ele>670.0</ele><time>2026-05-03T14:11:15.274Z</time></trkpt><trkpt lat="44.336605" lon="7.4166667"><ele>667.0</ele><time>2026-05-03T14:11:16.274Z</time></trkpt><trkpt lat="44.336545" lon="7.4168367"><ele>664.0</ele><time>2026-05-03T14:11:17.274Z</time></trkpt><trkpt lat="44.3364767" lon="7.4170083"><ele>664.0</ele><time>2026-05-03T14:11:18.274Z</time></trkpt><trkpt lat="44.33643" lon="7.4171417"><ele>664.0</ele><time>2026-05-03T14:11:19.274Z</time></trkpt><trkpt lat="44.336385" lon="7.41728"><ele>664.0</ele><time>2026-05-03T14:11:20.274Z</time></trkpt><trkpt lat="44.3363517" lon="7.417395"><ele>664.0</ele><time>2026-05-03T14:11:21.274Z</time></trkpt><trkpt lat="44.3363233" lon="7.4175133"><ele>664.0</ele><time>2026-05-03T14:11:22.274Z</time></trkpt><trkpt lat="44.3362883" lon="7.4176233"><ele>664.6</ele><time>2026-05-03T14:11:23.274Z</time></trkpt><trkpt lat="44.336245" lon="7.4177517"><ele>665.2</ele><time>2026-05-03T14:11:24.274Z</time></trkpt><trkpt lat="44.3361983" lon="7.4178783"><ele>665.8000000000001</ele><time>2026-05-03T14:11:25.274Z</time></trkpt><trkpt lat="44.33614" lon="7.418015"><ele>666.4000000000001</ele><time>2026-05-03T14:11:26.274Z</time></trkpt><trkpt lat="44.3360633" lon="7.4181533"><ele>667.0</ele><time>2026-05-03T14:11:27.274Z</time></trkpt><trkpt lat="44.3359767" lon="7.418315"><ele>668.5</ele><time>2026-05-03T14:11:28.274Z</time></trkpt><trkpt lat="44.33587" lon="7.4184483"><ele>670.0</ele><time>2026-05-03T14:11:29.274Z</time></trkpt><trkpt lat="44.33576" lon="7.418555"><ele>671.5</ele><time>2026-05-03T14:11:30.274Z</time></trkpt><trkpt lat="44.3356383" lon="7.41865"><ele>673.0</ele><time>2026-05-03T14:11:31.275Z</time></trkpt><trkpt lat="44.3355167" lon="7.41874"><ele>675.25</ele><time>2026-05-03T14:11:32.275Z</time></trkpt><trkpt lat="44.3353917" lon="7.418825"><ele>677.5</ele><time>2026-05-03T14:11:33.274Z</time></trkpt><trkpt lat="44.335265" lon="7.4189167"><ele>679.75</ele><time>2026-05-03T14:11:34.274Z</time></trkpt><trkpt lat="44.33514" lon="7.4190083"><ele>682.0</ele><time>2026-05-03T14:11:35.274Z</time></trkpt><trkpt lat="44.33502" lon="7.41911"><ele>682.0</ele><time>2026-05-03T14:11:36.274Z</time></trkpt><trkpt lat="44.3349" lon="7.419195"><ele>682.0</ele><time>2026-05-03T14:11:37.274Z</time></trkpt><trkpt lat="44.3347833" lon="7.4192983"><ele>682.0</ele><time>2026-05-03T14:11:38.274Z</time></trkpt><trkpt lat="44.3346617" lon="7.4193883"><ele>682.0</ele><time>2026-05-03T14:11:39.274Z</time></trkpt><trkpt lat="44.3345433" lon="7.4194933"><ele>682.5</ele><time>2026-05-03T14:11:40.274Z</time></trkpt><trkpt lat="44.3344433" lon="7.4196167"><ele>683.0</ele><time>2026-05-03T14:11:41.274Z</time></trkpt><trkpt lat="44.33436" lon="7.4197533"><ele>683.5</ele><time>2026-05-03T14:11:42.274Z</time></trkpt><trkpt lat="44.33429" lon="7.41991"><ele>684.0</ele><time>2026-05-03T14:11:43.274Z</time></trkpt><trkpt lat="44.3342333" lon="7.4200867"><ele>686.3333333333334</ele><time>2026-05-03T14:11:44.274Z</time></trkpt><trkpt lat="44.3341917" lon="7.42028"><ele>688.6666666666667</ele><time>2026-05-03T14:11:45.274Z</time></trkpt><trkpt lat="44.334185" lon="7.4204917"><ele>691.0</ele><time>2026-05-03T14:11:46.274Z</time></trkpt><trkpt lat="44.3341933" lon="7.4207217"><ele>693.0</ele><time>2026-05-03T14:11:47.274Z</time></trkpt><trkpt lat="44.3342317" lon="7.42098"><ele>695.0</ele><time>2026-05-03T14:11:48.275Z</time></trkpt><trkpt lat="44.33427" lon="7.42126"><ele>697.0</ele><time>2026-05-03T14:11:49.274Z</time></trkpt><trkpt lat="44.3343083" lon="7.4215567"><ele>698.6666666666667</ele><time>2026-05-03T14:11:50.274Z</time></trkpt><trkpt lat="44.3343417" lon="7.4218617"><ele>700.3333333333334</ele><time>2026-05-03T14:11:51.274Z</time></trkpt><trkpt lat="44.3343717" lon="7.4221767"><ele>702.0</ele><time>2026-05-03T14:11:52.274Z</time></trkpt><trkpt lat="44.334405" lon="7.4224983"><ele>702.3333333333334</ele><time>2026-05-03T14:11:53.274Z</time></trkpt><trkpt lat="44.3344383" lon="7.422795"><ele>702.6666666666667</ele><time>2026-05-03T14:11:54.274Z</time></trkpt><trkpt lat="44.334475" lon="7.4230917"><ele>703.0</ele><time>2026-05-03T14:11:55.274Z</time></trkpt><trkpt lat="44.3345167" lon="7.42339"><ele>703.6666666666667</ele><time>2026-05-03T14:11:56.274Z</time></trkpt><trkpt lat="44.3345567" lon="7.4236833"><ele>704.3333333333334</ele><time>2026-05-03T14:11:57.274Z</time></trkpt><trkpt lat="44.3345983" lon="7.423965"><ele>705.0</ele><time>2026-05-03T14:11:58.274Z</time></trkpt><trkpt lat="44.334635" lon="7.4242317"><ele>705.3333333333334</ele><time>2026-05-03T14:11:59.274Z</time></trkpt><trkpt lat="44.334665" lon="7.42449"><ele>705.6666666666667</ele><time>2026-05-03T14:12:00.274Z</time></trkpt><trkpt lat="44.334695" lon="7.424735"><ele>706.0</ele><time>2026-05-03T14:12:01.274Z</time></trkpt><trkpt lat="44.3347233" lon="7.4249733"><ele>704.0</ele><time>2026-05-03T14:12:02.274Z</time></trkpt><trkpt lat="44.334755" lon="7.4252117"><ele>702.0</ele><time>2026-05-03T14:12:03.274Z</time></trkpt><trkpt lat="44.334785" lon="7.42545"><ele>700.0</ele><time>2026-05-03T14:12:04.274Z</time></trkpt><trkpt lat="44.3348117" lon="7.42568"><ele>700.0</ele><time>2026-05-03T14:12:05.274Z</time></trkpt><trkpt lat="44.334845" lon="7.4259217"><ele>700.0</ele><time>2026-05-03T14:12:06.274Z</time></trkpt><trkpt lat="44.3348733" lon="7.4261567"><ele>700.0</ele><time>2026-05-03T14:12:07.274Z</time></trkpt><trkpt lat="44.3349017" lon="7.42639"><ele>699.6666666666667</ele><time>2026-05-03T14:12:08.274Z</time></trkpt><trkpt lat="44.33493" lon="7.4266167"><ele>699.3333333333334</ele><time>2026-05-03T14:12:09.274Z</time></trkpt><trkpt lat="44.3349617" lon="7.426835"><ele>699.0</ele><time>2026-05-03T14:12:10.274Z</time></trkpt><trkpt lat="44.3349917" lon="7.427055"><ele>698.3333333333334</ele><time>2026-05-03T14:12:11.274Z</time></trkpt><trkpt lat="44.3350233" lon="7.4272733"><ele>697.6666666666667</ele><time>2026-05-03T14:12:12.274Z</time></trkpt><trkpt lat="44.3350517" lon="7.4274917"><ele>697.0</ele><time>2026-05-03T14:12:13.274Z</time></trkpt><trkpt lat="44.3350817" lon="7.4277067"><ele>697.0</ele><time>2026-05-03T14:12:14.274Z</time></trkpt><trkpt lat="44.335105" lon="7.42792"><ele>697.0</ele><time>2026-05-03T14:12:15.274Z</time></trkpt><trkpt lat="44.3351233" lon="7.42813"><ele>697.0</ele><time>2026-05-03T14:12:16.274Z</time></trkpt><trkpt lat="44.33515" lon="7.4283417"><ele>697.0</ele><time>2026-05-03T14:12:17.274Z</time></trkpt><trkpt lat="44.3351783" lon="7.42856"><ele>697.0</ele><time>2026-05-03T14:12:18.274Z</time></trkpt><trkpt lat="44.3351933" lon="7.4287767"><ele>697.0</ele><time>2026-05-03T14:12:19.274Z</time></trkpt><trkpt lat="44.3352017" lon="7.428995"><ele>697.3333333333334</ele><time>2026-05-03T14:12:20.274Z</time></trkpt><trkpt lat="44.3352117" lon="7.4292083"><ele>697.6666666666666</ele><time>2026-05-03T14:12:21.274Z</time></trkpt><trkpt lat="44.3352067" lon="7.429435"><ele>698.0</ele><time>2026-05-03T14:12:22.274Z</time></trkpt><trkpt lat="44.3351917" lon="7.4296433"><ele>698.0</ele><time>2026-05-03T14:12:23.274Z</time></trkpt><trkpt lat="44.33517" lon="7.4298417"><ele>698.0</ele><time>2026-05-03T14:12:24.274Z</time></trkpt><trkpt lat="44.3351433" lon="7.430045"><ele>698.0</ele><time>2026-05-03T14:12:25.274Z</time></trkpt><trkpt lat="44.3351133" lon="7.4302483"><ele>698.0</ele><time>2026-05-03T14:12:26.274Z</time></trkpt><trkpt lat="44.33508" lon="7.4304567"><ele>697.3333333333333</ele><time>2026-05-03T14:12:27.274Z</time></trkpt><trkpt lat="44.3350483" lon="7.4306683"><ele>696.6666666666666</ele><time>2026-05-03T14:12:28.274Z</time></trkpt><trkpt lat="44.3350083" lon="7.4308783"><ele>696.0</ele><time>2026-05-03T14:12:29.274Z</time></trkpt><trkpt lat="44.334975" lon="7.4310767"><ele>696.0</ele><time>2026-05-03T14:12:30.274Z</time></trkpt><trkpt lat="44.3349483" lon="7.4312717"><ele>696.0</ele><time>2026-05-03T14:12:31.275Z</time></trkpt><trkpt lat="44.334915" lon="7.4314567"><ele>696.0</ele><time>2026-05-03T14:12:32.274Z</time></trkpt><trkpt lat="44.3348783" lon="7.4316617"><ele>696.0</ele><time>2026-05-03T14:12:33.274Z</time></trkpt><trkpt lat="44.33485" lon="7.43186"><ele>695.6666666666666</ele><time>2026-05-03T14:12:34.274Z</time></trkpt><trkpt lat="44.33482" lon="7.432065"><ele>695.3333333333333</ele><time>2026-05-03T14:12:35.274Z</time></trkpt><trkpt lat="44.3347917" lon="7.43227"><ele>695.0</ele><time>2026-05-03T14:12:36.274Z</time></trkpt><trkpt lat="44.3347633" lon="7.43248"><ele>695.0</ele><time>2026-05-03T14:12:37.274Z</time></trkpt><trkpt lat="44.3347283" lon="7.4326783"><ele>695.0</ele><time>2026-05-03T14:12:38.274Z</time></trkpt><trkpt lat="44.3346917" lon="7.4329"><ele>695.0</ele><time>2026-05-03T14:12:39.274Z</time></trkpt><trkpt lat="44.3346583" lon="7.4331217"><ele>695.0</ele><time>2026-05-03T14:12:40.274Z</time></trkpt><trkpt lat="44.3346233" lon="7.43334"><ele>695.0</ele><time>2026-05-03T14:12:41.274Z</time></trkpt><trkpt lat="44.3345883" lon="7.433545"><ele>695.0</ele><time>2026-05-03T14:12:42.274Z</time></trkpt><trkpt lat="44.3345583" lon="7.4337483"><ele>695.0</ele><time>2026-05-03T14:12:43.274Z</time></trkpt><trkpt lat="44.33453" lon="7.4339617"><ele>695.0</ele><time>2026-05-03T14:12:44.274Z</time></trkpt><trkpt lat="44.33449" lon="7.4341783"><ele>695.0</ele><time>2026-05-03T14:12:45.274Z</time></trkpt><trkpt lat="44.3344517" lon="7.434395"><ele>695.0</ele><time>2026-05-03T14:12:46.274Z</time></trkpt><trkpt lat="44.3344167" lon="7.4346"><ele>695.0</ele><time>2026-05-03T14:12:47.275Z</time></trkpt><trkpt lat="44.3343833" lon="7.4348033"><ele>695.0</ele><time>2026-05-03T14:12:48.274Z</time></trkpt><trkpt lat="44.33435" lon="7.435025"><ele>694.6666666666666</ele><time>2026-05-03T14:12:49.274Z</time></trkpt><trkpt lat="44.33432" lon="7.4352417"><ele>694.3333333333334</ele><time>2026-05-03T14:12:50.274Z</time></trkpt><trkpt lat="44.334295" lon="7.43544"><ele>694.0</ele><time>2026-05-03T14:12:51.274Z</time></trkpt><trkpt lat="44.3342617" lon="7.4356533"><ele>694.0</ele><time>2026-05-03T14:12:52.274Z</time></trkpt><trkpt lat="44.3342233" lon="7.4358617"><ele>694.0</ele><time>2026-05-03T14:12:53.274Z</time></trkpt><trkpt lat="44.3341883" lon="7.43607"><ele>694.0</ele><time>2026-05-03T14:12:54.274Z</time></trkpt><trkpt lat="44.33416" lon="7.4362767"><ele>693.6666666666667</ele><time>2026-05-03T14:12:55.274Z</time></trkpt><trkpt lat="44.3341267" lon="7.436495"><ele>693.3333333333334</ele><time>2026-05-03T14:12:56.274Z</time></trkpt><trkpt lat="44.3340933" lon="7.436715"><ele>693.0</ele><time>2026-05-03T14:12:57.274Z</time></trkpt><trkpt lat="44.3340583" lon="7.436925"><ele>692.0</ele><time>2026-05-03T14:12:58.274Z</time></trkpt><trkpt lat="44.3340267" lon="7.4371383"><ele>691.0</ele><time>2026-05-03T14:12:59.275Z</time></trkpt><trkpt lat="44.3339917" lon="7.4373333"><ele>690.0</ele><time>2026-05-03T14:13:00.274Z</time></trkpt><trkpt lat="44.3339517" lon="7.4375417"><ele>690.0</ele><time>2026-05-03T14:13:01.274Z</time></trkpt><trkpt lat="44.3339017" lon="7.4377467"><ele>690.0</ele><time>2026-05-03T14:13:02.274Z</time></trkpt><trkpt lat="44.33386" lon="7.43795"><ele>690.0</ele><time>2026-05-03T14:13:03.274Z</time></trkpt><trkpt lat="44.3338167" lon="7.4381517"><ele>690.0</ele><time>2026-05-03T14:13:04.274Z</time></trkpt><trkpt lat="44.333765" lon="7.43835"><ele>690.0</ele><time>2026-05-03T14:13:05.274Z</time></trkpt><trkpt lat="44.33371" lon="7.4385617"><ele>690.0</ele><time>2026-05-03T14:13:06.274Z</time></trkpt><trkpt lat="44.3336583" lon="7.4387833"><ele>689.6666666666666</ele><time>2026-05-03T14:13:07.274Z</time></trkpt><trkpt lat="44.33361" lon="7.438995"><ele>689.3333333333333</ele><time>2026-05-03T14:13:08.274Z</time></trkpt><trkpt lat="44.33356" lon="7.4392083"><ele>689.0</ele><time>2026-05-03T14:13:09.274Z</time></trkpt><trkpt lat="44.3335017" lon="7.4394167"><ele>689.0</ele><time>2026-05-03T14:13:10.274Z</time></trkpt><trkpt lat="44.3334517" lon="7.4396283"><ele>689.0</ele><time>2026-05-03T14:13:11.274Z</time></trkpt><trkpt lat="44.3334033" lon="7.4398317"><ele>689.0</ele><time>2026-05-03T14:13:12.274Z</time></trkpt><trkpt lat="44.3333567" lon="7.4400333"><ele>688.6666666666666</ele><time>2026-05-03T14:13:13.274Z</time></trkpt><trkpt lat="44.3333183" lon="7.44025"><ele>688.3333333333334</ele><time>2026-05-03T14:13:14.274Z</time></trkpt><trkpt lat="44.3332767" lon="7.44046"><ele>688.0</ele><time>2026-05-03T14:13:15.274Z</time></trkpt><trkpt lat="44.3332533" lon="7.4406767"><ele>687.3333333333334</ele><time>2026-05-03T14:13:16.274Z</time></trkpt><trkpt lat="44.3332467" lon="7.4409117"><ele>686.6666666666666</ele><time>2026-05-03T14:13:17.274Z</time></trkpt><trkpt lat="44.3332633" lon="7.44116"><ele>686.0</ele><time>2026-05-03T14:13:18.274Z</time></trkpt><trkpt lat="44.3332833" lon="7.4413983"><ele>686.0</ele><time>2026-05-03T14:13:19.274Z</time></trkpt><trkpt lat="44.3333017" lon="7.4416333"><ele>686.0</ele><time>2026-05-03T14:13:20.275Z</time></trkpt><trkpt lat="44.333315" lon="7.4418517"><ele>686.0</ele><time>2026-05-03T14:13:21.274Z</time></trkpt><trkpt lat="44.333325" lon="7.44206"><ele>686.3333333333333</ele><time>2026-05-03T14:13:22.274Z</time></trkpt><trkpt lat="44.3333417" lon="7.4422717"><ele>686.6666666666666</ele><time>2026-05-03T14:13:23.274Z</time></trkpt><trkpt lat="44.333355" lon="7.4424783"><ele>687.0</ele><time>2026-05-03T14:13:24.274Z</time></trkpt><trkpt lat="44.3333683" lon="7.4426867"><ele>687.0</ele><time>2026-05-03T14:13:25.274Z</time></trkpt><trkpt lat="44.3333867" lon="7.442895"><ele>687.0</ele><time>2026-05-03T14:13:26.274Z</time></trkpt><trkpt lat="44.3334083" lon="7.443105"><ele>687.0</ele><time>2026-05-03T14:13:27.275Z</time></trkpt><trkpt lat="44.3334233" lon="7.443315"><ele>686.3333333333334</ele><time>2026-05-03T14:13:28.274Z</time></trkpt><trkpt lat="44.33344" lon="7.4435267"><ele>685.6666666666667</ele><time>2026-05-03T14:13:29.274Z</time></trkpt><trkpt lat="44.333455" lon="7.44374"><ele>685.0</ele><time>2026-05-03T14:13:30.274Z</time></trkpt><trkpt lat="44.33347" lon="7.443965"><ele>684.6666666666667</ele><time>2026-05-03T14:13:31.274Z</time></trkpt><trkpt lat="44.3334867" lon="7.4441933"><ele>684.3333333333334</ele><time>2026-05-03T14:13:32.275Z</time></trkpt><trkpt lat="44.3335067" lon="7.44442"><ele>684.0</ele><time>2026-05-03T14:13:33.274Z</time></trkpt><trkpt lat="44.33352" lon="7.444645"><ele>683.3333333333334</ele><time>2026-05-03T14:13:34.275Z</time></trkpt><trkpt lat="44.333535" lon="7.444875"><ele>682.6666666666667</ele><time>2026-05-03T14:13:35.274Z</time></trkpt><trkpt lat="44.3335517" lon="7.4450983"><ele>682.0</ele><time>2026-05-03T14:13:36.274Z</time></trkpt><trkpt lat="44.333565" lon="7.4453317"><ele>682.3333333333334</ele><time>2026-05-03T14:13:37.275Z</time></trkpt><trkpt lat="44.3335883" lon="7.445555"><ele>682.6666666666666</ele><time>2026-05-03T14:13:38.274Z</time></trkpt><trkpt lat="44.3336067" lon="7.44578"><ele>683.0</ele><time>2026-05-03T14:13:39.274Z</time></trkpt><trkpt lat="44.3336233" lon="7.4460033"><ele>683.0</ele><time>2026-05-03T14:13:40.274Z</time></trkpt><trkpt lat="44.33364" lon="7.4462217"><ele>683.0</ele><time>2026-05-03T14:13:41.274Z</time></trkpt><trkpt lat="44.3336583" lon="7.44643"><ele>683.0</ele><time>2026-05-03T14:13:42.275Z</time></trkpt><trkpt lat="44.3336767" lon="7.4466383"><ele>682.3333333333333</ele><time>2026-05-03T14:13:43.274Z</time></trkpt><trkpt lat="44.3336933" lon="7.4468433"><ele>681.6666666666666</ele><time>2026-05-03T14:13:44.274Z</time></trkpt><trkpt lat="44.3337083" lon="7.4470567"><ele>681.0</ele><time>2026-05-03T14:13:45.275Z</time></trkpt><trkpt lat="44.3337233" lon="7.4472733"><ele>681.0</ele><time>2026-05-03T14:13:46.274Z</time></trkpt><trkpt lat="44.3337383" lon="7.4474883"><ele>681.0</ele><time>2026-05-03T14:13:47.274Z</time></trkpt><trkpt lat="44.3337567" lon="7.4477067"><ele>681.0</ele><time>2026-05-03T14:13:48.275Z</time></trkpt><trkpt lat="44.333775" lon="7.447925"><ele>681.3333333333334</ele><time>2026-05-03T14:13:49.274Z</time></trkpt><trkpt lat="44.3337917" lon="7.4481367"><ele>681.6666666666667</ele><time>2026-05-03T14:13:50.274Z</time></trkpt><trkpt lat="44.3338083" lon="7.448355"><ele>682.0</ele><time>2026-05-03T14:13:51.274Z</time></trkpt><trkpt lat="44.33383" lon="7.448575"><ele>681.3333333333334</ele><time>2026-05-03T14:13:52.274Z</time></trkpt><trkpt lat="44.3338417" lon="7.4487983"><ele>680.6666666666666</ele><time>2026-05-03T14:13:53.274Z</time></trkpt><trkpt lat="44.33386" lon="7.4490217"><ele>680.0</ele><time>2026-05-03T14:13:54.274Z</time></trkpt><trkpt lat="44.333875" lon="7.4492483"><ele>679.6666666666666</ele><time>2026-05-03T14:13:55.274Z</time></trkpt><trkpt lat="44.3338933" lon="7.4494683"><ele>679.3333333333334</ele><time>2026-05-03T14:13:56.274Z</time></trkpt><trkpt lat="44.33391" lon="7.44969"><ele>679.0</ele><time>2026-05-03T14:13:57.274Z</time></trkpt><trkpt lat="44.3339283" lon="7.4499183"><ele>679.0</ele><time>2026-05-03T14:13:58.274Z</time></trkpt><trkpt lat="44.333945" lon="7.4501483"><ele>679.0</ele><time>2026-05-03T14:13:59.274Z</time></trkpt><trkpt lat="44.3339633" lon="7.4503733"><ele>679.0</ele><time>2026-05-03T14:14:00.274Z</time></trkpt><trkpt lat="44.3339817" lon="7.4505933"><ele>677.3333333333334</ele><time>2026-05-03T14:14:01.274Z</time></trkpt><trkpt lat="44.3339967" lon="7.4508283"><ele>675.6666666666666</ele><time>2026-05-03T14:14:02.274Z</time></trkpt><trkpt lat="44.3340167" lon="7.4510567"><ele>674.0</ele><time>2026-05-03T14:14:03.274Z</time></trkpt><trkpt lat="44.334035" lon="7.451285"><ele>673.6666666666666</ele><time>2026-05-03T14:14:04.274Z</time></trkpt><trkpt lat="44.334055" lon="7.4515183"><ele>673.3333333333334</ele><time>2026-05-03T14:14:05.274Z</time></trkpt><trkpt lat="44.3340717" lon="7.4517467"><ele>673.0</ele><time>2026-05-03T14:14:06.274Z</time></trkpt><trkpt lat="44.3340833" lon="7.4519683"><ele>673.0</ele><time>2026-05-03T14:14:07.275Z</time></trkpt><trkpt lat="44.3340983" lon="7.4521983"><ele>673.0</ele><time>2026-05-03T14:14:08.274Z</time></trkpt><trkpt lat="44.334115" lon="7.4524283"><ele>673.0</ele><time>2026-05-03T14:14:09.274Z</time></trkpt><trkpt lat="44.3341367" lon="7.45265"><ele>673.0</ele><time>2026-05-03T14:14:10.274Z</time></trkpt><trkpt lat="44.3341517" lon="7.452875"><ele>673.0</ele><time>2026-05-03T14:14:11.274Z</time></trkpt><trkpt lat="44.3341667" lon="7.4530967"><ele>673.0</ele><time>2026-05-03T14:14:12.274Z</time></trkpt><trkpt lat="44.3341817" lon="7.4533117"><ele>673.0</ele><time>2026-05-03T14:14:13.274Z</time></trkpt><trkpt lat="44.3341983" lon="7.453515"><ele>673.0</ele><time>2026-05-03T14:14:14.274Z</time></trkpt><trkpt lat="44.334205" lon="7.4537133"><ele>673.0</ele><time>2026-05-03T14:14:15.274Z</time></trkpt><trkpt lat="44.3342267" lon="7.4538867"><ele>673.0</ele><time>2026-05-03T14:14:16.274Z</time></trkpt><trkpt lat="44.33424" lon="7.4540767"><ele>673.25</ele><time>2026-05-03T14:14:17.274Z</time></trkpt><trkpt lat="44.3342567" lon="7.4542667"><ele>673.5</ele><time>2026-05-03T14:14:18.274Z</time></trkpt><trkpt lat="44.3342717" lon="7.454455"><ele>673.75</ele><time>2026-05-03T14:14:19.274Z</time></trkpt><trkpt lat="44.3342917" lon="7.454625"><ele>674.0</ele><time>2026-05-03T14:14:20.274Z</time></trkpt><trkpt lat="44.334305" lon="7.4548133"><ele>673.5</ele><time>2026-05-03T14:14:21.274Z</time></trkpt><trkpt lat="44.334325" lon="7.4549933"><ele>673.0</ele><time>2026-05-03T14:14:22.274Z</time></trkpt><trkpt lat="44.3343417" lon="7.4551717"><ele>672.5</ele><time>2026-05-03T14:14:23.274Z</time></trkpt><trkpt lat="44.33435" lon="7.4553483"><ele>672.0</ele><time>2026-05-03T14:14:24.275Z</time></trkpt><trkpt lat="44.334355" lon="7.4555133"><ele>672.0</ele><time>2026-05-03T14:14:25.274Z</time></trkpt><trkpt lat="44.3343667" lon="7.45567"><ele>672.0</ele><time>2026-05-03T14:14:26.274Z</time></trkpt><trkpt lat="44.3343767" lon="7.45582"><ele>672.0</ele><time>2026-05-03T14:14:27.274Z</time></trkpt><trkpt lat="44.3343917" lon="7.4559667"><ele>672.0</ele><time>2026-05-03T14:14:28.274Z</time></trkpt><trkpt lat="44.334405" lon="7.45612"><ele>672.0</ele><time>2026-05-03T14:14:29.274Z</time></trkpt><trkpt lat="44.3344233" lon="7.4562817"><ele>672.0</ele><time>2026-05-03T14:14:30.274Z</time></trkpt><trkpt lat="44.3344367" lon="7.4564333"><ele>672.0</ele><time>2026-05-03T14:14:31.274Z</time></trkpt><trkpt lat="44.3344417" lon="7.4565683"><ele>672.0</ele><time>2026-05-03T14:14:32.274Z</time></trkpt><trkpt lat="44.3344467" lon="7.4566867"><ele>672.0</ele><time>2026-05-03T14:14:33.274Z</time></trkpt><trkpt lat="44.3344567" lon="7.4567817"><ele>672.0</ele><time>2026-05-03T14:14:34.274Z</time></trkpt><trkpt lat="44.334465" lon="7.4569433"><ele>672.0</ele><time>2026-05-03T14:14:36.274Z</time></trkpt><trkpt lat="44.3344917" lon="7.457095"><ele>672.0</ele><time>2026-05-03T14:14:38.274Z</time></trkpt><trkpt lat="44.334505" lon="7.4571933"><ele>672.0</ele><time>2026-05-03T14:14:39.274Z</time></trkpt><trkpt lat="44.33451" lon="7.4573067"><ele>672.0</ele><time>2026-05-03T14:14:40.274Z</time></trkpt><trkpt lat="44.3345267" lon="7.4574317"><ele>672.0</ele><time>2026-05-03T14:14:41.274Z</time></trkpt><trkpt lat="44.33454" lon="7.4575633"><ele>672.0</ele><time>2026-05-03T14:14:42.274Z</time></trkpt><trkpt lat="44.3345433" lon="7.45771"><ele>672.0</ele><time>2026-05-03T14:14:43.274Z</time></trkpt><trkpt lat="44.3345483" lon="7.4578567"><ele>672.0</ele><time>2026-05-03T14:14:44.274Z</time></trkpt><trkpt lat="44.3345617" lon="7.45802"><ele>672.0</ele><time>2026-05-03T14:14:45.274Z</time></trkpt><trkpt lat="44.33457" lon="7.458185"><ele>672.0</ele><time>2026-05-03T14:14:46.274Z</time></trkpt><trkpt lat="44.3345817" lon="7.4583483"><ele>671.25</ele><time>2026-05-03T14:14:47.274Z</time></trkpt><trkpt lat="44.3345917" lon="7.4585067"><ele>670.5</ele><time>2026-05-03T14:14:48.274Z</time></trkpt><trkpt lat="44.3345983" lon="7.45868"><ele>669.75</ele><time>2026-05-03T14:14:49.275Z</time></trkpt><trkpt lat="44.33461" lon="7.4588533"><ele>669.0</ele><time>2026-05-03T14:14:50.274Z</time></trkpt><trkpt lat="44.3346267" lon="7.4590267"><ele>669.0</ele><time>2026-05-03T14:14:51.274Z</time></trkpt><trkpt lat="44.3346433" lon="7.4592033"><ele>669.0</ele><time>2026-05-03T14:14:52.274Z</time></trkpt><trkpt lat="44.3346617" lon="7.4593733"><ele>669.0</ele><time>2026-05-03T14:14:53.274Z</time></trkpt><trkpt lat="44.334675" lon="7.459545"><ele>669.0</ele><time>2026-05-03T14:14:54.274Z</time></trkpt><trkpt lat="44.33468" lon="7.4597233"><ele>669.0</ele><time>2026-05-03T14:14:55.274Z</time></trkpt><trkpt lat="44.3346883" lon="7.4599017"><ele>669.0</ele><time>2026-05-03T14:14:56.274Z</time></trkpt><trkpt lat="44.33469" lon="7.4600667"><ele>669.0</ele><time>2026-05-03T14:14:57.274Z</time></trkpt><trkpt lat="44.334695" lon="7.46024"><ele>669.0</ele><time>2026-05-03T14:14:58.274Z</time></trkpt><trkpt lat="44.3347017" lon="7.460405"><ele>668.5</ele><time>2026-05-03T14:14:59.274Z</time></trkpt><trkpt lat="44.3347083" lon="7.4605683"><ele>668.0</ele><time>2026-05-03T14:15:00.274Z</time></trkpt><trkpt lat="44.33471" lon="7.46074"><ele>667.5</ele><time>2026-05-03T14:15:01.274Z</time></trkpt><trkpt lat="44.334705" lon="7.46091"><ele>667.0</ele><time>2026-05-03T14:15:02.274Z</time></trkpt><trkpt lat="44.3347017" lon="7.461075"><ele>667.0</ele><time>2026-05-03T14:15:03.274Z</time></trkpt><trkpt lat="44.3346967" lon="7.4612467"><ele>667.0</ele><time>2026-05-03T14:15:04.274Z</time></trkpt><trkpt lat="44.3346867" lon="7.4614033"><ele>667.0</ele><time>2026-05-03T14:15:05.274Z</time></trkpt><trkpt lat="44.3346733" lon="7.4615767"><ele>667.0</ele><time>2026-05-03T14:15:06.274Z</time></trkpt><trkpt lat="44.3346567" lon="7.4617467"><ele>666.75</ele><time>2026-05-03T14:15:07.274Z</time></trkpt><trkpt lat="44.3346383" lon="7.46192"><ele>666.5</ele><time>2026-05-03T14:15:08.274Z</time></trkpt><trkpt lat="44.33462" lon="7.462095"><ele>666.25</ele><time>2026-05-03T14:15:09.274Z</time></trkpt><trkpt lat="44.3346017" lon="7.4622667"><ele>666.0</ele><time>2026-05-03T14:15:10.274Z</time></trkpt><trkpt lat="44.334585" lon="7.4624383"><ele>665.5</ele><time>2026-05-03T14:15:11.274Z</time></trkpt><trkpt lat="44.33457" lon="7.46261"><ele>665.0</ele><time>2026-05-03T14:15:12.274Z</time></trkpt><trkpt lat="44.334555" lon="7.46277"><ele>664.5</ele><time>2026-05-03T14:15:13.274Z</time></trkpt><trkpt lat="44.3345417" lon="7.4629283"><ele>664.0</ele><time>2026-05-03T14:15:14.274Z</time></trkpt><trkpt lat="44.33453" lon="7.46308"><ele>663.6</ele><time>2026-05-03T14:15:15.274Z</time></trkpt><trkpt lat="44.3345083" lon="7.463235"><ele>663.2</ele><time>2026-05-03T14:15:16.274Z</time></trkpt><trkpt lat="44.33449" lon="7.4633867"><ele>662.8000000000001</ele><time>2026-05-03T14:15:17.274Z</time></trkpt><trkpt lat="44.3344683" lon="7.4635433"><ele>662.4000000000001</ele><time>2026-05-03T14:15:18.274Z</time></trkpt><trkpt lat="44.334455" lon="7.4636967"><ele>662.0</ele><time>2026-05-03T14:15:19.274Z</time></trkpt><trkpt lat="44.3344483" lon="7.46384"><ele>662.0</ele><time>2026-05-03T14:15:20.274Z</time></trkpt><trkpt lat="44.3344367" lon="7.4639883"><ele>662.0</ele><time>2026-05-03T14:15:21.274Z</time></trkpt><trkpt lat="44.334425" lon="7.4641367"><ele>662.0</ele><time>2026-05-03T14:15:22.274Z</time></trkpt><trkpt lat="44.334415" lon="7.4642883"><ele>662.0</ele><time>2026-05-03T14:15:23.275Z</time></trkpt><trkpt lat="44.3344017" lon="7.4644417"><ele>662.0</ele><time>2026-05-03T14:15:24.274Z</time></trkpt><trkpt lat="44.3343917" lon="7.4645883"><ele>662.0</ele><time>2026-05-03T14:15:25.274Z</time></trkpt><trkpt lat="44.334375" lon="7.46474"><ele>662.0</ele><time>2026-05-03T14:15:26.274Z</time></trkpt><trkpt lat="44.3343667" lon="7.4649"><ele>662.0</ele><time>2026-05-03T14:15:27.274Z</time></trkpt><trkpt lat="44.3343517" lon="7.465055"><ele>662.0</ele><time>2026-05-03T14:15:28.274Z</time></trkpt><trkpt lat="44.334325" lon="7.4652333"><ele>662.0</ele><time>2026-05-03T14:15:29.275Z</time></trkpt><trkpt lat="44.334305" lon="7.465415"><ele>662.0</ele><time>2026-05-03T14:15:30.274Z</time></trkpt><trkpt lat="44.334285" lon="7.4656017"><ele>662.0</ele><time>2026-05-03T14:15:31.274Z</time></trkpt><trkpt lat="44.3342717" lon="7.4657967"><ele>662.0</ele><time>2026-05-03T14:15:32.274Z</time></trkpt><trkpt lat="44.334255" lon="7.4659883"><ele>661.6666666666666</ele><time>2026-05-03T14:15:33.275Z</time></trkpt><trkpt lat="44.334235" lon="7.4661883"><ele>661.3333333333334</ele><time>2026-05-03T14:15:34.274Z</time></trkpt><trkpt lat="44.3342133" lon="7.4664067"><ele>661.0</ele><time>2026-05-03T14:15:35.274Z</time></trkpt><trkpt lat="44.33419" lon="7.4666167"><ele>660.6666666666667</ele><time>2026-05-03T14:15:36.274Z</time></trkpt><trkpt lat="44.33416" lon="7.466825"><ele>660.3333333333334</ele><time>2026-05-03T14:15:37.275Z</time></trkpt><trkpt lat="44.3341267" lon="7.4670317"><ele>660.0</ele><time>2026-05-03T14:15:38.275Z</time></trkpt><trkpt lat="44.3340867" lon="7.4672317"><ele>659.5</ele><time>2026-05-03T14:15:39.274Z</time></trkpt><trkpt lat="44.3340467" lon="7.46743"><ele>659.0</ele><time>2026-05-03T14:15:40.274Z</time></trkpt><trkpt lat="44.334005" lon="7.4676267"><ele>658.5</ele><time>2026-05-03T14:15:41.274Z</time></trkpt><trkpt lat="44.33396" lon="7.4678133"><ele>658.0</ele><time>2026-05-03T14:15:42.275Z</time></trkpt><trkpt lat="44.3339183" lon="7.4680033"><ele>657.75</ele><time>2026-05-03T14:15:43.274Z</time></trkpt><trkpt lat="44.3338733" lon="7.46819"><ele>657.5</ele><time>2026-05-03T14:15:44.274Z</time></trkpt><trkpt lat="44.3338367" lon="7.4683717"><ele>657.25</ele><time>2026-05-03T14:15:45.275Z</time></trkpt><trkpt lat="44.3337917" lon="7.4685467"><ele>657.0</ele><time>2026-05-03T14:15:46.274Z</time></trkpt><trkpt lat="44.333745" lon="7.4687333"><ele>657.0</ele><time>2026-05-03T14:15:47.274Z</time></trkpt><trkpt lat="44.3337017" lon="7.468915"><ele>657.0</ele><time>2026-05-03T14:15:48.274Z</time></trkpt><trkpt lat="44.3336583" lon="7.46909"><ele>657.0</ele><time>2026-05-03T14:15:49.274Z</time></trkpt><trkpt lat="44.3336167" lon="7.469255"><ele>657.0</ele><time>2026-05-03T14:15:50.274Z</time></trkpt><trkpt lat="44.3335783" lon="7.4694167"><ele>657.0</ele><time>2026-05-03T14:15:51.274Z</time></trkpt><trkpt lat="44.3335417" lon="7.4695767"><ele>657.0</ele><time>2026-05-03T14:15:52.274Z</time></trkpt><trkpt lat="44.333505" lon="7.4697417"><ele>657.0</ele><time>2026-05-03T14:15:53.274Z</time></trkpt><trkpt lat="44.3334633" lon="7.46991"><ele>657.0</ele><time>2026-05-03T14:15:54.274Z</time></trkpt><trkpt lat="44.3334233" lon="7.4700667"><ele>657.0</ele><time>2026-05-03T14:15:55.274Z</time></trkpt><trkpt lat="44.3333817" lon="7.4702283"><ele>657.0</ele><time>2026-05-03T14:15:56.274Z</time></trkpt><trkpt lat="44.333345" lon="7.4703867"><ele>657.0</ele><time>2026-05-03T14:15:57.274Z</time></trkpt><trkpt lat="44.333315" lon="7.4705517"><ele>657.0</ele><time>2026-05-03T14:15:58.274Z</time></trkpt><trkpt lat="44.3332783" lon="7.4707067"><ele>656.5</ele><time>2026-05-03T14:15:59.274Z</time></trkpt><trkpt lat="44.33324" lon="7.4708633"><ele>656.0</ele><time>2026-05-03T14:16:00.274Z</time></trkpt><trkpt lat="44.3332033" lon="7.471015"><ele>655.5</ele><time>2026-05-03T14:16:01.274Z</time></trkpt><trkpt lat="44.3331683" lon="7.4711783"><ele>655.0</ele><time>2026-05-03T14:16:02.275Z</time></trkpt><trkpt lat="44.3331333" lon="7.4713367"><ele>655.25</ele><time>2026-05-03T14:16:03.275Z</time></trkpt><trkpt lat="44.3330983" lon="7.4714917"><ele>655.5</ele><time>2026-05-03T14:16:04.274Z</time></trkpt><trkpt lat="44.3330567" lon="7.471665"><ele>655.75</ele><time>2026-05-03T14:16:05.274Z</time></trkpt><trkpt lat="44.3330083" lon="7.4718533"><ele>656.0</ele><time>2026-05-03T14:16:06.274Z</time></trkpt><trkpt lat="44.332965" lon="7.472035"><ele>655.25</ele><time>2026-05-03T14:16:07.274Z</time></trkpt><trkpt lat="44.3329183" lon="7.472215"><ele>654.5</ele><time>2026-05-03T14:16:08.275Z</time></trkpt><trkpt lat="44.332875" lon="7.47239"><ele>653.75</ele><time>2026-05-03T14:16:09.274Z</time></trkpt><trkpt lat="44.3328333" lon="7.472565"><ele>653.0</ele><time>2026-05-03T14:16:10.274Z</time></trkpt><trkpt lat="44.332795" lon="7.4727483"><ele>653.0</ele><time>2026-05-03T14:16:11.274Z</time></trkpt><trkpt lat="44.3327567" lon="7.4729217"><ele>653.0</ele><time>2026-05-03T14:16:12.274Z</time></trkpt><trkpt lat="44.3327167" lon="7.4730817"><ele>653.0</ele><time>2026-05-03T14:16:13.275Z</time></trkpt><trkpt lat="44.3326817" lon="7.4732383"><ele>653.0</ele><time>2026-05-03T14:16:14.274Z</time></trkpt><trkpt lat="44.3326433" lon="7.47338"><ele>653.0</ele><time>2026-05-03T14:16:15.274Z</time></trkpt><trkpt lat="44.3326067" lon="7.4735383"><ele>653.0</ele><time>2026-05-03T14:16:16.274Z</time></trkpt><trkpt lat="44.33257" lon="7.4736983"><ele>653.0</ele><time>2026-05-03T14:16:17.274Z</time></trkpt><trkpt lat="44.33253" lon="7.4738583"><ele>653.0</ele><time>2026-05-03T14:16:18.274Z</time></trkpt><trkpt lat="44.3324967" lon="7.4740083"><ele>653.0</ele><time>2026-05-03T14:16:19.274Z</time></trkpt><trkpt lat="44.332465" lon="7.4741517"><ele>653.0</ele><time>2026-05-03T14:16:20.274Z</time></trkpt><trkpt lat="44.3324417" lon="7.4742733"><ele>653.0</ele><time>2026-05-03T14:16:21.274Z</time></trkpt><trkpt lat="44.3324217" lon="7.4743983"><ele>653.0</ele><time>2026-05-03T14:16:22.274Z</time></trkpt><trkpt lat="44.332405" lon="7.4745167"><ele>653.0</ele><time>2026-05-03T14:16:23.275Z</time></trkpt><trkpt lat="44.3323933" lon="7.4746233"><ele>652.4</ele><time>2026-05-03T14:16:24.274Z</time></trkpt><trkpt lat="44.3323717" lon="7.47474"><ele>651.8</ele><time>2026-05-03T14:16:25.274Z</time></trkpt><trkpt lat="44.3323617" lon="7.474855"><ele>651.2</ele><time>2026-05-03T14:16:26.274Z</time></trkpt><trkpt lat="44.3323467" lon="7.474995"><ele>650.6</ele><time>2026-05-03T14:16:27.274Z</time></trkpt><trkpt lat="44.332315" lon="7.4751483"><ele>650.0</ele><time>2026-05-03T14:16:28.274Z</time></trkpt><trkpt lat="44.33227" lon="7.4753017"><ele>650.25</ele><time>2026-05-03T14:16:29.274Z</time></trkpt><trkpt lat="44.332215" lon="7.4754617"><ele>650.5</ele><time>2026-05-03T14:16:30.274Z</time></trkpt><trkpt lat="44.3321567" lon="7.47562"><ele>650.75</ele><time>2026-05-03T14:16:31.275Z</time></trkpt><trkpt lat="44.3321017" lon="7.4757783"><ele>651.0</ele><time>2026-05-03T14:16:32.275Z</time></trkpt><trkpt lat="44.3320483" lon="7.4759483"><ele>651.0</ele><time>2026-05-03T14:16:33.274Z</time></trkpt><trkpt lat="44.3319967" lon="7.4761267"><ele>651.0</ele><time>2026-05-03T14:16:34.274Z</time></trkpt><trkpt lat="44.3319517" lon="7.4762983"><ele>651.0</ele><time>2026-05-03T14:16:35.274Z</time></trkpt><trkpt lat="44.3319083" lon="7.4764717"><ele>651.0</ele><time>2026-05-03T14:16:36.274Z</time></trkpt><trkpt lat="44.3318667" lon="7.4766367"><ele>650.5</ele><time>2026-05-03T14:16:37.274Z</time></trkpt><trkpt lat="44.3318367" lon="7.4767983"><ele>650.0</ele><time>2026-05-03T14:16:38.274Z</time></trkpt><trkpt lat="44.3317967" lon="7.476975"><ele>649.5</ele><time>2026-05-03T14:16:39.274Z</time></trkpt><trkpt lat="44.3317517" lon="7.477155"><ele>649.0</ele><time>2026-05-03T14:16:40.274Z</time></trkpt><trkpt lat="44.331715" lon="7.4773317"><ele>648.5</ele><time>2026-05-03T14:16:41.274Z</time></trkpt><trkpt lat="44.33168" lon="7.4775017"><ele>648.0</ele><time>2026-05-03T14:16:42.274Z</time></trkpt><trkpt lat="44.3316417" lon="7.47768"><ele>647.5</ele><time>2026-05-03T14:16:43.274Z</time></trkpt><trkpt lat="44.3315917" lon="7.4778667"><ele>647.0</ele><time>2026-05-03T14:16:44.274Z</time></trkpt><trkpt lat="44.3315467" lon="7.4780317"><ele>647.0</ele><time>2026-05-03T14:16:45.274Z</time></trkpt><trkpt lat="44.331505" lon="7.478225"><ele>647.0</ele><time>2026-05-03T14:16:46.274Z</time></trkpt><trkpt lat="44.33147" lon="7.4784033"><ele>647.0</ele><time>2026-05-03T14:16:47.274Z</time></trkpt><trkpt lat="44.3314183" lon="7.4785867"><ele>647.0</ele><time>2026-05-03T14:16:48.275Z</time></trkpt><trkpt lat="44.33137" lon="7.47876"><ele>647.25</ele><time>2026-05-03T14:16:49.274Z</time></trkpt><trkpt lat="44.3313233" lon="7.47896"><ele>647.5</ele><time>2026-05-03T14:16:50.274Z</time></trkpt><trkpt lat="44.3312767" lon="7.4791583"><ele>647.75</ele><time>2026-05-03T14:16:51.275Z</time></trkpt><trkpt lat="44.3312417" lon="7.479345"><ele>648.0</ele><time>2026-05-03T14:16:52.274Z</time></trkpt><trkpt lat="44.3311983" lon="7.479535"><ele>647.75</ele><time>2026-05-03T14:16:53.274Z</time></trkpt><trkpt lat="44.331155" lon="7.4797267"><ele>647.5</ele><time>2026-05-03T14:16:54.274Z</time></trkpt><trkpt lat="44.33111" lon="7.4799183"><ele>647.25</ele><time>2026-05-03T14:16:55.274Z</time></trkpt><trkpt lat="44.3310667" lon="7.4801083"><ele>647.0</ele><time>2026-05-03T14:16:56.274Z</time></trkpt><trkpt lat="44.3310167" lon="7.4803017"><ele>646.25</ele><time>2026-05-03T14:16:57.274Z</time></trkpt><trkpt lat="44.3309717" lon="7.480495"><ele>645.5</ele><time>2026-05-03T14:16:58.274Z</time></trkpt><trkpt lat="44.3309333" lon="7.4806867"><ele>644.75</ele><time>2026-05-03T14:16:59.274Z</time></trkpt><trkpt lat="44.33089" lon="7.4808817"><ele>644.0</ele><time>2026-05-03T14:17:00.274Z</time></trkpt><trkpt lat="44.3308467" lon="7.4810733"><ele>644.0</ele><time>2026-05-03T14:17:01.275Z</time></trkpt><trkpt lat="44.3308033" lon="7.48126"><ele>644.0</ele><time>2026-05-03T14:17:02.274Z</time></trkpt><trkpt lat="44.3307517" lon="7.481445"><ele>644.0</ele><time>2026-05-03T14:17:03.274Z</time></trkpt><trkpt lat="44.3307117" lon="7.4816183"><ele>644.0</ele><time>2026-05-03T14:17:04.274Z</time></trkpt><trkpt lat="44.3306667" lon="7.481805"><ele>644.0</ele><time>2026-05-03T14:17:05.274Z</time></trkpt><trkpt lat="44.330625" lon="7.4819933"><ele>644.0</ele><time>2026-05-03T14:17:06.274Z</time></trkpt><trkpt lat="44.3305833" lon="7.482165"><ele>644.0</ele><time>2026-05-03T14:17:07.274Z</time></trkpt><trkpt lat="44.3305433" lon="7.4823367"><ele>644.0</ele><time>2026-05-03T14:17:08.274Z</time></trkpt><trkpt lat="44.3304983" lon="7.4825017"><ele>644.0</ele><time>2026-05-03T14:17:09.274Z</time></trkpt><trkpt lat="44.330455" lon="7.48266"><ele>644.0</ele><time>2026-05-03T14:17:10.274Z</time></trkpt><trkpt lat="44.3304183" lon="7.4828217"><ele>644.0</ele><time>2026-05-03T14:17:11.274Z</time></trkpt><trkpt lat="44.330385" lon="7.4829683"><ele>644.0</ele><time>2026-05-03T14:17:12.275Z</time></trkpt><trkpt lat="44.3303583" lon="7.483115"><ele>643.6</ele><time>2026-05-03T14:17:13.274Z</time></trkpt><trkpt lat="44.3303233" lon="7.4832683"><ele>643.2</ele><time>2026-05-03T14:17:14.275Z</time></trkpt><trkpt lat="44.3302867" lon="7.4834117"><ele>642.8000000000001</ele><time>2026-05-03T14:17:15.274Z</time></trkpt><trkpt lat="44.3302467" lon="7.4835617"><ele>642.4000000000001</ele><time>2026-05-03T14:17:16.274Z</time></trkpt><trkpt lat="44.33022" lon="7.4836967"><ele>642.0</ele><time>2026-05-03T14:17:17.275Z</time></trkpt><trkpt lat="44.3301883" lon="7.4838283"><ele>641.9999999999999</ele><time>2026-05-03T14:17:18.274Z</time></trkpt><trkpt lat="44.3301633" lon="7.4839417"><ele>642.0</ele><time>2026-05-03T14:17:19.274Z</time></trkpt><trkpt lat="44.3301417" lon="7.48405"><ele>642.0</ele><time>2026-05-03T14:17:20.274Z</time></trkpt><trkpt lat="44.3301267" lon="7.4841517"><ele>642.0</ele><time>2026-05-03T14:17:21.274Z</time></trkpt><trkpt lat="44.3301217" lon="7.4842433"><ele>642.0</ele><time>2026-05-03T14:17:22.274Z</time></trkpt><trkpt lat="44.3301317" lon="7.484335"><ele>641.9999999999999</ele><time>2026-05-03T14:17:23.274Z</time></trkpt><trkpt lat="44.330155" lon="7.484425"><ele>642.0</ele><time>2026-05-03T14:17:24.274Z</time></trkpt><trkpt lat="44.3301867" lon="7.4845183"><ele>641.8</ele><time>2026-05-03T14:17:25.274Z</time></trkpt><trkpt lat="44.3302367" lon="7.4846167"><ele>641.6</ele><time>2026-05-03T14:17:26.275Z</time></trkpt><trkpt lat="44.3303017" lon="7.484725"><ele>641.4</ele><time>2026-05-03T14:17:27.274Z</time></trkpt><trkpt lat="44.3303733" lon="7.4848567"><ele>641.1999999999999</ele><time>2026-05-03T14:17:28.274Z</time></trkpt><trkpt lat="44.3304383" lon="7.48501"><ele>641.0</ele><time>2026-05-03T14:17:29.274Z</time></trkpt><trkpt lat="44.3305" lon="7.4851733"><ele>641.0</ele><time>2026-05-03T14:17:30.274Z</time></trkpt><trkpt lat="44.330555" lon="7.485335"><ele>641.0</ele><time>2026-05-03T14:17:31.274Z</time></trkpt><trkpt lat="44.330615" lon="7.4855017"><ele>641.0</ele><time>2026-05-03T14:17:32.274Z</time></trkpt><trkpt lat="44.33068" lon="7.4856733"><ele>641.0</ele><time>2026-05-03T14:17:33.274Z</time></trkpt><trkpt lat="44.330745" lon="7.4858333"><ele>641.0</ele><time>2026-05-03T14:17:34.275Z</time></trkpt><trkpt lat="44.33081" lon="7.4859967"><ele>641.0</ele><time>2026-05-03T14:17:35.274Z</time></trkpt><trkpt lat="44.3308783" lon="7.4861567"><ele>641.0</ele><time>2026-05-03T14:17:36.274Z</time></trkpt><trkpt lat="44.3309567" lon="7.4863133"><ele>641.0</ele><time>2026-05-03T14:17:37.275Z</time></trkpt><trkpt lat="44.3310267" lon="7.4864583"><ele>641.25</ele><time>2026-05-03T14:17:38.274Z</time></trkpt><trkpt lat="44.3310883" lon="7.4866"><ele>641.5</ele><time>2026-05-03T14:17:39.274Z</time></trkpt><trkpt lat="44.3311483" lon="7.4867283"><ele>641.75</ele><time>2026-05-03T14:17:40.274Z</time></trkpt><trkpt lat="44.3312117" lon="7.4868517"><ele>642.0</ele><time>2026-05-03T14:17:41.274Z</time></trkpt><trkpt lat="44.33127" lon="7.4869917"><ele>641.8</ele><time>2026-05-03T14:17:42.274Z</time></trkpt><trkpt lat="44.3313317" lon="7.487135"><ele>641.6</ele><time>2026-05-03T14:17:43.274Z</time></trkpt><trkpt lat="44.3314017" lon="7.4872517"><ele>641.4</ele><time>2026-05-03T14:17:44.274Z</time></trkpt><trkpt lat="44.3314617" lon="7.4873633"><ele>641.1999999999999</ele><time>2026-05-03T14:17:45.274Z</time></trkpt><trkpt lat="44.331525" lon="7.487475"><ele>641.0</ele><time>2026-05-03T14:17:46.274Z</time></trkpt><trkpt lat="44.331575" lon="7.4875883"><ele>640.5999999999999</ele><time>2026-05-03T14:17:47.274Z</time></trkpt><trkpt lat="44.331635" lon="7.48769"><ele>640.1999999999999</ele><time>2026-05-03T14:17:48.274Z</time></trkpt><trkpt lat="44.331695" lon="7.4878017"><ele>639.8</ele><time>2026-05-03T14:17:49.275Z</time></trkpt><trkpt lat="44.33175" lon="7.4879117"><ele>639.4</ele><time>2026-05-03T14:17:50.274Z</time></trkpt><trkpt lat="44.3317983" lon="7.488015"><ele>639.0</ele><time>2026-05-03T14:17:51.274Z</time></trkpt><trkpt lat="44.3318417" lon="7.488115"><ele>638.5714285714287</ele><time>2026-05-03T14:17:52.274Z</time></trkpt><trkpt lat="44.3318667" lon="7.4882117"><ele>638.1428571428571</ele><time>2026-05-03T14:17:53.274Z</time></trkpt><trkpt lat="44.3318817" lon="7.4883033"><ele>637.7142857142858</ele><time>2026-05-03T14:17:54.274Z</time></trkpt><trkpt lat="44.3318767" lon="7.4883983"><ele>637.2857142857143</ele><time>2026-05-03T14:17:55.274Z</time></trkpt><trkpt lat="44.331855" lon="7.488515"><ele>636.8571428571429</ele><time>2026-05-03T14:17:56.275Z</time></trkpt><trkpt lat="44.33184" lon="7.4886217"><ele>636.4285714285714</ele><time>2026-05-03T14:17:57.274Z</time></trkpt><trkpt lat="44.3318233" lon="7.4887117"><ele>636.0</ele><time>2026-05-03T14:17:58.274Z</time></trkpt><trkpt lat="44.33181" lon="7.4887983"><ele>636.0</ele><time>2026-05-03T14:17:59.274Z</time></trkpt><trkpt lat="44.3317633" lon="7.4889117"><ele>636.0</ele><time>2026-05-03T14:18:01.274Z</time></trkpt><trkpt lat="44.3316933" lon="7.488945"><ele>636.0</ele><time>2026-05-03T14:18:03.274Z</time></trkpt><trkpt lat="44.3315817" lon="7.4889183"><ele>636.0</ele><time>2026-05-03T14:18:05.274Z</time></trkpt><trkpt lat="44.3315117" lon="7.48889"><ele>636.0</ele><time>2026-05-03T14:18:06.275Z</time></trkpt><trkpt lat="44.3314433" lon="7.4888667"><ele>636.0</ele><time>2026-05-03T14:18:07.275Z</time></trkpt><trkpt lat="44.3313717" lon="7.4888383"><ele>638.0</ele><time>2026-05-03T14:18:08.274Z</time></trkpt><trkpt lat="44.3312567" lon="7.4887883"><ele>638.0</ele><time>2026-05-03T14:18:10.274Z</time></trkpt><trkpt lat="44.3311783" lon="7.4887317"><ele>639.0</ele><time>2026-05-03T14:18:12.274Z</time></trkpt></trkseg></trk></gpx>